<?xml version="1.0" encoding="UTF-8" standalone="no" ?>
<gpx xmlns="http://www.topografix.com/GPX/1/1" xmlns:xsi="http://www.w3.org/2001/XMLSchema-instance" xsi:schemaLocation="http://www.topografix.com/GPX/1/1 http://www.topografix.com/GPX/1/1/gpx.xsd" version="1.1" creator="VisuGPX - https://www.visugpx.com">
  <metadata>
    <name>Transcaucasie: Géorgie + Arménie</name>
  </metadata>
  <trk>
    <name><![CDATA[Tour d'Europe: étape 437]]></name>
    <extensions>
      <line xmlns="http://www.topografix.com/GPX/gpx_style/0/2">
        <color>0000FF</color>
        <width>4</width>
      </line>
    </extensions>
    <trkseg>
      <trkpt lat="41.64501" lon="41.62766">
        <ele>111.457868</ele>
        <time>2021-09-08T05:10:59.766Z</time>
      </trkpt>
      <trkpt lat="41.64565" lon="41.62777">
        <ele>86.088772</ele>
        <time>2021-09-08T05:20:27.370Z</time>
      </trkpt>
      <trkpt lat="41.64693" lon="41.63021">
        <ele>55.404301</ele>
        <time>2021-09-08T05:21:34.409Z</time>
      </trkpt>
      <trkpt lat="41.64897" lon="41.62923">
        <ele>37.647819</ele>
        <time>2021-09-08T05:22:36.401Z</time>
      </trkpt>
      <trkpt lat="41.65096" lon="41.62817">
        <ele>28.563587</ele>
        <time>2021-09-08T05:23:38.390Z</time>
      </trkpt>
      <trkpt lat="41.65265" lon="41.62859">
        <ele>34.104692</ele>
        <time>2021-09-08T05:24:40.397Z</time>
      </trkpt>
      <trkpt lat="41.65379" lon="41.6307">
        <ele>37.703506</ele>
        <time>2021-09-08T05:25:22.410Z</time>
      </trkpt>
      <trkpt lat="41.65491" lon="41.63278">
        <ele>37.045693</ele>
        <time>2021-09-08T05:26:03.384Z</time>
      </trkpt>
      <trkpt lat="41.65608" lon="41.63496">
        <ele>34.580291</ele>
        <time>2021-09-08T05:26:46.386Z</time>
      </trkpt>
      <trkpt lat="41.65697" lon="41.63724">
        <ele>33.934327</ele>
        <time>2021-09-08T05:27:27.387Z</time>
      </trkpt>
      <trkpt lat="41.65622" lon="41.64019">
        <ele>30.262178</ele>
        <time>2021-09-08T05:28:22.367Z</time>
      </trkpt>
      <trkpt lat="41.65506" lon="41.64247">
        <ele>27.88545</ele>
        <time>2021-09-08T05:29:32.395Z</time>
      </trkpt>
      <trkpt lat="41.65314" lon="41.64326">
        <ele>26.413541</ele>
        <time>2021-09-08T05:30:36.399Z</time>
      </trkpt>
      <trkpt lat="41.65123" lon="41.64371">
        <ele>28.393063</ele>
        <time>2021-09-08T05:31:46.391Z</time>
      </trkpt>
      <trkpt lat="41.64915" lon="41.64478">
        <ele>26.737967</ele>
        <time>2021-09-08T05:32:45.391Z</time>
      </trkpt>
      <trkpt lat="41.64715" lon="41.64562">
        <ele>32.282348</ele>
        <time>2021-09-08T05:33:48.378Z</time>
      </trkpt>
      <trkpt lat="41.64642" lon="41.64817">
        <ele>42.882597</ele>
        <time>2021-09-08T05:35:25.387Z</time>
      </trkpt>
      <trkpt lat="41.64638" lon="41.65099">
        <ele>40.323124</ele>
        <time>2021-09-08T05:36:30.389Z</time>
      </trkpt>
      <trkpt lat="41.64617" lon="41.6539">
        <ele>37.735135</ele>
        <time>2021-09-08T05:37:33.415Z</time>
      </trkpt>
      <trkpt lat="41.64627" lon="41.65675">
        <ele>42.443782</ele>
        <time>2021-09-08T05:38:37.389Z</time>
      </trkpt>
      <trkpt lat="41.64693" lon="41.65942">
        <ele>39.961267</ele>
        <time>2021-09-08T05:40:01.377Z</time>
      </trkpt>
      <trkpt lat="41.64829" lon="41.66171">
        <ele>29.496082</ele>
        <time>2021-09-08T05:40:45.401Z</time>
      </trkpt>
      <trkpt lat="41.64929" lon="41.66408">
        <ele>27.684303</ele>
        <time>2021-09-08T05:42:08.418Z</time>
      </trkpt>
      <trkpt lat="41.6504" lon="41.66635">
        <ele>26.034805</ele>
        <time>2021-09-08T05:43:15.410Z</time>
      </trkpt>
      <trkpt lat="41.65174" lon="41.66874">
        <ele>21.428475</ele>
        <time>2021-09-08T05:44:15.441Z</time>
      </trkpt>
      <trkpt lat="41.65333" lon="41.67083">
        <ele>23.044278</ele>
        <time>2021-09-08T05:45:10.418Z</time>
      </trkpt>
      <trkpt lat="41.65496" lon="41.67299">
        <ele>24.863832</ele>
        <time>2021-09-08T05:46:10.417Z</time>
      </trkpt>
      <trkpt lat="41.65682" lon="41.67502">
        <ele>19.660738</ele>
        <time>2021-09-08T05:47:09.378Z</time>
      </trkpt>
      <trkpt lat="41.65866" lon="41.67658">
        <ele>17.21846</ele>
        <time>2021-09-08T05:48:09.426Z</time>
      </trkpt>
      <trkpt lat="41.66039" lon="41.67802">
        <ele>19.096005</ele>
        <time>2021-09-08T05:55:53.383Z</time>
      </trkpt>
      <trkpt lat="41.66194" lon="41.67978">
        <ele>22.239292</ele>
        <time>2021-09-08T05:56:59.390Z</time>
      </trkpt>
      <trkpt lat="41.66348" lon="41.68176">
        <ele>25.147774</ele>
        <time>2021-09-08T05:58:05.389Z</time>
      </trkpt>
      <trkpt lat="41.66495" lon="41.68381">
        <ele>26.127642</ele>
        <time>2021-09-08T05:59:06.381Z</time>
      </trkpt>
      <trkpt lat="41.6666" lon="41.6855">
        <ele>24.871503</ele>
        <time>2021-09-08T05:59:54.419Z</time>
      </trkpt>
      <trkpt lat="41.66868" lon="41.68715">
        <ele>23.356266</ele>
        <time>2021-09-08T06:00:51.398Z</time>
      </trkpt>
      <trkpt lat="41.67078" lon="41.68872">
        <ele>22.331341</ele>
        <time>2021-09-08T06:01:51.399Z</time>
      </trkpt>
      <trkpt lat="41.67201" lon="41.69102">
        <ele>31.587001</ele>
        <time>2021-09-08T06:02:59.380Z</time>
      </trkpt>
      <trkpt lat="41.67359" lon="41.69298">
        <ele>28.400236</ele>
        <time>2021-09-08T06:03:57.418Z</time>
      </trkpt>
      <trkpt lat="41.67527" lon="41.69492">
        <ele>26.132005</ele>
        <time>2021-09-08T06:04:48.402Z</time>
      </trkpt>
      <trkpt lat="41.67712" lon="41.69683">
        <ele>28.898374</ele>
        <time>2021-09-08T06:05:42.392Z</time>
      </trkpt>
      <trkpt lat="41.67916" lon="41.6978">
        <ele>32.058995</ele>
        <time>2021-09-08T06:06:32.397Z</time>
      </trkpt>
      <trkpt lat="41.68122" lon="41.6986">
        <ele>30.053387</ele>
        <time>2021-09-08T06:07:17.394Z</time>
      </trkpt>
      <trkpt lat="41.68323" lon="41.7">
        <ele>23.496957</ele>
        <time>2021-09-08T06:08:08.398Z</time>
      </trkpt>
      <trkpt lat="41.6852" lon="41.70156">
        <ele>26.819589</ele>
        <time>2021-09-08T06:08:59.387Z</time>
      </trkpt>
      <trkpt lat="41.68654" lon="41.7037">
        <ele>32.698272</ele>
        <time>2021-09-08T06:09:56.380Z</time>
      </trkpt>
      <trkpt lat="41.68686" lon="41.70643">
        <ele>35.216488</ele>
        <time>2021-09-08T06:11:35.397Z</time>
      </trkpt>
      <trkpt lat="41.68712" lon="41.7091">
        <ele>50.026189</ele>
        <time>2021-09-08T06:13:13.395Z</time>
      </trkpt>
      <trkpt lat="41.68814" lon="41.71139">
        <ele>61.455111</ele>
        <time>2021-09-08T06:14:44.395Z</time>
      </trkpt>
      <trkpt lat="41.68885" lon="41.71381">
        <ele>78.321871</ele>
        <time>2021-09-08T06:16:35.397Z</time>
      </trkpt>
      <trkpt lat="41.68969" lon="41.71626">
        <ele>93.5087</ele>
        <time>2021-09-08T06:21:32.386Z</time>
      </trkpt>
      <trkpt lat="41.69359" lon="41.72488">
        <ele>97.833735</ele>
        <time>2021-09-08T06:26:25.401Z</time>
      </trkpt>
      <trkpt lat="41.69545" lon="41.72689">
        <ele>108.441062</ele>
        <time>2021-09-08T06:27:05.423Z</time>
      </trkpt>
      <trkpt lat="41.69823" lon="41.72811">
        <ele>92.38855</ele>
        <time>2021-09-08T06:27:45.416Z</time>
      </trkpt>
      <trkpt lat="41.70045" lon="41.7305">
        <ele>71.882092</ele>
        <time>2021-09-08T06:28:25.380Z</time>
      </trkpt>
      <trkpt lat="41.70175" lon="41.73393">
        <ele>54.284824</ele>
        <time>2021-09-08T06:29:05.393Z</time>
      </trkpt>
      <trkpt lat="41.70386" lon="41.73601">
        <ele>40.963727</ele>
        <time>2021-09-08T06:29:45.389Z</time>
      </trkpt>
      <trkpt lat="41.70623" lon="41.73548">
        <ele>36.75155</ele>
        <time>2021-09-08T06:30:26.447Z</time>
      </trkpt>
      <trkpt lat="41.70802" lon="41.73394">
        <ele>36.196615</ele>
        <time>2021-09-08T06:31:13.434Z</time>
      </trkpt>
      <trkpt lat="41.71001" lon="41.73368">
        <ele>33.936909</ele>
        <time>2021-09-08T06:31:53.387Z</time>
      </trkpt>
      <trkpt lat="41.71198" lon="41.73303">
        <ele>29.649683</ele>
        <time>2021-09-08T06:32:34.399Z</time>
      </trkpt>
      <trkpt lat="41.71381" lon="41.73402">
        <ele>31.033826</ele>
        <time>2021-09-08T06:33:23.410Z</time>
      </trkpt>
      <trkpt lat="41.71557" lon="41.73249">
        <ele>35.49854</ele>
        <time>2021-09-08T06:34:14.402Z</time>
      </trkpt>
      <trkpt lat="41.71776" lon="41.73321">
        <ele>32.728061</ele>
        <time>2021-09-08T06:35:08.450Z</time>
      </trkpt>
      <trkpt lat="41.71995" lon="41.73345">
        <ele>32.194475</ele>
        <time>2021-09-08T06:35:51.407Z</time>
      </trkpt>
      <trkpt lat="41.72218" lon="41.73344">
        <ele>32.312351</ele>
        <time>2021-09-08T06:36:43.391Z</time>
      </trkpt>
      <trkpt lat="41.72436" lon="41.73314">
        <ele>31.926856</ele>
        <time>2021-09-08T06:37:29.405Z</time>
      </trkpt>
      <trkpt lat="41.72651" lon="41.73267">
        <ele>26.838297</ele>
        <time>2021-09-08T06:38:19.399Z</time>
      </trkpt>
      <trkpt lat="41.72837" lon="41.73126">
        <ele>28.840499</ele>
        <time>2021-09-08T06:39:13.390Z</time>
      </trkpt>
      <trkpt lat="41.73061" lon="41.73152">
        <ele>29.785226</ele>
        <time>2021-09-08T06:40:04.405Z</time>
      </trkpt>
      <trkpt lat="41.73295" lon="41.73252">
        <ele>33.453428</ele>
        <time>2021-09-08T06:41:01.382Z</time>
      </trkpt>
      <trkpt lat="41.73515" lon="41.73374">
        <ele>33.426524</ele>
        <time>2021-09-08T06:42:01.407Z</time>
      </trkpt>
      <trkpt lat="41.73724" lon="41.73475">
        <ele>33.464674</ele>
        <time>2021-09-08T06:43:01.405Z</time>
      </trkpt>
      <trkpt lat="41.73941" lon="41.73568">
        <ele>31.854729</ele>
        <time>2021-09-08T06:44:00.394Z</time>
      </trkpt>
      <trkpt lat="41.74142" lon="41.73707">
        <ele>35.503915</ele>
        <time>2021-09-08T06:45:02.407Z</time>
      </trkpt>
      <trkpt lat="41.74357" lon="41.73913">
        <ele>34.028608</ele>
        <time>2021-09-08T06:45:53.390Z</time>
      </trkpt>
      <trkpt lat="41.74554" lon="41.74041">
        <ele>36.632635</ele>
        <time>2021-09-08T06:46:39.404Z</time>
      </trkpt>
      <trkpt lat="41.74752" lon="41.74144">
        <ele>41.785512</ele>
        <time>2021-09-08T06:48:04.393Z</time>
      </trkpt>
      <trkpt lat="41.74937" lon="41.74225">
        <ele>57.291417</ele>
        <time>2021-09-08T06:50:05.422Z</time>
      </trkpt>
      <trkpt lat="41.75038" lon="41.7442">
        <ele>73.916957</ele>
        <time>2021-09-08T06:52:23.396Z</time>
      </trkpt>
      <trkpt lat="41.75201" lon="41.74554">
        <ele>79.103127</ele>
        <time>2021-09-08T06:53:53.380Z</time>
      </trkpt>
      <trkpt lat="41.7533" lon="41.74759">
        <ele>94.055498</ele>
        <time>2021-09-08T06:56:08.389Z</time>
      </trkpt>
      <trkpt lat="41.75491" lon="41.74892">
        <ele>110.218165</ele>
        <time>2021-09-08T06:58:26.401Z</time>
      </trkpt>
      <trkpt lat="41.75577" lon="41.75112">
        <ele>128.270073</ele>
        <time>2021-09-08T07:01:00.388Z</time>
      </trkpt>
      <trkpt lat="41.75546" lon="41.75356">
        <ele>148.622419</ele>
        <time>2021-09-08T07:07:59.381Z</time>
      </trkpt>
      <trkpt lat="41.75621" lon="41.75578">
        <ele>157.940722</ele>
        <time>2021-09-08T07:09:41.402Z</time>
      </trkpt>
      <trkpt lat="41.75777" lon="41.75753">
        <ele>159.844047</ele>
        <time>2021-09-08T07:10:56.376Z</time>
      </trkpt>
      <trkpt lat="41.75871" lon="41.75974">
        <ele>163.088521</ele>
        <time>2021-09-08T07:12:35.390Z</time>
      </trkpt>
      <trkpt lat="41.76093" lon="41.7597">
        <ele>157.251525</ele>
        <time>2021-09-08T07:15:25.403Z</time>
      </trkpt>
      <trkpt lat="41.76244" lon="41.75731">
        <ele>132.370083</ele>
        <time>2021-09-08T07:16:06.414Z</time>
      </trkpt>
      <trkpt lat="41.76262" lon="41.75375">
        <ele>108.210483</ele>
        <time>2021-09-08T07:16:45.388Z</time>
      </trkpt>
      <trkpt lat="41.76514" lon="41.75364">
        <ele>89.477162</ele>
        <time>2021-09-08T07:17:25.406Z</time>
      </trkpt>
      <trkpt lat="41.76458" lon="41.75501">
        <ele>75.712887</ele>
        <time>2021-09-08T07:18:09.431Z</time>
      </trkpt>
      <trkpt lat="41.76653" lon="41.75384">
        <ele>75.575067</ele>
        <time>2021-09-08T07:19:00.404Z</time>
      </trkpt>
      <trkpt lat="41.76828" lon="41.75463">
        <ele>66.170014</ele>
        <time>2021-09-08T07:50:12.374Z</time>
      </trkpt>
      <trkpt lat="41.77067" lon="41.75592">
        <ele>42.001019</ele>
        <time>2021-09-08T07:50:52.371Z</time>
      </trkpt>
      <trkpt lat="41.77286" lon="41.75681">
        <ele>25.688537</ele>
        <time>2021-09-08T07:51:16.403Z</time>
      </trkpt>
      <trkpt lat="41.77472" lon="41.75873">
        <ele>25.297613</ele>
        <time>2021-09-08T07:52:01.394Z</time>
      </trkpt>
      <trkpt lat="41.77648" lon="41.76049">
        <ele>31.068834</ele>
        <time>2021-09-08T07:52:49.408Z</time>
      </trkpt>
      <trkpt lat="41.77817" lon="41.76217">
        <ele>33.431035</ele>
        <time>2021-09-08T07:53:35.393Z</time>
      </trkpt>
      <trkpt lat="41.78017" lon="41.76374">
        <ele>28.692228</ele>
        <time>2021-09-08T07:54:27.390Z</time>
      </trkpt>
      <trkpt lat="41.78209" lon="41.76455">
        <ele>27.433512</ele>
        <time>2021-09-08T07:55:07.378Z</time>
      </trkpt>
      <trkpt lat="41.78414" lon="41.76533">
        <ele>26.783856</ele>
        <time>2021-09-08T07:55:53.399Z</time>
      </trkpt>
      <trkpt lat="41.78616" lon="41.7662">
        <ele>27.853933</ele>
        <time>2021-09-08T07:56:39.402Z</time>
      </trkpt>
      <trkpt lat="41.78825" lon="41.76699">
        <ele>30.190697</ele>
        <time>2021-09-08T07:57:26.405Z</time>
      </trkpt>
      <trkpt lat="41.79015" lon="41.76794">
        <ele>27.142186</ele>
        <time>2021-09-08T07:58:10.370Z</time>
      </trkpt>
      <trkpt lat="41.79198" lon="41.76902">
        <ele>24.83339</ele>
        <time>2021-09-08T07:58:52.385Z</time>
      </trkpt>
      <trkpt lat="41.794" lon="41.77038">
        <ele>25.897505</ele>
        <time>2021-09-08T07:59:43.381Z</time>
      </trkpt>
      <trkpt lat="41.79596" lon="41.7715">
        <ele>28.776434</ele>
        <time>2021-09-08T08:00:30.409Z</time>
      </trkpt>
      <trkpt lat="41.79789" lon="41.77273">
        <ele>27.72365</ele>
        <time>2021-09-08T08:01:17.365Z</time>
      </trkpt>
      <trkpt lat="41.80001" lon="41.77405">
        <ele>27.55408</ele>
        <time>2021-09-08T08:02:11.354Z</time>
      </trkpt>
      <trkpt lat="41.80219" lon="41.77543">
        <ele>29.051191</ele>
        <time>2021-09-08T08:03:09.352Z</time>
      </trkpt>
      <trkpt lat="41.80438" lon="41.7766">
        <ele>30.077935</ele>
        <time>2021-09-08T08:04:08.351Z</time>
      </trkpt>
      <trkpt lat="41.80465" lon="41.77618">
        <ele>31.24687</ele>
        <time>2021-09-08T08:05:25.386Z</time>
      </trkpt>
      <trkpt lat="41.80608" lon="41.7778">
        <ele>30.9436</ele>
        <time>2021-09-08T08:06:27.377Z</time>
      </trkpt>
      <trkpt lat="41.80822" lon="41.77867">
        <ele>28.693134</ele>
        <time>2021-09-08T08:07:19.374Z</time>
      </trkpt>
      <trkpt lat="41.81039" lon="41.78013">
        <ele>32.747717</ele>
        <time>2021-09-08T08:08:17.380Z</time>
      </trkpt>
      <trkpt lat="41.81169" lon="41.77792">
        <ele>33.193763</ele>
        <time>2021-09-08T08:09:09.359Z</time>
      </trkpt>
      <trkpt lat="41.81329" lon="41.77574">
        <ele>30.946105</ele>
        <time>2021-09-08T08:10:03.359Z</time>
      </trkpt>
      <trkpt lat="41.81529" lon="41.7741">
        <ele>34.650953</ele>
        <time>2021-09-08T08:11:00.356Z</time>
      </trkpt>
      <trkpt lat="41.81743" lon="41.77431">
        <ele>45.42763</ele>
        <time>2021-09-08T08:12:00.356Z</time>
      </trkpt>
      <trkpt lat="41.81953" lon="41.77453">
        <ele>53.92685</ele>
        <time>2021-09-08T08:13:01.354Z</time>
      </trkpt>
      <trkpt lat="41.82174" lon="41.77538">
        <ele>42.1165</ele>
        <time>2021-09-08T08:22:27.359Z</time>
      </trkpt>
      <trkpt lat="41.82399" lon="41.77576">
        <ele>43.233415</ele>
        <time>2021-09-08T08:23:21.352Z</time>
      </trkpt>
      <trkpt lat="41.82639" lon="41.77605">
        <ele>41.676621</ele>
        <time>2021-09-08T08:24:21.353Z</time>
      </trkpt>
      <trkpt lat="41.82874" lon="41.77644">
        <ele>40.238443</ele>
        <time>2021-09-08T08:25:19.351Z</time>
      </trkpt>
      <trkpt lat="41.83112" lon="41.77695">
        <ele>41.062009</ele>
        <time>2021-09-08T08:26:17.356Z</time>
      </trkpt>
      <trkpt lat="41.83348" lon="41.7773">
        <ele>41.864378</ele>
        <time>2021-09-08T08:27:14.359Z</time>
      </trkpt>
      <trkpt lat="41.83562" lon="41.77765">
        <ele>39.599548</ele>
        <time>2021-09-08T08:28:03.376Z</time>
      </trkpt>
      <trkpt lat="41.83782" lon="41.77792">
        <ele>47.143131</ele>
        <time>2021-09-08T08:28:54.392Z</time>
      </trkpt>
      <trkpt lat="41.84023" lon="41.77826">
        <ele>47.007236</ele>
        <time>2021-09-08T08:29:51.379Z</time>
      </trkpt>
      <trkpt lat="41.84257" lon="41.77858">
        <ele>46.829327</ele>
        <time>2021-09-08T08:30:48.403Z</time>
      </trkpt>
      <trkpt lat="41.84496" lon="41.77884">
        <ele>51.626244</ele>
        <time>2021-09-08T08:31:45.391Z</time>
      </trkpt>
      <trkpt lat="41.84744" lon="41.77911">
        <ele>57.071461</ele>
        <time>2021-09-08T08:32:43.406Z</time>
      </trkpt>
      <trkpt lat="41.8497" lon="41.77938">
        <ele>46.436816</ele>
        <time>2021-09-08T08:33:36.396Z</time>
      </trkpt>
      <trkpt lat="41.85205" lon="41.77953">
        <ele>53.023325</ele>
        <time>2021-09-08T08:34:32.387Z</time>
      </trkpt>
      <trkpt lat="41.85439" lon="41.77969">
        <ele>50.516391</ele>
        <time>2021-09-08T08:35:26.417Z</time>
      </trkpt>
      <trkpt lat="41.85674" lon="41.77975">
        <ele>46.633099</ele>
        <time>2021-09-08T08:36:21.380Z</time>
      </trkpt>
      <trkpt lat="41.85907" lon="41.77971">
        <ele>44.955383</ele>
        <time>2021-09-08T08:37:15.381Z</time>
      </trkpt>
      <trkpt lat="41.86137" lon="41.77966">
        <ele>46.608521</ele>
        <time>2021-09-08T08:38:09.398Z</time>
      </trkpt>
      <trkpt lat="41.8636" lon="41.77966">
        <ele>47.376738</ele>
        <time>2021-09-08T08:39:00.394Z</time>
      </trkpt>
      <trkpt lat="41.86587" lon="41.77919">
        <ele>42.475682</ele>
        <time>2021-09-08T08:39:54.432Z</time>
      </trkpt>
      <trkpt lat="41.86814" lon="41.77876">
        <ele>39.696423</ele>
        <time>2021-09-08T08:40:46.388Z</time>
      </trkpt>
      <trkpt lat="41.87038" lon="41.77836">
        <ele>45.903059</ele>
        <time>2021-09-08T08:41:39.387Z</time>
      </trkpt>
      <trkpt lat="41.8726" lon="41.77759">
        <ele>47.136793</ele>
        <time>2021-09-08T08:42:33.380Z</time>
      </trkpt>
      <trkpt lat="41.87477" lon="41.77666">
        <ele>44.273665</ele>
        <time>2021-09-08T08:43:26.402Z</time>
      </trkpt>
      <trkpt lat="41.87712" lon="41.77581">
        <ele>44.221883</ele>
        <time>2021-09-08T08:44:23.416Z</time>
      </trkpt>
      <trkpt lat="41.87933" lon="41.77531">
        <ele>36.445805</ele>
        <time>2021-09-08T08:45:14.386Z</time>
      </trkpt>
      <trkpt lat="41.88158" lon="41.77499">
        <ele>26.859096</ele>
        <time>2021-09-08T08:46:10.375Z</time>
      </trkpt>
      <trkpt lat="41.88381" lon="41.77467">
        <ele>31.431725</ele>
        <time>2021-09-08T08:47:04.361Z</time>
      </trkpt>
      <trkpt lat="41.886" lon="41.77434">
        <ele>33.583253</ele>
        <time>2021-09-08T08:47:54.396Z</time>
      </trkpt>
      <trkpt lat="41.88838" lon="41.77395">
        <ele>33.0368</ele>
        <time>2021-09-08T08:48:50.378Z</time>
      </trkpt>
      <trkpt lat="41.89061" lon="41.77365">
        <ele>31.513823</ele>
        <time>2021-09-08T08:49:41.420Z</time>
      </trkpt>
      <trkpt lat="41.89298" lon="41.77332">
        <ele>26.98175</ele>
        <time>2021-09-08T08:50:35.382Z</time>
      </trkpt>
      <trkpt lat="41.89523" lon="41.77337">
        <ele>27.128327</ele>
        <time>2021-09-08T08:51:30.360Z</time>
      </trkpt>
      <trkpt lat="41.8976" lon="41.77358">
        <ele>33.480902</ele>
        <time>2021-09-08T08:52:27.393Z</time>
      </trkpt>
      <trkpt lat="41.89978" lon="41.77381">
        <ele>27.856587</ele>
        <time>2021-09-08T08:53:20.387Z</time>
      </trkpt>
      <trkpt lat="41.90203" lon="41.77404">
        <ele>25.203599</ele>
        <time>2021-09-08T08:54:13.379Z</time>
      </trkpt>
      <trkpt lat="41.90445" lon="41.77418">
        <ele>32.264979</ele>
        <time>2021-09-08T08:55:11.415Z</time>
      </trkpt>
      <trkpt lat="41.90682" lon="41.77417">
        <ele>29.227459</ele>
        <time>2021-09-08T08:56:06.395Z</time>
      </trkpt>
      <trkpt lat="41.90911" lon="41.77417">
        <ele>30.606154</ele>
        <time>2021-09-08T08:56:59.385Z</time>
      </trkpt>
      <trkpt lat="41.91126" lon="41.77412">
        <ele>29.807264</ele>
        <time>2021-09-08T08:57:59.375Z</time>
      </trkpt>
      <trkpt lat="41.91316" lon="41.77366">
        <ele>24.876303</ele>
        <time>2021-09-08T08:59:00.377Z</time>
      </trkpt>
      <trkpt lat="41.91299" lon="41.77122">
        <ele>18.858039</ele>
        <time>2021-09-08T09:02:53.395Z</time>
      </trkpt>
      <trkpt lat="41.91416" lon="41.77179">
        <ele>24.249533</ele>
        <time>2021-09-08T09:04:37.369Z</time>
      </trkpt>
      <trkpt lat="41.91619" lon="41.77129">
        <ele>30.920383</ele>
        <time>2021-09-08T09:06:01.404Z</time>
      </trkpt>
      <trkpt lat="41.9182" lon="41.7711">
        <ele>31.091694</ele>
        <time>2021-09-08T09:07:23.416Z</time>
      </trkpt>
      <trkpt lat="41.92023" lon="41.77072">
        <ele>32.432497</ele>
        <time>2021-09-08T09:08:42.397Z</time>
      </trkpt>
      <trkpt lat="41.92229" lon="41.77015">
        <ele>28.198768</ele>
        <time>2021-09-08T09:09:57.373Z</time>
      </trkpt>
      <trkpt lat="41.92438" lon="41.77014">
        <ele>26.972624</ele>
        <time>2021-09-08T09:11:06.373Z</time>
      </trkpt>
      <trkpt lat="41.92674" lon="41.76982">
        <ele>30.223223</ele>
        <time>2021-09-08T09:12:04.436Z</time>
      </trkpt>
      <trkpt lat="41.9289" lon="41.7695">
        <ele>36.382751</ele>
        <time>2021-09-08T09:12:52.367Z</time>
      </trkpt>
      <trkpt lat="41.93112" lon="41.76922">
        <ele>31.720416</ele>
        <time>2021-09-08T09:13:49.383Z</time>
      </trkpt>
      <trkpt lat="41.93042" lon="41.76916">
        <ele>-2.658015</ele>
        <time>2021-09-08T09:42:22.119Z</time>
      </trkpt>
      <trkpt lat="41.93075" lon="41.76708">
        <ele>25.73493</ele>
        <time>2021-09-08T09:43:45.090Z</time>
      </trkpt>
      <trkpt lat="41.93182" lon="41.76615">
        <ele>22.811567</ele>
        <time>2021-09-08T09:45:37.053Z</time>
      </trkpt>
      <trkpt lat="41.93292" lon="41.76785">
        <ele>30.166498</ele>
        <time>2021-09-08T09:47:14.078Z</time>
      </trkpt>
      <trkpt lat="41.93437" lon="41.76887">
        <ele>32.233003</ele>
        <time>2021-09-08T09:48:46.067Z</time>
      </trkpt>
      <trkpt lat="41.93653" lon="41.76863">
        <ele>25.458003</ele>
        <time>2021-09-08T09:49:44.077Z</time>
      </trkpt>
      <trkpt lat="41.93817" lon="41.76977">
        <ele>31.798919</ele>
        <time>2021-09-08T09:50:51.071Z</time>
      </trkpt>
      <trkpt lat="41.9394" lon="41.77143">
        <ele>24.818353</ele>
        <time>2021-09-08T09:51:49.080Z</time>
      </trkpt>
      <trkpt lat="41.94173" lon="41.77106">
        <ele>20.712589</ele>
        <time>2021-09-08T09:52:49.095Z</time>
      </trkpt>
      <trkpt lat="41.94398" lon="41.77079">
        <ele>26.841093</ele>
        <time>2021-09-08T09:53:41.074Z</time>
      </trkpt>
      <trkpt lat="41.94611" lon="41.77064">
        <ele>25.168663</ele>
        <time>2021-09-08T09:54:28.068Z</time>
      </trkpt>
      <trkpt lat="41.94841" lon="41.77048">
        <ele>26.559603</ele>
        <time>2021-09-08T09:55:21.073Z</time>
      </trkpt>
      <trkpt lat="41.95093" lon="41.77047">
        <ele>25.014334</ele>
        <time>2021-09-08T09:56:19.080Z</time>
      </trkpt>
      <trkpt lat="41.9535" lon="41.77078">
        <ele>23.119096</ele>
        <time>2021-09-08T09:57:22.056Z</time>
      </trkpt>
      <trkpt lat="41.95581" lon="41.77157">
        <ele>24.321837</ele>
        <time>2021-09-08T09:58:22.063Z</time>
      </trkpt>
      <trkpt lat="41.95796" lon="41.77244">
        <ele>31.629114</ele>
        <time>2021-09-08T09:59:22.091Z</time>
      </trkpt>
      <trkpt lat="41.96013" lon="41.77298">
        <ele>35.247939</ele>
        <time>2021-09-08T10:00:23.053Z</time>
      </trkpt>
      <trkpt lat="41.96251" lon="41.7731">
        <ele>35.071313</ele>
        <time>2021-09-08T10:01:21.078Z</time>
      </trkpt>
      <trkpt lat="41.96496" lon="41.77325">
        <ele>33.265293</ele>
        <time>2021-09-08T10:02:18.079Z</time>
      </trkpt>
      <trkpt lat="41.96724" lon="41.77385">
        <ele>33.004783</ele>
        <time>2021-09-08T10:03:11.064Z</time>
      </trkpt>
      <trkpt lat="41.96823" lon="41.7761">
        <ele>34.599991</ele>
        <time>2021-09-08T10:04:06.087Z</time>
      </trkpt>
      <trkpt lat="41.96824" lon="41.77891">
        <ele>45.084189</ele>
        <time>2021-09-08T10:05:32.087Z</time>
      </trkpt>
      <trkpt lat="41.96894" lon="41.78149">
        <ele>44.301051</ele>
        <time>2021-09-08T10:06:53.080Z</time>
      </trkpt>
      <trkpt lat="41.97154" lon="41.78216">
        <ele>44.008864</ele>
        <time>2021-09-08T10:07:33.082Z</time>
      </trkpt>
      <trkpt lat="41.97384" lon="41.78216">
        <ele>45.472851</ele>
        <time>2021-09-08T10:08:18.058Z</time>
      </trkpt>
      <trkpt lat="41.97601" lon="41.78212">
        <ele>46.55891</ele>
        <time>2021-09-08T10:09:03.081Z</time>
      </trkpt>
      <trkpt lat="41.97814" lon="41.78214">
        <ele>47.464472</ele>
        <time>2021-09-08T10:09:43.064Z</time>
      </trkpt>
      <trkpt lat="41.98011" lon="41.78278">
        <ele>47.08319</ele>
        <time>2021-09-08T10:10:23.069Z</time>
      </trkpt>
      <trkpt lat="41.98228" lon="41.78344">
        <ele>44.120506</ele>
        <time>2021-09-08T10:11:09.071Z</time>
      </trkpt>
      <trkpt lat="41.98448" lon="41.78401">
        <ele>50.007202</ele>
        <time>2021-09-08T10:11:58.112Z</time>
      </trkpt>
      <trkpt lat="41.98639" lon="41.78371">
        <ele>46.317226</ele>
        <time>2021-09-08T10:12:39.074Z</time>
      </trkpt>
      <trkpt lat="41.9882" lon="41.782">
        <ele>51.221834</ele>
        <time>2021-09-08T10:13:42.069Z</time>
      </trkpt>
      <trkpt lat="41.99029" lon="41.78119">
        <ele>45.816473</ele>
        <time>2021-09-08T10:14:28.065Z</time>
      </trkpt>
      <trkpt lat="41.99248" lon="41.781">
        <ele>39.343191</ele>
        <time>2021-09-08T10:15:23.081Z</time>
      </trkpt>
      <trkpt lat="41.99438" lon="41.77987">
        <ele>46.454725</ele>
        <time>2021-09-08T10:16:20.077Z</time>
      </trkpt>
      <trkpt lat="41.99657" lon="41.77941">
        <ele>46.147475</ele>
        <time>2021-09-08T10:17:10.071Z</time>
      </trkpt>
      <trkpt lat="41.99867" lon="41.77894">
        <ele>45.280623</ele>
        <time>2021-09-08T10:18:14.069Z</time>
      </trkpt>
      <trkpt lat="41.9989" lon="41.77623">
        <ele>34.227808</ele>
        <time>2021-09-08T10:19:04.094Z</time>
      </trkpt>
      <trkpt lat="41.99869" lon="41.7731">
        <ele>29.035784</ele>
        <time>2021-09-08T10:19:59.078Z</time>
      </trkpt>
      <trkpt lat="41.99845" lon="41.76989">
        <ele>34.391775</ele>
        <time>2021-09-08T10:20:59.132Z</time>
      </trkpt>
      <trkpt lat="41.99829" lon="41.76689">
        <ele>36.348593</ele>
        <time>2021-09-08T10:21:52.077Z</time>
      </trkpt>
      <trkpt lat="41.99983" lon="41.76536">
        <ele>38.986414</ele>
        <time>2021-09-08T10:22:52.092Z</time>
      </trkpt>
      <trkpt lat="42.00128" lon="41.76314">
        <ele>34.802432</ele>
        <time>2021-09-08T10:23:46.132Z</time>
      </trkpt>
      <trkpt lat="42.00271" lon="41.76118">
        <ele>40.405889</ele>
        <time>2021-09-08T10:24:44.082Z</time>
      </trkpt>
      <trkpt lat="42.00498" lon="41.76064">
        <ele>43.092465</ele>
        <time>2021-09-08T10:25:41.080Z</time>
      </trkpt>
      <trkpt lat="42.00724" lon="41.76009">
        <ele>43.16572</ele>
        <time>2021-09-08T10:26:36.070Z</time>
      </trkpt>
      <trkpt lat="42.00953" lon="41.75969">
        <ele>41.369308</ele>
        <time>2021-09-08T10:27:31.073Z</time>
      </trkpt>
      <trkpt lat="42.01189" lon="41.7593">
        <ele>42.624415</ele>
        <time>2021-09-08T10:28:29.091Z</time>
      </trkpt>
      <trkpt lat="42.01415" lon="41.75841">
        <ele>40.401728</ele>
        <time>2021-09-08T10:29:28.055Z</time>
      </trkpt>
      <trkpt lat="42.01637" lon="41.75743">
        <ele>38.244309</ele>
        <time>2021-09-08T10:30:27.094Z</time>
      </trkpt>
      <trkpt lat="42.0184" lon="41.75661">
        <ele>36.842068</ele>
        <time>2021-09-08T10:31:19.109Z</time>
      </trkpt>
      <trkpt lat="42.02028" lon="41.75778">
        <ele>29.278823</ele>
        <time>2021-09-08T10:32:09.091Z</time>
      </trkpt>
      <trkpt lat="42.02177" lon="41.75877">
        <ele>30.435252</ele>
        <time>2021-09-08T10:33:08.069Z</time>
      </trkpt>
      <trkpt lat="42.02312" lon="41.75678">
        <ele>35.481886</ele>
        <time>2021-09-08T10:34:08.077Z</time>
      </trkpt>
      <trkpt lat="42.02465" lon="41.75449">
        <ele>33.646544</ele>
        <time>2021-09-08T10:35:08.071Z</time>
      </trkpt>
      <trkpt lat="42.02614" lon="41.7523">
        <ele>34.544976</ele>
        <time>2021-09-08T10:35:51.070Z</time>
      </trkpt>
      <trkpt lat="42.02755" lon="41.75023">
        <ele>38.19738</ele>
        <time>2021-09-08T10:36:36.074Z</time>
      </trkpt>
      <trkpt lat="42.02906" lon="41.74824">
        <ele>33.630491</ele>
        <time>2021-09-08T10:37:18.091Z</time>
      </trkpt>
      <trkpt lat="42.03082" lon="41.74631">
        <ele>36.046876</ele>
        <time>2021-09-08T10:38:15.111Z</time>
      </trkpt>
      <trkpt lat="42.03266" lon="41.74446">
        <ele>38.597169</ele>
        <time>2021-09-08T10:39:11.072Z</time>
      </trkpt>
      <trkpt lat="42.03428" lon="41.74261">
        <ele>38.872884</ele>
        <time>2021-09-08T10:39:57.077Z</time>
      </trkpt>
      <trkpt lat="42.03594" lon="41.74102">
        <ele>36.522381</ele>
        <time>2021-09-08T10:40:40.075Z</time>
      </trkpt>
      <trkpt lat="42.03769" lon="41.73921">
        <ele>33.794459</ele>
        <time>2021-09-08T10:41:24.079Z</time>
      </trkpt>
      <trkpt lat="42.03928" lon="41.73739">
        <ele>33.846281</ele>
        <time>2021-09-08T10:42:09.076Z</time>
      </trkpt>
      <trkpt lat="42.04124" lon="41.73584">
        <ele>33.058583</ele>
        <time>2021-09-08T10:43:01.076Z</time>
      </trkpt>
      <trkpt lat="42.0434" lon="41.73465">
        <ele>31.809312</ele>
        <time>2021-09-08T10:43:56.080Z</time>
      </trkpt>
      <trkpt lat="42.04555" lon="41.73351">
        <ele>33.537184</ele>
        <time>2021-09-08T10:44:48.098Z</time>
      </trkpt>
      <trkpt lat="42.04766" lon="41.73236">
        <ele>30.653637</ele>
        <time>2021-09-08T10:45:39.082Z</time>
      </trkpt>
      <trkpt lat="42.04989" lon="41.73118">
        <ele>31.146825</ele>
        <time>2021-09-08T10:46:36.087Z</time>
      </trkpt>
      <trkpt lat="42.05202" lon="41.73003">
        <ele>32.648595</ele>
        <time>2021-09-08T10:47:30.075Z</time>
      </trkpt>
      <trkpt lat="42.05415" lon="41.72885">
        <ele>34.464238</ele>
        <time>2021-09-08T10:48:23.078Z</time>
      </trkpt>
      <trkpt lat="42.05626" lon="41.7277">
        <ele>36.196802</ele>
        <time>2021-09-08T10:49:15.119Z</time>
      </trkpt>
      <trkpt lat="42.05822" lon="41.72661">
        <ele>32.298187</ele>
        <time>2021-09-08T10:50:02.084Z</time>
      </trkpt>
      <trkpt lat="42.06029" lon="41.72554">
        <ele>29.976152</ele>
        <time>2021-09-08T10:50:52.103Z</time>
      </trkpt>
      <trkpt lat="42.0627" lon="41.7243">
        <ele>27.891121</ele>
        <time>2021-09-08T10:51:52.067Z</time>
      </trkpt>
      <trkpt lat="42.06474" lon="41.72324">
        <ele>29.192129</ele>
        <time>2021-09-08T10:52:42.083Z</time>
      </trkpt>
      <trkpt lat="42.06681" lon="41.72179">
        <ele>27.970668</ele>
        <time>2021-09-08T10:53:35.078Z</time>
      </trkpt>
      <trkpt lat="42.06866" lon="41.72006">
        <ele>26.202372</ele>
        <time>2021-09-08T10:54:26.088Z</time>
      </trkpt>
      <trkpt lat="42.07055" lon="41.7183">
        <ele>30.482024</ele>
        <time>2021-09-08T10:55:20.075Z</time>
      </trkpt>
      <trkpt lat="42.0725" lon="41.7165">
        <ele>31.283277</ele>
        <time>2021-09-08T10:56:15.081Z</time>
      </trkpt>
      <trkpt lat="42.07446" lon="41.71492">
        <ele>31.105464</ele>
        <time>2021-09-08T10:57:07.079Z</time>
      </trkpt>
      <trkpt lat="42.07641" lon="41.71367">
        <ele>31.030948</ele>
        <time>2021-09-08T10:57:55.082Z</time>
      </trkpt>
      <trkpt lat="42.07841" lon="41.71256">
        <ele>31.451666</ele>
        <time>2021-09-08T10:58:43.083Z</time>
      </trkpt>
      <trkpt lat="42.08073" lon="41.7114">
        <ele>31.544825</ele>
        <time>2021-09-08T10:59:40.099Z</time>
      </trkpt>
      <trkpt lat="42.08287" lon="41.71029">
        <ele>30.304022</ele>
        <time>2021-09-08T11:00:33.114Z</time>
      </trkpt>
      <trkpt lat="42.08508" lon="41.70916">
        <ele>29.078241</ele>
        <time>2021-09-08T11:01:27.070Z</time>
      </trkpt>
      <trkpt lat="42.08719" lon="41.70809">
        <ele>34.68619</ele>
        <time>2021-09-08T11:02:19.103Z</time>
      </trkpt>
      <trkpt lat="42.08928" lon="41.70699">
        <ele>36.272523</ele>
        <time>2021-09-08T11:03:10.103Z</time>
      </trkpt>
      <trkpt lat="42.09135" lon="41.70589">
        <ele>32.494257</ele>
        <time>2021-09-08T11:04:05.081Z</time>
      </trkpt>
      <trkpt lat="42.09349" lon="41.70479">
        <ele>29.243934</ele>
        <time>2021-09-08T11:05:05.077Z</time>
      </trkpt>
      <trkpt lat="42.09551" lon="41.70376">
        <ele>31.532079</ele>
        <time>2021-09-08T11:05:51.099Z</time>
      </trkpt>
      <trkpt lat="42.09486" lon="41.70093">
        <ele>38.203179</ele>
        <time>2021-09-08T11:06:35.071Z</time>
      </trkpt>
      <trkpt lat="42.09417" lon="41.69844">
        <ele>32.0293</ele>
        <time>2021-09-08T11:07:16.118Z</time>
      </trkpt>
      <trkpt lat="42.09534" lon="41.69639">
        <ele>25.849576</ele>
        <time>2021-09-08T11:08:09.102Z</time>
      </trkpt>
      <trkpt lat="42.09742" lon="41.69457">
        <ele>23.222999</ele>
        <time>2021-09-08T11:09:09.077Z</time>
      </trkpt>
      <trkpt lat="42.09942" lon="41.69279">
        <ele>25.103992</ele>
        <time>2021-09-08T11:10:07.076Z</time>
      </trkpt>
      <trkpt lat="42.1015" lon="41.69094">
        <ele>25.596307</ele>
        <time>2021-09-08T11:11:07.091Z</time>
      </trkpt>
      <trkpt lat="42.10338" lon="41.68926">
        <ele>23.498423</ele>
        <time>2021-09-08T11:15:13.073Z</time>
      </trkpt>
      <trkpt lat="42.10534" lon="41.68811">
        <ele>21.447326</ele>
        <time>2021-09-08T11:16:12.080Z</time>
      </trkpt>
      <trkpt lat="42.1074" lon="41.68629">
        <ele>18.360075</ele>
        <time>2021-09-08T11:17:09.078Z</time>
      </trkpt>
      <trkpt lat="42.10949" lon="41.68445">
        <ele>18.213436</ele>
        <time>2021-09-08T11:18:07.111Z</time>
      </trkpt>
      <trkpt lat="42.11171" lon="41.6825">
        <ele>18.758422</ele>
        <time>2021-09-08T11:19:09.095Z</time>
      </trkpt>
      <trkpt lat="42.11367" lon="41.68073">
        <ele>19.800144</ele>
        <time>2021-09-08T11:20:07.076Z</time>
      </trkpt>
      <trkpt lat="42.11513" lon="41.68292">
        <ele>23.284498</ele>
        <time>2021-09-08T11:21:07.095Z</time>
      </trkpt>
      <trkpt lat="42.11644" lon="41.68558">
        <ele>22.694991</ele>
        <time>2021-09-08T11:22:03.060Z</time>
      </trkpt>
      <trkpt lat="42.11784" lon="41.6883">
        <ele>19.388875</ele>
        <time>2021-09-08T11:23:01.060Z</time>
      </trkpt>
      <trkpt lat="42.11947" lon="41.68644">
        <ele>14.787034</ele>
        <time>2021-09-08T11:23:53.071Z</time>
      </trkpt>
      <trkpt lat="42.12107" lon="41.68392">
        <ele>15.705941</ele>
        <time>2021-09-08T11:24:53.087Z</time>
      </trkpt>
      <trkpt lat="42.12266" lon="41.68145">
        <ele>17.453191</ele>
        <time>2021-09-08T11:25:50.103Z</time>
      </trkpt>
      <trkpt lat="42.12416" lon="41.6791">
        <ele>18.401377</ele>
        <time>2021-09-08T11:26:44.077Z</time>
      </trkpt>
      <trkpt lat="42.12558" lon="41.67687">
        <ele>19.659752</ele>
        <time>2021-09-08T11:27:37.084Z</time>
      </trkpt>
      <trkpt lat="42.12722" lon="41.67487">
        <ele>23.487692</ele>
        <time>2021-09-08T11:28:32.065Z</time>
      </trkpt>
      <trkpt lat="42.12961" lon="41.67464">
        <ele>30.876843</ele>
        <time>2021-09-08T11:29:28.071Z</time>
      </trkpt>
      <trkpt lat="42.13206" lon="41.6744">
        <ele>31.672267</ele>
        <time>2021-09-08T11:30:28.077Z</time>
      </trkpt>
      <trkpt lat="42.13443" lon="41.67419">
        <ele>31.99022</ele>
        <time>2021-09-08T11:31:28.068Z</time>
      </trkpt>
      <trkpt lat="42.13672" lon="41.67393">
        <ele>33.059875</ele>
        <time>2021-09-08T11:32:28.072Z</time>
      </trkpt>
      <trkpt lat="42.139" lon="41.67371">
        <ele>32.575267</ele>
        <time>2021-09-08T11:33:28.075Z</time>
      </trkpt>
      <trkpt lat="42.14023" lon="41.6753">
        <ele>28.438269</ele>
        <time>2021-09-08T11:34:28.057Z</time>
      </trkpt>
      <trkpt lat="42.14239" lon="41.67639">
        <ele>29.808313</ele>
        <time>2021-09-08T11:35:28.069Z</time>
      </trkpt>
      <trkpt lat="42.14329" lon="41.67427">
        <ele>27.878219</ele>
        <time>2021-09-08T11:36:20.083Z</time>
      </trkpt>
      <trkpt lat="42.1437" lon="41.6719">
        <ele>25.138417</ele>
        <time>2021-09-08T11:37:19.071Z</time>
      </trkpt>
      <trkpt lat="42.14495" lon="41.66935">
        <ele>30.69104</ele>
        <time>2021-09-08T11:38:11.068Z</time>
      </trkpt>
      <trkpt lat="42.14619" lon="41.66672">
        <ele>35.500494</ele>
        <time>2021-09-08T11:39:05.076Z</time>
      </trkpt>
      <trkpt lat="42.14746" lon="41.66405">
        <ele>33.089765</ele>
        <time>2021-09-08T11:39:59.052Z</time>
      </trkpt>
      <trkpt lat="42.14872" lon="41.66138">
        <ele>33.815513</ele>
        <time>2021-09-08T11:40:54.053Z</time>
      </trkpt>
      <trkpt lat="42.15022" lon="41.65935">
        <ele>31.206967</ele>
        <time>2021-09-08T11:41:53.043Z</time>
      </trkpt>
      <trkpt lat="42.15173" lon="41.66059">
        <ele>31.050054</ele>
        <time>2021-09-08T11:42:50.042Z</time>
      </trkpt>
      <trkpt lat="42.15235" lon="41.66164">
        <ele>31.093897</ele>
        <time>2021-09-08T11:44:55.977Z</time>
      </trkpt>
    </trkseg>
  </trk>
  <trk>
    <name><![CDATA[Tour d'Europe: étape 438]]></name>
    <extensions>
      <line xmlns="http://www.topografix.com/GPX/gpx_style/0/2">
        <color>00FF00</color>
        <width>4</width>
      </line>
    </extensions>
    <trkseg>
      <trkpt lat="42.15237" lon="41.66161">
        <ele>31.726208</ele>
        <time>2021-09-09T05:49:00.560Z</time>
      </trkpt>
      <trkpt lat="42.15223" lon="41.66259">
        <ele>32.742763</ele>
        <time>2021-09-09T05:53:19.558Z</time>
      </trkpt>
      <trkpt lat="42.15267" lon="41.66532">
        <ele>39.40076</ele>
        <time>2021-09-09T05:54:21.568Z</time>
      </trkpt>
      <trkpt lat="42.15214" lon="41.66813">
        <ele>31.37004</ele>
        <time>2021-09-09T05:55:21.543Z</time>
      </trkpt>
      <trkpt lat="42.1509" lon="41.67074">
        <ele>27.941384</ele>
        <time>2021-09-09T05:56:21.519Z</time>
      </trkpt>
      <trkpt lat="42.14957" lon="41.67326">
        <ele>31.163745</ele>
        <time>2021-09-09T05:57:20.531Z</time>
      </trkpt>
      <trkpt lat="42.14921" lon="41.67632">
        <ele>32.632572</ele>
        <time>2021-09-09T05:58:18.529Z</time>
      </trkpt>
      <trkpt lat="42.14951" lon="41.67908">
        <ele>32.146748</ele>
        <time>2021-09-09T05:59:21.534Z</time>
      </trkpt>
      <trkpt lat="42.15086" lon="41.68153">
        <ele>31.645986</ele>
        <time>2021-09-09T06:00:19.539Z</time>
      </trkpt>
      <trkpt lat="42.15044" lon="41.6809">
        <ele>23.206187</ele>
        <time>2021-09-09T06:05:37.517Z</time>
      </trkpt>
      <trkpt lat="42.14996" lon="41.67867">
        <ele>25.784453</ele>
        <time>2021-09-09T06:06:33.524Z</time>
      </trkpt>
      <trkpt lat="42.14928" lon="41.67588">
        <ele>22.004915</ele>
        <time>2021-09-09T06:07:21.536Z</time>
      </trkpt>
      <trkpt lat="42.14972" lon="41.67299">
        <ele>18.728554</ele>
        <time>2021-09-09T06:08:06.518Z</time>
      </trkpt>
      <trkpt lat="42.15112" lon="41.67135">
        <ele>23.366901</ele>
        <time>2021-09-09T06:09:07.554Z</time>
      </trkpt>
      <trkpt lat="42.15318" lon="41.67071">
        <ele>26.839439</ele>
        <time>2021-09-09T06:10:26.503Z</time>
      </trkpt>
      <trkpt lat="42.15528" lon="41.67006">
        <ele>24.257582</ele>
        <time>2021-09-09T06:11:08.504Z</time>
      </trkpt>
      <trkpt lat="42.15768" lon="41.66939">
        <ele>27.476447</ele>
        <time>2021-09-09T06:12:31.553Z</time>
      </trkpt>
      <trkpt lat="42.15998" lon="41.66889">
        <ele>23.959899</ele>
        <time>2021-09-09T06:13:26.561Z</time>
      </trkpt>
      <trkpt lat="42.16228" lon="41.66858">
        <ele>21.090587</ele>
        <time>2021-09-09T06:14:20.520Z</time>
      </trkpt>
      <trkpt lat="42.16472" lon="41.66802">
        <ele>21.18172</ele>
        <time>2021-09-09T06:15:18.552Z</time>
      </trkpt>
      <trkpt lat="42.16703" lon="41.6675">
        <ele>25.402236</ele>
        <time>2021-09-09T06:16:14.531Z</time>
      </trkpt>
      <trkpt lat="42.1678" lon="41.66979">
        <ele>28.009678</ele>
        <time>2021-09-09T06:17:14.520Z</time>
      </trkpt>
      <trkpt lat="42.16844" lon="41.67255">
        <ele>25.552521</ele>
        <time>2021-09-09T06:18:21.542Z</time>
      </trkpt>
      <trkpt lat="42.17" lon="41.67479">
        <ele>20.867228</ele>
        <time>2021-09-09T06:19:18.535Z</time>
      </trkpt>
      <trkpt lat="42.17156" lon="41.67696">
        <ele>18.042733</ele>
        <time>2021-09-09T06:20:13.528Z</time>
      </trkpt>
      <trkpt lat="42.17313" lon="41.67908">
        <ele>18.24226</ele>
        <time>2021-09-09T06:21:05.536Z</time>
      </trkpt>
      <trkpt lat="42.17481" lon="41.68129">
        <ele>20.575505</ele>
        <time>2021-09-09T06:22:01.525Z</time>
      </trkpt>
      <trkpt lat="42.17609" lon="41.68371">
        <ele>18.450559</ele>
        <time>2021-09-09T06:22:54.560Z</time>
      </trkpt>
      <trkpt lat="42.17723" lon="41.68616">
        <ele>19.06339</ele>
        <time>2021-09-09T06:23:52.527Z</time>
      </trkpt>
      <trkpt lat="42.1785" lon="41.68849">
        <ele>23.106978</ele>
        <time>2021-09-09T06:24:42.530Z</time>
      </trkpt>
      <trkpt lat="42.17999" lon="41.69068">
        <ele>19.983192</ele>
        <time>2021-09-09T06:25:37.539Z</time>
      </trkpt>
      <trkpt lat="42.18165" lon="41.69278">
        <ele>23.292949</ele>
        <time>2021-09-09T06:26:30.542Z</time>
      </trkpt>
      <trkpt lat="42.18335" lon="41.69508">
        <ele>23.259919</ele>
        <time>2021-09-09T06:27:29.542Z</time>
      </trkpt>
      <trkpt lat="42.18489" lon="41.69718">
        <ele>20.574496</ele>
        <time>2021-09-09T06:28:21.544Z</time>
      </trkpt>
      <trkpt lat="42.18551" lon="41.69979">
        <ele>20.879578</ele>
        <time>2021-09-09T06:29:16.513Z</time>
      </trkpt>
      <trkpt lat="42.18537" lon="41.70275">
        <ele>24.660028</ele>
        <time>2021-09-09T06:30:17.535Z</time>
      </trkpt>
      <trkpt lat="42.18592" lon="41.70559">
        <ele>24.231931</ele>
        <time>2021-09-09T06:31:18.582Z</time>
      </trkpt>
      <trkpt lat="42.18762" lon="41.70755">
        <ele>24.066445</ele>
        <time>2021-09-09T06:32:19.581Z</time>
      </trkpt>
      <trkpt lat="42.18972" lon="41.70789">
        <ele>20.806481</ele>
        <time>2021-09-09T06:33:07.541Z</time>
      </trkpt>
      <trkpt lat="42.19181" lon="41.70782">
        <ele>20.709123</ele>
        <time>2021-09-09T06:33:52.549Z</time>
      </trkpt>
      <trkpt lat="42.19393" lon="41.70775">
        <ele>21.659005</ele>
        <time>2021-09-09T06:34:39.545Z</time>
      </trkpt>
      <trkpt lat="42.19584" lon="41.70868">
        <ele>22.720022</ele>
        <time>2021-09-09T06:35:24.534Z</time>
      </trkpt>
      <trkpt lat="42.19698" lon="41.71124">
        <ele>23.237305</ele>
        <time>2021-09-09T06:36:16.530Z</time>
      </trkpt>
      <trkpt lat="42.19805" lon="41.71407">
        <ele>22.583423</ele>
        <time>2021-09-09T06:37:12.522Z</time>
      </trkpt>
      <trkpt lat="42.19919" lon="41.71702">
        <ele>22.998516</ele>
        <time>2021-09-09T06:38:10.543Z</time>
      </trkpt>
      <trkpt lat="42.20029" lon="41.71982">
        <ele>23.443111</ele>
        <time>2021-09-09T06:39:07.548Z</time>
      </trkpt>
      <trkpt lat="42.20133" lon="41.7227">
        <ele>21.286967</ele>
        <time>2021-09-09T06:40:05.533Z</time>
      </trkpt>
      <trkpt lat="42.20236" lon="41.72551">
        <ele>26.001965</ele>
        <time>2021-09-09T06:41:02.583Z</time>
      </trkpt>
      <trkpt lat="42.20349" lon="41.72848">
        <ele>29.060638</ele>
        <time>2021-09-09T06:42:02.563Z</time>
      </trkpt>
      <trkpt lat="42.20459" lon="41.73138">
        <ele>28.870247</ele>
        <time>2021-09-09T06:43:02.538Z</time>
      </trkpt>
      <trkpt lat="42.20573" lon="41.73444">
        <ele>28.651507</ele>
        <time>2021-09-09T06:44:04.576Z</time>
      </trkpt>
      <trkpt lat="42.20678" lon="41.73726">
        <ele>27.899282</ele>
        <time>2021-09-09T06:45:01.532Z</time>
      </trkpt>
      <trkpt lat="42.20785" lon="41.74018">
        <ele>25.939738</ele>
        <time>2021-09-09T06:45:59.541Z</time>
      </trkpt>
      <trkpt lat="42.2089" lon="41.74302">
        <ele>25.931488</ele>
        <time>2021-09-09T06:46:59.547Z</time>
      </trkpt>
      <trkpt lat="42.20998" lon="41.74586">
        <ele>28.784085</ele>
        <time>2021-09-09T06:47:59.581Z</time>
      </trkpt>
      <trkpt lat="42.21106" lon="41.74873">
        <ele>29.148832</ele>
        <time>2021-09-09T06:48:57.542Z</time>
      </trkpt>
      <trkpt lat="42.21206" lon="41.75148">
        <ele>25.383739</ele>
        <time>2021-09-09T06:49:51.559Z</time>
      </trkpt>
      <trkpt lat="42.21303" lon="41.75432">
        <ele>21.102946</ele>
        <time>2021-09-09T06:50:46.538Z</time>
      </trkpt>
      <trkpt lat="42.21378" lon="41.75727">
        <ele>16.828728</ele>
        <time>2021-09-09T06:51:45.528Z</time>
      </trkpt>
      <trkpt lat="42.21441" lon="41.76013">
        <ele>18.501323</ele>
        <time>2021-09-09T06:52:45.528Z</time>
      </trkpt>
      <trkpt lat="42.21504" lon="41.76293">
        <ele>20.501396</ele>
        <time>2021-09-09T06:53:45.558Z</time>
      </trkpt>
      <trkpt lat="42.2157" lon="41.7658">
        <ele>19.288018</ele>
        <time>2021-09-09T06:54:45.554Z</time>
      </trkpt>
      <trkpt lat="42.21639" lon="41.76889">
        <ele>19.85564</ele>
        <time>2021-09-09T06:55:45.567Z</time>
      </trkpt>
      <trkpt lat="42.2171" lon="41.77184">
        <ele>21.819703</ele>
        <time>2021-09-09T06:56:42.585Z</time>
      </trkpt>
      <trkpt lat="42.21772" lon="41.77458">
        <ele>23.283832</ele>
        <time>2021-09-09T06:57:45.512Z</time>
      </trkpt>
      <trkpt lat="42.21836" lon="41.77731">
        <ele>23.554996</ele>
        <time>2021-09-09T06:58:45.557Z</time>
      </trkpt>
      <trkpt lat="42.219" lon="41.78015">
        <ele>24.53683</ele>
        <time>2021-09-09T06:59:46.530Z</time>
      </trkpt>
      <trkpt lat="42.21974" lon="41.78335">
        <ele>24.927302</ele>
        <time>2021-09-09T07:00:44.533Z</time>
      </trkpt>
      <trkpt lat="42.22038" lon="41.78626">
        <ele>25.563108</ele>
        <time>2021-09-09T07:01:42.561Z</time>
      </trkpt>
      <trkpt lat="42.22106" lon="41.78934">
        <ele>24.339962</ele>
        <time>2021-09-09T07:02:42.561Z</time>
      </trkpt>
      <trkpt lat="42.22153" lon="41.79232">
        <ele>24.521943</ele>
        <time>2021-09-09T07:03:41.531Z</time>
      </trkpt>
      <trkpt lat="42.22209" lon="41.79543">
        <ele>28.254192</ele>
        <time>2021-09-09T07:04:41.527Z</time>
      </trkpt>
      <trkpt lat="42.22287" lon="41.79822">
        <ele>30.553014</ele>
        <time>2021-09-09T07:05:39.502Z</time>
      </trkpt>
      <trkpt lat="42.22353" lon="41.801">
        <ele>27.03132</ele>
        <time>2021-09-09T07:06:31.546Z</time>
      </trkpt>
      <trkpt lat="42.22423" lon="41.8041">
        <ele>24.80811</ele>
        <time>2021-09-09T07:07:30.532Z</time>
      </trkpt>
      <trkpt lat="42.2249" lon="41.80719">
        <ele>24.474043</ele>
        <time>2021-09-09T07:08:29.571Z</time>
      </trkpt>
      <trkpt lat="42.22554" lon="41.81021">
        <ele>25.782149</ele>
        <time>2021-09-09T07:09:26.552Z</time>
      </trkpt>
      <trkpt lat="42.22615" lon="41.81303">
        <ele>25.563551</ele>
        <time>2021-09-09T07:10:21.521Z</time>
      </trkpt>
      <trkpt lat="42.22674" lon="41.81602">
        <ele>27.40369</ele>
        <time>2021-09-09T07:11:19.575Z</time>
      </trkpt>
      <trkpt lat="42.22737" lon="41.81904">
        <ele>24.659294</ele>
        <time>2021-09-09T07:12:16.536Z</time>
      </trkpt>
      <trkpt lat="42.22796" lon="41.82206">
        <ele>27.084644</ele>
        <time>2021-09-09T07:13:16.534Z</time>
      </trkpt>
      <trkpt lat="42.22859" lon="41.82513">
        <ele>25.31523</ele>
        <time>2021-09-09T07:14:15.523Z</time>
      </trkpt>
      <trkpt lat="42.22922" lon="41.82826">
        <ele>27.224782</ele>
        <time>2021-09-09T07:15:18.558Z</time>
      </trkpt>
      <trkpt lat="42.22981" lon="41.83129">
        <ele>25.650083</ele>
        <time>2021-09-09T07:16:14.540Z</time>
      </trkpt>
      <trkpt lat="42.23038" lon="41.83425">
        <ele>28.518584</ele>
        <time>2021-09-09T07:17:12.530Z</time>
      </trkpt>
      <trkpt lat="42.23103" lon="41.83738">
        <ele>26.333078</ele>
        <time>2021-09-09T07:18:12.538Z</time>
      </trkpt>
      <trkpt lat="42.23164" lon="41.84044">
        <ele>28.631067</ele>
        <time>2021-09-09T07:19:12.544Z</time>
      </trkpt>
      <trkpt lat="42.23225" lon="41.84353">
        <ele>26.476259</ele>
        <time>2021-09-09T07:20:12.533Z</time>
      </trkpt>
      <trkpt lat="42.23287" lon="41.84661">
        <ele>25.552355</ele>
        <time>2021-09-09T07:21:12.559Z</time>
      </trkpt>
      <trkpt lat="42.23365" lon="41.85039">
        <ele>28.90419</ele>
        <time>2021-09-09T07:28:38.527Z</time>
      </trkpt>
      <trkpt lat="42.23423" lon="41.85347">
        <ele>26.037685</ele>
        <time>2021-09-09T07:29:37.545Z</time>
      </trkpt>
      <trkpt lat="42.23474" lon="41.85649">
        <ele>27.37478</ele>
        <time>2021-09-09T07:30:36.535Z</time>
      </trkpt>
      <trkpt lat="42.23527" lon="41.85964">
        <ele>27.481521</ele>
        <time>2021-09-09T07:31:32.509Z</time>
      </trkpt>
      <trkpt lat="42.23585" lon="41.86293">
        <ele>26.96472</ele>
        <time>2021-09-09T07:32:30.529Z</time>
      </trkpt>
      <trkpt lat="42.23641" lon="41.86612">
        <ele>25.813715</ele>
        <time>2021-09-09T07:33:30.532Z</time>
      </trkpt>
      <trkpt lat="42.23693" lon="41.86921">
        <ele>25.880365</ele>
        <time>2021-09-09T07:34:30.523Z</time>
      </trkpt>
      <trkpt lat="42.23744" lon="41.87249">
        <ele>23.58289</ele>
        <time>2021-09-09T07:35:30.566Z</time>
      </trkpt>
      <trkpt lat="42.23792" lon="41.87565">
        <ele>25.009545</ele>
        <time>2021-09-09T07:36:29.539Z</time>
      </trkpt>
      <trkpt lat="42.2384" lon="41.87889">
        <ele>26.124893</ele>
        <time>2021-09-09T07:37:29.545Z</time>
      </trkpt>
      <trkpt lat="42.23888" lon="41.88196">
        <ele>28.476514</ele>
        <time>2021-09-09T07:38:29.522Z</time>
      </trkpt>
      <trkpt lat="42.23933" lon="41.88496">
        <ele>29.964611</ele>
        <time>2021-09-09T07:39:29.578Z</time>
      </trkpt>
      <trkpt lat="42.23977" lon="41.88794">
        <ele>31.540548</ele>
        <time>2021-09-09T07:40:29.549Z</time>
      </trkpt>
      <trkpt lat="42.24027" lon="41.89119">
        <ele>33.27125</ele>
        <time>2021-09-09T07:41:29.557Z</time>
      </trkpt>
      <trkpt lat="42.24075" lon="41.89435">
        <ele>33.973681</ele>
        <time>2021-09-09T07:42:29.535Z</time>
      </trkpt>
      <trkpt lat="42.2412" lon="41.89745">
        <ele>34.440175</ele>
        <time>2021-09-09T07:43:27.518Z</time>
      </trkpt>
      <trkpt lat="42.24161" lon="41.90033">
        <ele>39.39755</ele>
        <time>2021-09-09T07:44:27.533Z</time>
      </trkpt>
      <trkpt lat="42.24206" lon="41.90333">
        <ele>42.639676</ele>
        <time>2021-09-09T07:45:27.532Z</time>
      </trkpt>
      <trkpt lat="42.24254" lon="41.90646">
        <ele>38.835362</ele>
        <time>2021-09-09T07:46:25.538Z</time>
      </trkpt>
      <trkpt lat="42.24301" lon="41.90959">
        <ele>38.148327</ele>
        <time>2021-09-09T07:47:22.542Z</time>
      </trkpt>
      <trkpt lat="42.24347" lon="41.91281">
        <ele>37.565664</ele>
        <time>2021-09-09T07:48:20.566Z</time>
      </trkpt>
      <trkpt lat="42.24392" lon="41.91601">
        <ele>37.795263</ele>
        <time>2021-09-09T07:49:18.525Z</time>
      </trkpt>
      <trkpt lat="42.24438" lon="41.91925">
        <ele>36.580915</ele>
        <time>2021-09-09T07:50:16.534Z</time>
      </trkpt>
      <trkpt lat="42.24486" lon="41.92244">
        <ele>35.814117</ele>
        <time>2021-09-09T07:51:16.568Z</time>
      </trkpt>
      <trkpt lat="42.24533" lon="41.92563">
        <ele>34.907028</ele>
        <time>2021-09-09T07:52:16.533Z</time>
      </trkpt>
      <trkpt lat="42.24577" lon="41.92872">
        <ele>38.153805</ele>
        <time>2021-09-09T07:53:16.540Z</time>
      </trkpt>
      <trkpt lat="42.24624" lon="41.93196">
        <ele>35.700642</ele>
        <time>2021-09-09T07:54:19.522Z</time>
      </trkpt>
      <trkpt lat="42.24669" lon="41.93512">
        <ele>31.992767</ele>
        <time>2021-09-09T07:55:17.527Z</time>
      </trkpt>
      <trkpt lat="42.24717" lon="41.93821">
        <ele>34.111744</ele>
        <time>2021-09-09T07:56:17.562Z</time>
      </trkpt>
      <trkpt lat="42.24759" lon="41.94134">
        <ele>35.653154</ele>
        <time>2021-09-09T07:57:16.535Z</time>
      </trkpt>
      <trkpt lat="42.24795" lon="41.94449">
        <ele>33.160552</ele>
        <time>2021-09-09T07:58:15.518Z</time>
      </trkpt>
      <trkpt lat="42.2484" lon="41.94769">
        <ele>36.535238</ele>
        <time>2021-09-09T07:59:15.531Z</time>
      </trkpt>
      <trkpt lat="42.24883" lon="41.95077">
        <ele>37.311244</ele>
        <time>2021-09-09T08:00:15.507Z</time>
      </trkpt>
      <trkpt lat="42.24933" lon="41.95389">
        <ele>36.826677</ele>
        <time>2021-09-09T08:01:15.532Z</time>
      </trkpt>
      <trkpt lat="42.24986" lon="41.95688">
        <ele>35.830267</ele>
        <time>2021-09-09T08:02:07.527Z</time>
      </trkpt>
      <trkpt lat="42.25031" lon="41.95998">
        <ele>36.432247</ele>
        <time>2021-09-09T08:03:03.520Z</time>
      </trkpt>
      <trkpt lat="42.25076" lon="41.96327">
        <ele>35.096211</ele>
        <time>2021-09-09T08:04:03.551Z</time>
      </trkpt>
      <trkpt lat="42.25124" lon="41.96656">
        <ele>34.970879</ele>
        <time>2021-09-09T08:05:03.538Z</time>
      </trkpt>
      <trkpt lat="42.25169" lon="41.9697">
        <ele>35.362999</ele>
        <time>2021-09-09T08:06:03.531Z</time>
      </trkpt>
      <trkpt lat="42.25213" lon="41.97281">
        <ele>34.757376</ele>
        <time>2021-09-09T08:07:03.541Z</time>
      </trkpt>
      <trkpt lat="42.25259" lon="41.97608">
        <ele>33.062964</ele>
        <time>2021-09-09T08:08:03.535Z</time>
      </trkpt>
      <trkpt lat="42.25305" lon="41.97927">
        <ele>35.388351</ele>
        <time>2021-09-09T08:09:03.521Z</time>
      </trkpt>
      <trkpt lat="42.25351" lon="41.9825">
        <ele>34.650446</ele>
        <time>2021-09-09T08:10:03.531Z</time>
      </trkpt>
      <trkpt lat="42.25389" lon="41.9857">
        <ele>36.466675</ele>
        <time>2021-09-09T08:11:03.539Z</time>
      </trkpt>
      <trkpt lat="42.25432" lon="41.98882">
        <ele>34.73083</ele>
        <time>2021-09-09T08:12:02.540Z</time>
      </trkpt>
      <trkpt lat="42.25476" lon="41.99192">
        <ele>36.542412</ele>
        <time>2021-09-09T08:13:02.533Z</time>
      </trkpt>
      <trkpt lat="42.25529" lon="41.99468">
        <ele>37.862997</ele>
        <time>2021-09-09T08:14:02.548Z</time>
      </trkpt>
      <trkpt lat="42.25568" lon="41.99735">
        <ele>39.403328</ele>
        <time>2021-09-09T08:15:03.565Z</time>
      </trkpt>
      <trkpt lat="42.25583" lon="42.00001">
        <ele>37.907873</ele>
        <time>2021-09-09T08:16:06.529Z</time>
      </trkpt>
      <trkpt lat="42.25653" lon="42.00287">
        <ele>40.527659</ele>
        <time>2021-09-09T08:17:06.534Z</time>
      </trkpt>
      <trkpt lat="42.25692" lon="42.00575">
        <ele>38.699112</ele>
        <time>2021-09-09T08:18:06.497Z</time>
      </trkpt>
      <trkpt lat="42.25737" lon="42.00883">
        <ele>38.44871</ele>
        <time>2021-09-09T08:19:05.529Z</time>
      </trkpt>
      <trkpt lat="42.25781" lon="42.01201">
        <ele>35.658245</ele>
        <time>2021-09-09T08:20:05.529Z</time>
      </trkpt>
      <trkpt lat="42.25823" lon="42.01496">
        <ele>38.154541</ele>
        <time>2021-09-09T08:21:05.543Z</time>
      </trkpt>
      <trkpt lat="42.25859" lon="42.01778">
        <ele>40.66101</ele>
        <time>2021-09-09T08:22:06.538Z</time>
      </trkpt>
      <trkpt lat="42.25901" lon="42.02057">
        <ele>44.207243</ele>
        <time>2021-09-09T08:23:06.531Z</time>
      </trkpt>
      <trkpt lat="42.25936" lon="42.02326">
        <ele>46.842865</ele>
        <time>2021-09-09T08:24:07.538Z</time>
      </trkpt>
      <trkpt lat="42.25961" lon="42.02617">
        <ele>45.601715</ele>
        <time>2021-09-09T08:25:14.533Z</time>
      </trkpt>
      <trkpt lat="42.25973" lon="42.02925">
        <ele>43.710957</ele>
        <time>2021-09-09T08:26:10.514Z</time>
      </trkpt>
      <trkpt lat="42.25992" lon="42.0325">
        <ele>42.398108</ele>
        <time>2021-09-09T08:27:06.522Z</time>
      </trkpt>
      <trkpt lat="42.2606" lon="42.03542">
        <ele>41.167349</ele>
        <time>2021-09-09T08:27:59.557Z</time>
      </trkpt>
      <trkpt lat="42.26136" lon="42.03836">
        <ele>45.600872</ele>
        <time>2021-09-09T08:28:58.534Z</time>
      </trkpt>
      <trkpt lat="42.26205" lon="42.04121">
        <ele>46.035415</ele>
        <time>2021-09-09T08:29:58.557Z</time>
      </trkpt>
      <trkpt lat="42.26274" lon="42.04394">
        <ele>48.242633</ele>
        <time>2021-09-09T08:30:59.527Z</time>
      </trkpt>
      <trkpt lat="42.2634" lon="42.04662">
        <ele>47.425346</ele>
        <time>2021-09-09T08:31:59.539Z</time>
      </trkpt>
      <trkpt lat="42.26403" lon="42.04926">
        <ele>46.408597</ele>
        <time>2021-09-09T08:32:59.537Z</time>
      </trkpt>
      <trkpt lat="42.26475" lon="42.05203">
        <ele>50.114353</ele>
        <time>2021-09-09T08:34:02.534Z</time>
      </trkpt>
      <trkpt lat="42.26547" lon="42.05463">
        <ele>54.354214</ele>
        <time>2021-09-09T08:35:15.529Z</time>
      </trkpt>
      <trkpt lat="42.26603" lon="42.05732">
        <ele>54.535545</ele>
        <time>2021-09-09T08:36:25.533Z</time>
      </trkpt>
      <trkpt lat="42.26652" lon="42.05997">
        <ele>56.456474</ele>
        <time>2021-09-09T08:37:34.591Z</time>
      </trkpt>
      <trkpt lat="42.26662" lon="42.06281">
        <ele>60.600106</ele>
        <time>2021-09-09T08:38:39.498Z</time>
      </trkpt>
      <trkpt lat="42.26666" lon="42.06569">
        <ele>55.381339</ele>
        <time>2021-09-09T08:39:40.501Z</time>
      </trkpt>
      <trkpt lat="42.2667" lon="42.06874">
        <ele>54.85518</ele>
        <time>2021-09-09T08:40:37.550Z</time>
      </trkpt>
      <trkpt lat="42.26682" lon="42.07195">
        <ele>55.931188</ele>
        <time>2021-09-09T08:41:37.500Z</time>
      </trkpt>
      <trkpt lat="42.26875" lon="42.07231">
        <ele>60.81681</ele>
        <time>2021-09-09T08:42:53.505Z</time>
      </trkpt>
      <trkpt lat="42.26897" lon="42.07516">
        <ele>65.234811</ele>
        <time>2021-09-09T08:43:53.498Z</time>
      </trkpt>
      <trkpt lat="42.26924" lon="42.077">
        <ele>61.264031</ele>
        <time>2021-09-09T09:04:59.818Z</time>
      </trkpt>
      <trkpt lat="42.2694" lon="42.07982">
        <ele>53.094892</ele>
        <time>2021-09-09T09:06:02.830Z</time>
      </trkpt>
      <trkpt lat="42.26968" lon="42.08263">
        <ele>50.468018</ele>
        <time>2021-09-09T09:07:02.822Z</time>
      </trkpt>
      <trkpt lat="42.26995" lon="42.08546">
        <ele>53.582492</ele>
        <time>2021-09-09T09:08:02.831Z</time>
      </trkpt>
      <trkpt lat="42.27023" lon="42.08837">
        <ele>54.434873</ele>
        <time>2021-09-09T09:09:07.827Z</time>
      </trkpt>
      <trkpt lat="42.27047" lon="42.09112">
        <ele>54.921462</ele>
        <time>2021-09-09T09:10:10.865Z</time>
      </trkpt>
      <trkpt lat="42.27135" lon="42.09295">
        <ele>57.464808</ele>
        <time>2021-09-09T09:11:11.869Z</time>
      </trkpt>
      <trkpt lat="42.27334" lon="42.09202">
        <ele>64.190267</ele>
        <time>2021-09-09T09:12:11.830Z</time>
      </trkpt>
      <trkpt lat="42.27534" lon="42.09113">
        <ele>61.34368</ele>
        <time>2021-09-09T09:13:19.818Z</time>
      </trkpt>
      <trkpt lat="42.27625" lon="42.09351">
        <ele>60.941146</ele>
        <time>2021-09-09T09:14:21.839Z</time>
      </trkpt>
      <trkpt lat="42.27709" lon="42.09604">
        <ele>62.449088</ele>
        <time>2021-09-09T09:15:23.797Z</time>
      </trkpt>
      <trkpt lat="42.27798" lon="42.09865">
        <ele>66.560681</ele>
        <time>2021-09-09T09:16:30.795Z</time>
      </trkpt>
      <trkpt lat="42.2789" lon="42.10106">
        <ele>66.108009</ele>
        <time>2021-09-09T09:17:34.794Z</time>
      </trkpt>
      <trkpt lat="42.27989" lon="42.10364">
        <ele>62.893243</ele>
        <time>2021-09-09T09:18:28.796Z</time>
      </trkpt>
      <trkpt lat="42.2807" lon="42.10626">
        <ele>62.706787</ele>
        <time>2021-09-09T09:19:22.794Z</time>
      </trkpt>
      <trkpt lat="42.28154" lon="42.10887">
        <ele>66.250699</ele>
        <time>2021-09-09T09:20:28.792Z</time>
      </trkpt>
      <trkpt lat="42.28263" lon="42.11152">
        <ele>64.190306</ele>
        <time>2021-09-09T09:35:22.827Z</time>
      </trkpt>
      <trkpt lat="42.28388" lon="42.11367">
        <ele>68.079267</ele>
        <time>2021-09-09T09:36:42.813Z</time>
      </trkpt>
      <trkpt lat="42.28481" lon="42.11639">
        <ele>67.594043</ele>
        <time>2021-09-09T09:37:47.811Z</time>
      </trkpt>
      <trkpt lat="42.28564" lon="42.11885">
        <ele>62.328552</ele>
        <time>2021-09-09T09:38:29.815Z</time>
      </trkpt>
      <trkpt lat="42.28689" lon="42.12108">
        <ele>63.303513</ele>
        <time>2021-09-09T09:39:27.820Z</time>
      </trkpt>
      <trkpt lat="42.28838" lon="42.12317">
        <ele>65.635064</ele>
        <time>2021-09-09T09:40:28.826Z</time>
      </trkpt>
      <trkpt lat="42.29011" lon="42.1255">
        <ele>65.673057</ele>
        <time>2021-09-09T09:41:27.821Z</time>
      </trkpt>
      <trkpt lat="42.2915" lon="42.12762">
        <ele>70.237847</ele>
        <time>2021-09-09T09:42:27.828Z</time>
      </trkpt>
      <trkpt lat="42.29182" lon="42.13054">
        <ele>68.963361</ele>
        <time>2021-09-09T09:43:11.815Z</time>
      </trkpt>
      <trkpt lat="42.29238" lon="42.13378">
        <ele>61.848586</ele>
        <time>2021-09-09T09:43:51.812Z</time>
      </trkpt>
      <trkpt lat="42.29384" lon="42.1362">
        <ele>58.053349</ele>
        <time>2021-09-09T09:44:46.860Z</time>
      </trkpt>
      <trkpt lat="42.2945" lon="42.13923">
        <ele>63.882029</ele>
        <time>2021-09-09T09:45:46.834Z</time>
      </trkpt>
      <trkpt lat="42.29511" lon="42.14213">
        <ele>71.574104</ele>
        <time>2021-09-09T09:46:59.803Z</time>
      </trkpt>
      <trkpt lat="42.29577" lon="42.14488">
        <ele>68.849076</ele>
        <time>2021-09-09T09:47:59.821Z</time>
      </trkpt>
      <trkpt lat="42.29661" lon="42.14758">
        <ele>65.311028</ele>
        <time>2021-09-09T09:48:59.832Z</time>
      </trkpt>
      <trkpt lat="42.2975" lon="42.15008">
        <ele>67.61894</ele>
        <time>2021-09-09T09:50:00.800Z</time>
      </trkpt>
      <trkpt lat="42.29844" lon="42.15263">
        <ele>66.229151</ele>
        <time>2021-09-09T09:51:00.795Z</time>
      </trkpt>
      <trkpt lat="42.29937" lon="42.15516">
        <ele>66.093101</ele>
        <time>2021-09-09T09:52:00.794Z</time>
      </trkpt>
      <trkpt lat="42.30025" lon="42.15756">
        <ele>69.484367</ele>
        <time>2021-09-09T09:53:00.799Z</time>
      </trkpt>
      <trkpt lat="42.30116" lon="42.15995">
        <ele>70.003</ele>
        <time>2021-09-09T09:54:00.798Z</time>
      </trkpt>
      <trkpt lat="42.30281" lon="42.16176">
        <ele>66.838027</ele>
        <time>2021-09-09T09:55:00.796Z</time>
      </trkpt>
      <trkpt lat="42.30471" lon="42.16295">
        <ele>69.622883</ele>
        <time>2021-09-09T09:56:00.790Z</time>
      </trkpt>
      <trkpt lat="42.30661" lon="42.16412">
        <ele>71.16272</ele>
        <time>2021-09-09T09:57:00.795Z</time>
      </trkpt>
      <trkpt lat="42.30848" lon="42.16532">
        <ele>72.02403</ele>
        <time>2021-09-09T09:58:01.787Z</time>
      </trkpt>
      <trkpt lat="42.31035" lon="42.16655">
        <ele>72.024176</ele>
        <time>2021-09-09T09:59:01.837Z</time>
      </trkpt>
      <trkpt lat="42.31227" lon="42.16784">
        <ele>74.481223</ele>
        <time>2021-09-09T10:00:02.817Z</time>
      </trkpt>
      <trkpt lat="42.31415" lon="42.16913">
        <ele>74.895642</ele>
        <time>2021-09-09T10:01:07.795Z</time>
      </trkpt>
      <trkpt lat="42.3161" lon="42.17045">
        <ele>75.756358</ele>
        <time>2021-09-09T10:02:07.792Z</time>
      </trkpt>
      <trkpt lat="42.31797" lon="42.17173">
        <ele>78.40577</ele>
        <time>2021-09-09T10:03:07.792Z</time>
      </trkpt>
      <trkpt lat="42.31983" lon="42.173">
        <ele>79.797556</ele>
        <time>2021-09-09T10:04:08.790Z</time>
      </trkpt>
      <trkpt lat="42.32165" lon="42.17427">
        <ele>81.292596</ele>
        <time>2021-09-09T10:05:12.793Z</time>
      </trkpt>
      <trkpt lat="42.32355" lon="42.17557">
        <ele>82.709114</ele>
        <time>2021-09-09T10:06:12.793Z</time>
      </trkpt>
      <trkpt lat="42.3255" lon="42.1769">
        <ele>83.515014</ele>
        <time>2021-09-09T10:07:15.801Z</time>
      </trkpt>
      <trkpt lat="42.32731" lon="42.17812">
        <ele>84.142705</ele>
        <time>2021-09-09T10:08:15.804Z</time>
      </trkpt>
      <trkpt lat="42.32925" lon="42.17944">
        <ele>84.949483</ele>
        <time>2021-09-09T10:09:16.806Z</time>
      </trkpt>
      <trkpt lat="42.33118" lon="42.18074">
        <ele>85.195279</ele>
        <time>2021-09-09T10:10:16.800Z</time>
      </trkpt>
      <trkpt lat="42.33302" lon="42.18205">
        <ele>87.413662</ele>
        <time>2021-09-09T10:11:19.794Z</time>
      </trkpt>
      <trkpt lat="42.33483" lon="42.18337">
        <ele>91.590586</ele>
        <time>2021-09-09T10:12:22.798Z</time>
      </trkpt>
      <trkpt lat="42.33706" lon="42.18459">
        <ele>85.18524</ele>
        <time>2021-09-09T10:13:20.808Z</time>
      </trkpt>
      <trkpt lat="42.33916" lon="42.18566">
        <ele>90.388165</ele>
        <time>2021-09-09T10:14:21.794Z</time>
      </trkpt>
      <trkpt lat="42.341" lon="42.18719">
        <ele>95.664596</ele>
        <time>2021-09-09T10:25:19.791Z</time>
      </trkpt>
      <trkpt lat="42.34286" lon="42.18874">
        <ele>103.20336</ele>
        <time>2021-09-09T10:26:19.791Z</time>
      </trkpt>
      <trkpt lat="42.34461" lon="42.19017">
        <ele>103.428469</ele>
        <time>2021-09-09T10:27:20.812Z</time>
      </trkpt>
      <trkpt lat="42.34641" lon="42.19151">
        <ele>103.191588</ele>
        <time>2021-09-09T10:28:30.796Z</time>
      </trkpt>
      <trkpt lat="42.34845" lon="42.19304">
        <ele>104.085975</ele>
        <time>2021-09-09T10:29:26.787Z</time>
      </trkpt>
      <trkpt lat="42.35052" lon="42.19448">
        <ele>103.214246</ele>
        <time>2021-09-09T10:30:26.815Z</time>
      </trkpt>
      <trkpt lat="42.3526" lon="42.19372">
        <ele>107.264938</ele>
        <time>2021-09-09T10:31:27.789Z</time>
      </trkpt>
      <trkpt lat="42.3547" lon="42.19316">
        <ele>105.2194</ele>
        <time>2021-09-09T10:32:27.795Z</time>
      </trkpt>
      <trkpt lat="42.35566" lon="42.1928">
        <ele>105.2194</ele>
        <time>2021-09-09T10:34:47.227Z</time>
      </trkpt>
    </trkseg>
  </trk>
  <trk>
    <name><![CDATA[Tour d'Europe: étape 439]]></name>
    <extensions>
      <line xmlns="http://www.topografix.com/GPX/gpx_style/0/2">
        <color>FF0000</color>
        <width>4</width>
      </line>
    </extensions>
    <trkseg>
      <trkpt lat="42.35562" lon="42.19285">
        <ele>126.516464</ele>
        <time>2021-09-10T05:30:32.051Z</time>
      </trkpt>
      <trkpt lat="42.35654" lon="42.19122">
        <ele>131.386933</ele>
        <time>2021-09-10T05:38:40.878Z</time>
      </trkpt>
      <trkpt lat="42.35846" lon="42.19102">
        <ele>141.859267</ele>
        <time>2021-09-10T05:40:32.871Z</time>
      </trkpt>
      <trkpt lat="42.35982" lon="42.19258">
        <ele>147.601599</ele>
        <time>2021-09-10T05:42:01.861Z</time>
      </trkpt>
      <trkpt lat="42.36142" lon="42.19112">
        <ele>158.870884</ele>
        <time>2021-09-10T05:43:37.877Z</time>
      </trkpt>
      <trkpt lat="42.36283" lon="42.18899">
        <ele>160.128004</ele>
        <time>2021-09-10T05:44:42.910Z</time>
      </trkpt>
      <trkpt lat="42.36411" lon="42.18682">
        <ele>168.539773</ele>
        <time>2021-09-10T05:46:16.876Z</time>
      </trkpt>
      <trkpt lat="42.36575" lon="42.18767">
        <ele>175.187097</ele>
        <time>2021-09-10T05:47:45.933Z</time>
      </trkpt>
      <trkpt lat="42.36643" lon="42.18999">
        <ele>179.94319</ele>
        <time>2021-09-10T05:49:55.862Z</time>
      </trkpt>
      <trkpt lat="42.3662" lon="42.19269">
        <ele>180.044024</ele>
        <time>2021-09-10T05:51:20.881Z</time>
      </trkpt>
      <trkpt lat="42.36707" lon="42.19404">
        <ele>182.987687</ele>
        <time>2021-09-10T05:52:56.891Z</time>
      </trkpt>
      <trkpt lat="42.36874" lon="42.19242">
        <ele>166.101726</ele>
        <time>2021-09-10T05:53:52.855Z</time>
      </trkpt>
      <trkpt lat="42.36945" lon="42.19243">
        <ele>146.640992</ele>
        <time>2021-09-10T05:57:44.888Z</time>
      </trkpt>
      <trkpt lat="42.36779" lon="42.19406">
        <ele>160.779552</ele>
        <time>2021-09-10T05:59:06.893Z</time>
      </trkpt>
      <trkpt lat="42.36595" lon="42.19498">
        <ele>146.325605</ele>
        <time>2021-09-10T06:00:31.922Z</time>
      </trkpt>
      <trkpt lat="42.36581" lon="42.19545">
        <ele>128.151529</ele>
        <time>2021-09-10T06:05:55.854Z</time>
      </trkpt>
      <trkpt lat="42.36677" lon="42.19485">
        <ele>151.385042</ele>
        <time>2021-09-10T06:25:08.840Z</time>
      </trkpt>
      <trkpt lat="42.36875" lon="42.19328">
        <ele>150.396165</ele>
        <time>2021-09-10T06:26:14.883Z</time>
      </trkpt>
      <trkpt lat="42.37097" lon="42.19224">
        <ele>141.260416</ele>
        <time>2021-09-10T06:30:34.880Z</time>
      </trkpt>
      <trkpt lat="42.37294" lon="42.19317">
        <ele>132.722655</ele>
        <time>2021-09-10T06:31:13.879Z</time>
      </trkpt>
      <trkpt lat="42.37472" lon="42.19527">
        <ele>126.970522</ele>
        <time>2021-09-10T06:32:09.879Z</time>
      </trkpt>
      <trkpt lat="42.37601" lon="42.19755">
        <ele>130.090636</ele>
        <time>2021-09-10T06:32:52.876Z</time>
      </trkpt>
      <trkpt lat="42.37714" lon="42.20018">
        <ele>134.466731</ele>
        <time>2021-09-10T06:33:45.871Z</time>
      </trkpt>
      <trkpt lat="42.37823" lon="42.20274">
        <ele>138.211265</ele>
        <time>2021-09-10T06:34:36.884Z</time>
      </trkpt>
      <trkpt lat="42.37945" lon="42.2044">
        <ele>134.047866</ele>
        <time>2021-09-10T06:35:35.876Z</time>
      </trkpt>
      <trkpt lat="42.38142" lon="42.20439">
        <ele>140.280727</ele>
        <time>2021-09-10T06:37:07.872Z</time>
      </trkpt>
      <trkpt lat="42.38337" lon="42.20346">
        <ele>138.988573</ele>
        <time>2021-09-10T06:38:17.892Z</time>
      </trkpt>
      <trkpt lat="42.38459" lon="42.20144">
        <ele>139.641925</ele>
        <time>2021-09-10T06:39:12.854Z</time>
      </trkpt>
      <trkpt lat="42.38701" lon="42.20082">
        <ele>140.690156</ele>
        <time>2021-09-10T06:45:00.873Z</time>
      </trkpt>
      <trkpt lat="42.38896" lon="42.20112">
        <ele>151.718131</ele>
        <time>2021-09-10T06:46:53.845Z</time>
      </trkpt>
      <trkpt lat="42.39101" lon="42.1999">
        <ele>161.94777</ele>
        <time>2021-09-10T06:48:13.862Z</time>
      </trkpt>
      <trkpt lat="42.39282" lon="42.20063">
        <ele>149.289415</ele>
        <time>2021-09-10T06:48:58.861Z</time>
      </trkpt>
      <trkpt lat="42.39434" lon="42.19917">
        <ele>140.447305</ele>
        <time>2021-09-10T06:49:57.866Z</time>
      </trkpt>
      <trkpt lat="42.39639" lon="42.19831">
        <ele>141.045057</ele>
        <time>2021-09-10T06:51:32.871Z</time>
      </trkpt>
      <trkpt lat="42.39822" lon="42.19934">
        <ele>143.674556</ele>
        <time>2021-09-10T06:53:16.855Z</time>
      </trkpt>
      <trkpt lat="42.39994" lon="42.20054">
        <ele>149.422946</ele>
        <time>2021-09-10T06:54:33.864Z</time>
      </trkpt>
      <trkpt lat="42.40166" lon="42.19939">
        <ele>154.513706</ele>
        <time>2021-09-10T06:55:33.855Z</time>
      </trkpt>
      <trkpt lat="42.40293" lon="42.19713">
        <ele>151.587211</ele>
        <time>2021-09-10T06:56:14.863Z</time>
      </trkpt>
      <trkpt lat="42.40462" lon="42.19526">
        <ele>147.975085</ele>
        <time>2021-09-10T06:56:43.910Z</time>
      </trkpt>
      <trkpt lat="42.40622" lon="42.19346">
        <ele>151.923109</ele>
        <time>2021-09-10T06:57:49.882Z</time>
      </trkpt>
      <trkpt lat="42.40802" lon="42.19301">
        <ele>165.664349</ele>
        <time>2021-09-10T07:00:17.885Z</time>
      </trkpt>
      <trkpt lat="42.40958" lon="42.19167">
        <ele>174.671149</ele>
        <time>2021-09-10T07:02:31.868Z</time>
      </trkpt>
      <trkpt lat="42.41138" lon="42.19147">
        <ele>179.211117</ele>
        <time>2021-09-10T07:04:41.855Z</time>
      </trkpt>
      <trkpt lat="42.4133" lon="42.1911">
        <ele>185.848472</ele>
        <time>2021-09-10T07:06:01.887Z</time>
      </trkpt>
      <trkpt lat="42.41518" lon="42.1907">
        <ele>199.224478</ele>
        <time>2021-09-10T07:07:56.867Z</time>
      </trkpt>
      <trkpt lat="42.41665" lon="42.18824">
        <ele>199.389381</ele>
        <time>2021-09-10T07:09:24.905Z</time>
      </trkpt>
      <trkpt lat="42.41746" lon="42.18541">
        <ele>191.072315</ele>
        <time>2021-09-10T07:12:07.864Z</time>
      </trkpt>
      <trkpt lat="42.41899" lon="42.18261">
        <ele>176.897707</ele>
        <time>2021-09-10T07:12:42.865Z</time>
      </trkpt>
      <trkpt lat="42.42078" lon="42.18082">
        <ele>162.358814</ele>
        <time>2021-09-10T07:13:45.849Z</time>
      </trkpt>
      <trkpt lat="42.42303" lon="42.17966">
        <ele>143.013749</ele>
        <time>2021-09-10T07:14:23.859Z</time>
      </trkpt>
      <trkpt lat="42.42434" lon="42.17766">
        <ele>130.66886</ele>
        <time>2021-09-10T07:15:32.853Z</time>
      </trkpt>
      <trkpt lat="42.42452" lon="42.17564">
        <ele>135.258159</ele>
        <time>2021-09-10T07:17:28.853Z</time>
      </trkpt>
      <trkpt lat="42.42604" lon="42.17716">
        <ele>149.980939</ele>
        <time>2021-09-10T07:19:51.881Z</time>
      </trkpt>
      <trkpt lat="42.42773" lon="42.17588">
        <ele>170.038884</ele>
        <time>2021-09-10T07:22:23.870Z</time>
      </trkpt>
      <trkpt lat="42.42932" lon="42.17427">
        <ele>155.532625</ele>
        <time>2021-09-10T07:23:35.835Z</time>
      </trkpt>
      <trkpt lat="42.43102" lon="42.17421">
        <ele>154.032907</ele>
        <time>2021-09-10T07:24:47.828Z</time>
      </trkpt>
      <trkpt lat="42.43136" lon="42.17151">
        <ele>132.479684</ele>
        <time>2021-09-10T07:25:27.837Z</time>
      </trkpt>
      <trkpt lat="42.42996" lon="42.16926">
        <ele>123.029237</ele>
        <time>2021-09-10T07:26:23.827Z</time>
      </trkpt>
      <trkpt lat="42.42855" lon="42.16734">
        <ele>130.551308</ele>
        <time>2021-09-10T07:27:51.825Z</time>
      </trkpt>
      <trkpt lat="42.42697" lon="42.16595">
        <ele>138.393091</ele>
        <time>2021-09-10T07:29:17.861Z</time>
      </trkpt>
      <trkpt lat="42.42578" lon="42.16373">
        <ele>135.377052</ele>
        <time>2021-09-10T07:30:42.839Z</time>
      </trkpt>
      <trkpt lat="42.4253" lon="42.16111">
        <ele>132.310904</ele>
        <time>2021-09-10T07:34:58.870Z</time>
      </trkpt>
      <trkpt lat="42.4273" lon="42.16008">
        <ele>124.864308</ele>
        <time>2021-09-10T07:37:20.861Z</time>
      </trkpt>
      <trkpt lat="42.42845" lon="42.15795">
        <ele>119.117429</ele>
        <time>2021-09-10T07:38:41.862Z</time>
      </trkpt>
      <trkpt lat="42.42805" lon="42.15547">
        <ele>112.886642</ele>
        <time>2021-09-10T07:40:18.844Z</time>
      </trkpt>
      <trkpt lat="42.42837" lon="42.15289">
        <ele>124.342527</ele>
        <time>2021-09-10T07:42:15.853Z</time>
      </trkpt>
      <trkpt lat="42.42909" lon="42.15036">
        <ele>132.898728</ele>
        <time>2021-09-10T07:44:10.862Z</time>
      </trkpt>
      <trkpt lat="42.43065" lon="42.14861">
        <ele>133.628581</ele>
        <time>2021-09-10T07:46:09.854Z</time>
      </trkpt>
      <trkpt lat="42.43263" lon="42.14755">
        <ele>115.57017</ele>
        <time>2021-09-10T07:52:26.847Z</time>
      </trkpt>
      <trkpt lat="42.43453" lon="42.14717">
        <ele>113.089297</ele>
        <time>2021-09-10T08:02:52.844Z</time>
      </trkpt>
      <trkpt lat="42.43601" lon="42.14555">
        <ele>118.470285</ele>
        <time>2021-09-10T08:04:50.840Z</time>
      </trkpt>
      <trkpt lat="42.43785" lon="42.14512">
        <ele>121.201016</ele>
        <time>2021-09-10T08:06:32.846Z</time>
      </trkpt>
      <trkpt lat="42.43985" lon="42.14514">
        <ele>116.362802</ele>
        <time>2021-09-10T08:07:59.882Z</time>
      </trkpt>
      <trkpt lat="42.44152" lon="42.14476">
        <ele>117.637112</ele>
        <time>2021-09-10T08:10:28.876Z</time>
      </trkpt>
      <trkpt lat="42.4431" lon="42.14622">
        <ele>131.90545</ele>
        <time>2021-09-10T08:12:47.846Z</time>
      </trkpt>
      <trkpt lat="42.44482" lon="42.14574">
        <ele>142.179107</ele>
        <time>2021-09-10T08:15:06.850Z</time>
      </trkpt>
      <trkpt lat="42.4467" lon="42.14568">
        <ele>159.57107</ele>
        <time>2021-09-10T08:17:34.839Z</time>
      </trkpt>
      <trkpt lat="42.44858" lon="42.14655">
        <ele>161.344384</ele>
        <time>2021-09-10T08:19:35.839Z</time>
      </trkpt>
      <trkpt lat="42.45029" lon="42.14737">
        <ele>162.076902</ele>
        <time>2021-09-10T08:21:27.842Z</time>
      </trkpt>
      <trkpt lat="42.45192" lon="42.14858">
        <ele>165.077564</ele>
        <time>2021-09-10T08:23:40.888Z</time>
      </trkpt>
      <trkpt lat="42.45373" lon="42.14947">
        <ele>170.268624</ele>
        <time>2021-09-10T08:26:43.834Z</time>
      </trkpt>
      <trkpt lat="42.45565" lon="42.14967">
        <ele>177.940148</ele>
        <time>2021-09-10T08:29:01.850Z</time>
      </trkpt>
      <trkpt lat="42.4573" lon="42.15056">
        <ele>182.425065</ele>
        <time>2021-09-10T08:30:17.846Z</time>
      </trkpt>
      <trkpt lat="42.45898" lon="42.15181">
        <ele>185.840273</ele>
        <time>2021-09-10T08:31:53.837Z</time>
      </trkpt>
      <trkpt lat="42.46097" lon="42.15227">
        <ele>180.288667</ele>
        <time>2021-09-10T08:33:13.836Z</time>
      </trkpt>
      <trkpt lat="42.46271" lon="42.15333">
        <ele>194.473696</ele>
        <time>2021-09-10T08:35:56.847Z</time>
      </trkpt>
      <trkpt lat="42.46395" lon="42.1553">
        <ele>214.831882</ele>
        <time>2021-09-10T08:42:20.856Z</time>
      </trkpt>
      <trkpt lat="42.46536" lon="42.15443">
        <ele>199.497328</ele>
        <time>2021-09-10T08:43:37.857Z</time>
      </trkpt>
      <trkpt lat="42.46588" lon="42.15153">
        <ele>179.652558</ele>
        <time>2021-09-10T08:44:22.828Z</time>
      </trkpt>
      <trkpt lat="42.46724" lon="42.14854">
        <ele>149.722835</ele>
        <time>2021-09-10T08:45:04.871Z</time>
      </trkpt>
      <trkpt lat="42.46793" lon="42.14615">
        <ele>159.283692</ele>
        <time>2021-09-10T08:47:08.845Z</time>
      </trkpt>
      <trkpt lat="42.46899" lon="42.144">
        <ele>180.656416</ele>
        <time>2021-09-10T08:49:41.857Z</time>
      </trkpt>
      <trkpt lat="42.4708" lon="42.14275">
        <ele>176.419231</ele>
        <time>2021-09-10T08:51:17.841Z</time>
      </trkpt>
      <trkpt lat="42.47266" lon="42.14197">
        <ele>185.253973</ele>
        <time>2021-09-10T08:53:30.826Z</time>
      </trkpt>
      <trkpt lat="42.47368" lon="42.13999">
        <ele>200.241027</ele>
        <time>2021-09-10T08:54:24.835Z</time>
      </trkpt>
      <trkpt lat="42.47294" lon="42.13743">
        <ele>192.153076</ele>
        <time>2021-09-10T08:55:39.846Z</time>
      </trkpt>
      <trkpt lat="42.47212" lon="42.13466">
        <ele>176.862008</ele>
        <time>2021-09-10T08:56:39.831Z</time>
      </trkpt>
      <trkpt lat="42.47063" lon="42.13183">
        <ele>169.764752</ele>
        <time>2021-09-10T08:57:20.860Z</time>
      </trkpt>
      <trkpt lat="42.47158" lon="42.12933">
        <ele>150.80562</ele>
        <time>2021-09-10T08:58:11.847Z</time>
      </trkpt>
      <trkpt lat="42.4722" lon="42.12645">
        <ele>161.011199</ele>
        <time>2021-09-10T08:59:16.826Z</time>
      </trkpt>
      <trkpt lat="42.47305" lon="42.12412">
        <ele>176.243071</ele>
        <time>2021-09-10T09:01:51.873Z</time>
      </trkpt>
      <trkpt lat="42.47334" lon="42.1216">
        <ele>185.966515</ele>
        <time>2021-09-10T09:04:27.860Z</time>
      </trkpt>
      <trkpt lat="42.47291" lon="42.11878">
        <ele>180.155161</ele>
        <time>2021-09-10T09:04:59.852Z</time>
      </trkpt>
      <trkpt lat="42.47231" lon="42.11561">
        <ele>171.158549</ele>
        <time>2021-09-10T09:05:38.841Z</time>
      </trkpt>
      <trkpt lat="42.4722" lon="42.11236">
        <ele>162.664142</ele>
        <time>2021-09-10T09:06:07.845Z</time>
      </trkpt>
      <trkpt lat="42.47121" lon="42.10981">
        <ele>162.71491</ele>
        <time>2021-09-10T09:06:48.844Z</time>
      </trkpt>
      <trkpt lat="42.47319" lon="42.10875">
        <ele>160.023918</ele>
        <time>2021-09-10T09:07:37.850Z</time>
      </trkpt>
      <trkpt lat="42.47398" lon="42.10598">
        <ele>162.018045</ele>
        <time>2021-09-10T09:08:20.839Z</time>
      </trkpt>
      <trkpt lat="42.4763" lon="42.10689">
        <ele>154.930185</ele>
        <time>2021-09-10T09:08:53.857Z</time>
      </trkpt>
      <trkpt lat="42.47786" lon="42.10903">
        <ele>148.011658</ele>
        <time>2021-09-10T09:09:37.854Z</time>
      </trkpt>
      <trkpt lat="42.4795" lon="42.11099">
        <ele>150.416291</ele>
        <time>2021-09-10T09:10:39.887Z</time>
      </trkpt>
      <trkpt lat="42.48106" lon="42.1128">
        <ele>140.798344</ele>
        <time>2021-09-10T09:11:45.859Z</time>
      </trkpt>
      <trkpt lat="42.48314" lon="42.11353">
        <ele>132.544249</ele>
        <time>2021-09-10T09:12:43.843Z</time>
      </trkpt>
      <trkpt lat="42.48529" lon="42.11437">
        <ele>132.133102</ele>
        <time>2021-09-10T09:13:39.838Z</time>
      </trkpt>
      <trkpt lat="42.48708" lon="42.11433">
        <ele>134.131342</ele>
        <time>2021-09-10T09:14:44.841Z</time>
      </trkpt>
      <trkpt lat="42.48875" lon="42.11264">
        <ele>143.829783</ele>
        <time>2021-09-10T09:16:03.843Z</time>
      </trkpt>
      <trkpt lat="42.49007" lon="42.11068">
        <ele>154.749502</ele>
        <time>2021-09-10T09:18:35.840Z</time>
      </trkpt>
      <trkpt lat="42.49196" lon="42.11078">
        <ele>163.712518</ele>
        <time>2021-09-10T09:20:23.819Z</time>
      </trkpt>
      <trkpt lat="42.49392" lon="42.11166">
        <ele>158.51521</ele>
        <time>2021-09-10T09:21:37.842Z</time>
      </trkpt>
      <trkpt lat="42.49574" lon="42.11313">
        <ele>158.092061</ele>
        <time>2021-09-10T09:22:57.851Z</time>
      </trkpt>
      <trkpt lat="42.49736" lon="42.11494">
        <ele>163.249253</ele>
        <time>2021-09-10T09:24:16.833Z</time>
      </trkpt>
      <trkpt lat="42.49916" lon="42.11622">
        <ele>163.153943</ele>
        <time>2021-09-10T09:25:26.847Z</time>
      </trkpt>
      <trkpt lat="42.50112" lon="42.11691">
        <ele>164.04959</ele>
        <time>2021-09-10T09:26:42.877Z</time>
      </trkpt>
      <trkpt lat="42.50318" lon="42.11756">
        <ele>163.775305</ele>
        <time>2021-09-10T09:28:03.838Z</time>
      </trkpt>
      <trkpt lat="42.50523" lon="42.1182">
        <ele>166.945372</ele>
        <time>2021-09-10T09:29:23.875Z</time>
      </trkpt>
      <trkpt lat="42.5073" lon="42.11889">
        <ele>168.936542</ele>
        <time>2021-09-10T09:30:41.835Z</time>
      </trkpt>
      <trkpt lat="42.50926" lon="42.11968">
        <ele>170.814939</ele>
        <time>2021-09-10T09:31:57.873Z</time>
      </trkpt>
      <trkpt lat="42.51071" lon="42.12031">
        <ele>166.21174</ele>
        <time>2021-09-10T09:53:57.923Z</time>
      </trkpt>
      <trkpt lat="42.51266" lon="42.12112">
        <ele>171.396856</ele>
        <time>2021-09-10T09:55:14.916Z</time>
      </trkpt>
      <trkpt lat="42.51455" lon="42.12243">
        <ele>174.417951</ele>
        <time>2021-09-10T09:56:32.917Z</time>
      </trkpt>
      <trkpt lat="42.51616" lon="42.12395">
        <ele>174.548046</ele>
        <time>2021-09-10T09:57:37.923Z</time>
      </trkpt>
      <trkpt lat="42.51784" lon="42.12543">
        <ele>176.451692</ele>
        <time>2021-09-10T09:58:43.918Z</time>
      </trkpt>
      <trkpt lat="42.51937" lon="42.1273">
        <ele>181.295716</ele>
        <time>2021-09-10T09:59:51.911Z</time>
      </trkpt>
      <trkpt lat="42.52114" lon="42.12865">
        <ele>182.639783</ele>
        <time>2021-09-10T10:00:53.962Z</time>
      </trkpt>
      <trkpt lat="42.52281" lon="42.13002">
        <ele>179.164201</ele>
        <time>2021-09-10T10:01:57.915Z</time>
      </trkpt>
      <trkpt lat="42.52455" lon="42.13153">
        <ele>183.645197</ele>
        <time>2021-09-10T10:02:57.913Z</time>
      </trkpt>
      <trkpt lat="42.52634" lon="42.13301">
        <ele>184.638237</ele>
        <time>2021-09-10T10:04:00.905Z</time>
      </trkpt>
      <trkpt lat="42.52806" lon="42.13446">
        <ele>183.599728</ele>
        <time>2021-09-10T10:05:01.917Z</time>
      </trkpt>
      <trkpt lat="42.52987" lon="42.13548">
        <ele>187.716091</ele>
        <time>2021-09-10T10:05:59.910Z</time>
      </trkpt>
      <trkpt lat="42.53171" lon="42.13654">
        <ele>187.468292</ele>
        <time>2021-09-10T10:07:00.922Z</time>
      </trkpt>
      <trkpt lat="42.53373" lon="42.13658">
        <ele>188.659163</ele>
        <time>2021-09-10T10:08:00.924Z</time>
      </trkpt>
      <trkpt lat="42.53534" lon="42.13827">
        <ele>190.783973</ele>
        <time>2021-09-10T10:09:05.946Z</time>
      </trkpt>
      <trkpt lat="42.53716" lon="42.13926">
        <ele>192.726172</ele>
        <time>2021-09-10T10:10:17.919Z</time>
      </trkpt>
      <trkpt lat="42.53934" lon="42.13934">
        <ele>192.253069</ele>
        <time>2021-09-10T10:11:24.906Z</time>
      </trkpt>
      <trkpt lat="42.54134" lon="42.13944">
        <ele>194.520839</ele>
        <time>2021-09-10T10:12:26.920Z</time>
      </trkpt>
      <trkpt lat="42.54325" lon="42.14044">
        <ele>195.564201</ele>
        <time>2021-09-10T10:13:30.925Z</time>
      </trkpt>
      <trkpt lat="42.5451" lon="42.141">
        <ele>196.7857</ele>
        <time>2021-09-10T10:14:29.909Z</time>
      </trkpt>
      <trkpt lat="42.54685" lon="42.14239">
        <ele>195.066818</ele>
        <time>2021-09-10T10:15:36.922Z</time>
      </trkpt>
      <trkpt lat="42.5489" lon="42.1421">
        <ele>203.539304</ele>
        <time>2021-09-10T10:16:48.908Z</time>
      </trkpt>
      <trkpt lat="42.55103" lon="42.14238">
        <ele>203.200672</ele>
        <time>2021-09-10T10:18:03.915Z</time>
      </trkpt>
      <trkpt lat="42.55279" lon="42.1413">
        <ele>202.90999</ele>
        <time>2021-09-10T10:19:10.921Z</time>
      </trkpt>
      <trkpt lat="42.55474" lon="42.14076">
        <ele>202.650196</ele>
        <time>2021-09-10T10:20:12.910Z</time>
      </trkpt>
      <trkpt lat="42.55656" lon="42.14143">
        <ele>204.561527</ele>
        <time>2021-09-10T10:21:12.917Z</time>
      </trkpt>
      <trkpt lat="42.55782" lon="42.14371">
        <ele>206.564393</ele>
        <time>2021-09-10T10:22:22.916Z</time>
      </trkpt>
      <trkpt lat="42.55956" lon="42.14487">
        <ele>210.481688</ele>
        <time>2021-09-10T10:23:32.903Z</time>
      </trkpt>
      <trkpt lat="42.56145" lon="42.14576">
        <ele>210.537273</ele>
        <time>2021-09-10T10:24:32.921Z</time>
      </trkpt>
      <trkpt lat="42.5636" lon="42.14555">
        <ele>211.32348</ele>
        <time>2021-09-10T10:25:38.899Z</time>
      </trkpt>
      <trkpt lat="42.56584" lon="42.14496">
        <ele>209.537442</ele>
        <time>2021-09-10T10:26:39.925Z</time>
      </trkpt>
      <trkpt lat="42.56778" lon="42.14521">
        <ele>212.659301</ele>
        <time>2021-09-10T10:27:40.923Z</time>
      </trkpt>
      <trkpt lat="42.5698" lon="42.14576">
        <ele>213.849854</ele>
        <time>2021-09-10T10:28:49.923Z</time>
      </trkpt>
      <trkpt lat="42.57072" lon="42.14464">
        <ele>216.681008</ele>
        <time>2021-09-10T10:29:55.912Z</time>
      </trkpt>
      <trkpt lat="42.5699" lon="42.14195">
        <ele>214.125332</ele>
        <time>2021-09-10T10:30:49.916Z</time>
      </trkpt>
      <trkpt lat="42.57069" lon="42.13965">
        <ele>213.661733</ele>
        <time>2021-09-10T10:31:55.900Z</time>
      </trkpt>
      <trkpt lat="42.57261" lon="42.13877">
        <ele>211.190735</ele>
        <time>2021-09-10T10:33:16.893Z</time>
      </trkpt>
      <trkpt lat="42.57464" lon="42.13831">
        <ele>213.995851</ele>
        <time>2021-09-10T10:34:27.883Z</time>
      </trkpt>
      <trkpt lat="42.57628" lon="42.1369">
        <ele>221.894386</ele>
        <time>2021-09-10T10:36:16.892Z</time>
      </trkpt>
      <trkpt lat="42.57796" lon="42.13772">
        <ele>225.573648</ele>
        <time>2021-09-10T10:37:33.893Z</time>
      </trkpt>
      <trkpt lat="42.57985" lon="42.13852">
        <ele>228.051954</ele>
        <time>2021-09-10T10:38:46.887Z</time>
      </trkpt>
      <trkpt lat="42.58181" lon="42.13977">
        <ele>226.209199</ele>
        <time>2021-09-10T10:40:05.879Z</time>
      </trkpt>
      <trkpt lat="42.58377" lon="42.14066">
        <ele>229.365241</ele>
        <time>2021-09-10T10:41:23.884Z</time>
      </trkpt>
      <trkpt lat="42.58571" lon="42.14147">
        <ele>230.797529</ele>
        <time>2021-09-10T10:42:36.892Z</time>
      </trkpt>
      <trkpt lat="42.58761" lon="42.14264">
        <ele>230.612348</ele>
        <time>2021-09-10T10:43:57.886Z</time>
      </trkpt>
      <trkpt lat="42.58924" lon="42.1445">
        <ele>230.407447</ele>
        <time>2021-09-10T10:45:14.898Z</time>
      </trkpt>
      <trkpt lat="42.59096" lon="42.14601">
        <ele>236.653054</ele>
        <time>2021-09-10T10:46:32.886Z</time>
      </trkpt>
      <trkpt lat="42.59264" lon="42.14758">
        <ele>238.651491</ele>
        <time>2021-09-10T10:47:49.895Z</time>
      </trkpt>
      <trkpt lat="42.59391" lon="42.14988">
        <ele>240.622283</ele>
        <time>2021-09-10T10:48:58.886Z</time>
      </trkpt>
      <trkpt lat="42.5952" lon="42.15218">
        <ele>243.530364</ele>
        <time>2021-09-10T10:50:13.883Z</time>
      </trkpt>
      <trkpt lat="42.59681" lon="42.15375">
        <ele>244.776972</ele>
        <time>2021-09-10T10:51:22.888Z</time>
      </trkpt>
      <trkpt lat="42.59865" lon="42.15471">
        <ele>245.125112</ele>
        <time>2021-09-10T10:52:38.892Z</time>
      </trkpt>
      <trkpt lat="42.60013" lon="42.15314">
        <ele>249.837023</ele>
        <time>2021-09-10T10:53:51.880Z</time>
      </trkpt>
      <trkpt lat="42.60107" lon="42.15073">
        <ele>249.643363</ele>
        <time>2021-09-10T10:55:14.886Z</time>
      </trkpt>
      <trkpt lat="42.60111" lon="42.14773">
        <ele>246.690426</ele>
        <time>2021-09-10T10:56:07.890Z</time>
      </trkpt>
      <trkpt lat="42.60043" lon="42.14445">
        <ele>240.712319</ele>
        <time>2021-09-10T10:56:45.899Z</time>
      </trkpt>
      <trkpt lat="42.59953" lon="42.14192">
        <ele>244.933401</ele>
        <time>2021-09-10T10:57:41.885Z</time>
      </trkpt>
      <trkpt lat="42.59898" lon="42.13929">
        <ele>242.686469</ele>
        <time>2021-09-10T10:58:37.886Z</time>
      </trkpt>
      <trkpt lat="42.59901" lon="42.13626">
        <ele>246.785751</ele>
        <time>2021-09-10T10:59:35.891Z</time>
      </trkpt>
      <trkpt lat="42.59958" lon="42.13363">
        <ele>246.240369</ele>
        <time>2021-09-10T11:00:23.887Z</time>
      </trkpt>
      <trkpt lat="42.60124" lon="42.13187">
        <ele>244.152398</ele>
        <time>2021-09-10T11:01:27.889Z</time>
      </trkpt>
      <trkpt lat="42.60293" lon="42.13051">
        <ele>246.399373</ele>
        <time>2021-09-10T11:02:28.896Z</time>
      </trkpt>
      <trkpt lat="42.60331" lon="42.12849">
        <ele>251.224841</ele>
        <time>2021-09-10T11:03:59.884Z</time>
      </trkpt>
      <trkpt lat="42.60363" lon="42.12607">
        <ele>253.911101</ele>
        <time>2021-09-10T11:05:22.881Z</time>
      </trkpt>
      <trkpt lat="42.60381" lon="42.12262">
        <ele>238.661754</ele>
        <time>2021-09-10T11:06:13.883Z</time>
      </trkpt>
      <trkpt lat="42.60538" lon="42.12017">
        <ele>225.740867</ele>
        <time>2021-09-10T11:06:53.889Z</time>
      </trkpt>
      <trkpt lat="42.60746" lon="42.12">
        <ele>230.248585</ele>
        <time>2021-09-10T11:08:08.888Z</time>
      </trkpt>
      <trkpt lat="42.60922" lon="42.12051">
        <ele>238.19385</ele>
        <time>2021-09-10T11:09:48.877Z</time>
      </trkpt>
      <trkpt lat="42.61103" lon="42.11936">
        <ele>240.542324</ele>
        <time>2021-09-10T11:10:53.895Z</time>
      </trkpt>
      <trkpt lat="42.61308" lon="42.11837">
        <ele>238.799938</ele>
        <time>2021-09-10T11:11:53.885Z</time>
      </trkpt>
      <trkpt lat="42.61377" lon="42.11622">
        <ele>248.862697</ele>
        <time>2021-09-10T11:13:29.881Z</time>
      </trkpt>
      <trkpt lat="42.61543" lon="42.11537">
        <ele>261.696566</ele>
        <time>2021-09-10T11:15:58.893Z</time>
      </trkpt>
      <trkpt lat="42.61717" lon="42.1144">
        <ele>280.055331</ele>
        <time>2021-09-10T11:18:42.887Z</time>
      </trkpt>
      <trkpt lat="42.6183" lon="42.11224">
        <ele>295.789022</ele>
        <time>2021-09-10T11:21:13.889Z</time>
      </trkpt>
      <trkpt lat="42.61863" lon="42.10932">
        <ele>295.767341</ele>
        <time>2021-09-10T11:22:01.884Z</time>
      </trkpt>
      <trkpt lat="42.61981" lon="42.10698">
        <ele>282.752256</ele>
        <time>2021-09-10T11:22:37.906Z</time>
      </trkpt>
      <trkpt lat="42.6197" lon="42.10479">
        <ele>284.295394</ele>
        <time>2021-09-10T11:24:24.880Z</time>
      </trkpt>
      <trkpt lat="42.61809" lon="42.10313">
        <ele>293.293472</ele>
        <time>2021-09-10T11:25:51.883Z</time>
      </trkpt>
      <trkpt lat="42.61706" lon="42.10062">
        <ele>282.065491</ele>
        <time>2021-09-10T11:26:13.890Z</time>
      </trkpt>
      <trkpt lat="42.61582" lon="42.0986">
        <ele>281.632979</ele>
        <time>2021-09-10T11:27:36.879Z</time>
      </trkpt>
      <trkpt lat="42.61371" lon="42.09634">
        <ele>275.265735</ele>
        <time>2021-09-10T11:28:12.884Z</time>
      </trkpt>
      <trkpt lat="42.6121" lon="42.09387">
        <ele>267.427832</ele>
        <time>2021-09-10T11:28:32.882Z</time>
      </trkpt>
      <trkpt lat="42.61026" lon="42.09265">
        <ele>278.935001</ele>
        <time>2021-09-10T11:30:38.880Z</time>
      </trkpt>
      <trkpt lat="42.60973" lon="42.09085">
        <ele>279.259652</ele>
        <time>2021-09-10T11:32:15.878Z</time>
      </trkpt>
      <trkpt lat="42.61077" lon="42.08969">
        <ele>262.687574</ele>
        <time>2021-09-10T11:33:01.886Z</time>
      </trkpt>
      <trkpt lat="42.60865" lon="42.08751">
        <ele>236.301154</ele>
        <time>2021-09-10T11:33:38.883Z</time>
      </trkpt>
      <trkpt lat="42.60832" lon="42.08409">
        <ele>215.597408</ele>
        <time>2021-09-10T11:34:12.889Z</time>
      </trkpt>
      <trkpt lat="42.60745" lon="42.08117">
        <ele>205.589725</ele>
        <time>2021-09-10T11:34:39.909Z</time>
      </trkpt>
      <trkpt lat="42.60751" lon="42.07798">
        <ele>197.046537</ele>
        <time>2021-09-10T11:35:22.891Z</time>
      </trkpt>
      <trkpt lat="42.60876" lon="42.07568">
        <ele>196.358749</ele>
        <time>2021-09-10T11:36:17.884Z</time>
      </trkpt>
      <trkpt lat="42.61073" lon="42.07518">
        <ele>199.651152</ele>
        <time>2021-09-10T11:37:23.881Z</time>
      </trkpt>
      <trkpt lat="42.61186" lon="42.07499">
        <ele>203.155541</ele>
        <time>2021-09-10T11:58:47.376Z</time>
      </trkpt>
      <trkpt lat="42.61386" lon="42.07405">
        <ele>199.695539</ele>
        <time>2021-09-10T11:59:56.372Z</time>
      </trkpt>
      <trkpt lat="42.616" lon="42.073">
        <ele>198.03582</ele>
        <time>2021-09-10T12:00:56.370Z</time>
      </trkpt>
      <trkpt lat="42.61805" lon="42.07213">
        <ele>203.159238</ele>
        <time>2021-09-10T12:02:05.382Z</time>
      </trkpt>
      <trkpt lat="42.62006" lon="42.07147">
        <ele>208.369371</ele>
        <time>2021-09-10T12:03:22.375Z</time>
      </trkpt>
      <trkpt lat="42.62213" lon="42.0708">
        <ele>212.005781</ele>
        <time>2021-09-10T12:04:35.378Z</time>
      </trkpt>
      <trkpt lat="42.6242" lon="42.0709">
        <ele>215.822664</ele>
        <time>2021-09-10T12:05:42.373Z</time>
      </trkpt>
      <trkpt lat="42.6258" lon="42.07207">
        <ele>218.702654</ele>
        <time>2021-09-10T12:06:48.344Z</time>
      </trkpt>
      <trkpt lat="42.62701" lon="42.07432">
        <ele>230.856337</ele>
        <time>2021-09-10T12:08:29.341Z</time>
      </trkpt>
      <trkpt lat="42.62828" lon="42.07673">
        <ele>234.587133</ele>
        <time>2021-09-10T12:09:54.362Z</time>
      </trkpt>
      <trkpt lat="42.62964" lon="42.07895">
        <ele>233.814325</ele>
        <time>2021-09-10T12:11:05.354Z</time>
      </trkpt>
      <trkpt lat="42.63108" lon="42.08073">
        <ele>239.139561</ele>
        <time>2021-09-10T12:12:09.368Z</time>
      </trkpt>
      <trkpt lat="42.63193" lon="42.08315">
        <ele>242.658199</ele>
        <time>2021-09-10T12:13:13.349Z</time>
      </trkpt>
      <trkpt lat="42.63371" lon="42.08429">
        <ele>239.159745</ele>
        <time>2021-09-10T12:14:17.343Z</time>
      </trkpt>
      <trkpt lat="42.63559" lon="42.08526">
        <ele>239.535689</ele>
        <time>2021-09-10T12:15:21.348Z</time>
      </trkpt>
      <trkpt lat="42.6373" lon="42.08662">
        <ele>247.295546</ele>
        <time>2021-09-10T12:16:34.351Z</time>
      </trkpt>
      <trkpt lat="42.63903" lon="42.0883">
        <ele>247.825257</ele>
        <time>2021-09-10T12:17:53.354Z</time>
      </trkpt>
      <trkpt lat="42.64084" lon="42.08967">
        <ele>251.286047</ele>
        <time>2021-09-10T12:19:09.341Z</time>
      </trkpt>
      <trkpt lat="42.6425" lon="42.09058">
        <ele>255.701241</ele>
        <time>2021-09-10T12:20:27.355Z</time>
      </trkpt>
      <trkpt lat="42.64391" lon="42.08845">
        <ele>248.122069</ele>
        <time>2021-09-10T12:21:20.346Z</time>
      </trkpt>
      <trkpt lat="42.64455" lon="42.0876">
        <ele>240.325751</ele>
        <time>2021-09-10T12:22:39.344Z</time>
      </trkpt>
      <trkpt lat="42.64502" lon="42.08636">
        <ele>251.497903</ele>
        <time>2021-09-10T12:34:25.003Z</time>
      </trkpt>
      <trkpt lat="42.64536" lon="42.08337">
        <ele>248.617503</ele>
        <time>2021-09-10T12:35:13.998Z</time>
      </trkpt>
      <trkpt lat="42.64555" lon="42.08044">
        <ele>244.591232</ele>
        <time>2021-09-10T12:36:10.973Z</time>
      </trkpt>
      <trkpt lat="42.64679" lon="42.07883">
        <ele>239.94631</ele>
        <time>2021-09-10T12:37:17.972Z</time>
      </trkpt>
      <trkpt lat="42.64897" lon="42.07863">
        <ele>237.564219</ele>
        <time>2021-09-10T12:38:17.978Z</time>
      </trkpt>
      <trkpt lat="42.65104" lon="42.07851">
        <ele>239.855722</ele>
        <time>2021-09-10T12:39:22.989Z</time>
      </trkpt>
      <trkpt lat="42.65298" lon="42.079">
        <ele>241.832149</ele>
        <time>2021-09-10T12:40:31.001Z</time>
      </trkpt>
      <trkpt lat="42.65468" lon="42.08027">
        <ele>244.66044</ele>
        <time>2021-09-10T12:41:32.977Z</time>
      </trkpt>
      <trkpt lat="42.65673" lon="42.08058">
        <ele>246.341893</ele>
        <time>2021-09-10T12:42:41.971Z</time>
      </trkpt>
      <trkpt lat="42.65905" lon="42.07961">
        <ele>241.776573</ele>
        <time>2021-09-10T12:43:26.995Z</time>
      </trkpt>
      <trkpt lat="42.66021" lon="42.07794">
        <ele>248.275955</ele>
        <time>2021-09-10T12:44:52.993Z</time>
      </trkpt>
      <trkpt lat="42.66194" lon="42.07673">
        <ele>253.871957</ele>
        <time>2021-09-10T12:46:38.005Z</time>
      </trkpt>
      <trkpt lat="42.66404" lon="42.07677">
        <ele>253.354603</ele>
        <time>2021-09-10T12:47:58.990Z</time>
      </trkpt>
      <trkpt lat="42.6661" lon="42.07743">
        <ele>254.111876</ele>
        <time>2021-09-10T12:49:11.026Z</time>
      </trkpt>
      <trkpt lat="42.66793" lon="42.07816">
        <ele>258.979775</ele>
        <time>2021-09-10T12:50:20.000Z</time>
      </trkpt>
      <trkpt lat="42.66959" lon="42.07977">
        <ele>255.478102</ele>
        <time>2021-09-10T12:51:08.996Z</time>
      </trkpt>
      <trkpt lat="42.67151" lon="42.08138">
        <ele>250.160602</ele>
        <time>2021-09-10T12:52:03.992Z</time>
      </trkpt>
      <trkpt lat="42.6735" lon="42.08198">
        <ele>252.662568</ele>
        <time>2021-09-10T12:53:14.002Z</time>
      </trkpt>
      <trkpt lat="42.67524" lon="42.0829">
        <ele>259.142421</ele>
        <time>2021-09-10T12:54:35.996Z</time>
      </trkpt>
      <trkpt lat="42.67667" lon="42.08479">
        <ele>271.533786</ele>
        <time>2021-09-10T12:56:24.004Z</time>
      </trkpt>
      <trkpt lat="42.6786" lon="42.08516">
        <ele>276.572137</ele>
        <time>2021-09-10T12:58:26.013Z</time>
      </trkpt>
      <trkpt lat="42.68033" lon="42.08509">
        <ele>284.284172</ele>
        <time>2021-09-10T13:05:49.015Z</time>
      </trkpt>
      <trkpt lat="42.68143" lon="42.08309">
        <ele>291.274577</ele>
        <time>2021-09-10T13:07:24.005Z</time>
      </trkpt>
      <trkpt lat="42.68312" lon="42.08164">
        <ele>298.04442</ele>
        <time>2021-09-10T13:09:11.984Z</time>
      </trkpt>
      <trkpt lat="42.68478" lon="42.08028">
        <ele>304.289841</ele>
        <time>2021-09-10T13:11:10.975Z</time>
      </trkpt>
      <trkpt lat="42.68641" lon="42.07878">
        <ele>297.717136</ele>
        <time>2021-09-10T13:12:32.996Z</time>
      </trkpt>
      <trkpt lat="42.68794" lon="42.07718">
        <ele>299.056337</ele>
        <time>2021-09-10T13:14:00.023Z</time>
      </trkpt>
      <trkpt lat="42.68921" lon="42.07521">
        <ele>306.093496</ele>
        <time>2021-09-10T13:15:59.049Z</time>
      </trkpt>
      <trkpt lat="42.69084" lon="42.07381">
        <ele>312.980988</ele>
        <time>2021-09-10T13:17:26.056Z</time>
      </trkpt>
      <trkpt lat="42.69258" lon="42.07253">
        <ele>308.461517</ele>
        <time>2021-09-10T13:18:57.973Z</time>
      </trkpt>
      <trkpt lat="42.69415" lon="42.07119">
        <ele>313.106308</ele>
        <time>2021-09-10T13:20:44.975Z</time>
      </trkpt>
      <trkpt lat="42.69525" lon="42.06941">
        <ele>326.229728</ele>
        <time>2021-09-10T13:23:03.002Z</time>
      </trkpt>
      <trkpt lat="42.69538" lon="42.06694">
        <ele>346.766513</ele>
        <time>2021-09-10T13:30:30.974Z</time>
      </trkpt>
      <trkpt lat="42.6966" lon="42.06534">
        <ele>367.795437</ele>
        <time>2021-09-10T13:36:54.976Z</time>
      </trkpt>
      <trkpt lat="42.69772" lon="42.0635">
        <ele>383.413489</ele>
        <time>2021-09-10T13:40:56.974Z</time>
      </trkpt>
      <trkpt lat="42.6991" lon="42.06224">
        <ele>395.083647</ele>
        <time>2021-09-10T13:43:16.005Z</time>
      </trkpt>
      <trkpt lat="42.70061" lon="42.06053">
        <ele>399.534956</ele>
        <time>2021-09-10T13:45:30.037Z</time>
      </trkpt>
      <trkpt lat="42.70222" lon="42.05934">
        <ele>384.750723</ele>
        <time>2021-09-10T13:47:12.991Z</time>
      </trkpt>
      <trkpt lat="42.70401" lon="42.05874">
        <ele>359.410763</ele>
        <time>2021-09-10T13:48:40.029Z</time>
      </trkpt>
      <trkpt lat="42.70591" lon="42.05795">
        <ele>335.292908</ele>
        <time>2021-09-10T13:50:09.018Z</time>
      </trkpt>
      <trkpt lat="42.70792" lon="42.057">
        <ele>345.89936</ele>
        <time>2021-09-10T13:51:02.000Z</time>
      </trkpt>
      <trkpt lat="42.71011" lon="42.05678">
        <ele>344.729198</ele>
        <time>2021-09-10T13:51:58.007Z</time>
      </trkpt>
      <trkpt lat="42.71203" lon="42.05649">
        <ele>350.476012</ele>
        <time>2021-09-10T13:53:20.995Z</time>
      </trkpt>
      <trkpt lat="42.71376" lon="42.05591">
        <ele>357.502342</ele>
        <time>2021-09-10T13:54:47.008Z</time>
      </trkpt>
      <trkpt lat="42.7152" lon="42.05404">
        <ele>357.853465</ele>
        <time>2021-09-10T13:55:36.007Z</time>
      </trkpt>
      <trkpt lat="42.71666" lon="42.05197">
        <ele>361.283691</ele>
        <time>2021-09-10T13:56:40.994Z</time>
      </trkpt>
      <trkpt lat="42.71813" lon="42.0498">
        <ele>362.137381</ele>
        <time>2021-09-10T13:57:37.991Z</time>
      </trkpt>
      <trkpt lat="42.71934" lon="42.04777">
        <ele>349.596859</ele>
        <time>2021-09-10T13:58:30.993Z</time>
      </trkpt>
      <trkpt lat="42.72144" lon="42.0472">
        <ele>349.510868</ele>
        <time>2021-09-10T13:59:48.007Z</time>
      </trkpt>
      <trkpt lat="42.72173" lon="42.04509">
        <ele>349.200001</ele>
        <time>2021-09-10T14:00:43.007Z</time>
      </trkpt>
      <trkpt lat="42.72235" lon="42.04301">
        <ele>338.101142</ele>
        <time>2021-09-10T14:01:26.010Z</time>
      </trkpt>
      <trkpt lat="42.72484" lon="42.04328">
        <ele>311.778703</ele>
        <time>2021-09-10T14:02:06.002Z</time>
      </trkpt>
      <trkpt lat="42.72549" lon="42.04005">
        <ele>287.884579</ele>
        <time>2021-09-10T14:02:40.995Z</time>
      </trkpt>
      <trkpt lat="42.72362" lon="42.03906">
        <ele>285.703374</ele>
        <time>2021-09-10T14:05:02.025Z</time>
      </trkpt>
      <trkpt lat="42.72255" lon="42.03879">
        <ele>296.139345</ele>
        <time>2021-09-10T14:11:28.991Z</time>
      </trkpt>
      <trkpt lat="42.72453" lon="42.03947">
        <ele>296.315778</ele>
        <time>2021-09-10T14:12:51.978Z</time>
      </trkpt>
      <trkpt lat="42.72265" lon="42.03893">
        <ele>289.882499</ele>
        <time>2021-09-10T14:18:59.984Z</time>
      </trkpt>
      <trkpt lat="42.7222" lon="42.03979">
        <ele>289.24476</ele>
        <time>2021-09-10T14:20:44.973Z</time>
      </trkpt>
      <trkpt lat="42.72149" lon="42.03837">
        <ele>286.675061</ele>
        <time>2021-09-10T14:21:46.992Z</time>
      </trkpt>
      <trkpt lat="42.71932" lon="42.03772">
        <ele>282.227837</ele>
        <time>2021-09-10T14:22:46.983Z</time>
      </trkpt>
      <trkpt lat="42.71839" lon="42.03857">
        <ele>282.227837</ele>
        <time>2021-09-10T14:26:53.713Z</time>
      </trkpt>
    </trkseg>
  </trk>
  <trk>
    <name><![CDATA[Transcaucasie: Géorgie + Arménie_4]]></name>
    <extensions>
      <line xmlns="http://www.topografix.com/GPX/gpx_style/0/2">
        <color>00FFFF</color>
        <width>4</width>
      </line>
    </extensions>
    <trkseg>
      <trkpt lat="42.71845" lon="42.03843">
        <ele>285.7</ele>
        <time>2021-09-11T05:40:09.831Z</time>
      </trkpt>
      <trkpt lat="42.71906" lon="42.03776">
        <ele>285.8</ele>
        <time>2021-09-11T05:45:29.590Z</time>
      </trkpt>
      <trkpt lat="42.72079" lon="42.03818">
        <ele>288.8</ele>
        <time>2021-09-11T05:46:49.568Z</time>
      </trkpt>
      <trkpt lat="42.72257" lon="42.03885">
        <ele>293</ele>
        <time>2021-09-11T05:48:03.542Z</time>
      </trkpt>
      <trkpt lat="42.72438" lon="42.03944">
        <ele>298.7</ele>
        <time>2021-09-11T05:49:12.566Z</time>
      </trkpt>
      <trkpt lat="42.7261" lon="42.04056">
        <ele>297.4</ele>
        <time>2021-09-11T05:50:22.562Z</time>
      </trkpt>
      <trkpt lat="42.72759" lon="42.04204">
        <ele>296.1</ele>
        <time>2021-09-11T05:51:20.538Z</time>
      </trkpt>
      <trkpt lat="42.72915" lon="42.04145">
        <ele>297.5</ele>
        <time>2021-09-11T05:52:35.572Z</time>
      </trkpt>
      <trkpt lat="42.72976" lon="42.03943">
        <ele>306</ele>
        <time>2021-09-11T05:54:01.583Z</time>
      </trkpt>
      <trkpt lat="42.72927" lon="42.03711">
        <ele>318.7</ele>
        <time>2021-09-11T05:55:46.559Z</time>
      </trkpt>
      <trkpt lat="42.72912" lon="42.03475">
        <ele>329</ele>
        <time>2021-09-11T05:57:29.590Z</time>
      </trkpt>
      <trkpt lat="42.72954" lon="42.03246">
        <ele>337.5</ele>
        <time>2021-09-11T05:59:30.586Z</time>
      </trkpt>
      <trkpt lat="42.73067" lon="42.0314">
        <ele>348.8</ele>
        <time>2021-09-11T06:01:28.559Z</time>
      </trkpt>
      <trkpt lat="42.73047" lon="42.03335">
        <ele>358</ele>
        <time>2021-09-11T06:03:16.574Z</time>
      </trkpt>
      <trkpt lat="42.73011" lon="42.03561">
        <ele>361.7</ele>
        <time>2021-09-11T06:04:54.563Z</time>
      </trkpt>
      <trkpt lat="42.73069" lon="42.03779">
        <ele>379.3</ele>
        <time>2021-09-11T06:06:57.539Z</time>
      </trkpt>
      <trkpt lat="42.73129" lon="42.03995">
        <ele>387</ele>
        <time>2021-09-11T06:09:08.560Z</time>
      </trkpt>
      <trkpt lat="42.73264" lon="42.04137">
        <ele>397.4</ele>
        <time>2021-09-11T06:11:16.564Z</time>
      </trkpt>
      <trkpt lat="42.73412" lon="42.04264">
        <ele>404.3</ele>
        <time>2021-09-11T06:13:03.544Z</time>
      </trkpt>
      <trkpt lat="42.73554" lon="42.04409">
        <ele>411</ele>
        <time>2021-09-11T06:14:42.557Z</time>
      </trkpt>
      <trkpt lat="42.73704" lon="42.04535">
        <ele>418.4</ele>
        <time>2021-09-11T06:16:34.560Z</time>
      </trkpt>
      <trkpt lat="42.73856" lon="42.04652">
        <ele>425</ele>
        <time>2021-09-11T06:18:32.568Z</time>
      </trkpt>
      <trkpt lat="42.74013" lon="42.04742">
        <ele>435.3</ele>
        <time>2021-09-11T06:20:36.565Z</time>
      </trkpt>
      <trkpt lat="42.7416" lon="42.04867">
        <ele>442.4</ele>
        <time>2021-09-11T06:22:47.563Z</time>
      </trkpt>
      <trkpt lat="42.74322" lon="42.04948">
        <ele>448.3</ele>
        <time>2021-09-11T06:24:42.579Z</time>
      </trkpt>
      <trkpt lat="42.74485" lon="42.05014">
        <ele>457.4</ele>
        <time>2021-09-11T06:26:44.565Z</time>
      </trkpt>
      <trkpt lat="42.74656" lon="42.04985">
        <ele>468.3</ele>
        <time>2021-09-11T06:28:53.557Z</time>
      </trkpt>
      <trkpt lat="42.74825" lon="42.04928">
        <ele>475.7</ele>
        <time>2021-09-11T06:30:59.565Z</time>
      </trkpt>
      <trkpt lat="42.74997" lon="42.04899">
        <ele>487.9</ele>
        <time>2021-09-11T06:33:12.572Z</time>
      </trkpt>
      <trkpt lat="42.75122" lon="42.04751">
        <ele>494.9</ele>
        <time>2021-09-11T06:34:56.553Z</time>
      </trkpt>
      <trkpt lat="42.75237" lon="42.04553">
        <ele>498.9</ele>
        <time>2021-09-11T06:36:06.579Z</time>
      </trkpt>
      <trkpt lat="42.75385" lon="42.04431">
        <ele>509.7</ele>
        <time>2021-09-11T06:37:51.575Z</time>
      </trkpt>
      <trkpt lat="42.7554" lon="42.0436">
        <ele>517.6</ele>
        <time>2021-09-11T06:40:29.574Z</time>
      </trkpt>
      <trkpt lat="42.75631" lon="42.04377">
        <ele>516</ele>
        <time>2021-09-11T06:57:59.604Z</time>
      </trkpt>
      <trkpt lat="42.75766" lon="42.04498">
        <ele>524.2</ele>
        <time>2021-09-11T06:59:58.560Z</time>
      </trkpt>
      <trkpt lat="42.75928" lon="42.04567">
        <ele>539.5</ele>
        <time>2021-09-11T07:02:36.565Z</time>
      </trkpt>
      <trkpt lat="42.76076" lon="42.04659">
        <ele>555</ele>
        <time>2021-09-11T07:05:10.554Z</time>
      </trkpt>
      <trkpt lat="42.76193" lon="42.04816">
        <ele>568.3</ele>
        <time>2021-09-11T07:07:36.565Z</time>
      </trkpt>
      <trkpt lat="42.76303" lon="42.04953">
        <ele>535.5</ele>
        <time>2021-09-11T07:09:56.282Z</time>
      </trkpt>
      <trkpt lat="42.76524" lon="42.04915">
        <ele>587.3</ele>
        <time>2021-09-11T07:11:42.923Z</time>
      </trkpt>
      <trkpt lat="42.76663" lon="42.05459">
        <ele>579.2</ele>
        <time>2021-09-11T07:14:44.104Z</time>
      </trkpt>
      <trkpt lat="42.76805" lon="42.0547">
        <ele>666.8</ele>
        <time>2021-09-11T07:16:05.066Z</time>
      </trkpt>
      <trkpt lat="42.76913" lon="42.05602">
        <ele>644.2</ele>
        <time>2021-09-11T07:17:16.891Z</time>
      </trkpt>
      <trkpt lat="42.77231" lon="42.05585">
        <ele>731.2</ele>
        <time>2021-09-11T07:19:40.966Z</time>
      </trkpt>
      <trkpt lat="42.77544" lon="42.05328">
        <ele>619.9</ele>
        <time>2021-09-11T07:22:25.152Z</time>
      </trkpt>
      <trkpt lat="42.77734" lon="42.05583">
        <ele>702.9</ele>
        <time>2021-09-11T07:24:29.129Z</time>
      </trkpt>
      <trkpt lat="42.78139" lon="42.05576">
        <ele>716</ele>
        <time>2021-09-11T07:27:22.923Z</time>
      </trkpt>
      <trkpt lat="42.78274" lon="42.05684">
        <ele>741.2</ele>
        <time>2021-09-11T07:28:22.482Z</time>
      </trkpt>
      <trkpt lat="42.78457" lon="42.05634">
        <ele>741.1</ele>
        <time>2021-09-11T07:29:06.488Z</time>
      </trkpt>
      <trkpt lat="42.78631" lon="42.05606">
        <ele>735.6</ele>
        <time>2021-09-11T07:29:42.485Z</time>
      </trkpt>
      <trkpt lat="42.78788" lon="42.05471">
        <ele>731.6</ele>
        <time>2021-09-11T07:30:37.502Z</time>
      </trkpt>
      <trkpt lat="42.7885" lon="42.05208">
        <ele>722.1</ele>
        <time>2021-09-11T07:33:48.471Z</time>
      </trkpt>
      <trkpt lat="42.78718" lon="42.05053">
        <ele>717</ele>
        <time>2021-09-11T07:34:28.485Z</time>
      </trkpt>
      <trkpt lat="42.78728" lon="42.04795">
        <ele>720.7</ele>
        <time>2021-09-11T07:35:18.481Z</time>
      </trkpt>
      <trkpt lat="42.78843" lon="42.04597">
        <ele>706.1</ele>
        <time>2021-09-11T07:35:59.495Z</time>
      </trkpt>
      <trkpt lat="42.79017" lon="42.04533">
        <ele>695.2</ele>
        <time>2021-09-11T07:36:45.518Z</time>
      </trkpt>
      <trkpt lat="42.79186" lon="42.04446">
        <ele>687.6</ele>
        <time>2021-09-11T07:37:28.480Z</time>
      </trkpt>
      <trkpt lat="42.79334" lon="42.04242">
        <ele>678.3</ele>
        <time>2021-09-11T07:38:09.490Z</time>
      </trkpt>
      <trkpt lat="42.7953" lon="42.04276">
        <ele>670.2</ele>
        <time>2021-09-11T07:38:48.485Z</time>
      </trkpt>
      <trkpt lat="42.79704" lon="42.04148">
        <ele>658.3</ele>
        <time>2021-09-11T07:39:26.489Z</time>
      </trkpt>
      <trkpt lat="42.79874" lon="42.04057">
        <ele>639.8</ele>
        <time>2021-09-11T07:40:02.487Z</time>
      </trkpt>
      <trkpt lat="42.80038" lon="42.04169">
        <ele>619.8</ele>
        <time>2021-09-11T07:40:45.484Z</time>
      </trkpt>
      <trkpt lat="42.80187" lon="42.04276">
        <ele>606.7</ele>
        <time>2021-09-11T07:41:33.502Z</time>
      </trkpt>
      <trkpt lat="42.80342" lon="42.04429">
        <ele>603.4</ele>
        <time>2021-09-11T07:45:24.502Z</time>
      </trkpt>
      <trkpt lat="42.80509" lon="42.04372">
        <ele>608.1</ele>
        <time>2021-09-11T07:46:36.487Z</time>
      </trkpt>
      <trkpt lat="42.80679" lon="42.04262">
        <ele>611.1</ele>
        <time>2021-09-11T07:47:26.493Z</time>
      </trkpt>
      <trkpt lat="42.8085" lon="42.04368">
        <ele>599.2</ele>
        <time>2021-09-11T07:48:36.502Z</time>
      </trkpt>
      <trkpt lat="42.81056" lon="42.04438">
        <ele>615.8</ele>
        <time>2021-09-11T07:57:55.299Z</time>
      </trkpt>
      <trkpt lat="42.81026" lon="42.04196">
        <ele>617.5</ele>
        <time>2021-09-11T07:59:05.227Z</time>
      </trkpt>
      <trkpt lat="42.80982" lon="42.03969">
        <ele>617.8</ele>
        <time>2021-09-11T08:00:41.253Z</time>
      </trkpt>
      <trkpt lat="42.81007" lon="42.03768">
        <ele>625</ele>
        <time>2021-09-11T08:02:41.252Z</time>
      </trkpt>
      <trkpt lat="42.8114" lon="42.03617">
        <ele>632.4</ele>
        <time>2021-09-11T08:04:35.271Z</time>
      </trkpt>
      <trkpt lat="42.81288" lon="42.03482">
        <ele>638.1</ele>
        <time>2021-09-11T08:06:01.247Z</time>
      </trkpt>
      <trkpt lat="42.81406" lon="42.03315">
        <ele>644.8</ele>
        <time>2021-09-11T08:07:15.241Z</time>
      </trkpt>
      <trkpt lat="42.81516" lon="42.03166">
        <ele>640.7</ele>
        <time>2021-09-11T08:08:17.226Z</time>
      </trkpt>
      <trkpt lat="42.81712" lon="42.03139">
        <ele>625</ele>
        <time>2021-09-11T08:08:54.240Z</time>
      </trkpt>
      <trkpt lat="42.81826" lon="42.02883">
        <ele>612.5</ele>
        <time>2021-09-11T08:09:30.241Z</time>
      </trkpt>
      <trkpt lat="42.81992" lon="42.02748">
        <ele>606.4</ele>
        <time>2021-09-11T08:10:06.243Z</time>
      </trkpt>
      <trkpt lat="42.82173" lon="42.02702">
        <ele>603.7</ele>
        <time>2021-09-11T08:11:07.282Z</time>
      </trkpt>
      <trkpt lat="42.8234" lon="42.02589">
        <ele>602.4</ele>
        <time>2021-09-11T08:11:50.254Z</time>
      </trkpt>
      <trkpt lat="42.8248" lon="42.02699">
        <ele>600</ele>
        <time>2021-09-11T08:12:26.240Z</time>
      </trkpt>
      <trkpt lat="42.82643" lon="42.02804">
        <ele>599.3</ele>
        <time>2021-09-11T08:13:26.229Z</time>
      </trkpt>
      <trkpt lat="42.82759" lon="42.02762">
        <ele>607.4</ele>
        <time>2021-09-11T08:14:53.240Z</time>
      </trkpt>
      <trkpt lat="42.82711" lon="42.02539">
        <ele>614.3</ele>
        <time>2021-09-11T08:16:33.271Z</time>
      </trkpt>
      <trkpt lat="42.82828" lon="42.02373">
        <ele>614.5</ele>
        <time>2021-09-11T08:18:14.249Z</time>
      </trkpt>
      <trkpt lat="42.82989" lon="42.02247">
        <ele>615.3</ele>
        <time>2021-09-11T08:19:30.248Z</time>
      </trkpt>
      <trkpt lat="42.83127" lon="42.02209">
        <ele>612.1</ele>
        <time>2021-09-11T08:20:32.248Z</time>
      </trkpt>
      <trkpt lat="42.8325" lon="42.02404">
        <ele>620.2</ele>
        <time>2021-09-11T08:21:34.247Z</time>
      </trkpt>
      <trkpt lat="42.83388" lon="42.02303">
        <ele>621.4</ele>
        <time>2021-09-11T08:22:32.264Z</time>
      </trkpt>
      <trkpt lat="42.83524" lon="42.02096">
        <ele>614.9</ele>
        <time>2021-09-11T08:31:33.242Z</time>
      </trkpt>
      <trkpt lat="42.83673" lon="42.01946">
        <ele>605.5</ele>
        <time>2021-09-11T08:32:24.260Z</time>
      </trkpt>
      <trkpt lat="42.83837" lon="42.01821">
        <ele>600.5</ele>
        <time>2021-09-11T08:33:04.236Z</time>
      </trkpt>
      <trkpt lat="42.84003" lon="42.01724">
        <ele>596.3</ele>
        <time>2021-09-11T08:33:40.254Z</time>
      </trkpt>
      <trkpt lat="42.84437" lon="42.01854">
        <ele>606.7</ele>
        <time>2021-09-11T08:37:08.253Z</time>
      </trkpt>
      <trkpt lat="42.84579" lon="42.01997">
        <ele>608.7</ele>
        <time>2021-09-11T08:38:26.275Z</time>
      </trkpt>
      <trkpt lat="42.84728" lon="42.02103">
        <ele>614</ele>
        <time>2021-09-11T08:39:46.245Z</time>
      </trkpt>
      <trkpt lat="42.84883" lon="42.02098">
        <ele>613.3</ele>
        <time>2021-09-11T08:40:38.250Z</time>
      </trkpt>
      <trkpt lat="42.8509" lon="42.02105">
        <ele>601.1</ele>
        <time>2021-09-11T08:41:14.284Z</time>
      </trkpt>
      <trkpt lat="42.85302" lon="42.02191">
        <ele>585.6</ele>
        <time>2021-09-11T08:41:50.230Z</time>
      </trkpt>
      <trkpt lat="42.85504" lon="42.02329">
        <ele>572.1</ele>
        <time>2021-09-11T08:42:26.243Z</time>
      </trkpt>
      <trkpt lat="42.85617" lon="42.02535">
        <ele>583.6</ele>
        <time>2021-09-11T08:43:33.255Z</time>
      </trkpt>
      <trkpt lat="42.8576" lon="42.02664">
        <ele>606.6</ele>
        <time>2021-09-11T08:45:48.244Z</time>
      </trkpt>
      <trkpt lat="42.85928" lon="42.02631">
        <ele>608.5</ele>
        <time>2021-09-11T08:47:05.283Z</time>
      </trkpt>
      <trkpt lat="42.86041" lon="42.02857">
        <ele>601.4</ele>
        <time>2021-09-11T08:47:47.249Z</time>
      </trkpt>
      <trkpt lat="42.86201" lon="42.02961">
        <ele>605.4</ele>
        <time>2021-09-11T08:49:12.238Z</time>
      </trkpt>
      <trkpt lat="42.86237" lon="42.03124">
        <ele>616.5</ele>
        <time>2021-09-11T08:50:52.237Z</time>
      </trkpt>
      <trkpt lat="42.86221" lon="42.0332">
        <ele>620.2</ele>
        <time>2021-09-11T08:52:50.239Z</time>
      </trkpt>
      <trkpt lat="42.86045" lon="42.03272">
        <ele>619.3</ele>
        <time>2021-09-11T08:54:13.235Z</time>
      </trkpt>
      <trkpt lat="42.8588" lon="42.03272">
        <ele>619.7</ele>
        <time>2021-09-11T08:54:56.265Z</time>
      </trkpt>
      <trkpt lat="42.85951" lon="42.03358">
        <ele>613.8</ele>
        <time>2021-09-11T08:56:13.231Z</time>
      </trkpt>
      <trkpt lat="42.86113" lon="42.03455">
        <ele>608.8</ele>
        <time>2021-09-11T08:57:19.249Z</time>
      </trkpt>
      <trkpt lat="42.86273" lon="42.03544">
        <ele>611.1</ele>
        <time>2021-09-11T08:58:42.230Z</time>
      </trkpt>
      <trkpt lat="42.86451" lon="42.03579">
        <ele>619.8</ele>
        <time>2021-09-11T09:00:02.253Z</time>
      </trkpt>
      <trkpt lat="42.86478" lon="42.03366">
        <ele>617.6</ele>
        <time>2021-09-11T09:01:45.239Z</time>
      </trkpt>
      <trkpt lat="42.86561" lon="42.03191">
        <ele>608.7</ele>
        <time>2021-09-11T09:02:49.239Z</time>
      </trkpt>
      <trkpt lat="42.86727" lon="42.03252">
        <ele>619.3</ele>
        <time>2021-09-11T09:03:54.240Z</time>
      </trkpt>
      <trkpt lat="42.86941" lon="42.03137">
        <ele>607.9</ele>
        <time>2021-09-11T09:04:30.283Z</time>
      </trkpt>
      <trkpt lat="42.87132" lon="42.03191">
        <ele>592.3</ele>
        <time>2021-09-11T09:05:06.237Z</time>
      </trkpt>
      <trkpt lat="42.8729" lon="42.0304">
        <ele>584.4</ele>
        <time>2021-09-11T09:06:03.262Z</time>
      </trkpt>
      <trkpt lat="42.87503" lon="42.0307">
        <ele>581.3</ele>
        <time>2021-09-11T09:06:39.238Z</time>
      </trkpt>
      <trkpt lat="42.87732" lon="42.03194">
        <ele>585.8</ele>
        <time>2021-09-11T09:07:25.238Z</time>
      </trkpt>
      <trkpt lat="42.87885" lon="42.03304">
        <ele>597.8</ele>
        <time>2021-09-11T09:09:33.245Z</time>
      </trkpt>
      <trkpt lat="42.88015" lon="42.03469">
        <ele>603.3</ele>
        <time>2021-09-11T09:10:42.245Z</time>
      </trkpt>
      <trkpt lat="42.88208" lon="42.03612">
        <ele>594.7</ele>
        <time>2021-09-11T09:11:14.274Z</time>
      </trkpt>
      <trkpt lat="42.88246" lon="42.0406">
        <ele>575.6</ele>
        <time>2021-09-11T09:12:18.282Z</time>
      </trkpt>
      <trkpt lat="42.88539" lon="42.04152">
        <ele>580.3</ele>
        <time>2021-09-11T09:14:35.266Z</time>
      </trkpt>
      <trkpt lat="42.88777" lon="42.04164">
        <ele>588.7</ele>
        <time>2021-09-11T09:16:47.235Z</time>
      </trkpt>
      <trkpt lat="42.8896" lon="42.04103">
        <ele>593.9</ele>
        <time>2021-09-11T09:17:56.255Z</time>
      </trkpt>
      <trkpt lat="42.89151" lon="42.04078">
        <ele>590.2</ele>
        <time>2021-09-11T09:19:03.239Z</time>
      </trkpt>
      <trkpt lat="42.89336" lon="42.04201">
        <ele>581.4</ele>
        <time>2021-09-11T09:19:48.240Z</time>
      </trkpt>
      <trkpt lat="42.89515" lon="42.0429">
        <ele>576.6</ele>
        <time>2021-09-11T09:20:24.248Z</time>
      </trkpt>
      <trkpt lat="42.89685" lon="42.045">
        <ele>570</ele>
        <time>2021-09-11T09:21:00.279Z</time>
      </trkpt>
      <trkpt lat="42.89817" lon="42.04725">
        <ele>572.7</ele>
        <time>2021-09-11T09:22:07.250Z</time>
      </trkpt>
      <trkpt lat="42.89957" lon="42.04818">
        <ele>585.7</ele>
        <time>2021-09-11T09:24:25.249Z</time>
      </trkpt>
      <trkpt lat="42.90058" lon="42.05033">
        <ele>589.9</ele>
        <time>2021-09-11T09:25:25.257Z</time>
      </trkpt>
      <trkpt lat="42.90103" lon="42.05347">
        <ele>579.1</ele>
        <time>2021-09-11T09:26:01.250Z</time>
      </trkpt>
      <trkpt lat="42.9021" lon="42.05632">
        <ele>566.6</ele>
        <time>2021-09-11T09:26:37.248Z</time>
      </trkpt>
      <trkpt lat="42.90322" lon="42.05723">
        <ele>559.6</ele>
        <time>2021-09-11T09:27:23.254Z</time>
      </trkpt>
      <trkpt lat="42.90925" lon="42.06065">
        <ele>572.8</ele>
        <time>2021-09-11T09:30:26.252Z</time>
      </trkpt>
      <trkpt lat="42.91065" lon="42.06198">
        <ele>576.4</ele>
        <time>2021-09-11T09:31:42.283Z</time>
      </trkpt>
      <trkpt lat="42.91107" lon="42.06501">
        <ele>583</ele>
        <time>2021-09-11T09:32:16.234Z</time>
      </trkpt>
      <trkpt lat="42.91133" lon="42.06734">
        <ele>589.1</ele>
        <time>2021-09-11T09:33:58.251Z</time>
      </trkpt>
      <trkpt lat="42.91151" lon="42.0697">
        <ele>597.1</ele>
        <time>2021-09-11T09:35:53.278Z</time>
      </trkpt>
      <trkpt lat="42.9122" lon="42.07181">
        <ele>594.5</ele>
        <time>2021-09-11T09:37:16.251Z</time>
      </trkpt>
      <trkpt lat="42.91378" lon="42.07543">
        <ele>591.1</ele>
        <time>2021-09-11T09:38:30.247Z</time>
      </trkpt>
      <trkpt lat="42.91514" lon="42.07829">
        <ele>573.4</ele>
        <time>2021-09-11T09:39:01.259Z</time>
      </trkpt>
      <trkpt lat="42.91672" lon="42.08081">
        <ele>553.3</ele>
        <time>2021-09-11T09:39:38.260Z</time>
      </trkpt>
      <trkpt lat="42.91845" lon="42.08248">
        <ele>543.1</ele>
        <time>2021-09-11T09:40:13.247Z</time>
      </trkpt>
      <trkpt lat="42.91954" lon="42.08249">
        <ele>550.4</ele>
        <time>2021-09-11T09:41:49.246Z</time>
      </trkpt>
      <trkpt lat="42.92094" lon="42.08303">
        <ele>559.7</ele>
        <time>2021-09-11T09:43:42.278Z</time>
      </trkpt>
      <trkpt lat="42.92164" lon="42.08524">
        <ele>563.8</ele>
        <time>2021-09-11T09:45:02.261Z</time>
      </trkpt>
      <trkpt lat="42.92224" lon="42.08756">
        <ele>568.1</ele>
        <time>2021-09-11T09:46:00.263Z</time>
      </trkpt>
      <trkpt lat="42.92281" lon="42.08973">
        <ele>577.6</ele>
        <time>2021-09-11T09:47:25.249Z</time>
      </trkpt>
      <trkpt lat="42.92343" lon="42.09219">
        <ele>580.3</ele>
        <time>2021-09-11T09:48:52.252Z</time>
      </trkpt>
      <trkpt lat="42.92445" lon="42.09527">
        <ele>578.1</ele>
        <time>2021-09-11T09:49:28.280Z</time>
      </trkpt>
      <trkpt lat="42.9257" lon="42.09734">
        <ele>562.9</ele>
        <time>2021-09-11T09:49:49.234Z</time>
      </trkpt>
      <trkpt lat="42.92713" lon="42.09899">
        <ele>553.9</ele>
        <time>2021-09-11T09:51:05.233Z</time>
      </trkpt>
      <trkpt lat="42.92782" lon="42.10121">
        <ele>564.9</ele>
        <time>2021-09-11T09:52:19.238Z</time>
      </trkpt>
      <trkpt lat="42.92907" lon="42.10322">
        <ele>550.6</ele>
        <time>2021-09-11T09:52:55.283Z</time>
      </trkpt>
      <trkpt lat="42.9308" lon="42.10556">
        <ele>535.8</ele>
        <time>2021-09-11T09:53:31.255Z</time>
      </trkpt>
      <trkpt lat="42.93153" lon="42.108">
        <ele>541.5</ele>
        <time>2021-09-11T09:54:16.236Z</time>
      </trkpt>
      <trkpt lat="42.93138" lon="42.11069">
        <ele>548.4</ele>
        <time>2021-09-11T09:55:10.229Z</time>
      </trkpt>
      <trkpt lat="42.93074" lon="42.11311">
        <ele>552.1</ele>
        <time>2021-09-11T09:56:03.250Z</time>
      </trkpt>
      <trkpt lat="42.93029" lon="42.11566">
        <ele>548.1</ele>
        <time>2021-09-11T09:56:48.252Z</time>
      </trkpt>
      <trkpt lat="42.92989" lon="42.11853">
        <ele>550</ele>
        <time>2021-09-11T09:57:26.268Z</time>
      </trkpt>
      <trkpt lat="42.93098" lon="42.12004">
        <ele>548.5</ele>
        <time>2021-09-11T09:59:07.252Z</time>
      </trkpt>
      <trkpt lat="42.93137" lon="42.12217">
        <ele>557</ele>
        <time>2021-09-11T10:05:40.250Z</time>
      </trkpt>
      <trkpt lat="42.93123" lon="42.12462">
        <ele>559.2</ele>
        <time>2021-09-11T10:06:54.235Z</time>
      </trkpt>
      <trkpt lat="42.93172" lon="42.12717">
        <ele>549.2</ele>
        <time>2021-09-11T10:07:44.261Z</time>
      </trkpt>
      <trkpt lat="42.93293" lon="42.1299">
        <ele>542.8</ele>
        <time>2021-09-11T10:08:20.236Z</time>
      </trkpt>
      <trkpt lat="42.93431" lon="42.1318">
        <ele>546.2</ele>
        <time>2021-09-11T10:09:15.248Z</time>
      </trkpt>
      <trkpt lat="42.93459" lon="42.13437">
        <ele>552.9</ele>
        <time>2021-09-11T10:10:27.258Z</time>
      </trkpt>
      <trkpt lat="42.93497" lon="42.13698">
        <ele>554.4</ele>
        <time>2021-09-11T10:11:19.266Z</time>
      </trkpt>
      <trkpt lat="42.93605" lon="42.13932">
        <ele>550.9</ele>
        <time>2021-09-11T10:12:06.294Z</time>
      </trkpt>
      <trkpt lat="42.93614" lon="42.14202">
        <ele>552.7</ele>
        <time>2021-09-11T10:12:59.250Z</time>
      </trkpt>
      <trkpt lat="42.9354" lon="42.14459">
        <ele>554.3</ele>
        <time>2021-09-11T10:13:46.245Z</time>
      </trkpt>
      <trkpt lat="42.93544" lon="42.14717">
        <ele>553.9</ele>
        <time>2021-09-11T10:14:47.250Z</time>
      </trkpt>
      <trkpt lat="42.93639" lon="42.14915">
        <ele>554.1</ele>
        <time>2021-09-11T10:16:01.252Z</time>
      </trkpt>
      <trkpt lat="42.93749" lon="42.15105">
        <ele>556.4</ele>
        <time>2021-09-11T10:17:25.253Z</time>
      </trkpt>
      <trkpt lat="42.93787" lon="42.15357">
        <ele>557</ele>
        <time>2021-09-11T10:23:23.250Z</time>
      </trkpt>
      <trkpt lat="42.93787" lon="42.1561">
        <ele>562.5</ele>
        <time>2021-09-11T10:24:23.258Z</time>
      </trkpt>
      <trkpt lat="42.93878" lon="42.15818">
        <ele>570.3</ele>
        <time>2021-09-11T10:25:39.296Z</time>
      </trkpt>
      <trkpt lat="42.93954" lon="42.16058">
        <ele>567.6</ele>
        <time>2021-09-11T10:26:41.267Z</time>
      </trkpt>
      <trkpt lat="42.93987" lon="42.16316">
        <ele>567.8</ele>
        <time>2021-09-11T10:27:37.250Z</time>
      </trkpt>
      <trkpt lat="42.94017" lon="42.16572">
        <ele>572.9</ele>
        <time>2021-09-11T10:28:37.250Z</time>
      </trkpt>
      <trkpt lat="42.94011" lon="42.16835">
        <ele>579.7</ele>
        <time>2021-09-11T10:29:32.258Z</time>
      </trkpt>
      <trkpt lat="42.94107" lon="42.17036">
        <ele>582.4</ele>
        <time>2021-09-11T10:31:17.237Z</time>
      </trkpt>
      <trkpt lat="42.94257" lon="42.17171">
        <ele>582.8</ele>
        <time>2021-09-11T10:33:03.256Z</time>
      </trkpt>
      <trkpt lat="42.94368" lon="42.17358">
        <ele>580.5</ele>
        <time>2021-09-11T10:33:53.253Z</time>
      </trkpt>
      <trkpt lat="42.94438" lon="42.17604">
        <ele>585.4</ele>
        <time>2021-09-11T10:34:51.258Z</time>
      </trkpt>
      <trkpt lat="42.94433" lon="42.17875">
        <ele>581.6</ele>
        <time>2021-09-11T10:35:37.247Z</time>
      </trkpt>
      <trkpt lat="42.94414" lon="42.18122">
        <ele>586.5</ele>
        <time>2021-09-11T10:36:55.258Z</time>
      </trkpt>
      <trkpt lat="42.94439" lon="42.18364">
        <ele>584.7</ele>
        <time>2021-09-11T10:38:26.259Z</time>
      </trkpt>
      <trkpt lat="42.94429" lon="42.18594">
        <ele>592.6</ele>
        <time>2021-09-11T10:55:24.919Z</time>
      </trkpt>
      <trkpt lat="42.94577" lon="42.18628">
        <ele>600.9</ele>
        <time>2021-09-11T10:57:29.963Z</time>
      </trkpt>
      <trkpt lat="42.9459" lon="42.18866">
        <ele>613.2</ele>
        <time>2021-09-11T10:59:14.907Z</time>
      </trkpt>
      <trkpt lat="42.9456" lon="42.188">
        <ele>634.6</ele>
        <time>2021-09-11T11:01:44.955Z</time>
      </trkpt>
      <trkpt lat="42.94437" lon="42.18795">
        <ele>640.4</ele>
        <time>2021-09-11T11:06:43.928Z</time>
      </trkpt>
      <trkpt lat="42.94261" lon="42.18814">
        <ele>638.6</ele>
        <time>2021-09-11T11:11:24.968Z</time>
      </trkpt>
      <trkpt lat="42.9425" lon="42.18937">
        <ele>638.6</ele>
        <time>2021-09-11T11:24:15.225Z</time>
      </trkpt>
    </trkseg>
  </trk>
  <trk>
    <name><![CDATA[Tour d'Europe: étape 442]]></name>
    <extensions>
      <line xmlns="http://www.topografix.com/GPX/gpx_style/0/2">
        <color>0000FF</color>
        <width>4</width>
      </line>
    </extensions>
    <trkseg>
      <trkpt lat="42.94245" lon="42.18883">
        <ele>644.905131</ele>
        <time>2021-09-13T05:05:04.901Z</time>
      </trkpt>
      <trkpt lat="42.94259" lon="42.1881">
        <ele>644.905131</ele>
        <time>2021-09-13T05:06:06.835Z</time>
      </trkpt>
      <trkpt lat="42.94457" lon="42.18777">
        <ele>649.659673</ele>
        <time>2021-09-13T05:10:10.848Z</time>
      </trkpt>
      <trkpt lat="42.9455" lon="42.18815">
        <ele>639.201151</ele>
        <time>2021-09-13T05:12:11.852Z</time>
      </trkpt>
      <trkpt lat="42.9465" lon="42.19025">
        <ele>623.020757</ele>
        <time>2021-09-13T05:13:46.852Z</time>
      </trkpt>
      <trkpt lat="42.94836" lon="42.19156">
        <ele>608.891116</ele>
        <time>2021-09-13T05:14:27.847Z</time>
      </trkpt>
      <trkpt lat="42.95064" lon="42.19275">
        <ele>602.690095</ele>
        <time>2021-09-13T05:15:03.837Z</time>
      </trkpt>
      <trkpt lat="42.95255" lon="42.19304">
        <ele>611.574529</ele>
        <time>2021-09-13T05:16:04.863Z</time>
      </trkpt>
      <trkpt lat="42.95439" lon="42.19304">
        <ele>623.174342</ele>
        <time>2021-09-13T05:17:23.847Z</time>
      </trkpt>
      <trkpt lat="42.95641" lon="42.19357">
        <ele>622.726602</ele>
        <time>2021-09-13T05:18:42.854Z</time>
      </trkpt>
      <trkpt lat="42.95802" lon="42.19512">
        <ele>617.790709</ele>
        <time>2021-09-13T05:20:02.911Z</time>
      </trkpt>
      <trkpt lat="42.95976" lon="42.19611">
        <ele>620.684157</ele>
        <time>2021-09-13T05:21:03.847Z</time>
      </trkpt>
      <trkpt lat="42.96111" lon="42.19753">
        <ele>635.006985</ele>
        <time>2021-09-13T05:23:42.866Z</time>
      </trkpt>
      <trkpt lat="42.96256" lon="42.19903">
        <ele>649.131558</ele>
        <time>2021-09-13T05:25:11.853Z</time>
      </trkpt>
      <trkpt lat="42.96355" lon="42.20127">
        <ele>655.573154</ele>
        <time>2021-09-13T05:27:02.858Z</time>
      </trkpt>
      <trkpt lat="42.9646" lon="42.2033">
        <ele>669.076578</ele>
        <time>2021-09-13T05:29:17.852Z</time>
      </trkpt>
      <trkpt lat="42.96604" lon="42.20437">
        <ele>676.734594</ele>
        <time>2021-09-13T05:31:17.844Z</time>
      </trkpt>
      <trkpt lat="42.96852" lon="42.20646">
        <ele>693.101028</ele>
        <time>2021-09-13T05:34:17.869Z</time>
      </trkpt>
      <trkpt lat="42.9701" lon="42.20762">
        <ele>704.931034</ele>
        <time>2021-09-13T05:35:57.876Z</time>
      </trkpt>
      <trkpt lat="42.97141" lon="42.20911">
        <ele>718.020101</ele>
        <time>2021-09-13T05:38:02.863Z</time>
      </trkpt>
      <trkpt lat="42.97246" lon="42.21123">
        <ele>720.232978</ele>
        <time>2021-09-13T05:39:38.863Z</time>
      </trkpt>
      <trkpt lat="42.97344" lon="42.21331">
        <ele>733.728431</ele>
        <time>2021-09-13T05:41:49.841Z</time>
      </trkpt>
      <trkpt lat="42.97466" lon="42.21523">
        <ele>752.073009</ele>
        <time>2021-09-13T05:44:15.870Z</time>
      </trkpt>
      <trkpt lat="42.97474" lon="42.21769">
        <ele>765.053947</ele>
        <time>2021-09-13T05:46:26.869Z</time>
      </trkpt>
      <trkpt lat="42.97558" lon="42.21939">
        <ele>764.095376</ele>
        <time>2021-09-13T05:47:59.862Z</time>
      </trkpt>
      <trkpt lat="42.97719" lon="42.22136">
        <ele>749.850121</ele>
        <time>2021-09-13T05:48:40.879Z</time>
      </trkpt>
      <trkpt lat="42.97919" lon="42.22243">
        <ele>737.160925</ele>
        <time>2021-09-13T05:49:20.856Z</time>
      </trkpt>
      <trkpt lat="42.98041" lon="42.22494">
        <ele>739.859457</ele>
        <time>2021-09-13T05:50:15.866Z</time>
      </trkpt>
      <trkpt lat="42.98096" lon="42.22746">
        <ele>746.547549</ele>
        <time>2021-09-13T05:51:25.772Z</time>
      </trkpt>
      <trkpt lat="42.98144" lon="42.22993">
        <ele>758.254677</ele>
        <time>2021-09-13T05:53:02.777Z</time>
      </trkpt>
      <trkpt lat="42.98234" lon="42.23247">
        <ele>762.677582</ele>
        <time>2021-09-13T05:54:31.779Z</time>
      </trkpt>
      <trkpt lat="42.98357" lon="42.23698">
        <ele>750.394377</ele>
        <time>2021-09-13T05:56:23.790Z</time>
      </trkpt>
      <trkpt lat="42.98437" lon="42.23977">
        <ele>748.589664</ele>
        <time>2021-09-13T05:57:12.780Z</time>
      </trkpt>
      <trkpt lat="42.98485" lon="42.24224">
        <ele>756.151785</ele>
        <time>2021-09-13T05:58:40.764Z</time>
      </trkpt>
      <trkpt lat="42.98597" lon="42.24452">
        <ele>755.180857</ele>
        <time>2021-09-13T05:59:46.771Z</time>
      </trkpt>
      <trkpt lat="42.98713" lon="42.24678">
        <ele>763.906426</ele>
        <time>2021-09-13T06:01:04.784Z</time>
      </trkpt>
      <trkpt lat="42.98787" lon="42.24917">
        <ele>773.620089</ele>
        <time>2021-09-13T06:02:25.791Z</time>
      </trkpt>
      <trkpt lat="42.98794" lon="42.25204">
        <ele>767.3648</ele>
        <time>2021-09-13T06:03:18.761Z</time>
      </trkpt>
      <trkpt lat="42.98714" lon="42.25497">
        <ele>761.908307</ele>
        <time>2021-09-13T06:03:58.805Z</time>
      </trkpt>
      <trkpt lat="42.98622" lon="42.25718">
        <ele>759.328057</ele>
        <time>2021-09-13T06:05:30.774Z</time>
      </trkpt>
      <trkpt lat="42.98732" lon="42.25938">
        <ele>762.616896</ele>
        <time>2021-09-13T06:06:24.788Z</time>
      </trkpt>
      <trkpt lat="42.98771" lon="42.26216">
        <ele>764.664416</ele>
        <time>2021-09-13T06:07:29.765Z</time>
      </trkpt>
      <trkpt lat="42.98826" lon="42.26436">
        <ele>769.166755</ele>
        <time>2021-09-13T06:08:53.775Z</time>
      </trkpt>
      <trkpt lat="42.9902" lon="42.26447">
        <ele>782.126591</ele>
        <time>2021-09-13T06:10:40.776Z</time>
      </trkpt>
      <trkpt lat="42.99165" lon="42.26614">
        <ele>777.743118</ele>
        <time>2021-09-13T06:12:16.772Z</time>
      </trkpt>
      <trkpt lat="42.99299" lon="42.26766">
        <ele>778.114496</ele>
        <time>2021-09-13T06:13:41.814Z</time>
      </trkpt>
      <trkpt lat="42.99489" lon="42.26686">
        <ele>786.210321</ele>
        <time>2021-09-13T06:15:29.777Z</time>
      </trkpt>
      <trkpt lat="42.99666" lon="42.26776">
        <ele>791.387113</ele>
        <time>2021-09-13T06:17:05.781Z</time>
      </trkpt>
      <trkpt lat="42.99747" lon="42.27005">
        <ele>801.8238</ele>
        <time>2021-09-13T06:18:55.767Z</time>
      </trkpt>
      <trkpt lat="42.99702" lon="42.27262">
        <ele>805.370386</ele>
        <time>2021-09-13T06:20:20.760Z</time>
      </trkpt>
      <trkpt lat="42.99777" lon="42.27494">
        <ele>793.44232</ele>
        <time>2021-09-13T06:21:02.783Z</time>
      </trkpt>
      <trkpt lat="42.99968" lon="42.2768">
        <ele>787.995907</ele>
        <time>2021-09-13T06:21:44.808Z</time>
      </trkpt>
      <trkpt lat="43.00083" lon="42.27875">
        <ele>799.710999</ele>
        <time>2021-09-13T06:23:37.784Z</time>
      </trkpt>
      <trkpt lat="43.00241" lon="42.28012">
        <ele>805.834917</ele>
        <time>2021-09-13T06:25:25.785Z</time>
      </trkpt>
      <trkpt lat="43.00402" lon="42.28171">
        <ele>813.744945</ele>
        <time>2021-09-13T06:27:17.774Z</time>
      </trkpt>
      <trkpt lat="43.00565" lon="42.28302">
        <ele>820.26576</ele>
        <time>2021-09-13T06:29:05.781Z</time>
      </trkpt>
      <trkpt lat="43.00674" lon="42.28526">
        <ele>831.423983</ele>
        <time>2021-09-13T06:30:53.780Z</time>
      </trkpt>
      <trkpt lat="43.00785" lon="42.28735">
        <ele>833.327962</ele>
        <time>2021-09-13T06:32:16.787Z</time>
      </trkpt>
      <trkpt lat="43.00799" lon="42.28985">
        <ele>840.125542</ele>
        <time>2021-09-13T06:34:08.786Z</time>
      </trkpt>
      <trkpt lat="43.00808" lon="42.29199">
        <ele>853.280824</ele>
        <time>2021-09-13T06:36:30.764Z</time>
      </trkpt>
      <trkpt lat="43.00792" lon="42.29281">
        <ele>867.543565</ele>
        <time>2021-09-13T06:38:55.777Z</time>
      </trkpt>
      <trkpt lat="43.00775" lon="42.2951">
        <ele>879.318874</ele>
        <time>2021-09-13T06:40:39.781Z</time>
      </trkpt>
      <trkpt lat="43.0082" lon="42.29777">
        <ele>884.46482</ele>
        <time>2021-09-13T06:41:46.775Z</time>
      </trkpt>
      <trkpt lat="43.00889" lon="42.30018">
        <ele>895.660796</ele>
        <time>2021-09-13T06:43:37.792Z</time>
      </trkpt>
      <trkpt lat="43.00916" lon="42.30275">
        <ele>903.274349</ele>
        <time>2021-09-13T06:45:54.771Z</time>
      </trkpt>
      <trkpt lat="43.00914" lon="42.30548">
        <ele>906.505173</ele>
        <time>2021-09-13T06:47:12.813Z</time>
      </trkpt>
      <trkpt lat="43.01047" lon="42.30734">
        <ele>904.843166</ele>
        <time>2021-09-13T06:48:08.789Z</time>
      </trkpt>
      <trkpt lat="43.0125" lon="42.30802">
        <ele>892.652099</ele>
        <time>2021-09-13T06:49:09.784Z</time>
      </trkpt>
      <trkpt lat="43.01386" lon="42.30996">
        <ele>877.581898</ele>
        <time>2021-09-13T06:50:11.792Z</time>
      </trkpt>
      <trkpt lat="43.01525" lon="42.3118">
        <ele>871.300776</ele>
        <time>2021-09-13T06:51:14.781Z</time>
      </trkpt>
      <trkpt lat="43.01701" lon="42.31329">
        <ele>870.736695</ele>
        <time>2021-09-13T06:52:14.770Z</time>
      </trkpt>
      <trkpt lat="43.01845" lon="42.31514">
        <ele>866.278633</ele>
        <time>2021-09-13T06:53:25.766Z</time>
      </trkpt>
      <trkpt lat="43.01948" lon="42.31783">
        <ele>863.414016</ele>
        <time>2021-09-13T06:54:29.807Z</time>
      </trkpt>
      <trkpt lat="43.02106" lon="42.31899">
        <ele>888.193312</ele>
        <time>2021-09-13T06:56:13.774Z</time>
      </trkpt>
      <trkpt lat="43.02224" lon="42.32118">
        <ele>888.311168</ele>
        <time>2021-09-13T06:57:24.788Z</time>
      </trkpt>
      <trkpt lat="43.02434" lon="42.32132">
        <ele>869.288969</ele>
        <time>2021-09-13T06:58:05.790Z</time>
      </trkpt>
      <trkpt lat="43.02513" lon="42.32359">
        <ele>858.962307</ele>
        <time>2021-09-13T06:58:47.799Z</time>
      </trkpt>
      <trkpt lat="43.02676" lon="42.32854">
        <ele>871.46353</ele>
        <time>2021-09-13T07:01:34.787Z</time>
      </trkpt>
      <trkpt lat="43.0282" lon="42.33007">
        <ele>882.796511</ele>
        <time>2021-09-13T07:03:14.775Z</time>
      </trkpt>
      <trkpt lat="43.02928" lon="42.33215">
        <ele>894.995905</ele>
        <time>2021-09-13T07:05:17.786Z</time>
      </trkpt>
      <trkpt lat="43.0303" lon="42.33451">
        <ele>895.699926</ele>
        <time>2021-09-13T07:06:48.780Z</time>
      </trkpt>
      <trkpt lat="43.03133" lon="42.3375">
        <ele>883.695828</ele>
        <time>2021-09-13T07:07:31.786Z</time>
      </trkpt>
      <trkpt lat="43.03242" lon="42.33972">
        <ele>879.859225</ele>
        <time>2021-09-13T07:08:17.767Z</time>
      </trkpt>
      <trkpt lat="43.03336" lon="42.34266">
        <ele>873.433766</ele>
        <time>2021-09-13T07:09:05.799Z</time>
      </trkpt>
      <trkpt lat="43.03393" lon="42.34487">
        <ele>882.923867</ele>
        <time>2021-09-13T07:10:47.774Z</time>
      </trkpt>
      <trkpt lat="43.03538" lon="42.34622">
        <ele>876.546441</ele>
        <time>2021-09-13T07:12:10.767Z</time>
      </trkpt>
      <trkpt lat="43.03712" lon="42.34711">
        <ele>897.07718</ele>
        <time>2021-09-13T07:13:27.786Z</time>
      </trkpt>
      <trkpt lat="43.03859" lon="42.34867">
        <ele>901.270246</ele>
        <time>2021-09-13T07:14:49.784Z</time>
      </trkpt>
      <trkpt lat="43.0398" lon="42.35082">
        <ele>896.164054</ele>
        <time>2021-09-13T07:16:13.787Z</time>
      </trkpt>
      <trkpt lat="43.04008" lon="42.35371">
        <ele>885.50409</ele>
        <time>2021-09-13T07:17:02.787Z</time>
      </trkpt>
      <trkpt lat="43.04063" lon="42.35609">
        <ele>889.736607</ele>
        <time>2021-09-13T07:18:02.783Z</time>
      </trkpt>
      <trkpt lat="43.04147" lon="42.35861">
        <ele>898.561218</ele>
        <time>2021-09-13T07:19:51.771Z</time>
      </trkpt>
      <trkpt lat="43.04125" lon="42.3613">
        <ele>905.231908</ele>
        <time>2021-09-13T07:21:08.779Z</time>
      </trkpt>
      <trkpt lat="43.04102" lon="42.36397">
        <ele>921.124083</ele>
        <time>2021-09-13T07:23:00.762Z</time>
      </trkpt>
      <trkpt lat="43.04114" lon="42.36643">
        <ele>927.778427</ele>
        <time>2021-09-13T07:25:13.774Z</time>
      </trkpt>
      <trkpt lat="43.04097" lon="42.36891">
        <ele>941.710799</ele>
        <time>2021-09-13T07:27:15.793Z</time>
      </trkpt>
      <trkpt lat="43.04047" lon="42.37167">
        <ele>943.379726</ele>
        <time>2021-09-13T07:28:24.795Z</time>
      </trkpt>
      <trkpt lat="43.04087" lon="42.37452">
        <ele>928.92627</ele>
        <time>2021-09-13T07:29:20.788Z</time>
      </trkpt>
      <trkpt lat="43.0418" lon="42.37693">
        <ele>899.587603</ele>
        <time>2021-09-13T07:30:18.770Z</time>
      </trkpt>
      <trkpt lat="43.04343" lon="42.3784">
        <ele>854.356406</ele>
        <time>2021-09-13T07:31:41.783Z</time>
      </trkpt>
      <trkpt lat="43.04445" lon="42.38059">
        <ele>900.364728</ele>
        <time>2021-09-13T07:32:34.759Z</time>
      </trkpt>
      <trkpt lat="43.0463" lon="42.38095">
        <ele>942.617284</ele>
        <time>2021-09-13T07:34:03.776Z</time>
      </trkpt>
      <trkpt lat="43.04772" lon="42.37988">
        <ele>923.525281</ele>
        <time>2021-09-13T07:35:13.773Z</time>
      </trkpt>
      <trkpt lat="43.04782" lon="42.38207">
        <ele>927.506077</ele>
        <time>2021-09-13T07:37:10.760Z</time>
      </trkpt>
      <trkpt lat="43.04924" lon="42.38397">
        <ele>955.428437</ele>
        <time>2021-09-13T07:39:21.790Z</time>
      </trkpt>
      <trkpt lat="43.05013" lon="42.38617">
        <ele>963.776662</ele>
        <time>2021-09-13T07:41:23.785Z</time>
      </trkpt>
      <trkpt lat="43.05069" lon="42.38865">
        <ele>967.289761</ele>
        <time>2021-09-13T07:43:43.783Z</time>
      </trkpt>
      <trkpt lat="43.05145" lon="42.39094">
        <ele>977.290754</ele>
        <time>2021-09-13T07:45:31.781Z</time>
      </trkpt>
      <trkpt lat="43.05229" lon="42.39326">
        <ele>1000.495951</ele>
        <time>2021-09-13T07:47:31.782Z</time>
      </trkpt>
      <trkpt lat="43.05406" lon="42.39442">
        <ele>1026.485081</ele>
        <time>2021-09-13T07:50:06.757Z</time>
      </trkpt>
      <trkpt lat="43.05518" lon="42.39637">
        <ele>1039.172527</ele>
        <time>2021-09-13T07:52:45.783Z</time>
      </trkpt>
      <trkpt lat="43.05573" lon="42.39863">
        <ele>1050.393292</ele>
        <time>2021-09-13T07:55:17.785Z</time>
      </trkpt>
      <trkpt lat="43.05569" lon="42.40133">
        <ele>1062.595322</ele>
        <time>2021-09-13T07:57:50.782Z</time>
      </trkpt>
      <trkpt lat="43.05663" lon="42.40259">
        <ele>1078.414338</ele>
        <time>2021-09-13T08:00:11.772Z</time>
      </trkpt>
      <trkpt lat="43.05822" lon="42.40402">
        <ele>1096.710065</ele>
        <time>2021-09-13T08:02:57.775Z</time>
      </trkpt>
      <trkpt lat="43.0597" lon="42.40553">
        <ele>1109.155868</ele>
        <time>2021-09-13T08:05:30.757Z</time>
      </trkpt>
      <trkpt lat="43.06033" lon="42.40806">
        <ele>1100.461854</ele>
        <time>2021-09-13T08:06:57.759Z</time>
      </trkpt>
      <trkpt lat="43.06087" lon="42.41071">
        <ele>1089.539671</ele>
        <time>2021-09-13T08:07:52.766Z</time>
      </trkpt>
      <trkpt lat="43.06127" lon="42.41241">
        <ele>1064.496764</ele>
        <time>2021-09-13T08:35:42.178Z</time>
      </trkpt>
      <trkpt lat="43.05959" lon="42.41302">
        <ele>1099.155934</ele>
        <time>2021-09-13T08:40:55.198Z</time>
      </trkpt>
      <trkpt lat="43.05861" lon="42.41558">
        <ele>1101.099515</ele>
        <time>2021-09-13T08:41:54.198Z</time>
      </trkpt>
      <trkpt lat="43.05717" lon="42.41723">
        <ele>1089.647586</ele>
        <time>2021-09-13T08:42:46.192Z</time>
      </trkpt>
      <trkpt lat="43.05575" lon="42.4183">
        <ele>1073.672548</ele>
        <time>2021-09-13T08:43:33.198Z</time>
      </trkpt>
      <trkpt lat="43.05715" lon="42.42015">
        <ele>1066.176908</ele>
        <time>2021-09-13T08:44:28.202Z</time>
      </trkpt>
      <trkpt lat="43.0567" lon="42.42301">
        <ele>1045.485869</ele>
        <time>2021-09-13T08:45:19.229Z</time>
      </trkpt>
      <trkpt lat="43.05682" lon="42.4258">
        <ele>1038.787686</ele>
        <time>2021-09-13T08:46:16.195Z</time>
      </trkpt>
      <trkpt lat="43.05743" lon="42.42828">
        <ele>1052.953759</ele>
        <time>2021-09-13T08:47:20.197Z</time>
      </trkpt>
      <trkpt lat="43.05615" lon="42.42719">
        <ele>1054.738455</ele>
        <time>2021-09-13T08:49:30.191Z</time>
      </trkpt>
      <trkpt lat="43.05437" lon="42.42787">
        <ele>1077.143091</ele>
        <time>2021-09-13T08:51:52.195Z</time>
      </trkpt>
      <trkpt lat="43.05268" lon="42.42887">
        <ele>1094.393966</ele>
        <time>2021-09-13T08:54:24.196Z</time>
      </trkpt>
      <trkpt lat="43.05168" lon="42.43101">
        <ele>1106.599061</ele>
        <time>2021-09-13T08:57:01.202Z</time>
      </trkpt>
      <trkpt lat="43.05229" lon="42.43284">
        <ele>1114.472548</ele>
        <time>2021-09-13T08:58:53.241Z</time>
      </trkpt>
      <trkpt lat="43.05115" lon="42.43379">
        <ele>1107.389885</ele>
        <time>2021-09-13T08:59:57.198Z</time>
      </trkpt>
      <trkpt lat="43.05132" lon="42.43603">
        <ele>1112.257141</ele>
        <time>2021-09-13T09:01:02.197Z</time>
      </trkpt>
      <trkpt lat="43.05213" lon="42.43883">
        <ele>1111.333803</ele>
        <time>2021-09-13T09:01:41.213Z</time>
      </trkpt>
      <trkpt lat="43.05306" lon="42.44156">
        <ele>1098.837313</ele>
        <time>2021-09-13T09:02:29.204Z</time>
      </trkpt>
      <trkpt lat="43.05172" lon="42.44344">
        <ele>1092.030959</ele>
        <time>2021-09-13T09:03:56.219Z</time>
      </trkpt>
      <trkpt lat="43.05057" lon="42.44534">
        <ele>1094.066916</ele>
        <time>2021-09-13T09:04:46.195Z</time>
      </trkpt>
      <trkpt lat="43.05052" lon="42.44793">
        <ele>1092.767974</ele>
        <time>2021-09-13T09:05:30.198Z</time>
      </trkpt>
      <trkpt lat="43.04952" lon="42.45001">
        <ele>1088.740822</ele>
        <time>2021-09-13T09:06:32.199Z</time>
      </trkpt>
      <trkpt lat="43.04767" lon="42.45102">
        <ele>1090.797612</ele>
        <time>2021-09-13T09:07:45.209Z</time>
      </trkpt>
      <trkpt lat="43.0459" lon="42.45261">
        <ele>1096.247358</ele>
        <time>2021-09-13T09:09:01.190Z</time>
      </trkpt>
      <trkpt lat="43.04557" lon="42.45497">
        <ele>1104.96979</ele>
        <time>2021-09-13T09:11:23.196Z</time>
      </trkpt>
      <trkpt lat="43.04736" lon="42.45602">
        <ele>1109.456966</ele>
        <time>2021-09-13T09:12:41.203Z</time>
      </trkpt>
      <trkpt lat="43.04613" lon="42.45678">
        <ele>1114.640741</ele>
        <time>2021-09-13T09:14:27.200Z</time>
      </trkpt>
      <trkpt lat="43.04639" lon="42.4592">
        <ele>1127.471051</ele>
        <time>2021-09-13T09:17:01.198Z</time>
      </trkpt>
      <trkpt lat="43.04632" lon="42.46195">
        <ele>1137.696274</ele>
        <time>2021-09-13T09:18:32.211Z</time>
      </trkpt>
      <trkpt lat="43.04579" lon="42.46435">
        <ele>1134.895995</ele>
        <time>2021-09-13T09:20:17.222Z</time>
      </trkpt>
      <trkpt lat="43.04676" lon="42.46644">
        <ele>1137.312688</ele>
        <time>2021-09-13T09:21:38.215Z</time>
      </trkpt>
      <trkpt lat="43.0473" lon="42.46885">
        <ele>1144.990411</ele>
        <time>2021-09-13T09:22:50.210Z</time>
      </trkpt>
      <trkpt lat="43.04739" lon="42.47134">
        <ele>1148.247409</ele>
        <time>2021-09-13T09:24:10.201Z</time>
      </trkpt>
      <trkpt lat="43.0482" lon="42.47391">
        <ele>1151.464268</ele>
        <time>2021-09-13T09:25:31.187Z</time>
      </trkpt>
      <trkpt lat="43.04826" lon="42.47631">
        <ele>1149.030137</ele>
        <time>2021-09-13T09:26:52.208Z</time>
      </trkpt>
      <trkpt lat="43.04724" lon="42.47846">
        <ele>1146.575522</ele>
        <time>2021-09-13T09:28:11.201Z</time>
      </trkpt>
      <trkpt lat="43.04558" lon="42.47959">
        <ele>1159.101656</ele>
        <time>2021-09-13T09:29:46.199Z</time>
      </trkpt>
      <trkpt lat="43.0449" lon="42.48092">
        <ele>1175.811485</ele>
        <time>2021-09-13T09:31:52.211Z</time>
      </trkpt>
      <trkpt lat="43.04616" lon="42.48278">
        <ele>1193.293955</ele>
        <time>2021-09-13T09:34:09.198Z</time>
      </trkpt>
      <trkpt lat="43.04641" lon="42.48458">
        <ele>1190.781652</ele>
        <time>2021-09-13T09:35:37.226Z</time>
      </trkpt>
      <trkpt lat="43.04486" lon="42.48312">
        <ele>1199.728509</ele>
        <time>2021-09-13T09:38:04.231Z</time>
      </trkpt>
      <trkpt lat="43.04309" lon="42.4824">
        <ele>1213.391389</ele>
        <time>2021-09-13T09:40:38.211Z</time>
      </trkpt>
      <trkpt lat="43.04352" lon="42.48475">
        <ele>1227.618011</ele>
        <time>2021-09-13T09:43:14.205Z</time>
      </trkpt>
      <trkpt lat="43.04429" lon="42.48695">
        <ele>1249.45723</ele>
        <time>2021-09-13T09:45:55.202Z</time>
      </trkpt>
      <trkpt lat="43.04473" lon="42.48827">
        <ele>1264.88918</ele>
        <time>2021-09-13T09:53:04.195Z</time>
      </trkpt>
      <trkpt lat="43.04384" lon="42.4899">
        <ele>1272.159785</ele>
        <time>2021-09-13T09:55:37.196Z</time>
      </trkpt>
      <trkpt lat="43.04388" lon="42.49241">
        <ele>1290.935772</ele>
        <time>2021-09-13T09:57:53.201Z</time>
      </trkpt>
      <trkpt lat="43.04429" lon="42.49497">
        <ele>1311.139584</ele>
        <time>2021-09-13T10:00:22.237Z</time>
      </trkpt>
      <trkpt lat="43.04525" lon="42.4968">
        <ele>1310.811137</ele>
        <time>2021-09-13T10:02:18.205Z</time>
      </trkpt>
      <trkpt lat="43.04696" lon="42.49826">
        <ele>1303.027348</ele>
        <time>2021-09-13T10:03:26.240Z</time>
      </trkpt>
      <trkpt lat="43.04802" lon="42.50057">
        <ele>1296.06982</ele>
        <time>2021-09-13T10:04:16.203Z</time>
      </trkpt>
      <trkpt lat="43.04785" lon="42.50332">
        <ele>1292.838066</ele>
        <time>2021-09-13T10:05:23.204Z</time>
      </trkpt>
      <trkpt lat="43.04704" lon="42.50387">
        <ele>1306.999918</ele>
        <time>2021-09-13T10:07:16.233Z</time>
      </trkpt>
      <trkpt lat="43.04544" lon="42.5027">
        <ele>1326.179108</ele>
        <time>2021-09-13T10:10:06.207Z</time>
      </trkpt>
      <trkpt lat="43.04453" lon="42.50126">
        <ele>1342.741958</ele>
        <time>2021-09-13T10:13:14.196Z</time>
      </trkpt>
      <trkpt lat="43.04453" lon="42.50369">
        <ele>1359.050778</ele>
        <time>2021-09-13T10:16:16.210Z</time>
      </trkpt>
      <trkpt lat="43.04416" lon="42.50367">
        <ele>1370.201308</ele>
        <time>2021-09-13T10:19:16.200Z</time>
      </trkpt>
      <trkpt lat="43.04297" lon="42.50151">
        <ele>1382.748492</ele>
        <time>2021-09-13T10:33:11.216Z</time>
      </trkpt>
      <trkpt lat="43.04133" lon="42.50242">
        <ele>1391.511636</ele>
        <time>2021-09-13T10:35:24.193Z</time>
      </trkpt>
      <trkpt lat="43.03961" lon="42.50163">
        <ele>1412.000186</ele>
        <time>2021-09-13T10:37:28.184Z</time>
      </trkpt>
      <trkpt lat="43.03854" lon="42.5039">
        <ele>1429.571857</ele>
        <time>2021-09-13T10:45:23.190Z</time>
      </trkpt>
      <trkpt lat="43.03922" lon="42.50624">
        <ele>1447.803249</ele>
        <time>2021-09-13T10:47:39.182Z</time>
      </trkpt>
      <trkpt lat="43.03992" lon="42.50863">
        <ele>1458.421195</ele>
        <time>2021-09-13T10:49:34.197Z</time>
      </trkpt>
      <trkpt lat="43.03996" lon="42.51115">
        <ele>1453.374139</ele>
        <time>2021-09-13T10:51:19.240Z</time>
      </trkpt>
      <trkpt lat="43.03892" lon="42.51332">
        <ele>1453.696064</ele>
        <time>2021-09-13T10:53:00.228Z</time>
      </trkpt>
      <trkpt lat="43.0379" lon="42.51568">
        <ele>1458.37687</ele>
        <time>2021-09-13T10:54:19.188Z</time>
      </trkpt>
      <trkpt lat="43.03782" lon="42.51833">
        <ele>1462.901918</ele>
        <time>2021-09-13T10:55:31.209Z</time>
      </trkpt>
      <trkpt lat="43.03705" lon="42.51987">
        <ele>1463.095669</ele>
        <time>2021-09-13T10:56:55.200Z</time>
      </trkpt>
      <trkpt lat="43.03538" lon="42.52089">
        <ele>1465.358433</ele>
        <time>2021-09-13T10:58:32.186Z</time>
      </trkpt>
      <trkpt lat="43.03368" lon="42.52231">
        <ele>1458.494548</ele>
        <time>2021-09-13T10:59:20.198Z</time>
      </trkpt>
      <trkpt lat="43.03241" lon="42.52442">
        <ele>1451.555806</ele>
        <time>2021-09-13T11:00:06.216Z</time>
      </trkpt>
      <trkpt lat="43.03294" lon="42.5271">
        <ele>1455.575142</ele>
        <time>2021-09-13T11:00:48.196Z</time>
      </trkpt>
      <trkpt lat="43.03303" lon="42.52976">
        <ele>1456.899388</ele>
        <time>2021-09-13T11:02:00.182Z</time>
      </trkpt>
      <trkpt lat="43.03165" lon="42.5308">
        <ele>1459.501362</ele>
        <time>2021-09-13T11:03:46.190Z</time>
      </trkpt>
      <trkpt lat="43.03043" lon="42.53218">
        <ele>1465.599177</ele>
        <time>2021-09-13T11:06:02.191Z</time>
      </trkpt>
      <trkpt lat="43.02892" lon="42.53384">
        <ele>1471.179789</ele>
        <time>2021-09-13T11:10:43.178Z</time>
      </trkpt>
      <trkpt lat="43.02749" lon="42.53565">
        <ele>1497.73476</ele>
        <time>2021-09-13T11:13:23.190Z</time>
      </trkpt>
      <trkpt lat="43.02668" lon="42.53772">
        <ele>1512.171701</ele>
        <time>2021-09-13T11:15:53.192Z</time>
      </trkpt>
      <trkpt lat="43.02677" lon="42.54023">
        <ele>1519.587037</ele>
        <time>2021-09-13T11:17:43.190Z</time>
      </trkpt>
      <trkpt lat="43.02671" lon="42.54275">
        <ele>1525.933472</ele>
        <time>2021-09-13T11:19:13.232Z</time>
      </trkpt>
      <trkpt lat="43.02551" lon="42.5446">
        <ele>1513.148956</ele>
        <time>2021-09-13T11:20:23.198Z</time>
      </trkpt>
      <trkpt lat="43.02352" lon="42.54407">
        <ele>1502.686639</ele>
        <time>2021-09-13T11:21:44.189Z</time>
      </trkpt>
      <trkpt lat="43.02316" lon="42.54653">
        <ele>1514.06595</ele>
        <time>2021-09-13T11:22:45.199Z</time>
      </trkpt>
      <trkpt lat="43.02171" lon="42.54852">
        <ele>1515.062251</ele>
        <time>2021-09-13T11:24:08.191Z</time>
      </trkpt>
      <trkpt lat="43.02155" lon="42.5514">
        <ele>1510.470424</ele>
        <time>2021-09-13T11:25:02.171Z</time>
      </trkpt>
      <trkpt lat="43.02072" lon="42.55193">
        <ele>1484.959037</ele>
        <time>2021-09-13T11:25:56.235Z</time>
      </trkpt>
      <trkpt lat="43.01996" lon="42.55326">
        <ele>1479.46352</ele>
        <time>2021-09-13T11:28:20.190Z</time>
      </trkpt>
      <trkpt lat="43.01993" lon="42.55593">
        <ele>1469.633642</ele>
        <time>2021-09-13T11:28:59.193Z</time>
      </trkpt>
      <trkpt lat="43.02035" lon="42.55866">
        <ele>1452.357209</ele>
        <time>2021-09-13T11:29:45.179Z</time>
      </trkpt>
      <trkpt lat="43.02103" lon="42.56123">
        <ele>1429.406133</ele>
        <time>2021-09-13T11:30:31.189Z</time>
      </trkpt>
      <trkpt lat="43.01952" lon="42.56137">
        <ele>1405.591527</ele>
        <time>2021-09-13T11:31:23.189Z</time>
      </trkpt>
      <trkpt lat="43.02119" lon="42.56308">
        <ele>1389.904125</ele>
        <time>2021-09-13T11:32:24.185Z</time>
      </trkpt>
      <trkpt lat="43.02255" lon="42.56524">
        <ele>1376.287834</ele>
        <time>2021-09-13T11:33:10.184Z</time>
      </trkpt>
      <trkpt lat="43.02408" lon="42.56727">
        <ele>1352.302105</ele>
        <time>2021-09-13T11:34:03.193Z</time>
      </trkpt>
      <trkpt lat="43.02524" lon="42.56978">
        <ele>1333.084286</ele>
        <time>2021-09-13T11:34:53.199Z</time>
      </trkpt>
      <trkpt lat="43.02628" lon="42.57225">
        <ele>1312.744753</ele>
        <time>2021-09-13T11:35:46.184Z</time>
      </trkpt>
      <trkpt lat="43.02774" lon="42.57438">
        <ele>1296.996052</ele>
        <time>2021-09-13T11:36:38.186Z</time>
      </trkpt>
      <trkpt lat="43.02899" lon="42.57663">
        <ele>1293.407572</ele>
        <time>2021-09-13T11:37:25.189Z</time>
      </trkpt>
      <trkpt lat="43.02925" lon="42.57927">
        <ele>1304.37702</ele>
        <time>2021-09-13T11:38:23.189Z</time>
      </trkpt>
      <trkpt lat="43.03059" lon="42.58161">
        <ele>1302.074838</ele>
        <time>2021-09-13T11:39:13.231Z</time>
      </trkpt>
      <trkpt lat="43.02979" lon="42.58185">
        <ele>1302.295619</ele>
        <time>2021-09-13T11:40:24.199Z</time>
      </trkpt>
      <trkpt lat="43.02825" lon="42.58045">
        <ele>1313.018582</ele>
        <time>2021-09-13T11:42:17.196Z</time>
      </trkpt>
      <trkpt lat="43.02671" lon="42.57871">
        <ele>1308.558355</ele>
        <time>2021-09-13T11:44:10.192Z</time>
      </trkpt>
      <trkpt lat="43.02512" lon="42.57714">
        <ele>1301.322044</ele>
        <time>2021-09-13T11:45:21.182Z</time>
      </trkpt>
      <trkpt lat="43.02391" lon="42.57508">
        <ele>1305.422102</ele>
        <time>2021-09-13T11:46:50.191Z</time>
      </trkpt>
      <trkpt lat="43.02271" lon="42.57304">
        <ele>1318.879939</ele>
        <time>2021-09-13T11:48:38.186Z</time>
      </trkpt>
      <trkpt lat="43.02125" lon="42.57156">
        <ele>1325.72415</ele>
        <time>2021-09-13T11:50:14.192Z</time>
      </trkpt>
      <trkpt lat="43.01966" lon="42.56986">
        <ele>1332.9169</ele>
        <time>2021-09-13T11:51:46.189Z</time>
      </trkpt>
      <trkpt lat="43.01823" lon="42.56809">
        <ele>1332.267628</ele>
        <time>2021-09-13T11:52:46.193Z</time>
      </trkpt>
      <trkpt lat="43.01696" lon="42.56602">
        <ele>1329.254727</ele>
        <time>2021-09-13T11:53:57.174Z</time>
      </trkpt>
      <trkpt lat="43.01497" lon="42.56514">
        <ele>1327.60454</ele>
        <time>2021-09-13T11:54:59.204Z</time>
      </trkpt>
      <trkpt lat="43.01287" lon="42.56562">
        <ele>1326.267306</ele>
        <time>2021-09-13T11:55:52.197Z</time>
      </trkpt>
      <trkpt lat="43.01169" lon="42.56775">
        <ele>1326.396367</ele>
        <time>2021-09-13T11:56:43.178Z</time>
      </trkpt>
      <trkpt lat="43.01177" lon="42.5703">
        <ele>1332.421742</ele>
        <time>2021-09-13T11:58:17.244Z</time>
      </trkpt>
      <trkpt lat="43.01193" lon="42.57281">
        <ele>1348.022003</ele>
        <time>2021-09-13T12:00:21.185Z</time>
      </trkpt>
      <trkpt lat="43.01208" lon="42.57532">
        <ele>1360.531807</ele>
        <time>2021-09-13T12:02:34.174Z</time>
      </trkpt>
      <trkpt lat="43.01171" lon="42.578">
        <ele>1376.981835</ele>
        <time>2021-09-13T12:16:18.176Z</time>
      </trkpt>
      <trkpt lat="43.01081" lon="42.57998">
        <ele>1385.27396</ele>
        <time>2021-09-13T12:18:20.187Z</time>
      </trkpt>
      <trkpt lat="43.00977" lon="42.58194">
        <ele>1394.913729</ele>
        <time>2021-09-13T12:20:28.205Z</time>
      </trkpt>
      <trkpt lat="43.00938" lon="42.58439">
        <ele>1395.798665</ele>
        <time>2021-09-13T12:21:55.191Z</time>
      </trkpt>
      <trkpt lat="43.00892" lon="42.58746">
        <ele>1382.046276</ele>
        <time>2021-09-13T12:22:37.194Z</time>
      </trkpt>
      <trkpt lat="43.01013" lon="42.58948">
        <ele>1375.083285</ele>
        <time>2021-09-13T12:23:34.186Z</time>
      </trkpt>
      <trkpt lat="43.01152" lon="42.59114">
        <ele>1371.624888</ele>
        <time>2021-09-13T12:24:19.202Z</time>
      </trkpt>
      <trkpt lat="43.01345" lon="42.59225">
        <ele>1359.42148</ele>
        <time>2021-09-13T12:24:59.181Z</time>
      </trkpt>
      <trkpt lat="43.01398" lon="42.59514">
        <ele>1354.497474</ele>
        <time>2021-09-13T12:25:49.194Z</time>
      </trkpt>
      <trkpt lat="43.01467" lon="42.59774">
        <ele>1358.306286</ele>
        <time>2021-09-13T12:26:58.202Z</time>
      </trkpt>
      <trkpt lat="43.01557" lon="42.59986">
        <ele>1360.468719</ele>
        <time>2021-09-13T12:28:16.205Z</time>
      </trkpt>
      <trkpt lat="43.01625" lon="42.60243">
        <ele>1362.962087</ele>
        <time>2021-09-13T12:29:23.199Z</time>
      </trkpt>
      <trkpt lat="43.01621" lon="42.60475">
        <ele>1357.522696</ele>
        <time>2021-09-13T12:30:58.183Z</time>
      </trkpt>
      <trkpt lat="43.01525" lon="42.60709">
        <ele>1346.511473</ele>
        <time>2021-09-13T12:32:02.225Z</time>
      </trkpt>
      <trkpt lat="43.01462" lon="42.60957">
        <ele>1339.849345</ele>
        <time>2021-09-13T12:32:45.202Z</time>
      </trkpt>
      <trkpt lat="43.01483" lon="42.61233">
        <ele>1331.993939</ele>
        <time>2021-09-13T12:33:26.211Z</time>
      </trkpt>
      <trkpt lat="43.01422" lon="42.61488">
        <ele>1319.784441</ele>
        <time>2021-09-13T12:34:14.187Z</time>
      </trkpt>
      <trkpt lat="43.01384" lon="42.61726">
        <ele>1320.049979</ele>
        <time>2021-09-13T12:35:14.196Z</time>
      </trkpt>
      <trkpt lat="43.01322" lon="42.62003">
        <ele>1329.182153</ele>
        <time>2021-09-13T12:36:42.178Z</time>
      </trkpt>
      <trkpt lat="43.01304" lon="42.62262">
        <ele>1336.432606</ele>
        <time>2021-09-13T12:38:17.199Z</time>
      </trkpt>
      <trkpt lat="43.01416" lon="42.62475">
        <ele>1343.024646</ele>
        <time>2021-09-13T12:40:00.235Z</time>
      </trkpt>
      <trkpt lat="43.01382" lon="42.62732">
        <ele>1350.950142</ele>
        <time>2021-09-13T12:41:47.194Z</time>
      </trkpt>
      <trkpt lat="43.01319" lon="42.6297">
        <ele>1358.084194</ele>
        <time>2021-09-13T12:43:48.197Z</time>
      </trkpt>
      <trkpt lat="43.01257" lon="42.63248">
        <ele>1362.51425</ele>
        <time>2021-09-13T12:45:01.203Z</time>
      </trkpt>
      <trkpt lat="43.01308" lon="42.63533">
        <ele>1350.156514</ele>
        <time>2021-09-13T12:45:56.214Z</time>
      </trkpt>
      <trkpt lat="43.01395" lon="42.63784">
        <ele>1339.217058</ele>
        <time>2021-09-13T12:46:40.197Z</time>
      </trkpt>
      <trkpt lat="43.01493" lon="42.64036">
        <ele>1330.408367</ele>
        <time>2021-09-13T12:47:19.189Z</time>
      </trkpt>
      <trkpt lat="43.01615" lon="42.64223">
        <ele>1340.814606</ele>
        <time>2021-09-13T12:48:56.198Z</time>
      </trkpt>
      <trkpt lat="43.01718" lon="42.64436">
        <ele>1350.588304</ele>
        <time>2021-09-13T12:51:10.191Z</time>
      </trkpt>
      <trkpt lat="43.01786" lon="42.64642">
        <ele>1356.946259</ele>
        <time>2021-09-13T12:52:52.185Z</time>
      </trkpt>
      <trkpt lat="43.01796" lon="42.64878">
        <ele>1365.943239</ele>
        <time>2021-09-13T12:54:57.200Z</time>
      </trkpt>
      <trkpt lat="43.01886" lon="42.65102">
        <ele>1374.304093</ele>
        <time>2021-09-13T12:56:55.191Z</time>
      </trkpt>
      <trkpt lat="43.01984" lon="42.65319">
        <ele>1381.712302</ele>
        <time>2021-09-13T12:58:25.191Z</time>
      </trkpt>
      <trkpt lat="43.02054" lon="42.65554">
        <ele>1397.821428</ele>
        <time>2021-09-13T13:00:41.184Z</time>
      </trkpt>
      <trkpt lat="43.02157" lon="42.65755">
        <ele>1408.080705</ele>
        <time>2021-09-13T13:02:40.180Z</time>
      </trkpt>
      <trkpt lat="43.02292" lon="42.65956">
        <ele>1405.221247</ele>
        <time>2021-09-13T13:05:42.195Z</time>
      </trkpt>
      <trkpt lat="43.02438" lon="42.66167">
        <ele>1411.616028</ele>
        <time>2021-09-13T13:06:53.211Z</time>
      </trkpt>
      <trkpt lat="43.02548" lon="42.66372">
        <ele>1412.420892</ele>
        <time>2021-09-13T13:08:14.222Z</time>
      </trkpt>
      <trkpt lat="43.02637" lon="42.66652">
        <ele>1412.605526</ele>
        <time>2021-09-13T13:09:07.198Z</time>
      </trkpt>
      <trkpt lat="43.02732" lon="42.66879">
        <ele>1411.244799</ele>
        <time>2021-09-13T13:10:20.189Z</time>
      </trkpt>
      <trkpt lat="43.02728" lon="42.67068">
        <ele>1402.479477</ele>
        <time>2021-09-13T13:11:16.201Z</time>
      </trkpt>
      <trkpt lat="43.02878" lon="42.67272">
        <ele>1408.458261</ele>
        <time>2021-09-13T13:19:56.220Z</time>
      </trkpt>
      <trkpt lat="43.02996" lon="42.67466">
        <ele>1420.835253</ele>
        <time>2021-09-13T13:21:58.191Z</time>
      </trkpt>
      <trkpt lat="43.03113" lon="42.67658">
        <ele>1430.127586</ele>
        <time>2021-09-13T13:27:03.193Z</time>
      </trkpt>
      <trkpt lat="43.03144" lon="42.67939">
        <ele>1431.61002</ele>
        <time>2021-09-13T13:28:19.227Z</time>
      </trkpt>
      <trkpt lat="43.03159" lon="42.68208">
        <ele>1424.868068</ele>
        <time>2021-09-13T13:29:10.203Z</time>
      </trkpt>
      <trkpt lat="43.03219" lon="42.68466">
        <ele>1418.341727</ele>
        <time>2021-09-13T13:29:54.202Z</time>
      </trkpt>
      <trkpt lat="43.03253" lon="42.68674">
        <ele>1429.666093</ele>
        <time>2021-09-13T13:31:25.198Z</time>
      </trkpt>
      <trkpt lat="43.03327" lon="42.68898">
        <ele>1441.274934</ele>
        <time>2021-09-13T13:33:27.193Z</time>
      </trkpt>
      <trkpt lat="43.03463" lon="42.69089">
        <ele>1439.693968</ele>
        <time>2021-09-13T13:34:41.195Z</time>
      </trkpt>
      <trkpt lat="43.03614" lon="42.69272">
        <ele>1438.906872</ele>
        <time>2021-09-13T13:35:32.197Z</time>
      </trkpt>
      <trkpt lat="43.03701" lon="42.69498">
        <ele>1437.731834</ele>
        <time>2021-09-13T13:36:48.191Z</time>
      </trkpt>
      <trkpt lat="43.03793" lon="42.6975">
        <ele>1443.575645</ele>
        <time>2021-09-13T13:37:51.195Z</time>
      </trkpt>
      <trkpt lat="43.03856" lon="42.69989">
        <ele>1454.856113</ele>
        <time>2021-09-13T13:39:41.180Z</time>
      </trkpt>
      <trkpt lat="43.03959" lon="42.70178">
        <ele>1456.303651</ele>
        <time>2021-09-13T13:41:26.207Z</time>
      </trkpt>
      <trkpt lat="43.03964" lon="42.70281">
        <ele>1443.191183</ele>
        <time>2021-09-13T13:42:38.198Z</time>
      </trkpt>
      <trkpt lat="43.03922" lon="42.70513">
        <ele>1445.278936</ele>
        <time>2021-09-13T13:43:17.186Z</time>
      </trkpt>
      <trkpt lat="43.03969" lon="42.70803">
        <ele>1433.86585</ele>
        <time>2021-09-13T13:45:01.189Z</time>
      </trkpt>
      <trkpt lat="43.04045" lon="42.71046">
        <ele>1421.040152</ele>
        <time>2021-09-13T13:45:47.200Z</time>
      </trkpt>
      <trkpt lat="43.04132" lon="42.71331">
        <ele>1409.216276</ele>
        <time>2021-09-13T13:46:30.198Z</time>
      </trkpt>
      <trkpt lat="43.04204" lon="42.71638">
        <ele>1408.369772</ele>
        <time>2021-09-13T13:47:20.201Z</time>
      </trkpt>
      <trkpt lat="43.04256" lon="42.7188">
        <ele>1429.856963</ele>
        <time>2021-09-13T13:48:54.197Z</time>
      </trkpt>
      <trkpt lat="43.04255" lon="42.72154">
        <ele>1416.481878</ele>
        <time>2021-09-13T13:55:04.213Z</time>
      </trkpt>
      <trkpt lat="43.04112" lon="42.72339">
        <ele>1410.357685</ele>
        <time>2021-09-13T13:56:04.187Z</time>
      </trkpt>
      <trkpt lat="43.04062" lon="42.7258">
        <ele>1413.156693</ele>
        <time>2021-09-13T13:58:16.188Z</time>
      </trkpt>
      <trkpt lat="43.04088" lon="42.72621">
        <ele>1413.156693</ele>
        <time>2021-09-13T14:01:56.570Z</time>
      </trkpt>
    </trkseg>
  </trk>
  <trk>
    <name><![CDATA[1_Batoumi à Tbilissi_989km_15days - Jour 6 - De Mestia à Ouchgouli]]></name>
    <extensions>
      <line xmlns="http://www.topografix.com/GPX/gpx_style/0/2">
        <color>FF00FF</color>
        <width>4</width>
      </line>
    </extensions>
    <trkseg>
      <trkpt lat="43.04101" lon="42.72615">
        <ele>1421.369481</ele>
        <time>2021-08-23T06:30:11.667Z</time>
      </trkpt>
      <trkpt lat="43.04062" lon="42.72735">
        <ele>1422.701629</ele>
        <time>2021-08-23T06:31:08.148Z</time>
      </trkpt>
      <trkpt lat="43.04031" lon="42.73065">
        <ele>1449.45922</ele>
        <time>2021-08-23T06:34:34.623Z</time>
      </trkpt>
      <trkpt lat="43.04049" lon="42.73734">
        <ele>1485.160991</ele>
        <time>2021-08-23T06:39:33.784Z</time>
      </trkpt>
      <trkpt lat="43.03955" lon="42.74459">
        <ele>1524.07988</ele>
        <time>2021-08-23T06:45:10.136Z</time>
      </trkpt>
      <trkpt lat="43.03942" lon="42.74944">
        <ele>1551.77194</ele>
        <time>2021-08-23T06:48:51.834Z</time>
      </trkpt>
      <trkpt lat="43.03853" lon="42.747">
        <ele>1590.120472</ele>
        <time>2021-08-23T06:53:34.516Z</time>
      </trkpt>
      <trkpt lat="43.03777" lon="42.73983">
        <ele>1627.448128</ele>
        <time>2021-08-23T06:58:46.246Z</time>
      </trkpt>
      <trkpt lat="43.03573" lon="42.73505">
        <ele>1660.661404</ele>
        <time>2021-08-23T07:03:40.136Z</time>
      </trkpt>
      <trkpt lat="43.03676" lon="42.73848">
        <ele>1638.507023</ele>
        <time>2021-08-23T07:05:53.904Z</time>
      </trkpt>
      <trkpt lat="43.03796" lon="42.74432">
        <ele>1610.39067</ele>
        <time>2021-08-23T07:07:24.335Z</time>
      </trkpt>
      <trkpt lat="43.03893" lon="42.7494">
        <ele>1568.599183</ele>
        <time>2021-08-23T07:08:26.669Z</time>
      </trkpt>
      <trkpt lat="43.03985" lon="42.74933">
        <ele>1535.970887</ele>
        <time>2021-08-23T07:09:18.317Z</time>
      </trkpt>
      <trkpt lat="43.04184" lon="42.75395">
        <ele>1516.639717</ele>
        <time>2021-08-23T07:10:37.489Z</time>
      </trkpt>
      <trkpt lat="43.04123" lon="42.75995">
        <ele>1486.347779</ele>
        <time>2021-08-23T07:11:58.330Z</time>
      </trkpt>
      <trkpt lat="43.04242" lon="42.76989">
        <ele>1499.710733</ele>
        <time>2021-08-23T07:16:55.136Z</time>
      </trkpt>
      <trkpt lat="43.04443" lon="42.78142">
        <ele>1497.674094</ele>
        <time>2021-08-23T07:20:53.454Z</time>
      </trkpt>
      <trkpt lat="43.04566" lon="42.78805">
        <ele>1499.406415</ele>
        <time>2021-08-23T07:23:30.206Z</time>
      </trkpt>
      <trkpt lat="43.04599" lon="42.79375">
        <ele>1508.521433</ele>
        <time>2021-08-23T07:26:11.237Z</time>
      </trkpt>
      <trkpt lat="43.04639" lon="42.79812">
        <ele>1515.387584</ele>
        <time>2021-08-23T07:28:23.749Z</time>
      </trkpt>
      <trkpt lat="43.04501" lon="42.80199">
        <ele>1516.580949</ele>
        <time>2021-08-23T07:30:01.255Z</time>
      </trkpt>
      <trkpt lat="43.04654" lon="42.80636">
        <ele>1508.582827</ele>
        <time>2021-08-23T07:31:20.144Z</time>
      </trkpt>
      <trkpt lat="43.04601" lon="42.81517">
        <ele>1524.242022</ele>
        <time>2021-08-23T07:35:38.589Z</time>
      </trkpt>
      <trkpt lat="43.04481" lon="42.81864">
        <ele>1529.735763</ele>
        <time>2021-08-23T07:37:26.120Z</time>
      </trkpt>
      <trkpt lat="43.04157" lon="42.82771">
        <ele>1584.713114</ele>
        <time>2021-08-23T07:45:10.268Z</time>
      </trkpt>
      <trkpt lat="43.03971" lon="42.84048">
        <ele>1668.76279</ele>
        <time>2021-08-23T07:56:13.406Z</time>
      </trkpt>
      <trkpt lat="43.03901" lon="42.84654">
        <ele>1703.574649</ele>
        <time>2021-08-23T08:01:04.339Z</time>
      </trkpt>
      <trkpt lat="43.03854" lon="42.8442">
        <ele>1725.628248</ele>
        <time>2021-08-23T08:04:09.712Z</time>
      </trkpt>
      <trkpt lat="43.0383" lon="42.83748">
        <ele>1772.759703</ele>
        <time>2021-08-23T08:10:15.130Z</time>
      </trkpt>
      <trkpt lat="43.03669" lon="42.8289">
        <ele>1817.895709</ele>
        <time>2021-08-23T08:16:42.305Z</time>
      </trkpt>
      <trkpt lat="43.03627" lon="42.82935">
        <ele>1833.646378</ele>
        <time>2021-08-23T08:19:05.170Z</time>
      </trkpt>
      <trkpt lat="43.03618" lon="42.83173">
        <ele>1855.204988</ele>
        <time>2021-08-23T08:22:12.833Z</time>
      </trkpt>
      <trkpt lat="43.03529" lon="42.82561">
        <ele>1872.461484</ele>
        <time>2021-08-23T08:25:36.518Z</time>
      </trkpt>
      <trkpt lat="43.03331" lon="42.82537">
        <ele>1898.642699</ele>
        <time>2021-08-23T08:29:19.161Z</time>
      </trkpt>
      <trkpt lat="43.03003" lon="42.82573">
        <ele>1918.784597</ele>
        <time>2021-08-23T08:32:45.345Z</time>
      </trkpt>
      <trkpt lat="43.02686" lon="42.82924">
        <ele>1887.163772</ele>
        <time>2021-08-23T08:34:00.949Z</time>
      </trkpt>
      <trkpt lat="43.02325" lon="42.83162">
        <ele>1858.509928</ele>
        <time>2021-08-23T08:35:30.117Z</time>
      </trkpt>
      <trkpt lat="43.01993" lon="42.83285">
        <ele>1815.465798</ele>
        <time>2021-08-23T08:37:24.778Z</time>
      </trkpt>
      <trkpt lat="43.02036" lon="42.83164">
        <ele>1800.609547</ele>
        <time>2021-08-23T08:38:12.745Z</time>
      </trkpt>
      <trkpt lat="43.01743" lon="42.83098">
        <ele>1779.116842</ele>
        <time>2021-08-23T08:39:10.842Z</time>
      </trkpt>
      <trkpt lat="43.019" lon="42.8295">
        <ele>1746.175267</ele>
        <time>2021-08-23T08:39:57.306Z</time>
      </trkpt>
      <trkpt lat="43.01843" lon="42.83046">
        <ele>1729.711973</ele>
        <time>2021-08-23T08:40:44.180Z</time>
      </trkpt>
      <trkpt lat="43.01663" lon="42.82903">
        <ele>1701.104582</ele>
        <time>2021-08-23T08:41:46.947Z</time>
      </trkpt>
      <trkpt lat="43.01851" lon="42.82762">
        <ele>1682.05466</ele>
        <time>2021-08-23T08:42:32.540Z</time>
      </trkpt>
      <trkpt lat="43.01624" lon="42.82757">
        <ele>1649.746904</ele>
        <time>2021-08-23T08:43:38.288Z</time>
      </trkpt>
      <trkpt lat="43.01552" lon="42.8245">
        <ele>1594.145096</ele>
        <time>2021-08-23T08:44:40.732Z</time>
      </trkpt>
      <trkpt lat="43.01339" lon="42.82039">
        <ele>1555.105586</ele>
        <time>2021-08-23T08:45:48.492Z</time>
      </trkpt>
      <trkpt lat="43.01366" lon="42.82384">
        <ele>1538.698777</ele>
        <time>2021-08-23T08:46:49.596Z</time>
      </trkpt>
      <trkpt lat="43.01142" lon="42.82572">
        <ele>1526.153818</ele>
        <time>2021-08-23T08:47:39.765Z</time>
      </trkpt>
      <trkpt lat="43.009" lon="42.82811">
        <ele>1532.78717</ele>
        <time>2021-08-23T08:49:48.141Z</time>
      </trkpt>
      <trkpt lat="43.00508" lon="42.83053">
        <ele>1537.062376</ele>
        <time>2021-08-23T08:52:16.712Z</time>
      </trkpt>
      <trkpt lat="42.99938" lon="42.83614">
        <ele>1545.377977</ele>
        <time>2021-08-23T08:56:09.462Z</time>
      </trkpt>
      <trkpt lat="42.99443" lon="42.84198">
        <ele>1564.411449</ele>
        <time>2021-08-23T09:00:41.563Z</time>
      </trkpt>
      <trkpt lat="42.98892" lon="42.84619">
        <ele>1572.895795</ele>
        <time>2021-08-23T09:04:36.827Z</time>
      </trkpt>
      <trkpt lat="42.98451" lon="42.85025">
        <ele>1583.476417</ele>
        <time>2021-08-23T09:07:59.287Z</time>
      </trkpt>
      <trkpt lat="42.98266" lon="42.85298">
        <ele>1605.30868</ele>
        <time>2021-08-23T09:11:15.865Z</time>
      </trkpt>
      <trkpt lat="42.98036" lon="42.85616">
        <ele>1617.377</ele>
        <time>2021-08-23T09:13:49.746Z</time>
      </trkpt>
      <trkpt lat="42.97846" lon="42.85807">
        <ele>1616.136578</ele>
        <time>2021-08-23T09:15:16.925Z</time>
      </trkpt>
      <trkpt lat="42.97489" lon="42.86027">
        <ele>1605.617429</ele>
        <time>2021-08-23T09:16:59.095Z</time>
      </trkpt>
      <trkpt lat="42.97222" lon="42.86719">
        <ele>1612.458801</ele>
        <time>2021-08-23T09:20:20.359Z</time>
      </trkpt>
      <trkpt lat="42.96947" lon="42.8733">
        <ele>1625.506296</ele>
        <time>2021-08-23T09:25:29.453Z</time>
      </trkpt>
      <trkpt lat="42.96599" lon="42.87628">
        <ele>1644.891928</ele>
        <time>2021-08-23T09:30:15.066Z</time>
      </trkpt>
      <trkpt lat="42.96364" lon="42.881">
        <ele>1683.995256</ele>
        <time>2021-08-23T09:36:52.490Z</time>
      </trkpt>
      <trkpt lat="42.95882" lon="42.88255">
        <ele>1694.346693</ele>
        <time>2021-08-23T09:41:31.410Z</time>
      </trkpt>
      <trkpt lat="42.95566" lon="42.88446">
        <ele>1704.51077</ele>
        <time>2021-08-23T09:45:13.234Z</time>
      </trkpt>
      <trkpt lat="42.95375" lon="42.88633">
        <ele>1698.503645</ele>
        <time>2021-08-23T09:47:01.087Z</time>
      </trkpt>
      <trkpt lat="42.94806" lon="42.89009">
        <ele>1689.161801</ele>
        <time>2021-08-23T09:51:52.348Z</time>
      </trkpt>
      <trkpt lat="42.94289" lon="42.89905">
        <ele>1710.177718</ele>
        <time>2021-08-23T09:59:49.603Z</time>
      </trkpt>
      <trkpt lat="42.94157" lon="42.90352">
        <ele>1720.667715</ele>
        <time>2021-08-23T10:03:36.120Z</time>
      </trkpt>
      <trkpt lat="42.94276" lon="42.90628">
        <ele>1719.577542</ele>
        <time>2021-08-23T10:05:19.204Z</time>
      </trkpt>
      <trkpt lat="42.93991" lon="42.90997">
        <ele>1729.752363</ele>
        <time>2021-08-23T10:09:26.675Z</time>
      </trkpt>
      <trkpt lat="42.93862" lon="42.91238">
        <ele>1739.158209</ele>
        <time>2021-08-23T10:12:12.097Z</time>
      </trkpt>
      <trkpt lat="42.93485" lon="42.91726">
        <ele>1745.34877</ele>
        <time>2021-08-23T10:16:24.991Z</time>
      </trkpt>
      <trkpt lat="42.93337" lon="42.91926">
        <ele>1753.926058</ele>
        <time>2021-08-23T10:18:51.830Z</time>
      </trkpt>
      <trkpt lat="42.93147" lon="42.92055">
        <ele>1763.824889</ele>
        <time>2021-08-23T10:21:34.565Z</time>
      </trkpt>
      <trkpt lat="42.93025" lon="42.92244">
        <ele>1778.284222</ele>
        <time>2021-08-23T10:24:28.716Z</time>
      </trkpt>
      <trkpt lat="42.92901" lon="42.92917">
        <ele>1799.028806</ele>
        <time>2021-08-23T10:29:54.022Z</time>
      </trkpt>
      <trkpt lat="42.92986" lon="42.93191">
        <ele>1819.915142</ele>
        <time>2021-08-23T10:33:43.718Z</time>
      </trkpt>
      <trkpt lat="42.93182" lon="42.93617">
        <ele>1813.660947</ele>
        <time>2021-08-23T10:36:16.472Z</time>
      </trkpt>
      <trkpt lat="42.93068" lon="42.94001">
        <ele>1818.142526</ele>
        <time>2021-08-23T10:39:03.851Z</time>
      </trkpt>
      <trkpt lat="42.92917" lon="42.94394">
        <ele>1827.93695</ele>
        <time>2021-08-23T10:42:41.883Z</time>
      </trkpt>
      <trkpt lat="42.92579" lon="42.94627">
        <ele>1841.270745</ele>
        <time>2021-08-23T10:46:39.265Z</time>
      </trkpt>
      <trkpt lat="42.92269" lon="42.94829">
        <ele>1856.413782</ele>
        <time>2021-08-23T10:50:36.895Z</time>
      </trkpt>
      <trkpt lat="42.91878" lon="42.95193">
        <ele>1861.729569</ele>
        <time>2021-08-23T10:54:40.706Z</time>
      </trkpt>
      <trkpt lat="42.91876" lon="42.95692">
        <ele>1871.853143</ele>
        <time>2021-08-23T10:58:32.987Z</time>
      </trkpt>
      <trkpt lat="42.91845" lon="42.96108">
        <ele>1905.492045</ele>
        <time>2021-08-23T11:04:06.436Z</time>
      </trkpt>
      <trkpt lat="42.9196" lon="42.96471">
        <ele>1902.700386</ele>
        <time>2021-08-23T11:06:52.433Z</time>
      </trkpt>
      <trkpt lat="42.91766" lon="42.96635">
        <ele>1917.277554</ele>
        <time>2021-08-23T11:10:04.011Z</time>
      </trkpt>
      <trkpt lat="42.91756" lon="42.97017">
        <ele>1938.856362</ele>
        <time>2021-08-23T11:14:52.658Z</time>
      </trkpt>
      <trkpt lat="42.91649" lon="42.97163">
        <ele>1949.004477</ele>
        <time>2021-08-23T11:17:29.493Z</time>
      </trkpt>
      <trkpt lat="42.9148" lon="42.97451">
        <ele>1974.751972</ele>
        <time>2021-08-23T11:21:50.764Z</time>
      </trkpt>
      <trkpt lat="42.91597" lon="42.97399">
        <ele>1989.813</ele>
        <time>2021-08-23T11:24:43.623Z</time>
      </trkpt>
      <trkpt lat="42.91557" lon="42.97545">
        <ele>2003.226707</ele>
        <time>2021-08-23T11:27:39.190Z</time>
      </trkpt>
      <trkpt lat="42.91361" lon="42.98507">
        <ele>2026.035333</ele>
        <time>2021-08-23T11:34:58.169Z</time>
      </trkpt>
      <trkpt lat="42.91419" lon="42.99478">
        <ele>2056.921551</ele>
        <time>2021-08-23T11:42:54.877Z</time>
      </trkpt>
      <trkpt lat="42.91457" lon="42.99997">
        <ele>2065.986343</ele>
        <time>2021-08-23T11:46:29.805Z</time>
      </trkpt>
      <trkpt lat="42.91524" lon="43.00692">
        <ele>2077.207578</ele>
        <time>2021-08-23T11:51:15.094Z</time>
      </trkpt>
      <trkpt lat="42.91526" lon="43.0101">
        <ele>2092.534269</ele>
        <time>2021-08-23T11:54:26.330Z</time>
      </trkpt>
      <trkpt lat="42.91616" lon="43.01251">
        <ele>2100.599419</ele>
        <time>2021-08-23T11:57:05.027Z</time>
      </trkpt>
      <trkpt lat="42.91657" lon="43.01387">
        <ele>2100.599419</ele>
        <time>2021-08-23T11:58:16.545Z</time>
      </trkpt>
    </trkseg>
  </trk>
  <trk>
    <name><![CDATA[Tour d'Europe: étape 448]]></name>
    <extensions>
      <line xmlns="http://www.topografix.com/GPX/gpx_style/0/2">
        <color>000088</color>
        <width>4</width>
      </line>
    </extensions>
    <trkseg>
      <trkpt lat="42.91502" lon="43.01616">
        <ele>2172.717017</ele>
        <time>2021-09-19T05:53:59.115Z</time>
      </trkpt>
      <trkpt lat="42.91518" lon="43.01806">
        <ele>2171.826044</ele>
        <time>2021-09-19T05:55:13.502Z</time>
      </trkpt>
      <trkpt lat="42.91452" lon="43.0207">
        <ele>2175.954887</ele>
        <time>2021-09-19T05:56:17.466Z</time>
      </trkpt>
      <trkpt lat="42.91392" lon="43.02351">
        <ele>2191.042884</ele>
        <time>2021-09-19T05:57:03.474Z</time>
      </trkpt>
      <trkpt lat="42.91345" lon="43.02638">
        <ele>2204.977776</ele>
        <time>2021-09-19T05:57:45.470Z</time>
      </trkpt>
      <trkpt lat="42.91166" lon="43.03007">
        <ele>2236.67853</ele>
        <time>2021-09-19T05:58:58.889Z</time>
      </trkpt>
      <trkpt lat="42.91055" lon="43.03682">
        <ele>2241.975521</ele>
        <time>2021-09-19T06:00:48.833Z</time>
      </trkpt>
      <trkpt lat="42.91016" lon="43.04493">
        <ele>2262.813886</ele>
        <time>2021-09-19T06:02:51.655Z</time>
      </trkpt>
      <trkpt lat="42.91048" lon="43.04786">
        <ele>2294.772985</ele>
        <time>2021-09-19T06:03:39.827Z</time>
      </trkpt>
      <trkpt lat="42.91205" lon="43.0503">
        <ele>2302.059221</ele>
        <time>2021-09-19T06:04:23.838Z</time>
      </trkpt>
      <trkpt lat="42.91239" lon="43.0537">
        <ele>2309.776229</ele>
        <time>2021-09-19T06:05:11.847Z</time>
      </trkpt>
      <trkpt lat="42.91269" lon="43.05663">
        <ele>2314.678117</ele>
        <time>2021-09-19T06:05:58.850Z</time>
      </trkpt>
      <trkpt lat="42.91134" lon="43.05957">
        <ele>2316.635723</ele>
        <time>2021-09-19T06:06:46.819Z</time>
      </trkpt>
      <trkpt lat="42.91065" lon="43.06271">
        <ele>2331.984437</ele>
        <time>2021-09-19T06:07:52.835Z</time>
      </trkpt>
      <trkpt lat="42.91046" lon="43.06611">
        <ele>2358.140652</ele>
        <time>2021-09-19T06:08:32.832Z</time>
      </trkpt>
      <trkpt lat="42.91049" lon="43.06935">
        <ele>2387.062337</ele>
        <time>2021-09-19T06:09:17.841Z</time>
      </trkpt>
      <trkpt lat="42.91146" lon="43.07209">
        <ele>2412.238532</ele>
        <time>2021-09-19T06:10:00.840Z</time>
      </trkpt>
      <trkpt lat="42.91203" lon="43.07503">
        <ele>2440.435231</ele>
        <time>2021-09-19T06:10:49.831Z</time>
      </trkpt>
      <trkpt lat="42.91265" lon="43.07816">
        <ele>2463.66061</ele>
        <time>2021-09-19T06:11:29.829Z</time>
      </trkpt>
      <trkpt lat="42.91273" lon="43.08091">
        <ele>2486.551141</ele>
        <time>2021-09-19T06:12:15.834Z</time>
      </trkpt>
      <trkpt lat="42.91226" lon="43.08366">
        <ele>2512.515684</ele>
        <time>2021-09-19T06:13:05.825Z</time>
      </trkpt>
      <trkpt lat="42.91299" lon="43.08627">
        <ele>2537.868381</ele>
        <time>2021-09-19T06:13:53.832Z</time>
      </trkpt>
      <trkpt lat="42.91402" lon="43.08953">
        <ele>2560.639603</ele>
        <time>2021-09-19T06:14:33.835Z</time>
      </trkpt>
      <trkpt lat="42.91425" lon="43.09293">
        <ele>2577.172078</ele>
        <time>2021-09-19T06:15:19.819Z</time>
      </trkpt>
      <trkpt lat="42.91496" lon="43.09624">
        <ele>2604.374039</ele>
        <time>2021-09-19T06:16:01.833Z</time>
      </trkpt>
      <trkpt lat="42.91529" lon="43.09968">
        <ele>2616.006347</ele>
        <time>2021-09-19T06:16:52.833Z</time>
      </trkpt>
      <trkpt lat="42.91555" lon="43.10346">
        <ele>2625.228913</ele>
        <time>2021-09-19T06:17:31.841Z</time>
      </trkpt>
      <trkpt lat="42.91566" lon="43.10635">
        <ele>2610.118514</ele>
        <time>2021-09-19T07:10:17.828Z</time>
      </trkpt>
      <trkpt lat="42.91704" lon="43.10864">
        <ele>2589.068687</ele>
        <time>2021-09-19T07:15:41.833Z</time>
      </trkpt>
      <trkpt lat="42.91794" lon="43.11114">
        <ele>2564.466143</ele>
        <time>2021-09-19T07:17:05.846Z</time>
      </trkpt>
      <trkpt lat="42.91863" lon="43.11376">
        <ele>2538.457975</ele>
        <time>2021-09-19T07:18:26.832Z</time>
      </trkpt>
      <trkpt lat="42.91946" lon="43.1164">
        <ele>2513.002899</ele>
        <time>2021-09-19T07:22:36.829Z</time>
      </trkpt>
      <trkpt lat="42.92018" lon="43.119">
        <ele>2491.839245</ele>
        <time>2021-09-19T07:24:05.865Z</time>
      </trkpt>
      <trkpt lat="42.92168" lon="43.11883">
        <ele>2472.255267</ele>
        <time>2021-09-19T07:34:45.831Z</time>
      </trkpt>
      <trkpt lat="42.92312" lon="43.11723">
        <ele>2444.264472</ele>
        <time>2021-09-19T07:36:25.886Z</time>
      </trkpt>
      <trkpt lat="42.92396" lon="43.11454">
        <ele>2416.59452</ele>
        <time>2021-09-19T07:38:08.842Z</time>
      </trkpt>
      <trkpt lat="42.92548" lon="43.1127">
        <ele>2391.297863</ele>
        <time>2021-09-19T07:39:46.892Z</time>
      </trkpt>
      <trkpt lat="42.92741" lon="43.11285">
        <ele>2364.230897</ele>
        <time>2021-09-19T07:41:05.846Z</time>
      </trkpt>
      <trkpt lat="42.92748" lon="43.11551">
        <ele>2339.664052</ele>
        <time>2021-09-19T07:43:36.847Z</time>
      </trkpt>
      <trkpt lat="42.92716" lon="43.11831">
        <ele>2316.044537</ele>
        <time>2021-09-19T07:44:55.843Z</time>
      </trkpt>
      <trkpt lat="42.92656" lon="43.12115">
        <ele>2304.966648</ele>
        <time>2021-09-19T07:47:15.869Z</time>
      </trkpt>
      <trkpt lat="42.92657" lon="43.12372">
        <ele>2305.963778</ele>
        <time>2021-09-19T07:48:58.839Z</time>
      </trkpt>
      <trkpt lat="42.92516" lon="43.12571">
        <ele>2300.288957</ele>
        <time>2021-09-19T07:50:24.839Z</time>
      </trkpt>
      <trkpt lat="42.92379" lon="43.1278">
        <ele>2287.949021</ele>
        <time>2021-09-19T07:51:47.842Z</time>
      </trkpt>
      <trkpt lat="42.9244" lon="43.12898">
        <ele>2274.115159</ele>
        <time>2021-09-19T07:53:18.838Z</time>
      </trkpt>
      <trkpt lat="42.92431" lon="43.12993">
        <ele>2271.26372</ele>
        <time>2021-09-19T07:54:54.866Z</time>
      </trkpt>
      <trkpt lat="42.92249" lon="43.13092">
        <ele>2263.548335</ele>
        <time>2021-09-19T07:56:23.842Z</time>
      </trkpt>
      <trkpt lat="42.92147" lon="43.13327">
        <ele>2246.884455</ele>
        <time>2021-09-19T07:57:48.837Z</time>
      </trkpt>
      <trkpt lat="42.92023" lon="43.1355">
        <ele>2233.31695</ele>
        <time>2021-09-19T07:59:14.847Z</time>
      </trkpt>
      <trkpt lat="42.91903" lon="43.13762">
        <ele>2222.985626</ele>
        <time>2021-09-19T08:00:35.828Z</time>
      </trkpt>
      <trkpt lat="42.91853" lon="43.13863">
        <ele>2205.068919</ele>
        <time>2021-09-19T08:06:38.875Z</time>
      </trkpt>
      <trkpt lat="42.91655" lon="43.13859">
        <ele>2183.463814</ele>
        <time>2021-09-19T08:08:04.869Z</time>
      </trkpt>
      <trkpt lat="42.91803" lon="43.13948">
        <ele>2161.845624</ele>
        <time>2021-09-19T08:09:41.892Z</time>
      </trkpt>
      <trkpt lat="42.91994" lon="43.14037">
        <ele>2134.560998</ele>
        <time>2021-09-19T08:11:20.856Z</time>
      </trkpt>
      <trkpt lat="42.92002" lon="43.14106">
        <ele>2118.666365</ele>
        <time>2021-09-19T08:13:05.860Z</time>
      </trkpt>
      <trkpt lat="42.91847" lon="43.14132">
        <ele>2092.404875</ele>
        <time>2021-09-19T08:14:40.863Z</time>
      </trkpt>
      <trkpt lat="42.92035" lon="43.14211">
        <ele>2065.925755</ele>
        <time>2021-09-19T08:16:16.863Z</time>
      </trkpt>
      <trkpt lat="42.92178" lon="43.1436">
        <ele>2046.29836</ele>
        <time>2021-09-19T08:17:52.858Z</time>
      </trkpt>
      <trkpt lat="42.9197" lon="43.14284">
        <ele>2022.023943</ele>
        <time>2021-09-19T08:27:25.836Z</time>
      </trkpt>
      <trkpt lat="42.9177" lon="43.14275">
        <ele>2005.635289</ele>
        <time>2021-09-19T08:28:51.867Z</time>
      </trkpt>
      <trkpt lat="42.91569" lon="43.14266">
        <ele>1988.717972</ele>
        <time>2021-09-19T08:30:09.881Z</time>
      </trkpt>
      <trkpt lat="42.91377" lon="43.14219">
        <ele>1979.946105</ele>
        <time>2021-09-19T08:31:21.892Z</time>
      </trkpt>
      <trkpt lat="42.91181" lon="43.14275">
        <ele>1957.768221</ele>
        <time>2021-09-19T08:32:53.849Z</time>
      </trkpt>
      <trkpt lat="42.91026" lon="43.14332">
        <ele>1933.898703</ele>
        <time>2021-09-19T08:34:36.843Z</time>
      </trkpt>
      <trkpt lat="42.90871" lon="43.14232">
        <ele>1911.939947</ele>
        <time>2021-09-19T08:36:15.844Z</time>
      </trkpt>
      <trkpt lat="42.90662" lon="43.14182">
        <ele>1890.02052</ele>
        <time>2021-09-19T08:37:43.850Z</time>
      </trkpt>
      <trkpt lat="42.90462" lon="43.1423">
        <ele>1875.11839</ele>
        <time>2021-09-19T08:39:06.852Z</time>
      </trkpt>
      <trkpt lat="42.90277" lon="43.14162">
        <ele>1864.174889</ele>
        <time>2021-09-19T08:40:39.854Z</time>
      </trkpt>
      <trkpt lat="42.90116" lon="43.14228">
        <ele>1847.62984</ele>
        <time>2021-09-19T08:42:24.849Z</time>
      </trkpt>
      <trkpt lat="42.89926" lon="43.14262">
        <ele>1833.091381</ele>
        <time>2021-09-19T08:44:03.857Z</time>
      </trkpt>
      <trkpt lat="42.89734" lon="43.14313">
        <ele>1822.361802</ele>
        <time>2021-09-19T08:45:29.844Z</time>
      </trkpt>
      <trkpt lat="42.89535" lon="43.14342">
        <ele>1822.836544</ele>
        <time>2021-09-19T08:46:54.849Z</time>
      </trkpt>
      <trkpt lat="42.89342" lon="43.14372">
        <ele>1816.491986</ele>
        <time>2021-09-19T08:48:18.846Z</time>
      </trkpt>
      <trkpt lat="42.89163" lon="43.14257">
        <ele>1803.503823</ele>
        <time>2021-09-19T08:49:53.874Z</time>
      </trkpt>
      <trkpt lat="42.8898" lon="43.14266">
        <ele>1793.111745</ele>
        <time>2021-09-19T08:51:27.859Z</time>
      </trkpt>
      <trkpt lat="42.88795" lon="43.14338">
        <ele>1769.292678</ele>
        <time>2021-09-19T08:53:10.829Z</time>
      </trkpt>
      <trkpt lat="42.88619" lon="43.14441">
        <ele>1750.470033</ele>
        <time>2021-09-19T08:54:53.876Z</time>
      </trkpt>
      <trkpt lat="42.88431" lon="43.14522">
        <ele>1735.18676</ele>
        <time>2021-09-19T08:56:35.880Z</time>
      </trkpt>
      <trkpt lat="42.88246" lon="43.14642">
        <ele>1726.987759</ele>
        <time>2021-09-19T08:57:59.853Z</time>
      </trkpt>
      <trkpt lat="42.88088" lon="43.14805">
        <ele>1719.688935</ele>
        <time>2021-09-19T08:59:15.856Z</time>
      </trkpt>
      <trkpt lat="42.87889" lon="43.14923">
        <ele>1701.807813</ele>
        <time>2021-09-19T09:00:46.850Z</time>
      </trkpt>
      <trkpt lat="42.87683" lon="43.14918">
        <ele>1682.671183</ele>
        <time>2021-09-19T09:02:15.863Z</time>
      </trkpt>
      <trkpt lat="42.87498" lon="43.15024">
        <ele>1663.863068</ele>
        <time>2021-09-19T09:03:34.876Z</time>
      </trkpt>
      <trkpt lat="42.87404" lon="43.15254">
        <ele>1639.104512</ele>
        <time>2021-09-19T09:04:45.838Z</time>
      </trkpt>
      <trkpt lat="42.87447" lon="43.14989">
        <ele>1613.732103</ele>
        <time>2021-09-19T09:06:01.846Z</time>
      </trkpt>
      <trkpt lat="42.87394" lon="43.14994">
        <ele>1608.13349</ele>
        <time>2021-09-19T09:07:31.879Z</time>
      </trkpt>
      <trkpt lat="42.87312" lon="43.15245">
        <ele>1604.864143</ele>
        <time>2021-09-19T09:09:03.851Z</time>
      </trkpt>
      <trkpt lat="42.87167" lon="43.15433">
        <ele>1593.457286</ele>
        <time>2021-09-19T09:10:27.848Z</time>
      </trkpt>
      <trkpt lat="42.87011" lon="43.15619">
        <ele>1571.703039</ele>
        <time>2021-09-19T09:11:52.852Z</time>
      </trkpt>
      <trkpt lat="42.86897" lon="43.15839">
        <ele>1569.858111</ele>
        <time>2021-09-19T09:13:06.858Z</time>
      </trkpt>
      <trkpt lat="42.86734" lon="43.15985">
        <ele>1553.529585</ele>
        <time>2021-09-19T09:14:30.841Z</time>
      </trkpt>
      <trkpt lat="42.86591" lon="43.16184">
        <ele>1539.736737</ele>
        <time>2021-09-19T09:15:57.863Z</time>
      </trkpt>
      <trkpt lat="42.86424" lon="43.16274">
        <ele>1535.496677</ele>
        <time>2021-09-19T09:17:08.857Z</time>
      </trkpt>
      <trkpt lat="42.86233" lon="43.164">
        <ele>1534.346626</ele>
        <time>2021-09-19T09:18:06.859Z</time>
      </trkpt>
      <trkpt lat="42.86046" lon="43.16419">
        <ele>1537.353975</ele>
        <time>2021-09-19T09:19:13.859Z</time>
      </trkpt>
      <trkpt lat="42.85836" lon="43.16441">
        <ele>1556.758745</ele>
        <time>2021-09-19T09:21:06.859Z</time>
      </trkpt>
      <trkpt lat="42.85633" lon="43.16383">
        <ele>1537.857617</ele>
        <time>2021-09-19T09:24:58.855Z</time>
      </trkpt>
      <trkpt lat="42.85439" lon="43.16322">
        <ele>1521.526064</ele>
        <time>2021-09-19T09:26:26.859Z</time>
      </trkpt>
      <trkpt lat="42.85236" lon="43.16282">
        <ele>1518.623031</ele>
        <time>2021-09-19T09:27:44.864Z</time>
      </trkpt>
      <trkpt lat="42.85058" lon="43.16212">
        <ele>1520.02719</ele>
        <time>2021-09-19T09:29:11.860Z</time>
      </trkpt>
      <trkpt lat="42.84866" lon="43.16145">
        <ele>1535.158874</ele>
        <time>2021-09-19T09:30:45.849Z</time>
      </trkpt>
      <trkpt lat="42.84685" lon="43.16065">
        <ele>1505.995837</ele>
        <time>2021-09-19T09:32:01.861Z</time>
      </trkpt>
      <trkpt lat="42.84505" lon="43.15954">
        <ele>1487.284622</ele>
        <time>2021-09-19T09:33:40.855Z</time>
      </trkpt>
      <trkpt lat="42.8431" lon="43.15916">
        <ele>1486.49776</ele>
        <time>2021-09-19T09:34:52.866Z</time>
      </trkpt>
      <trkpt lat="42.84095" lon="43.15921">
        <ele>1488.133249</ele>
        <time>2021-09-19T09:35:35.866Z</time>
      </trkpt>
      <trkpt lat="42.83875" lon="43.15945">
        <ele>1493.2866</ele>
        <time>2021-09-19T09:36:16.840Z</time>
      </trkpt>
      <trkpt lat="42.83636" lon="43.15985">
        <ele>1484.835423</ele>
        <time>2021-09-19T09:36:58.858Z</time>
      </trkpt>
      <trkpt lat="42.83392" lon="43.16009">
        <ele>1474.299589</ele>
        <time>2021-09-19T09:37:38.857Z</time>
      </trkpt>
      <trkpt lat="42.83182" lon="43.15976">
        <ele>1469.387374</ele>
        <time>2021-09-19T09:38:28.837Z</time>
      </trkpt>
      <trkpt lat="42.82961" lon="43.15876">
        <ele>1465.962769</ele>
        <time>2021-09-19T09:39:17.890Z</time>
      </trkpt>
      <trkpt lat="42.82751" lon="43.15841">
        <ele>1490.851563</ele>
        <time>2021-09-19T09:40:34.886Z</time>
      </trkpt>
      <trkpt lat="42.82537" lon="43.15786">
        <ele>1479.578904</ele>
        <time>2021-09-19T09:41:29.877Z</time>
      </trkpt>
      <trkpt lat="42.8238" lon="43.1561">
        <ele>1415.760881</ele>
        <time>2021-09-19T09:42:39.872Z</time>
      </trkpt>
      <trkpt lat="42.82182" lon="43.15445">
        <ele>1413.181096</ele>
        <time>2021-09-19T09:43:28.863Z</time>
      </trkpt>
      <trkpt lat="42.81985" lon="43.15364">
        <ele>1439.01648</ele>
        <time>2021-09-19T09:51:46.855Z</time>
      </trkpt>
      <trkpt lat="42.81948" lon="43.15147">
        <ele>1435.829215</ele>
        <time>2021-09-19T09:52:56.880Z</time>
      </trkpt>
      <trkpt lat="42.82038" lon="43.14884">
        <ele>1432.06594</ele>
        <time>2021-09-19T09:53:51.862Z</time>
      </trkpt>
      <trkpt lat="42.82072" lon="43.14605">
        <ele>1424.613338</ele>
        <time>2021-09-19T09:54:32.899Z</time>
      </trkpt>
      <trkpt lat="42.82012" lon="43.14339">
        <ele>1413.915535</ele>
        <time>2021-09-19T09:55:49.871Z</time>
      </trkpt>
      <trkpt lat="42.82123" lon="43.14093">
        <ele>1413.523517</ele>
        <time>2021-09-19T09:57:05.849Z</time>
      </trkpt>
      <trkpt lat="42.82252" lon="43.13869">
        <ele>1416.389297</ele>
        <time>2021-09-19T09:58:16.855Z</time>
      </trkpt>
      <trkpt lat="42.82325" lon="43.13603">
        <ele>1416.773283</ele>
        <time>2021-09-19T09:59:25.860Z</time>
      </trkpt>
      <trkpt lat="42.82422" lon="43.13394">
        <ele>1427.933287</ele>
        <time>2021-09-19T10:01:51.831Z</time>
      </trkpt>
      <trkpt lat="42.82512" lon="43.13123">
        <ele>1430.98041</ele>
        <time>2021-09-19T10:03:02.861Z</time>
      </trkpt>
      <trkpt lat="42.82524" lon="43.12781">
        <ele>1402.63384</ele>
        <time>2021-09-19T10:03:42.852Z</time>
      </trkpt>
      <trkpt lat="42.82344" lon="43.12493">
        <ele>1385.248975</ele>
        <time>2021-09-19T10:04:22.905Z</time>
      </trkpt>
      <trkpt lat="42.82114" lon="43.12282">
        <ele>1379.46417</ele>
        <time>2021-09-19T10:05:04.859Z</time>
      </trkpt>
      <trkpt lat="42.81964" lon="43.12074">
        <ele>1383.792055</ele>
        <time>2021-09-19T10:06:03.859Z</time>
      </trkpt>
      <trkpt lat="42.81858" lon="43.11832">
        <ele>1387.728021</ele>
        <time>2021-09-19T10:07:34.849Z</time>
      </trkpt>
      <trkpt lat="42.81664" lon="43.1166">
        <ele>1386.702317</ele>
        <time>2021-09-19T10:08:28.863Z</time>
      </trkpt>
      <trkpt lat="42.81457" lon="43.11559">
        <ele>1397.42674</ele>
        <time>2021-09-19T10:09:42.872Z</time>
      </trkpt>
      <trkpt lat="42.8128" lon="43.11379">
        <ele>1393.252528</ele>
        <time>2021-09-19T10:10:46.841Z</time>
      </trkpt>
      <trkpt lat="42.81148" lon="43.11119">
        <ele>1372.590878</ele>
        <time>2021-09-19T10:11:26.854Z</time>
      </trkpt>
      <trkpt lat="42.80935" lon="43.10983">
        <ele>1356.424978</ele>
        <time>2021-09-19T10:12:08.858Z</time>
      </trkpt>
      <trkpt lat="42.80806" lon="43.10779">
        <ele>1352.13935</ele>
        <time>2021-09-19T10:12:48.869Z</time>
      </trkpt>
      <trkpt lat="42.8068" lon="43.10586">
        <ele>1352.008571</ele>
        <time>2021-09-19T10:13:31.855Z</time>
      </trkpt>
      <trkpt lat="42.8065" lon="43.10537">
        <ele>1346.094804</ele>
        <time>2021-09-19T10:15:10.861Z</time>
      </trkpt>
      <trkpt lat="42.8052" lon="43.10322">
        <ele>1344.471583</ele>
        <time>2021-09-19T10:16:17.888Z</time>
      </trkpt>
      <trkpt lat="42.80423" lon="43.10099">
        <ele>1346.142786</ele>
        <time>2021-09-19T10:18:06.862Z</time>
      </trkpt>
      <trkpt lat="42.80283" lon="43.09918">
        <ele>1357.14984</ele>
        <time>2021-09-19T10:20:12.884Z</time>
      </trkpt>
      <trkpt lat="42.80199" lon="43.09677">
        <ele>1348.730684</ele>
        <time>2021-09-19T10:21:23.870Z</time>
      </trkpt>
      <trkpt lat="42.80179" lon="43.09381">
        <ele>1354.054358</ele>
        <time>2021-09-19T10:22:37.870Z</time>
      </trkpt>
      <trkpt lat="42.80118" lon="43.09105">
        <ele>1355.428769</ele>
        <time>2021-09-19T10:25:04.849Z</time>
      </trkpt>
      <trkpt lat="42.80113" lon="43.08838">
        <ele>1360.243465</ele>
        <time>2021-09-19T10:26:27.887Z</time>
      </trkpt>
      <trkpt lat="42.79966" lon="43.08631">
        <ele>1360.269077</ele>
        <time>2021-09-19T10:27:23.857Z</time>
      </trkpt>
      <trkpt lat="42.79753" lon="43.08553">
        <ele>1346.320097</ele>
        <time>2021-09-19T10:28:01.867Z</time>
      </trkpt>
      <trkpt lat="42.79616" lon="43.08291">
        <ele>1330.184281</ele>
        <time>2021-09-19T10:29:00.890Z</time>
      </trkpt>
      <trkpt lat="42.79405" lon="43.08072">
        <ele>1324.87582</ele>
        <time>2021-09-19T10:29:37.881Z</time>
      </trkpt>
      <trkpt lat="42.79437" lon="43.07736">
        <ele>1317.170032</ele>
        <time>2021-09-19T10:30:25.859Z</time>
      </trkpt>
      <trkpt lat="42.79457" lon="43.07417">
        <ele>1311.667454</ele>
        <time>2021-09-19T10:31:01.858Z</time>
      </trkpt>
      <trkpt lat="42.79453" lon="43.0709">
        <ele>1306.871329</ele>
        <time>2021-09-19T10:31:42.849Z</time>
      </trkpt>
      <trkpt lat="42.79467" lon="43.06752">
        <ele>1304.174319</ele>
        <time>2021-09-19T10:32:25.856Z</time>
      </trkpt>
      <trkpt lat="42.79466" lon="43.06416">
        <ele>1304.958505</ele>
        <time>2021-09-19T10:33:11.865Z</time>
      </trkpt>
      <trkpt lat="42.79411" lon="43.06128">
        <ele>1294.771507</ele>
        <time>2021-09-19T10:33:52.869Z</time>
      </trkpt>
      <trkpt lat="42.79372" lon="43.05775">
        <ele>1285.70711</ele>
        <time>2021-09-19T10:34:32.852Z</time>
      </trkpt>
      <trkpt lat="42.79335" lon="43.05477">
        <ele>1281.52947</ele>
        <time>2021-09-19T10:35:20.867Z</time>
      </trkpt>
      <trkpt lat="42.79284" lon="43.05164">
        <ele>1286.42614</ele>
        <time>2021-09-19T10:36:21.904Z</time>
      </trkpt>
      <trkpt lat="42.79311" lon="43.04873">
        <ele>1295.489239</ele>
        <time>2021-09-19T10:37:35.858Z</time>
      </trkpt>
      <trkpt lat="42.7935" lon="43.0459">
        <ele>1295.30872</ele>
        <time>2021-09-19T10:38:22.858Z</time>
      </trkpt>
      <trkpt lat="42.79384" lon="43.04302">
        <ele>1295.222854</ele>
        <time>2021-09-19T10:39:12.861Z</time>
      </trkpt>
      <trkpt lat="42.79373" lon="43.04032">
        <ele>1299.556054</ele>
        <time>2021-09-19T10:41:10.873Z</time>
      </trkpt>
      <trkpt lat="42.79368" lon="43.03734">
        <ele>1295.553936</ele>
        <time>2021-09-19T10:42:31.880Z</time>
      </trkpt>
      <trkpt lat="42.79365" lon="43.03441">
        <ele>1286.467789</ele>
        <time>2021-09-19T10:42:51.852Z</time>
      </trkpt>
      <trkpt lat="42.79394" lon="43.03058">
        <ele>1280.236108</ele>
        <time>2021-09-19T10:43:32.848Z</time>
      </trkpt>
      <trkpt lat="42.79387" lon="43.0277">
        <ele>1292.435635</ele>
        <time>2021-09-19T10:44:42.848Z</time>
      </trkpt>
      <trkpt lat="42.79411" lon="43.02498">
        <ele>1307.362584</ele>
        <time>2021-09-19T10:46:34.866Z</time>
      </trkpt>
      <trkpt lat="42.79446" lon="43.02254">
        <ele>1309.738091</ele>
        <time>2021-09-19T10:48:48.852Z</time>
      </trkpt>
      <trkpt lat="42.79479" lon="43.02003">
        <ele>1324.76891</ele>
        <time>2021-09-19T10:50:54.856Z</time>
      </trkpt>
      <trkpt lat="42.79436" lon="43.01744">
        <ele>1333.821633</ele>
        <time>2021-09-19T10:52:55.861Z</time>
      </trkpt>
      <trkpt lat="42.7931" lon="43.01478">
        <ele>1316.81446</ele>
        <time>2021-09-19T10:53:38.875Z</time>
      </trkpt>
      <trkpt lat="42.7919" lon="43.01186">
        <ele>1297.679828</ele>
        <time>2021-09-19T10:54:07.873Z</time>
      </trkpt>
      <trkpt lat="42.79024" lon="43.00843">
        <ele>1267.187193</ele>
        <time>2021-09-19T10:54:48.860Z</time>
      </trkpt>
      <trkpt lat="42.78992" lon="43.00669">
        <ele>1241.578172</ele>
        <time>2021-09-19T10:55:28.855Z</time>
      </trkpt>
      <trkpt lat="42.78848" lon="43.00403">
        <ele>1226.259607</ele>
        <time>2021-09-19T10:56:07.873Z</time>
      </trkpt>
      <trkpt lat="42.78897" lon="43.00117">
        <ele>1227.240227</ele>
        <time>2021-09-19T10:57:03.902Z</time>
      </trkpt>
      <trkpt lat="42.79011" lon="42.99836">
        <ele>1219.481508</ele>
        <time>2021-09-19T10:58:06.859Z</time>
      </trkpt>
      <trkpt lat="42.79191" lon="42.99527">
        <ele>1204.950905</ele>
        <time>2021-09-19T10:58:41.856Z</time>
      </trkpt>
      <trkpt lat="42.79287" lon="42.99249">
        <ele>1199.048326</ele>
        <time>2021-09-19T10:59:30.873Z</time>
      </trkpt>
      <trkpt lat="42.79354" lon="42.98962">
        <ele>1200.380266</ele>
        <time>2021-09-19T11:00:26.876Z</time>
      </trkpt>
      <trkpt lat="42.79453" lon="42.9868">
        <ele>1197.247982</ele>
        <time>2021-09-19T11:01:21.891Z</time>
      </trkpt>
      <trkpt lat="42.79568" lon="42.98425">
        <ele>1192.271931</ele>
        <time>2021-09-19T11:02:07.870Z</time>
      </trkpt>
      <trkpt lat="42.79609" lon="42.98132">
        <ele>1194.844677</ele>
        <time>2021-09-19T11:03:14.863Z</time>
      </trkpt>
      <trkpt lat="42.79739" lon="42.97858">
        <ele>1191.145</ele>
        <time>2021-09-19T11:03:46.859Z</time>
      </trkpt>
      <trkpt lat="42.79965" lon="42.97569">
        <ele>1179.221796</ele>
        <time>2021-09-19T11:04:26.853Z</time>
      </trkpt>
      <trkpt lat="42.80211" lon="42.97363">
        <ele>1175.614933</ele>
        <time>2021-09-19T11:05:00.895Z</time>
      </trkpt>
      <trkpt lat="42.80446" lon="42.9719">
        <ele>1172.059324</ele>
        <time>2021-09-19T11:05:40.865Z</time>
      </trkpt>
      <trkpt lat="42.80673" lon="42.97095">
        <ele>1175.870515</ele>
        <time>2021-09-19T11:10:12.901Z</time>
      </trkpt>
      <trkpt lat="42.80858" lon="42.96983">
        <ele>1180.626752</ele>
        <time>2021-09-19T11:11:51.848Z</time>
      </trkpt>
      <trkpt lat="42.80993" lon="42.96775">
        <ele>1179.692786</ele>
        <time>2021-09-19T11:13:32.867Z</time>
      </trkpt>
      <trkpt lat="42.8117" lon="42.96562">
        <ele>1172.212975</ele>
        <time>2021-09-19T11:14:02.862Z</time>
      </trkpt>
      <trkpt lat="42.81407" lon="42.96456">
        <ele>1172.946213</ele>
        <time>2021-09-19T11:14:55.876Z</time>
      </trkpt>
      <trkpt lat="42.81578" lon="42.96241">
        <ele>1162.259198</ele>
        <time>2021-09-19T11:15:24.862Z</time>
      </trkpt>
      <trkpt lat="42.8174" lon="42.95961">
        <ele>1153.387498</ele>
        <time>2021-09-19T11:16:03.863Z</time>
      </trkpt>
      <trkpt lat="42.81983" lon="42.95788">
        <ele>1160.694125</ele>
        <time>2021-09-19T11:16:41.882Z</time>
      </trkpt>
      <trkpt lat="42.82157" lon="42.95602">
        <ele>1165.843029</ele>
        <time>2021-09-19T11:17:52.859Z</time>
      </trkpt>
      <trkpt lat="42.82278" lon="42.95382">
        <ele>1158.12884</ele>
        <time>2021-09-19T11:19:07.867Z</time>
      </trkpt>
      <trkpt lat="42.82477" lon="42.95241">
        <ele>1146.503115</ele>
        <time>2021-09-19T11:20:05.870Z</time>
      </trkpt>
      <trkpt lat="42.82647" lon="42.9506">
        <ele>1136.447824</ele>
        <time>2021-09-19T11:21:02.868Z</time>
      </trkpt>
      <trkpt lat="42.8277" lon="42.94827">
        <ele>1147.487412</ele>
        <time>2021-09-19T11:22:16.858Z</time>
      </trkpt>
      <trkpt lat="42.82875" lon="42.94551">
        <ele>1143.101345</ele>
        <time>2021-09-19T11:23:00.885Z</time>
      </trkpt>
      <trkpt lat="42.82849" lon="42.9425">
        <ele>1133.218595</ele>
        <time>2021-09-19T11:23:41.866Z</time>
      </trkpt>
      <trkpt lat="42.82905" lon="42.93903">
        <ele>1123.802675</ele>
        <time>2021-09-19T11:24:23.853Z</time>
      </trkpt>
      <trkpt lat="42.83002" lon="42.93651">
        <ele>1122.068321</ele>
        <time>2021-09-19T11:25:16.864Z</time>
      </trkpt>
      <trkpt lat="42.83108" lon="42.93381">
        <ele>1126.652904</ele>
        <time>2021-09-19T11:26:11.866Z</time>
      </trkpt>
      <trkpt lat="42.83169" lon="42.93094">
        <ele>1121.73352</ele>
        <time>2021-09-19T11:26:54.871Z</time>
      </trkpt>
      <trkpt lat="42.8321" lon="42.92799">
        <ele>1121.80611</ele>
        <time>2021-09-19T11:27:45.870Z</time>
      </trkpt>
      <trkpt lat="42.83261" lon="42.92522">
        <ele>1124.138899</ele>
        <time>2021-09-19T11:28:37.857Z</time>
      </trkpt>
      <trkpt lat="42.83343" lon="42.92269">
        <ele>1115.975</ele>
        <time>2021-09-19T11:29:59.852Z</time>
      </trkpt>
      <trkpt lat="42.83432" lon="42.91967">
        <ele>1112.871026</ele>
        <time>2021-09-19T11:30:52.863Z</time>
      </trkpt>
      <trkpt lat="42.83493" lon="42.91633">
        <ele>1112.135078</ele>
        <time>2021-09-19T11:31:46.868Z</time>
      </trkpt>
      <trkpt lat="42.83453" lon="42.91286">
        <ele>1100.792462</ele>
        <time>2021-09-19T11:32:29.865Z</time>
      </trkpt>
      <trkpt lat="42.83385" lon="42.90985">
        <ele>1097.587616</ele>
        <time>2021-09-19T11:33:20.909Z</time>
      </trkpt>
      <trkpt lat="42.83405" lon="42.90696">
        <ele>1091.820593</ele>
        <time>2021-09-19T11:33:42.900Z</time>
      </trkpt>
      <trkpt lat="42.8345" lon="42.90356">
        <ele>1086.401495</ele>
        <time>2021-09-19T11:34:13.862Z</time>
      </trkpt>
      <trkpt lat="42.83559" lon="42.90124">
        <ele>1090.572371</ele>
        <time>2021-09-19T11:35:48.860Z</time>
      </trkpt>
      <trkpt lat="42.83727" lon="42.9">
        <ele>1096.967688</ele>
        <time>2021-09-19T11:37:43.868Z</time>
      </trkpt>
      <trkpt lat="42.83873" lon="42.89716">
        <ele>1093.809639</ele>
        <time>2021-09-19T11:38:27.871Z</time>
      </trkpt>
      <trkpt lat="42.83955" lon="42.8931">
        <ele>1079.150424</ele>
        <time>2021-09-19T11:39:06.870Z</time>
      </trkpt>
      <trkpt lat="42.83933" lon="42.8899">
        <ele>1071.319397</ele>
        <time>2021-09-19T11:39:47.868Z</time>
      </trkpt>
      <trkpt lat="42.83881" lon="42.88709">
        <ele>1081.760395</ele>
        <time>2021-09-19T11:40:58.870Z</time>
      </trkpt>
      <trkpt lat="42.83901" lon="42.88355">
        <ele>1084.242566</ele>
        <time>2021-09-19T11:41:46.864Z</time>
      </trkpt>
      <trkpt lat="42.8399" lon="42.88119">
        <ele>1091.519886</ele>
        <time>2021-09-19T11:43:33.857Z</time>
      </trkpt>
      <trkpt lat="42.84059" lon="42.87782">
        <ele>1078.156468</ele>
        <time>2021-09-19T11:44:19.869Z</time>
      </trkpt>
      <trkpt lat="42.84176" lon="42.87489">
        <ele>1066.127231</ele>
        <time>2021-09-19T11:44:50.888Z</time>
      </trkpt>
      <trkpt lat="42.84296" lon="42.87246">
        <ele>1065.039839</ele>
        <time>2021-09-19T11:46:20.871Z</time>
      </trkpt>
      <trkpt lat="42.84367" lon="42.86951">
        <ele>1056.013112</ele>
        <time>2021-09-19T11:47:08.869Z</time>
      </trkpt>
      <trkpt lat="42.84302" lon="42.86623">
        <ele>1044.583331</ele>
        <time>2021-09-19T11:47:46.869Z</time>
      </trkpt>
      <trkpt lat="42.84337" lon="42.8632">
        <ele>1038.919788</ele>
        <time>2021-09-19T11:48:35.880Z</time>
      </trkpt>
      <trkpt lat="42.84441" lon="42.86068">
        <ele>1039.330028</ele>
        <time>2021-09-19T11:49:30.869Z</time>
      </trkpt>
      <trkpt lat="42.84583" lon="42.85835">
        <ele>1036.217386</ele>
        <time>2021-09-19T11:50:15.867Z</time>
      </trkpt>
      <trkpt lat="42.84659" lon="42.85532">
        <ele>1033.952437</ele>
        <time>2021-09-19T11:50:46.861Z</time>
      </trkpt>
      <trkpt lat="42.84708" lon="42.85262">
        <ele>1047.49261</ele>
        <time>2021-09-19T11:53:10.848Z</time>
      </trkpt>
      <trkpt lat="42.8469" lon="42.84991">
        <ele>1064.498164</ele>
        <time>2021-09-19T11:54:52.847Z</time>
      </trkpt>
      <trkpt lat="42.846" lon="42.84753">
        <ele>1070.058418</ele>
        <time>2021-09-19T11:56:28.873Z</time>
      </trkpt>
      <trkpt lat="42.84551" lon="42.8449">
        <ele>1072.789885</ele>
        <time>2021-09-19T11:58:13.871Z</time>
      </trkpt>
      <trkpt lat="42.8456" lon="42.84167">
        <ele>1071.151296</ele>
        <time>2021-09-19T11:59:04.900Z</time>
      </trkpt>
      <trkpt lat="42.84544" lon="42.8386">
        <ele>1057.95195</ele>
        <time>2021-09-19T11:59:30.864Z</time>
      </trkpt>
      <trkpt lat="42.8449" lon="42.83448">
        <ele>1030.720122</ele>
        <time>2021-09-19T12:00:07.910Z</time>
      </trkpt>
      <trkpt lat="42.84473" lon="42.83049">
        <ele>1010.691415</ele>
        <time>2021-09-19T12:00:47.858Z</time>
      </trkpt>
      <trkpt lat="42.84275" lon="42.828">
        <ele>1001.30438</ele>
        <time>2021-09-19T12:01:29.872Z</time>
      </trkpt>
      <trkpt lat="42.8415" lon="42.82517">
        <ele>1007.979381</ele>
        <time>2021-09-19T12:02:16.855Z</time>
      </trkpt>
      <trkpt lat="42.83994" lon="42.82322">
        <ele>1003.631843</ele>
        <time>2021-09-19T12:03:19.872Z</time>
      </trkpt>
      <trkpt lat="42.83841" lon="42.82098">
        <ele>992.673857</ele>
        <time>2021-09-19T12:04:07.868Z</time>
      </trkpt>
      <trkpt lat="42.8365" lon="42.81881">
        <ele>975.22375</ele>
        <time>2021-09-19T12:04:52.883Z</time>
      </trkpt>
      <trkpt lat="42.83477" lon="42.81715">
        <ele>949.491312</ele>
        <time>2021-09-19T12:05:48.863Z</time>
      </trkpt>
      <trkpt lat="42.83265" lon="42.81543">
        <ele>957.073161</ele>
        <time>2021-09-19T12:06:34.865Z</time>
      </trkpt>
      <trkpt lat="42.8307" lon="42.81457">
        <ele>965.30171</ele>
        <time>2021-09-19T12:08:02.870Z</time>
      </trkpt>
      <trkpt lat="42.82855" lon="42.81303">
        <ele>949.42883</ele>
        <time>2021-09-19T12:08:33.862Z</time>
      </trkpt>
      <trkpt lat="42.82727" lon="42.81029">
        <ele>926.822242</ele>
        <time>2021-09-19T12:09:07.863Z</time>
      </trkpt>
      <trkpt lat="42.82525" lon="42.80805">
        <ele>913.264526</ele>
        <time>2021-09-19T12:09:42.867Z</time>
      </trkpt>
      <trkpt lat="42.82392" lon="42.80536">
        <ele>909.090801</ele>
        <time>2021-09-19T12:10:26.874Z</time>
      </trkpt>
      <trkpt lat="42.82251" lon="42.80269">
        <ele>908.434395</ele>
        <time>2021-09-19T12:10:50.872Z</time>
      </trkpt>
      <trkpt lat="42.82141" lon="42.79968">
        <ele>901.292323</ele>
        <time>2021-09-19T12:11:16.898Z</time>
      </trkpt>
      <trkpt lat="42.82008" lon="42.79759">
        <ele>906.880203</ele>
        <time>2021-09-19T12:12:37.857Z</time>
      </trkpt>
      <trkpt lat="42.81891" lon="42.79472">
        <ele>903.671353</ele>
        <time>2021-09-19T12:13:27.868Z</time>
      </trkpt>
      <trkpt lat="42.81765" lon="42.79169">
        <ele>891.458844</ele>
        <time>2021-09-19T12:13:50.869Z</time>
      </trkpt>
      <trkpt lat="42.81637" lon="42.78944">
        <ele>887.73681</ele>
        <time>2021-09-19T12:14:50.868Z</time>
      </trkpt>
      <trkpt lat="42.8147" lon="42.78754">
        <ele>877.235639</ele>
        <time>2021-09-19T12:15:34.881Z</time>
      </trkpt>
      <trkpt lat="42.81297" lon="42.78538">
        <ele>869.499986</ele>
        <time>2021-09-19T12:16:19.875Z</time>
      </trkpt>
      <trkpt lat="42.81082" lon="42.78355">
        <ele>865.123821</ele>
        <time>2021-09-19T12:17:20.859Z</time>
      </trkpt>
      <trkpt lat="42.80891" lon="42.78129">
        <ele>855.358311</ele>
        <time>2021-09-19T12:17:53.901Z</time>
      </trkpt>
      <trkpt lat="42.80703" lon="42.77974">
        <ele>852.795255</ele>
        <time>2021-09-19T12:18:38.880Z</time>
      </trkpt>
      <trkpt lat="42.80486" lon="42.77771">
        <ele>842.364797</ele>
        <time>2021-09-19T12:19:14.908Z</time>
      </trkpt>
      <trkpt lat="42.80287" lon="42.77527">
        <ele>835.291031</ele>
        <time>2021-09-19T12:19:55.881Z</time>
      </trkpt>
      <trkpt lat="42.80231" lon="42.77216">
        <ele>831.240364</ele>
        <time>2021-09-19T12:20:36.864Z</time>
      </trkpt>
      <trkpt lat="42.8023" lon="42.76935">
        <ele>828.224923</ele>
        <time>2021-09-19T12:21:26.855Z</time>
      </trkpt>
      <trkpt lat="42.80286" lon="42.76641">
        <ele>830.429862</ele>
        <time>2021-09-19T12:36:02.874Z</time>
      </trkpt>
      <trkpt lat="42.8021" lon="42.76397">
        <ele>833.796197</ele>
        <time>2021-09-19T12:37:32.874Z</time>
      </trkpt>
      <trkpt lat="42.80165" lon="42.76128">
        <ele>829.763097</ele>
        <time>2021-09-19T12:39:01.880Z</time>
      </trkpt>
      <trkpt lat="42.80062" lon="42.75892">
        <ele>815.506912</ele>
        <time>2021-09-19T12:40:11.905Z</time>
      </trkpt>
      <trkpt lat="42.79864" lon="42.75865">
        <ele>815.703326</ele>
        <time>2021-09-19T12:41:33.866Z</time>
      </trkpt>
      <trkpt lat="42.7961" lon="42.75819">
        <ele>809.076561</ele>
        <time>2021-09-19T12:42:14.865Z</time>
      </trkpt>
      <trkpt lat="42.79432" lon="42.75541">
        <ele>791.483142</ele>
        <time>2021-09-19T12:42:54.905Z</time>
      </trkpt>
      <trkpt lat="42.79281" lon="42.7522">
        <ele>781.133967</ele>
        <time>2021-09-19T12:43:31.871Z</time>
      </trkpt>
      <trkpt lat="42.7921" lon="42.74942">
        <ele>784.862313</ele>
        <time>2021-09-19T12:44:28.856Z</time>
      </trkpt>
      <trkpt lat="42.79122" lon="42.74686">
        <ele>781.969364</ele>
        <time>2021-09-19T12:45:24.907Z</time>
      </trkpt>
      <trkpt lat="42.79073" lon="42.74378">
        <ele>769.799812</ele>
        <time>2021-09-19T12:46:16.863Z</time>
      </trkpt>
      <trkpt lat="42.79" lon="42.74006">
        <ele>764.343746</ele>
        <time>2021-09-19T12:46:58.917Z</time>
      </trkpt>
      <trkpt lat="42.79032" lon="42.73685">
        <ele>770.235283</ele>
        <time>2021-09-19T12:47:46.874Z</time>
      </trkpt>
      <trkpt lat="42.79049" lon="42.73393">
        <ele>769.55613</ele>
        <time>2021-09-19T12:48:41.871Z</time>
      </trkpt>
      <trkpt lat="42.78924" lon="42.73154">
        <ele>766.996783</ele>
        <time>2021-09-19T12:49:36.871Z</time>
      </trkpt>
      <trkpt lat="42.78867" lon="42.72875">
        <ele>762.372842</ele>
        <time>2021-09-19T12:50:32.875Z</time>
      </trkpt>
      <trkpt lat="42.78876" lon="42.72564">
        <ele>758.545568</ele>
        <time>2021-09-19T12:51:25.897Z</time>
      </trkpt>
      <trkpt lat="42.78888" lon="42.72344">
        <ele>755.931654</ele>
        <time>2021-09-19T12:53:24.860Z</time>
      </trkpt>
      <trkpt lat="42.78894" lon="42.72045">
        <ele>756.366484</ele>
        <time>2021-09-19T12:54:39.860Z</time>
      </trkpt>
      <trkpt lat="42.78778" lon="42.71786">
        <ele>754.181903</ele>
        <time>2021-09-19T12:56:06.877Z</time>
      </trkpt>
      <trkpt lat="42.78566" lon="42.71969">
        <ele>749.574897</ele>
        <time>2021-09-19T12:56:46.890Z</time>
      </trkpt>
      <trkpt lat="42.78378" lon="42.72108">
        <ele>743.795233</ele>
        <time>2021-09-19T12:57:28.856Z</time>
      </trkpt>
      <trkpt lat="42.7814" lon="42.7215">
        <ele>735.134371</ele>
        <time>2021-09-19T12:58:08.851Z</time>
      </trkpt>
      <trkpt lat="42.77936" lon="42.72104">
        <ele>728.982186</ele>
        <time>2021-09-19T12:58:48.871Z</time>
      </trkpt>
      <trkpt lat="42.77719" lon="42.72288">
        <ele>733.428713</ele>
        <time>2021-09-19T12:59:28.871Z</time>
      </trkpt>
      <trkpt lat="42.77538" lon="42.72433">
        <ele>739.984856</ele>
        <time>2021-09-19T13:00:26.876Z</time>
      </trkpt>
      <trkpt lat="42.77331" lon="42.72398">
        <ele>736.264571</ele>
        <time>2021-09-19T13:01:19.882Z</time>
      </trkpt>
      <trkpt lat="42.7712" lon="42.7235">
        <ele>722.255726</ele>
        <time>2021-09-19T13:01:42.859Z</time>
      </trkpt>
      <trkpt lat="42.7694" lon="42.72521">
        <ele>709.648655</ele>
        <time>2021-09-19T13:02:34.884Z</time>
      </trkpt>
      <trkpt lat="42.76713" lon="42.72341">
        <ele>711.676854</ele>
        <time>2021-09-19T13:03:14.862Z</time>
      </trkpt>
      <trkpt lat="42.7653" lon="42.72547">
        <ele>716.14133</ele>
        <time>2021-09-19T13:03:56.873Z</time>
      </trkpt>
      <trkpt lat="42.76497" lon="42.72874">
        <ele>702.016264</ele>
        <time>2021-09-19T13:04:36.872Z</time>
      </trkpt>
      <trkpt lat="42.76524" lon="42.73215">
        <ele>696.886334</ele>
        <time>2021-09-19T13:05:20.894Z</time>
      </trkpt>
      <trkpt lat="42.76652" lon="42.73457">
        <ele>698.478775</ele>
        <time>2021-09-19T13:06:02.891Z</time>
      </trkpt>
      <trkpt lat="42.76859" lon="42.73582">
        <ele>707.875138</ele>
        <time>2021-09-19T13:06:54.880Z</time>
      </trkpt>
      <trkpt lat="42.76825" lon="42.73885">
        <ele>698.936608</ele>
        <time>2021-09-19T13:07:34.872Z</time>
      </trkpt>
      <trkpt lat="42.76638" lon="42.74191">
        <ele>691.792263</ele>
        <time>2021-09-19T13:08:14.898Z</time>
      </trkpt>
      <trkpt lat="42.76532" lon="42.74462">
        <ele>685.798082</ele>
        <time>2021-09-19T13:08:58.868Z</time>
      </trkpt>
      <trkpt lat="42.76355" lon="42.74629">
        <ele>686.560402</ele>
        <time>2021-09-19T13:09:41.868Z</time>
      </trkpt>
      <trkpt lat="42.76222" lon="42.7484">
        <ele>686.765943</ele>
        <time>2021-09-19T13:10:29.851Z</time>
      </trkpt>
      <trkpt lat="42.76128" lon="42.75087">
        <ele>689.918405</ele>
        <time>2021-09-19T13:12:06.865Z</time>
      </trkpt>
      <trkpt lat="42.75939" lon="42.75331">
        <ele>682.431223</ele>
        <time>2021-09-19T13:12:41.872Z</time>
      </trkpt>
      <trkpt lat="42.7566" lon="42.7534">
        <ele>689.990284</ele>
        <time>2021-09-19T13:13:19.856Z</time>
      </trkpt>
      <trkpt lat="42.75507" lon="42.75546">
        <ele>682.248778</ele>
        <time>2021-09-19T13:14:25.882Z</time>
      </trkpt>
      <trkpt lat="42.75336" lon="42.75743">
        <ele>694.816475</ele>
        <time>2021-09-19T13:16:04.875Z</time>
      </trkpt>
      <trkpt lat="42.75034" lon="42.75799">
        <ele>700.160115</ele>
        <time>2021-09-19T13:16:44.870Z</time>
      </trkpt>
      <trkpt lat="42.74789" lon="42.75925">
        <ele>691.71696</ele>
        <time>2021-09-19T13:17:23.864Z</time>
      </trkpt>
      <trkpt lat="42.74586" lon="42.75853">
        <ele>674.795578</ele>
        <time>2021-09-19T13:18:43.869Z</time>
      </trkpt>
      <trkpt lat="42.74457" lon="42.76055">
        <ele>685.668744</ele>
        <time>2021-09-19T13:20:07.876Z</time>
      </trkpt>
      <trkpt lat="42.74264" lon="42.75826">
        <ele>674.586214</ele>
        <time>2021-09-19T13:20:49.873Z</time>
      </trkpt>
      <trkpt lat="42.74043" lon="42.75732">
        <ele>652.828111</ele>
        <time>2021-09-19T13:21:14.854Z</time>
      </trkpt>
      <trkpt lat="42.73824" lon="42.75686">
        <ele>632.059729</ele>
        <time>2021-09-19T13:21:42.868Z</time>
      </trkpt>
      <trkpt lat="42.73622" lon="42.75661">
        <ele>637.821775</ele>
        <time>2021-09-19T13:22:58.864Z</time>
      </trkpt>
      <trkpt lat="42.73428" lon="42.75509">
        <ele>639.294264</ele>
        <time>2021-09-19T13:23:33.871Z</time>
      </trkpt>
      <trkpt lat="42.73185" lon="42.75518">
        <ele>631.206678</ele>
        <time>2021-09-19T13:24:04.861Z</time>
      </trkpt>
      <trkpt lat="42.73005" lon="42.75807">
        <ele>617.060292</ele>
        <time>2021-09-19T13:24:44.873Z</time>
      </trkpt>
      <trkpt lat="42.7291" lon="42.76062">
        <ele>616.298308</ele>
        <time>2021-09-19T13:25:35.877Z</time>
      </trkpt>
      <trkpt lat="42.72721" lon="42.76133">
        <ele>613.558954</ele>
        <time>2021-09-19T13:26:16.866Z</time>
      </trkpt>
      <trkpt lat="42.72528" lon="42.76015">
        <ele>613.333986</ele>
        <time>2021-09-19T13:27:09.888Z</time>
      </trkpt>
      <trkpt lat="42.72313" lon="42.76027">
        <ele>604.978476</ele>
        <time>2021-09-19T13:27:51.876Z</time>
      </trkpt>
      <trkpt lat="42.72071" lon="42.75966">
        <ele>608.218435</ele>
        <time>2021-09-19T13:28:36.907Z</time>
      </trkpt>
      <trkpt lat="42.71837" lon="42.76052">
        <ele>600.646663</ele>
        <time>2021-09-19T13:29:16.889Z</time>
      </trkpt>
      <trkpt lat="42.71597" lon="42.76027">
        <ele>597.477221</ele>
        <time>2021-09-19T13:29:57.881Z</time>
      </trkpt>
      <trkpt lat="42.71354" lon="42.76114">
        <ele>594.384189</ele>
        <time>2021-09-19T13:30:39.856Z</time>
      </trkpt>
      <trkpt lat="42.71141" lon="42.7605">
        <ele>602.801025</ele>
        <time>2021-09-19T13:31:39.866Z</time>
      </trkpt>
      <trkpt lat="42.70927" lon="42.76023">
        <ele>598.368348</ele>
        <time>2021-09-19T13:37:58.875Z</time>
      </trkpt>
      <trkpt lat="42.70827" lon="42.76265">
        <ele>600.512555</ele>
        <time>2021-09-19T13:38:51.871Z</time>
      </trkpt>
      <trkpt lat="42.707" lon="42.76547">
        <ele>593.736571</ele>
        <time>2021-09-19T13:39:40.882Z</time>
      </trkpt>
      <trkpt lat="42.70447" lon="42.76568">
        <ele>582.605654</ele>
        <time>2021-09-19T13:40:13.869Z</time>
      </trkpt>
      <trkpt lat="42.70225" lon="42.76571">
        <ele>588.547384</ele>
        <time>2021-09-19T13:41:20.875Z</time>
      </trkpt>
      <trkpt lat="42.7004" lon="42.76436">
        <ele>591.157058</ele>
        <time>2021-09-19T13:42:28.869Z</time>
      </trkpt>
      <trkpt lat="42.69941" lon="42.76107">
        <ele>583.973136</ele>
        <time>2021-09-19T13:43:10.881Z</time>
      </trkpt>
      <trkpt lat="42.69646" lon="42.76063">
        <ele>572.642565</ele>
        <time>2021-09-19T13:43:49.877Z</time>
      </trkpt>
      <trkpt lat="42.69404" lon="42.76063">
        <ele>567.881307</ele>
        <time>2021-09-19T13:44:29.865Z</time>
      </trkpt>
      <trkpt lat="42.69206" lon="42.76086">
        <ele>569.528812</ele>
        <time>2021-09-19T13:45:10.873Z</time>
      </trkpt>
      <trkpt lat="42.68994" lon="42.76085">
        <ele>568.947564</ele>
        <time>2021-09-19T13:46:01.881Z</time>
      </trkpt>
      <trkpt lat="42.68804" lon="42.76201">
        <ele>568.293766</ele>
        <time>2021-09-19T13:46:41.868Z</time>
      </trkpt>
      <trkpt lat="42.68618" lon="42.76325">
        <ele>568.587978</ele>
        <time>2021-09-19T13:47:29.870Z</time>
      </trkpt>
      <trkpt lat="42.68455" lon="42.76535">
        <ele>570.040836</ele>
        <time>2021-09-19T13:48:14.877Z</time>
      </trkpt>
      <trkpt lat="42.68405" lon="42.76757">
        <ele>584.140131</ele>
        <time>2021-09-19T13:50:40.904Z</time>
      </trkpt>
      <trkpt lat="42.68197" lon="42.76903">
        <ele>581.683553</ele>
        <time>2021-09-19T13:51:53.900Z</time>
      </trkpt>
      <trkpt lat="42.67962" lon="42.76834">
        <ele>567.326951</ele>
        <time>2021-09-19T13:52:17.883Z</time>
      </trkpt>
      <trkpt lat="42.67731" lon="42.76724">
        <ele>558.551994</ele>
        <time>2021-09-19T13:52:51.896Z</time>
      </trkpt>
      <trkpt lat="42.67532" lon="42.76721">
        <ele>564.006913</ele>
        <time>2021-09-19T13:54:31.871Z</time>
      </trkpt>
      <trkpt lat="42.67324" lon="42.7673">
        <ele>564.919932</ele>
        <time>2021-09-19T13:55:24.907Z</time>
      </trkpt>
      <trkpt lat="42.67117" lon="42.7679">
        <ele>568.392795</ele>
        <time>2021-09-19T13:56:45.859Z</time>
      </trkpt>
      <trkpt lat="42.66877" lon="42.76855">
        <ele>557.364626</ele>
        <time>2021-09-19T13:57:20.881Z</time>
      </trkpt>
      <trkpt lat="42.66648" lon="42.76755">
        <ele>546.156084</ele>
        <time>2021-09-19T13:58:04.867Z</time>
      </trkpt>
      <trkpt lat="42.66421" lon="42.76847">
        <ele>545.296805</ele>
        <time>2021-09-19T13:59:15.875Z</time>
      </trkpt>
      <trkpt lat="42.6623" lon="42.76818">
        <ele>542.305468</ele>
        <time>2021-09-19T13:59:35.902Z</time>
      </trkpt>
      <trkpt lat="42.66018" lon="42.76827">
        <ele>545.91654</ele>
        <time>2021-09-19T14:00:38.868Z</time>
      </trkpt>
      <trkpt lat="42.6583" lon="42.76909">
        <ele>551.16584</ele>
        <time>2021-09-19T14:02:04.867Z</time>
      </trkpt>
      <trkpt lat="42.65682" lon="42.77121">
        <ele>549.694422</ele>
        <time>2021-09-19T14:02:50.873Z</time>
      </trkpt>
      <trkpt lat="42.65523" lon="42.77373">
        <ele>541.242451</ele>
        <time>2021-09-19T14:03:26.870Z</time>
      </trkpt>
      <trkpt lat="42.65388" lon="42.77238">
        <ele>533.494714</ele>
        <time>2021-09-19T14:11:17.874Z</time>
      </trkpt>
      <trkpt lat="42.65173" lon="42.77163">
        <ele>521.246546</ele>
        <time>2021-09-19T14:12:05.904Z</time>
      </trkpt>
      <trkpt lat="42.64976" lon="42.77057">
        <ele>520.114583</ele>
        <time>2021-09-19T14:12:49.875Z</time>
      </trkpt>
      <trkpt lat="42.64802" lon="42.76883">
        <ele>521.80735</ele>
        <time>2021-09-19T14:13:34.889Z</time>
      </trkpt>
      <trkpt lat="42.64636" lon="42.76702">
        <ele>516.70493</ele>
        <time>2021-09-19T14:14:35.893Z</time>
      </trkpt>
      <trkpt lat="42.6448" lon="42.76476">
        <ele>513.82764</ele>
        <time>2021-09-19T14:15:18.873Z</time>
      </trkpt>
      <trkpt lat="42.64261" lon="42.76345">
        <ele>510.314858</ele>
        <time>2021-09-19T14:16:15.892Z</time>
      </trkpt>
      <trkpt lat="42.64073" lon="42.76162">
        <ele>510.768101</ele>
        <time>2021-09-19T14:17:14.908Z</time>
      </trkpt>
      <trkpt lat="42.63889" lon="42.75964">
        <ele>510.955905</ele>
        <time>2021-09-19T14:18:11.870Z</time>
      </trkpt>
      <trkpt lat="42.63696" lon="42.75823">
        <ele>508.912859</ele>
        <time>2021-09-19T14:19:16.871Z</time>
      </trkpt>
      <trkpt lat="42.63474" lon="42.75699">
        <ele>505.739136</ele>
        <time>2021-09-19T14:19:58.880Z</time>
      </trkpt>
      <trkpt lat="42.63385" lon="42.75438">
        <ele>507.932222</ele>
        <time>2021-09-19T14:20:51.887Z</time>
      </trkpt>
      <trkpt lat="42.63246" lon="42.75181">
        <ele>507.774605</ele>
        <time>2021-09-19T14:21:48.884Z</time>
      </trkpt>
      <trkpt lat="42.631" lon="42.74956">
        <ele>506.554333</ele>
        <time>2021-09-19T14:22:39.882Z</time>
      </trkpt>
      <trkpt lat="42.62931" lon="42.74684">
        <ele>496.82968</ele>
        <time>2021-09-19T14:23:19.875Z</time>
      </trkpt>
      <trkpt lat="42.62772" lon="42.74431">
        <ele>491.22059</ele>
        <time>2021-09-19T14:24:01.891Z</time>
      </trkpt>
      <trkpt lat="42.62628" lon="42.74169">
        <ele>492.99433</ele>
        <time>2021-09-19T14:24:48.895Z</time>
      </trkpt>
      <trkpt lat="42.62485" lon="42.73952">
        <ele>499.615984</ele>
        <time>2021-09-19T14:25:47.884Z</time>
      </trkpt>
      <trkpt lat="42.62337" lon="42.7375">
        <ele>502.182651</ele>
        <time>2021-09-19T14:26:55.889Z</time>
      </trkpt>
      <trkpt lat="42.62241" lon="42.73518">
        <ele>500.515737</ele>
        <time>2021-09-19T14:28:17.904Z</time>
      </trkpt>
      <trkpt lat="42.61978" lon="42.73443">
        <ele>488.260559</ele>
        <time>2021-09-19T14:28:57.885Z</time>
      </trkpt>
      <trkpt lat="42.61801" lon="42.73339">
        <ele>476.025176</ele>
        <time>2021-09-19T14:29:17.937Z</time>
      </trkpt>
      <trkpt lat="42.61573" lon="42.73123">
        <ele>469.514595</ele>
        <time>2021-09-19T14:29:57.889Z</time>
      </trkpt>
      <trkpt lat="42.61406" lon="42.72908">
        <ele>466.712598</ele>
        <time>2021-09-19T14:30:40.896Z</time>
      </trkpt>
      <trkpt lat="42.61242" lon="42.72715">
        <ele>469.625392</ele>
        <time>2021-09-19T14:31:29.888Z</time>
      </trkpt>
      <trkpt lat="42.61095" lon="42.72528">
        <ele>467.67965</ele>
        <time>2021-09-19T14:32:11.891Z</time>
      </trkpt>
      <trkpt lat="42.60941" lon="42.72338">
        <ele>465.976727</ele>
        <time>2021-09-19T14:32:52.892Z</time>
      </trkpt>
      <trkpt lat="42.60782" lon="42.72139">
        <ele>464.115056</ele>
        <time>2021-09-19T14:33:37.883Z</time>
      </trkpt>
      <trkpt lat="42.60633" lon="42.71951">
        <ele>463.268764</ele>
        <time>2021-09-19T14:34:21.927Z</time>
      </trkpt>
      <trkpt lat="42.60466" lon="42.71751">
        <ele>460.024643</ele>
        <time>2021-09-19T14:35:12.872Z</time>
      </trkpt>
      <trkpt lat="42.60277" lon="42.71551">
        <ele>460.742347</ele>
        <time>2021-09-19T14:36:04.884Z</time>
      </trkpt>
      <trkpt lat="42.60093" lon="42.71433">
        <ele>459.49005</ele>
        <time>2021-09-19T14:36:47.883Z</time>
      </trkpt>
      <trkpt lat="42.59913" lon="42.71244">
        <ele>453.664145</ele>
        <time>2021-09-19T14:37:30.890Z</time>
      </trkpt>
      <trkpt lat="42.59748" lon="42.71065">
        <ele>455.658239</ele>
        <time>2021-09-19T14:38:16.871Z</time>
      </trkpt>
      <trkpt lat="42.59585" lon="42.70889">
        <ele>461.361988</ele>
        <time>2021-09-19T14:39:00.889Z</time>
      </trkpt>
      <trkpt lat="42.59416" lon="42.70705">
        <ele>462.571564</ele>
        <time>2021-09-19T14:39:46.873Z</time>
      </trkpt>
      <trkpt lat="42.59254" lon="42.70532">
        <ele>461.727603</ele>
        <time>2021-09-19T14:41:16.885Z</time>
      </trkpt>
      <trkpt lat="42.59113" lon="42.70256">
        <ele>463.075455</ele>
        <time>2021-09-19T14:42:27.887Z</time>
      </trkpt>
      <trkpt lat="42.58893" lon="42.70114">
        <ele>458.361289</ele>
        <time>2021-09-19T14:43:17.883Z</time>
      </trkpt>
      <trkpt lat="42.58725" lon="42.70233">
        <ele>463.125692</ele>
        <time>2021-09-19T14:45:18.890Z</time>
      </trkpt>
      <trkpt lat="42.58634" lon="42.70122">
        <ele>486.310007</ele>
        <time>2021-09-19T14:57:26.881Z</time>
      </trkpt>
      <trkpt lat="42.58607" lon="42.70272">
        <ele>502.57119</ele>
        <time>2021-09-19T14:59:40.912Z</time>
      </trkpt>
      <trkpt lat="42.58664" lon="42.70528">
        <ele>507.631031</ele>
        <time>2021-09-19T15:01:23.867Z</time>
      </trkpt>
      <trkpt lat="42.58625" lon="42.70763">
        <ele>508.717339</ele>
        <time>2021-09-19T15:03:03.865Z</time>
      </trkpt>
      <trkpt lat="42.58619" lon="42.71021">
        <ele>503.635827</ele>
        <time>2021-09-19T15:04:32.873Z</time>
      </trkpt>
      <trkpt lat="42.58783" lon="42.71079">
        <ele>473.204108</ele>
        <time>2021-09-19T15:06:22.867Z</time>
      </trkpt>
      <trkpt lat="42.58918" lon="42.71264">
        <ele>451.951714</ele>
        <time>2021-09-19T15:08:10.873Z</time>
      </trkpt>
      <trkpt lat="42.58957" lon="42.71497">
        <ele>451.109179</ele>
        <time>2021-09-19T15:09:41.875Z</time>
      </trkpt>
      <trkpt lat="42.59026" lon="42.71676">
        <ele>454.638792</ele>
        <time>2021-09-19T15:11:25.876Z</time>
      </trkpt>
      <trkpt lat="42.5906" lon="42.71773">
        <ele>454.638792</ele>
        <time>2021-09-19T15:17:51.723Z</time>
      </trkpt>
    </trkseg>
  </trk>
  <trk>
    <name><![CDATA[Tour d'Europe: étape 449]]></name>
    <extensions>
      <line xmlns="http://www.topografix.com/GPX/gpx_style/0/2">
        <color>008800</color>
        <width>4</width>
      </line>
    </extensions>
    <trkseg>
      <trkpt lat="42.59062" lon="42.71789">
        <ele>456.604565</ele>
        <time>2021-09-20T06:05:48.888Z</time>
      </trkpt>
      <trkpt lat="42.59029" lon="42.71674">
        <ele>456.499686</ele>
        <time>2021-09-20T06:26:03.356Z</time>
      </trkpt>
      <trkpt lat="42.58953" lon="42.71501">
        <ele>454.114698</ele>
        <time>2021-09-20T06:27:48.295Z</time>
      </trkpt>
      <trkpt lat="42.58916" lon="42.71257">
        <ele>453.83802</ele>
        <time>2021-09-20T06:29:32.288Z</time>
      </trkpt>
      <trkpt lat="42.58786" lon="42.71087">
        <ele>470.832185</ele>
        <time>2021-09-20T06:32:12.298Z</time>
      </trkpt>
      <trkpt lat="42.58603" lon="42.70978">
        <ele>499.61108</ele>
        <time>2021-09-20T06:44:41.287Z</time>
      </trkpt>
      <trkpt lat="42.58622" lon="42.70724">
        <ele>508.887212</ele>
        <time>2021-09-20T06:46:23.303Z</time>
      </trkpt>
      <trkpt lat="42.58655" lon="42.70501">
        <ele>512.125784</ele>
        <time>2021-09-20T06:48:18.300Z</time>
      </trkpt>
      <trkpt lat="42.58609" lon="42.7023">
        <ele>502.637499</ele>
        <time>2021-09-20T06:49:56.313Z</time>
      </trkpt>
      <trkpt lat="42.58647" lon="42.70166">
        <ele>483.465021</ele>
        <time>2021-09-20T06:51:33.358Z</time>
      </trkpt>
      <trkpt lat="42.5875" lon="42.70207">
        <ele>460.790707</ele>
        <time>2021-09-20T06:53:04.363Z</time>
      </trkpt>
      <trkpt lat="42.58921" lon="42.70088">
        <ele>450.67911</ele>
        <time>2021-09-20T06:54:25.306Z</time>
      </trkpt>
      <trkpt lat="42.58786" lon="42.69915">
        <ele>446.314853</ele>
        <time>2021-09-20T07:10:46.314Z</time>
      </trkpt>
      <trkpt lat="42.58661" lon="42.6965">
        <ele>434.654902</ele>
        <time>2021-09-20T07:11:38.314Z</time>
      </trkpt>
      <trkpt lat="42.5859" lon="42.69384">
        <ele>441.200606</ele>
        <time>2021-09-20T07:12:45.356Z</time>
      </trkpt>
      <trkpt lat="42.58452" lon="42.69188">
        <ele>447.791323</ele>
        <time>2021-09-20T07:14:11.312Z</time>
      </trkpt>
      <trkpt lat="42.58326" lon="42.689">
        <ele>439.003795</ele>
        <time>2021-09-20T07:14:48.317Z</time>
      </trkpt>
      <trkpt lat="42.58106" lon="42.68843">
        <ele>447.491381</ele>
        <time>2021-09-20T07:16:01.316Z</time>
      </trkpt>
      <trkpt lat="42.57879" lon="42.68653">
        <ele>440.994791</ele>
        <time>2021-09-20T07:16:41.311Z</time>
      </trkpt>
      <trkpt lat="42.57884" lon="42.68348">
        <ele>432.101824</ele>
        <time>2021-09-20T07:17:30.303Z</time>
      </trkpt>
      <trkpt lat="42.57778" lon="42.68124">
        <ele>434.213444</ele>
        <time>2021-09-20T07:18:24.313Z</time>
      </trkpt>
      <trkpt lat="42.57576" lon="42.68101">
        <ele>439.874007</ele>
        <time>2021-09-20T07:19:30.309Z</time>
      </trkpt>
      <trkpt lat="42.57318" lon="42.68206">
        <ele>436.293005</ele>
        <time>2021-09-20T07:20:19.329Z</time>
      </trkpt>
      <trkpt lat="42.57032" lon="42.68325">
        <ele>419.086901</ele>
        <time>2021-09-20T07:20:59.319Z</time>
      </trkpt>
      <trkpt lat="42.56755" lon="42.68378">
        <ele>410.262103</ele>
        <time>2021-09-20T07:21:39.304Z</time>
      </trkpt>
      <trkpt lat="42.56546" lon="42.68399">
        <ele>422.405072</ele>
        <time>2021-09-20T07:23:41.318Z</time>
      </trkpt>
      <trkpt lat="42.56343" lon="42.68424">
        <ele>437.241403</ele>
        <time>2021-09-20T07:26:08.315Z</time>
      </trkpt>
      <trkpt lat="42.56113" lon="42.68445">
        <ele>440.941445</ele>
        <time>2021-09-20T07:34:41.309Z</time>
      </trkpt>
      <trkpt lat="42.55882" lon="42.68527">
        <ele>426.045719</ele>
        <time>2021-09-20T07:35:21.347Z</time>
      </trkpt>
      <trkpt lat="42.55598" lon="42.68493">
        <ele>407.691105</ele>
        <time>2021-09-20T07:36:01.355Z</time>
      </trkpt>
      <trkpt lat="42.55414" lon="42.6844">
        <ele>423.883229</ele>
        <time>2021-09-20T07:38:05.318Z</time>
      </trkpt>
      <trkpt lat="42.55338" lon="42.68186">
        <ele>447.547036</ele>
        <time>2021-09-20T07:40:19.329Z</time>
      </trkpt>
      <trkpt lat="42.55279" lon="42.67921">
        <ele>446.692441</ele>
        <time>2021-09-20T07:41:20.349Z</time>
      </trkpt>
      <trkpt lat="42.55106" lon="42.67763">
        <ele>436.794335</ele>
        <time>2021-09-20T07:42:27.348Z</time>
      </trkpt>
      <trkpt lat="42.5514" lon="42.6748">
        <ele>441.386618</ele>
        <time>2021-09-20T07:43:23.313Z</time>
      </trkpt>
      <trkpt lat="42.55045" lon="42.67158">
        <ele>437.162598</ele>
        <time>2021-09-20T07:44:09.306Z</time>
      </trkpt>
      <trkpt lat="42.55013" lon="42.66839">
        <ele>422.896685</ele>
        <time>2021-09-20T07:44:49.313Z</time>
      </trkpt>
      <trkpt lat="42.55055" lon="42.66508">
        <ele>417.157015</ele>
        <time>2021-09-20T07:45:29.316Z</time>
      </trkpt>
      <trkpt lat="42.54889" lon="42.66275">
        <ele>403.787501</ele>
        <time>2021-09-20T07:45:56.316Z</time>
      </trkpt>
      <trkpt lat="42.54798" lon="42.65937">
        <ele>387.643603</ele>
        <time>2021-09-20T07:46:27.297Z</time>
      </trkpt>
      <trkpt lat="42.54698" lon="42.65695">
        <ele>383.548491</ele>
        <time>2021-09-20T07:47:19.334Z</time>
      </trkpt>
      <trkpt lat="42.54481" lon="42.65687">
        <ele>386.470806</ele>
        <time>2021-09-20T07:48:07.305Z</time>
      </trkpt>
      <trkpt lat="42.54323" lon="42.65486">
        <ele>390.947305</ele>
        <time>2021-09-20T07:48:54.321Z</time>
      </trkpt>
      <trkpt lat="42.54277" lon="42.65214">
        <ele>394.256719</ele>
        <time>2021-09-20T07:50:14.332Z</time>
      </trkpt>
      <trkpt lat="42.54156" lon="42.65027">
        <ele>399.231996</ele>
        <time>2021-09-20T07:52:13.323Z</time>
      </trkpt>
      <trkpt lat="42.53924" lon="42.64976">
        <ele>382.648534</ele>
        <time>2021-09-20T07:52:53.326Z</time>
      </trkpt>
      <trkpt lat="42.53686" lon="42.65015">
        <ele>366.322563</ele>
        <time>2021-09-20T07:53:45.314Z</time>
      </trkpt>
      <trkpt lat="42.53462" lon="42.64952">
        <ele>358.689739</ele>
        <time>2021-09-20T07:54:25.311Z</time>
      </trkpt>
      <trkpt lat="42.5326" lon="42.64719">
        <ele>357.682384</ele>
        <time>2021-09-20T07:55:02.310Z</time>
      </trkpt>
      <trkpt lat="42.53007" lon="42.64639">
        <ele>348.042023</ele>
        <time>2021-09-20T07:55:44.330Z</time>
      </trkpt>
      <trkpt lat="42.52879" lon="42.6442">
        <ele>363.693427</ele>
        <time>2021-09-20T07:57:09.355Z</time>
      </trkpt>
      <trkpt lat="42.5272" lon="42.64272">
        <ele>370.359312</ele>
        <time>2021-09-20T07:58:27.337Z</time>
      </trkpt>
      <trkpt lat="42.52508" lon="42.64387">
        <ele>360.638886</ele>
        <time>2021-09-20T07:59:28.340Z</time>
      </trkpt>
      <trkpt lat="42.52228" lon="42.64328">
        <ele>342.152291</ele>
        <time>2021-09-20T08:00:08.325Z</time>
      </trkpt>
      <trkpt lat="42.52181" lon="42.63992">
        <ele>351.025612</ele>
        <time>2021-09-20T08:00:56.315Z</time>
      </trkpt>
      <trkpt lat="42.51936" lon="42.63959">
        <ele>348.08814</ele>
        <time>2021-09-20T08:01:36.314Z</time>
      </trkpt>
      <trkpt lat="42.51741" lon="42.64014">
        <ele>350.602005</ele>
        <time>2021-09-20T08:02:55.327Z</time>
      </trkpt>
      <trkpt lat="42.51537" lon="42.63982">
        <ele>352.999385</ele>
        <time>2021-09-20T08:03:46.316Z</time>
      </trkpt>
      <trkpt lat="42.51405" lon="42.63743">
        <ele>358.446721</ele>
        <time>2021-09-20T08:04:59.323Z</time>
      </trkpt>
      <trkpt lat="42.51203" lon="42.63665">
        <ele>349.219225</ele>
        <time>2021-09-20T08:05:53.334Z</time>
      </trkpt>
      <trkpt lat="42.5098" lon="42.6381">
        <ele>337.067423</ele>
        <time>2021-09-20T08:06:36.307Z</time>
      </trkpt>
      <trkpt lat="42.50774" lon="42.63718">
        <ele>334.481939</ele>
        <time>2021-09-20T08:07:32.318Z</time>
      </trkpt>
      <trkpt lat="42.50531" lon="42.63744">
        <ele>334.711706</ele>
        <time>2021-09-20T08:13:19.315Z</time>
      </trkpt>
      <trkpt lat="42.50303" lon="42.63773">
        <ele>339.893494</ele>
        <time>2021-09-20T08:14:24.301Z</time>
      </trkpt>
      <trkpt lat="42.50064" lon="42.63757">
        <ele>345.750294</ele>
        <time>2021-09-20T08:15:29.315Z</time>
      </trkpt>
      <trkpt lat="42.4987" lon="42.63759">
        <ele>369.052143</ele>
        <time>2021-09-20T08:17:19.317Z</time>
      </trkpt>
      <trkpt lat="42.49686" lon="42.63748">
        <ele>375.292388</ele>
        <time>2021-09-20T08:19:16.314Z</time>
      </trkpt>
      <trkpt lat="42.49557" lon="42.6345">
        <ele>356.462439</ele>
        <time>2021-09-20T08:19:55.302Z</time>
      </trkpt>
      <trkpt lat="42.49455" lon="42.63142">
        <ele>338.078642</ele>
        <time>2021-09-20T08:20:29.326Z</time>
      </trkpt>
      <trkpt lat="42.49228" lon="42.62938">
        <ele>331.869564</ele>
        <time>2021-09-20T08:21:19.297Z</time>
      </trkpt>
      <trkpt lat="42.49236" lon="42.62633">
        <ele>324.776341</ele>
        <time>2021-09-20T08:22:14.328Z</time>
      </trkpt>
      <trkpt lat="42.49068" lon="42.62454">
        <ele>331.196687</ele>
        <time>2021-09-20T08:23:09.316Z</time>
      </trkpt>
      <trkpt lat="42.48951" lon="42.62174">
        <ele>343.221665</ele>
        <time>2021-09-20T08:40:33.325Z</time>
      </trkpt>
      <trkpt lat="42.4879" lon="42.61997">
        <ele>345.86805</ele>
        <time>2021-09-20T08:41:39.320Z</time>
      </trkpt>
      <trkpt lat="42.4864" lon="42.61669">
        <ele>343.101178</ele>
        <time>2021-09-20T08:42:19.322Z</time>
      </trkpt>
      <trkpt lat="42.48549" lon="42.61385">
        <ele>336.159005</ele>
        <time>2021-09-20T08:43:08.311Z</time>
      </trkpt>
      <trkpt lat="42.48512" lon="42.61106">
        <ele>334.027347</ele>
        <time>2021-09-20T08:44:11.320Z</time>
      </trkpt>
      <trkpt lat="42.48395" lon="42.60841">
        <ele>337.455191</ele>
        <time>2021-09-20T08:45:38.319Z</time>
      </trkpt>
      <trkpt lat="42.48208" lon="42.60746">
        <ele>340.285246</ele>
        <time>2021-09-20T08:46:37.319Z</time>
      </trkpt>
      <trkpt lat="42.47987" lon="42.60696">
        <ele>342.386872</ele>
        <time>2021-09-20T08:47:38.324Z</time>
      </trkpt>
      <trkpt lat="42.47765" lon="42.60652">
        <ele>336.361651</ele>
        <time>2021-09-20T08:48:46.315Z</time>
      </trkpt>
      <trkpt lat="42.47558" lon="42.60556">
        <ele>337.211269</ele>
        <time>2021-09-20T08:50:18.362Z</time>
      </trkpt>
      <trkpt lat="42.47307" lon="42.60487">
        <ele>323.787109</ele>
        <time>2021-09-20T08:50:49.314Z</time>
      </trkpt>
      <trkpt lat="42.47121" lon="42.60288">
        <ele>316.265437</ele>
        <time>2021-09-20T08:51:26.311Z</time>
      </trkpt>
      <trkpt lat="42.46933" lon="42.60169">
        <ele>310.903635</ele>
        <time>2021-09-20T08:52:17.335Z</time>
      </trkpt>
      <trkpt lat="42.46772" lon="42.59974">
        <ele>313.992843</ele>
        <time>2021-09-20T08:53:22.328Z</time>
      </trkpt>
      <trkpt lat="42.46527" lon="42.59837">
        <ele>306.4126</ele>
        <time>2021-09-20T08:54:04.312Z</time>
      </trkpt>
      <trkpt lat="42.46267" lon="42.59743">
        <ele>302.611976</ele>
        <time>2021-09-20T08:54:47.349Z</time>
      </trkpt>
      <trkpt lat="42.4609" lon="42.59782">
        <ele>311.505073</ele>
        <time>2021-09-20T08:56:25.321Z</time>
      </trkpt>
      <trkpt lat="42.45896" lon="42.59862">
        <ele>317.92289</ele>
        <time>2021-09-20T08:57:58.318Z</time>
      </trkpt>
      <trkpt lat="42.4569" lon="42.59854">
        <ele>307.939658</ele>
        <time>2021-09-20T08:58:43.315Z</time>
      </trkpt>
      <trkpt lat="42.4558" lon="42.59588">
        <ele>307.222861</ele>
        <time>2021-09-20T08:59:17.314Z</time>
      </trkpt>
      <trkpt lat="42.45468" lon="42.59581">
        <ele>321.896908</ele>
        <time>2021-09-20T09:01:38.383Z</time>
      </trkpt>
      <trkpt lat="42.45332" lon="42.59428">
        <ele>340.435485</ele>
        <time>2021-09-20T09:04:30.326Z</time>
      </trkpt>
      <trkpt lat="42.45229" lon="42.59244">
        <ele>353.935474</ele>
        <time>2021-09-20T09:07:19.315Z</time>
      </trkpt>
      <trkpt lat="42.45149" lon="42.59011">
        <ele>368.565994</ele>
        <time>2021-09-20T09:10:02.312Z</time>
      </trkpt>
      <trkpt lat="42.45084" lon="42.58771">
        <ele>385.32572</ele>
        <time>2021-09-20T09:12:38.323Z</time>
      </trkpt>
      <trkpt lat="42.45174" lon="42.58549">
        <ele>403.688999</ele>
        <time>2021-09-20T09:23:37.319Z</time>
      </trkpt>
      <trkpt lat="42.45137" lon="42.58313">
        <ele>416.918513</ele>
        <time>2021-09-20T09:26:16.323Z</time>
      </trkpt>
      <trkpt lat="42.45097" lon="42.58052">
        <ele>429.051353</ele>
        <time>2021-09-20T09:28:44.304Z</time>
      </trkpt>
      <trkpt lat="42.45033" lon="42.57814">
        <ele>442.654373</ele>
        <time>2021-09-20T09:31:19.366Z</time>
      </trkpt>
      <trkpt lat="42.4493" lon="42.57598">
        <ele>457.418961</ele>
        <time>2021-09-20T09:34:12.321Z</time>
      </trkpt>
      <trkpt lat="42.44857" lon="42.57366">
        <ele>478.979118</ele>
        <time>2021-09-20T09:37:11.318Z</time>
      </trkpt>
      <trkpt lat="42.44883" lon="42.57119">
        <ele>500.812926</ele>
        <time>2021-09-20T09:40:04.337Z</time>
      </trkpt>
      <trkpt lat="42.44745" lon="42.56996">
        <ele>510.620453</ele>
        <time>2021-09-20T09:43:17.352Z</time>
      </trkpt>
      <trkpt lat="42.44532" lon="42.57037">
        <ele>528.313144</ele>
        <time>2021-09-20T09:49:54.338Z</time>
      </trkpt>
      <trkpt lat="42.44347" lon="42.57105">
        <ele>537.592277</ele>
        <time>2021-09-20T09:52:15.319Z</time>
      </trkpt>
      <trkpt lat="42.44165" lon="42.57171">
        <ele>534.613755</ele>
        <time>2021-09-20T09:53:18.311Z</time>
      </trkpt>
      <trkpt lat="42.44142" lon="42.57477">
        <ele>525.847458</ele>
        <time>2021-09-20T09:53:58.331Z</time>
      </trkpt>
      <trkpt lat="42.44045" lon="42.57773">
        <ele>524.826958</ele>
        <time>2021-09-20T09:54:45.308Z</time>
      </trkpt>
      <trkpt lat="42.43901" lon="42.58005">
        <ele>524.891979</ele>
        <time>2021-09-20T09:55:52.325Z</time>
      </trkpt>
      <trkpt lat="42.43857" lon="42.5828">
        <ele>519.368894</ele>
        <time>2021-09-20T09:56:38.325Z</time>
      </trkpt>
      <trkpt lat="42.43727" lon="42.58419">
        <ele>512.445842</ele>
        <time>2021-09-20T09:57:41.322Z</time>
      </trkpt>
      <trkpt lat="42.43536" lon="42.58238">
        <ele>508.477563</ele>
        <time>2021-09-20T09:58:47.319Z</time>
      </trkpt>
      <trkpt lat="42.43386" lon="42.58036">
        <ele>505.107331</ele>
        <time>2021-09-20T09:59:30.307Z</time>
      </trkpt>
      <trkpt lat="42.43248" lon="42.57804">
        <ele>505.439558</ele>
        <time>2021-09-20T10:00:22.329Z</time>
      </trkpt>
      <trkpt lat="42.43119" lon="42.57594">
        <ele>502.786912</ele>
        <time>2021-09-20T10:01:14.322Z</time>
      </trkpt>
      <trkpt lat="42.42964" lon="42.57354">
        <ele>500.84325</ele>
        <time>2021-09-20T10:02:04.342Z</time>
      </trkpt>
      <trkpt lat="42.42766" lon="42.57206">
        <ele>500.330361</ele>
        <time>2021-09-20T10:03:00.321Z</time>
      </trkpt>
      <trkpt lat="42.42571" lon="42.57133">
        <ele>502.170544</ele>
        <time>2021-09-20T10:04:04.324Z</time>
      </trkpt>
      <trkpt lat="42.42354" lon="42.57171">
        <ele>501.080052</ele>
        <time>2021-09-20T10:05:03.299Z</time>
      </trkpt>
      <trkpt lat="42.42137" lon="42.57292">
        <ele>494.892061</ele>
        <time>2021-09-20T10:05:50.316Z</time>
      </trkpt>
      <trkpt lat="42.42039" lon="42.57609">
        <ele>493.203034</ele>
        <time>2021-09-20T10:07:05.319Z</time>
      </trkpt>
      <trkpt lat="42.41894" lon="42.5785">
        <ele>485.740686</ele>
        <time>2021-09-20T10:07:57.325Z</time>
      </trkpt>
      <trkpt lat="42.41778" lon="42.58085">
        <ele>472.636042</ele>
        <time>2021-09-20T10:08:38.317Z</time>
      </trkpt>
      <trkpt lat="42.41617" lon="42.57761">
        <ele>454.171288</ele>
        <time>2021-09-20T10:09:18.361Z</time>
      </trkpt>
      <trkpt lat="42.41526" lon="42.5746">
        <ele>437.641685</ele>
        <time>2021-09-20T10:09:48.320Z</time>
      </trkpt>
      <trkpt lat="42.41321" lon="42.57176">
        <ele>428.612887</ele>
        <time>2021-09-20T10:10:27.321Z</time>
      </trkpt>
      <trkpt lat="42.41137" lon="42.5696">
        <ele>419.831951</ele>
        <time>2021-09-20T10:11:08.314Z</time>
      </trkpt>
      <trkpt lat="42.40944" lon="42.56667">
        <ele>401.864148</ele>
        <time>2021-09-20T10:11:46.313Z</time>
      </trkpt>
      <trkpt lat="42.40722" lon="42.5643">
        <ele>389.609902</ele>
        <time>2021-09-20T10:12:26.319Z</time>
      </trkpt>
      <trkpt lat="42.40531" lon="42.56632">
        <ele>375.428181</ele>
        <time>2021-09-20T10:13:10.320Z</time>
      </trkpt>
      <trkpt lat="42.40531" lon="42.57017">
        <ele>354.821834</ele>
        <time>2021-09-20T10:13:50.321Z</time>
      </trkpt>
      <trkpt lat="42.40549" lon="42.57396">
        <ele>331.017449</ele>
        <time>2021-09-20T10:14:30.305Z</time>
      </trkpt>
      <trkpt lat="42.40379" lon="42.57551">
        <ele>309.010076</ele>
        <time>2021-09-20T10:15:09.310Z</time>
      </trkpt>
      <trkpt lat="42.40133" lon="42.57516">
        <ele>286.21121</ele>
        <time>2021-09-20T10:15:49.324Z</time>
      </trkpt>
      <trkpt lat="42.40069" lon="42.57213">
        <ele>263.56161</ele>
        <time>2021-09-20T10:26:03.333Z</time>
      </trkpt>
      <trkpt lat="42.39931" lon="42.56924">
        <ele>245.909943</ele>
        <time>2021-09-20T10:26:38.322Z</time>
      </trkpt>
      <trkpt lat="42.39673" lon="42.56793">
        <ele>226.37874</ele>
        <time>2021-09-20T10:27:18.326Z</time>
      </trkpt>
      <trkpt lat="42.39415" lon="42.56599">
        <ele>197.330611</ele>
        <time>2021-09-20T10:27:56.314Z</time>
      </trkpt>
      <trkpt lat="42.39258" lon="42.56325">
        <ele>177.464207</ele>
        <time>2021-09-20T10:28:26.291Z</time>
      </trkpt>
      <trkpt lat="42.39153" lon="42.55989">
        <ele>171.317984</ele>
        <time>2021-09-20T10:29:08.295Z</time>
      </trkpt>
      <trkpt lat="42.39071" lon="42.55729">
        <ele>172.768006</ele>
        <time>2021-09-20T10:30:04.330Z</time>
      </trkpt>
      <trkpt lat="42.38873" lon="42.5562">
        <ele>173.489144</ele>
        <time>2021-09-20T10:31:00.312Z</time>
      </trkpt>
      <trkpt lat="42.38664" lon="42.557">
        <ele>177.446715</ele>
        <time>2021-09-20T10:32:16.324Z</time>
      </trkpt>
      <trkpt lat="42.38488" lon="42.55844">
        <ele>184.892292</ele>
        <time>2021-09-20T10:34:00.344Z</time>
      </trkpt>
      <trkpt lat="42.38399" lon="42.56047">
        <ele>201.720482</ele>
        <time>2021-09-20T10:36:21.322Z</time>
      </trkpt>
      <trkpt lat="42.38289" lon="42.56152">
        <ele>221.087421</ele>
        <time>2021-09-20T10:39:15.315Z</time>
      </trkpt>
      <trkpt lat="42.38261" lon="42.56402">
        <ele>237.314618</ele>
        <time>2021-09-20T10:42:07.325Z</time>
      </trkpt>
      <trkpt lat="42.38146" lon="42.56598">
        <ele>248.201348</ele>
        <time>2021-09-20T10:44:46.325Z</time>
      </trkpt>
      <trkpt lat="42.38164" lon="42.56875">
        <ele>256.014706</ele>
        <time>2021-09-20T10:46:46.327Z</time>
      </trkpt>
      <trkpt lat="42.382" lon="42.57136">
        <ele>270.119018</ele>
        <time>2021-09-20T10:49:25.324Z</time>
      </trkpt>
      <trkpt lat="42.3813" lon="42.57384">
        <ele>272.053441</ele>
        <time>2021-09-20T10:51:25.312Z</time>
      </trkpt>
      <trkpt lat="42.37959" lon="42.57571">
        <ele>258.796627</ele>
        <time>2021-09-20T10:52:13.323Z</time>
      </trkpt>
      <trkpt lat="42.37685" lon="42.57708">
        <ele>224.323578</ele>
        <time>2021-09-20T10:52:55.322Z</time>
      </trkpt>
      <trkpt lat="42.37503" lon="42.57872">
        <ele>205.782242</ele>
        <time>2021-09-20T10:53:18.320Z</time>
      </trkpt>
      <trkpt lat="42.37322" lon="42.58007">
        <ele>197.511226</ele>
        <time>2021-09-20T10:53:39.311Z</time>
      </trkpt>
      <trkpt lat="42.37119" lon="42.58137">
        <ele>196.887807</ele>
        <time>2021-09-20T10:54:29.361Z</time>
      </trkpt>
      <trkpt lat="42.3687" lon="42.58366">
        <ele>183.922566</ele>
        <time>2021-09-20T10:55:09.319Z</time>
      </trkpt>
      <trkpt lat="42.36822" lon="42.58519">
        <ele>160.82074</ele>
        <time>2021-09-20T10:55:58.372Z</time>
      </trkpt>
      <trkpt lat="42.36714" lon="42.58782">
        <ele>146.774461</ele>
        <time>2021-09-20T10:56:39.320Z</time>
      </trkpt>
      <trkpt lat="42.36511" lon="42.58735">
        <ele>152.127474</ele>
        <time>2021-09-20T10:58:11.320Z</time>
      </trkpt>
      <trkpt lat="42.36321" lon="42.58673">
        <ele>167.422188</ele>
        <time>2021-09-20T11:00:50.310Z</time>
      </trkpt>
      <trkpt lat="42.36165" lon="42.58846">
        <ele>180.338539</ele>
        <time>2021-09-20T11:03:29.329Z</time>
      </trkpt>
      <trkpt lat="42.36191" lon="42.59163">
        <ele>181.304189</ele>
        <time>2021-09-20T11:04:38.325Z</time>
      </trkpt>
      <trkpt lat="42.36149" lon="42.59454">
        <ele>172.678369</ele>
        <time>2021-09-20T11:05:18.320Z</time>
      </trkpt>
      <trkpt lat="42.35914" lon="42.59511">
        <ele>165.787295</ele>
        <time>2021-09-20T11:05:59.304Z</time>
      </trkpt>
      <trkpt lat="42.35701" lon="42.59604">
        <ele>158.854521</ele>
        <time>2021-09-20T11:06:23.328Z</time>
      </trkpt>
      <trkpt lat="42.35435" lon="42.59724">
        <ele>157.778075</ele>
        <time>2021-09-20T11:07:14.315Z</time>
      </trkpt>
      <trkpt lat="42.3528" lon="42.59662">
        <ele>168.23345</ele>
        <time>2021-09-20T11:09:29.312Z</time>
      </trkpt>
      <trkpt lat="42.351" lon="42.5954">
        <ele>170.76622</ele>
        <time>2021-09-20T11:11:17.314Z</time>
      </trkpt>
      <trkpt lat="42.34887" lon="42.59693">
        <ele>154.137314</ele>
        <time>2021-09-20T11:11:45.322Z</time>
      </trkpt>
      <trkpt lat="42.3465" lon="42.59685">
        <ele>145.769435</ele>
        <time>2021-09-20T11:12:31.305Z</time>
      </trkpt>
      <trkpt lat="42.34459" lon="42.59537">
        <ele>145.687578</ele>
        <time>2021-09-20T11:13:25.321Z</time>
      </trkpt>
      <trkpt lat="42.34277" lon="42.59526">
        <ele>151.601297</ele>
        <time>2021-09-20T11:14:51.318Z</time>
      </trkpt>
      <trkpt lat="42.34164" lon="42.59731">
        <ele>156.06994</ele>
        <time>2021-09-20T11:16:45.337Z</time>
      </trkpt>
      <trkpt lat="42.33956" lon="42.59802">
        <ele>154.28021</ele>
        <time>2021-09-20T11:17:51.353Z</time>
      </trkpt>
      <trkpt lat="42.33742" lon="42.59822">
        <ele>160.274319</ele>
        <time>2021-09-20T11:19:14.317Z</time>
      </trkpt>
      <trkpt lat="42.33547" lon="42.59871">
        <ele>163.175612</ele>
        <time>2021-09-20T11:21:09.351Z</time>
      </trkpt>
      <trkpt lat="42.33296" lon="42.59943">
        <ele>156.625102</ele>
        <time>2021-09-20T11:22:05.326Z</time>
      </trkpt>
      <trkpt lat="42.33067" lon="42.59891">
        <ele>143.366722</ele>
        <time>2021-09-20T11:23:43.289Z</time>
      </trkpt>
      <trkpt lat="42.32928" lon="42.60031">
        <ele>129.517722</ele>
        <time>2021-09-20T11:24:57.296Z</time>
      </trkpt>
      <trkpt lat="42.3276" lon="42.60226">
        <ele>115.698987</ele>
        <time>2021-09-20T11:25:43.295Z</time>
      </trkpt>
      <trkpt lat="42.32677" lon="42.60498">
        <ele>113.116293</ele>
        <time>2021-09-20T11:26:33.284Z</time>
      </trkpt>
      <trkpt lat="42.3251" lon="42.60641">
        <ele>118.558812</ele>
        <time>2021-09-20T11:27:40.289Z</time>
      </trkpt>
      <trkpt lat="42.32353" lon="42.60642">
        <ele>122.012744</ele>
        <time>2021-09-20T11:29:12.287Z</time>
      </trkpt>
      <trkpt lat="42.32226" lon="42.60862">
        <ele>134.369176</ele>
        <time>2021-09-20T11:31:27.293Z</time>
      </trkpt>
      <trkpt lat="42.32125" lon="42.61111">
        <ele>135.449105</ele>
        <time>2021-09-20T11:36:21.296Z</time>
      </trkpt>
      <trkpt lat="42.32024" lon="42.61398">
        <ele>129.116551</ele>
        <time>2021-09-20T11:37:12.287Z</time>
      </trkpt>
      <trkpt lat="42.31901" lon="42.61651">
        <ele>130.936987</ele>
        <time>2021-09-20T11:38:18.295Z</time>
      </trkpt>
      <trkpt lat="42.31799" lon="42.61877">
        <ele>139.606742</ele>
        <time>2021-09-20T11:40:12.284Z</time>
      </trkpt>
      <trkpt lat="42.31736" lon="42.62132">
        <ele>151.088655</ele>
        <time>2021-09-20T11:42:23.302Z</time>
      </trkpt>
      <trkpt lat="42.3166" lon="42.62417">
        <ele>147.864949</ele>
        <time>2021-09-20T11:43:17.292Z</time>
      </trkpt>
      <trkpt lat="42.3154" lon="42.62649">
        <ele>153.536548</ele>
        <time>2021-09-20T11:44:49.311Z</time>
      </trkpt>
      <trkpt lat="42.31516" lon="42.62908">
        <ele>166.640402</ele>
        <time>2021-09-20T11:47:18.284Z</time>
      </trkpt>
      <trkpt lat="42.31457" lon="42.63158">
        <ele>172.865479</ele>
        <time>2021-09-20T11:49:41.287Z</time>
      </trkpt>
      <trkpt lat="42.31269" lon="42.63283">
        <ele>181.435752</ele>
        <time>2021-09-20T11:50:59.317Z</time>
      </trkpt>
      <trkpt lat="42.31143" lon="42.63502">
        <ele>180.113563</ele>
        <time>2021-09-20T11:52:03.290Z</time>
      </trkpt>
      <trkpt lat="42.30951" lon="42.63539">
        <ele>176.745305</ele>
        <time>2021-09-20T11:53:13.298Z</time>
      </trkpt>
      <trkpt lat="42.30817" lon="42.63324">
        <ele>175.763446</ele>
        <time>2021-09-20T11:54:25.300Z</time>
      </trkpt>
      <trkpt lat="42.3057" lon="42.63255">
        <ele>173.52388</ele>
        <time>2021-09-20T11:55:16.282Z</time>
      </trkpt>
      <trkpt lat="42.30452" lon="42.63191">
        <ele>188.517612</ele>
        <time>2021-09-20T11:57:42.286Z</time>
      </trkpt>
      <trkpt lat="42.30466" lon="42.63467">
        <ele>190.430485</ele>
        <time>2021-09-20T11:58:55.283Z</time>
      </trkpt>
      <trkpt lat="42.30548" lon="42.63761">
        <ele>175.295927</ele>
        <time>2021-09-20T11:59:37.284Z</time>
      </trkpt>
      <trkpt lat="42.30423" lon="42.64048">
        <ele>160.055233</ele>
        <time>2021-09-20T12:00:19.292Z</time>
      </trkpt>
      <trkpt lat="42.30278" lon="42.64255">
        <ele>170.266878</ele>
        <time>2021-09-20T12:02:06.284Z</time>
      </trkpt>
      <trkpt lat="42.30134" lon="42.64416">
        <ele>187.438944</ele>
        <time>2021-09-20T12:04:37.293Z</time>
      </trkpt>
      <trkpt lat="42.30016" lon="42.64608">
        <ele>200.773169</ele>
        <time>2021-09-20T12:07:04.289Z</time>
      </trkpt>
      <trkpt lat="42.29933" lon="42.64832">
        <ele>208.964497</ele>
        <time>2021-09-20T12:09:30.284Z</time>
      </trkpt>
      <trkpt lat="42.29852" lon="42.65098">
        <ele>211.017461</ele>
        <time>2021-09-20T12:10:38.298Z</time>
      </trkpt>
      <trkpt lat="42.29728" lon="42.65326">
        <ele>213.518811</ele>
        <time>2021-09-20T12:11:56.284Z</time>
      </trkpt>
      <trkpt lat="42.29627" lon="42.65573">
        <ele>213.847604</ele>
        <time>2021-09-20T12:13:00.298Z</time>
      </trkpt>
      <trkpt lat="42.29488" lon="42.6576">
        <ele>217.387776</ele>
        <time>2021-09-20T12:14:07.291Z</time>
      </trkpt>
      <trkpt lat="42.29295" lon="42.65841">
        <ele>217.837881</ele>
        <time>2021-09-20T12:15:18.287Z</time>
      </trkpt>
      <trkpt lat="42.29088" lon="42.66048">
        <ele>214.515496</ele>
        <time>2021-09-20T12:16:06.287Z</time>
      </trkpt>
      <trkpt lat="42.28908" lon="42.66149">
        <ele>216.522862</ele>
        <time>2021-09-20T12:17:43.285Z</time>
      </trkpt>
      <trkpt lat="42.28806" lon="42.66373">
        <ele>203.734947</ele>
        <time>2021-09-20T12:18:29.286Z</time>
      </trkpt>
      <trkpt lat="42.28656" lon="42.6637">
        <ele>205.54174</ele>
        <time>2021-09-20T12:19:37.291Z</time>
      </trkpt>
      <trkpt lat="42.28422" lon="42.66433">
        <ele>210.541875</ele>
        <time>2021-09-20T12:20:50.285Z</time>
      </trkpt>
      <trkpt lat="42.28169" lon="42.66484">
        <ele>197.193949</ele>
        <time>2021-09-20T12:21:29.286Z</time>
      </trkpt>
      <trkpt lat="42.2798" lon="42.66538">
        <ele>187.77791</ele>
        <time>2021-09-20T12:22:05.296Z</time>
      </trkpt>
      <trkpt lat="42.27844" lon="42.66662">
        <ele>201.176168</ele>
        <time>2021-09-20T12:24:11.292Z</time>
      </trkpt>
      <trkpt lat="42.27688" lon="42.66786">
        <ele>212.684608</ele>
        <time>2021-09-20T12:26:39.289Z</time>
      </trkpt>
      <trkpt lat="42.27485" lon="42.66793">
        <ele>210.588884</ele>
        <time>2021-09-20T12:27:49.283Z</time>
      </trkpt>
      <trkpt lat="42.27334" lon="42.66686">
        <ele>201.554868</ele>
        <time>2021-09-20T12:28:57.289Z</time>
      </trkpt>
      <trkpt lat="42.27143" lon="42.66817">
        <ele>186.708421</ele>
        <time>2021-09-20T12:29:52.287Z</time>
      </trkpt>
      <trkpt lat="42.27061" lon="42.67133">
        <ele>177.326694</ele>
        <time>2021-09-20T12:30:37.282Z</time>
      </trkpt>
      <trkpt lat="42.26977" lon="42.67506">
        <ele>168.226942</ele>
        <time>2021-09-20T12:31:17.287Z</time>
      </trkpt>
      <trkpt lat="42.26889" lon="42.67792">
        <ele>171.754608</ele>
        <time>2021-09-20T12:32:06.287Z</time>
      </trkpt>
      <trkpt lat="42.26806" lon="42.68066">
        <ele>177.567534</ele>
        <time>2021-09-20T12:33:06.318Z</time>
      </trkpt>
      <trkpt lat="42.26711" lon="42.68341">
        <ele>181.525689</ele>
        <time>2021-09-20T12:34:06.291Z</time>
      </trkpt>
      <trkpt lat="42.26663" lon="42.68635">
        <ele>182.385451</ele>
        <time>2021-09-20T12:35:12.284Z</time>
      </trkpt>
      <trkpt lat="42.26641" lon="42.68942">
        <ele>180.962594</ele>
        <time>2021-09-20T12:36:12.283Z</time>
      </trkpt>
      <trkpt lat="42.26671" lon="42.69227">
        <ele>178.106293</ele>
        <time>2021-09-20T12:37:01.288Z</time>
      </trkpt>
      <trkpt lat="42.26741" lon="42.69508">
        <ele>180.898818</ele>
        <time>2021-09-20T12:37:51.320Z</time>
      </trkpt>
      <trkpt lat="42.26814" lon="42.69776">
        <ele>182.568847</ele>
        <time>2021-09-20T12:38:44.321Z</time>
      </trkpt>
      <trkpt lat="42.2701" lon="42.69878">
        <ele>177.542162</ele>
        <time>2021-09-20T12:39:51.323Z</time>
      </trkpt>
      <trkpt lat="42.2707" lon="42.70158">
        <ele>172.528284</ele>
        <time>2021-09-20T12:40:58.280Z</time>
      </trkpt>
      <trkpt lat="42.27056" lon="42.70451">
        <ele>179.397074</ele>
        <time>2021-09-20T12:41:59.283Z</time>
      </trkpt>
      <trkpt lat="42.26961" lon="42.70465">
        <ele>179.397074</ele>
        <time>2021-09-20T12:43:49.191Z</time>
      </trkpt>
    </trkseg>
  </trk>
  <trk>
    <name><![CDATA[Tour d'Europe: étape 452]]></name>
    <extensions>
      <line xmlns="http://www.topografix.com/GPX/gpx_style/0/2">
        <color>880000</color>
        <width>4</width>
      </line>
    </extensions>
    <trkseg>
      <trkpt lat="42.26969" lon="42.70417">
        <ele>188.435583</ele>
        <time>2021-09-23T05:04:57.122Z</time>
      </trkpt>
      <trkpt lat="42.26886" lon="42.70435">
        <ele>187.22804</ele>
        <time>2021-09-23T05:08:10.926Z</time>
      </trkpt>
      <trkpt lat="42.26672" lon="42.70431">
        <ele>182.450552</ele>
        <time>2021-09-23T05:09:07.945Z</time>
      </trkpt>
      <trkpt lat="42.26442" lon="42.70562">
        <ele>175.746887</ele>
        <time>2021-09-23T05:09:50.950Z</time>
      </trkpt>
      <trkpt lat="42.26253" lon="42.70724">
        <ele>166.774983</ele>
        <time>2021-09-23T05:10:39.956Z</time>
      </trkpt>
      <trkpt lat="42.26049" lon="42.70818">
        <ele>173.678361</ele>
        <time>2021-09-23T05:11:38.968Z</time>
      </trkpt>
      <trkpt lat="42.25831" lon="42.70856">
        <ele>171.169735</ele>
        <time>2021-09-23T05:12:37.953Z</time>
      </trkpt>
      <trkpt lat="42.25624" lon="42.71001">
        <ele>164.80557</ele>
        <time>2021-09-23T05:15:30.948Z</time>
      </trkpt>
      <trkpt lat="42.25427" lon="42.70953">
        <ele>176.04979</ele>
        <time>2021-09-23T05:17:19.938Z</time>
      </trkpt>
      <trkpt lat="42.25208" lon="42.70954">
        <ele>176.859882</ele>
        <time>2021-09-23T05:18:21.947Z</time>
      </trkpt>
      <trkpt lat="42.24994" lon="42.70955">
        <ele>176.496423</ele>
        <time>2021-09-23T05:19:22.981Z</time>
      </trkpt>
      <trkpt lat="42.24776" lon="42.7096">
        <ele>176.734582</ele>
        <time>2021-09-23T05:20:30.960Z</time>
      </trkpt>
      <trkpt lat="42.24616" lon="42.71057">
        <ele>178.517854</ele>
        <time>2021-09-23T05:21:54.957Z</time>
      </trkpt>
      <trkpt lat="42.24471" lon="42.71209">
        <ele>189.05961</ele>
        <time>2021-09-23T05:23:41.977Z</time>
      </trkpt>
      <trkpt lat="42.24265" lon="42.71266">
        <ele>193.557092</ele>
        <time>2021-09-23T05:25:04.965Z</time>
      </trkpt>
      <trkpt lat="42.24053" lon="42.71268">
        <ele>190.179596</ele>
        <time>2021-09-23T05:26:10.952Z</time>
      </trkpt>
      <trkpt lat="42.2383" lon="42.71243">
        <ele>188.83578</ele>
        <time>2021-09-23T05:27:04.960Z</time>
      </trkpt>
      <trkpt lat="42.23614" lon="42.71209">
        <ele>187.96937</ele>
        <time>2021-09-23T05:27:51.959Z</time>
      </trkpt>
      <trkpt lat="42.23387" lon="42.71185">
        <ele>186.758486</ele>
        <time>2021-09-23T05:28:41.999Z</time>
      </trkpt>
      <trkpt lat="42.23179" lon="42.71176">
        <ele>186.064913</ele>
        <time>2021-09-23T05:29:26.970Z</time>
      </trkpt>
      <trkpt lat="42.22965" lon="42.71165">
        <ele>181.857284</ele>
        <time>2021-09-23T05:30:14.001Z</time>
      </trkpt>
      <trkpt lat="42.22734" lon="42.7115">
        <ele>179.39007</ele>
        <time>2021-09-23T05:31:08.955Z</time>
      </trkpt>
      <trkpt lat="42.22505" lon="42.71134">
        <ele>180.07706</ele>
        <time>2021-09-23T05:32:01.959Z</time>
      </trkpt>
      <trkpt lat="42.22278" lon="42.71114">
        <ele>179.998826</ele>
        <time>2021-09-23T05:32:58.959Z</time>
      </trkpt>
      <trkpt lat="42.22037" lon="42.71095">
        <ele>180.455835</ele>
        <time>2021-09-23T05:33:56.947Z</time>
      </trkpt>
      <trkpt lat="42.21809" lon="42.7107">
        <ele>180.856991</ele>
        <time>2021-09-23T05:34:51.952Z</time>
      </trkpt>
      <trkpt lat="42.21592" lon="42.71052">
        <ele>177.143714</ele>
        <time>2021-09-23T05:35:41.972Z</time>
      </trkpt>
      <trkpt lat="42.21341" lon="42.71023">
        <ele>171.566777</ele>
        <time>2021-09-23T05:36:40.946Z</time>
      </trkpt>
      <trkpt lat="42.21109" lon="42.71004">
        <ele>169.505706</ele>
        <time>2021-09-23T05:37:33.973Z</time>
      </trkpt>
      <trkpt lat="42.2087" lon="42.70981">
        <ele>169.349134</ele>
        <time>2021-09-23T05:38:32.959Z</time>
      </trkpt>
      <trkpt lat="42.20638" lon="42.70957">
        <ele>171.013626</ele>
        <time>2021-09-23T05:39:27.964Z</time>
      </trkpt>
      <trkpt lat="42.20399" lon="42.70933">
        <ele>171.485655</ele>
        <time>2021-09-23T05:40:27.961Z</time>
      </trkpt>
      <trkpt lat="42.20181" lon="42.7091">
        <ele>171.004435</ele>
        <time>2021-09-23T05:41:25.992Z</time>
      </trkpt>
      <trkpt lat="42.19954" lon="42.7095">
        <ele>162.735771</ele>
        <time>2021-09-23T05:42:18.970Z</time>
      </trkpt>
      <trkpt lat="42.19821" lon="42.71263">
        <ele>146.380953</ele>
        <time>2021-09-23T05:42:58.966Z</time>
      </trkpt>
      <trkpt lat="42.1983" lon="42.71696">
        <ele>132.894154</ele>
        <time>2021-09-23T05:43:38.973Z</time>
      </trkpt>
      <trkpt lat="42.19799" lon="42.72024">
        <ele>121.638319</ele>
        <time>2021-09-23T05:44:11.977Z</time>
      </trkpt>
      <trkpt lat="42.19693" lon="42.72296">
        <ele>121.367181</ele>
        <time>2021-09-23T05:45:15.958Z</time>
      </trkpt>
      <trkpt lat="42.1953" lon="42.72485">
        <ele>121.659449</ele>
        <time>2021-09-23T05:46:09.982Z</time>
      </trkpt>
      <trkpt lat="42.19356" lon="42.72666">
        <ele>120.014383</ele>
        <time>2021-09-23T05:47:02.946Z</time>
      </trkpt>
      <trkpt lat="42.19178" lon="42.72855">
        <ele>118.081274</ele>
        <time>2021-09-23T05:47:58.962Z</time>
      </trkpt>
      <trkpt lat="42.19007" lon="42.73038">
        <ele>117.429289</ele>
        <time>2021-09-23T05:48:50.956Z</time>
      </trkpt>
      <trkpt lat="42.18831" lon="42.73206">
        <ele>117.71027</ele>
        <time>2021-09-23T05:49:48.968Z</time>
      </trkpt>
      <trkpt lat="42.18635" lon="42.73299">
        <ele>119.291867</ele>
        <time>2021-09-23T05:51:18.963Z</time>
      </trkpt>
      <trkpt lat="42.18375" lon="42.73341">
        <ele>113.396623</ele>
        <time>2021-09-23T05:52:06.961Z</time>
      </trkpt>
      <trkpt lat="42.18132" lon="42.73371">
        <ele>110.569021</ele>
        <time>2021-09-23T05:52:49.947Z</time>
      </trkpt>
      <trkpt lat="42.17921" lon="42.73392">
        <ele>114.173939</ele>
        <time>2021-09-23T05:53:38.961Z</time>
      </trkpt>
      <trkpt lat="42.17697" lon="42.7346">
        <ele>117.008131</ele>
        <time>2021-09-23T05:54:34.966Z</time>
      </trkpt>
      <trkpt lat="42.17471" lon="42.7354">
        <ele>109.104263</ele>
        <time>2021-09-23T05:55:33.972Z</time>
      </trkpt>
      <trkpt lat="42.17242" lon="42.73619">
        <ele>111.522388</ele>
        <time>2021-09-23T05:56:34.967Z</time>
      </trkpt>
      <trkpt lat="42.16999" lon="42.73686">
        <ele>115.853934</ele>
        <time>2021-09-23T05:57:35.943Z</time>
      </trkpt>
      <trkpt lat="42.16804" lon="42.73777">
        <ele>124.411335</ele>
        <time>2021-09-23T05:59:04.968Z</time>
      </trkpt>
      <trkpt lat="42.16608" lon="42.73876">
        <ele>124.760457</ele>
        <time>2021-09-23T06:00:14.986Z</time>
      </trkpt>
      <trkpt lat="42.16516" lon="42.74032">
        <ele>122.325531</ele>
        <time>2021-09-23T06:01:21.958Z</time>
      </trkpt>
      <trkpt lat="42.16563" lon="42.74311">
        <ele>125.503133</ele>
        <time>2021-09-23T06:02:23.959Z</time>
      </trkpt>
      <trkpt lat="42.16619" lon="42.74585">
        <ele>125.910995</ele>
        <time>2021-09-23T06:03:26.972Z</time>
      </trkpt>
      <trkpt lat="42.16673" lon="42.74869">
        <ele>123.572898</ele>
        <time>2021-09-23T06:04:24.957Z</time>
      </trkpt>
      <trkpt lat="42.16728" lon="42.75164">
        <ele>129.95702</ele>
        <time>2021-09-23T06:05:24.970Z</time>
      </trkpt>
      <trkpt lat="42.16792" lon="42.75465">
        <ele>128.484328</ele>
        <time>2021-09-23T06:06:24.960Z</time>
      </trkpt>
      <trkpt lat="42.16844" lon="42.75758">
        <ele>124.504563</ele>
        <time>2021-09-23T06:07:17.962Z</time>
      </trkpt>
      <trkpt lat="42.16899" lon="42.76053">
        <ele>124.3573</ele>
        <time>2021-09-23T06:08:10.962Z</time>
      </trkpt>
      <trkpt lat="42.16949" lon="42.76348">
        <ele>123.260998</ele>
        <time>2021-09-23T06:09:04.959Z</time>
      </trkpt>
      <trkpt lat="42.17005" lon="42.7665">
        <ele>116.748651</ele>
        <time>2021-09-23T06:10:00.959Z</time>
      </trkpt>
      <trkpt lat="42.17086" lon="42.76962">
        <ele>117.566009</ele>
        <time>2021-09-23T06:11:01.960Z</time>
      </trkpt>
      <trkpt lat="42.17235" lon="42.772">
        <ele>115.405078</ele>
        <time>2021-09-23T06:11:59.953Z</time>
      </trkpt>
      <trkpt lat="42.17403" lon="42.77426">
        <ele>120.328101</ele>
        <time>2021-09-23T06:12:57.962Z</time>
      </trkpt>
      <trkpt lat="42.17556" lon="42.77659">
        <ele>117.989188</ele>
        <time>2021-09-23T06:13:57.978Z</time>
      </trkpt>
      <trkpt lat="42.17713" lon="42.77884">
        <ele>119.225579</ele>
        <time>2021-09-23T06:14:57.991Z</time>
      </trkpt>
      <trkpt lat="42.17859" lon="42.78092">
        <ele>119.369028</ele>
        <time>2021-09-23T06:15:57.957Z</time>
      </trkpt>
      <trkpt lat="42.18011" lon="42.78307">
        <ele>118.580697</ele>
        <time>2021-09-23T06:16:57.971Z</time>
      </trkpt>
      <trkpt lat="42.1817" lon="42.78529">
        <ele>118.300643</ele>
        <time>2021-09-23T06:18:00.971Z</time>
      </trkpt>
      <trkpt lat="42.18313" lon="42.78732">
        <ele>118.668016</ele>
        <time>2021-09-23T06:19:00.962Z</time>
      </trkpt>
      <trkpt lat="42.18455" lon="42.78932">
        <ele>117.082927</ele>
        <time>2021-09-23T06:20:00.951Z</time>
      </trkpt>
      <trkpt lat="42.18603" lon="42.79135">
        <ele>118.920724</ele>
        <time>2021-09-23T06:21:01.976Z</time>
      </trkpt>
      <trkpt lat="42.18669" lon="42.79389">
        <ele>120.149168</ele>
        <time>2021-09-23T06:22:02.959Z</time>
      </trkpt>
      <trkpt lat="42.18709" lon="42.79669">
        <ele>120.519008</ele>
        <time>2021-09-23T06:23:02.969Z</time>
      </trkpt>
      <trkpt lat="42.18749" lon="42.79956">
        <ele>119.393874</ele>
        <time>2021-09-23T06:24:12.962Z</time>
      </trkpt>
      <trkpt lat="42.18591" lon="42.80135">
        <ele>118.672164</ele>
        <time>2021-09-23T06:25:27.953Z</time>
      </trkpt>
      <trkpt lat="42.18406" lon="42.8027">
        <ele>118.188134</ele>
        <time>2021-09-23T06:26:36.964Z</time>
      </trkpt>
      <trkpt lat="42.18221" lon="42.80407">
        <ele>119.436477</ele>
        <time>2021-09-23T06:27:47.955Z</time>
      </trkpt>
      <trkpt lat="42.18034" lon="42.80545">
        <ele>121.467866</ele>
        <time>2021-09-23T06:28:58.959Z</time>
      </trkpt>
      <trkpt lat="42.17859" lon="42.8067">
        <ele>120.92104</ele>
        <time>2021-09-23T06:30:07.987Z</time>
      </trkpt>
      <trkpt lat="42.17669" lon="42.80811">
        <ele>124.527142</ele>
        <time>2021-09-23T06:31:18.969Z</time>
      </trkpt>
      <trkpt lat="42.17476" lon="42.80951">
        <ele>125.066264</ele>
        <time>2021-09-23T06:32:29.999Z</time>
      </trkpt>
      <trkpt lat="42.17288" lon="42.81087">
        <ele>124.941022</ele>
        <time>2021-09-23T06:33:40.953Z</time>
      </trkpt>
      <trkpt lat="42.17102" lon="42.81223">
        <ele>125.623695</ele>
        <time>2021-09-23T06:34:52.961Z</time>
      </trkpt>
      <trkpt lat="42.1692" lon="42.81357">
        <ele>127.433312</ele>
        <time>2021-09-23T06:36:00.959Z</time>
      </trkpt>
      <trkpt lat="42.1674" lon="42.81486">
        <ele>131.569843</ele>
        <time>2021-09-23T06:37:05.000Z</time>
      </trkpt>
      <trkpt lat="42.16558" lon="42.81623">
        <ele>135.092818</ele>
        <time>2021-09-23T06:38:09.988Z</time>
      </trkpt>
      <trkpt lat="42.16373" lon="42.81756">
        <ele>135.185191</ele>
        <time>2021-09-23T06:39:09.984Z</time>
      </trkpt>
      <trkpt lat="42.16177" lon="42.81899">
        <ele>134.689266</ele>
        <time>2021-09-23T06:40:10.961Z</time>
      </trkpt>
      <trkpt lat="42.16048" lon="42.82098">
        <ele>132.375931</ele>
        <time>2021-09-23T06:41:11.973Z</time>
      </trkpt>
      <trkpt lat="42.15954" lon="42.82351">
        <ele>135.143125</ele>
        <time>2021-09-23T06:42:23.959Z</time>
      </trkpt>
      <trkpt lat="42.15812" lon="42.82561">
        <ele>136.984834</ele>
        <time>2021-09-23T06:43:35.967Z</time>
      </trkpt>
      <trkpt lat="42.15667" lon="42.82757">
        <ele>135.3108</ele>
        <time>2021-09-23T06:44:28.957Z</time>
      </trkpt>
      <trkpt lat="42.15523" lon="42.82965">
        <ele>135.805848</ele>
        <time>2021-09-23T06:45:30.938Z</time>
      </trkpt>
      <trkpt lat="42.15371" lon="42.83181">
        <ele>135.356149</ele>
        <time>2021-09-23T06:46:42.961Z</time>
      </trkpt>
      <trkpt lat="42.15229" lon="42.83391">
        <ele>137.583923</ele>
        <time>2021-09-23T06:47:55.972Z</time>
      </trkpt>
      <trkpt lat="42.15096" lon="42.83633">
        <ele>141.305605</ele>
        <time>2021-09-23T06:48:56.966Z</time>
      </trkpt>
      <trkpt lat="42.14987" lon="42.83853">
        <ele>146.928459</ele>
        <time>2021-09-23T06:50:41.971Z</time>
      </trkpt>
      <trkpt lat="42.1486" lon="42.84048">
        <ele>158.203359</ele>
        <time>2021-09-23T06:52:32.964Z</time>
      </trkpt>
      <trkpt lat="42.14868" lon="42.84284">
        <ele>171.830761</ele>
        <time>2021-09-23T06:54:22.984Z</time>
      </trkpt>
      <trkpt lat="42.15005" lon="42.84493">
        <ele>179.122626</ele>
        <time>2021-09-23T07:12:02.976Z</time>
      </trkpt>
      <trkpt lat="42.15154" lon="42.84714">
        <ele>174.505673</ele>
        <time>2021-09-23T07:13:26.963Z</time>
      </trkpt>
      <trkpt lat="42.15368" lon="42.84775">
        <ele>161.801402</ele>
        <time>2021-09-23T07:14:08.951Z</time>
      </trkpt>
      <trkpt lat="42.1555" lon="42.85014">
        <ele>142.455837</ele>
        <time>2021-09-23T07:14:48.968Z</time>
      </trkpt>
      <trkpt lat="42.15588" lon="42.85309">
        <ele>142.936543</ele>
        <time>2021-09-23T07:15:40.956Z</time>
      </trkpt>
      <trkpt lat="42.15604" lon="42.85581">
        <ele>149.76188</ele>
        <time>2021-09-23T07:16:42.961Z</time>
      </trkpt>
      <trkpt lat="42.15648" lon="42.85878">
        <ele>152.570039</ele>
        <time>2021-09-23T07:17:43.968Z</time>
      </trkpt>
      <trkpt lat="42.1566" lon="42.86202">
        <ele>150.850924</ele>
        <time>2021-09-23T07:18:46.953Z</time>
      </trkpt>
      <trkpt lat="42.15687" lon="42.86495">
        <ele>150.808188</ele>
        <time>2021-09-23T07:19:46.958Z</time>
      </trkpt>
      <trkpt lat="42.15699" lon="42.86789">
        <ele>149.301166</ele>
        <time>2021-09-23T07:20:50.963Z</time>
      </trkpt>
      <trkpt lat="42.15689" lon="42.87063">
        <ele>154.701222</ele>
        <time>2021-09-23T07:22:09.972Z</time>
      </trkpt>
      <trkpt lat="42.15614" lon="42.87333">
        <ele>156.064291</ele>
        <time>2021-09-23T07:23:15.955Z</time>
      </trkpt>
      <trkpt lat="42.1554" lon="42.876">
        <ele>155.881896</ele>
        <time>2021-09-23T07:24:23.965Z</time>
      </trkpt>
      <trkpt lat="42.15566" lon="42.8791">
        <ele>153.176759</ele>
        <time>2021-09-23T07:25:21.955Z</time>
      </trkpt>
      <trkpt lat="42.15638" lon="42.88238">
        <ele>150.787851</ele>
        <time>2021-09-23T07:26:24.964Z</time>
      </trkpt>
      <trkpt lat="42.15828" lon="42.88424">
        <ele>152.92432</ele>
        <time>2021-09-23T07:27:24.972Z</time>
      </trkpt>
      <trkpt lat="42.15919" lon="42.88706">
        <ele>150.873633</ele>
        <time>2021-09-23T07:28:16.964Z</time>
      </trkpt>
      <trkpt lat="42.15933" lon="42.8899">
        <ele>145.712544</ele>
        <time>2021-09-23T07:29:18.958Z</time>
      </trkpt>
      <trkpt lat="42.15962" lon="42.89252">
        <ele>147.729629</ele>
        <time>2021-09-23T07:30:18.964Z</time>
      </trkpt>
      <trkpt lat="42.16019" lon="42.89512">
        <ele>147.23991</ele>
        <time>2021-09-23T07:31:20.965Z</time>
      </trkpt>
      <trkpt lat="42.16097" lon="42.89818">
        <ele>147.095215</ele>
        <time>2021-09-23T07:32:25.008Z</time>
      </trkpt>
      <trkpt lat="42.16119" lon="42.90117">
        <ele>142.548332</ele>
        <time>2021-09-23T07:33:26.967Z</time>
      </trkpt>
      <trkpt lat="42.16014" lon="42.90366">
        <ele>144.814411</ele>
        <time>2021-09-23T07:34:26.963Z</time>
      </trkpt>
      <trkpt lat="42.15919" lon="42.90623">
        <ele>146.812695</ele>
        <time>2021-09-23T07:35:30.971Z</time>
      </trkpt>
      <trkpt lat="42.15813" lon="42.90879">
        <ele>144.074266</ele>
        <time>2021-09-23T07:36:30.954Z</time>
      </trkpt>
      <trkpt lat="42.15702" lon="42.91146">
        <ele>145.322238</ele>
        <time>2021-09-23T07:37:30.988Z</time>
      </trkpt>
      <trkpt lat="42.15686" lon="42.91409">
        <ele>142.795476</ele>
        <time>2021-09-23T07:38:28.958Z</time>
      </trkpt>
      <trkpt lat="42.15808" lon="42.91699">
        <ele>147.473923</ele>
        <time>2021-09-23T07:39:30.968Z</time>
      </trkpt>
      <trkpt lat="42.15824" lon="42.92015">
        <ele>148.326027</ele>
        <time>2021-09-23T07:40:24.975Z</time>
      </trkpt>
      <trkpt lat="42.15792" lon="42.9231">
        <ele>143.629273</ele>
        <time>2021-09-23T07:41:15.995Z</time>
      </trkpt>
      <trkpt lat="42.15642" lon="42.92536">
        <ele>146.013404</ele>
        <time>2021-09-23T07:42:13.963Z</time>
      </trkpt>
      <trkpt lat="42.15549" lon="42.92801">
        <ele>148.356358</ele>
        <time>2021-09-23T07:43:13.960Z</time>
      </trkpt>
      <trkpt lat="42.15384" lon="42.92974">
        <ele>143.950238</ele>
        <time>2021-09-23T07:44:13.965Z</time>
      </trkpt>
      <trkpt lat="42.15179" lon="42.93067">
        <ele>143.071831</ele>
        <time>2021-09-23T07:45:13.984Z</time>
      </trkpt>
      <trkpt lat="42.14995" lon="42.93236">
        <ele>144.446672</ele>
        <time>2021-09-23T07:46:16.969Z</time>
      </trkpt>
      <trkpt lat="42.14836" lon="42.93445">
        <ele>144.268601</ele>
        <time>2021-09-23T07:47:16.965Z</time>
      </trkpt>
      <trkpt lat="42.1468" lon="42.93641">
        <ele>149.585319</ele>
        <time>2021-09-23T07:48:16.962Z</time>
      </trkpt>
      <trkpt lat="42.14519" lon="42.93846">
        <ele>146.688997</ele>
        <time>2021-09-23T07:49:16.967Z</time>
      </trkpt>
      <trkpt lat="42.14355" lon="42.94032">
        <ele>147.46616</ele>
        <time>2021-09-23T07:50:16.969Z</time>
      </trkpt>
      <trkpt lat="42.14192" lon="42.94213">
        <ele>147.235242</ele>
        <time>2021-09-23T07:51:16.952Z</time>
      </trkpt>
      <trkpt lat="42.1402" lon="42.94402">
        <ele>148.819118</ele>
        <time>2021-09-23T07:52:20.973Z</time>
      </trkpt>
      <trkpt lat="42.13902" lon="42.94621">
        <ele>154.161236</ele>
        <time>2021-09-23T07:53:21.960Z</time>
      </trkpt>
      <trkpt lat="42.13839" lon="42.94878">
        <ele>156.915621</ele>
        <time>2021-09-23T07:54:21.972Z</time>
      </trkpt>
      <trkpt lat="42.13772" lon="42.95143">
        <ele>153.674227</ele>
        <time>2021-09-23T07:55:21.967Z</time>
      </trkpt>
      <trkpt lat="42.13657" lon="42.95382">
        <ele>154.845694</ele>
        <time>2021-09-23T07:56:21.976Z</time>
      </trkpt>
      <trkpt lat="42.13551" lon="42.95619">
        <ele>160.639531</ele>
        <time>2021-09-23T07:57:21.970Z</time>
      </trkpt>
      <trkpt lat="42.13452" lon="42.95868">
        <ele>166.665306</ele>
        <time>2021-09-23T07:58:22.965Z</time>
      </trkpt>
      <trkpt lat="42.13346" lon="42.96134">
        <ele>164.847226</ele>
        <time>2021-09-23T07:59:25.965Z</time>
      </trkpt>
      <trkpt lat="42.13253" lon="42.9639">
        <ele>166.722673</ele>
        <time>2021-09-23T08:00:25.968Z</time>
      </trkpt>
      <trkpt lat="42.13178" lon="42.96665">
        <ele>164.281654</ele>
        <time>2021-09-23T08:01:25.959Z</time>
      </trkpt>
      <trkpt lat="42.13073" lon="42.96891">
        <ele>161.952659</ele>
        <time>2021-09-23T08:02:28.965Z</time>
      </trkpt>
      <trkpt lat="42.1287" lon="42.96981">
        <ele>158.526937</ele>
        <time>2021-09-23T08:03:28.965Z</time>
      </trkpt>
      <trkpt lat="42.12667" lon="42.9707">
        <ele>159.664831</ele>
        <time>2021-09-23T08:04:29.006Z</time>
      </trkpt>
      <trkpt lat="42.12444" lon="42.9717">
        <ele>159.097299</ele>
        <time>2021-09-23T08:05:31.963Z</time>
      </trkpt>
      <trkpt lat="42.12242" lon="42.97289">
        <ele>159.667166</ele>
        <time>2021-09-23T08:06:31.964Z</time>
      </trkpt>
      <trkpt lat="42.12108" lon="42.97507">
        <ele>159.917514</ele>
        <time>2021-09-23T08:07:31.967Z</time>
      </trkpt>
      <trkpt lat="42.11935" lon="42.97626">
        <ele>160.885665</ele>
        <time>2021-09-23T08:08:31.969Z</time>
      </trkpt>
      <trkpt lat="42.11881" lon="42.97903">
        <ele>160.593017</ele>
        <time>2021-09-23T08:09:32.958Z</time>
      </trkpt>
      <trkpt lat="42.11902" lon="42.98182">
        <ele>168.033076</ele>
        <time>2021-09-23T08:10:36.971Z</time>
      </trkpt>
      <trkpt lat="42.11922" lon="42.98486">
        <ele>167.587544</ele>
        <time>2021-09-23T08:11:35.949Z</time>
      </trkpt>
      <trkpt lat="42.11889" lon="42.98789">
        <ele>171.778612</ele>
        <time>2021-09-23T08:12:38.974Z</time>
      </trkpt>
      <trkpt lat="42.11925" lon="42.99071">
        <ele>169.795581</ele>
        <time>2021-09-23T08:13:37.995Z</time>
      </trkpt>
      <trkpt lat="42.11877" lon="42.99356">
        <ele>167.559362</ele>
        <time>2021-09-23T08:20:09.969Z</time>
      </trkpt>
      <trkpt lat="42.11859" lon="42.99628">
        <ele>165.72187</ele>
        <time>2021-09-23T08:21:09.970Z</time>
      </trkpt>
      <trkpt lat="42.11871" lon="42.99906">
        <ele>169.559988</ele>
        <time>2021-09-23T08:22:16.971Z</time>
      </trkpt>
      <trkpt lat="42.11963" lon="43.0018">
        <ele>171.720369</ele>
        <time>2021-09-23T08:23:17.973Z</time>
      </trkpt>
      <trkpt lat="42.12049" lon="43.00468">
        <ele>173.868468</ele>
        <time>2021-09-23T08:24:20.992Z</time>
      </trkpt>
      <trkpt lat="42.12212" lon="43.00647">
        <ele>174.0668</ele>
        <time>2021-09-23T08:25:31.991Z</time>
      </trkpt>
      <trkpt lat="42.12101" lon="43.0091">
        <ele>169.332314</ele>
        <time>2021-09-23T08:26:32.966Z</time>
      </trkpt>
      <trkpt lat="42.11983" lon="43.01146">
        <ele>172.845931</ele>
        <time>2021-09-23T08:27:32.967Z</time>
      </trkpt>
      <trkpt lat="42.11888" lon="43.01416">
        <ele>176.000212</ele>
        <time>2021-09-23T08:28:32.957Z</time>
      </trkpt>
      <trkpt lat="42.118" lon="43.01695">
        <ele>174.114424</ele>
        <time>2021-09-23T08:29:30.960Z</time>
      </trkpt>
      <trkpt lat="42.11711" lon="43.01966">
        <ele>180.258297</ele>
        <time>2021-09-23T08:30:31.970Z</time>
      </trkpt>
      <trkpt lat="42.11577" lon="43.02214">
        <ele>184.125512</ele>
        <time>2021-09-23T08:31:34.966Z</time>
      </trkpt>
      <trkpt lat="42.11402" lon="43.02385">
        <ele>178.498294</ele>
        <time>2021-09-23T08:32:32.993Z</time>
      </trkpt>
      <trkpt lat="42.11179" lon="43.02446">
        <ele>175.752689</ele>
        <time>2021-09-23T08:33:32.991Z</time>
      </trkpt>
      <trkpt lat="42.11055" lon="43.02343">
        <ele>177.924033</ele>
        <time>2021-09-23T08:34:33.984Z</time>
      </trkpt>
      <trkpt lat="42.1123" lon="43.02472">
        <ele>183.485265</ele>
        <time>2021-09-23T08:35:28.969Z</time>
      </trkpt>
      <trkpt lat="42.11337" lon="43.02684">
        <ele>186.820851</ele>
        <time>2021-09-23T08:36:37.965Z</time>
      </trkpt>
      <trkpt lat="42.11377" lon="43.02944">
        <ele>195.371862</ele>
        <time>2021-09-23T08:38:18.972Z</time>
      </trkpt>
      <trkpt lat="42.11392" lon="43.0323">
        <ele>201.329002</ele>
        <time>2021-09-23T08:39:31.963Z</time>
      </trkpt>
      <trkpt lat="42.11356" lon="43.03495">
        <ele>204.644876</ele>
        <time>2021-09-23T08:40:37.966Z</time>
      </trkpt>
      <trkpt lat="42.11253" lon="43.03735">
        <ele>201.945446</ele>
        <time>2021-09-23T08:41:44.984Z</time>
      </trkpt>
      <trkpt lat="42.11157" lon="43.03974">
        <ele>205.341881</ele>
        <time>2021-09-23T08:42:45.968Z</time>
      </trkpt>
      <trkpt lat="42.11077" lon="43.04243">
        <ele>203.18491</ele>
        <time>2021-09-23T08:43:49.985Z</time>
      </trkpt>
      <trkpt lat="42.10962" lon="43.04522">
        <ele>204.14618</ele>
        <time>2021-09-23T08:44:48.984Z</time>
      </trkpt>
      <trkpt lat="42.11084" lon="43.04727">
        <ele>220.082755</ele>
        <time>2021-09-23T08:46:55.972Z</time>
      </trkpt>
      <trkpt lat="42.11227" lon="43.04851">
        <ele>233.223991</ele>
        <time>2021-09-23T08:49:12.997Z</time>
      </trkpt>
      <trkpt lat="42.11353" lon="43.04805">
        <ele>253.61352</ele>
        <time>2021-09-23T08:51:50.004Z</time>
      </trkpt>
      <trkpt lat="42.11442" lon="43.04895">
        <ele>271.342323</ele>
        <time>2021-09-23T08:54:35.980Z</time>
      </trkpt>
      <trkpt lat="42.11542" lon="43.05109">
        <ele>289.725514</ele>
        <time>2021-09-23T08:57:05.967Z</time>
      </trkpt>
      <trkpt lat="42.11559" lon="43.05366">
        <ele>306.276457</ele>
        <time>2021-09-23T08:59:40.973Z</time>
      </trkpt>
      <trkpt lat="42.11669" lon="43.05579">
        <ele>308.385706</ele>
        <time>2021-09-23T09:01:42.977Z</time>
      </trkpt>
      <trkpt lat="42.11799" lon="43.05798">
        <ele>314.991496</ele>
        <time>2021-09-23T09:03:53.977Z</time>
      </trkpt>
      <trkpt lat="42.1192" lon="43.06003">
        <ele>323.204902</ele>
        <time>2021-09-23T09:05:47.964Z</time>
      </trkpt>
      <trkpt lat="42.12053" lon="43.06191">
        <ele>334.512352</ele>
        <time>2021-09-23T09:08:13.984Z</time>
      </trkpt>
      <trkpt lat="42.12239" lon="43.06254">
        <ele>343.650264</ele>
        <time>2021-09-23T09:10:32.968Z</time>
      </trkpt>
      <trkpt lat="42.1243" lon="43.06384">
        <ele>342.221128</ele>
        <time>2021-09-23T09:12:04.974Z</time>
      </trkpt>
      <trkpt lat="42.12675" lon="43.06513">
        <ele>338.975158</ele>
        <time>2021-09-23T09:12:40.984Z</time>
      </trkpt>
      <trkpt lat="42.12825" lon="43.06675">
        <ele>347.723909</ele>
        <time>2021-09-23T09:14:37.986Z</time>
      </trkpt>
      <trkpt lat="42.12968" lon="43.06866">
        <ele>353.870759</ele>
        <time>2021-09-23T09:16:16.974Z</time>
      </trkpt>
      <trkpt lat="42.13064" lon="43.071">
        <ele>357.104255</ele>
        <time>2021-09-23T09:17:50.972Z</time>
      </trkpt>
      <trkpt lat="42.13087" lon="43.07357">
        <ele>364.310652</ele>
        <time>2021-09-23T09:19:21.983Z</time>
      </trkpt>
      <trkpt lat="42.13105" lon="43.07607">
        <ele>372.154235</ele>
        <time>2021-09-23T09:21:04.984Z</time>
      </trkpt>
      <trkpt lat="42.13282" lon="43.07738">
        <ele>371.179271</ele>
        <time>2021-09-23T09:21:56.964Z</time>
      </trkpt>
      <trkpt lat="42.13491" lon="43.07833">
        <ele>370.984918</ele>
        <time>2021-09-23T09:22:55.981Z</time>
      </trkpt>
      <trkpt lat="42.13578" lon="43.08075">
        <ele>374.18999</ele>
        <time>2021-09-23T09:24:26.985Z</time>
      </trkpt>
      <trkpt lat="42.13728" lon="43.08255">
        <ele>369.905016</ele>
        <time>2021-09-23T09:25:29.974Z</time>
      </trkpt>
      <trkpt lat="42.13984" lon="43.08188">
        <ele>360.433756</ele>
        <time>2021-09-23T09:26:10.967Z</time>
      </trkpt>
      <trkpt lat="42.14247" lon="43.08273">
        <ele>357.657131</ele>
        <time>2021-09-23T09:26:57.041Z</time>
      </trkpt>
      <trkpt lat="42.14437" lon="43.08396">
        <ele>367.226469</ele>
        <time>2021-09-23T09:28:25.978Z</time>
      </trkpt>
      <trkpt lat="42.1459" lon="43.08555">
        <ele>376.651631</ele>
        <time>2021-09-23T09:30:25.974Z</time>
      </trkpt>
      <trkpt lat="42.1467" lon="43.09289">
        <ele>405.214754</ele>
        <time>2021-09-23T09:51:57.959Z</time>
      </trkpt>
      <trkpt lat="42.14569" lon="43.09502">
        <ele>420.420247</ele>
        <time>2021-09-23T09:54:29.995Z</time>
      </trkpt>
      <trkpt lat="42.14638" lon="43.09737">
        <ele>430.067378</ele>
        <time>2021-09-23T09:56:22.965Z</time>
      </trkpt>
      <trkpt lat="42.1464" lon="43.10028">
        <ele>434.853513</ele>
        <time>2021-09-23T10:18:02.984Z</time>
      </trkpt>
      <trkpt lat="42.14672" lon="43.10294">
        <ele>441.872084</ele>
        <time>2021-09-23T10:19:30.962Z</time>
      </trkpt>
      <trkpt lat="42.14779" lon="43.10518">
        <ele>450.887734</ele>
        <time>2021-09-23T10:21:17.985Z</time>
      </trkpt>
      <trkpt lat="42.14906" lon="43.10721">
        <ele>459.174149</ele>
        <time>2021-09-23T10:23:03.948Z</time>
      </trkpt>
      <trkpt lat="42.15044" lon="43.10971">
        <ele>460.223751</ele>
        <time>2021-09-23T10:24:09.959Z</time>
      </trkpt>
      <trkpt lat="42.15146" lon="43.11207">
        <ele>468.6843</ele>
        <time>2021-09-23T10:25:51.976Z</time>
      </trkpt>
      <trkpt lat="42.15327" lon="43.11313">
        <ele>477.3917</ele>
        <time>2021-09-23T10:27:34.984Z</time>
      </trkpt>
      <trkpt lat="42.15521" lon="43.1142">
        <ele>480.557482</ele>
        <time>2021-09-23T10:28:58.986Z</time>
      </trkpt>
      <trkpt lat="42.1571" lon="43.11535">
        <ele>486.388694</ele>
        <time>2021-09-23T10:30:29.016Z</time>
      </trkpt>
      <trkpt lat="42.15899" lon="43.11604">
        <ele>497.689443</ele>
        <time>2021-09-23T10:32:13.971Z</time>
      </trkpt>
      <trkpt lat="42.16076" lon="43.11732">
        <ele>497.100402</ele>
        <time>2021-09-23T10:33:22.981Z</time>
      </trkpt>
      <trkpt lat="42.16278" lon="43.11835">
        <ele>498.092393</ele>
        <time>2021-09-23T10:34:24.023Z</time>
      </trkpt>
      <trkpt lat="42.16447" lon="43.12">
        <ele>500.617037</ele>
        <time>2021-09-23T10:35:45.962Z</time>
      </trkpt>
      <trkpt lat="42.16683" lon="43.1206">
        <ele>490.477296</ele>
        <time>2021-09-23T10:36:27.965Z</time>
      </trkpt>
      <trkpt lat="42.16861" lon="43.12185">
        <ele>497.652407</ele>
        <time>2021-09-23T10:37:58.976Z</time>
      </trkpt>
      <trkpt lat="42.16977" lon="43.12392">
        <ele>510.188314</ele>
        <time>2021-09-23T10:40:01.971Z</time>
      </trkpt>
      <trkpt lat="42.1709" lon="43.12597">
        <ele>527.783943</ele>
        <time>2021-09-23T10:42:35.960Z</time>
      </trkpt>
      <trkpt lat="42.17166" lon="43.12848">
        <ele>538.300753</ele>
        <time>2021-09-23T10:44:57.991Z</time>
      </trkpt>
      <trkpt lat="42.17348" lon="43.13018">
        <ele>537.447564</ele>
        <time>2021-09-23T10:46:03.983Z</time>
      </trkpt>
      <trkpt lat="42.17525" lon="43.13156">
        <ele>540.685195</ele>
        <time>2021-09-23T10:47:20.004Z</time>
      </trkpt>
      <trkpt lat="42.17682" lon="43.13319">
        <ele>539.45256</ele>
        <time>2021-09-23T10:48:36.984Z</time>
      </trkpt>
      <trkpt lat="42.17833" lon="43.13479">
        <ele>534.702712</ele>
        <time>2021-09-23T10:50:15.976Z</time>
      </trkpt>
      <trkpt lat="42.18017" lon="43.13584">
        <ele>541.015166</ele>
        <time>2021-09-23T10:52:00.964Z</time>
      </trkpt>
      <trkpt lat="42.18246" lon="43.13686">
        <ele>538.159161</ele>
        <time>2021-09-23T10:52:54.965Z</time>
      </trkpt>
      <trkpt lat="42.18442" lon="43.13804">
        <ele>543.574801</ele>
        <time>2021-09-23T10:54:10.958Z</time>
      </trkpt>
      <trkpt lat="42.18587" lon="43.13988">
        <ele>553.78517</ele>
        <time>2021-09-23T10:55:49.949Z</time>
      </trkpt>
      <trkpt lat="42.18749" lon="43.14167">
        <ele>557.758028</ele>
        <time>2021-09-23T10:57:07.974Z</time>
      </trkpt>
      <trkpt lat="42.18917" lon="43.14378">
        <ele>566.201734</ele>
        <time>2021-09-23T10:58:32.975Z</time>
      </trkpt>
      <trkpt lat="42.19013" lon="43.14609">
        <ele>578.422791</ele>
        <time>2021-09-23T11:00:09.972Z</time>
      </trkpt>
      <trkpt lat="42.1917" lon="43.14777">
        <ele>581.899547</ele>
        <time>2021-09-23T11:01:49.965Z</time>
      </trkpt>
      <trkpt lat="42.19364" lon="43.14911">
        <ele>583.47536</ele>
        <time>2021-09-23T11:02:58.997Z</time>
      </trkpt>
      <trkpt lat="42.19523" lon="43.15057">
        <ele>591.63624</ele>
        <time>2021-09-23T11:04:26.962Z</time>
      </trkpt>
      <trkpt lat="42.19704" lon="43.15193">
        <ele>586.916336</ele>
        <time>2021-09-23T11:05:23.965Z</time>
      </trkpt>
      <trkpt lat="42.19906" lon="43.15252">
        <ele>589.872922</ele>
        <time>2021-09-23T11:06:50.978Z</time>
      </trkpt>
      <trkpt lat="42.20119" lon="43.15294">
        <ele>590.889772</ele>
        <time>2021-09-23T11:07:52.015Z</time>
      </trkpt>
      <trkpt lat="42.20325" lon="43.15297">
        <ele>598.11861</ele>
        <time>2021-09-23T11:09:08.967Z</time>
      </trkpt>
      <trkpt lat="42.2053" lon="43.15355">
        <ele>602.636024</ele>
        <time>2021-09-23T11:10:35.973Z</time>
      </trkpt>
      <trkpt lat="42.20748" lon="43.1549">
        <ele>598.147072</ele>
        <time>2021-09-23T11:11:38.962Z</time>
      </trkpt>
      <trkpt lat="42.20947" lon="43.15604">
        <ele>596.476724</ele>
        <time>2021-09-23T11:12:28.965Z</time>
      </trkpt>
      <trkpt lat="42.21149" lon="43.15554">
        <ele>596.047381</ele>
        <time>2021-09-23T11:13:15.974Z</time>
      </trkpt>
      <trkpt lat="42.2134" lon="43.15481">
        <ele>590.156496</ele>
        <time>2021-09-23T11:13:58.978Z</time>
      </trkpt>
      <trkpt lat="42.21532" lon="43.15346">
        <ele>588.352959</ele>
        <time>2021-09-23T11:15:00.972Z</time>
      </trkpt>
      <trkpt lat="42.21737" lon="43.15399">
        <ele>584.651483</ele>
        <time>2021-09-23T11:15:50.990Z</time>
      </trkpt>
      <trkpt lat="42.21977" lon="43.15563">
        <ele>574.607373</ele>
        <time>2021-09-23T11:16:37.965Z</time>
      </trkpt>
      <trkpt lat="42.22207" lon="43.15589">
        <ele>568.55626</ele>
        <time>2021-09-23T11:17:24.977Z</time>
      </trkpt>
      <trkpt lat="42.22381" lon="43.15768">
        <ele>571.045974</ele>
        <time>2021-09-23T11:18:21.007Z</time>
      </trkpt>
      <trkpt lat="42.22535" lon="43.15941">
        <ele>583.486321</ele>
        <time>2021-09-23T11:20:00.985Z</time>
      </trkpt>
      <trkpt lat="42.22632" lon="43.16171">
        <ele>592.244145</ele>
        <time>2021-09-23T11:21:37.978Z</time>
      </trkpt>
      <trkpt lat="42.22753" lon="43.16386">
        <ele>590.491807</ele>
        <time>2021-09-23T11:22:46.977Z</time>
      </trkpt>
      <trkpt lat="42.22919" lon="43.16535">
        <ele>596.721747</ele>
        <time>2021-09-23T11:24:11.014Z</time>
      </trkpt>
      <trkpt lat="42.23093" lon="43.16731">
        <ele>594.777961</ele>
        <time>2021-09-23T11:25:06.980Z</time>
      </trkpt>
      <trkpt lat="42.23106" lon="43.17021">
        <ele>603.842286</ele>
        <time>2021-09-23T11:26:19.975Z</time>
      </trkpt>
      <trkpt lat="42.23151" lon="43.17283">
        <ele>614.921157</ele>
        <time>2021-09-23T11:27:46.977Z</time>
      </trkpt>
      <trkpt lat="42.23204" lon="43.17548">
        <ele>615.155249</ele>
        <time>2021-09-23T11:29:07.974Z</time>
      </trkpt>
      <trkpt lat="42.23307" lon="43.17773">
        <ele>617.833659</ele>
        <time>2021-09-23T11:30:39.002Z</time>
      </trkpt>
      <trkpt lat="42.2343" lon="43.18021">
        <ele>619.507823</ele>
        <time>2021-09-23T11:31:42.970Z</time>
      </trkpt>
      <trkpt lat="42.23574" lon="43.18249">
        <ele>620.964109</ele>
        <time>2021-09-23T11:33:01.977Z</time>
      </trkpt>
      <trkpt lat="42.23789" lon="43.18356">
        <ele>619.859086</ele>
        <time>2021-09-23T11:33:49.971Z</time>
      </trkpt>
      <trkpt lat="42.23979" lon="43.18448">
        <ele>629.195706</ele>
        <time>2021-09-23T11:35:30.023Z</time>
      </trkpt>
      <trkpt lat="42.24169" lon="43.18476">
        <ele>644.864581</ele>
        <time>2021-09-23T11:37:51.985Z</time>
      </trkpt>
      <trkpt lat="42.24316" lon="43.18616">
        <ele>654.210062</ele>
        <time>2021-09-23T11:39:22.978Z</time>
      </trkpt>
      <trkpt lat="42.24495" lon="43.18761">
        <ele>635.90772</ele>
        <time>2021-09-23T11:39:57.968Z</time>
      </trkpt>
      <trkpt lat="42.24754" lon="43.18764">
        <ele>615.543361</ele>
        <time>2021-09-23T11:40:27.006Z</time>
      </trkpt>
      <trkpt lat="42.24979" lon="43.18801">
        <ele>624.833358</ele>
        <time>2021-09-23T11:41:59.004Z</time>
      </trkpt>
      <trkpt lat="42.25165" lon="43.18751">
        <ele>640.409853</ele>
        <time>2021-09-23T11:44:30.969Z</time>
      </trkpt>
      <trkpt lat="42.25357" lon="43.18713">
        <ele>645.443388</ele>
        <time>2021-09-23T11:45:56.976Z</time>
      </trkpt>
      <trkpt lat="42.25482" lon="43.18947">
        <ele>642.695738</ele>
        <time>2021-09-23T11:46:51.979Z</time>
      </trkpt>
      <trkpt lat="42.2571" lon="43.18878">
        <ele>624.852344</ele>
        <time>2021-09-23T11:52:03.988Z</time>
      </trkpt>
      <trkpt lat="42.25902" lon="43.19008">
        <ele>616.905343</ele>
        <time>2021-09-23T11:52:40.980Z</time>
      </trkpt>
      <trkpt lat="42.26034" lon="43.19198">
        <ele>631.520793</ele>
        <time>2021-09-23T11:55:10.978Z</time>
      </trkpt>
      <trkpt lat="42.2625" lon="43.19286">
        <ele>629.653249</ele>
        <time>2021-09-23T11:56:46.003Z</time>
      </trkpt>
      <trkpt lat="42.26489" lon="43.19257">
        <ele>624.586879</ele>
        <time>2021-09-23T11:57:33.992Z</time>
      </trkpt>
      <trkpt lat="42.26681" lon="43.19358">
        <ele>637.726599</ele>
        <time>2021-09-23T11:59:02.980Z</time>
      </trkpt>
      <trkpt lat="42.26867" lon="43.1948">
        <ele>647.547895</ele>
        <time>2021-09-23T12:03:23.982Z</time>
      </trkpt>
      <trkpt lat="42.27044" lon="43.19629">
        <ele>650.319204</ele>
        <time>2021-09-23T12:04:45.992Z</time>
      </trkpt>
      <trkpt lat="42.27235" lon="43.19747">
        <ele>651.59109</ele>
        <time>2021-09-23T12:05:54.979Z</time>
      </trkpt>
      <trkpt lat="42.27446" lon="43.19887">
        <ele>652.447538</ele>
        <time>2021-09-23T12:07:15.013Z</time>
      </trkpt>
      <trkpt lat="42.27634" lon="43.20064">
        <ele>646.337875</ele>
        <time>2021-09-23T12:08:07.986Z</time>
      </trkpt>
      <trkpt lat="42.27718" lon="43.20347">
        <ele>630.384535</ele>
        <time>2021-09-23T12:08:53.980Z</time>
      </trkpt>
      <trkpt lat="42.27855" lon="43.20517">
        <ele>609.796818</ele>
        <time>2021-09-23T12:09:43.017Z</time>
      </trkpt>
      <trkpt lat="42.2807" lon="43.2048">
        <ele>588.191464</ele>
        <time>2021-09-23T12:10:28.979Z</time>
      </trkpt>
      <trkpt lat="42.28099" lon="43.20631">
        <ele>567.445363</ele>
        <time>2021-09-23T12:11:25.983Z</time>
      </trkpt>
      <trkpt lat="42.28296" lon="43.20718">
        <ele>550.220759</ele>
        <time>2021-09-23T12:12:18.973Z</time>
      </trkpt>
      <trkpt lat="42.28389" lon="43.20916">
        <ele>527.844468</ele>
        <time>2021-09-23T12:13:29.987Z</time>
      </trkpt>
      <trkpt lat="42.28295" lon="43.21155">
        <ele>525.258536</ele>
        <time>2021-09-23T12:15:05.974Z</time>
      </trkpt>
      <trkpt lat="42.28108" lon="43.2124">
        <ele>537.54892</ele>
        <time>2021-09-23T12:16:56.976Z</time>
      </trkpt>
      <trkpt lat="42.27917" lon="43.21288">
        <ele>552.040988</ele>
        <time>2021-09-23T12:19:05.017Z</time>
      </trkpt>
      <trkpt lat="42.27739" lon="43.21306">
        <ele>566.690497</ele>
        <time>2021-09-23T12:21:34.971Z</time>
      </trkpt>
      <trkpt lat="42.27555" lon="43.21232">
        <ele>578.301974</ele>
        <time>2021-09-23T12:24:02.993Z</time>
      </trkpt>
      <trkpt lat="42.27342" lon="43.21287">
        <ele>581.05105</ele>
        <time>2021-09-23T12:25:29.994Z</time>
      </trkpt>
      <trkpt lat="42.27145" lon="43.21295">
        <ele>592.192038</ele>
        <time>2021-09-23T12:27:32.989Z</time>
      </trkpt>
      <trkpt lat="42.26966" lon="43.21256">
        <ele>607.328629</ele>
        <time>2021-09-23T12:30:06.993Z</time>
      </trkpt>
      <trkpt lat="42.26796" lon="43.21355">
        <ele>606.359951</ele>
        <time>2021-09-23T12:31:52.985Z</time>
      </trkpt>
      <trkpt lat="42.26741" lon="43.21652">
        <ele>593.032471</ele>
        <time>2021-09-23T12:32:59.982Z</time>
      </trkpt>
      <trkpt lat="42.26634" lon="43.21852">
        <ele>605.864842</ele>
        <time>2021-09-23T12:35:26.979Z</time>
      </trkpt>
      <trkpt lat="42.26656" lon="43.22093">
        <ele>610.171902</ele>
        <time>2021-09-23T12:37:23.983Z</time>
      </trkpt>
      <trkpt lat="42.26875" lon="43.22278">
        <ele>601.184462</ele>
        <time>2021-09-23T12:38:09.981Z</time>
      </trkpt>
      <trkpt lat="42.26907" lon="43.22531">
        <ele>606.502384</ele>
        <time>2021-09-23T12:39:13.996Z</time>
      </trkpt>
      <trkpt lat="42.26973" lon="43.22791">
        <ele>607.687987</ele>
        <time>2021-09-23T12:40:31.995Z</time>
      </trkpt>
      <trkpt lat="42.27183" lon="43.2291">
        <ele>597.157209</ele>
        <time>2021-09-23T12:41:19.986Z</time>
      </trkpt>
      <trkpt lat="42.27412" lon="43.23034">
        <ele>578.392173</ele>
        <time>2021-09-23T12:42:08.986Z</time>
      </trkpt>
      <trkpt lat="42.27593" lon="43.23191">
        <ele>568.789298</ele>
        <time>2021-09-23T12:42:57.979Z</time>
      </trkpt>
      <trkpt lat="42.27783" lon="43.23329">
        <ele>570.823478</ele>
        <time>2021-09-23T12:43:59.985Z</time>
      </trkpt>
      <trkpt lat="42.2795" lon="43.23486">
        <ele>574.063315</ele>
        <time>2021-09-23T12:44:56.981Z</time>
      </trkpt>
      <trkpt lat="42.28" lon="43.23782">
        <ele>586.736289</ele>
        <time>2021-09-23T12:46:04.984Z</time>
      </trkpt>
      <trkpt lat="42.28007" lon="43.24044">
        <ele>594.166316</ele>
        <time>2021-09-23T12:48:19.987Z</time>
      </trkpt>
      <trkpt lat="42.28012" lon="43.24245">
        <ele>592.84037</ele>
        <time>2021-09-23T12:49:31.014Z</time>
      </trkpt>
      <trkpt lat="42.27982" lon="43.24444">
        <ele>608.439708</ele>
        <time>2021-09-23T12:55:16.996Z</time>
      </trkpt>
      <trkpt lat="42.28077" lon="43.24663">
        <ele>621.383929</ele>
        <time>2021-09-23T12:57:43.998Z</time>
      </trkpt>
      <trkpt lat="42.282" lon="43.24894">
        <ele>623.272563</ele>
        <time>2021-09-23T12:58:53.987Z</time>
      </trkpt>
      <trkpt lat="42.28299" lon="43.25134">
        <ele>629.176718</ele>
        <time>2021-09-23T13:00:11.991Z</time>
      </trkpt>
      <trkpt lat="42.28438" lon="43.25322">
        <ele>632.878937</ele>
        <time>2021-09-23T13:01:32.981Z</time>
      </trkpt>
      <trkpt lat="42.28599" lon="43.2548">
        <ele>620.677882</ele>
        <time>2021-09-23T13:02:34.967Z</time>
      </trkpt>
      <trkpt lat="42.28599" lon="43.2575">
        <ele>603.422591</ele>
        <time>2021-09-23T13:03:19.974Z</time>
      </trkpt>
      <trkpt lat="42.28524" lon="43.26033">
        <ele>597.692002</ele>
        <time>2021-09-23T13:04:04.019Z</time>
      </trkpt>
      <trkpt lat="42.28516" lon="43.26348">
        <ele>594.021991</ele>
        <time>2021-09-23T13:04:46.982Z</time>
      </trkpt>
      <trkpt lat="42.28549" lon="43.26641">
        <ele>581.152797</ele>
        <time>2021-09-23T13:05:40.992Z</time>
      </trkpt>
      <trkpt lat="42.28639" lon="43.26876">
        <ele>562.855062</ele>
        <time>2021-09-23T13:06:44.996Z</time>
      </trkpt>
      <trkpt lat="42.28845" lon="43.26937">
        <ele>541.222622</ele>
        <time>2021-09-23T13:07:51.996Z</time>
      </trkpt>
      <trkpt lat="42.28838" lon="43.27131">
        <ele>532.536553</ele>
        <time>2021-09-23T13:08:42.019Z</time>
      </trkpt>
      <trkpt lat="42.28769" lon="43.27422">
        <ele>521.450564</ele>
        <time>2021-09-23T13:09:42.983Z</time>
      </trkpt>
      <trkpt lat="42.28774" lon="43.2759">
        <ele>500.133239</ele>
        <time>2021-09-23T13:10:39.958Z</time>
      </trkpt>
      <trkpt lat="42.28827" lon="43.27794">
        <ele>474.441931</ele>
        <time>2021-09-23T13:11:38.979Z</time>
      </trkpt>
      <trkpt lat="42.28925" lon="43.27925">
        <ele>445.906141</ele>
        <time>2021-09-23T13:12:34.976Z</time>
      </trkpt>
      <trkpt lat="42.29114" lon="43.27775">
        <ele>434.534247</ele>
        <time>2021-09-23T13:13:24.983Z</time>
      </trkpt>
      <trkpt lat="42.29242" lon="43.2794">
        <ele>406.629929</ele>
        <time>2021-09-23T13:14:34.992Z</time>
      </trkpt>
      <trkpt lat="42.29135" lon="43.28106">
        <ele>375.27705</ele>
        <time>2021-09-23T13:15:40.981Z</time>
      </trkpt>
      <trkpt lat="42.29021" lon="43.28348">
        <ele>378.864248</ele>
        <time>2021-09-23T13:16:35.997Z</time>
      </trkpt>
      <trkpt lat="42.29133" lon="43.28593">
        <ele>390.296363</ele>
        <time>2021-09-23T13:17:31.995Z</time>
      </trkpt>
      <trkpt lat="42.29117" lon="43.28899">
        <ele>390.008608</ele>
        <time>2021-09-23T13:18:39.990Z</time>
      </trkpt>
      <trkpt lat="42.29019" lon="43.29086">
        <ele>388.634254</ele>
        <time>2021-09-23T13:20:07.993Z</time>
      </trkpt>
      <trkpt lat="42.28978" lon="43.2911">
        <ele>402.308069</ele>
        <time>2021-09-23T13:28:49.022Z</time>
      </trkpt>
      <trkpt lat="42.28952" lon="43.29141">
        <ele>407.183441</ele>
        <time>2021-09-23T13:54:00.089Z</time>
      </trkpt>
    </trkseg>
  </trk>
  <trk>
    <name><![CDATA[Tour d'Europe: étape 454]]></name>
    <extensions>
      <line xmlns="http://www.topografix.com/GPX/gpx_style/0/2">
        <color>008888</color>
        <width>4</width>
      </line>
    </extensions>
    <trkseg>
      <trkpt lat="42.28952" lon="43.29135">
        <ele>387.356243</ele>
        <time>2021-09-25T05:14:51.230Z</time>
      </trkpt>
      <trkpt lat="42.29091" lon="43.29105">
        <ele>390.430346</ele>
        <time>2021-09-25T05:21:29.213Z</time>
      </trkpt>
      <trkpt lat="42.2909" lon="43.29386">
        <ele>398.801338</ele>
        <time>2021-09-25T05:22:45.173Z</time>
      </trkpt>
      <trkpt lat="42.29167" lon="43.29654">
        <ele>395.686041</ele>
        <time>2021-09-25T05:23:53.202Z</time>
      </trkpt>
      <trkpt lat="42.29336" lon="43.29762">
        <ele>389.43746</ele>
        <time>2021-09-25T05:24:48.173Z</time>
      </trkpt>
      <trkpt lat="42.29125" lon="43.29747">
        <ele>379.030613</ele>
        <time>2021-09-25T05:25:42.214Z</time>
      </trkpt>
      <trkpt lat="42.2901" lon="43.29929">
        <ele>384.701832</ele>
        <time>2021-09-25T05:27:20.192Z</time>
      </trkpt>
      <trkpt lat="42.29179" lon="43.29958">
        <ele>404.483797</ele>
        <time>2021-09-25T05:29:39.196Z</time>
      </trkpt>
      <trkpt lat="42.2902" lon="43.30056">
        <ele>425.168104</ele>
        <time>2021-09-25T05:32:17.228Z</time>
      </trkpt>
      <trkpt lat="42.28938" lon="43.3028">
        <ele>438.166711</ele>
        <time>2021-09-25T05:34:31.180Z</time>
      </trkpt>
      <trkpt lat="42.28797" lon="43.30449">
        <ele>453.398987</ele>
        <time>2021-09-25T05:37:12.179Z</time>
      </trkpt>
      <trkpt lat="42.28699" lon="43.30661">
        <ele>486.648938</ele>
        <time>2021-09-25T05:39:56.183Z</time>
      </trkpt>
      <trkpt lat="42.28613" lon="43.30884">
        <ele>506.79856</ele>
        <time>2021-09-25T05:42:49.191Z</time>
      </trkpt>
      <trkpt lat="42.28449" lon="43.31021">
        <ele>518.992524</ele>
        <time>2021-09-25T05:45:29.180Z</time>
      </trkpt>
      <trkpt lat="42.28322" lon="43.31196">
        <ele>538.173586</ele>
        <time>2021-09-25T05:48:08.193Z</time>
      </trkpt>
      <trkpt lat="42.28239" lon="43.31451">
        <ele>559.577715</ele>
        <time>2021-09-25T05:51:38.176Z</time>
      </trkpt>
      <trkpt lat="42.28116" lon="43.31683">
        <ele>585.39636</ele>
        <time>2021-09-25T05:57:12.172Z</time>
      </trkpt>
      <trkpt lat="42.27991" lon="43.31842">
        <ele>614.026512</ele>
        <time>2021-09-25T06:00:22.213Z</time>
      </trkpt>
      <trkpt lat="42.27819" lon="43.31936">
        <ele>634.331426</ele>
        <time>2021-09-25T06:03:08.192Z</time>
      </trkpt>
      <trkpt lat="42.27734" lon="43.31824">
        <ele>642.957883</ele>
        <time>2021-09-25T06:06:22.166Z</time>
      </trkpt>
      <trkpt lat="42.27737" lon="43.31763">
        <ele>659.083765</ele>
        <time>2021-09-25T06:09:16.183Z</time>
      </trkpt>
      <trkpt lat="42.27584" lon="43.31906">
        <ele>680.651828</ele>
        <time>2021-09-25T06:12:12.160Z</time>
      </trkpt>
      <trkpt lat="42.27512" lon="43.32103">
        <ele>699.860937</ele>
        <time>2021-09-25T06:15:01.174Z</time>
      </trkpt>
      <trkpt lat="42.27594" lon="43.32318">
        <ele>715.991073</ele>
        <time>2021-09-25T06:18:04.175Z</time>
      </trkpt>
      <trkpt lat="42.27554" lon="43.32509">
        <ele>740.59716</ele>
        <time>2021-09-25T06:21:06.174Z</time>
      </trkpt>
      <trkpt lat="42.27393" lon="43.32602">
        <ele>755.91861</ele>
        <time>2021-09-25T06:23:35.169Z</time>
      </trkpt>
      <trkpt lat="42.2721" lon="43.32597">
        <ele>768.028231</ele>
        <time>2021-09-25T06:26:31.170Z</time>
      </trkpt>
      <trkpt lat="42.27046" lon="43.32787">
        <ele>764.906993</ele>
        <time>2021-09-25T06:27:43.179Z</time>
      </trkpt>
      <trkpt lat="42.26881" lon="43.32981">
        <ele>767.213851</ele>
        <time>2021-09-25T06:29:21.186Z</time>
      </trkpt>
      <trkpt lat="42.26796" lon="43.33215">
        <ele>771.468926</ele>
        <time>2021-09-25T06:31:08.232Z</time>
      </trkpt>
      <trkpt lat="42.26703" lon="43.33464">
        <ele>771.882383</ele>
        <time>2021-09-25T06:32:28.213Z</time>
      </trkpt>
      <trkpt lat="42.26546" lon="43.33629">
        <ele>777.927753</ele>
        <time>2021-09-25T06:34:00.180Z</time>
      </trkpt>
      <trkpt lat="42.26359" lon="43.33676">
        <ele>782.015379</ele>
        <time>2021-09-25T06:35:29.195Z</time>
      </trkpt>
      <trkpt lat="42.26151" lon="43.33611">
        <ele>779.855092</ele>
        <time>2021-09-25T06:36:35.187Z</time>
      </trkpt>
      <trkpt lat="42.2597" lon="43.33709">
        <ele>777.589636</ele>
        <time>2021-09-25T06:37:33.186Z</time>
      </trkpt>
      <trkpt lat="42.25804" lon="43.33904">
        <ele>772.707993</ele>
        <time>2021-09-25T06:38:26.182Z</time>
      </trkpt>
      <trkpt lat="42.25612" lon="43.34099">
        <ele>755.816174</ele>
        <time>2021-09-25T06:38:59.194Z</time>
      </trkpt>
      <trkpt lat="42.25415" lon="43.34225">
        <ele>742.757997</ele>
        <time>2021-09-25T07:44:26.187Z</time>
      </trkpt>
      <trkpt lat="42.25175" lon="43.34365">
        <ele>722.337402</ele>
        <time>2021-09-25T07:45:03.180Z</time>
      </trkpt>
      <trkpt lat="42.24951" lon="43.34557">
        <ele>706.465167</ele>
        <time>2021-09-25T07:45:43.207Z</time>
      </trkpt>
      <trkpt lat="42.24688" lon="43.34734">
        <ele>700.175811</ele>
        <time>2021-09-25T07:46:25.202Z</time>
      </trkpt>
      <trkpt lat="42.24493" lon="43.34781">
        <ele>710.375306</ele>
        <time>2021-09-25T07:47:44.202Z</time>
      </trkpt>
      <trkpt lat="42.24478" lon="43.35065">
        <ele>705.242888</ele>
        <time>2021-09-25T07:48:31.209Z</time>
      </trkpt>
      <trkpt lat="42.24456" lon="43.35355">
        <ele>696.054129</ele>
        <time>2021-09-25T07:49:28.192Z</time>
      </trkpt>
      <trkpt lat="42.2442" lon="43.35659">
        <ele>695.131688</ele>
        <time>2021-09-25T07:50:36.189Z</time>
      </trkpt>
      <trkpt lat="42.24368" lon="43.35923">
        <ele>701.120491</ele>
        <time>2021-09-25T07:51:38.205Z</time>
      </trkpt>
      <trkpt lat="42.24207" lon="43.36061">
        <ele>716.332741</ele>
        <time>2021-09-25T07:53:26.206Z</time>
      </trkpt>
      <trkpt lat="42.24101" lon="43.3628">
        <ele>718.390485</ele>
        <time>2021-09-25T07:55:15.209Z</time>
      </trkpt>
      <trkpt lat="42.24013" lon="43.3653">
        <ele>729.568828</ele>
        <time>2021-09-25T07:57:05.192Z</time>
      </trkpt>
      <trkpt lat="42.23871" lon="43.36715">
        <ele>747.796288</ele>
        <time>2021-09-25T07:59:06.222Z</time>
      </trkpt>
      <trkpt lat="42.23736" lon="43.36909">
        <ele>755.781103</ele>
        <time>2021-09-25T08:00:44.191Z</time>
      </trkpt>
      <trkpt lat="42.23586" lon="43.37088">
        <ele>766.546722</ele>
        <time>2021-09-25T08:02:26.231Z</time>
      </trkpt>
      <trkpt lat="42.23422" lon="43.37238">
        <ele>773.412902</ele>
        <time>2021-09-25T08:04:20.190Z</time>
      </trkpt>
      <trkpt lat="42.23281" lon="43.37416">
        <ele>786.636881</ele>
        <time>2021-09-25T08:06:35.204Z</time>
      </trkpt>
      <trkpt lat="42.23164" lon="43.37625">
        <ele>798.168559</ele>
        <time>2021-09-25T08:09:06.200Z</time>
      </trkpt>
      <trkpt lat="42.23157" lon="43.37887">
        <ele>806.477936</ele>
        <time>2021-09-25T08:10:59.187Z</time>
      </trkpt>
      <trkpt lat="42.23073" lon="43.38137">
        <ele>815.087623</ele>
        <time>2021-09-25T08:12:22.198Z</time>
      </trkpt>
      <trkpt lat="42.22853" lon="43.38182">
        <ele>822.160836</ele>
        <time>2021-09-25T08:26:00.204Z</time>
      </trkpt>
      <trkpt lat="42.22634" lon="43.38246">
        <ele>815.595972</ele>
        <time>2021-09-25T08:26:48.212Z</time>
      </trkpt>
      <trkpt lat="42.22413" lon="43.38306">
        <ele>818.676582</ele>
        <time>2021-09-25T08:27:42.194Z</time>
      </trkpt>
      <trkpt lat="42.22191" lon="43.38273">
        <ele>825.160721</ele>
        <time>2021-09-25T08:28:58.214Z</time>
      </trkpt>
      <trkpt lat="42.22002" lon="43.38154">
        <ele>828.163007</ele>
        <time>2021-09-25T08:30:12.216Z</time>
      </trkpt>
      <trkpt lat="42.21819" lon="43.38004">
        <ele>833.269772</ele>
        <time>2021-09-25T08:31:15.208Z</time>
      </trkpt>
      <trkpt lat="42.21623" lon="43.37898">
        <ele>830.358654</ele>
        <time>2021-09-25T08:32:22.230Z</time>
      </trkpt>
      <trkpt lat="42.21423" lon="43.38052">
        <ele>819.438204</ele>
        <time>2021-09-25T08:32:57.207Z</time>
      </trkpt>
      <trkpt lat="42.21273" lon="43.38271">
        <ele>808.393258</ele>
        <time>2021-09-25T08:33:19.191Z</time>
      </trkpt>
      <trkpt lat="42.21133" lon="43.38541">
        <ele>792.733096</ele>
        <time>2021-09-25T08:33:51.198Z</time>
      </trkpt>
      <trkpt lat="42.20996" lon="43.38753">
        <ele>787.948465</ele>
        <time>2021-09-25T08:34:52.210Z</time>
      </trkpt>
      <trkpt lat="42.2088" lon="43.38959">
        <ele>804.222538</ele>
        <time>2021-09-25T08:37:25.209Z</time>
      </trkpt>
      <trkpt lat="42.20766" lon="43.39188">
        <ele>830.82226</ele>
        <time>2021-09-25T08:40:06.210Z</time>
      </trkpt>
      <trkpt lat="42.20605" lon="43.39366">
        <ele>830.947421</ele>
        <time>2021-09-25T08:41:17.215Z</time>
      </trkpt>
      <trkpt lat="42.20414" lon="43.39639">
        <ele>815.411401</ele>
        <time>2021-09-25T08:41:53.215Z</time>
      </trkpt>
      <trkpt lat="42.20266" lon="43.39914">
        <ele>789.002911</ele>
        <time>2021-09-25T08:42:27.221Z</time>
      </trkpt>
      <trkpt lat="42.20326" lon="43.40192">
        <ele>792.664783</ele>
        <time>2021-09-25T08:43:21.203Z</time>
      </trkpt>
      <trkpt lat="42.20491" lon="43.40339">
        <ele>804.773435</ele>
        <time>2021-09-25T08:45:15.213Z</time>
      </trkpt>
      <trkpt lat="42.20682" lon="43.40444">
        <ele>808.599977</ele>
        <time>2021-09-25T08:46:17.208Z</time>
      </trkpt>
      <trkpt lat="42.20803" lon="43.40672">
        <ele>807.261537</ele>
        <time>2021-09-25T08:50:59.197Z</time>
      </trkpt>
      <trkpt lat="42.20905" lon="43.40941">
        <ele>803.560566</ele>
        <time>2021-09-25T08:52:03.202Z</time>
      </trkpt>
      <trkpt lat="42.20851" lon="43.41152">
        <ele>808.548496</ele>
        <time>2021-09-25T08:53:08.211Z</time>
      </trkpt>
      <trkpt lat="42.20921" lon="43.41411">
        <ele>808.518041</ele>
        <time>2021-09-25T08:54:33.208Z</time>
      </trkpt>
      <trkpt lat="42.20953" lon="43.41691">
        <ele>795.74606</ele>
        <time>2021-09-25T08:55:31.218Z</time>
      </trkpt>
      <trkpt lat="42.20976" lon="43.41983">
        <ele>784.554961</ele>
        <time>2021-09-25T08:56:31.197Z</time>
      </trkpt>
      <trkpt lat="42.21165" lon="43.42086">
        <ele>792.077507</ele>
        <time>2021-09-25T08:58:12.206Z</time>
      </trkpt>
      <trkpt lat="42.21359" lon="43.42199">
        <ele>800.116133</ele>
        <time>2021-09-25T08:59:30.224Z</time>
      </trkpt>
      <trkpt lat="42.21528" lon="43.42386">
        <ele>795.63701</ele>
        <time>2021-09-25T09:00:33.217Z</time>
      </trkpt>
      <trkpt lat="42.21743" lon="43.42647">
        <ele>787.885885</ele>
        <time>2021-09-25T09:01:19.217Z</time>
      </trkpt>
      <trkpt lat="42.21825" lon="43.42894">
        <ele>788.760536</ele>
        <time>2021-09-25T09:02:43.217Z</time>
      </trkpt>
      <trkpt lat="42.2192" lon="43.43203">
        <ele>796.295443</ele>
        <time>2021-09-25T09:03:27.230Z</time>
      </trkpt>
      <trkpt lat="42.22067" lon="43.43387">
        <ele>811.978602</ele>
        <time>2021-09-25T09:05:12.210Z</time>
      </trkpt>
      <trkpt lat="42.22139" lon="43.43679">
        <ele>815.790075</ele>
        <time>2021-09-25T09:06:07.217Z</time>
      </trkpt>
      <trkpt lat="42.22233" lon="43.43946">
        <ele>809.460825</ele>
        <time>2021-09-25T09:07:21.219Z</time>
      </trkpt>
      <trkpt lat="42.22272" lon="43.44244">
        <ele>809.639605</ele>
        <time>2021-09-25T09:08:35.213Z</time>
      </trkpt>
      <trkpt lat="42.22293" lon="43.4457">
        <ele>803.111833</ele>
        <time>2021-09-25T09:09:25.209Z</time>
      </trkpt>
      <trkpt lat="42.22313" lon="43.4489">
        <ele>800.595445</ele>
        <time>2021-09-25T09:10:27.217Z</time>
      </trkpt>
      <trkpt lat="42.22184" lon="43.45086">
        <ele>803.385919</ele>
        <time>2021-09-25T09:11:33.211Z</time>
      </trkpt>
      <trkpt lat="42.2215" lon="43.45323">
        <ele>826.30201</ele>
        <time>2021-09-25T09:14:00.235Z</time>
      </trkpt>
      <trkpt lat="42.2216" lon="43.45568">
        <ele>842.763994</ele>
        <time>2021-09-25T09:16:30.203Z</time>
      </trkpt>
      <trkpt lat="42.22176" lon="43.45845">
        <ele>850.544309</ele>
        <time>2021-09-25T09:18:43.214Z</time>
      </trkpt>
      <trkpt lat="42.2218" lon="43.46107">
        <ele>866.776291</ele>
        <time>2021-09-25T09:20:47.227Z</time>
      </trkpt>
      <trkpt lat="42.22174" lon="43.46368">
        <ele>878.302277</ele>
        <time>2021-09-25T09:23:01.214Z</time>
      </trkpt>
      <trkpt lat="42.2211" lon="43.46608">
        <ele>886.361666</ele>
        <time>2021-09-25T09:25:10.216Z</time>
      </trkpt>
      <trkpt lat="42.21972" lon="43.46808">
        <ele>890.0818</ele>
        <time>2021-09-25T09:27:03.208Z</time>
      </trkpt>
      <trkpt lat="42.21909" lon="43.47045">
        <ele>904.921645</ele>
        <time>2021-09-25T09:29:33.203Z</time>
      </trkpt>
      <trkpt lat="42.21893" lon="43.47296">
        <ele>922.389707</ele>
        <time>2021-09-25T09:32:10.235Z</time>
      </trkpt>
      <trkpt lat="42.21865" lon="43.47555">
        <ele>934.214481</ele>
        <time>2021-09-25T09:34:35.222Z</time>
      </trkpt>
      <trkpt lat="42.21869" lon="43.47825">
        <ele>940.887187</ele>
        <time>2021-09-25T09:37:06.246Z</time>
      </trkpt>
      <trkpt lat="42.2187" lon="43.48089">
        <ele>953.476054</ele>
        <time>2021-09-25T09:42:46.219Z</time>
      </trkpt>
      <trkpt lat="42.21778" lon="43.48327">
        <ele>965.104396</ele>
        <time>2021-09-25T09:48:04.217Z</time>
      </trkpt>
      <trkpt lat="42.21711" lon="43.48586">
        <ele>967.112986</ele>
        <time>2021-09-25T10:00:22.217Z</time>
      </trkpt>
      <trkpt lat="42.21732" lon="43.48882">
        <ele>963.580876</ele>
        <time>2021-09-25T10:06:52.218Z</time>
      </trkpt>
      <trkpt lat="42.2176" lon="43.49156">
        <ele>955.344722</ele>
        <time>2021-09-25T10:09:11.219Z</time>
      </trkpt>
      <trkpt lat="42.21864" lon="43.49314">
        <ele>954.88877</ele>
        <time>2021-09-25T10:11:57.216Z</time>
      </trkpt>
      <trkpt lat="42.21913" lon="43.4954">
        <ele>963.088055</ele>
        <time>2021-09-25T10:15:48.216Z</time>
      </trkpt>
      <trkpt lat="42.22016" lon="43.49755">
        <ele>978.995382</ele>
        <time>2021-09-25T10:19:46.219Z</time>
      </trkpt>
      <trkpt lat="42.22136" lon="43.49978">
        <ele>980.952236</ele>
        <time>2021-09-25T10:30:48.217Z</time>
      </trkpt>
      <trkpt lat="42.22157" lon="43.50234">
        <ele>978.900725</ele>
        <time>2021-09-25T10:34:09.221Z</time>
      </trkpt>
      <trkpt lat="42.22024" lon="43.50433">
        <ele>975.900246</ele>
        <time>2021-09-25T10:37:18.218Z</time>
      </trkpt>
      <trkpt lat="42.21835" lon="43.50575">
        <ele>980.52183</ele>
        <time>2021-09-25T10:38:25.225Z</time>
      </trkpt>
      <trkpt lat="42.21666" lon="43.50765">
        <ele>979.16717</ele>
        <time>2021-09-25T10:39:48.226Z</time>
      </trkpt>
      <trkpt lat="42.21572" lon="43.51085">
        <ele>976.151332</ele>
        <time>2021-09-25T10:40:39.224Z</time>
      </trkpt>
      <trkpt lat="42.21537" lon="43.51432">
        <ele>974.056648</ele>
        <time>2021-09-25T10:41:25.227Z</time>
      </trkpt>
      <trkpt lat="42.21338" lon="43.51638">
        <ele>961.734852</ele>
        <time>2021-09-25T10:42:13.223Z</time>
      </trkpt>
      <trkpt lat="42.21216" lon="43.52015">
        <ele>943.556248</ele>
        <time>2021-09-25T10:42:53.204Z</time>
      </trkpt>
      <trkpt lat="42.2118" lon="43.52303">
        <ele>930.409074</ele>
        <time>2021-09-25T10:43:16.234Z</time>
      </trkpt>
      <trkpt lat="42.21143" lon="43.52628">
        <ele>920.308475</ele>
        <time>2021-09-25T10:43:43.242Z</time>
      </trkpt>
      <trkpt lat="42.21003" lon="43.52968">
        <ele>909.472685</ele>
        <time>2021-09-25T10:44:23.265Z</time>
      </trkpt>
      <trkpt lat="42.20832" lon="43.53273">
        <ele>882.988198</ele>
        <time>2021-09-25T10:45:05.243Z</time>
      </trkpt>
      <trkpt lat="42.20624" lon="43.53342">
        <ele>862.269423</ele>
        <time>2021-09-25T10:45:45.244Z</time>
      </trkpt>
      <trkpt lat="42.20671" lon="43.53629">
        <ele>843.349234</ele>
        <time>2021-09-25T10:46:25.223Z</time>
      </trkpt>
      <trkpt lat="42.20851" lon="43.53758">
        <ele>816.591389</ele>
        <time>2021-09-25T10:47:06.228Z</time>
      </trkpt>
      <trkpt lat="42.21055" lon="43.53947">
        <ele>791.276822</ele>
        <time>2021-09-25T10:47:48.237Z</time>
      </trkpt>
      <trkpt lat="42.21198" lon="43.53763">
        <ele>778.098588</ele>
        <time>2021-09-25T10:48:28.237Z</time>
      </trkpt>
      <trkpt lat="42.21266" lon="43.54009">
        <ele>789.647924</ele>
        <time>2021-09-25T10:49:42.247Z</time>
      </trkpt>
      <trkpt lat="42.21338" lon="43.5421">
        <ele>801.496723</ele>
        <time>2021-09-25T10:51:26.233Z</time>
      </trkpt>
      <trkpt lat="42.21338" lon="43.54413">
        <ele>795.932353</ele>
        <time>2021-09-25T10:52:25.220Z</time>
      </trkpt>
      <trkpt lat="42.21122" lon="43.545">
        <ele>792.148621</ele>
        <time>2021-09-25T10:53:12.239Z</time>
      </trkpt>
      <trkpt lat="42.2101" lon="43.54691">
        <ele>796.372493</ele>
        <time>2021-09-25T10:54:24.244Z</time>
      </trkpt>
      <trkpt lat="42.21005" lon="43.54959">
        <ele>805.632804</ele>
        <time>2021-09-25T10:55:49.240Z</time>
      </trkpt>
      <trkpt lat="42.20994" lon="43.55262">
        <ele>806.110754</ele>
        <time>2021-09-25T10:57:05.230Z</time>
      </trkpt>
      <trkpt lat="42.20908" lon="43.55503">
        <ele>808.787548</ele>
        <time>2021-09-25T10:58:26.242Z</time>
      </trkpt>
      <trkpt lat="42.20748" lon="43.55681">
        <ele>816.064532</ele>
        <time>2021-09-25T10:59:49.217Z</time>
      </trkpt>
      <trkpt lat="42.20599" lon="43.55861">
        <ele>820.82559</ele>
        <time>2021-09-25T11:01:23.244Z</time>
      </trkpt>
      <trkpt lat="42.20471" lon="43.56083">
        <ele>830.583437</ele>
        <time>2021-09-25T11:03:05.235Z</time>
      </trkpt>
      <trkpt lat="42.20492" lon="43.56334">
        <ele>850.831353</ele>
        <time>2021-09-25T11:05:18.250Z</time>
      </trkpt>
      <trkpt lat="42.20491" lon="43.56587">
        <ele>860.630055</ele>
        <time>2021-09-25T11:07:17.240Z</time>
      </trkpt>
      <trkpt lat="42.20375" lon="43.56786">
        <ele>873.05069</ele>
        <time>2021-09-25T11:09:44.246Z</time>
      </trkpt>
      <trkpt lat="42.20232" lon="43.56973">
        <ele>886.725975</ele>
        <time>2021-09-25T11:12:30.229Z</time>
      </trkpt>
      <trkpt lat="42.20342" lon="43.57139">
        <ele>901.136456</ele>
        <time>2021-09-25T11:15:03.239Z</time>
      </trkpt>
      <trkpt lat="42.20399" lon="43.57395">
        <ele>917.812651</ele>
        <time>2021-09-25T11:16:55.227Z</time>
      </trkpt>
      <trkpt lat="42.20441" lon="43.57663">
        <ele>918.717949</ele>
        <time>2021-09-25T11:18:21.268Z</time>
      </trkpt>
      <trkpt lat="42.20358" lon="43.5791">
        <ele>915.77394</ele>
        <time>2021-09-25T11:19:54.244Z</time>
      </trkpt>
      <trkpt lat="42.20229" lon="43.58119">
        <ele>917.042574</ele>
        <time>2021-09-25T11:21:19.246Z</time>
      </trkpt>
      <trkpt lat="42.20081" lon="43.58307">
        <ele>924.894657</ele>
        <time>2021-09-25T11:22:53.233Z</time>
      </trkpt>
      <trkpt lat="42.19975" lon="43.58527">
        <ele>938.190855</ele>
        <time>2021-09-25T11:25:01.276Z</time>
      </trkpt>
      <trkpt lat="42.1988" lon="43.58756">
        <ele>955.595907</ele>
        <time>2021-09-25T11:27:22.275Z</time>
      </trkpt>
      <trkpt lat="42.19796" lon="43.59001">
        <ele>967.985724</ele>
        <time>2021-09-25T11:29:44.236Z</time>
      </trkpt>
      <trkpt lat="42.19659" lon="43.59179">
        <ele>984.143327</ele>
        <time>2021-09-25T11:32:12.286Z</time>
      </trkpt>
      <trkpt lat="42.19604" lon="43.59428">
        <ele>998.449015</ele>
        <time>2021-09-25T11:34:46.245Z</time>
      </trkpt>
      <trkpt lat="42.19587" lon="43.59732">
        <ele>991.882553</ele>
        <time>2021-09-25T11:44:02.238Z</time>
      </trkpt>
      <trkpt lat="42.19537" lon="43.60058">
        <ele>977.481289</ele>
        <time>2021-09-25T11:44:44.244Z</time>
      </trkpt>
      <trkpt lat="42.19477" lon="43.60382">
        <ele>957.867347</ele>
        <time>2021-09-25T11:45:24.226Z</time>
      </trkpt>
      <trkpt lat="42.1948" lon="43.60703">
        <ele>938.693529</ele>
        <time>2021-09-25T11:46:04.254Z</time>
      </trkpt>
      <trkpt lat="42.19375" lon="43.60991">
        <ele>926.544944</ele>
        <time>2021-09-25T11:46:44.247Z</time>
      </trkpt>
      <trkpt lat="42.19139" lon="43.61187">
        <ele>915.255755</ele>
        <time>2021-09-25T11:47:26.227Z</time>
      </trkpt>
      <trkpt lat="42.18898" lon="43.61376">
        <ele>907.365632</ele>
        <time>2021-09-25T11:48:06.247Z</time>
      </trkpt>
      <trkpt lat="42.18612" lon="43.61388">
        <ele>906.061778</ele>
        <time>2021-09-25T11:48:46.246Z</time>
      </trkpt>
      <trkpt lat="42.18429" lon="43.61676">
        <ele>897.262144</ele>
        <time>2021-09-25T11:49:26.245Z</time>
      </trkpt>
      <trkpt lat="42.18248" lon="43.61852">
        <ele>901.251742</ele>
        <time>2021-09-25T11:50:17.255Z</time>
      </trkpt>
      <trkpt lat="42.18041" lon="43.61877">
        <ele>916.95387</ele>
        <time>2021-09-25T11:51:24.248Z</time>
      </trkpt>
      <trkpt lat="42.17837" lon="43.61929">
        <ele>914.903176</ele>
        <time>2021-09-25T11:52:09.250Z</time>
      </trkpt>
      <trkpt lat="42.17651" lon="43.62052">
        <ele>908.178676</ele>
        <time>2021-09-25T11:52:49.249Z</time>
      </trkpt>
      <trkpt lat="42.17409" lon="43.62239">
        <ele>894.566248</ele>
        <time>2021-09-25T11:53:31.238Z</time>
      </trkpt>
      <trkpt lat="42.1719" lon="43.62511">
        <ele>876.482359</ele>
        <time>2021-09-25T11:54:08.242Z</time>
      </trkpt>
      <trkpt lat="42.1695" lon="43.62551">
        <ele>874.978885</ele>
        <time>2021-09-25T11:54:51.238Z</time>
      </trkpt>
      <trkpt lat="42.16727" lon="43.62533">
        <ele>878.197296</ele>
        <time>2021-09-25T11:55:47.249Z</time>
      </trkpt>
      <trkpt lat="42.16481" lon="43.62664">
        <ele>864.244641</ele>
        <time>2021-09-25T11:56:20.246Z</time>
      </trkpt>
      <trkpt lat="42.1634" lon="43.62866">
        <ele>854.948225</ele>
        <time>2021-09-25T11:56:41.239Z</time>
      </trkpt>
      <trkpt lat="42.16215" lon="43.6314">
        <ele>842.993517</ele>
        <time>2021-09-25T11:57:16.234Z</time>
      </trkpt>
      <trkpt lat="42.16059" lon="43.63352">
        <ele>840.549219</ele>
        <time>2021-09-25T11:58:09.243Z</time>
      </trkpt>
      <trkpt lat="42.15856" lon="43.63619">
        <ele>835.561445</ele>
        <time>2021-09-25T11:58:56.252Z</time>
      </trkpt>
      <trkpt lat="42.15656" lon="43.6379">
        <ele>835.757031</ele>
        <time>2021-09-25T11:59:47.256Z</time>
      </trkpt>
      <trkpt lat="42.15467" lon="43.63957">
        <ele>829.447079</ele>
        <time>2021-09-25T12:00:35.238Z</time>
      </trkpt>
      <trkpt lat="42.15222" lon="43.64013">
        <ele>824.645138</ele>
        <time>2021-09-25T12:01:15.276Z</time>
      </trkpt>
      <trkpt lat="42.14977" lon="43.64152">
        <ele>819.343403</ele>
        <time>2021-09-25T12:01:58.296Z</time>
      </trkpt>
      <trkpt lat="42.1484" lon="43.64358">
        <ele>819.124447</ele>
        <time>2021-09-25T12:02:38.231Z</time>
      </trkpt>
      <trkpt lat="42.14639" lon="43.64513">
        <ele>817.482705</ele>
        <time>2021-09-25T12:03:22.259Z</time>
      </trkpt>
      <trkpt lat="42.1441" lon="43.64553">
        <ele>815.424949</ele>
        <time>2021-09-25T12:04:08.245Z</time>
      </trkpt>
      <trkpt lat="42.14251" lon="43.64333">
        <ele>823.541393</ele>
        <time>2021-09-25T12:05:00.283Z</time>
      </trkpt>
      <trkpt lat="42.14068" lon="43.64189">
        <ele>818.492005</ele>
        <time>2021-09-25T12:05:45.250Z</time>
      </trkpt>
      <trkpt lat="42.1387" lon="43.6405">
        <ele>813.41924</ele>
        <time>2021-09-25T12:06:35.255Z</time>
      </trkpt>
      <trkpt lat="42.13668" lon="43.64171">
        <ele>809.759393</ele>
        <time>2021-09-25T12:07:16.246Z</time>
      </trkpt>
      <trkpt lat="42.13435" lon="43.64213">
        <ele>808.522398</ele>
        <time>2021-09-25T12:08:10.274Z</time>
      </trkpt>
      <trkpt lat="42.13254" lon="43.64359">
        <ele>805.070847</ele>
        <time>2021-09-25T12:09:01.240Z</time>
      </trkpt>
      <trkpt lat="42.13036" lon="43.64324">
        <ele>799.3843</ele>
        <time>2021-09-25T12:09:49.270Z</time>
      </trkpt>
      <trkpt lat="42.12816" lon="43.64284">
        <ele>798.040856</ele>
        <time>2021-09-25T12:10:31.244Z</time>
      </trkpt>
      <trkpt lat="42.12617" lon="43.64184">
        <ele>797.330652</ele>
        <time>2021-09-25T12:11:13.259Z</time>
      </trkpt>
      <trkpt lat="42.12421" lon="43.64384">
        <ele>787.709271</ele>
        <time>2021-09-25T12:11:54.246Z</time>
      </trkpt>
      <trkpt lat="42.12344" lon="43.64666">
        <ele>777.006896</ele>
        <time>2021-09-25T12:12:41.282Z</time>
      </trkpt>
      <trkpt lat="42.12107" lon="43.64633">
        <ele>780.63177</ele>
        <time>2021-09-25T12:13:38.240Z</time>
      </trkpt>
      <trkpt lat="42.11918" lon="43.64468">
        <ele>791.028161</ele>
        <time>2021-09-25T12:14:40.252Z</time>
      </trkpt>
      <trkpt lat="42.117" lon="43.64598">
        <ele>780.1364</ele>
        <time>2021-09-25T12:15:26.265Z</time>
      </trkpt>
      <trkpt lat="42.11488" lon="43.64659">
        <ele>771.969106</ele>
        <time>2021-09-25T12:16:06.295Z</time>
      </trkpt>
      <trkpt lat="42.11283" lon="43.64561">
        <ele>769.070771</ele>
        <time>2021-09-25T12:16:49.285Z</time>
      </trkpt>
      <trkpt lat="42.11093" lon="43.64518">
        <ele>771.315152</ele>
        <time>2021-09-25T12:17:30.243Z</time>
      </trkpt>
      <trkpt lat="42.10923" lon="43.64362">
        <ele>774.553088</ele>
        <time>2021-09-25T12:18:15.261Z</time>
      </trkpt>
      <trkpt lat="42.10746" lon="43.64506">
        <ele>767.184233</ele>
        <time>2021-09-25T12:19:01.249Z</time>
      </trkpt>
      <trkpt lat="42.10536" lon="43.64528">
        <ele>761.006383</ele>
        <time>2021-09-25T12:19:43.270Z</time>
      </trkpt>
      <trkpt lat="42.10331" lon="43.64585">
        <ele>758.808869</ele>
        <time>2021-09-25T12:20:26.254Z</time>
      </trkpt>
      <trkpt lat="42.10186" lon="43.64798">
        <ele>766.692495</ele>
        <time>2021-09-25T12:21:58.243Z</time>
      </trkpt>
      <trkpt lat="42.09983" lon="43.64847">
        <ele>760.419633</ele>
        <time>2021-09-25T12:34:38.266Z</time>
      </trkpt>
      <trkpt lat="42.09739" lon="43.64842">
        <ele>754.371505</ele>
        <time>2021-09-25T12:35:18.257Z</time>
      </trkpt>
      <trkpt lat="42.0949" lon="43.64905">
        <ele>748.044836</ele>
        <time>2021-09-25T12:35:58.287Z</time>
      </trkpt>
      <trkpt lat="42.09276" lon="43.64998">
        <ele>744.087762</ele>
        <time>2021-09-25T12:36:40.281Z</time>
      </trkpt>
      <trkpt lat="42.09087" lon="43.65114">
        <ele>742.767505</ele>
        <time>2021-09-25T12:37:25.255Z</time>
      </trkpt>
      <trkpt lat="42.08873" lon="43.65228">
        <ele>742.284302</ele>
        <time>2021-09-25T12:38:18.258Z</time>
      </trkpt>
      <trkpt lat="42.0868" lon="43.65324">
        <ele>740.230097</ele>
        <time>2021-09-25T12:38:58.285Z</time>
      </trkpt>
      <trkpt lat="42.08428" lon="43.65446">
        <ele>734.563377</ele>
        <time>2021-09-25T12:39:40.247Z</time>
      </trkpt>
      <trkpt lat="42.08233" lon="43.65544">
        <ele>732.539812</ele>
        <time>2021-09-25T12:40:20.283Z</time>
      </trkpt>
      <trkpt lat="42.08046" lon="43.65637">
        <ele>731.719742</ele>
        <time>2021-09-25T12:41:03.275Z</time>
      </trkpt>
      <trkpt lat="42.07846" lon="43.65741">
        <ele>731.146079</ele>
        <time>2021-09-25T12:41:49.286Z</time>
      </trkpt>
      <trkpt lat="42.07628" lon="43.65842">
        <ele>736.366748</ele>
        <time>2021-09-25T12:42:52.258Z</time>
      </trkpt>
      <trkpt lat="42.07431" lon="43.65976">
        <ele>736.112261</ele>
        <time>2021-09-25T12:43:40.270Z</time>
      </trkpt>
      <trkpt lat="42.0724" lon="43.662">
        <ele>730.59571</ele>
        <time>2021-09-25T12:44:21.262Z</time>
      </trkpt>
      <trkpt lat="42.07075" lon="43.66408">
        <ele>728.965683</ele>
        <time>2021-09-25T12:45:13.274Z</time>
      </trkpt>
      <trkpt lat="42.06904" lon="43.6662">
        <ele>722.067986</ele>
        <time>2021-09-25T12:46:02.253Z</time>
      </trkpt>
      <trkpt lat="42.06728" lon="43.66837">
        <ele>725.05993</ele>
        <time>2021-09-25T12:47:02.266Z</time>
      </trkpt>
      <trkpt lat="42.06538" lon="43.67023">
        <ele>724.693036</ele>
        <time>2021-09-25T12:47:47.280Z</time>
      </trkpt>
      <trkpt lat="42.06325" lon="43.67172">
        <ele>724.417102</ele>
        <time>2021-09-25T12:48:43.268Z</time>
      </trkpt>
      <trkpt lat="42.06137" lon="43.67306">
        <ele>722.466109</ele>
        <time>2021-09-25T12:49:25.245Z</time>
      </trkpt>
      <trkpt lat="42.05945" lon="43.67445">
        <ele>721.886599</ele>
        <time>2021-09-25T12:50:14.261Z</time>
      </trkpt>
      <trkpt lat="42.05727" lon="43.67607">
        <ele>721.355927</ele>
        <time>2021-09-25T12:51:13.264Z</time>
      </trkpt>
      <trkpt lat="42.0557" lon="43.67841">
        <ele>718.186006</ele>
        <time>2021-09-25T12:51:58.272Z</time>
      </trkpt>
      <trkpt lat="42.0545" lon="43.68157">
        <ele>707.113155</ele>
        <time>2021-09-25T12:52:44.297Z</time>
      </trkpt>
      <trkpt lat="42.05339" lon="43.68403">
        <ele>706.998288</ele>
        <time>2021-09-25T12:53:27.269Z</time>
      </trkpt>
      <trkpt lat="42.0523" lon="43.68679">
        <ele>710.844963</ele>
        <time>2021-09-25T12:54:23.274Z</time>
      </trkpt>
      <trkpt lat="42.05155" lon="43.68932">
        <ele>710.301799</ele>
        <time>2021-09-25T12:55:06.262Z</time>
      </trkpt>
      <trkpt lat="42.05081" lon="43.69214">
        <ele>709.655368</ele>
        <time>2021-09-25T12:55:54.260Z</time>
      </trkpt>
      <trkpt lat="42.05022" lon="43.6947">
        <ele>706.779135</ele>
        <time>2021-09-25T12:56:35.266Z</time>
      </trkpt>
      <trkpt lat="42.04947" lon="43.69767">
        <ele>708.04478</ele>
        <time>2021-09-25T12:57:30.281Z</time>
      </trkpt>
      <trkpt lat="42.0482" lon="43.69999">
        <ele>707.485652</ele>
        <time>2021-09-25T12:58:18.258Z</time>
      </trkpt>
      <trkpt lat="42.04669" lon="43.70243">
        <ele>703.442155</ele>
        <time>2021-09-25T12:58:58.286Z</time>
      </trkpt>
      <trkpt lat="42.04554" lon="43.70494">
        <ele>699.779623</ele>
        <time>2021-09-25T12:59:41.261Z</time>
      </trkpt>
      <trkpt lat="42.04368" lon="43.70626">
        <ele>704.249184</ele>
        <time>2021-09-25T13:00:33.276Z</time>
      </trkpt>
      <trkpt lat="42.04172" lon="43.70781">
        <ele>708.598091</ele>
        <time>2021-09-25T13:01:28.274Z</time>
      </trkpt>
      <trkpt lat="42.04046" lon="43.71029">
        <ele>709.495522</ele>
        <time>2021-09-25T13:02:21.298Z</time>
      </trkpt>
      <trkpt lat="42.03884" lon="43.71224">
        <ele>710.343938</ele>
        <time>2021-09-25T13:03:29.255Z</time>
      </trkpt>
      <trkpt lat="42.03674" lon="43.71249">
        <ele>712.392138</ele>
        <time>2021-09-25T13:04:33.266Z</time>
      </trkpt>
      <trkpt lat="42.03464" lon="43.71278">
        <ele>707.667109</ele>
        <time>2021-09-25T13:05:14.264Z</time>
      </trkpt>
      <trkpt lat="42.03259" lon="43.71314">
        <ele>701.727484</ele>
        <time>2021-09-25T13:05:57.254Z</time>
      </trkpt>
      <trkpt lat="42.03047" lon="43.71419">
        <ele>697.380889</ele>
        <time>2021-09-25T13:06:43.276Z</time>
      </trkpt>
      <trkpt lat="42.02843" lon="43.7154">
        <ele>690.433282</ele>
        <time>2021-09-25T13:07:24.255Z</time>
      </trkpt>
      <trkpt lat="42.02652" lon="43.71647">
        <ele>688.123548</ele>
        <time>2021-09-25T13:08:06.262Z</time>
      </trkpt>
      <trkpt lat="42.02488" lon="43.7186">
        <ele>689.770512</ele>
        <time>2021-09-25T13:08:58.272Z</time>
      </trkpt>
      <trkpt lat="42.02353" lon="43.72108">
        <ele>693.976538</ele>
        <time>2021-09-25T13:09:49.275Z</time>
      </trkpt>
      <trkpt lat="42.02238" lon="43.72334">
        <ele>694.880912</ele>
        <time>2021-09-25T13:10:33.258Z</time>
      </trkpt>
      <trkpt lat="42.02161" lon="43.72582">
        <ele>693.762186</ele>
        <time>2021-09-25T13:11:16.255Z</time>
      </trkpt>
      <trkpt lat="42.02097" lon="43.72862">
        <ele>694.951033</ele>
        <time>2021-09-25T13:12:05.275Z</time>
      </trkpt>
      <trkpt lat="42.02062" lon="43.73089">
        <ele>690.814924</ele>
        <time>2021-09-25T13:12:57.315Z</time>
      </trkpt>
      <trkpt lat="42.01841" lon="43.73128">
        <ele>688.920844</ele>
        <time>2021-09-25T13:13:47.308Z</time>
      </trkpt>
      <trkpt lat="42.01737" lon="43.72869">
        <ele>692.211472</ele>
        <time>2021-09-25T13:14:47.284Z</time>
      </trkpt>
      <trkpt lat="42.01658" lon="43.72562">
        <ele>692.590652</ele>
        <time>2021-09-25T13:15:46.264Z</time>
      </trkpt>
      <trkpt lat="42.01576" lon="43.72249">
        <ele>694.089529</ele>
        <time>2021-09-25T13:16:47.255Z</time>
      </trkpt>
      <trkpt lat="42.01493" lon="43.71933">
        <ele>696.21904</ele>
        <time>2021-09-25T13:17:47.267Z</time>
      </trkpt>
      <trkpt lat="42.01445" lon="43.71649">
        <ele>698.593644</ele>
        <time>2021-09-25T13:18:48.262Z</time>
      </trkpt>
      <trkpt lat="42.01417" lon="43.71358">
        <ele>696.85276</ele>
        <time>2021-09-25T13:19:49.275Z</time>
      </trkpt>
      <trkpt lat="42.01344" lon="43.71061">
        <ele>700.427834</ele>
        <time>2021-09-25T13:20:52.280Z</time>
      </trkpt>
      <trkpt lat="42.01274" lon="43.7078">
        <ele>696.271114</ele>
        <time>2021-09-25T13:21:51.263Z</time>
      </trkpt>
      <trkpt lat="42.0123" lon="43.70506">
        <ele>695.913463</ele>
        <time>2021-09-25T13:25:17.268Z</time>
      </trkpt>
      <trkpt lat="42.01185" lon="43.70248">
        <ele>703.162148</ele>
        <time>2021-09-25T13:26:31.265Z</time>
      </trkpt>
      <trkpt lat="42.01134" lon="43.69964">
        <ele>708.341439</ele>
        <time>2021-09-25T13:28:07.289Z</time>
      </trkpt>
      <trkpt lat="42.01071" lon="43.69659">
        <ele>702.340344</ele>
        <time>2021-09-25T13:28:57.291Z</time>
      </trkpt>
      <trkpt lat="42.01007" lon="43.69335">
        <ele>691.01225</ele>
        <time>2021-09-25T13:29:29.278Z</time>
      </trkpt>
      <trkpt lat="42.00933" lon="43.69089">
        <ele>693.623323</ele>
        <time>2021-09-25T13:30:09.275Z</time>
      </trkpt>
      <trkpt lat="42.00822" lon="43.6882">
        <ele>695.97959</ele>
        <time>2021-09-25T13:31:00.281Z</time>
      </trkpt>
      <trkpt lat="42.00707" lon="43.68535">
        <ele>702.230534</ele>
        <time>2021-09-25T13:31:55.325Z</time>
      </trkpt>
      <trkpt lat="42.00599" lon="43.68246">
        <ele>708.365503</ele>
        <time>2021-09-25T13:32:51.282Z</time>
      </trkpt>
      <trkpt lat="42.00496" lon="43.67965">
        <ele>711.58689</ele>
        <time>2021-09-25T13:33:45.289Z</time>
      </trkpt>
      <trkpt lat="42.004" lon="43.67644">
        <ele>715.162837</ele>
        <time>2021-09-25T13:34:48.286Z</time>
      </trkpt>
      <trkpt lat="42.00326" lon="43.67335">
        <ele>718.956714</ele>
        <time>2021-09-25T13:35:45.284Z</time>
      </trkpt>
      <trkpt lat="42.00252" lon="43.67027">
        <ele>722.034701</ele>
        <time>2021-09-25T13:36:43.261Z</time>
      </trkpt>
      <trkpt lat="42.00178" lon="43.66716">
        <ele>719.035221</ele>
        <time>2021-09-25T13:37:41.296Z</time>
      </trkpt>
      <trkpt lat="42.00108" lon="43.66421">
        <ele>714.450608</ele>
        <time>2021-09-25T13:38:32.275Z</time>
      </trkpt>
      <trkpt lat="42.00039" lon="43.66121">
        <ele>715.011951</ele>
        <time>2021-09-25T13:39:26.268Z</time>
      </trkpt>
      <trkpt lat="41.99962" lon="43.65796">
        <ele>714.39368</ele>
        <time>2021-09-25T13:40:26.272Z</time>
      </trkpt>
      <trkpt lat="41.99887" lon="43.6547">
        <ele>713.538084</ele>
        <time>2021-09-25T13:41:26.266Z</time>
      </trkpt>
      <trkpt lat="41.99814" lon="43.65155">
        <ele>710.182465</ele>
        <time>2021-09-25T13:42:26.261Z</time>
      </trkpt>
      <trkpt lat="41.99731" lon="43.64828">
        <ele>714.887563</ele>
        <time>2021-09-25T13:43:29.292Z</time>
      </trkpt>
      <trkpt lat="41.99656" lon="43.64513">
        <ele>708.445371</ele>
        <time>2021-09-25T13:44:29.280Z</time>
      </trkpt>
      <trkpt lat="41.99586" lon="43.64219">
        <ele>706.952728</ele>
        <time>2021-09-25T13:45:24.271Z</time>
      </trkpt>
      <trkpt lat="41.9951" lon="43.63907">
        <ele>712.724211</ele>
        <time>2021-09-25T13:46:22.268Z</time>
      </trkpt>
      <trkpt lat="41.99407" lon="43.63587">
        <ele>713.977998</ele>
        <time>2021-09-25T13:47:24.264Z</time>
      </trkpt>
      <trkpt lat="41.99324" lon="43.63272">
        <ele>714.819907</ele>
        <time>2021-09-25T13:48:23.298Z</time>
      </trkpt>
      <trkpt lat="41.99248" lon="43.62958">
        <ele>721.698243</ele>
        <time>2021-09-25T13:49:22.273Z</time>
      </trkpt>
      <trkpt lat="41.99169" lon="43.62647">
        <ele>721.509875</ele>
        <time>2021-09-25T13:50:22.284Z</time>
      </trkpt>
      <trkpt lat="41.99084" lon="43.62314">
        <ele>721.858585</ele>
        <time>2021-09-25T13:51:25.263Z</time>
      </trkpt>
      <trkpt lat="41.99009" lon="43.62006">
        <ele>725.023037</ele>
        <time>2021-09-25T13:52:24.286Z</time>
      </trkpt>
      <trkpt lat="41.98936" lon="43.61715">
        <ele>721.719081</ele>
        <time>2021-09-25T13:53:18.279Z</time>
      </trkpt>
      <trkpt lat="41.98963" lon="43.614">
        <ele>722.754775</ele>
        <time>2021-09-25T13:54:14.275Z</time>
      </trkpt>
      <trkpt lat="41.99" lon="43.61064">
        <ele>723.894504</ele>
        <time>2021-09-25T13:55:17.259Z</time>
      </trkpt>
      <trkpt lat="41.99027" lon="43.60744">
        <ele>729.270347</ele>
        <time>2021-09-25T13:56:16.308Z</time>
      </trkpt>
      <trkpt lat="41.99032" lon="43.60452">
        <ele>728.597498</ele>
        <time>2021-09-25T13:57:16.275Z</time>
      </trkpt>
      <trkpt lat="41.99244" lon="43.60347">
        <ele>726.864847</ele>
        <time>2021-09-25T13:58:15.273Z</time>
      </trkpt>
      <trkpt lat="41.99458" lon="43.60264">
        <ele>730.719289</ele>
        <time>2021-09-25T13:59:19.267Z</time>
      </trkpt>
      <trkpt lat="41.99642" lon="43.60147">
        <ele>730.74913</ele>
        <time>2021-09-25T14:00:32.267Z</time>
      </trkpt>
      <trkpt lat="41.99695" lon="43.60025">
        <ele>730.74913</ele>
        <time>2021-09-25T14:02:45.769Z</time>
      </trkpt>
    </trkseg>
  </trk>
  <trk>
    <name><![CDATA[Tour d'Europe: étape 455]]></name>
    <extensions>
      <line xmlns="http://www.topografix.com/GPX/gpx_style/0/2">
        <color>888800</color>
        <width>4</width>
      </line>
    </extensions>
    <trkseg>
      <trkpt lat="41.99718" lon="43.60043">
        <ele>730.107424</ele>
        <time>2021-09-26T07:04:47.589Z</time>
      </trkpt>
      <trkpt lat="41.99637" lon="43.60143">
        <ele>729.058389</ele>
        <time>2021-09-26T07:07:49.657Z</time>
      </trkpt>
      <trkpt lat="41.99433" lon="43.60269">
        <ele>726.013236</ele>
        <time>2021-09-26T07:10:25.658Z</time>
      </trkpt>
      <trkpt lat="41.99225" lon="43.60319">
        <ele>725.726168</ele>
        <time>2021-09-26T07:33:22.667Z</time>
      </trkpt>
      <trkpt lat="41.99144" lon="43.60032">
        <ele>725.119418</ele>
        <time>2021-09-26T07:34:27.685Z</time>
      </trkpt>
      <trkpt lat="41.99178" lon="43.59778">
        <ele>720.448241</ele>
        <time>2021-09-26T07:35:30.685Z</time>
      </trkpt>
      <trkpt lat="41.99009" lon="43.59681">
        <ele>729.824445</ele>
        <time>2021-09-26T07:36:36.672Z</time>
      </trkpt>
      <trkpt lat="41.98794" lon="43.596">
        <ele>732.354747</ele>
        <time>2021-09-26T07:37:37.675Z</time>
      </trkpt>
      <trkpt lat="41.9861" lon="43.59506">
        <ele>732.915271</ele>
        <time>2021-09-26T07:38:40.663Z</time>
      </trkpt>
      <trkpt lat="41.98536" lon="43.5923">
        <ele>737.91749</ele>
        <time>2021-09-26T07:39:51.675Z</time>
      </trkpt>
      <trkpt lat="41.98461" lon="43.58941">
        <ele>737.148287</ele>
        <time>2021-09-26T07:40:51.674Z</time>
      </trkpt>
      <trkpt lat="41.98382" lon="43.58655">
        <ele>736.159639</ele>
        <time>2021-09-26T07:41:54.657Z</time>
      </trkpt>
      <trkpt lat="41.98309" lon="43.58379">
        <ele>738.617336</ele>
        <time>2021-09-26T07:42:54.683Z</time>
      </trkpt>
      <trkpt lat="41.98233" lon="43.58087">
        <ele>738.986827</ele>
        <time>2021-09-26T07:43:57.672Z</time>
      </trkpt>
      <trkpt lat="41.98157" lon="43.57815">
        <ele>740.800749</ele>
        <time>2021-09-26T07:44:57.701Z</time>
      </trkpt>
      <trkpt lat="41.98077" lon="43.57539">
        <ele>737.303319</ele>
        <time>2021-09-26T07:45:57.668Z</time>
      </trkpt>
      <trkpt lat="41.98005" lon="43.57256">
        <ele>733.551878</ele>
        <time>2021-09-26T07:47:00.661Z</time>
      </trkpt>
      <trkpt lat="41.9793" lon="43.56977">
        <ele>731.108343</ele>
        <time>2021-09-26T07:48:00.687Z</time>
      </trkpt>
      <trkpt lat="41.97853" lon="43.56696">
        <ele>729.00284</ele>
        <time>2021-09-26T07:49:03.678Z</time>
      </trkpt>
      <trkpt lat="41.9778" lon="43.56421">
        <ele>731.954075</ele>
        <time>2021-09-26T07:50:03.669Z</time>
      </trkpt>
      <trkpt lat="41.977" lon="43.56127">
        <ele>732.630268</ele>
        <time>2021-09-26T07:51:06.685Z</time>
      </trkpt>
      <trkpt lat="41.97626" lon="43.55853">
        <ele>732.253992</ele>
        <time>2021-09-26T07:52:06.704Z</time>
      </trkpt>
      <trkpt lat="41.97553" lon="43.55569">
        <ele>737.988489</ele>
        <time>2021-09-26T07:53:09.674Z</time>
      </trkpt>
      <trkpt lat="41.9748" lon="43.55293">
        <ele>742.474235</ele>
        <time>2021-09-26T07:54:09.672Z</time>
      </trkpt>
      <trkpt lat="41.97399" lon="43.55003">
        <ele>740.786072</ele>
        <time>2021-09-26T07:55:12.671Z</time>
      </trkpt>
      <trkpt lat="41.97326" lon="43.54727">
        <ele>746.436909</ele>
        <time>2021-09-26T07:56:11.686Z</time>
      </trkpt>
      <trkpt lat="41.97256" lon="43.54454">
        <ele>749.493226</ele>
        <time>2021-09-26T07:57:11.662Z</time>
      </trkpt>
      <trkpt lat="41.97183" lon="43.54172">
        <ele>752.922466</ele>
        <time>2021-09-26T07:58:14.679Z</time>
      </trkpt>
      <trkpt lat="41.97105" lon="43.53896">
        <ele>746.659548</ele>
        <time>2021-09-26T07:59:14.701Z</time>
      </trkpt>
      <trkpt lat="41.97025" lon="43.5361">
        <ele>739.659778</ele>
        <time>2021-09-26T08:00:17.673Z</time>
      </trkpt>
      <trkpt lat="41.96954" lon="43.53345">
        <ele>744.942785</ele>
        <time>2021-09-26T08:01:18.669Z</time>
      </trkpt>
      <trkpt lat="41.96878" lon="43.53067">
        <ele>746.437036</ele>
        <time>2021-09-26T08:02:21.658Z</time>
      </trkpt>
      <trkpt lat="41.96803" lon="43.52797">
        <ele>738.995035</ele>
        <time>2021-09-26T08:03:22.701Z</time>
      </trkpt>
      <trkpt lat="41.96729" lon="43.52516">
        <ele>740.730248</ele>
        <time>2021-09-26T08:04:25.680Z</time>
      </trkpt>
      <trkpt lat="41.96658" lon="43.52245">
        <ele>741.541386</ele>
        <time>2021-09-26T08:05:25.656Z</time>
      </trkpt>
      <trkpt lat="41.96586" lon="43.51982">
        <ele>745.307624</ele>
        <time>2021-09-26T08:06:24.677Z</time>
      </trkpt>
      <trkpt lat="41.96476" lon="43.51699">
        <ele>747.184551</ele>
        <time>2021-09-26T08:07:28.667Z</time>
      </trkpt>
      <trkpt lat="41.96354" lon="43.51436">
        <ele>751.243857</ele>
        <time>2021-09-26T08:08:21.674Z</time>
      </trkpt>
      <trkpt lat="41.96199" lon="43.51168">
        <ele>752.29828</ele>
        <time>2021-09-26T08:09:24.665Z</time>
      </trkpt>
      <trkpt lat="41.95998" lon="43.51034">
        <ele>750.266523</ele>
        <time>2021-09-26T08:10:23.675Z</time>
      </trkpt>
      <trkpt lat="41.95793" lon="43.50904">
        <ele>742.492247</ele>
        <time>2021-09-26T08:21:15.679Z</time>
      </trkpt>
      <trkpt lat="41.95588" lon="43.50866">
        <ele>742.500737</ele>
        <time>2021-09-26T08:22:16.659Z</time>
      </trkpt>
      <trkpt lat="41.95342" lon="43.50898">
        <ele>747.540283</ele>
        <time>2021-09-26T08:23:18.681Z</time>
      </trkpt>
      <trkpt lat="41.95123" lon="43.50956">
        <ele>749.695044</ele>
        <time>2021-09-26T08:24:15.708Z</time>
      </trkpt>
      <trkpt lat="41.94912" lon="43.5102">
        <ele>750.518419</ele>
        <time>2021-09-26T08:25:19.679Z</time>
      </trkpt>
      <trkpt lat="41.94704" lon="43.51022">
        <ele>753.986741</ele>
        <time>2021-09-26T08:26:33.686Z</time>
      </trkpt>
      <trkpt lat="41.94527" lon="43.50867">
        <ele>752.774192</ele>
        <time>2021-09-26T08:28:00.679Z</time>
      </trkpt>
      <trkpt lat="41.94319" lon="43.5063">
        <ele>747.573694</ele>
        <time>2021-09-26T08:28:43.700Z</time>
      </trkpt>
      <trkpt lat="41.94126" lon="43.5049">
        <ele>755.867163</ele>
        <time>2021-09-26T08:29:47.686Z</time>
      </trkpt>
      <trkpt lat="41.93966" lon="43.50308">
        <ele>763.232877</ele>
        <time>2021-09-26T08:31:20.680Z</time>
      </trkpt>
      <trkpt lat="41.93856" lon="43.50052">
        <ele>767.670363</ele>
        <time>2021-09-26T08:32:22.695Z</time>
      </trkpt>
      <trkpt lat="41.93777" lon="43.49724">
        <ele>764.270936</ele>
        <time>2021-09-26T08:33:11.677Z</time>
      </trkpt>
      <trkpt lat="41.93739" lon="43.49422">
        <ele>768.663827</ele>
        <time>2021-09-26T08:34:04.706Z</time>
      </trkpt>
      <trkpt lat="41.93712" lon="43.4912">
        <ele>771.179111</ele>
        <time>2021-09-26T08:35:04.673Z</time>
      </trkpt>
      <trkpt lat="41.93622" lon="43.48851">
        <ele>763.868651</ele>
        <time>2021-09-26T08:35:57.678Z</time>
      </trkpt>
      <trkpt lat="41.93485" lon="43.4861">
        <ele>763.14388</ele>
        <time>2021-09-26T08:36:50.675Z</time>
      </trkpt>
      <trkpt lat="41.93345" lon="43.48383">
        <ele>760.224402</ele>
        <time>2021-09-26T08:38:13.684Z</time>
      </trkpt>
      <trkpt lat="41.93155" lon="43.48234">
        <ele>758.325683</ele>
        <time>2021-09-26T08:39:07.688Z</time>
      </trkpt>
      <trkpt lat="41.9292" lon="43.48279">
        <ele>758.463381</ele>
        <time>2021-09-26T08:40:05.691Z</time>
      </trkpt>
      <trkpt lat="41.92717" lon="43.4835">
        <ele>763.281336</ele>
        <time>2021-09-26T08:41:17.684Z</time>
      </trkpt>
      <trkpt lat="41.92514" lon="43.48478">
        <ele>759.741325</ele>
        <time>2021-09-26T08:42:22.695Z</time>
      </trkpt>
      <trkpt lat="41.92294" lon="43.48519">
        <ele>761.081581</ele>
        <time>2021-09-26T08:43:15.669Z</time>
      </trkpt>
      <trkpt lat="41.9208" lon="43.48467">
        <ele>762.425813</ele>
        <time>2021-09-26T08:44:15.688Z</time>
      </trkpt>
      <trkpt lat="41.91879" lon="43.48374">
        <ele>771.307954</ele>
        <time>2021-09-26T08:45:36.694Z</time>
      </trkpt>
      <trkpt lat="41.91702" lon="43.48259">
        <ele>781.203179</ele>
        <time>2021-09-26T08:47:32.728Z</time>
      </trkpt>
      <trkpt lat="41.91637" lon="43.47989">
        <ele>786.845686</ele>
        <time>2021-09-26T08:48:39.688Z</time>
      </trkpt>
      <trkpt lat="41.91526" lon="43.47746">
        <ele>779.748597</ele>
        <time>2021-09-26T08:49:46.674Z</time>
      </trkpt>
      <trkpt lat="41.91385" lon="43.47366">
        <ele>773.436218</ele>
        <time>2021-09-26T08:50:29.686Z</time>
      </trkpt>
      <trkpt lat="41.91189" lon="43.4722">
        <ele>769.943097</ele>
        <time>2021-09-26T08:51:19.687Z</time>
      </trkpt>
      <trkpt lat="41.90963" lon="43.47164">
        <ele>770.060613</ele>
        <time>2021-09-26T08:52:21.674Z</time>
      </trkpt>
      <trkpt lat="41.9078" lon="43.47151">
        <ele>778.74911</ele>
        <time>2021-09-26T08:54:20.723Z</time>
      </trkpt>
      <trkpt lat="41.90652" lon="43.4692">
        <ele>793.664304</ele>
        <time>2021-09-26T08:55:53.679Z</time>
      </trkpt>
      <trkpt lat="41.90606" lon="43.46617">
        <ele>791.778029</ele>
        <time>2021-09-26T08:56:33.679Z</time>
      </trkpt>
      <trkpt lat="41.90595" lon="43.46223">
        <ele>787.661681</ele>
        <time>2021-09-26T08:57:13.737Z</time>
      </trkpt>
      <trkpt lat="41.90561" lon="43.4592">
        <ele>787.872117</ele>
        <time>2021-09-26T08:58:13.688Z</time>
      </trkpt>
      <trkpt lat="41.90414" lon="43.45708">
        <ele>789.402552</ele>
        <time>2021-09-26T08:59:02.727Z</time>
      </trkpt>
      <trkpt lat="41.90219" lon="43.45564">
        <ele>778.942199</ele>
        <time>2021-09-26T09:00:06.666Z</time>
      </trkpt>
      <trkpt lat="41.90018" lon="43.45483">
        <ele>769.967958</ele>
        <time>2021-09-26T09:01:10.714Z</time>
      </trkpt>
      <trkpt lat="41.89826" lon="43.45305">
        <ele>773.26665</ele>
        <time>2021-09-26T09:02:12.711Z</time>
      </trkpt>
      <trkpt lat="41.89705" lon="43.45098">
        <ele>785.917493</ele>
        <time>2021-09-26T09:04:12.687Z</time>
      </trkpt>
      <trkpt lat="41.89555" lon="43.44849">
        <ele>788.228414</ele>
        <time>2021-09-26T09:05:23.738Z</time>
      </trkpt>
      <trkpt lat="41.89491" lon="43.44547">
        <ele>793.353489</ele>
        <time>2021-09-26T09:06:22.678Z</time>
      </trkpt>
      <trkpt lat="41.89611" lon="43.44306">
        <ele>805.123651</ele>
        <time>2021-09-26T09:07:27.683Z</time>
      </trkpt>
      <trkpt lat="41.8963" lon="43.4397">
        <ele>800.093144</ele>
        <time>2021-09-26T09:08:10.690Z</time>
      </trkpt>
      <trkpt lat="41.89438" lon="43.43816">
        <ele>782.848288</ele>
        <time>2021-09-26T09:22:51.709Z</time>
      </trkpt>
      <trkpt lat="41.89235" lon="43.43726">
        <ele>779.686331</ele>
        <time>2021-09-26T09:24:24.691Z</time>
      </trkpt>
      <trkpt lat="41.89053" lon="43.43594">
        <ele>786.225272</ele>
        <time>2021-09-26T09:25:38.688Z</time>
      </trkpt>
      <trkpt lat="41.88848" lon="43.43452">
        <ele>792.542479</ele>
        <time>2021-09-26T09:26:28.694Z</time>
      </trkpt>
      <trkpt lat="41.88666" lon="43.43322">
        <ele>795.031498</ele>
        <time>2021-09-26T09:27:22.702Z</time>
      </trkpt>
      <trkpt lat="41.88433" lon="43.43177">
        <ele>789.97043</ele>
        <time>2021-09-26T09:28:07.710Z</time>
      </trkpt>
      <trkpt lat="41.8823" lon="43.43057">
        <ele>787.159144</ele>
        <time>2021-09-26T09:28:56.701Z</time>
      </trkpt>
      <trkpt lat="41.88026" lon="43.43003">
        <ele>791.902402</ele>
        <time>2021-09-26T09:30:02.695Z</time>
      </trkpt>
      <trkpt lat="41.87835" lon="43.4285">
        <ele>783.307028</ele>
        <time>2021-09-26T09:30:57.694Z</time>
      </trkpt>
      <trkpt lat="41.87803" lon="43.42573">
        <ele>788.239375</ele>
        <time>2021-09-26T09:31:52.701Z</time>
      </trkpt>
      <trkpt lat="41.87815" lon="43.42289">
        <ele>800.489899</ele>
        <time>2021-09-26T09:33:16.692Z</time>
      </trkpt>
      <trkpt lat="41.87709" lon="43.42069">
        <ele>810.516367</ele>
        <time>2021-09-26T09:34:51.697Z</time>
      </trkpt>
      <trkpt lat="41.87548" lon="43.4184">
        <ele>802.951893</ele>
        <time>2021-09-26T09:35:50.678Z</time>
      </trkpt>
      <trkpt lat="41.87329" lon="43.41994">
        <ele>796.569177</ele>
        <time>2021-09-26T09:36:35.701Z</time>
      </trkpt>
      <trkpt lat="41.87117" lon="43.42074">
        <ele>800.249656</ele>
        <time>2021-09-26T09:37:45.704Z</time>
      </trkpt>
      <trkpt lat="41.8701" lon="43.41862">
        <ele>821.502707</ele>
        <time>2021-09-26T09:39:51.703Z</time>
      </trkpt>
      <trkpt lat="41.86983" lon="43.41594">
        <ele>811.288024</ele>
        <time>2021-09-26T09:41:21.684Z</time>
      </trkpt>
      <trkpt lat="41.86839" lon="43.4129">
        <ele>805.70563</ele>
        <time>2021-09-26T09:42:03.752Z</time>
      </trkpt>
      <trkpt lat="41.86661" lon="43.41071">
        <ele>811.040142</ele>
        <time>2021-09-26T09:43:09.688Z</time>
      </trkpt>
      <trkpt lat="41.86465" lon="43.41102">
        <ele>815.113163</ele>
        <time>2021-09-26T09:44:33.719Z</time>
      </trkpt>
      <trkpt lat="41.86267" lon="43.41266">
        <ele>810.312676</ele>
        <time>2021-09-26T09:45:26.675Z</time>
      </trkpt>
      <trkpt lat="41.86047" lon="43.41411">
        <ele>796.131526</ele>
        <time>2021-09-26T09:46:18.729Z</time>
      </trkpt>
      <trkpt lat="41.85855" lon="43.41546">
        <ele>801.721332</ele>
        <time>2021-09-26T09:47:20.703Z</time>
      </trkpt>
      <trkpt lat="41.85686" lon="43.41411">
        <ele>814.578128</ele>
        <time>2021-09-26T09:49:16.708Z</time>
      </trkpt>
      <trkpt lat="41.85477" lon="43.4134">
        <ele>822.931859</ele>
        <time>2021-09-26T09:50:23.703Z</time>
      </trkpt>
      <trkpt lat="41.85262" lon="43.41325">
        <ele>821.249856</ele>
        <time>2021-09-26T09:51:43.720Z</time>
      </trkpt>
      <trkpt lat="41.85051" lon="43.41289">
        <ele>813.08355</ele>
        <time>2021-09-26T09:52:36.690Z</time>
      </trkpt>
      <trkpt lat="41.8492" lon="43.41101">
        <ele>803.268513</ele>
        <time>2021-09-26T09:52:57.681Z</time>
      </trkpt>
      <trkpt lat="41.84836" lon="43.40775">
        <ele>796.075707</ele>
        <time>2021-09-26T09:53:40.698Z</time>
      </trkpt>
      <trkpt lat="41.84784" lon="43.40482">
        <ele>804.549469</ele>
        <time>2021-09-26T09:54:41.697Z</time>
      </trkpt>
      <trkpt lat="41.84681" lon="43.4022">
        <ele>815.465119</ele>
        <time>2021-09-26T09:55:49.671Z</time>
      </trkpt>
      <trkpt lat="41.8462" lon="43.39956">
        <ele>804.426845</ele>
        <time>2021-09-26T09:56:35.667Z</time>
      </trkpt>
      <trkpt lat="41.84527" lon="43.39672">
        <ele>808.305498</ele>
        <time>2021-09-26T09:57:30.698Z</time>
      </trkpt>
      <trkpt lat="41.84416" lon="43.39417">
        <ele>821.790476</ele>
        <time>2021-09-26T09:58:25.720Z</time>
      </trkpt>
      <trkpt lat="41.84322" lon="43.3914">
        <ele>824.039252</ele>
        <time>2021-09-26T09:59:23.694Z</time>
      </trkpt>
      <trkpt lat="41.84259" lon="43.38856">
        <ele>815.551235</ele>
        <time>2021-09-26T10:00:19.687Z</time>
      </trkpt>
      <trkpt lat="41.84269" lon="43.38573">
        <ele>815.918123</ele>
        <time>2021-09-26T10:01:13.718Z</time>
      </trkpt>
      <trkpt lat="41.84305" lon="43.38294">
        <ele>821.264243</ele>
        <time>2021-09-26T10:02:14.692Z</time>
      </trkpt>
      <trkpt lat="41.84189" lon="43.38044">
        <ele>826.705049</ele>
        <time>2021-09-26T10:03:13.696Z</time>
      </trkpt>
      <trkpt lat="41.84178" lon="43.37928">
        <ele>819.040664</ele>
        <time>2021-09-26T10:06:02.683Z</time>
      </trkpt>
      <trkpt lat="41.84245" lon="43.38035">
        <ele>819.040664</ele>
        <time>2021-09-26T10:07:24.424Z</time>
      </trkpt>
    </trkseg>
  </trk>
  <trk>
    <name><![CDATA[Tour d'Europe: étape 458]]></name>
    <extensions>
      <line xmlns="http://www.topografix.com/GPX/gpx_style/0/2">
        <color>880088</color>
        <width>4</width>
      </line>
    </extensions>
    <trkseg>
      <trkpt lat="41.84201" lon="43.38054">
        <ele>820.839099</ele>
        <time>2021-09-29T05:13:09.108Z</time>
      </trkpt>
      <trkpt lat="41.84168" lon="43.3799">
        <ele>820.066445</ele>
        <time>2021-09-29T05:22:26.052Z</time>
      </trkpt>
      <trkpt lat="41.83953" lon="43.37877">
        <ele>818.097584</ele>
        <time>2021-09-29T05:23:50.085Z</time>
      </trkpt>
      <trkpt lat="41.83749" lon="43.37871">
        <ele>823.568678</ele>
        <time>2021-09-29T05:25:13.049Z</time>
      </trkpt>
      <trkpt lat="41.83664" lon="43.37786">
        <ele>837.202062</ele>
        <time>2021-09-29T05:26:53.028Z</time>
      </trkpt>
      <trkpt lat="41.8367" lon="43.37511">
        <ele>842.697852</ele>
        <time>2021-09-29T05:27:49.061Z</time>
      </trkpt>
      <trkpt lat="41.83694" lon="43.37188">
        <ele>844.972226</ele>
        <time>2021-09-29T05:30:02.091Z</time>
      </trkpt>
      <trkpt lat="41.83506" lon="43.36931">
        <ele>832.940787</ele>
        <time>2021-09-29T05:30:43.031Z</time>
      </trkpt>
      <trkpt lat="41.83311" lon="43.36817">
        <ele>831.392542</ele>
        <time>2021-09-29T05:31:43.034Z</time>
      </trkpt>
      <trkpt lat="41.83149" lon="43.36641">
        <ele>838.904175</ele>
        <time>2021-09-29T05:32:52.027Z</time>
      </trkpt>
      <trkpt lat="41.83047" lon="43.36415">
        <ele>845.371939</ele>
        <time>2021-09-29T05:34:10.051Z</time>
      </trkpt>
      <trkpt lat="41.82901" lon="43.36225">
        <ele>850.667617</ele>
        <time>2021-09-29T05:35:14.049Z</time>
      </trkpt>
      <trkpt lat="41.82735" lon="43.36078">
        <ele>855.585307</ele>
        <time>2021-09-29T05:36:21.050Z</time>
      </trkpt>
      <trkpt lat="41.82861" lon="43.35774">
        <ele>852.647806</ele>
        <time>2021-09-29T05:37:05.071Z</time>
      </trkpt>
      <trkpt lat="41.8284" lon="43.35367">
        <ele>837.198689</ele>
        <time>2021-09-29T05:37:40.051Z</time>
      </trkpt>
      <trkpt lat="41.82771" lon="43.35018">
        <ele>830.822485</ele>
        <time>2021-09-29T05:38:29.079Z</time>
      </trkpt>
      <trkpt lat="41.82568" lon="43.34834">
        <ele>831.799932</ele>
        <time>2021-09-29T05:39:28.048Z</time>
      </trkpt>
      <trkpt lat="41.8237" lon="43.34864">
        <ele>828.030534</ele>
        <time>2021-09-29T05:40:13.043Z</time>
      </trkpt>
      <trkpt lat="41.82151" lon="43.35005">
        <ele>831.937263</ele>
        <time>2021-09-29T05:41:10.070Z</time>
      </trkpt>
      <trkpt lat="41.81972" lon="43.35186">
        <ele>837.949253</ele>
        <time>2021-09-29T05:42:09.047Z</time>
      </trkpt>
      <trkpt lat="41.81761" lon="43.35219">
        <ele>827.675873</ele>
        <time>2021-09-29T05:43:08.063Z</time>
      </trkpt>
      <trkpt lat="41.81596" lon="43.35033">
        <ele>825.352786</ele>
        <time>2021-09-29T05:44:00.049Z</time>
      </trkpt>
      <trkpt lat="41.81503" lon="43.3477">
        <ele>835.871104</ele>
        <time>2021-09-29T05:44:51.048Z</time>
      </trkpt>
      <trkpt lat="41.81391" lon="43.34524">
        <ele>836.158443</ele>
        <time>2021-09-29T05:45:41.040Z</time>
      </trkpt>
      <trkpt lat="41.81411" lon="43.34229">
        <ele>840.698653</ele>
        <time>2021-09-29T05:46:34.043Z</time>
      </trkpt>
      <trkpt lat="41.81363" lon="43.33942">
        <ele>850.977843</ele>
        <time>2021-09-29T05:47:34.054Z</time>
      </trkpt>
      <trkpt lat="41.81184" lon="43.33776">
        <ele>833.531789</ele>
        <time>2021-09-29T05:48:23.050Z</time>
      </trkpt>
      <trkpt lat="41.81013" lon="43.33573">
        <ele>829.86106</ele>
        <time>2021-09-29T05:49:21.070Z</time>
      </trkpt>
      <trkpt lat="41.80928" lon="43.33307">
        <ele>839.675083</ele>
        <time>2021-09-29T05:50:28.050Z</time>
      </trkpt>
      <trkpt lat="41.80801" lon="43.33042">
        <ele>843.012089</ele>
        <time>2021-09-29T05:51:31.063Z</time>
      </trkpt>
      <trkpt lat="41.80712" lon="43.32804">
        <ele>847.246867</ele>
        <time>2021-09-29T05:52:26.087Z</time>
      </trkpt>
      <trkpt lat="41.80635" lon="43.32526">
        <ele>847.935954</ele>
        <time>2021-09-29T05:53:21.038Z</time>
      </trkpt>
      <trkpt lat="41.80483" lon="43.32312">
        <ele>840.794159</ele>
        <time>2021-09-29T05:54:18.048Z</time>
      </trkpt>
      <trkpt lat="41.80345" lon="43.32101">
        <ele>844.802696</ele>
        <time>2021-09-29T05:55:12.076Z</time>
      </trkpt>
      <trkpt lat="41.80223" lon="43.31875">
        <ele>847.085153</ele>
        <time>2021-09-29T05:56:13.038Z</time>
      </trkpt>
      <trkpt lat="41.80097" lon="43.31674">
        <ele>856.832927</ele>
        <time>2021-09-29T05:57:48.052Z</time>
      </trkpt>
      <trkpt lat="41.79948" lon="43.31463">
        <ele>858.409119</ele>
        <time>2021-09-29T05:59:05.044Z</time>
      </trkpt>
      <trkpt lat="41.79845" lon="43.31197">
        <ele>855.107888</ele>
        <time>2021-09-29T06:00:05.045Z</time>
      </trkpt>
      <trkpt lat="41.79778" lon="43.30901">
        <ele>854.028362</ele>
        <time>2021-09-29T06:00:52.044Z</time>
      </trkpt>
      <trkpt lat="41.79693" lon="43.30602">
        <ele>851.996767</ele>
        <time>2021-09-29T06:01:36.041Z</time>
      </trkpt>
      <trkpt lat="41.79544" lon="43.30399">
        <ele>851.732057</ele>
        <time>2021-09-29T06:02:33.042Z</time>
      </trkpt>
      <trkpt lat="41.79359" lon="43.30219">
        <ele>840.914996</ele>
        <time>2021-09-29T06:03:28.052Z</time>
      </trkpt>
      <trkpt lat="41.7915" lon="43.30263">
        <ele>840.597266</ele>
        <time>2021-09-29T06:04:29.049Z</time>
      </trkpt>
      <trkpt lat="41.78942" lon="43.30235">
        <ele>845.128936</ele>
        <time>2021-09-29T06:05:31.065Z</time>
      </trkpt>
      <trkpt lat="41.78839" lon="43.30011">
        <ele>861.454485</ele>
        <time>2021-09-29T06:06:32.088Z</time>
      </trkpt>
      <trkpt lat="41.78782" lon="43.29735">
        <ele>864.492277</ele>
        <time>2021-09-29T06:07:32.055Z</time>
      </trkpt>
      <trkpt lat="41.78583" lon="43.29591">
        <ele>855.759996</ele>
        <time>2021-09-29T06:08:39.078Z</time>
      </trkpt>
      <trkpt lat="41.78388" lon="43.29446">
        <ele>845.264863</ele>
        <time>2021-09-29T06:09:39.041Z</time>
      </trkpt>
      <trkpt lat="41.7818" lon="43.29378">
        <ele>846.412712</ele>
        <time>2021-09-29T06:10:39.084Z</time>
      </trkpt>
      <trkpt lat="41.77988" lon="43.29445">
        <ele>859.72193</ele>
        <time>2021-09-29T06:11:51.034Z</time>
      </trkpt>
      <trkpt lat="41.77922" lon="43.29437">
        <ele>884.504156</ele>
        <time>2021-09-29T06:14:14.051Z</time>
      </trkpt>
      <trkpt lat="41.77958" lon="43.29182">
        <ele>897.121338</ele>
        <time>2021-09-29T06:16:03.058Z</time>
      </trkpt>
      <trkpt lat="41.77858" lon="43.28961">
        <ele>900.84677</ele>
        <time>2021-09-29T06:17:33.039Z</time>
      </trkpt>
      <trkpt lat="41.77764" lon="43.28705">
        <ele>904.397491</ele>
        <time>2021-09-29T06:18:34.046Z</time>
      </trkpt>
      <trkpt lat="41.77538" lon="43.28694">
        <ele>898.794661</ele>
        <time>2021-09-29T06:19:30.080Z</time>
      </trkpt>
      <trkpt lat="41.77439" lon="43.28432">
        <ele>886.298961</ele>
        <time>2021-09-29T06:20:04.037Z</time>
      </trkpt>
      <trkpt lat="41.7762" lon="43.28101">
        <ele>870.211374</ele>
        <time>2021-09-29T06:20:46.040Z</time>
      </trkpt>
      <trkpt lat="41.77628" lon="43.27827">
        <ele>878.453165</ele>
        <time>2021-09-29T06:21:57.046Z</time>
      </trkpt>
      <trkpt lat="41.77671" lon="43.27588">
        <ele>891.912566</ele>
        <time>2021-09-29T06:23:56.082Z</time>
      </trkpt>
      <trkpt lat="41.77806" lon="43.27396">
        <ele>899.423556</ele>
        <time>2021-09-29T06:26:17.029Z</time>
      </trkpt>
      <trkpt lat="41.77936" lon="43.27204">
        <ele>911.450417</ele>
        <time>2021-09-29T06:28:37.077Z</time>
      </trkpt>
      <trkpt lat="41.78046" lon="43.26952">
        <ele>914.508397</ele>
        <time>2021-09-29T06:29:48.044Z</time>
      </trkpt>
      <trkpt lat="41.78181" lon="43.26749">
        <ele>902.061856</ele>
        <time>2021-09-29T06:30:08.063Z</time>
      </trkpt>
      <trkpt lat="41.78209" lon="43.26431">
        <ele>899.885582</ele>
        <time>2021-09-29T06:31:05.039Z</time>
      </trkpt>
      <trkpt lat="41.78243" lon="43.26154">
        <ele>904.653284</ele>
        <time>2021-09-29T06:32:29.077Z</time>
      </trkpt>
      <trkpt lat="41.78169" lon="43.25801">
        <ele>891.548164</ele>
        <time>2021-09-29T06:33:06.052Z</time>
      </trkpt>
      <trkpt lat="41.7813" lon="43.25499">
        <ele>890.68385</ele>
        <time>2021-09-29T06:34:15.051Z</time>
      </trkpt>
      <trkpt lat="41.77979" lon="43.253">
        <ele>896.2593</ele>
        <time>2021-09-29T06:35:22.061Z</time>
      </trkpt>
      <trkpt lat="41.77765" lon="43.25153">
        <ele>893.2546</ele>
        <time>2021-09-29T06:36:22.031Z</time>
      </trkpt>
      <trkpt lat="41.77553" lon="43.2504">
        <ele>891.152433</ele>
        <time>2021-09-29T06:37:20.032Z</time>
      </trkpt>
      <trkpt lat="41.77323" lon="43.24884">
        <ele>888.789438</ele>
        <time>2021-09-29T06:38:00.100Z</time>
      </trkpt>
      <trkpt lat="41.77091" lon="43.24965">
        <ele>892.484475</ele>
        <time>2021-09-29T06:38:44.043Z</time>
      </trkpt>
      <trkpt lat="41.76899" lon="43.24927">
        <ele>892.546509</ele>
        <time>2021-09-29T06:39:54.034Z</time>
      </trkpt>
      <trkpt lat="41.76726" lon="43.24786">
        <ele>896.592627</ele>
        <time>2021-09-29T06:41:03.051Z</time>
      </trkpt>
      <trkpt lat="41.7655" lon="43.24617">
        <ele>900.167449</ele>
        <time>2021-09-29T06:42:03.043Z</time>
      </trkpt>
      <trkpt lat="41.76464" lon="43.24373">
        <ele>902.302268</ele>
        <time>2021-09-29T06:43:03.059Z</time>
      </trkpt>
      <trkpt lat="41.76348" lon="43.24113">
        <ele>904.704361</ele>
        <time>2021-09-29T06:44:06.090Z</time>
      </trkpt>
      <trkpt lat="41.76348" lon="43.23829">
        <ele>904.992731</ele>
        <time>2021-09-29T06:44:58.058Z</time>
      </trkpt>
      <trkpt lat="41.76297" lon="43.23472">
        <ele>900.141247</ele>
        <time>2021-09-29T06:45:38.072Z</time>
      </trkpt>
      <trkpt lat="41.76217" lon="43.23192">
        <ele>903.304945</ele>
        <time>2021-09-29T06:46:44.058Z</time>
      </trkpt>
      <trkpt lat="41.76122" lon="43.22943">
        <ele>912.147573</ele>
        <time>2021-09-29T06:47:59.052Z</time>
      </trkpt>
      <trkpt lat="41.7609" lon="43.22677">
        <ele>915.836227</ele>
        <time>2021-09-29T06:49:20.048Z</time>
      </trkpt>
      <trkpt lat="41.76133" lon="43.22367">
        <ele>910.84371</ele>
        <time>2021-09-29T06:50:19.044Z</time>
      </trkpt>
      <trkpt lat="41.76148" lon="43.22083">
        <ele>910.665402</ele>
        <time>2021-09-29T06:51:38.047Z</time>
      </trkpt>
      <trkpt lat="41.76125" lon="43.21814">
        <ele>908.19357</ele>
        <time>2021-09-29T06:52:19.090Z</time>
      </trkpt>
      <trkpt lat="41.76035" lon="43.21489">
        <ele>907.413638</ele>
        <time>2021-09-29T06:53:01.054Z</time>
      </trkpt>
      <trkpt lat="41.759" lon="43.21249">
        <ele>905.994768</ele>
        <time>2021-09-29T06:53:55.052Z</time>
      </trkpt>
      <trkpt lat="41.75729" lon="43.21064">
        <ele>907.534492</ele>
        <time>2021-09-29T06:54:55.040Z</time>
      </trkpt>
      <trkpt lat="41.75523" lon="43.20942">
        <ele>907.792095</ele>
        <time>2021-09-29T06:55:55.054Z</time>
      </trkpt>
      <trkpt lat="41.7533" lon="43.2082">
        <ele>907.896095</ele>
        <time>2021-09-29T06:56:55.065Z</time>
      </trkpt>
      <trkpt lat="41.75168" lon="43.20674">
        <ele>909.678203</ele>
        <time>2021-09-29T06:57:57.051Z</time>
      </trkpt>
      <trkpt lat="41.74972" lon="43.20639">
        <ele>917.767536</ele>
        <time>2021-09-29T06:59:25.040Z</time>
      </trkpt>
      <trkpt lat="41.74767" lon="43.20473">
        <ele>913.244538</ele>
        <time>2021-09-29T07:00:42.047Z</time>
      </trkpt>
      <trkpt lat="41.74622" lon="43.20129">
        <ele>903.333887</ele>
        <time>2021-09-29T07:01:22.052Z</time>
      </trkpt>
      <trkpt lat="41.74455" lon="43.19932">
        <ele>903.878566</ele>
        <time>2021-09-29T07:02:18.046Z</time>
      </trkpt>
      <trkpt lat="41.74423" lon="43.19623">
        <ele>911.843967</ele>
        <time>2021-09-29T07:03:18.053Z</time>
      </trkpt>
      <trkpt lat="41.74463" lon="43.19357">
        <ele>911.727676</ele>
        <time>2021-09-29T07:04:02.040Z</time>
      </trkpt>
      <trkpt lat="41.74518" lon="43.19053">
        <ele>914.131089</ele>
        <time>2021-09-29T07:04:58.065Z</time>
      </trkpt>
      <trkpt lat="41.74528" lon="43.18768">
        <ele>912.845466</ele>
        <time>2021-09-29T07:05:50.051Z</time>
      </trkpt>
      <trkpt lat="41.74394" lon="43.18525">
        <ele>913.237648</ele>
        <time>2021-09-29T07:06:42.035Z</time>
      </trkpt>
      <trkpt lat="41.74244" lon="43.18284">
        <ele>911.646256</ele>
        <time>2021-09-29T07:07:38.044Z</time>
      </trkpt>
      <trkpt lat="41.74086" lon="43.18081">
        <ele>914.533986</ele>
        <time>2021-09-29T07:08:41.062Z</time>
      </trkpt>
      <trkpt lat="41.74079" lon="43.17817">
        <ele>923.80334</ele>
        <time>2021-09-29T07:10:01.035Z</time>
      </trkpt>
      <trkpt lat="41.74018" lon="43.17538">
        <ele>924.803185</ele>
        <time>2021-09-29T07:10:47.033Z</time>
      </trkpt>
      <trkpt lat="41.73842" lon="43.17313">
        <ele>917.146599</ele>
        <time>2021-09-29T07:11:46.033Z</time>
      </trkpt>
      <trkpt lat="41.7367" lon="43.17088">
        <ele>914.067204</ele>
        <time>2021-09-29T07:12:44.049Z</time>
      </trkpt>
      <trkpt lat="41.73524" lon="43.16886">
        <ele>911.418622</ele>
        <time>2021-09-29T07:13:28.030Z</time>
      </trkpt>
      <trkpt lat="41.73328" lon="43.16746">
        <ele>920.841121</ele>
        <time>2021-09-29T07:14:51.046Z</time>
      </trkpt>
      <trkpt lat="41.73197" lon="43.16543">
        <ele>929.19645</ele>
        <time>2021-09-29T07:16:19.050Z</time>
      </trkpt>
      <trkpt lat="41.73083" lon="43.16287">
        <ele>928.109248</ele>
        <time>2021-09-29T07:17:09.058Z</time>
      </trkpt>
      <trkpt lat="41.72982" lon="43.16014">
        <ele>930.476955</ele>
        <time>2021-09-29T07:18:13.055Z</time>
      </trkpt>
      <trkpt lat="41.72834" lon="43.1579">
        <ele>929.591483</ele>
        <time>2021-09-29T07:19:04.043Z</time>
      </trkpt>
      <trkpt lat="41.72672" lon="43.15602">
        <ele>923.716018</ele>
        <time>2021-09-29T07:19:48.089Z</time>
      </trkpt>
      <trkpt lat="41.72509" lon="43.15415">
        <ele>921.186708</ele>
        <time>2021-09-29T07:20:28.081Z</time>
      </trkpt>
      <trkpt lat="41.72342" lon="43.15231">
        <ele>926.423903</ele>
        <time>2021-09-29T07:21:20.048Z</time>
      </trkpt>
      <trkpt lat="41.72177" lon="43.15044">
        <ele>940.091505</ele>
        <time>2021-09-29T07:22:54.050Z</time>
      </trkpt>
      <trkpt lat="41.7202" lon="43.14872">
        <ele>947.332424</ele>
        <time>2021-09-29T07:24:32.043Z</time>
      </trkpt>
      <trkpt lat="41.71869" lon="43.1468">
        <ele>947.973249</ele>
        <time>2021-09-29T07:25:30.044Z</time>
      </trkpt>
      <trkpt lat="41.71729" lon="43.14406">
        <ele>936.521421</ele>
        <time>2021-09-29T07:26:09.052Z</time>
      </trkpt>
      <trkpt lat="41.71463" lon="43.14337">
        <ele>929.472479</ele>
        <time>2021-09-29T07:26:49.046Z</time>
      </trkpt>
      <trkpt lat="41.71158" lon="43.14295">
        <ele>920.905486</ele>
        <time>2021-09-29T07:27:29.051Z</time>
      </trkpt>
      <trkpt lat="41.70934" lon="43.14263">
        <ele>920.014436</ele>
        <time>2021-09-29T07:28:14.057Z</time>
      </trkpt>
      <trkpt lat="41.70731" lon="43.14217">
        <ele>921.399942</ele>
        <time>2021-09-29T07:28:59.053Z</time>
      </trkpt>
      <trkpt lat="41.70543" lon="43.14111">
        <ele>923.220284</ele>
        <time>2021-09-29T07:29:43.062Z</time>
      </trkpt>
      <trkpt lat="41.70333" lon="43.13998">
        <ele>924.836097</ele>
        <time>2021-09-29T07:30:33.058Z</time>
      </trkpt>
      <trkpt lat="41.70135" lon="43.13884">
        <ele>926.668736</ele>
        <time>2021-09-29T07:31:20.037Z</time>
      </trkpt>
      <trkpt lat="41.69926" lon="43.13739">
        <ele>929.993475</ele>
        <time>2021-09-29T07:32:16.045Z</time>
      </trkpt>
      <trkpt lat="41.69724" lon="43.1357">
        <ele>928.817446</ele>
        <time>2021-09-29T07:33:16.056Z</time>
      </trkpt>
      <trkpt lat="41.69558" lon="43.13402">
        <ele>929.281571</ele>
        <time>2021-09-29T07:34:22.053Z</time>
      </trkpt>
      <trkpt lat="41.69452" lon="43.13124">
        <ele>929.43656</ele>
        <time>2021-09-29T07:35:17.060Z</time>
      </trkpt>
      <trkpt lat="41.69442" lon="43.12849">
        <ele>934.037593</ele>
        <time>2021-09-29T07:51:22.016Z</time>
      </trkpt>
      <trkpt lat="41.69458" lon="43.12543">
        <ele>935.722837</ele>
        <time>2021-09-29T07:52:19.019Z</time>
      </trkpt>
      <trkpt lat="41.69433" lon="43.12255">
        <ele>934.658325</ele>
        <time>2021-09-29T07:53:22.046Z</time>
      </trkpt>
      <trkpt lat="41.69426" lon="43.11967">
        <ele>937.365389</ele>
        <time>2021-09-29T07:54:18.019Z</time>
      </trkpt>
      <trkpt lat="41.6934" lon="43.11702">
        <ele>936.581564</ele>
        <time>2021-09-29T07:55:06.019Z</time>
      </trkpt>
      <trkpt lat="41.69194" lon="43.11463">
        <ele>934.033735</ele>
        <time>2021-09-29T07:55:56.020Z</time>
      </trkpt>
      <trkpt lat="41.69072" lon="43.11214">
        <ele>933.667332</ele>
        <time>2021-09-29T07:56:47.021Z</time>
      </trkpt>
      <trkpt lat="41.68987" lon="43.10958">
        <ele>938.159897</ele>
        <time>2021-09-29T07:57:41.016Z</time>
      </trkpt>
      <trkpt lat="41.68947" lon="43.10678">
        <ele>943.437484</ele>
        <time>2021-09-29T07:58:45.014Z</time>
      </trkpt>
      <trkpt lat="41.68878" lon="43.10415">
        <ele>950.33842</ele>
        <time>2021-09-29T07:59:55.018Z</time>
      </trkpt>
      <trkpt lat="41.68913" lon="43.10184">
        <ele>946.681379</ele>
        <time>2021-09-29T08:00:56.040Z</time>
      </trkpt>
      <trkpt lat="41.69048" lon="43.09972">
        <ele>941.478498</ele>
        <time>2021-09-29T08:01:38.017Z</time>
      </trkpt>
      <trkpt lat="41.6913" lon="43.09714">
        <ele>937.905642</ele>
        <time>2021-09-29T08:02:20.039Z</time>
      </trkpt>
      <trkpt lat="41.69067" lon="43.09435">
        <ele>943.174061</ele>
        <time>2021-09-29T08:03:22.047Z</time>
      </trkpt>
      <trkpt lat="41.69014" lon="43.09162">
        <ele>949.181402</ele>
        <time>2021-09-29T08:04:34.029Z</time>
      </trkpt>
      <trkpt lat="41.69122" lon="43.08906">
        <ele>946.453421</ele>
        <time>2021-09-29T08:05:30.024Z</time>
      </trkpt>
      <trkpt lat="41.69239" lon="43.08626">
        <ele>942.903936</ele>
        <time>2021-09-29T08:06:10.024Z</time>
      </trkpt>
      <trkpt lat="41.69311" lon="43.08357">
        <ele>941.713291</ele>
        <time>2021-09-29T08:06:57.024Z</time>
      </trkpt>
      <trkpt lat="41.69374" lon="43.0805">
        <ele>939.57751</ele>
        <time>2021-09-29T08:07:46.042Z</time>
      </trkpt>
      <trkpt lat="41.69437" lon="43.07754">
        <ele>940.806431</ele>
        <time>2021-09-29T08:08:39.020Z</time>
      </trkpt>
      <trkpt lat="41.69497" lon="43.07484">
        <ele>944.516471</ele>
        <time>2021-09-29T08:09:39.017Z</time>
      </trkpt>
      <trkpt lat="41.6947" lon="43.07203">
        <ele>946.845149</ele>
        <time>2021-09-29T08:10:35.018Z</time>
      </trkpt>
      <trkpt lat="41.69356" lon="43.06954">
        <ele>946.055869</ele>
        <time>2021-09-29T08:11:15.035Z</time>
      </trkpt>
      <trkpt lat="41.69229" lon="43.06687">
        <ele>946.518907</ele>
        <time>2021-09-29T08:12:12.021Z</time>
      </trkpt>
      <trkpt lat="41.69062" lon="43.06515">
        <ele>946.124859</ele>
        <time>2021-09-29T08:12:59.019Z</time>
      </trkpt>
      <trkpt lat="41.68803" lon="43.0657">
        <ele>942.684053</ele>
        <time>2021-09-29T08:13:46.017Z</time>
      </trkpt>
      <trkpt lat="41.68616" lon="43.06718">
        <ele>946.715446</ele>
        <time>2021-09-29T08:14:38.027Z</time>
      </trkpt>
      <trkpt lat="41.68446" lon="43.06856">
        <ele>952.054629</ele>
        <time>2021-09-29T08:15:57.033Z</time>
      </trkpt>
      <trkpt lat="41.68308" lon="43.07042">
        <ele>962.776948</ele>
        <time>2021-09-29T08:17:33.031Z</time>
      </trkpt>
      <trkpt lat="41.68179" lon="43.0724">
        <ele>965.73388</ele>
        <time>2021-09-29T08:18:53.052Z</time>
      </trkpt>
      <trkpt lat="41.6803" lon="43.07374">
        <ele>968.800271</ele>
        <time>2021-09-29T08:20:16.051Z</time>
      </trkpt>
      <trkpt lat="41.67836" lon="43.0715">
        <ele>960.866965</ele>
        <time>2021-09-29T08:20:46.045Z</time>
      </trkpt>
      <trkpt lat="41.67653" lon="43.06924">
        <ele>949.65804</ele>
        <time>2021-09-29T08:21:18.049Z</time>
      </trkpt>
      <trkpt lat="41.67518" lon="43.067">
        <ele>943.952946</ele>
        <time>2021-09-29T08:22:05.050Z</time>
      </trkpt>
      <trkpt lat="41.67367" lon="43.06433">
        <ele>941.347899</ele>
        <time>2021-09-29T08:22:45.033Z</time>
      </trkpt>
      <trkpt lat="41.67221" lon="43.06201">
        <ele>947.495941</ele>
        <time>2021-09-29T08:23:42.050Z</time>
      </trkpt>
      <trkpt lat="41.67103" lon="43.05977">
        <ele>957.188465</ele>
        <time>2021-09-29T08:24:46.041Z</time>
      </trkpt>
      <trkpt lat="41.66979" lon="43.05751">
        <ele>960.790367</ele>
        <time>2021-09-29T08:25:58.029Z</time>
      </trkpt>
      <trkpt lat="41.66853" lon="43.05521">
        <ele>966.972134</ele>
        <time>2021-09-29T08:27:15.029Z</time>
      </trkpt>
      <trkpt lat="41.66724" lon="43.05298">
        <ele>971.396854</ele>
        <time>2021-09-29T08:28:31.037Z</time>
      </trkpt>
      <trkpt lat="41.66657" lon="43.0503">
        <ele>977.343882</ele>
        <time>2021-09-29T08:29:51.048Z</time>
      </trkpt>
      <trkpt lat="41.66616" lon="43.0476">
        <ele>984.002049</ele>
        <time>2021-09-29T08:31:11.041Z</time>
      </trkpt>
      <trkpt lat="41.66548" lon="43.04506">
        <ele>985.702174</ele>
        <time>2021-09-29T08:32:17.056Z</time>
      </trkpt>
      <trkpt lat="41.66421" lon="43.04288">
        <ele>989.635719</ele>
        <time>2021-09-29T08:33:56.057Z</time>
      </trkpt>
      <trkpt lat="41.66307" lon="43.04028">
        <ele>986.492932</ele>
        <time>2021-09-29T08:34:56.066Z</time>
      </trkpt>
      <trkpt lat="41.66187" lon="43.03761">
        <ele>988.835783</ele>
        <time>2021-09-29T08:36:00.053Z</time>
      </trkpt>
      <trkpt lat="41.66094" lon="43.03523">
        <ele>994.875029</ele>
        <time>2021-09-29T08:37:04.051Z</time>
      </trkpt>
      <trkpt lat="41.65982" lon="43.03202">
        <ele>993.225599</ele>
        <time>2021-09-29T08:37:47.049Z</time>
      </trkpt>
      <trkpt lat="41.6588" lon="43.02911">
        <ele>992.678189</ele>
        <time>2021-09-29T08:38:37.053Z</time>
      </trkpt>
      <trkpt lat="41.65784" lon="43.02663">
        <ele>998.106273</ele>
        <time>2021-09-29T08:39:53.046Z</time>
      </trkpt>
      <trkpt lat="41.65698" lon="43.02417">
        <ele>1001.827819</ele>
        <time>2021-09-29T08:40:55.062Z</time>
      </trkpt>
      <trkpt lat="41.6561" lon="43.02161">
        <ele>1005.741885</ele>
        <time>2021-09-29T08:41:58.052Z</time>
      </trkpt>
      <trkpt lat="41.65494" lon="43.01913">
        <ele>1009.329655</ele>
        <time>2021-09-29T08:43:04.087Z</time>
      </trkpt>
      <trkpt lat="41.65374" lon="43.01659">
        <ele>1003.808665</ele>
        <time>2021-09-29T08:43:55.051Z</time>
      </trkpt>
      <trkpt lat="41.65262" lon="43.01434">
        <ele>1002.140366</ele>
        <time>2021-09-29T08:44:37.049Z</time>
      </trkpt>
      <trkpt lat="41.65129" lon="43.01163">
        <ele>1000.879087</ele>
        <time>2021-09-29T08:45:36.050Z</time>
      </trkpt>
      <trkpt lat="41.65003" lon="43.00904">
        <ele>996.416478</ele>
        <time>2021-09-29T08:46:16.048Z</time>
      </trkpt>
      <trkpt lat="41.64874" lon="43.00617">
        <ele>987.593927</ele>
        <time>2021-09-29T08:47:01.059Z</time>
      </trkpt>
      <trkpt lat="41.64775" lon="43.00347">
        <ele>984.597591</ele>
        <time>2021-09-29T08:47:43.042Z</time>
      </trkpt>
      <trkpt lat="41.64586" lon="43.00169">
        <ele>979.531214</ele>
        <time>2021-09-29T08:48:23.053Z</time>
      </trkpt>
      <trkpt lat="41.64404" lon="43.00335">
        <ele>970.361437</ele>
        <time>2021-09-29T08:49:03.057Z</time>
      </trkpt>
      <trkpt lat="41.64347" lon="43.00606">
        <ele>970.145763</ele>
        <time>2021-09-29T08:57:02.043Z</time>
      </trkpt>
      <trkpt lat="41.64293" lon="43.00881">
        <ele>970.006641</ele>
        <time>2021-09-29T08:57:49.092Z</time>
      </trkpt>
      <trkpt lat="41.64236" lon="43.01139">
        <ele>968.941318</ele>
        <time>2021-09-29T08:58:29.070Z</time>
      </trkpt>
      <trkpt lat="41.64142" lon="43.01374">
        <ele>968.640657</ele>
        <time>2021-09-29T08:59:10.042Z</time>
      </trkpt>
      <trkpt lat="41.63944" lon="43.01504">
        <ele>971.986132</ele>
        <time>2021-09-29T09:00:09.113Z</time>
      </trkpt>
      <trkpt lat="41.63981" lon="43.01807">
        <ele>971.160576</ele>
        <time>2021-09-29T09:01:07.051Z</time>
      </trkpt>
      <trkpt lat="41.6403" lon="43.02081">
        <ele>981.48829</ele>
        <time>2021-09-29T09:02:20.054Z</time>
      </trkpt>
      <trkpt lat="41.64127" lon="43.02324">
        <ele>990.19212</ele>
        <time>2021-09-29T09:03:41.048Z</time>
      </trkpt>
      <trkpt lat="41.64203" lon="43.02572">
        <ele>996.623146</ele>
        <time>2021-09-29T09:05:02.039Z</time>
      </trkpt>
      <trkpt lat="41.64107" lon="43.02788">
        <ele>998.239794</ele>
        <time>2021-09-29T09:06:31.100Z</time>
      </trkpt>
      <trkpt lat="41.63979" lon="43.02999">
        <ele>1006.581307</ele>
        <time>2021-09-29T09:08:12.095Z</time>
      </trkpt>
      <trkpt lat="41.63879" lon="43.03248">
        <ele>1007.955681</ele>
        <time>2021-09-29T09:08:57.049Z</time>
      </trkpt>
      <trkpt lat="41.63785" lon="43.03522">
        <ele>1011.858828</ele>
        <time>2021-09-29T09:09:50.036Z</time>
      </trkpt>
      <trkpt lat="41.6371" lon="43.03773">
        <ele>1015.750769</ele>
        <time>2021-09-29T09:10:32.057Z</time>
      </trkpt>
      <trkpt lat="41.63587" lon="43.04062">
        <ele>1008.311247</ele>
        <time>2021-09-29T09:11:22.046Z</time>
      </trkpt>
      <trkpt lat="41.63402" lon="43.04327">
        <ele>989.634854</ele>
        <time>2021-09-29T09:11:58.060Z</time>
      </trkpt>
      <trkpt lat="41.63216" lon="43.04418">
        <ele>973.894597</ele>
        <time>2021-09-29T09:12:18.042Z</time>
      </trkpt>
      <trkpt lat="41.63057" lon="43.04638">
        <ele>965.521589</ele>
        <time>2021-09-29T09:12:52.072Z</time>
      </trkpt>
      <trkpt lat="41.62913" lon="43.04841">
        <ele>965.414812</ele>
        <time>2021-09-29T09:13:37.051Z</time>
      </trkpt>
      <trkpt lat="41.62767" lon="43.05055">
        <ele>967.798018</ele>
        <time>2021-09-29T09:14:24.053Z</time>
      </trkpt>
      <trkpt lat="41.62575" lon="43.05082">
        <ele>969.316604</ele>
        <time>2021-09-29T09:15:04.044Z</time>
      </trkpt>
      <trkpt lat="41.62368" lon="43.05011">
        <ele>969.676068</ele>
        <time>2021-09-29T09:15:50.042Z</time>
      </trkpt>
      <trkpt lat="41.62156" lon="43.04943">
        <ele>973.623299</ele>
        <time>2021-09-29T09:16:54.059Z</time>
      </trkpt>
      <trkpt lat="41.61949" lon="43.05004">
        <ele>969.673365</ele>
        <time>2021-09-29T09:17:34.045Z</time>
      </trkpt>
      <trkpt lat="41.62058" lon="43.05278">
        <ele>961.811388</ele>
        <time>2021-09-29T09:18:30.097Z</time>
      </trkpt>
      <trkpt lat="41.62127" lon="43.05561">
        <ele>962.731702</ele>
        <time>2021-09-29T09:19:21.024Z</time>
      </trkpt>
      <trkpt lat="41.62195" lon="43.05822">
        <ele>963.97451</ele>
        <time>2021-09-29T09:20:05.030Z</time>
      </trkpt>
      <trkpt lat="41.62295" lon="43.06104">
        <ele>965.052222</ele>
        <time>2021-09-29T09:22:39.053Z</time>
      </trkpt>
      <trkpt lat="41.62411" lon="43.06347">
        <ele>963.92159</ele>
        <time>2021-09-29T09:23:24.058Z</time>
      </trkpt>
      <trkpt lat="41.62374" lon="43.06632">
        <ele>963.236965</ele>
        <time>2021-09-29T09:24:11.048Z</time>
      </trkpt>
      <trkpt lat="41.62231" lon="43.06824">
        <ele>960.916403</ele>
        <time>2021-09-29T09:24:53.039Z</time>
      </trkpt>
      <trkpt lat="41.62032" lon="43.06895">
        <ele>971.828614</ele>
        <time>2021-09-29T09:25:41.046Z</time>
      </trkpt>
      <trkpt lat="41.61848" lon="43.06755">
        <ele>978.290771</ele>
        <time>2021-09-29T09:26:26.047Z</time>
      </trkpt>
      <trkpt lat="41.61698" lon="43.06552">
        <ele>973.994806</ele>
        <time>2021-09-29T09:27:07.056Z</time>
      </trkpt>
      <trkpt lat="41.61468" lon="43.06518">
        <ele>975.816928</ele>
        <time>2021-09-29T09:28:05.039Z</time>
      </trkpt>
      <trkpt lat="41.6124" lon="43.06489">
        <ele>980.387152</ele>
        <time>2021-09-29T09:28:52.054Z</time>
      </trkpt>
      <trkpt lat="41.61041" lon="43.0654">
        <ele>986.3359</ele>
        <time>2021-09-29T09:29:35.066Z</time>
      </trkpt>
      <trkpt lat="41.60858" lon="43.06678">
        <ele>991.339132</ele>
        <time>2021-09-29T09:30:27.053Z</time>
      </trkpt>
      <trkpt lat="41.61022" lon="43.06869">
        <ele>979.256366</ele>
        <time>2021-09-29T09:31:25.044Z</time>
      </trkpt>
      <trkpt lat="41.61225" lon="43.06962">
        <ele>976.67445</ele>
        <time>2021-09-29T09:32:19.055Z</time>
      </trkpt>
      <trkpt lat="41.61198" lon="43.07239">
        <ele>976.798247</ele>
        <time>2021-09-29T09:33:09.066Z</time>
      </trkpt>
      <trkpt lat="41.61072" lon="43.07459">
        <ele>975.310158</ele>
        <time>2021-09-29T09:33:56.050Z</time>
      </trkpt>
      <trkpt lat="41.6089" lon="43.07643">
        <ele>982.000169</ele>
        <time>2021-09-29T09:34:48.054Z</time>
      </trkpt>
      <trkpt lat="41.60842" lon="43.07944">
        <ele>987.681798</ele>
        <time>2021-09-29T09:35:43.050Z</time>
      </trkpt>
      <trkpt lat="41.60818" lon="43.08255">
        <ele>989.556628</ele>
        <time>2021-09-29T09:36:43.056Z</time>
      </trkpt>
      <trkpt lat="41.60887" lon="43.08547">
        <ele>992.293007</ele>
        <time>2021-09-29T09:37:42.046Z</time>
      </trkpt>
      <trkpt lat="41.60884" lon="43.08814">
        <ele>987.024923</ele>
        <time>2021-09-29T09:38:53.048Z</time>
      </trkpt>
      <trkpt lat="41.60967" lon="43.09067">
        <ele>990.526477</ele>
        <time>2021-09-29T09:39:44.052Z</time>
      </trkpt>
      <trkpt lat="41.61018" lon="43.09338">
        <ele>988.839002</ele>
        <time>2021-09-29T09:40:31.051Z</time>
      </trkpt>
      <trkpt lat="41.61072" lon="43.09608">
        <ele>987.660002</ele>
        <time>2021-09-29T09:41:19.046Z</time>
      </trkpt>
      <trkpt lat="41.61114" lon="43.09883">
        <ele>987.617515</ele>
        <time>2021-09-29T09:42:00.046Z</time>
      </trkpt>
      <trkpt lat="41.61318" lon="43.09952">
        <ele>995.562602</ele>
        <time>2021-09-29T09:42:48.062Z</time>
      </trkpt>
      <trkpt lat="41.6152" lon="43.10025">
        <ele>993.411187</ele>
        <time>2021-09-29T09:43:36.049Z</time>
      </trkpt>
      <trkpt lat="41.61721" lon="43.10118">
        <ele>991.159964</ele>
        <time>2021-09-29T09:44:21.036Z</time>
      </trkpt>
      <trkpt lat="41.61669" lon="43.10391">
        <ele>992.682509</ele>
        <time>2021-09-29T09:45:16.045Z</time>
      </trkpt>
      <trkpt lat="41.61609" lon="43.10639">
        <ele>990.543034</ele>
        <time>2021-09-29T09:45:58.069Z</time>
      </trkpt>
      <trkpt lat="41.61643" lon="43.10916">
        <ele>994.910191</ele>
        <time>2021-09-29T09:46:42.050Z</time>
      </trkpt>
      <trkpt lat="41.61683" lon="43.11182">
        <ele>998.27411</ele>
        <time>2021-09-29T09:47:46.063Z</time>
      </trkpt>
      <trkpt lat="41.61678" lon="43.11447">
        <ele>1002.759929</ele>
        <time>2021-09-29T09:49:06.051Z</time>
      </trkpt>
      <trkpt lat="41.61557" lon="43.11709">
        <ele>1002.306475</ele>
        <time>2021-09-29T09:49:55.047Z</time>
      </trkpt>
      <trkpt lat="41.61516" lon="43.11978">
        <ele>1003.445143</ele>
        <time>2021-09-29T09:50:35.059Z</time>
      </trkpt>
      <trkpt lat="41.61478" lon="43.12255">
        <ele>1005.644279</ele>
        <time>2021-09-29T09:51:21.069Z</time>
      </trkpt>
      <trkpt lat="41.61452" lon="43.12537">
        <ele>1012.518484</ele>
        <time>2021-09-29T09:52:36.040Z</time>
      </trkpt>
      <trkpt lat="41.61459" lon="43.12829">
        <ele>1019.739486</ele>
        <time>2021-09-29T09:53:48.045Z</time>
      </trkpt>
      <trkpt lat="41.61467" lon="43.13099">
        <ele>1023.642516</ele>
        <time>2021-09-29T09:55:23.069Z</time>
      </trkpt>
      <trkpt lat="41.61516" lon="43.13397">
        <ele>1017.113191</ele>
        <time>2021-09-29T09:55:54.073Z</time>
      </trkpt>
      <trkpt lat="41.61513" lon="43.13686">
        <ele>1007.776128</ele>
        <time>2021-09-29T09:56:23.044Z</time>
      </trkpt>
      <trkpt lat="41.61385" lon="43.13916">
        <ele>1007.080167</ele>
        <time>2021-09-29T09:57:11.081Z</time>
      </trkpt>
      <trkpt lat="41.6117" lon="43.14029">
        <ele>1012.082823</ele>
        <time>2021-09-29T09:58:04.055Z</time>
      </trkpt>
      <trkpt lat="41.60967" lon="43.14011">
        <ele>1019.902556</ele>
        <time>2021-09-29T09:59:22.055Z</time>
      </trkpt>
      <trkpt lat="41.60811" lon="43.13835">
        <ele>1030.894229</ele>
        <time>2021-09-29T10:00:49.062Z</time>
      </trkpt>
      <trkpt lat="41.60683" lon="43.13642">
        <ele>1039.020846</ele>
        <time>2021-09-29T10:02:34.043Z</time>
      </trkpt>
      <trkpt lat="41.60497" lon="43.13637">
        <ele>1043.569466</ele>
        <time>2021-09-29T10:03:54.042Z</time>
      </trkpt>
      <trkpt lat="41.60491" lon="43.13925">
        <ele>1046.121085</ele>
        <time>2021-09-29T10:04:57.058Z</time>
      </trkpt>
      <trkpt lat="41.6055" lon="43.14231">
        <ele>1038.339144</ele>
        <time>2021-09-29T10:05:38.056Z</time>
      </trkpt>
      <trkpt lat="41.6061" lon="43.14547">
        <ele>1029.599646</ele>
        <time>2021-09-29T10:10:30.055Z</time>
      </trkpt>
      <trkpt lat="41.60467" lon="43.14725">
        <ele>1034.742053</ele>
        <time>2021-09-29T10:12:08.046Z</time>
      </trkpt>
      <trkpt lat="41.60271" lon="43.14769">
        <ele>1039.245112</ele>
        <time>2021-09-29T10:13:56.047Z</time>
      </trkpt>
      <trkpt lat="41.60074" lon="43.14866">
        <ele>1040.989196</ele>
        <time>2021-09-29T10:14:58.051Z</time>
      </trkpt>
      <trkpt lat="41.59971" lon="43.15117">
        <ele>1034.231067</ele>
        <time>2021-09-29T10:16:06.034Z</time>
      </trkpt>
      <trkpt lat="41.59753" lon="43.15358">
        <ele>1033.034326</ele>
        <time>2021-09-29T10:16:52.047Z</time>
      </trkpt>
      <trkpt lat="41.59595" lon="43.15565">
        <ele>1036.246725</ele>
        <time>2021-09-29T10:17:46.053Z</time>
      </trkpt>
      <trkpt lat="41.59477" lon="43.15786">
        <ele>1041.52946</ele>
        <time>2021-09-29T10:19:05.030Z</time>
      </trkpt>
      <trkpt lat="41.59408" lon="43.1605">
        <ele>1052.392015</ele>
        <time>2021-09-29T10:20:40.038Z</time>
      </trkpt>
      <trkpt lat="41.59419" lon="43.16306">
        <ele>1060.388533</ele>
        <time>2021-09-29T10:22:21.070Z</time>
      </trkpt>
      <trkpt lat="41.59368" lon="43.16622">
        <ele>1054.80771</ele>
        <time>2021-09-29T10:23:21.046Z</time>
      </trkpt>
      <trkpt lat="41.59345" lon="43.16926">
        <ele>1046.941463</ele>
        <time>2021-09-29T10:23:47.056Z</time>
      </trkpt>
      <trkpt lat="41.59289" lon="43.1719">
        <ele>1051.988207</ele>
        <time>2021-09-29T10:25:02.059Z</time>
      </trkpt>
      <trkpt lat="41.59234" lon="43.17456">
        <ele>1059.025989</ele>
        <time>2021-09-29T10:26:20.057Z</time>
      </trkpt>
      <trkpt lat="41.59249" lon="43.17754">
        <ele>1054.13597</ele>
        <time>2021-09-29T10:27:06.046Z</time>
      </trkpt>
      <trkpt lat="41.5927" lon="43.17986">
        <ele>1055.061284</ele>
        <time>2021-09-29T10:28:01.060Z</time>
      </trkpt>
      <trkpt lat="41.59353" lon="43.18223">
        <ele>1060.200266</ele>
        <time>2021-09-29T10:29:06.064Z</time>
      </trkpt>
      <trkpt lat="41.59386" lon="43.18471">
        <ele>1066.533581</ele>
        <time>2021-09-29T10:30:58.056Z</time>
      </trkpt>
      <trkpt lat="41.59494" lon="43.18722">
        <ele>1058.921713</ele>
        <time>2021-09-29T10:32:24.039Z</time>
      </trkpt>
      <trkpt lat="41.59587" lon="43.19044">
        <ele>1052.450674</ele>
        <time>2021-09-29T10:33:03.046Z</time>
      </trkpt>
      <trkpt lat="41.59754" lon="43.19282">
        <ele>1057.941976</ele>
        <time>2021-09-29T10:33:55.066Z</time>
      </trkpt>
      <trkpt lat="41.59734" lon="43.19513">
        <ele>1064.307342</ele>
        <time>2021-09-29T10:35:13.053Z</time>
      </trkpt>
      <trkpt lat="41.59602" lon="43.19737">
        <ele>1059.979105</ele>
        <time>2021-09-29T10:35:54.062Z</time>
      </trkpt>
      <trkpt lat="41.59487" lon="43.19997">
        <ele>1057.976271</ele>
        <time>2021-09-29T10:36:46.067Z</time>
      </trkpt>
      <trkpt lat="41.59551" lon="43.20292">
        <ele>1059.088428</ele>
        <time>2021-09-29T10:37:43.051Z</time>
      </trkpt>
      <trkpt lat="41.59636" lon="43.20554">
        <ele>1055.530154</ele>
        <time>2021-09-29T10:38:30.058Z</time>
      </trkpt>
      <trkpt lat="41.59623" lon="43.20834">
        <ele>1067.412554</ele>
        <time>2021-09-29T10:39:30.103Z</time>
      </trkpt>
      <trkpt lat="41.5952" lon="43.21104">
        <ele>1067.682632</ele>
        <time>2021-09-29T10:40:23.058Z</time>
      </trkpt>
      <trkpt lat="41.59483" lon="43.21409">
        <ele>1062.706822</ele>
        <time>2021-09-29T10:41:29.058Z</time>
      </trkpt>
      <trkpt lat="41.59549" lon="43.21688">
        <ele>1065.536751</ele>
        <time>2021-09-29T10:42:35.047Z</time>
      </trkpt>
      <trkpt lat="41.59567" lon="43.21979">
        <ele>1064.482767</ele>
        <time>2021-09-29T10:43:38.053Z</time>
      </trkpt>
      <trkpt lat="41.59574" lon="43.22248">
        <ele>1062.314729</ele>
        <time>2021-09-29T10:44:18.037Z</time>
      </trkpt>
      <trkpt lat="41.59561" lon="43.22522">
        <ele>1064.832286</ele>
        <time>2021-09-29T10:45:10.055Z</time>
      </trkpt>
      <trkpt lat="41.59418" lon="43.22716">
        <ele>1066.203878</ele>
        <time>2021-09-29T10:46:03.048Z</time>
      </trkpt>
      <trkpt lat="41.59187" lon="43.22749">
        <ele>1062.977672</ele>
        <time>2021-09-29T10:47:05.049Z</time>
      </trkpt>
      <trkpt lat="41.58983" lon="43.22774">
        <ele>1075.266084</ele>
        <time>2021-09-29T10:48:35.057Z</time>
      </trkpt>
      <trkpt lat="41.58937" lon="43.23044">
        <ele>1093.227357</ele>
        <time>2021-09-29T10:49:53.065Z</time>
      </trkpt>
      <trkpt lat="41.58848" lon="43.23317">
        <ele>1084.285374</ele>
        <time>2021-09-29T10:50:22.059Z</time>
      </trkpt>
      <trkpt lat="41.58771" lon="43.2368">
        <ele>1074.596915</ele>
        <time>2021-09-29T10:51:04.055Z</time>
      </trkpt>
      <trkpt lat="41.58664" lon="43.23926">
        <ele>1076.947759</ele>
        <time>2021-09-29T10:51:49.062Z</time>
      </trkpt>
      <trkpt lat="41.58585" lon="43.24222">
        <ele>1079.375477</ele>
        <time>2021-09-29T10:52:48.037Z</time>
      </trkpt>
      <trkpt lat="41.58436" lon="43.24397">
        <ele>1081.194343</ele>
        <time>2021-09-29T10:53:30.035Z</time>
      </trkpt>
      <trkpt lat="41.58244" lon="43.24483">
        <ele>1083.716366</ele>
        <time>2021-09-29T10:54:37.038Z</time>
      </trkpt>
      <trkpt lat="41.58049" lon="43.24405">
        <ele>1091.927919</ele>
        <time>2021-09-29T10:56:01.034Z</time>
      </trkpt>
      <trkpt lat="41.57864" lon="43.24332">
        <ele>1099.25895</ele>
        <time>2021-09-29T10:57:46.055Z</time>
      </trkpt>
      <trkpt lat="41.57706" lon="43.24506">
        <ele>1095.995107</ele>
        <time>2021-09-29T10:58:35.043Z</time>
      </trkpt>
      <trkpt lat="41.57566" lon="43.24789">
        <ele>1090.22516</ele>
        <time>2021-09-29T10:59:15.070Z</time>
      </trkpt>
      <trkpt lat="41.5739" lon="43.24691">
        <ele>1092.555456</ele>
        <time>2021-09-29T11:00:10.050Z</time>
      </trkpt>
      <trkpt lat="41.57324" lon="43.2495">
        <ele>1107.445489</ele>
        <time>2021-09-29T11:01:44.064Z</time>
      </trkpt>
      <trkpt lat="41.57264" lon="43.25189">
        <ele>1118.75958</ele>
        <time>2021-09-29T11:03:24.041Z</time>
      </trkpt>
      <trkpt lat="41.57117" lon="43.25358">
        <ele>1127.235892</ele>
        <time>2021-09-29T11:05:12.058Z</time>
      </trkpt>
      <trkpt lat="41.56926" lon="43.25429">
        <ele>1133.85936</ele>
        <time>2021-09-29T11:07:02.052Z</time>
      </trkpt>
      <trkpt lat="41.56918" lon="43.25633">
        <ele>1147.036998</ele>
        <time>2021-09-29T11:09:00.066Z</time>
      </trkpt>
      <trkpt lat="41.57021" lon="43.25582">
        <ele>1148.599525</ele>
        <time>2021-09-29T11:13:38.065Z</time>
      </trkpt>
    </trkseg>
  </trk>
  <trk>
    <name><![CDATA[Tour d'Europe: étape 459]]></name>
    <extensions>
      <line xmlns="http://www.topografix.com/GPX/gpx_style/0/2">
        <color>0000FF</color>
        <width>4</width>
      </line>
    </extensions>
    <trkseg>
      <trkpt lat="41.57023" lon="43.25569">
        <ele>1153.957349</ele>
        <time>2021-09-30T04:46:57.588Z</time>
      </trkpt>
      <trkpt lat="41.56947" lon="43.25623">
        <ele>1153.957349</ele>
        <time>2021-09-30T04:59:25.582Z</time>
      </trkpt>
      <trkpt lat="41.56818" lon="43.2548">
        <ele>1149.358207</ele>
        <time>2021-09-30T05:00:38.574Z</time>
      </trkpt>
      <trkpt lat="41.56683" lon="43.25701">
        <ele>1144.968607</ele>
        <time>2021-09-30T05:01:43.578Z</time>
      </trkpt>
      <trkpt lat="41.56546" lon="43.25902">
        <ele>1133.845745</ele>
        <time>2021-09-30T05:02:27.586Z</time>
      </trkpt>
      <trkpt lat="41.56499" lon="43.26208">
        <ele>1120.729111</ele>
        <time>2021-09-30T05:03:03.590Z</time>
      </trkpt>
      <trkpt lat="41.56394" lon="43.26529">
        <ele>1104.406213</ele>
        <time>2021-09-30T05:03:43.648Z</time>
      </trkpt>
      <trkpt lat="41.56348" lon="43.2686">
        <ele>1090.002185</ele>
        <time>2021-09-30T05:04:12.604Z</time>
      </trkpt>
      <trkpt lat="41.56223" lon="43.27115">
        <ele>1093.531552</ele>
        <time>2021-09-30T05:04:55.612Z</time>
      </trkpt>
      <trkpt lat="41.56033" lon="43.27248">
        <ele>1101.368145</ele>
        <time>2021-09-30T05:05:56.594Z</time>
      </trkpt>
      <trkpt lat="41.55857" lon="43.27156">
        <ele>1105.687429</ele>
        <time>2021-09-30T05:06:56.588Z</time>
      </trkpt>
      <trkpt lat="41.5568" lon="43.26987">
        <ele>1108.614381</ele>
        <time>2021-09-30T05:07:54.613Z</time>
      </trkpt>
      <trkpt lat="41.55506" lon="43.26834">
        <ele>1112.093139</ele>
        <time>2021-09-30T05:09:10.617Z</time>
      </trkpt>
      <trkpt lat="41.55329" lon="43.26644">
        <ele>1119.453673</ele>
        <time>2021-09-30T05:10:07.616Z</time>
      </trkpt>
      <trkpt lat="41.55187" lon="43.26436">
        <ele>1119.981177</ele>
        <time>2021-09-30T05:11:04.599Z</time>
      </trkpt>
      <trkpt lat="41.55088" lon="43.26168">
        <ele>1118.766407</ele>
        <time>2021-09-30T05:11:45.604Z</time>
      </trkpt>
      <trkpt lat="41.54908" lon="43.25998">
        <ele>1110.720266</ele>
        <time>2021-09-30T05:12:30.612Z</time>
      </trkpt>
      <trkpt lat="41.54673" lon="43.26004">
        <ele>1104.38401</ele>
        <time>2021-09-30T05:13:23.604Z</time>
      </trkpt>
      <trkpt lat="41.54467" lon="43.26095">
        <ele>1108.676894</ele>
        <time>2021-09-30T05:14:07.632Z</time>
      </trkpt>
      <trkpt lat="41.54249" lon="43.26182">
        <ele>1110.823491</ele>
        <time>2021-09-30T05:15:02.599Z</time>
      </trkpt>
      <trkpt lat="41.54045" lon="43.26034">
        <ele>1110.326593</ele>
        <time>2021-09-30T05:15:49.594Z</time>
      </trkpt>
      <trkpt lat="41.53914" lon="43.25832">
        <ele>1121.612693</ele>
        <time>2021-09-30T05:17:11.595Z</time>
      </trkpt>
      <trkpt lat="41.53724" lon="43.25881">
        <ele>1127.560843</ele>
        <time>2021-09-30T05:18:46.599Z</time>
      </trkpt>
      <trkpt lat="41.53521" lon="43.25956">
        <ele>1123.106185</ele>
        <time>2021-09-30T05:19:35.645Z</time>
      </trkpt>
      <trkpt lat="41.53267" lon="43.26112">
        <ele>1116.033957</ele>
        <time>2021-09-30T05:20:17.631Z</time>
      </trkpt>
      <trkpt lat="41.53022" lon="43.26072">
        <ele>1112.545576</ele>
        <time>2021-09-30T05:21:02.589Z</time>
      </trkpt>
      <trkpt lat="41.52806" lon="43.26057">
        <ele>1118.514133</ele>
        <time>2021-09-30T05:22:09.606Z</time>
      </trkpt>
      <trkpt lat="41.5261" lon="43.25978">
        <ele>1125.279166</ele>
        <time>2021-09-30T05:23:23.599Z</time>
      </trkpt>
      <trkpt lat="41.5241" lon="43.25915">
        <ele>1130.011229</ele>
        <time>2021-09-30T05:24:47.599Z</time>
      </trkpt>
      <trkpt lat="41.52157" lon="43.25972">
        <ele>1123.56692</ele>
        <time>2021-09-30T05:25:27.612Z</time>
      </trkpt>
      <trkpt lat="41.51928" lon="43.25956">
        <ele>1126.143325</ele>
        <time>2021-09-30T05:26:20.604Z</time>
      </trkpt>
      <trkpt lat="41.51724" lon="43.25906">
        <ele>1136.363966</ele>
        <time>2021-09-30T05:28:02.646Z</time>
      </trkpt>
      <trkpt lat="41.51589" lon="43.26098">
        <ele>1136.581695</ele>
        <time>2021-09-30T05:29:18.603Z</time>
      </trkpt>
      <trkpt lat="41.51316" lon="43.26164">
        <ele>1127.04251</ele>
        <time>2021-09-30T05:29:53.594Z</time>
      </trkpt>
      <trkpt lat="41.51088" lon="43.26126">
        <ele>1125.788989</ele>
        <time>2021-09-30T05:30:38.615Z</time>
      </trkpt>
      <trkpt lat="41.50872" lon="43.26149">
        <ele>1131.513603</ele>
        <time>2021-09-30T05:31:38.604Z</time>
      </trkpt>
      <trkpt lat="41.50651" lon="43.26108">
        <ele>1130.052259</ele>
        <time>2021-09-30T05:32:24.609Z</time>
      </trkpt>
      <trkpt lat="41.50433" lon="43.26208">
        <ele>1135.469976</ele>
        <time>2021-09-30T05:33:26.597Z</time>
      </trkpt>
      <trkpt lat="41.50249" lon="43.26339">
        <ele>1137.638016</ele>
        <time>2021-09-30T05:34:23.601Z</time>
      </trkpt>
      <trkpt lat="41.50045" lon="43.26299">
        <ele>1135.523529</ele>
        <time>2021-09-30T05:35:12.610Z</time>
      </trkpt>
      <trkpt lat="41.49823" lon="43.2633">
        <ele>1139.257268</ele>
        <time>2021-09-30T05:36:06.602Z</time>
      </trkpt>
      <trkpt lat="41.4966" lon="43.26468">
        <ele>1144.955715</ele>
        <time>2021-09-30T05:37:45.595Z</time>
      </trkpt>
      <trkpt lat="41.49478" lon="43.26605">
        <ele>1145.99627</ele>
        <time>2021-09-30T05:38:48.616Z</time>
      </trkpt>
      <trkpt lat="41.49257" lon="43.26672">
        <ele>1148.21455</ele>
        <time>2021-09-30T05:39:52.640Z</time>
      </trkpt>
      <trkpt lat="41.49028" lon="43.26699">
        <ele>1145.682087</ele>
        <time>2021-09-30T05:40:48.645Z</time>
      </trkpt>
      <trkpt lat="41.48792" lon="43.26813">
        <ele>1142.827159</ele>
        <time>2021-09-30T05:41:31.602Z</time>
      </trkpt>
      <trkpt lat="41.48572" lon="43.26828">
        <ele>1144.558914</ele>
        <time>2021-09-30T05:42:31.606Z</time>
      </trkpt>
      <trkpt lat="41.48427" lon="43.27016">
        <ele>1154.301945</ele>
        <time>2021-09-30T05:43:45.645Z</time>
      </trkpt>
      <trkpt lat="41.48409" lon="43.27298">
        <ele>1151.487066</ele>
        <time>2021-09-30T05:45:10.661Z</time>
      </trkpt>
      <trkpt lat="41.48365" lon="43.27569">
        <ele>1151.093446</ele>
        <time>2021-09-30T05:45:55.660Z</time>
      </trkpt>
      <trkpt lat="41.48252" lon="43.27826">
        <ele>1159.528212</ele>
        <time>2021-09-30T05:46:59.612Z</time>
      </trkpt>
      <trkpt lat="41.48143" lon="43.28052">
        <ele>1168.27085</ele>
        <time>2021-09-30T05:48:45.604Z</time>
      </trkpt>
      <trkpt lat="41.48073" lon="43.28291">
        <ele>1176.116372</ele>
        <time>2021-09-30T05:50:39.604Z</time>
      </trkpt>
      <trkpt lat="41.48139" lon="43.28585">
        <ele>1173.465446</ele>
        <time>2021-09-30T05:51:55.629Z</time>
      </trkpt>
      <trkpt lat="41.48201" lon="43.28879">
        <ele>1172.952199</ele>
        <time>2021-09-30T05:52:48.619Z</time>
      </trkpt>
      <trkpt lat="41.48239" lon="43.29178">
        <ele>1177.656359</ele>
        <time>2021-09-30T05:53:52.606Z</time>
      </trkpt>
      <trkpt lat="41.48253" lon="43.2946">
        <ele>1178.069554</ele>
        <time>2021-09-30T05:54:57.620Z</time>
      </trkpt>
      <trkpt lat="41.48293" lon="43.29737">
        <ele>1183.038551</ele>
        <time>2021-09-30T05:56:01.647Z</time>
      </trkpt>
      <trkpt lat="41.48317" lon="43.30003">
        <ele>1188.347729</ele>
        <time>2021-09-30T05:57:26.606Z</time>
      </trkpt>
      <trkpt lat="41.48353" lon="43.30256">
        <ele>1201.070913</ele>
        <time>2021-09-30T05:59:12.614Z</time>
      </trkpt>
      <trkpt lat="41.48384" lon="43.3052">
        <ele>1209.189052</ele>
        <time>2021-09-30T06:00:51.615Z</time>
      </trkpt>
      <trkpt lat="41.48457" lon="43.30759">
        <ele>1217.963412</ele>
        <time>2021-09-30T06:02:32.608Z</time>
      </trkpt>
      <trkpt lat="41.48554" lon="43.30993">
        <ele>1229.668164</ele>
        <time>2021-09-30T06:04:22.604Z</time>
      </trkpt>
      <trkpt lat="41.48625" lon="43.31263">
        <ele>1237.201041</ele>
        <time>2021-09-30T06:09:42.619Z</time>
      </trkpt>
      <trkpt lat="41.48673" lon="43.31521">
        <ele>1240.982705</ele>
        <time>2021-09-30T06:11:00.616Z</time>
      </trkpt>
      <trkpt lat="41.48804" lon="43.3177">
        <ele>1237.252969</ele>
        <time>2021-09-30T06:11:50.624Z</time>
      </trkpt>
      <trkpt lat="41.48778" lon="43.32034">
        <ele>1236.455145</ele>
        <time>2021-09-30T06:12:33.622Z</time>
      </trkpt>
      <trkpt lat="41.48854" lon="43.32345">
        <ele>1230.015041</ele>
        <time>2021-09-30T06:13:13.612Z</time>
      </trkpt>
      <trkpt lat="41.48839" lon="43.3267">
        <ele>1224.836061</ele>
        <time>2021-09-30T06:13:44.626Z</time>
      </trkpt>
      <trkpt lat="41.48976" lon="43.32857">
        <ele>1233.889797</ele>
        <time>2021-09-30T06:14:42.619Z</time>
      </trkpt>
      <trkpt lat="41.48997" lon="43.33139">
        <ele>1239.533679</ele>
        <time>2021-09-30T06:15:47.606Z</time>
      </trkpt>
      <trkpt lat="41.49057" lon="43.33402">
        <ele>1243.745128</ele>
        <time>2021-09-30T06:16:54.617Z</time>
      </trkpt>
      <trkpt lat="41.49116" lon="43.33655">
        <ele>1248.270419</ele>
        <time>2021-09-30T06:18:13.613Z</time>
      </trkpt>
      <trkpt lat="41.49078" lon="43.33917">
        <ele>1248.476647</ele>
        <time>2021-09-30T06:19:24.630Z</time>
      </trkpt>
      <trkpt lat="41.49022" lon="43.34169">
        <ele>1254.20054</ele>
        <time>2021-09-30T06:20:32.618Z</time>
      </trkpt>
      <trkpt lat="41.48941" lon="43.34451">
        <ele>1264.462503</ele>
        <time>2021-09-30T06:21:28.627Z</time>
      </trkpt>
      <trkpt lat="41.48859" lon="43.34678">
        <ele>1268.527916</ele>
        <time>2021-09-30T06:22:48.630Z</time>
      </trkpt>
      <trkpt lat="41.48816" lon="43.34941">
        <ele>1270.69017</ele>
        <time>2021-09-30T06:24:08.619Z</time>
      </trkpt>
      <trkpt lat="41.48772" lon="43.35215">
        <ele>1274.143649</ele>
        <time>2021-09-30T06:25:24.655Z</time>
      </trkpt>
      <trkpt lat="41.48761" lon="43.3547">
        <ele>1281.494495</ele>
        <time>2021-09-30T06:26:57.612Z</time>
      </trkpt>
      <trkpt lat="41.48614" lon="43.35655">
        <ele>1286.658065</ele>
        <time>2021-09-30T06:28:29.613Z</time>
      </trkpt>
      <trkpt lat="41.48505" lon="43.35878">
        <ele>1293.722612</ele>
        <time>2021-09-30T06:29:54.617Z</time>
      </trkpt>
      <trkpt lat="41.48421" lon="43.36105">
        <ele>1302.446748</ele>
        <time>2021-09-30T06:31:34.620Z</time>
      </trkpt>
      <trkpt lat="41.48479" lon="43.36371">
        <ele>1307.236171</ele>
        <time>2021-09-30T06:33:10.613Z</time>
      </trkpt>
      <trkpt lat="41.48415" lon="43.36644">
        <ele>1312.346175</ele>
        <time>2021-09-30T06:34:24.654Z</time>
      </trkpt>
      <trkpt lat="41.48471" lon="43.36903">
        <ele>1313.579352</ele>
        <time>2021-09-30T06:35:39.617Z</time>
      </trkpt>
      <trkpt lat="41.48477" lon="43.37185">
        <ele>1322.253198</ele>
        <time>2021-09-30T06:36:59.661Z</time>
      </trkpt>
      <trkpt lat="41.48441" lon="43.37449">
        <ele>1327.67052</ele>
        <time>2021-09-30T06:38:08.632Z</time>
      </trkpt>
      <trkpt lat="41.48361" lon="43.3769">
        <ele>1333.431245</ele>
        <time>2021-09-30T06:39:35.649Z</time>
      </trkpt>
      <trkpt lat="41.48328" lon="43.37948">
        <ele>1339.195584</ele>
        <time>2021-09-30T06:41:12.613Z</time>
      </trkpt>
      <trkpt lat="41.48204" lon="43.38169">
        <ele>1350.909158</ele>
        <time>2021-09-30T06:43:06.659Z</time>
      </trkpt>
      <trkpt lat="41.48118" lon="43.38395">
        <ele>1354.491341</ele>
        <time>2021-09-30T06:44:33.629Z</time>
      </trkpt>
      <trkpt lat="41.48048" lon="43.38656">
        <ele>1355.259331</ele>
        <time>2021-09-30T06:45:27.622Z</time>
      </trkpt>
      <trkpt lat="41.47983" lon="43.38915">
        <ele>1353.017008</ele>
        <time>2021-09-30T06:46:25.629Z</time>
      </trkpt>
      <trkpt lat="41.47863" lon="43.3914">
        <ele>1360.490872</ele>
        <time>2021-09-30T06:47:39.637Z</time>
      </trkpt>
      <trkpt lat="41.47756" lon="43.39378">
        <ele>1369.956259</ele>
        <time>2021-09-30T06:49:10.632Z</time>
      </trkpt>
      <trkpt lat="41.47577" lon="43.39512">
        <ele>1373.757093</ele>
        <time>2021-09-30T06:50:42.671Z</time>
      </trkpt>
      <trkpt lat="41.47411" lon="43.39636">
        <ele>1377.507427</ele>
        <time>2021-09-30T06:52:04.627Z</time>
      </trkpt>
      <trkpt lat="41.47255" lon="43.39803">
        <ele>1383.932727</ele>
        <time>2021-09-30T06:53:41.626Z</time>
      </trkpt>
      <trkpt lat="41.47113" lon="43.39991">
        <ele>1391.831511</ele>
        <time>2021-09-30T06:55:21.634Z</time>
      </trkpt>
      <trkpt lat="41.46991" lon="43.40195">
        <ele>1401.12106</ele>
        <time>2021-09-30T06:57:02.662Z</time>
      </trkpt>
      <trkpt lat="41.46929" lon="43.40453">
        <ele>1407.743318</ele>
        <time>2021-09-30T06:58:34.624Z</time>
      </trkpt>
      <trkpt lat="41.46868" lon="43.40702">
        <ele>1416.261</ele>
        <time>2021-09-30T07:00:03.610Z</time>
      </trkpt>
      <trkpt lat="41.46758" lon="43.40979">
        <ele>1416.576374</ele>
        <time>2021-09-30T07:02:08.613Z</time>
      </trkpt>
      <trkpt lat="41.46691" lon="43.41215">
        <ele>1431.082588</ele>
        <time>2021-09-30T07:03:52.618Z</time>
      </trkpt>
      <trkpt lat="41.46582" lon="43.41428">
        <ele>1447.130301</ele>
        <time>2021-09-30T07:05:54.610Z</time>
      </trkpt>
      <trkpt lat="41.46493" lon="43.41665">
        <ele>1459.669123</ele>
        <time>2021-09-30T07:07:53.633Z</time>
      </trkpt>
      <trkpt lat="41.46428" lon="43.41965">
        <ele>1452.655967</ele>
        <time>2021-09-30T07:08:42.640Z</time>
      </trkpt>
      <trkpt lat="41.46466" lon="43.4226">
        <ele>1445.437352</ele>
        <time>2021-09-30T07:09:45.618Z</time>
      </trkpt>
      <trkpt lat="41.46563" lon="43.42487">
        <ele>1460.499737</ele>
        <time>2021-09-30T07:11:30.616Z</time>
      </trkpt>
      <trkpt lat="41.46619" lon="43.42737">
        <ele>1468.649203</ele>
        <time>2021-09-30T07:13:13.635Z</time>
      </trkpt>
      <trkpt lat="41.4667" lon="43.43008">
        <ele>1474.247936</ele>
        <time>2021-09-30T07:14:34.629Z</time>
      </trkpt>
      <trkpt lat="41.4673" lon="43.43257">
        <ele>1481.019225</ele>
        <time>2021-09-30T07:16:21.617Z</time>
      </trkpt>
      <trkpt lat="41.46652" lon="43.43503">
        <ele>1493.441088</ele>
        <time>2021-09-30T07:17:34.629Z</time>
      </trkpt>
      <trkpt lat="41.4664" lon="43.43766">
        <ele>1493.972252</ele>
        <time>2021-09-30T07:19:04.661Z</time>
      </trkpt>
      <trkpt lat="41.46499" lon="43.43921">
        <ele>1493.635103</ele>
        <time>2021-09-30T07:20:42.638Z</time>
      </trkpt>
      <trkpt lat="41.46443" lon="43.44152">
        <ele>1500.799398</ele>
        <time>2021-09-30T07:22:55.627Z</time>
      </trkpt>
      <trkpt lat="41.46296" lon="43.44334">
        <ele>1510.153351</ele>
        <time>2021-09-30T07:24:27.622Z</time>
      </trkpt>
      <trkpt lat="41.46137" lon="43.44515">
        <ele>1517.273442</ele>
        <time>2021-09-30T07:25:41.636Z</time>
      </trkpt>
      <trkpt lat="41.45972" lon="43.44655">
        <ele>1522.173487</ele>
        <time>2021-09-30T07:27:14.630Z</time>
      </trkpt>
      <trkpt lat="41.45838" lon="43.44847">
        <ele>1528.004611</ele>
        <time>2021-09-30T07:28:58.635Z</time>
      </trkpt>
      <trkpt lat="41.45752" lon="43.45077">
        <ele>1544.816101</ele>
        <time>2021-09-30T07:30:53.633Z</time>
      </trkpt>
      <trkpt lat="41.45814" lon="43.45329">
        <ele>1557.999824</ele>
        <time>2021-09-30T07:32:37.628Z</time>
      </trkpt>
      <trkpt lat="41.45847" lon="43.45631">
        <ele>1556.724768</ele>
        <time>2021-09-30T07:33:43.630Z</time>
      </trkpt>
      <trkpt lat="41.45836" lon="43.45899">
        <ele>1558.623314</ele>
        <time>2021-09-30T07:35:13.638Z</time>
      </trkpt>
      <trkpt lat="41.45751" lon="43.46127">
        <ele>1568.212</ele>
        <time>2021-09-30T07:37:14.631Z</time>
      </trkpt>
      <trkpt lat="41.45805" lon="43.46392">
        <ele>1582.314189</ele>
        <time>2021-09-30T07:38:33.632Z</time>
      </trkpt>
      <trkpt lat="41.4578" lon="43.46637">
        <ele>1585.464601</ele>
        <time>2021-09-30T07:39:52.628Z</time>
      </trkpt>
      <trkpt lat="41.45671" lon="43.46866">
        <ele>1579.327451</ele>
        <time>2021-09-30T07:41:03.673Z</time>
      </trkpt>
      <trkpt lat="41.45461" lon="43.46886">
        <ele>1590.644593</ele>
        <time>2021-09-30T07:42:28.619Z</time>
      </trkpt>
      <trkpt lat="41.453" lon="43.47037">
        <ele>1595.086595</ele>
        <time>2021-09-30T07:44:06.615Z</time>
      </trkpt>
      <trkpt lat="41.45124" lon="43.46931">
        <ele>1609.307035</ele>
        <time>2021-09-30T07:45:33.627Z</time>
      </trkpt>
      <trkpt lat="41.4493" lon="43.46859">
        <ele>1621.568909</ele>
        <time>2021-09-30T07:46:55.652Z</time>
      </trkpt>
      <trkpt lat="41.44726" lon="43.46819">
        <ele>1624.098847</ele>
        <time>2021-09-30T07:48:20.625Z</time>
      </trkpt>
      <trkpt lat="41.44526" lon="43.46815">
        <ele>1636.850613</ele>
        <time>2021-09-30T07:49:43.620Z</time>
      </trkpt>
      <trkpt lat="41.4433" lon="43.46809">
        <ele>1624.528202</ele>
        <time>2021-09-30T07:50:52.638Z</time>
      </trkpt>
      <trkpt lat="41.44117" lon="43.46874">
        <ele>1631.434018</ele>
        <time>2021-09-30T07:52:21.628Z</time>
      </trkpt>
      <trkpt lat="41.43919" lon="43.46779">
        <ele>1633.52083</ele>
        <time>2021-09-30T07:53:36.633Z</time>
      </trkpt>
      <trkpt lat="41.43703" lon="43.46785">
        <ele>1627.829038</ele>
        <time>2021-09-30T07:54:36.620Z</time>
      </trkpt>
      <trkpt lat="41.43485" lon="43.46856">
        <ele>1632.807157</ele>
        <time>2021-09-30T07:55:38.638Z</time>
      </trkpt>
      <trkpt lat="41.43268" lon="43.46912">
        <ele>1633.94837</ele>
        <time>2021-09-30T07:56:42.623Z</time>
      </trkpt>
      <trkpt lat="41.43061" lon="43.4699">
        <ele>1636.181048</ele>
        <time>2021-09-30T07:57:48.619Z</time>
      </trkpt>
      <trkpt lat="41.4287" lon="43.47102">
        <ele>1638.490663</ele>
        <time>2021-09-30T07:59:14.623Z</time>
      </trkpt>
      <trkpt lat="41.42704" lon="43.47251">
        <ele>1637.571679</ele>
        <time>2021-09-30T08:00:33.666Z</time>
      </trkpt>
      <trkpt lat="41.42497" lon="43.47324">
        <ele>1638.759854</ele>
        <time>2021-09-30T08:01:49.627Z</time>
      </trkpt>
      <trkpt lat="41.4235" lon="43.4751">
        <ele>1638.8046</ele>
        <time>2021-09-30T08:03:33.650Z</time>
      </trkpt>
      <trkpt lat="41.42252" lon="43.47778">
        <ele>1645.237853</ele>
        <time>2021-09-30T08:15:42.641Z</time>
      </trkpt>
      <trkpt lat="41.42076" lon="43.47905">
        <ele>1651.638922</ele>
        <time>2021-09-30T08:17:05.633Z</time>
      </trkpt>
      <trkpt lat="41.41881" lon="43.48027">
        <ele>1653.524839</ele>
        <time>2021-09-30T08:18:13.646Z</time>
      </trkpt>
      <trkpt lat="41.41695" lon="43.48239">
        <ele>1653.003395</ele>
        <time>2021-09-30T08:19:10.646Z</time>
      </trkpt>
      <trkpt lat="41.41592" lon="43.48469">
        <ele>1656.613725</ele>
        <time>2021-09-30T08:20:04.631Z</time>
      </trkpt>
      <trkpt lat="41.41555" lon="43.48732">
        <ele>1666.36935</ele>
        <time>2021-09-30T08:21:32.644Z</time>
      </trkpt>
      <trkpt lat="41.41493" lon="43.4898">
        <ele>1671.703455</ele>
        <time>2021-09-30T08:22:57.633Z</time>
      </trkpt>
      <trkpt lat="41.41457" lon="43.48857">
        <ele>1671.52965</ele>
        <time>2021-09-30T08:27:02.654Z</time>
      </trkpt>
      <trkpt lat="41.41481" lon="43.48605">
        <ele>1681.31181</ele>
        <time>2021-09-30T08:28:47.644Z</time>
      </trkpt>
      <trkpt lat="41.41477" lon="43.48334">
        <ele>1688.078279</ele>
        <time>2021-09-30T08:30:35.637Z</time>
      </trkpt>
      <trkpt lat="41.41398" lon="43.48491">
        <ele>1699.85642</ele>
        <time>2021-09-30T08:32:18.626Z</time>
      </trkpt>
      <trkpt lat="41.41353" lon="43.48701">
        <ele>1710.203217</ele>
        <time>2021-09-30T08:34:08.660Z</time>
      </trkpt>
      <trkpt lat="41.41335" lon="43.48454">
        <ele>1724.931366</ele>
        <time>2021-09-30T08:35:50.640Z</time>
      </trkpt>
      <trkpt lat="41.41207" lon="43.48272">
        <ele>1733.406692</ele>
        <time>2021-09-30T08:37:52.634Z</time>
      </trkpt>
      <trkpt lat="41.41034" lon="43.48421">
        <ele>1736.745119</ele>
        <time>2021-09-30T08:39:03.640Z</time>
      </trkpt>
      <trkpt lat="41.40863" lon="43.48559">
        <ele>1746.130372</ele>
        <time>2021-09-30T08:40:06.633Z</time>
      </trkpt>
      <trkpt lat="41.40663" lon="43.48659">
        <ele>1740.270274</ele>
        <time>2021-09-30T08:41:21.644Z</time>
      </trkpt>
      <trkpt lat="41.40469" lon="43.48792">
        <ele>1739.809118</ele>
        <time>2021-09-30T08:42:24.648Z</time>
      </trkpt>
      <trkpt lat="41.40253" lon="43.48865">
        <ele>1736.430415</ele>
        <time>2021-09-30T08:43:24.644Z</time>
      </trkpt>
      <trkpt lat="41.40017" lon="43.48841">
        <ele>1742.383708</ele>
        <time>2021-09-30T08:44:46.645Z</time>
      </trkpt>
      <trkpt lat="41.39796" lon="43.48877">
        <ele>1743.908718</ele>
        <time>2021-09-30T08:45:37.637Z</time>
      </trkpt>
      <trkpt lat="41.39588" lon="43.48915">
        <ele>1742.511876</ele>
        <time>2021-09-30T08:46:34.635Z</time>
      </trkpt>
      <trkpt lat="41.39362" lon="43.48959">
        <ele>1742.288454</ele>
        <time>2021-09-30T08:47:42.637Z</time>
      </trkpt>
      <trkpt lat="41.39133" lon="43.49005">
        <ele>1744.14093</ele>
        <time>2021-09-30T08:48:42.634Z</time>
      </trkpt>
      <trkpt lat="41.38901" lon="43.49051">
        <ele>1746.547454</ele>
        <time>2021-09-30T08:49:42.703Z</time>
      </trkpt>
      <trkpt lat="41.38671" lon="43.49095">
        <ele>1742.372291</ele>
        <time>2021-09-30T08:50:38.622Z</time>
      </trkpt>
      <trkpt lat="41.38462" lon="43.49135">
        <ele>1741.826123</ele>
        <time>2021-09-30T08:51:23.629Z</time>
      </trkpt>
      <trkpt lat="41.38227" lon="43.49177">
        <ele>1743.15724</ele>
        <time>2021-09-30T08:52:19.651Z</time>
      </trkpt>
      <trkpt lat="41.37983" lon="43.49225">
        <ele>1744.449527</ele>
        <time>2021-09-30T08:53:19.686Z</time>
      </trkpt>
      <trkpt lat="41.37743" lon="43.49272">
        <ele>1746.267849</ele>
        <time>2021-09-30T08:54:17.654Z</time>
      </trkpt>
      <trkpt lat="41.37499" lon="43.4935">
        <ele>1741.831897</ele>
        <time>2021-09-30T08:54:57.639Z</time>
      </trkpt>
      <trkpt lat="41.37259" lon="43.49502">
        <ele>1736.478158</ele>
        <time>2021-09-30T08:55:34.636Z</time>
      </trkpt>
      <trkpt lat="41.37019" lon="43.49622">
        <ele>1735.107312</ele>
        <time>2021-09-30T08:56:11.641Z</time>
      </trkpt>
      <trkpt lat="41.36817" lon="43.49627">
        <ele>1740.954344</ele>
        <time>2021-09-30T08:57:17.639Z</time>
      </trkpt>
      <trkpt lat="41.3662" lon="43.49662">
        <ele>1748.698219</ele>
        <time>2021-09-30T08:58:50.644Z</time>
      </trkpt>
      <trkpt lat="41.36423" lon="43.49701">
        <ele>1755.049137</ele>
        <time>2021-09-30T09:00:31.642Z</time>
      </trkpt>
      <trkpt lat="41.36211" lon="43.49619">
        <ele>1757.820982</ele>
        <time>2021-09-30T09:01:54.685Z</time>
      </trkpt>
      <trkpt lat="41.36008" lon="43.49548">
        <ele>1762.659298</ele>
        <time>2021-09-30T09:03:10.649Z</time>
      </trkpt>
      <trkpt lat="41.35795" lon="43.49522">
        <ele>1766.612549</ele>
        <time>2021-09-30T09:04:28.628Z</time>
      </trkpt>
      <trkpt lat="41.35586" lon="43.49496">
        <ele>1768.997583</ele>
        <time>2021-09-30T09:05:43.643Z</time>
      </trkpt>
      <trkpt lat="41.35386" lon="43.49473">
        <ele>1772.189821</ele>
        <time>2021-09-30T09:06:43.645Z</time>
      </trkpt>
      <trkpt lat="41.35176" lon="43.49446">
        <ele>1776.073728</ele>
        <time>2021-09-30T09:07:57.662Z</time>
      </trkpt>
      <trkpt lat="41.34951" lon="43.49417">
        <ele>1780.80297</ele>
        <time>2021-09-30T09:09:17.630Z</time>
      </trkpt>
      <trkpt lat="41.34736" lon="43.49392">
        <ele>1783.172948</ele>
        <time>2021-09-30T09:10:32.648Z</time>
      </trkpt>
      <trkpt lat="41.34534" lon="43.49368">
        <ele>1784.660416</ele>
        <time>2021-09-30T09:11:34.648Z</time>
      </trkpt>
      <trkpt lat="41.34336" lon="43.49344">
        <ele>1790.45376</ele>
        <time>2021-09-30T09:12:58.636Z</time>
      </trkpt>
      <trkpt lat="41.34124" lon="43.49318">
        <ele>1795.341262</ele>
        <time>2021-09-30T09:16:07.651Z</time>
      </trkpt>
      <trkpt lat="41.33924" lon="43.49328">
        <ele>1803.307757</ele>
        <time>2021-09-30T09:17:42.650Z</time>
      </trkpt>
      <trkpt lat="41.3374" lon="43.4945">
        <ele>1810.64796</ele>
        <time>2021-09-30T09:19:22.640Z</time>
      </trkpt>
      <trkpt lat="41.33553" lon="43.49588">
        <ele>1813.294053</ele>
        <time>2021-09-30T09:20:37.645Z</time>
      </trkpt>
      <trkpt lat="41.3343" lon="43.49803">
        <ele>1819.418222</ele>
        <time>2021-09-30T09:21:54.633Z</time>
      </trkpt>
      <trkpt lat="41.33303" lon="43.50031">
        <ele>1824.593616</ele>
        <time>2021-09-30T09:23:30.633Z</time>
      </trkpt>
      <trkpt lat="41.33177" lon="43.50262">
        <ele>1822.113636</ele>
        <time>2021-09-30T09:24:26.656Z</time>
      </trkpt>
      <trkpt lat="41.33053" lon="43.50484">
        <ele>1820.924876</ele>
        <time>2021-09-30T09:25:10.650Z</time>
      </trkpt>
      <trkpt lat="41.32932" lon="43.50703">
        <ele>1820.502576</ele>
        <time>2021-09-30T09:25:50.649Z</time>
      </trkpt>
      <trkpt lat="41.32787" lon="43.5091">
        <ele>1820.088756</ele>
        <time>2021-09-30T09:26:32.643Z</time>
      </trkpt>
      <trkpt lat="41.32608" lon="43.51084">
        <ele>1824.360216</ele>
        <time>2021-09-30T09:27:31.724Z</time>
      </trkpt>
      <trkpt lat="41.32455" lon="43.51283">
        <ele>1829.334324</ele>
        <time>2021-09-30T09:28:46.641Z</time>
      </trkpt>
      <trkpt lat="41.32305" lon="43.51497">
        <ele>1831.92373</ele>
        <time>2021-09-30T09:30:03.653Z</time>
      </trkpt>
      <trkpt lat="41.3216" lon="43.51709">
        <ele>1835.675875</ele>
        <time>2021-09-30T09:33:17.655Z</time>
      </trkpt>
      <trkpt lat="41.32016" lon="43.51916">
        <ele>1838.585401</ele>
        <time>2021-09-30T09:34:36.659Z</time>
      </trkpt>
      <trkpt lat="41.31882" lon="43.5211">
        <ele>1839.866577</ele>
        <time>2021-09-30T09:35:36.667Z</time>
      </trkpt>
      <trkpt lat="41.31734" lon="43.52328">
        <ele>1841.520395</ele>
        <time>2021-09-30T09:36:39.651Z</time>
      </trkpt>
      <trkpt lat="41.31593" lon="43.52534">
        <ele>1843.190887</ele>
        <time>2021-09-30T09:37:41.659Z</time>
      </trkpt>
      <trkpt lat="41.31448" lon="43.52746">
        <ele>1847.792391</ele>
        <time>2021-09-30T09:38:58.662Z</time>
      </trkpt>
      <trkpt lat="41.31311" lon="43.52947">
        <ele>1851.805982</ele>
        <time>2021-09-30T09:40:06.655Z</time>
      </trkpt>
      <trkpt lat="41.31168" lon="43.53157">
        <ele>1857.174149</ele>
        <time>2021-09-30T09:41:34.641Z</time>
      </trkpt>
      <trkpt lat="41.3103" lon="43.53356">
        <ele>1859.489158</ele>
        <time>2021-09-30T09:42:50.674Z</time>
      </trkpt>
      <trkpt lat="41.30875" lon="43.53586">
        <ele>1857.200522</ele>
        <time>2021-09-30T09:43:41.645Z</time>
      </trkpt>
      <trkpt lat="41.30738" lon="43.53844">
        <ele>1859.826826</ele>
        <time>2021-09-30T09:44:41.650Z</time>
      </trkpt>
      <trkpt lat="41.30617" lon="43.54071">
        <ele>1862.840087</ele>
        <time>2021-09-30T09:45:41.664Z</time>
      </trkpt>
      <trkpt lat="41.30492" lon="43.54309">
        <ele>1865.200507</ele>
        <time>2021-09-30T09:46:33.653Z</time>
      </trkpt>
      <trkpt lat="41.30366" lon="43.54537">
        <ele>1869.282378</ele>
        <time>2021-09-30T09:47:44.678Z</time>
      </trkpt>
      <trkpt lat="41.30241" lon="43.54748">
        <ele>1872.34493</ele>
        <time>2021-09-30T09:48:50.651Z</time>
      </trkpt>
      <trkpt lat="41.30102" lon="43.54984">
        <ele>1874.777403</ele>
        <time>2021-09-30T09:49:50.648Z</time>
      </trkpt>
      <trkpt lat="41.29963" lon="43.5522">
        <ele>1877.729229</ele>
        <time>2021-09-30T09:50:53.655Z</time>
      </trkpt>
      <trkpt lat="41.29829" lon="43.55441">
        <ele>1880.301338</ele>
        <time>2021-09-30T09:51:53.650Z</time>
      </trkpt>
      <trkpt lat="41.29636" lon="43.55555">
        <ele>1882.614308</ele>
        <time>2021-09-30T09:52:54.650Z</time>
      </trkpt>
      <trkpt lat="41.29478" lon="43.55689">
        <ele>1895.856396</ele>
        <time>2021-09-30T09:54:53.680Z</time>
      </trkpt>
      <trkpt lat="41.29377" lon="43.5592">
        <ele>1903.713232</ele>
        <time>2021-09-30T09:56:45.677Z</time>
      </trkpt>
      <trkpt lat="41.29266" lon="43.56163">
        <ele>1903.235774</ele>
        <time>2021-09-30T09:57:49.653Z</time>
      </trkpt>
      <trkpt lat="41.29147" lon="43.56408">
        <ele>1903.647673</ele>
        <time>2021-09-30T09:58:29.644Z</time>
      </trkpt>
      <trkpt lat="41.28978" lon="43.56601">
        <ele>1903.728786</ele>
        <time>2021-09-30T09:59:23.662Z</time>
      </trkpt>
      <trkpt lat="41.28811" lon="43.56795">
        <ele>1902.403111</ele>
        <time>2021-09-30T10:00:10.649Z</time>
      </trkpt>
      <trkpt lat="41.28652" lon="43.56984">
        <ele>1911.266785</ele>
        <time>2021-09-30T10:01:08.651Z</time>
      </trkpt>
      <trkpt lat="41.28491" lon="43.57169">
        <ele>1916.062745</ele>
        <time>2021-09-30T10:02:16.657Z</time>
      </trkpt>
      <trkpt lat="41.2834" lon="43.57348">
        <ele>1921.663103</ele>
        <time>2021-09-30T10:03:24.652Z</time>
      </trkpt>
      <trkpt lat="41.28188" lon="43.57526">
        <ele>1925.329426</ele>
        <time>2021-09-30T10:05:05.665Z</time>
      </trkpt>
      <trkpt lat="41.28038" lon="43.5771">
        <ele>1932.293563</ele>
        <time>2021-09-30T10:07:10.655Z</time>
      </trkpt>
      <trkpt lat="41.27882" lon="43.57878">
        <ele>1940.323656</ele>
        <time>2021-09-30T10:08:55.668Z</time>
      </trkpt>
      <trkpt lat="41.27729" lon="43.58062">
        <ele>1946.421687</ele>
        <time>2021-09-30T10:10:22.639Z</time>
      </trkpt>
      <trkpt lat="41.2758" lon="43.58244">
        <ele>1951.497618</ele>
        <time>2021-09-30T10:11:46.662Z</time>
      </trkpt>
      <trkpt lat="41.27395" lon="43.58377">
        <ele>1950.263804</ele>
        <time>2021-09-30T10:12:51.642Z</time>
      </trkpt>
      <trkpt lat="41.27209" lon="43.58491">
        <ele>1951.976825</ele>
        <time>2021-09-30T10:13:57.652Z</time>
      </trkpt>
      <trkpt lat="41.27018" lon="43.58607">
        <ele>1953.559712</ele>
        <time>2021-09-30T10:14:57.659Z</time>
      </trkpt>
      <trkpt lat="41.26798" lon="43.58755">
        <ele>1953.917213</ele>
        <time>2021-09-30T10:15:56.632Z</time>
      </trkpt>
      <trkpt lat="41.26686" lon="43.58987">
        <ele>1962.811488</ele>
        <time>2021-09-30T10:17:00.652Z</time>
      </trkpt>
      <trkpt lat="41.26559" lon="43.59164">
        <ele>1964.891539</ele>
        <time>2021-09-30T10:18:11.670Z</time>
      </trkpt>
      <trkpt lat="41.26499" lon="43.59114">
        <ele>1964.891539</ele>
        <time>2021-09-30T10:31:29.190Z</time>
      </trkpt>
    </trkseg>
  </trk>
  <trk>
    <name><![CDATA[Tour d'Europe: étape 460]]></name>
    <extensions>
      <line xmlns="http://www.topografix.com/GPX/gpx_style/0/2">
        <color>00FF00</color>
        <width>4</width>
      </line>
    </extensions>
    <trkseg>
      <trkpt lat="41.26486" lon="43.59118">
        <ele>1961.087125</ele>
        <time>2021-10-01T05:26:04.045Z</time>
      </trkpt>
      <trkpt lat="41.26592" lon="43.59185">
        <ele>1962.676881</ele>
        <time>2021-10-01T05:32:29.377Z</time>
      </trkpt>
      <trkpt lat="41.26575" lon="43.59459">
        <ele>1968.747181</ele>
        <time>2021-10-01T05:33:53.387Z</time>
      </trkpt>
      <trkpt lat="41.26707" lon="43.59703">
        <ele>1968.490032</ele>
        <time>2021-10-01T05:35:12.397Z</time>
      </trkpt>
      <trkpt lat="41.26855" lon="43.59963">
        <ele>1967.759633</ele>
        <time>2021-10-01T05:36:27.405Z</time>
      </trkpt>
      <trkpt lat="41.27021" lon="43.60254">
        <ele>1965.11393</ele>
        <time>2021-10-01T05:38:20.425Z</time>
      </trkpt>
      <trkpt lat="41.27162" lon="43.60508">
        <ele>1961.432186</ele>
        <time>2021-10-01T05:39:08.378Z</time>
      </trkpt>
      <trkpt lat="41.27291" lon="43.60747">
        <ele>1958.818738</ele>
        <time>2021-10-01T05:39:52.373Z</time>
      </trkpt>
      <trkpt lat="41.27413" lon="43.60984">
        <ele>1957.922727</ele>
        <time>2021-10-01T05:40:36.432Z</time>
      </trkpt>
      <trkpt lat="41.27572" lon="43.61287">
        <ele>1950.028645</ele>
        <time>2021-10-01T05:41:17.385Z</time>
      </trkpt>
      <trkpt lat="41.27744" lon="43.6162">
        <ele>1939.186029</ele>
        <time>2021-10-01T05:41:53.387Z</time>
      </trkpt>
      <trkpt lat="41.27882" lon="43.61887">
        <ele>1936.870971</ele>
        <time>2021-10-01T05:42:43.373Z</time>
      </trkpt>
      <trkpt lat="41.28019" lon="43.6214">
        <ele>1939.053503</ele>
        <time>2021-10-01T05:43:35.442Z</time>
      </trkpt>
      <trkpt lat="41.28143" lon="43.62387">
        <ele>1936.646647</ele>
        <time>2021-10-01T05:44:20.397Z</time>
      </trkpt>
      <trkpt lat="41.2831" lon="43.62713">
        <ele>1928.428397</ele>
        <time>2021-10-01T05:45:04.382Z</time>
      </trkpt>
      <trkpt lat="41.28467" lon="43.63017">
        <ele>1922.267944</ele>
        <time>2021-10-01T05:45:48.381Z</time>
      </trkpt>
      <trkpt lat="41.28604" lon="43.63288">
        <ele>1917.891323</ele>
        <time>2021-10-01T05:46:30.391Z</time>
      </trkpt>
      <trkpt lat="41.28761" lon="43.63595">
        <ele>1912.7661</ele>
        <time>2021-10-01T05:47:14.384Z</time>
      </trkpt>
      <trkpt lat="41.28904" lon="43.63877">
        <ele>1914.053957</ele>
        <time>2021-10-01T05:48:14.410Z</time>
      </trkpt>
      <trkpt lat="41.29039" lon="43.64133">
        <ele>1911.84266</ele>
        <time>2021-10-01T05:49:12.393Z</time>
      </trkpt>
      <trkpt lat="41.2921" lon="43.64373">
        <ele>1904.355715</ele>
        <time>2021-10-01T05:49:56.373Z</time>
      </trkpt>
      <trkpt lat="41.29407" lon="43.64575">
        <ele>1905.215349</ele>
        <time>2021-10-01T05:51:02.416Z</time>
      </trkpt>
      <trkpt lat="41.29492" lon="43.64823">
        <ele>1918.022483</ele>
        <time>2021-10-01T05:53:06.384Z</time>
      </trkpt>
      <trkpt lat="41.29506" lon="43.65095">
        <ele>1925.472789</ele>
        <time>2021-10-01T05:54:57.376Z</time>
      </trkpt>
      <trkpt lat="41.29521" lon="43.65389">
        <ele>1934.383742</ele>
        <time>2021-10-01T05:57:03.436Z</time>
      </trkpt>
      <trkpt lat="41.29537" lon="43.65673">
        <ele>1941.700841</ele>
        <time>2021-10-01T05:59:03.390Z</time>
      </trkpt>
      <trkpt lat="41.2955" lon="43.65953">
        <ele>1945.965559</ele>
        <time>2021-10-01T06:00:43.387Z</time>
      </trkpt>
      <trkpt lat="41.29573" lon="43.66267">
        <ele>1944.732747</ele>
        <time>2021-10-01T06:02:11.416Z</time>
      </trkpt>
      <trkpt lat="41.29602" lon="43.66557">
        <ele>1946.874747</ele>
        <time>2021-10-01T06:03:39.379Z</time>
      </trkpt>
      <trkpt lat="41.29631" lon="43.66833">
        <ele>1951.46404</ele>
        <time>2021-10-01T06:05:16.376Z</time>
      </trkpt>
      <trkpt lat="41.29661" lon="43.67125">
        <ele>1956.076129</ele>
        <time>2021-10-01T06:07:03.403Z</time>
      </trkpt>
      <trkpt lat="41.29651" lon="43.67402">
        <ele>1967.664849</ele>
        <time>2021-10-01T06:09:14.396Z</time>
      </trkpt>
      <trkpt lat="41.2952" lon="43.67604">
        <ele>1983.044612</ele>
        <time>2021-10-01T06:11:29.397Z</time>
      </trkpt>
      <trkpt lat="41.29495" lon="43.67869">
        <ele>1996.681537</ele>
        <time>2021-10-01T06:13:56.386Z</time>
      </trkpt>
      <trkpt lat="41.29534" lon="43.6814">
        <ele>2004.655521</ele>
        <time>2021-10-01T06:16:13.405Z</time>
      </trkpt>
      <trkpt lat="41.29477" lon="43.68418">
        <ele>2017.275965</ele>
        <time>2021-10-01T06:18:39.382Z</time>
      </trkpt>
      <trkpt lat="41.29423" lon="43.68684">
        <ele>2022.844393</ele>
        <time>2021-10-01T06:20:32.421Z</time>
      </trkpt>
      <trkpt lat="41.29367" lon="43.68968">
        <ele>2026.576193</ele>
        <time>2021-10-01T06:22:15.405Z</time>
      </trkpt>
      <trkpt lat="41.29306" lon="43.69251">
        <ele>2035.258334</ele>
        <time>2021-10-01T06:24:28.400Z</time>
      </trkpt>
      <trkpt lat="41.29236" lon="43.69522">
        <ele>2038.057546</ele>
        <time>2021-10-01T06:26:00.398Z</time>
      </trkpt>
      <trkpt lat="41.29156" lon="43.69817">
        <ele>2042.533058</ele>
        <time>2021-10-01T06:27:28.424Z</time>
      </trkpt>
      <trkpt lat="41.29165" lon="43.70102">
        <ele>2052.683099</ele>
        <time>2021-10-01T06:29:23.392Z</time>
      </trkpt>
      <trkpt lat="41.29185" lon="43.70372">
        <ele>2062.912378</ele>
        <time>2021-10-01T06:31:46.378Z</time>
      </trkpt>
      <trkpt lat="41.292" lon="43.70667">
        <ele>2066.560632</ele>
        <time>2021-10-01T06:33:28.403Z</time>
      </trkpt>
      <trkpt lat="41.29205" lon="43.70963">
        <ele>2072.850402</ele>
        <time>2021-10-01T06:35:25.412Z</time>
      </trkpt>
      <trkpt lat="41.29179" lon="43.71246">
        <ele>2076.667914</ele>
        <time>2021-10-01T06:37:23.409Z</time>
      </trkpt>
      <trkpt lat="41.29153" lon="43.7152">
        <ele>2082.558534</ele>
        <time>2021-10-01T06:39:12.397Z</time>
      </trkpt>
      <trkpt lat="41.29151" lon="43.7181">
        <ele>2089.725154</ele>
        <time>2021-10-01T06:41:09.394Z</time>
      </trkpt>
      <trkpt lat="41.29176" lon="43.7212">
        <ele>2083.63486</ele>
        <time>2021-10-01T06:52:44.395Z</time>
      </trkpt>
      <trkpt lat="41.29196" lon="43.72396">
        <ele>2079.571011</ele>
        <time>2021-10-01T06:53:53.400Z</time>
      </trkpt>
      <trkpt lat="41.2914" lon="43.72724">
        <ele>2066.615358</ele>
        <time>2021-10-01T06:54:40.409Z</time>
      </trkpt>
      <trkpt lat="41.2923" lon="43.73055">
        <ele>2056.94701</ele>
        <time>2021-10-01T06:55:37.415Z</time>
      </trkpt>
      <trkpt lat="41.29245" lon="43.73354">
        <ele>2054.303099</ele>
        <time>2021-10-01T06:56:49.402Z</time>
      </trkpt>
      <trkpt lat="41.29368" lon="43.73596">
        <ele>2061.514526</ele>
        <time>2021-10-01T06:58:22.413Z</time>
      </trkpt>
      <trkpt lat="41.29483" lon="43.73862">
        <ele>2060.88801</ele>
        <time>2021-10-01T06:59:38.448Z</time>
      </trkpt>
      <trkpt lat="41.29437" lon="43.74212">
        <ele>2049.777242</ele>
        <time>2021-10-01T07:00:08.412Z</time>
      </trkpt>
      <trkpt lat="41.29383" lon="43.74547">
        <ele>2035.746148</ele>
        <time>2021-10-01T07:00:37.409Z</time>
      </trkpt>
      <trkpt lat="41.29454" lon="43.74844">
        <ele>2025.584982</ele>
        <time>2021-10-01T07:01:10.401Z</time>
      </trkpt>
      <trkpt lat="41.29586" lon="43.75104">
        <ele>2028.518553</ele>
        <time>2021-10-01T07:02:14.411Z</time>
      </trkpt>
      <trkpt lat="41.29704" lon="43.75342">
        <ele>2028.622924</ele>
        <time>2021-10-01T07:03:17.406Z</time>
      </trkpt>
      <trkpt lat="41.29901" lon="43.75523">
        <ele>2024.813219</ele>
        <time>2021-10-01T07:04:23.417Z</time>
      </trkpt>
      <trkpt lat="41.301" lon="43.75675">
        <ele>2025.407592</ele>
        <time>2021-10-01T07:05:41.409Z</time>
      </trkpt>
      <trkpt lat="41.30279" lon="43.75812">
        <ele>2025.762203</ele>
        <time>2021-10-01T07:06:45.399Z</time>
      </trkpt>
      <trkpt lat="41.30495" lon="43.75976">
        <ele>2026.991655</ele>
        <time>2021-10-01T07:07:59.393Z</time>
      </trkpt>
      <trkpt lat="41.30698" lon="43.7607">
        <ele>2027.255526</ele>
        <time>2021-10-01T07:09:06.423Z</time>
      </trkpt>
      <trkpt lat="41.30929" lon="43.76073">
        <ele>2033.399803</ele>
        <time>2021-10-01T07:10:34.409Z</time>
      </trkpt>
      <trkpt lat="41.31141" lon="43.76003">
        <ele>2036.073111</ele>
        <time>2021-10-01T07:11:57.411Z</time>
      </trkpt>
      <trkpt lat="41.31364" lon="43.75994">
        <ele>2039.495198</ele>
        <time>2021-10-01T07:13:36.407Z</time>
      </trkpt>
      <trkpt lat="41.31562" lon="43.75893">
        <ele>2045.058974</ele>
        <time>2021-10-01T07:15:33.400Z</time>
      </trkpt>
      <trkpt lat="41.31786" lon="43.75865">
        <ele>2042.647766</ele>
        <time>2021-10-01T07:16:41.411Z</time>
      </trkpt>
      <trkpt lat="41.32025" lon="43.75931">
        <ele>2040.325832</ele>
        <time>2021-10-01T07:17:47.414Z</time>
      </trkpt>
      <trkpt lat="41.32236" lon="43.76083">
        <ele>2038.924621</ele>
        <time>2021-10-01T07:18:41.423Z</time>
      </trkpt>
      <trkpt lat="41.32456" lon="43.76107">
        <ele>2035.921283</ele>
        <time>2021-10-01T07:19:51.420Z</time>
      </trkpt>
      <trkpt lat="41.32679" lon="43.76152">
        <ele>2045.233621</ele>
        <time>2021-10-01T07:21:37.420Z</time>
      </trkpt>
      <trkpt lat="41.32897" lon="43.76214">
        <ele>2044.870475</ele>
        <time>2021-10-01T07:22:54.408Z</time>
      </trkpt>
      <trkpt lat="41.33128" lon="43.7628">
        <ele>2042.603073</ele>
        <time>2021-10-01T07:23:57.400Z</time>
      </trkpt>
      <trkpt lat="41.33345" lon="43.76345">
        <ele>2042.629924</ele>
        <time>2021-10-01T07:25:26.416Z</time>
      </trkpt>
      <trkpt lat="41.33562" lon="43.76402">
        <ele>2053.805185</ele>
        <time>2021-10-01T07:27:24.410Z</time>
      </trkpt>
      <trkpt lat="41.33775" lon="43.76466">
        <ele>2061.988727</ele>
        <time>2021-10-01T07:29:28.404Z</time>
      </trkpt>
      <trkpt lat="41.33958" lon="43.76363">
        <ele>2056.630514</ele>
        <time>2021-10-01T07:30:35.405Z</time>
      </trkpt>
      <trkpt lat="41.34093" lon="43.76123">
        <ele>2050.834834</ele>
        <time>2021-10-01T07:31:41.466Z</time>
      </trkpt>
      <trkpt lat="41.34221" lon="43.75886">
        <ele>2054.395786</ele>
        <time>2021-10-01T07:33:14.412Z</time>
      </trkpt>
      <trkpt lat="41.34357" lon="43.75638">
        <ele>2056.117498</ele>
        <time>2021-10-01T07:47:30.429Z</time>
      </trkpt>
      <trkpt lat="41.3453" lon="43.75458">
        <ele>2063.940562</ele>
        <time>2021-10-01T07:49:21.451Z</time>
      </trkpt>
      <trkpt lat="41.34721" lon="43.75326">
        <ele>2080.217413</ele>
        <time>2021-10-01T07:51:48.446Z</time>
      </trkpt>
      <trkpt lat="41.34904" lon="43.75208">
        <ele>2087.281685</ele>
        <time>2021-10-01T07:53:50.465Z</time>
      </trkpt>
      <trkpt lat="41.35107" lon="43.75331">
        <ele>2083.622366</ele>
        <time>2021-10-01T07:55:24.424Z</time>
      </trkpt>
      <trkpt lat="41.35286" lon="43.75495">
        <ele>2089.154012</ele>
        <time>2021-10-01T07:57:25.422Z</time>
      </trkpt>
      <trkpt lat="41.3547" lon="43.75665">
        <ele>2094.686485</ele>
        <time>2021-10-01T07:59:35.415Z</time>
      </trkpt>
      <trkpt lat="41.35652" lon="43.75828">
        <ele>2098.242574</ele>
        <time>2021-10-01T08:02:18.413Z</time>
      </trkpt>
      <trkpt lat="41.35833" lon="43.75997">
        <ele>2098.369152</ele>
        <time>2021-10-01T08:03:36.416Z</time>
      </trkpt>
      <trkpt lat="41.36024" lon="43.7617">
        <ele>2093.814194</ele>
        <time>2021-10-01T08:04:38.430Z</time>
      </trkpt>
      <trkpt lat="41.36204" lon="43.76336">
        <ele>2092.083843</ele>
        <time>2021-10-01T08:05:35.420Z</time>
      </trkpt>
      <trkpt lat="41.36397" lon="43.76513">
        <ele>2094.660032</ele>
        <time>2021-10-01T08:06:48.429Z</time>
      </trkpt>
      <trkpt lat="41.36584" lon="43.76679">
        <ele>2100.558849</ele>
        <time>2021-10-01T08:08:00.411Z</time>
      </trkpt>
      <trkpt lat="41.36766" lon="43.76846">
        <ele>2099.140942</ele>
        <time>2021-10-01T08:09:04.430Z</time>
      </trkpt>
      <trkpt lat="41.37003" lon="43.76963">
        <ele>2096.868582</ele>
        <time>2021-10-01T08:10:10.427Z</time>
      </trkpt>
      <trkpt lat="41.37239" lon="43.77028">
        <ele>2100.778473</ele>
        <time>2021-10-01T08:11:22.443Z</time>
      </trkpt>
      <trkpt lat="41.37455" lon="43.77106">
        <ele>2107.192751</ele>
        <time>2021-10-01T08:13:02.426Z</time>
      </trkpt>
      <trkpt lat="41.37589" lon="43.77315">
        <ele>2108.795353</ele>
        <time>2021-10-01T08:14:29.430Z</time>
      </trkpt>
      <trkpt lat="41.37723" lon="43.77561">
        <ele>2108.196493</ele>
        <time>2021-10-01T08:15:35.426Z</time>
      </trkpt>
      <trkpt lat="41.37877" lon="43.77836">
        <ele>2101.494739</ele>
        <time>2021-10-01T08:16:24.420Z</time>
      </trkpt>
      <trkpt lat="41.3802" lon="43.78046">
        <ele>2104.501295</ele>
        <time>2021-10-01T08:17:42.468Z</time>
      </trkpt>
      <trkpt lat="41.38183" lon="43.78267">
        <ele>2105.769951</ele>
        <time>2021-10-01T08:19:02.436Z</time>
      </trkpt>
      <trkpt lat="41.38318" lon="43.78552">
        <ele>2098.704928</ele>
        <time>2021-10-01T08:19:52.448Z</time>
      </trkpt>
      <trkpt lat="41.38496" lon="43.78727">
        <ele>2095.930252</ele>
        <time>2021-10-01T08:20:55.427Z</time>
      </trkpt>
      <trkpt lat="41.38691" lon="43.78901">
        <ele>2101.344582</ele>
        <time>2021-10-01T08:22:32.442Z</time>
      </trkpt>
      <trkpt lat="41.38886" lon="43.79054">
        <ele>2111.174328</ele>
        <time>2021-10-01T08:24:37.472Z</time>
      </trkpt>
      <trkpt lat="41.391" lon="43.79158">
        <ele>2111.332569</ele>
        <time>2021-10-01T08:25:51.431Z</time>
      </trkpt>
      <trkpt lat="41.39301" lon="43.79306">
        <ele>2106.641092</ele>
        <time>2021-10-01T08:26:49.436Z</time>
      </trkpt>
      <trkpt lat="41.39483" lon="43.79479">
        <ele>2109.069483</ele>
        <time>2021-10-01T08:28:12.441Z</time>
      </trkpt>
      <trkpt lat="41.39665" lon="43.79647">
        <ele>2119.302708</ele>
        <time>2021-10-01T08:30:09.445Z</time>
      </trkpt>
      <trkpt lat="41.39818" lon="43.7983">
        <ele>2125.665396</ele>
        <time>2021-10-01T08:31:58.440Z</time>
      </trkpt>
      <trkpt lat="41.39992" lon="43.80075">
        <ele>2124.2577</ele>
        <time>2021-10-01T08:33:21.449Z</time>
      </trkpt>
      <trkpt lat="41.40159" lon="43.80313">
        <ele>2121.893797</ele>
        <time>2021-10-01T08:34:27.483Z</time>
      </trkpt>
      <trkpt lat="41.40314" lon="43.80527">
        <ele>2122.929308</ele>
        <time>2021-10-01T08:35:35.439Z</time>
      </trkpt>
      <trkpt lat="41.40466" lon="43.80744">
        <ele>2126.667059</ele>
        <time>2021-10-01T08:37:10.461Z</time>
      </trkpt>
      <trkpt lat="41.40509" lon="43.81042">
        <ele>2124.315776</ele>
        <time>2021-10-01T08:38:16.477Z</time>
      </trkpt>
      <trkpt lat="41.40541" lon="43.81327">
        <ele>2118.376714</ele>
        <time>2021-10-01T08:39:11.437Z</time>
      </trkpt>
      <trkpt lat="41.4064" lon="43.81635">
        <ele>2111.072278</ele>
        <time>2021-10-01T08:40:07.470Z</time>
      </trkpt>
      <trkpt lat="41.40746" lon="43.81966">
        <ele>2114.84016</ele>
        <time>2021-10-01T08:41:13.450Z</time>
      </trkpt>
      <trkpt lat="41.40848" lon="43.82235">
        <ele>2115.8613</ele>
        <time>2021-10-01T08:42:23.439Z</time>
      </trkpt>
      <trkpt lat="41.40961" lon="43.82479">
        <ele>2116.641833</ele>
        <time>2021-10-01T08:43:26.458Z</time>
      </trkpt>
      <trkpt lat="41.41081" lon="43.8274">
        <ele>2120.289328</ele>
        <time>2021-10-01T08:44:33.460Z</time>
      </trkpt>
      <trkpt lat="41.41206" lon="43.83007">
        <ele>2118.466015</ele>
        <time>2021-10-01T08:45:21.456Z</time>
      </trkpt>
      <trkpt lat="41.4141" lon="43.83133">
        <ele>2117.778231</ele>
        <time>2021-10-01T08:46:22.445Z</time>
      </trkpt>
      <trkpt lat="41.41618" lon="43.83264">
        <ele>2120.69247</ele>
        <time>2021-10-01T08:47:34.484Z</time>
      </trkpt>
      <trkpt lat="41.41833" lon="43.83339">
        <ele>2117.618473</ele>
        <time>2021-10-01T08:48:34.444Z</time>
      </trkpt>
      <trkpt lat="41.42078" lon="43.83355">
        <ele>2114.39165</ele>
        <time>2021-10-01T08:49:37.457Z</time>
      </trkpt>
      <trkpt lat="41.42327" lon="43.83406">
        <ele>2108.811319</ele>
        <time>2021-10-01T08:50:30.463Z</time>
      </trkpt>
      <trkpt lat="41.42596" lon="43.83544">
        <ele>2101.162886</ele>
        <time>2021-10-01T08:51:16.456Z</time>
      </trkpt>
      <trkpt lat="41.42815" lon="43.83657">
        <ele>2102.518806</ele>
        <time>2021-10-01T08:52:23.449Z</time>
      </trkpt>
      <trkpt lat="41.4303" lon="43.83764">
        <ele>2101.878857</ele>
        <time>2021-10-01T08:53:15.447Z</time>
      </trkpt>
      <trkpt lat="41.43255" lon="43.83875">
        <ele>2098.702955</ele>
        <time>2021-10-01T08:54:10.457Z</time>
      </trkpt>
      <trkpt lat="41.43379" lon="43.84127">
        <ele>2105.039079</ele>
        <time>2021-10-01T08:55:28.452Z</time>
      </trkpt>
      <trkpt lat="41.43486" lon="43.84362">
        <ele>2117.86361</ele>
        <time>2021-10-01T08:57:28.445Z</time>
      </trkpt>
      <trkpt lat="41.43674" lon="43.84497">
        <ele>2136.429979</ele>
        <time>2021-10-01T09:00:07.431Z</time>
      </trkpt>
      <trkpt lat="41.43859" lon="43.84655">
        <ele>2142.054547</ele>
        <time>2021-10-01T09:02:10.457Z</time>
      </trkpt>
      <trkpt lat="41.44054" lon="43.84819">
        <ele>2140.758785</ele>
        <time>2021-10-01T09:03:17.451Z</time>
      </trkpt>
      <trkpt lat="41.443" lon="43.84909">
        <ele>2135.571734</ele>
        <time>2021-10-01T09:04:19.483Z</time>
      </trkpt>
      <trkpt lat="41.44482" lon="43.84665">
        <ele>2133.499288</ele>
        <time>2021-10-01T09:05:08.456Z</time>
      </trkpt>
      <trkpt lat="41.44662" lon="43.84826">
        <ele>2141.093365</ele>
        <time>2021-10-01T09:06:53.458Z</time>
      </trkpt>
      <trkpt lat="41.44792" lon="43.85043">
        <ele>2146.169418</ele>
        <time>2021-10-01T09:08:38.461Z</time>
      </trkpt>
      <trkpt lat="41.44931" lon="43.85275">
        <ele>2158.908356</ele>
        <time>2021-10-01T09:10:40.460Z</time>
      </trkpt>
      <trkpt lat="41.45131" lon="43.85453">
        <ele>2156.653825</ele>
        <time>2021-10-01T09:11:43.453Z</time>
      </trkpt>
      <trkpt lat="41.45326" lon="43.85372">
        <ele>2158.183565</ele>
        <time>2021-10-01T09:13:21.457Z</time>
      </trkpt>
      <trkpt lat="41.45546" lon="43.85447">
        <ele>2162.833154</ele>
        <time>2021-10-01T09:14:58.461Z</time>
      </trkpt>
      <trkpt lat="41.45744" lon="43.85608">
        <ele>2157.084801</ele>
        <time>2021-10-01T09:15:43.451Z</time>
      </trkpt>
      <trkpt lat="41.45965" lon="43.85786">
        <ele>2142.552923</ele>
        <time>2021-10-01T09:16:16.456Z</time>
      </trkpt>
      <trkpt lat="41.46144" lon="43.85981">
        <ele>2137.856474</ele>
        <time>2021-10-01T09:17:25.447Z</time>
      </trkpt>
      <trkpt lat="41.46325" lon="43.86117">
        <ele>2134.04355</ele>
        <time>2021-10-01T09:18:33.444Z</time>
      </trkpt>
      <trkpt lat="41.46559" lon="43.8594">
        <ele>2128.708817</ele>
        <time>2021-10-01T09:19:23.460Z</time>
      </trkpt>
      <trkpt lat="41.46745" lon="43.85785">
        <ele>2121.422862</ele>
        <time>2021-10-01T09:20:08.470Z</time>
      </trkpt>
      <trkpt lat="41.46938" lon="43.85611">
        <ele>2126.081869</ele>
        <time>2021-10-01T09:21:13.465Z</time>
      </trkpt>
      <trkpt lat="41.47138" lon="43.85428">
        <ele>2128.666371</ele>
        <time>2021-10-01T09:22:22.469Z</time>
      </trkpt>
      <trkpt lat="41.47363" lon="43.85245">
        <ele>2127.549629</ele>
        <time>2021-10-01T09:23:23.460Z</time>
      </trkpt>
      <trkpt lat="41.47588" lon="43.85094">
        <ele>2128.885761</ele>
        <time>2021-10-01T09:24:30.448Z</time>
      </trkpt>
      <trkpt lat="41.47814" lon="43.85039">
        <ele>2133.504047</ele>
        <time>2021-10-01T09:25:56.461Z</time>
      </trkpt>
      <trkpt lat="41.4803" lon="43.8511">
        <ele>2133.734493</ele>
        <time>2021-10-01T09:27:20.448Z</time>
      </trkpt>
      <trkpt lat="41.48212" lon="43.85278">
        <ele>2139.593828</ele>
        <time>2021-10-01T09:28:55.453Z</time>
      </trkpt>
      <trkpt lat="41.48385" lon="43.85468">
        <ele>2142.720275</ele>
        <time>2021-10-01T09:30:36.465Z</time>
      </trkpt>
      <trkpt lat="41.48545" lon="43.85651">
        <ele>2146.733534</ele>
        <time>2021-10-01T09:32:09.475Z</time>
      </trkpt>
      <trkpt lat="41.48681" lon="43.85879">
        <ele>2148.005186</ele>
        <time>2021-10-01T09:33:46.464Z</time>
      </trkpt>
      <trkpt lat="41.48809" lon="43.8612">
        <ele>2148.605433</ele>
        <time>2021-10-01T09:40:22.479Z</time>
      </trkpt>
      <trkpt lat="41.48937" lon="43.86355">
        <ele>2148.720862</ele>
        <time>2021-10-01T09:41:48.509Z</time>
      </trkpt>
      <trkpt lat="41.49059" lon="43.86582">
        <ele>2153.525596</ele>
        <time>2021-10-01T09:43:17.481Z</time>
      </trkpt>
      <trkpt lat="41.49239" lon="43.86709">
        <ele>2164.554131</ele>
        <time>2021-10-01T09:45:21.475Z</time>
      </trkpt>
      <trkpt lat="41.49432" lon="43.86801">
        <ele>2178.212201</ele>
        <time>2021-10-01T09:47:42.483Z</time>
      </trkpt>
      <trkpt lat="41.49558" lon="43.8702">
        <ele>2186.698886</ele>
        <time>2021-10-01T09:50:01.478Z</time>
      </trkpt>
      <trkpt lat="41.49692" lon="43.87254">
        <ele>2188.90804</ele>
        <time>2021-10-01T09:52:00.458Z</time>
      </trkpt>
      <trkpt lat="41.49837" lon="43.87502">
        <ele>2179.921403</ele>
        <time>2021-10-01T09:53:02.487Z</time>
      </trkpt>
      <trkpt lat="41.50014" lon="43.87774">
        <ele>2167.090403</ele>
        <time>2021-10-01T09:53:44.482Z</time>
      </trkpt>
      <trkpt lat="41.50239" lon="43.8797">
        <ele>2151.458412</ele>
        <time>2021-10-01T09:54:13.484Z</time>
      </trkpt>
      <trkpt lat="41.50458" lon="43.88157">
        <ele>2145.766833</ele>
        <time>2021-10-01T09:55:01.464Z</time>
      </trkpt>
      <trkpt lat="41.50653" lon="43.88327">
        <ele>2149.73593</ele>
        <time>2021-10-01T09:56:21.465Z</time>
      </trkpt>
      <trkpt lat="41.50827" lon="43.88477">
        <ele>2148.078864</ele>
        <time>2021-10-01T09:57:26.485Z</time>
      </trkpt>
      <trkpt lat="41.51024" lon="43.88647">
        <ele>2143.171896</ele>
        <time>2021-10-01T09:58:21.469Z</time>
      </trkpt>
      <trkpt lat="41.51275" lon="43.88741">
        <ele>2136.904582</ele>
        <time>2021-10-01T09:59:05.459Z</time>
      </trkpt>
      <trkpt lat="41.51572" lon="43.88644">
        <ele>2124.488736</ele>
        <time>2021-10-01T09:59:43.497Z</time>
      </trkpt>
      <trkpt lat="41.51843" lon="43.88571">
        <ele>2114.443086</ele>
        <time>2021-10-01T10:00:13.473Z</time>
      </trkpt>
      <trkpt lat="41.52111" lon="43.88529">
        <ele>2107.995691</ele>
        <time>2021-10-01T10:00:44.473Z</time>
      </trkpt>
      <trkpt lat="41.52339" lon="43.886">
        <ele>2107.811818</ele>
        <time>2021-10-01T10:01:30.480Z</time>
      </trkpt>
      <trkpt lat="41.52638" lon="43.88655">
        <ele>2099.397134</ele>
        <time>2021-10-01T10:02:14.505Z</time>
      </trkpt>
      <trkpt lat="41.52921" lon="43.88734">
        <ele>2085.960062</ele>
        <time>2021-10-01T10:02:52.472Z</time>
      </trkpt>
      <trkpt lat="41.53249" lon="43.8887">
        <ele>2068.176282</ele>
        <time>2021-10-01T10:03:35.457Z</time>
      </trkpt>
      <trkpt lat="41.5354" lon="43.89035">
        <ele>2052.538388</ele>
        <time>2021-10-01T10:04:13.481Z</time>
      </trkpt>
      <trkpt lat="41.53831" lon="43.89056">
        <ele>2038.649453</ele>
        <time>2021-10-01T10:04:51.469Z</time>
      </trkpt>
      <trkpt lat="41.54083" lon="43.88833">
        <ele>2021.237496</ele>
        <time>2021-10-01T10:05:26.477Z</time>
      </trkpt>
      <trkpt lat="41.54426" lon="43.88891">
        <ele>2001.153304</ele>
        <time>2021-10-01T10:06:08.472Z</time>
      </trkpt>
      <trkpt lat="41.5471" lon="43.8898">
        <ele>1979.080908</ele>
        <time>2021-10-01T10:06:49.473Z</time>
      </trkpt>
      <trkpt lat="41.54957" lon="43.89108">
        <ele>1953.690278</ele>
        <time>2021-10-01T10:14:58.478Z</time>
      </trkpt>
      <trkpt lat="41.55026" lon="43.88886">
        <ele>1933.581518</ele>
        <time>2021-10-01T10:15:40.464Z</time>
      </trkpt>
      <trkpt lat="41.55082" lon="43.8889">
        <ele>1914.401494</ele>
        <time>2021-10-01T10:16:28.483Z</time>
      </trkpt>
      <trkpt lat="41.55369" lon="43.89053">
        <ele>1887.790305</ele>
        <time>2021-10-01T10:17:10.483Z</time>
      </trkpt>
      <trkpt lat="41.55612" lon="43.89266">
        <ele>1862.106037</ele>
        <time>2021-10-01T10:17:48.466Z</time>
      </trkpt>
      <trkpt lat="41.55799" lon="43.89631">
        <ele>1837.465724</ele>
        <time>2021-10-01T10:18:30.475Z</time>
      </trkpt>
      <trkpt lat="41.5594" lon="43.90041">
        <ele>1811.285082</ele>
        <time>2021-10-01T10:19:14.487Z</time>
      </trkpt>
      <trkpt lat="41.56173" lon="43.90277">
        <ele>1784.421863</ele>
        <time>2021-10-01T10:19:54.484Z</time>
      </trkpt>
      <trkpt lat="41.56452" lon="43.90329">
        <ele>1755.60302</ele>
        <time>2021-10-01T10:20:36.476Z</time>
      </trkpt>
      <trkpt lat="41.56695" lon="43.90161">
        <ele>1728.775766</ele>
        <time>2021-10-01T10:21:20.544Z</time>
      </trkpt>
      <trkpt lat="41.56985" lon="43.90092">
        <ele>1700.279049</ele>
        <time>2021-10-01T10:22:07.485Z</time>
      </trkpt>
      <trkpt lat="41.57309" lon="43.90049">
        <ele>1664.366052</ele>
        <time>2021-10-01T10:22:47.482Z</time>
      </trkpt>
      <trkpt lat="41.57599" lon="43.89979">
        <ele>1640.158885</ele>
        <time>2021-10-01T10:23:24.517Z</time>
      </trkpt>
      <trkpt lat="41.57845" lon="43.90025">
        <ele>1616.179171</ele>
        <time>2021-10-01T10:24:08.489Z</time>
      </trkpt>
      <trkpt lat="41.57982" lon="43.90387">
        <ele>1591.089265</ele>
        <time>2021-10-01T10:24:50.488Z</time>
      </trkpt>
      <trkpt lat="41.58104" lon="43.90768">
        <ele>1573.807166</ele>
        <time>2021-10-01T10:25:33.493Z</time>
      </trkpt>
      <trkpt lat="41.58061" lon="43.91147">
        <ele>1568.576246</ele>
        <time>2021-10-01T10:26:17.465Z</time>
      </trkpt>
      <trkpt lat="41.58146" lon="43.91517">
        <ele>1561.531294</ele>
        <time>2021-10-01T10:27:00.477Z</time>
      </trkpt>
      <trkpt lat="41.58378" lon="43.91815">
        <ele>1551.719844</ele>
        <time>2021-10-01T10:27:42.488Z</time>
      </trkpt>
      <trkpt lat="41.58582" lon="43.92063">
        <ele>1544.987487</ele>
        <time>2021-10-01T10:28:26.483Z</time>
      </trkpt>
      <trkpt lat="41.58777" lon="43.92248">
        <ele>1542.835696</ele>
        <time>2021-10-01T10:29:13.485Z</time>
      </trkpt>
      <trkpt lat="41.58951" lon="43.92494">
        <ele>1544.975901</ele>
        <time>2021-10-01T10:30:13.506Z</time>
      </trkpt>
      <trkpt lat="41.58994" lon="43.92777">
        <ele>1556.907563</ele>
        <time>2021-10-01T10:32:18.475Z</time>
      </trkpt>
      <trkpt lat="41.58978" lon="43.93078">
        <ele>1561.172398</ele>
        <time>2021-10-01T10:33:50.494Z</time>
      </trkpt>
      <trkpt lat="41.5921" lon="43.93075">
        <ele>1558.644047</ele>
        <time>2021-10-01T10:34:38.473Z</time>
      </trkpt>
      <trkpt lat="41.5934" lon="43.93327">
        <ele>1565.810381</ele>
        <time>2021-10-01T10:35:54.488Z</time>
      </trkpt>
      <trkpt lat="41.59343" lon="43.93732">
        <ele>1553.134797</ele>
        <time>2021-10-01T10:36:38.487Z</time>
      </trkpt>
      <trkpt lat="41.59406" lon="43.94088">
        <ele>1549.416067</ele>
        <time>2021-10-01T10:37:22.481Z</time>
      </trkpt>
      <trkpt lat="41.5941" lon="43.94362">
        <ele>1547.175285</ele>
        <time>2021-10-01T10:38:17.497Z</time>
      </trkpt>
      <trkpt lat="41.59251" lon="43.94694">
        <ele>1539.854405</ele>
        <time>2021-10-01T10:39:01.485Z</time>
      </trkpt>
      <trkpt lat="41.59254" lon="43.95021">
        <ele>1542.209753</ele>
        <time>2021-10-01T10:39:53.509Z</time>
      </trkpt>
      <trkpt lat="41.59337" lon="43.95328">
        <ele>1542.679794</ele>
        <time>2021-10-01T10:40:47.494Z</time>
      </trkpt>
      <trkpt lat="41.59516" lon="43.95516">
        <ele>1543.503197</ele>
        <time>2021-10-01T10:41:36.500Z</time>
      </trkpt>
      <trkpt lat="41.59527" lon="43.95826">
        <ele>1547.347573</ele>
        <time>2021-10-01T10:42:36.494Z</time>
      </trkpt>
      <trkpt lat="41.5952" lon="43.96103">
        <ele>1554.033305</ele>
        <time>2021-10-01T10:44:05.478Z</time>
      </trkpt>
      <trkpt lat="41.59388" lon="43.96386">
        <ele>1551.237528</ele>
        <time>2021-10-01T10:45:11.518Z</time>
      </trkpt>
      <trkpt lat="41.59298" lon="43.96665">
        <ele>1547.444543</ele>
        <time>2021-10-01T10:45:56.507Z</time>
      </trkpt>
      <trkpt lat="41.59337" lon="43.96935">
        <ele>1546.404757</ele>
        <time>2021-10-01T10:46:40.496Z</time>
      </trkpt>
      <trkpt lat="41.59415" lon="43.97222">
        <ele>1549.370548</ele>
        <time>2021-10-01T10:47:42.514Z</time>
      </trkpt>
      <trkpt lat="41.59513" lon="43.97516">
        <ele>1549.174888</ele>
        <time>2021-10-01T10:48:34.476Z</time>
      </trkpt>
      <trkpt lat="41.59608" lon="43.97824">
        <ele>1545.278505</ele>
        <time>2021-10-01T10:49:25.476Z</time>
      </trkpt>
      <trkpt lat="41.59694" lon="43.98102">
        <ele>1545.515598</ele>
        <time>2021-10-01T10:50:14.486Z</time>
      </trkpt>
      <trkpt lat="41.59776" lon="43.98399">
        <ele>1548.764847</ele>
        <time>2021-10-01T10:51:20.508Z</time>
      </trkpt>
      <trkpt lat="41.59815" lon="43.98698">
        <ele>1547.185788</ele>
        <time>2021-10-01T10:52:11.512Z</time>
      </trkpt>
      <trkpt lat="41.59846" lon="43.98966">
        <ele>1545.32575</ele>
        <time>2021-10-01T10:52:55.490Z</time>
      </trkpt>
      <trkpt lat="41.59875" lon="43.99267">
        <ele>1546.532393</ele>
        <time>2021-10-01T10:53:48.488Z</time>
      </trkpt>
      <trkpt lat="41.59915" lon="43.99569">
        <ele>1550.117738</ele>
        <time>2021-10-01T10:54:58.484Z</time>
      </trkpt>
      <trkpt lat="41.59971" lon="43.99896">
        <ele>1548.862818</ele>
        <time>2021-10-01T10:55:42.497Z</time>
      </trkpt>
      <trkpt lat="41.59997" lon="44.00187">
        <ele>1552.795765</ele>
        <time>2021-10-01T10:56:55.497Z</time>
      </trkpt>
      <trkpt lat="41.5998" lon="44.005">
        <ele>1552.545996</ele>
        <time>2021-10-01T10:57:59.487Z</time>
      </trkpt>
      <trkpt lat="41.59949" lon="44.00841">
        <ele>1547.906783</ele>
        <time>2021-10-01T10:58:48.496Z</time>
      </trkpt>
      <trkpt lat="41.59915" lon="44.01149">
        <ele>1544.371923</ele>
        <time>2021-10-01T10:59:34.533Z</time>
      </trkpt>
      <trkpt lat="41.59886" lon="44.01478">
        <ele>1542.539365</ele>
        <time>2021-10-01T11:00:18.497Z</time>
      </trkpt>
      <trkpt lat="41.59857" lon="44.01776">
        <ele>1546.511578</ele>
        <time>2021-10-01T11:01:33.488Z</time>
      </trkpt>
      <trkpt lat="41.5983" lon="44.02051">
        <ele>1552.625561</ele>
        <time>2021-10-01T11:03:02.515Z</time>
      </trkpt>
      <trkpt lat="41.59781" lon="44.02366">
        <ele>1551.441423</ele>
        <time>2021-10-01T11:04:01.498Z</time>
      </trkpt>
      <trkpt lat="41.59838" lon="44.02658">
        <ele>1551.220104</ele>
        <time>2021-10-01T11:04:51.526Z</time>
      </trkpt>
      <trkpt lat="41.59957" lon="44.02926">
        <ele>1554.786447</ele>
        <time>2021-10-01T11:05:54.536Z</time>
      </trkpt>
      <trkpt lat="41.60081" lon="44.03201">
        <ele>1553.765502</ele>
        <time>2021-10-01T11:06:50.489Z</time>
      </trkpt>
      <trkpt lat="41.60208" lon="44.03464">
        <ele>1557.085057</ele>
        <time>2021-10-01T11:07:41.486Z</time>
      </trkpt>
      <trkpt lat="41.60342" lon="44.03697">
        <ele>1563.075916</ele>
        <time>2021-10-01T11:09:15.534Z</time>
      </trkpt>
      <trkpt lat="41.60481" lon="44.03915">
        <ele>1565.748991</ele>
        <time>2021-10-01T11:10:38.512Z</time>
      </trkpt>
      <trkpt lat="41.6055" lon="44.04217">
        <ele>1556.210976</ele>
        <time>2021-10-01T11:11:22.506Z</time>
      </trkpt>
      <trkpt lat="41.60434" lon="44.04603">
        <ele>1548.062631</ele>
        <time>2021-10-01T11:12:02.513Z</time>
      </trkpt>
      <trkpt lat="41.60343" lon="44.04876">
        <ele>1553.647636</ele>
        <time>2021-10-01T11:13:02.493Z</time>
      </trkpt>
      <trkpt lat="41.60244" lon="44.05177">
        <ele>1555.215046</ele>
        <time>2021-10-01T11:14:08.507Z</time>
      </trkpt>
      <trkpt lat="41.60261" lon="44.0544">
        <ele>1550.396478</ele>
        <time>2021-10-01T11:15:03.521Z</time>
      </trkpt>
      <trkpt lat="41.60304" lon="44.05772">
        <ele>1541.340562</ele>
        <time>2021-10-01T11:15:45.481Z</time>
      </trkpt>
      <trkpt lat="41.60276" lon="44.06085">
        <ele>1547.147448</ele>
        <time>2021-10-01T11:16:47.519Z</time>
      </trkpt>
      <trkpt lat="41.60333" lon="44.06179">
        <ele>1547.147448</ele>
        <time>2021-10-01T11:41:48.204Z</time>
      </trkpt>
    </trkseg>
  </trk>
  <trk>
    <name><![CDATA[Tour d'Europe: étape 461]]></name>
    <extensions>
      <line xmlns="http://www.topografix.com/GPX/gpx_style/0/2">
        <color>FF0000</color>
        <width>4</width>
      </line>
    </extensions>
    <trkseg>
      <trkpt lat="41.60318" lon="44.06177">
        <ele>1558.018282</ele>
        <time>2021-10-02T07:19:28.216Z</time>
      </trkpt>
      <trkpt lat="41.60267" lon="44.06243">
        <ele>1558.00581</ele>
        <time>2021-10-02T07:20:04.203Z</time>
      </trkpt>
      <trkpt lat="41.60251" lon="44.06534">
        <ele>1554.564159</ele>
        <time>2021-10-02T07:20:59.210Z</time>
      </trkpt>
      <trkpt lat="41.60244" lon="44.0683">
        <ele>1556.892693</ele>
        <time>2021-10-02T07:22:14.211Z</time>
      </trkpt>
      <trkpt lat="41.60199" lon="44.07099">
        <ele>1560.47735</ele>
        <time>2021-10-02T07:23:16.223Z</time>
      </trkpt>
      <trkpt lat="41.60099" lon="44.07332">
        <ele>1565.244862</ele>
        <time>2021-10-02T07:24:24.209Z</time>
      </trkpt>
      <trkpt lat="41.59906" lon="44.07456">
        <ele>1566.007894</ele>
        <time>2021-10-02T07:25:40.207Z</time>
      </trkpt>
      <trkpt lat="41.59737" lon="44.07624">
        <ele>1553.124512</ele>
        <time>2021-10-02T07:26:26.204Z</time>
      </trkpt>
      <trkpt lat="41.59804" lon="44.08001">
        <ele>1537.182267</ele>
        <time>2021-10-02T07:27:08.213Z</time>
      </trkpt>
      <trkpt lat="41.59863" lon="44.08348">
        <ele>1522.342739</ele>
        <time>2021-10-02T07:27:48.204Z</time>
      </trkpt>
      <trkpt lat="41.59933" lon="44.08743">
        <ele>1496.039064</ele>
        <time>2021-10-02T07:28:30.194Z</time>
      </trkpt>
      <trkpt lat="41.5999" lon="44.09091">
        <ele>1489.417762</ele>
        <time>2021-10-02T07:29:18.210Z</time>
      </trkpt>
      <trkpt lat="41.60043" lon="44.09384">
        <ele>1489.910536</ele>
        <time>2021-10-02T07:30:19.226Z</time>
      </trkpt>
      <trkpt lat="41.60094" lon="44.09691">
        <ele>1484.030635</ele>
        <time>2021-10-02T07:31:11.226Z</time>
      </trkpt>
      <trkpt lat="41.60142" lon="44.09965">
        <ele>1483.348712</ele>
        <time>2021-10-02T07:31:54.210Z</time>
      </trkpt>
      <trkpt lat="41.60183" lon="44.10249">
        <ele>1481.21197</ele>
        <time>2021-10-02T07:32:38.220Z</time>
      </trkpt>
      <trkpt lat="41.60212" lon="44.10529">
        <ele>1484.831436</ele>
        <time>2021-10-02T07:33:37.215Z</time>
      </trkpt>
      <trkpt lat="41.60402" lon="44.10582">
        <ele>1493.836689</ele>
        <time>2021-10-02T07:35:12.220Z</time>
      </trkpt>
      <trkpt lat="41.60495" lon="44.10825">
        <ele>1513.812202</ele>
        <time>2021-10-02T07:37:42.206Z</time>
      </trkpt>
      <trkpt lat="41.60547" lon="44.11069">
        <ele>1524.090003</ele>
        <time>2021-10-02T07:39:52.223Z</time>
      </trkpt>
      <trkpt lat="41.60628" lon="44.11313">
        <ele>1537.738216</ele>
        <time>2021-10-02T07:42:04.207Z</time>
      </trkpt>
      <trkpt lat="41.60763" lon="44.11515">
        <ele>1552.194754</ele>
        <time>2021-10-02T07:44:49.217Z</time>
      </trkpt>
      <trkpt lat="41.60809" lon="44.11761">
        <ele>1563.06963</ele>
        <time>2021-10-02T07:46:59.228Z</time>
      </trkpt>
      <trkpt lat="41.60935" lon="44.11974">
        <ele>1580.395017</ele>
        <time>2021-10-02T07:49:25.247Z</time>
      </trkpt>
      <trkpt lat="41.61059" lon="44.12173">
        <ele>1593.891841</ele>
        <time>2021-10-02T07:51:47.224Z</time>
      </trkpt>
      <trkpt lat="41.612" lon="44.12374">
        <ele>1604.793919</ele>
        <time>2021-10-02T07:53:39.223Z</time>
      </trkpt>
      <trkpt lat="41.61344" lon="44.12562">
        <ele>1608.479356</ele>
        <time>2021-10-02T07:55:18.238Z</time>
      </trkpt>
      <trkpt lat="41.61469" lon="44.12763">
        <ele>1614.993633</ele>
        <time>2021-10-02T07:56:55.204Z</time>
      </trkpt>
      <trkpt lat="41.61572" lon="44.1301">
        <ele>1620.919747</ele>
        <time>2021-10-02T07:58:37.217Z</time>
      </trkpt>
      <trkpt lat="41.61664" lon="44.13238">
        <ele>1628.95816</ele>
        <time>2021-10-02T08:00:20.222Z</time>
      </trkpt>
      <trkpt lat="41.61769" lon="44.13495">
        <ele>1630.109154</ele>
        <time>2021-10-02T08:01:33.214Z</time>
      </trkpt>
      <trkpt lat="41.61889" lon="44.13869">
        <ele>1617.728072</ele>
        <time>2021-10-02T08:02:15.255Z</time>
      </trkpt>
      <trkpt lat="41.62001" lon="44.14131">
        <ele>1607.697401</ele>
        <time>2021-10-02T08:03:02.231Z</time>
      </trkpt>
      <trkpt lat="41.62197" lon="44.14255">
        <ele>1611.875444</ele>
        <time>2021-10-02T08:04:05.250Z</time>
      </trkpt>
      <trkpt lat="41.62391" lon="44.14356">
        <ele>1619.534865</ele>
        <time>2021-10-02T08:05:55.205Z</time>
      </trkpt>
      <trkpt lat="41.62576" lon="44.14472">
        <ele>1621.833709</ele>
        <time>2021-10-02T08:07:18.223Z</time>
      </trkpt>
      <trkpt lat="41.6279" lon="44.14648">
        <ele>1612.547183</ele>
        <time>2021-10-02T08:08:01.255Z</time>
      </trkpt>
      <trkpt lat="41.63041" lon="44.14855">
        <ele>1590.672616</ele>
        <time>2021-10-02T08:08:41.229Z</time>
      </trkpt>
      <trkpt lat="41.63264" lon="44.15126">
        <ele>1573.853811</ele>
        <time>2021-10-02T08:09:23.227Z</time>
      </trkpt>
      <trkpt lat="41.63485" lon="44.15427">
        <ele>1564.677009</ele>
        <time>2021-10-02T08:10:05.251Z</time>
      </trkpt>
      <trkpt lat="41.6361" lon="44.15679">
        <ele>1566.328186</ele>
        <time>2021-10-02T08:10:48.275Z</time>
      </trkpt>
      <trkpt lat="41.63732" lon="44.15976">
        <ele>1560.898138</ele>
        <time>2021-10-02T08:11:35.234Z</time>
      </trkpt>
      <trkpt lat="41.63925" lon="44.16216">
        <ele>1559.351033</ele>
        <time>2021-10-02T08:12:18.220Z</time>
      </trkpt>
      <trkpt lat="41.6398" lon="44.16477">
        <ele>1581.205708</ele>
        <time>2021-10-02T08:14:34.237Z</time>
      </trkpt>
      <trkpt lat="41.63991" lon="44.16745">
        <ele>1588.230144</ele>
        <time>2021-10-02T08:16:48.224Z</time>
      </trkpt>
      <trkpt lat="41.64013" lon="44.17003">
        <ele>1601.752573</ele>
        <time>2021-10-02T08:18:36.239Z</time>
      </trkpt>
      <trkpt lat="41.6405" lon="44.17279">
        <ele>1607.224442</ele>
        <time>2021-10-02T08:20:29.223Z</time>
      </trkpt>
      <trkpt lat="41.64053" lon="44.17563">
        <ele>1614.170903</ele>
        <time>2021-10-02T08:21:53.240Z</time>
      </trkpt>
      <trkpt lat="41.64037" lon="44.17843">
        <ele>1618.441087</ele>
        <time>2021-10-02T08:23:13.269Z</time>
      </trkpt>
      <trkpt lat="41.64093" lon="44.18108">
        <ele>1621.018782</ele>
        <time>2021-10-02T08:24:53.240Z</time>
      </trkpt>
      <trkpt lat="41.64197" lon="44.18335">
        <ele>1629.022142</ele>
        <time>2021-10-02T08:26:49.262Z</time>
      </trkpt>
      <trkpt lat="41.64298" lon="44.18583">
        <ele>1637.621107</ele>
        <time>2021-10-02T08:28:41.240Z</time>
      </trkpt>
      <trkpt lat="41.64392" lon="44.18851">
        <ele>1640.131086</ele>
        <time>2021-10-02T08:30:00.227Z</time>
      </trkpt>
      <trkpt lat="41.64465" lon="44.19107">
        <ele>1637.733361</ele>
        <time>2021-10-02T08:31:09.239Z</time>
      </trkpt>
      <trkpt lat="41.64535" lon="44.19402">
        <ele>1635.658768</ele>
        <time>2021-10-02T08:32:12.224Z</time>
      </trkpt>
      <trkpt lat="41.64583" lon="44.19662">
        <ele>1634.599464</ele>
        <time>2021-10-02T08:32:56.238Z</time>
      </trkpt>
      <trkpt lat="41.64624" lon="44.1996">
        <ele>1639.610021</ele>
        <time>2021-10-02T08:33:45.225Z</time>
      </trkpt>
      <trkpt lat="41.64673" lon="44.20258">
        <ele>1632.695337</ele>
        <time>2021-10-02T08:34:27.229Z</time>
      </trkpt>
      <trkpt lat="41.6472" lon="44.20548">
        <ele>1628.10888</ele>
        <time>2021-10-02T08:35:18.222Z</time>
      </trkpt>
      <trkpt lat="41.64763" lon="44.20869">
        <ele>1630.934697</ele>
        <time>2021-10-02T08:36:21.248Z</time>
      </trkpt>
      <trkpt lat="41.64791" lon="44.2114">
        <ele>1626.307297</ele>
        <time>2021-10-02T08:37:27.235Z</time>
      </trkpt>
      <trkpt lat="41.64822" lon="44.2142">
        <ele>1627.77735</ele>
        <time>2021-10-02T08:38:30.220Z</time>
      </trkpt>
      <trkpt lat="41.64862" lon="44.21726">
        <ele>1628.405805</ele>
        <time>2021-10-02T08:39:33.238Z</time>
      </trkpt>
      <trkpt lat="41.64911" lon="44.22013">
        <ele>1623.343412</ele>
        <time>2021-10-02T08:40:16.229Z</time>
      </trkpt>
      <trkpt lat="41.64968" lon="44.2231">
        <ele>1618.738794</ele>
        <time>2021-10-02T08:41:06.224Z</time>
      </trkpt>
      <trkpt lat="41.65038" lon="44.22598">
        <ele>1617.061374</ele>
        <time>2021-10-02T08:41:51.245Z</time>
      </trkpt>
      <trkpt lat="41.65123" lon="44.22842">
        <ele>1618.567394</ele>
        <time>2021-10-02T08:42:51.237Z</time>
      </trkpt>
      <trkpt lat="41.65236" lon="44.23078">
        <ele>1618.005772</ele>
        <time>2021-10-02T08:43:54.248Z</time>
      </trkpt>
      <trkpt lat="41.65336" lon="44.23351">
        <ele>1620.613184</ele>
        <time>2021-10-02T08:44:48.249Z</time>
      </trkpt>
      <trkpt lat="41.65392" lon="44.2366">
        <ele>1626.409727</ele>
        <time>2021-10-02T08:45:51.242Z</time>
      </trkpt>
      <trkpt lat="41.6542" lon="44.23953">
        <ele>1630.757789</ele>
        <time>2021-10-02T08:46:54.242Z</time>
      </trkpt>
      <trkpt lat="41.65446" lon="44.24221">
        <ele>1630.076101</ele>
        <time>2021-10-02T08:47:57.220Z</time>
      </trkpt>
      <trkpt lat="41.65474" lon="44.24493">
        <ele>1632.026591</ele>
        <time>2021-10-02T08:49:02.245Z</time>
      </trkpt>
      <trkpt lat="41.65495" lon="44.24785">
        <ele>1636.315831</ele>
        <time>2021-10-02T08:50:15.239Z</time>
      </trkpt>
      <trkpt lat="41.65499" lon="44.25051">
        <ele>1635.851288</ele>
        <time>2021-10-02T08:51:20.234Z</time>
      </trkpt>
      <trkpt lat="41.65467" lon="44.2535">
        <ele>1636.844329</ele>
        <time>2021-10-02T08:52:36.236Z</time>
      </trkpt>
      <trkpt lat="41.65424" lon="44.25622">
        <ele>1638.707181</ele>
        <time>2021-10-02T08:53:36.254Z</time>
      </trkpt>
      <trkpt lat="41.65384" lon="44.25895">
        <ele>1646.202443</ele>
        <time>2021-10-02T08:54:47.278Z</time>
      </trkpt>
      <trkpt lat="41.6536" lon="44.26181">
        <ele>1651.332014</ele>
        <time>2021-10-02T08:56:00.244Z</time>
      </trkpt>
      <trkpt lat="41.65335" lon="44.26464">
        <ele>1650.705569</ele>
        <time>2021-10-02T08:56:59.256Z</time>
      </trkpt>
      <trkpt lat="41.65425" lon="44.2676">
        <ele>1644.27121</ele>
        <time>2021-10-02T08:58:00.251Z</time>
      </trkpt>
      <trkpt lat="41.6555" lon="44.27003">
        <ele>1643.558576</ele>
        <time>2021-10-02T08:58:49.249Z</time>
      </trkpt>
      <trkpt lat="41.65673" lon="44.27248">
        <ele>1646.638438</ele>
        <time>2021-10-02T08:59:57.230Z</time>
      </trkpt>
      <trkpt lat="41.65786" lon="44.275">
        <ele>1650.519904</ele>
        <time>2021-10-02T09:01:26.239Z</time>
      </trkpt>
      <trkpt lat="41.65881" lon="44.27739">
        <ele>1652.451933</ele>
        <time>2021-10-02T09:02:33.244Z</time>
      </trkpt>
      <trkpt lat="41.66037" lon="44.27963">
        <ele>1650.411985</ele>
        <time>2021-10-02T09:03:28.272Z</time>
      </trkpt>
      <trkpt lat="41.66084" lon="44.28336">
        <ele>1644.936448</ele>
        <time>2021-10-02T09:04:08.234Z</time>
      </trkpt>
      <trkpt lat="41.6607" lon="44.28735">
        <ele>1626.839107</ele>
        <time>2021-10-02T09:04:50.247Z</time>
      </trkpt>
      <trkpt lat="41.6606" lon="44.29081">
        <ele>1601.950268</ele>
        <time>2021-10-02T09:05:32.255Z</time>
      </trkpt>
      <trkpt lat="41.66147" lon="44.29324">
        <ele>1592.585013</ele>
        <time>2021-10-02T09:06:13.242Z</time>
      </trkpt>
      <trkpt lat="41.66167" lon="44.29606">
        <ele>1589.527326</ele>
        <time>2021-10-02T09:06:59.239Z</time>
      </trkpt>
      <trkpt lat="41.66356" lon="44.29795">
        <ele>1583.34374</ele>
        <time>2021-10-02T09:07:41.253Z</time>
      </trkpt>
      <trkpt lat="41.66495" lon="44.30007">
        <ele>1573.967301</ele>
        <time>2021-10-02T09:08:26.239Z</time>
      </trkpt>
      <trkpt lat="41.66545" lon="44.30308">
        <ele>1563.256115</ele>
        <time>2021-10-02T09:09:19.243Z</time>
      </trkpt>
      <trkpt lat="41.66545" lon="44.30582">
        <ele>1561.312623</ele>
        <time>2021-10-02T09:10:15.247Z</time>
      </trkpt>
      <trkpt lat="41.6666" lon="44.30898">
        <ele>1549.423694</ele>
        <time>2021-10-02T09:10:57.254Z</time>
      </trkpt>
      <trkpt lat="41.66689" lon="44.31253">
        <ele>1531.622359</ele>
        <time>2021-10-02T09:11:39.237Z</time>
      </trkpt>
      <trkpt lat="41.66814" lon="44.31518">
        <ele>1517.885364</ele>
        <time>2021-10-02T09:12:19.249Z</time>
      </trkpt>
      <trkpt lat="41.66858" lon="44.31801">
        <ele>1513.091167</ele>
        <time>2021-10-02T09:13:12.257Z</time>
      </trkpt>
      <trkpt lat="41.66939" lon="44.3209">
        <ele>1504.764138</ele>
        <time>2021-10-02T09:13:52.250Z</time>
      </trkpt>
      <trkpt lat="41.66851" lon="44.32332">
        <ele>1504.876765</ele>
        <time>2021-10-02T09:14:45.243Z</time>
      </trkpt>
      <trkpt lat="41.66864" lon="44.3266">
        <ele>1496.408151</ele>
        <time>2021-10-02T09:15:27.252Z</time>
      </trkpt>
      <trkpt lat="41.6683" lon="44.32941">
        <ele>1486.407944</ele>
        <time>2021-10-02T09:16:07.265Z</time>
      </trkpt>
      <trkpt lat="41.66838" lon="44.33246">
        <ele>1472.67207</ele>
        <time>2021-10-02T09:16:51.248Z</time>
      </trkpt>
      <trkpt lat="41.66945" lon="44.33513">
        <ele>1459.390854</ele>
        <time>2021-10-02T09:17:37.247Z</time>
      </trkpt>
      <trkpt lat="41.67113" lon="44.33617">
        <ele>1439.025905</ele>
        <time>2021-10-02T09:18:18.279Z</time>
      </trkpt>
      <trkpt lat="41.67288" lon="44.33444">
        <ele>1439.22793</ele>
        <time>2021-10-02T09:19:02.249Z</time>
      </trkpt>
      <trkpt lat="41.67313" lon="44.33692">
        <ele>1433.760064</ele>
        <time>2021-10-02T09:20:11.261Z</time>
      </trkpt>
      <trkpt lat="41.67345" lon="44.33965">
        <ele>1424.482103</ele>
        <time>2021-10-02T09:20:57.240Z</time>
      </trkpt>
      <trkpt lat="41.67462" lon="44.34226">
        <ele>1410.03075</ele>
        <time>2021-10-02T09:21:39.266Z</time>
      </trkpt>
      <trkpt lat="41.67613" lon="44.34342">
        <ele>1400.831939</ele>
        <time>2021-10-02T09:22:20.250Z</time>
      </trkpt>
      <trkpt lat="41.67612" lon="44.34698">
        <ele>1384.024174</ele>
        <time>2021-10-02T09:23:02.253Z</time>
      </trkpt>
      <trkpt lat="41.67753" lon="44.34933">
        <ele>1368.31131</ele>
        <time>2021-10-02T09:23:42.250Z</time>
      </trkpt>
      <trkpt lat="41.67611" lon="44.35237">
        <ele>1350.488746</ele>
        <time>2021-10-02T09:24:24.250Z</time>
      </trkpt>
      <trkpt lat="41.67445" lon="44.35538">
        <ele>1327.56068</ele>
        <time>2021-10-02T09:25:06.243Z</time>
      </trkpt>
      <trkpt lat="41.67287" lon="44.3589">
        <ele>1313.118659</ele>
        <time>2021-10-02T09:25:46.284Z</time>
      </trkpt>
      <trkpt lat="41.6716" lon="44.36167">
        <ele>1304.417825</ele>
        <time>2021-10-02T09:26:28.260Z</time>
      </trkpt>
      <trkpt lat="41.67002" lon="44.36433">
        <ele>1287.391437</ele>
        <time>2021-10-02T09:27:10.262Z</time>
      </trkpt>
      <trkpt lat="41.66926" lon="44.36729">
        <ele>1274.267405</ele>
        <time>2021-10-02T09:27:50.258Z</time>
      </trkpt>
      <trkpt lat="41.66768" lon="44.36919">
        <ele>1264.52147</ele>
        <time>2021-10-02T09:28:32.220Z</time>
      </trkpt>
      <trkpt lat="41.66682" lon="44.37213">
        <ele>1252.382038</ele>
        <time>2021-10-02T09:29:12.237Z</time>
      </trkpt>
      <trkpt lat="41.66563" lon="44.37508">
        <ele>1232.856142</ele>
        <time>2021-10-02T09:29:54.257Z</time>
      </trkpt>
      <trkpt lat="41.66466" lon="44.37791">
        <ele>1220.627735</ele>
        <time>2021-10-02T09:30:36.288Z</time>
      </trkpt>
      <trkpt lat="41.66531" lon="44.38086">
        <ele>1209.608952</ele>
        <time>2021-10-02T09:31:16.250Z</time>
      </trkpt>
      <trkpt lat="41.66497" lon="44.38408">
        <ele>1202.500428</ele>
        <time>2021-10-02T09:31:58.259Z</time>
      </trkpt>
      <trkpt lat="41.66554" lon="44.38684">
        <ele>1194.377212</ele>
        <time>2021-10-02T09:32:39.253Z</time>
      </trkpt>
      <trkpt lat="41.6671" lon="44.38463">
        <ele>1192.235177</ele>
        <time>2021-10-02T09:33:21.266Z</time>
      </trkpt>
      <trkpt lat="41.66849" lon="44.38228">
        <ele>1184.640908</ele>
        <time>2021-10-02T09:34:03.258Z</time>
      </trkpt>
      <trkpt lat="41.66991" lon="44.38013">
        <ele>1175.754788</ele>
        <time>2021-10-02T09:34:43.242Z</time>
      </trkpt>
      <trkpt lat="41.67122" lon="44.3789">
        <ele>1164.108731</ele>
        <time>2021-10-02T09:35:31.247Z</time>
      </trkpt>
      <trkpt lat="41.66979" lon="44.38133">
        <ele>1153.331655</ele>
        <time>2021-10-02T09:36:18.241Z</time>
      </trkpt>
      <trkpt lat="41.66891" lon="44.38398">
        <ele>1131.957147</ele>
        <time>2021-10-02T09:37:01.290Z</time>
      </trkpt>
      <trkpt lat="41.66751" lon="44.38622">
        <ele>1117.342948</ele>
        <time>2021-10-02T09:37:48.254Z</time>
      </trkpt>
      <trkpt lat="41.66876" lon="44.38564">
        <ele>1108.9999</ele>
        <time>2021-10-02T09:38:43.255Z</time>
      </trkpt>
      <trkpt lat="41.66997" lon="44.38401">
        <ele>1088.523209</ele>
        <time>2021-10-02T09:39:25.249Z</time>
      </trkpt>
      <trkpt lat="41.67206" lon="44.38287">
        <ele>1069.097842</ele>
        <time>2021-10-02T09:40:14.271Z</time>
      </trkpt>
      <trkpt lat="41.67385" lon="44.38037">
        <ele>1057.285229</ele>
        <time>2021-10-02T09:40:54.259Z</time>
      </trkpt>
      <trkpt lat="41.67549" lon="44.37836">
        <ele>1046.249124</ele>
        <time>2021-10-02T09:41:38.290Z</time>
      </trkpt>
      <trkpt lat="41.67624" lon="44.37994">
        <ele>1050.007615</ele>
        <time>2021-10-02T10:06:50.271Z</time>
      </trkpt>
      <trkpt lat="41.67659" lon="44.38221">
        <ele>1061.607797</ele>
        <time>2021-10-02T10:09:28.277Z</time>
      </trkpt>
      <trkpt lat="41.67604" lon="44.38471">
        <ele>1072.857437</ele>
        <time>2021-10-02T10:11:50.273Z</time>
      </trkpt>
      <trkpt lat="41.6767" lon="44.38437">
        <ele>1083.579968</ele>
        <time>2021-10-02T10:13:47.285Z</time>
      </trkpt>
      <trkpt lat="41.67787" lon="44.38241">
        <ele>1092.722962</ele>
        <time>2021-10-02T10:15:56.265Z</time>
      </trkpt>
      <trkpt lat="41.67761" lon="44.38282">
        <ele>1103.092942</ele>
        <time>2021-10-02T10:17:57.281Z</time>
      </trkpt>
      <trkpt lat="41.67734" lon="44.38506">
        <ele>1114.969706</ele>
        <time>2021-10-02T10:20:00.264Z</time>
      </trkpt>
      <trkpt lat="41.67866" lon="44.38689">
        <ele>1122.902789</ele>
        <time>2021-10-02T10:21:54.340Z</time>
      </trkpt>
      <trkpt lat="41.68043" lon="44.386">
        <ele>1138.970247</ele>
        <time>2021-10-02T10:23:44.282Z</time>
      </trkpt>
      <trkpt lat="41.68252" lon="44.38599">
        <ele>1146.341822</ele>
        <time>2021-10-02T10:25:44.276Z</time>
      </trkpt>
      <trkpt lat="41.68454" lon="44.38619">
        <ele>1147.042681</ele>
        <time>2021-10-02T10:27:27.265Z</time>
      </trkpt>
      <trkpt lat="41.68656" lon="44.38529">
        <ele>1149.155465</ele>
        <time>2021-10-02T10:28:17.263Z</time>
      </trkpt>
      <trkpt lat="41.68844" lon="44.38392">
        <ele>1157.659719</ele>
        <time>2021-10-02T10:29:49.270Z</time>
      </trkpt>
      <trkpt lat="41.69016" lon="44.38258">
        <ele>1166.200231</ele>
        <time>2021-10-02T10:31:22.275Z</time>
      </trkpt>
      <trkpt lat="41.69199" lon="44.38122">
        <ele>1173.81921</ele>
        <time>2021-10-02T10:32:49.265Z</time>
      </trkpt>
      <trkpt lat="41.69356" lon="44.38007">
        <ele>1171.179986</ele>
        <time>2021-10-02T10:33:59.307Z</time>
      </trkpt>
      <trkpt lat="41.69219" lon="44.38235">
        <ele>1168.417377</ele>
        <time>2021-10-02T10:35:00.298Z</time>
      </trkpt>
      <trkpt lat="41.6906" lon="44.3844">
        <ele>1169.67673</ele>
        <time>2021-10-02T10:36:04.263Z</time>
      </trkpt>
      <trkpt lat="41.69185" lon="44.38499">
        <ele>1180.340255</ele>
        <time>2021-10-02T10:37:37.299Z</time>
      </trkpt>
      <trkpt lat="41.69346" lon="44.38561">
        <ele>1194.861163</ele>
        <time>2021-10-02T10:39:44.264Z</time>
      </trkpt>
      <trkpt lat="41.69511" lon="44.38597">
        <ele>1198.862715</ele>
        <time>2021-10-02T10:41:35.254Z</time>
      </trkpt>
      <trkpt lat="41.69557" lon="44.38591">
        <ele>1198.862715</ele>
        <time>2021-10-02T10:57:33.321Z</time>
      </trkpt>
    </trkseg>
  </trk>
  <trk>
    <name><![CDATA[Tour d'Europe: étape 462]]></name>
    <extensions>
      <line xmlns="http://www.topografix.com/GPX/gpx_style/0/2">
        <color>00FFFF</color>
        <width>4</width>
      </line>
    </extensions>
    <trkseg>
      <trkpt lat="41.69529" lon="44.38581">
        <ele>1203.924576</ele>
        <time>2021-10-03T06:55:36.696Z</time>
      </trkpt>
      <trkpt lat="41.6945" lon="44.38624">
        <ele>1203.739553</ele>
        <time>2021-10-03T06:59:56.271Z</time>
      </trkpt>
      <trkpt lat="41.6931" lon="44.38471">
        <ele>1191.92407</ele>
        <time>2021-10-03T07:01:29.299Z</time>
      </trkpt>
      <trkpt lat="41.691" lon="44.38511">
        <ele>1178.130273</ele>
        <time>2021-10-03T07:02:19.296Z</time>
      </trkpt>
      <trkpt lat="41.69127" lon="44.38739">
        <ele>1159.554297</ele>
        <time>2021-10-03T07:03:00.255Z</time>
      </trkpt>
      <trkpt lat="41.69275" lon="44.39039">
        <ele>1145.002726</ele>
        <time>2021-10-03T07:03:34.263Z</time>
      </trkpt>
      <trkpt lat="41.69294" lon="44.39163">
        <ele>1141.289866</ele>
        <time>2021-10-03T07:04:34.285Z</time>
      </trkpt>
      <trkpt lat="41.69111" lon="44.39138">
        <ele>1155.327837</ele>
        <time>2021-10-03T07:06:19.281Z</time>
      </trkpt>
      <trkpt lat="41.68969" lon="44.39206">
        <ele>1165.321519</ele>
        <time>2021-10-03T07:08:15.283Z</time>
      </trkpt>
      <trkpt lat="41.68987" lon="44.39026">
        <ele>1176.218706</ele>
        <time>2021-10-03T07:10:15.282Z</time>
      </trkpt>
      <trkpt lat="41.68815" lon="44.39134">
        <ele>1190.168079</ele>
        <time>2021-10-03T07:12:21.294Z</time>
      </trkpt>
      <trkpt lat="41.68735" lon="44.39366">
        <ele>1201.187349</ele>
        <time>2021-10-03T07:14:23.302Z</time>
      </trkpt>
      <trkpt lat="41.68677" lon="44.39611">
        <ele>1210.613647</ele>
        <time>2021-10-03T07:16:21.311Z</time>
      </trkpt>
      <trkpt lat="41.68664" lon="44.39878">
        <ele>1228.280223</ele>
        <time>2021-10-03T07:18:25.293Z</time>
      </trkpt>
      <trkpt lat="41.6866" lon="44.40126">
        <ele>1240.128337</ele>
        <time>2021-10-03T07:20:31.271Z</time>
      </trkpt>
      <trkpt lat="41.68664" lon="44.40384">
        <ele>1250.041335</ele>
        <time>2021-10-03T07:22:39.284Z</time>
      </trkpt>
      <trkpt lat="41.68631" lon="44.40638">
        <ele>1253.127066</ele>
        <time>2021-10-03T07:24:37.295Z</time>
      </trkpt>
      <trkpt lat="41.68533" lon="44.40873">
        <ele>1262.917842</ele>
        <time>2021-10-03T07:26:29.277Z</time>
      </trkpt>
      <trkpt lat="41.68421" lon="44.41094">
        <ele>1264.342055</ele>
        <time>2021-10-03T07:27:56.290Z</time>
      </trkpt>
      <trkpt lat="41.684" lon="44.41363">
        <ele>1265.394431</ele>
        <time>2021-10-03T07:29:12.328Z</time>
      </trkpt>
      <trkpt lat="41.68441" lon="44.41603">
        <ele>1280.24533</ele>
        <time>2021-10-03T07:31:06.290Z</time>
      </trkpt>
      <trkpt lat="41.6862" lon="44.41688">
        <ele>1295.105315</ele>
        <time>2021-10-03T07:33:20.297Z</time>
      </trkpt>
      <trkpt lat="41.68738" lon="44.41887">
        <ele>1309.61062</ele>
        <time>2021-10-03T07:36:03.326Z</time>
      </trkpt>
      <trkpt lat="41.68908" lon="44.41929">
        <ele>1329.940673</ele>
        <time>2021-10-03T07:38:20.291Z</time>
      </trkpt>
      <trkpt lat="41.69066" lon="44.42048">
        <ele>1342.687454</ele>
        <time>2021-10-03T07:40:54.280Z</time>
      </trkpt>
      <trkpt lat="41.6921" lon="44.42215">
        <ele>1355.346129</ele>
        <time>2021-10-03T07:43:21.292Z</time>
      </trkpt>
      <trkpt lat="41.69399" lon="44.42206">
        <ele>1369.549667</ele>
        <time>2021-10-03T07:45:36.273Z</time>
      </trkpt>
      <trkpt lat="41.69584" lon="44.4215">
        <ele>1383.35566</ele>
        <time>2021-10-03T07:48:06.298Z</time>
      </trkpt>
      <trkpt lat="41.69705" lon="44.42326">
        <ele>1397.147385</ele>
        <time>2021-10-03T07:50:45.277Z</time>
      </trkpt>
      <trkpt lat="41.69656" lon="44.42552">
        <ele>1411.590607</ele>
        <time>2021-10-03T07:53:25.312Z</time>
      </trkpt>
      <trkpt lat="41.69795" lon="44.42719">
        <ele>1433.963637</ele>
        <time>2021-10-03T07:56:31.296Z</time>
      </trkpt>
      <trkpt lat="41.69988" lon="44.42685">
        <ele>1454.783086</ele>
        <time>2021-10-03T07:59:24.279Z</time>
      </trkpt>
      <trkpt lat="41.70176" lon="44.42612">
        <ele>1465.902107</ele>
        <time>2021-10-03T08:01:45.300Z</time>
      </trkpt>
      <trkpt lat="41.70311" lon="44.42747">
        <ele>1475.270588</ele>
        <time>2021-10-03T08:04:18.348Z</time>
      </trkpt>
      <trkpt lat="41.70465" lon="44.42909">
        <ele>1484.840662</ele>
        <time>2021-10-03T08:06:13.302Z</time>
      </trkpt>
      <trkpt lat="41.70557" lon="44.4315">
        <ele>1477.542454</ele>
        <time>2021-10-03T08:07:17.307Z</time>
      </trkpt>
      <trkpt lat="41.70609" lon="44.43414">
        <ele>1480.115426</ele>
        <time>2021-10-03T08:09:05.315Z</time>
      </trkpt>
      <trkpt lat="41.70665" lon="44.43707">
        <ele>1479.18879</ele>
        <time>2021-10-03T08:09:57.299Z</time>
      </trkpt>
      <trkpt lat="41.70686" lon="44.43994">
        <ele>1487.896396</ele>
        <time>2021-10-03T08:14:19.299Z</time>
      </trkpt>
      <trkpt lat="41.70677" lon="44.44253">
        <ele>1495.899719</ele>
        <time>2021-10-03T08:16:04.306Z</time>
      </trkpt>
      <trkpt lat="41.70677" lon="44.44525">
        <ele>1492.195211</ele>
        <time>2021-10-03T08:16:55.299Z</time>
      </trkpt>
      <trkpt lat="41.70664" lon="44.44814">
        <ele>1495.62816</ele>
        <time>2021-10-03T08:18:05.306Z</time>
      </trkpt>
      <trkpt lat="41.70657" lon="44.45095">
        <ele>1494.995101</ele>
        <time>2021-10-03T08:19:12.303Z</time>
      </trkpt>
      <trkpt lat="41.7065" lon="44.45432">
        <ele>1484.599449</ele>
        <time>2021-10-03T08:19:52.290Z</time>
      </trkpt>
      <trkpt lat="41.70643" lon="44.45717">
        <ele>1484.907764</ele>
        <time>2021-10-03T08:20:43.345Z</time>
      </trkpt>
      <trkpt lat="41.70635" lon="44.4598">
        <ele>1489.785801</ele>
        <time>2021-10-03T08:21:45.304Z</time>
      </trkpt>
      <trkpt lat="41.70628" lon="44.46264">
        <ele>1486.33731</ele>
        <time>2021-10-03T08:22:45.327Z</time>
      </trkpt>
      <trkpt lat="41.70613" lon="44.46576">
        <ele>1486.236638</ele>
        <time>2021-10-03T08:23:45.285Z</time>
      </trkpt>
      <trkpt lat="41.70584" lon="44.46881">
        <ele>1491.77366</ele>
        <time>2021-10-03T08:24:47.315Z</time>
      </trkpt>
      <trkpt lat="41.70534" lon="44.47132">
        <ele>1501.318301</ele>
        <time>2021-10-03T08:26:24.299Z</time>
      </trkpt>
      <trkpt lat="41.70488" lon="44.47406">
        <ele>1501.730077</ele>
        <time>2021-10-03T08:27:42.331Z</time>
      </trkpt>
      <trkpt lat="41.70437" lon="44.47689">
        <ele>1495.519735</ele>
        <time>2021-10-03T08:28:33.344Z</time>
      </trkpt>
      <trkpt lat="41.70376" lon="44.47968">
        <ele>1499.969455</ele>
        <time>2021-10-03T08:29:32.302Z</time>
      </trkpt>
      <trkpt lat="41.70306" lon="44.48219">
        <ele>1506.287154</ele>
        <time>2021-10-03T08:31:09.312Z</time>
      </trkpt>
      <trkpt lat="41.70234" lon="44.4846">
        <ele>1513.796489</ele>
        <time>2021-10-03T08:32:55.304Z</time>
      </trkpt>
      <trkpt lat="41.70161" lon="44.48717">
        <ele>1521.872379</ele>
        <time>2021-10-03T08:34:30.315Z</time>
      </trkpt>
      <trkpt lat="41.70221" lon="44.48968">
        <ele>1524.749185</ele>
        <time>2021-10-03T08:35:51.280Z</time>
      </trkpt>
      <trkpt lat="41.70174" lon="44.49264">
        <ele>1509.89453</ele>
        <time>2021-10-03T08:36:31.316Z</time>
      </trkpt>
      <trkpt lat="41.70114" lon="44.4966">
        <ele>1484.682061</ele>
        <time>2021-10-03T08:37:11.341Z</time>
      </trkpt>
      <trkpt lat="41.6996" lon="44.49921">
        <ele>1466.612809</ele>
        <time>2021-10-03T08:37:51.313Z</time>
      </trkpt>
      <trkpt lat="41.69722" lon="44.50045">
        <ele>1445.974901</ele>
        <time>2021-10-03T08:38:31.308Z</time>
      </trkpt>
      <trkpt lat="41.69547" lon="44.50292">
        <ele>1417.770506</ele>
        <time>2021-10-03T08:39:11.310Z</time>
      </trkpt>
      <trkpt lat="41.69345" lon="44.50571">
        <ele>1393.355976</ele>
        <time>2021-10-03T08:39:51.293Z</time>
      </trkpt>
      <trkpt lat="41.69126" lon="44.50748">
        <ele>1382.935201</ele>
        <time>2021-10-03T08:40:30.305Z</time>
      </trkpt>
      <trkpt lat="41.6887" lon="44.50805">
        <ele>1375.272946</ele>
        <time>2021-10-03T08:41:10.317Z</time>
      </trkpt>
      <trkpt lat="41.68808" lon="44.51147">
        <ele>1362.250027</ele>
        <time>2021-10-03T08:41:50.311Z</time>
      </trkpt>
      <trkpt lat="41.68666" lon="44.51408">
        <ele>1348.073577</ele>
        <time>2021-10-03T08:42:28.310Z</time>
      </trkpt>
      <trkpt lat="41.6852" lon="44.51694">
        <ele>1342.828874</ele>
        <time>2021-10-03T08:43:06.308Z</time>
      </trkpt>
      <trkpt lat="41.68335" lon="44.51781">
        <ele>1351.156376</ele>
        <time>2021-10-03T08:44:52.302Z</time>
      </trkpt>
      <trkpt lat="41.6817" lon="44.51781">
        <ele>1359.363506</ele>
        <time>2021-10-03T08:46:35.320Z</time>
      </trkpt>
      <trkpt lat="41.68" lon="44.519">
        <ele>1362.153914</ele>
        <time>2021-10-03T08:48:01.316Z</time>
      </trkpt>
      <trkpt lat="41.6781" lon="44.51983">
        <ele>1363.345223</ele>
        <time>2021-10-03T08:48:59.354Z</time>
      </trkpt>
      <trkpt lat="41.6756" lon="44.52077">
        <ele>1361.222633</ele>
        <time>2021-10-03T08:49:47.300Z</time>
      </trkpt>
      <trkpt lat="41.67375" lon="44.52265">
        <ele>1357.765705</ele>
        <time>2021-10-03T08:50:40.311Z</time>
      </trkpt>
      <trkpt lat="41.67181" lon="44.52358">
        <ele>1361.619288</ele>
        <time>2021-10-03T08:51:53.301Z</time>
      </trkpt>
      <trkpt lat="41.6697" lon="44.52416">
        <ele>1357.58212</ele>
        <time>2021-10-03T08:52:51.312Z</time>
      </trkpt>
      <trkpt lat="41.66777" lon="44.5262">
        <ele>1344.213149</ele>
        <time>2021-10-03T08:53:31.306Z</time>
      </trkpt>
      <trkpt lat="41.6667" lon="44.52906">
        <ele>1334.304897</ele>
        <time>2021-10-03T08:54:20.314Z</time>
      </trkpt>
      <trkpt lat="41.66552" lon="44.53201">
        <ele>1325.004885</ele>
        <time>2021-10-03T08:55:00.307Z</time>
      </trkpt>
      <trkpt lat="41.66471" lon="44.5347">
        <ele>1324.324083</ele>
        <time>2021-10-03T08:55:53.313Z</time>
      </trkpt>
      <trkpt lat="41.66492" lon="44.53849">
        <ele>1309.812951</ele>
        <time>2021-10-03T08:56:33.334Z</time>
      </trkpt>
      <trkpt lat="41.6648" lon="44.5415">
        <ele>1308.983526</ele>
        <time>2021-10-03T08:57:25.356Z</time>
      </trkpt>
      <trkpt lat="41.66475" lon="44.5442">
        <ele>1314.830866</ele>
        <time>2021-10-03T08:58:41.301Z</time>
      </trkpt>
      <trkpt lat="41.66401" lon="44.54666">
        <ele>1323.815431</ele>
        <time>2021-10-03T09:00:23.320Z</time>
      </trkpt>
      <trkpt lat="41.66288" lon="44.54878">
        <ele>1331.942995</ele>
        <time>2021-10-03T09:01:52.313Z</time>
      </trkpt>
      <trkpt lat="41.66207" lon="44.55127">
        <ele>1341.969202</ele>
        <time>2021-10-03T09:03:32.346Z</time>
      </trkpt>
      <trkpt lat="41.66148" lon="44.55381">
        <ele>1350.910443</ele>
        <time>2021-10-03T09:05:30.358Z</time>
      </trkpt>
      <trkpt lat="41.66137" lon="44.55642">
        <ele>1358.476717</ele>
        <time>2021-10-03T09:07:26.341Z</time>
      </trkpt>
      <trkpt lat="41.66005" lon="44.55792">
        <ele>1370.144545</ele>
        <time>2021-10-03T09:09:30.337Z</time>
      </trkpt>
      <trkpt lat="41.65874" lon="44.55991">
        <ele>1369.996739</ele>
        <time>2021-10-03T09:11:18.320Z</time>
      </trkpt>
      <trkpt lat="41.65794" lon="44.56335">
        <ele>1357.488036</ele>
        <time>2021-10-03T09:11:58.347Z</time>
      </trkpt>
      <trkpt lat="41.65606" lon="44.56516">
        <ele>1356.164782</ele>
        <time>2021-10-03T09:12:52.322Z</time>
      </trkpt>
      <trkpt lat="41.65466" lon="44.5654">
        <ele>1359.121287</ele>
        <time>2021-10-03T09:13:50.316Z</time>
      </trkpt>
      <trkpt lat="41.6533" lon="44.56361">
        <ele>1367.644653</ele>
        <time>2021-10-03T09:15:42.317Z</time>
      </trkpt>
      <trkpt lat="41.65327" lon="44.56434">
        <ele>1390.744101</ele>
        <time>2021-10-03T09:17:49.343Z</time>
      </trkpt>
      <trkpt lat="41.65382" lon="44.56672">
        <ele>1403.719423</ele>
        <time>2021-10-03T09:19:54.326Z</time>
      </trkpt>
      <trkpt lat="41.65386" lon="44.56897">
        <ele>1418.108455</ele>
        <time>2021-10-03T09:22:00.330Z</time>
      </trkpt>
      <trkpt lat="41.65363" lon="44.57152">
        <ele>1433.136456</ele>
        <time>2021-10-03T09:24:24.336Z</time>
      </trkpt>
      <trkpt lat="41.65432" lon="44.57405">
        <ele>1426.998879</ele>
        <time>2021-10-03T09:26:26.325Z</time>
      </trkpt>
      <trkpt lat="41.65525" lon="44.57667">
        <ele>1414.626088</ele>
        <time>2021-10-03T09:27:06.317Z</time>
      </trkpt>
      <trkpt lat="41.65583" lon="44.57975">
        <ele>1395.337925</ele>
        <time>2021-10-03T09:27:46.328Z</time>
      </trkpt>
      <trkpt lat="41.65605" lon="44.58286">
        <ele>1381.065092</ele>
        <time>2021-10-03T09:28:27.321Z</time>
      </trkpt>
      <trkpt lat="41.65599" lon="44.58563">
        <ele>1367.87834</ele>
        <time>2021-10-03T09:29:07.328Z</time>
      </trkpt>
      <trkpt lat="41.65525" lon="44.58844">
        <ele>1354.689987</ele>
        <time>2021-10-03T09:29:54.331Z</time>
      </trkpt>
      <trkpt lat="41.65567" lon="44.59121">
        <ele>1343.788815</ele>
        <time>2021-10-03T09:30:34.314Z</time>
      </trkpt>
      <trkpt lat="41.65575" lon="44.59404">
        <ele>1335.710317</ele>
        <time>2021-10-03T09:31:15.326Z</time>
      </trkpt>
      <trkpt lat="41.65679" lon="44.59745">
        <ele>1328.683957</ele>
        <time>2021-10-03T09:31:55.338Z</time>
      </trkpt>
      <trkpt lat="41.6576" lon="44.6008">
        <ele>1324.228731</ele>
        <time>2021-10-03T09:32:39.355Z</time>
      </trkpt>
      <trkpt lat="41.65872" lon="44.60302">
        <ele>1325.486119</ele>
        <time>2021-10-03T09:38:43.322Z</time>
      </trkpt>
      <trkpt lat="41.65959" lon="44.60522">
        <ele>1338.831535</ele>
        <time>2021-10-03T09:40:03.325Z</time>
      </trkpt>
      <trkpt lat="41.66001" lon="44.60766">
        <ele>1356.210475</ele>
        <time>2021-10-03T09:42:24.328Z</time>
      </trkpt>
      <trkpt lat="41.65929" lon="44.61006">
        <ele>1372.761998</ele>
        <time>2021-10-03T09:45:03.310Z</time>
      </trkpt>
      <trkpt lat="41.65888" lon="44.61247">
        <ele>1390.632074</ele>
        <time>2021-10-03T09:47:41.362Z</time>
      </trkpt>
      <trkpt lat="41.65956" lon="44.61483">
        <ele>1406.340344</ele>
        <time>2021-10-03T09:50:20.315Z</time>
      </trkpt>
      <trkpt lat="41.6592" lon="44.61731">
        <ele>1418.576725</ele>
        <time>2021-10-03T09:52:51.352Z</time>
      </trkpt>
      <trkpt lat="41.65904" lon="44.61997">
        <ele>1423.423954</ele>
        <time>2021-10-03T09:54:19.329Z</time>
      </trkpt>
      <trkpt lat="41.65882" lon="44.6228">
        <ele>1425.612544</ele>
        <time>2021-10-03T09:55:21.331Z</time>
      </trkpt>
      <trkpt lat="41.65905" lon="44.62567">
        <ele>1433.233135</ele>
        <time>2021-10-03T09:56:21.363Z</time>
      </trkpt>
      <trkpt lat="41.65985" lon="44.62807">
        <ele>1428.208471</ele>
        <time>2021-10-03T09:57:27.353Z</time>
      </trkpt>
      <trkpt lat="41.66035" lon="44.6308">
        <ele>1425.724806</ele>
        <time>2021-10-03T09:58:28.342Z</time>
      </trkpt>
      <trkpt lat="41.66111" lon="44.63339">
        <ele>1428.285655</ele>
        <time>2021-10-03T09:59:29.387Z</time>
      </trkpt>
      <trkpt lat="41.66193" lon="44.6362">
        <ele>1420.996312</ele>
        <time>2021-10-03T10:00:23.336Z</time>
      </trkpt>
      <trkpt lat="41.66415" lon="44.63825">
        <ele>1397.963903</ele>
        <time>2021-10-03T10:01:03.345Z</time>
      </trkpt>
      <trkpt lat="41.66646" lon="44.63939">
        <ele>1377.04276</ele>
        <time>2021-10-03T10:01:43.338Z</time>
      </trkpt>
      <trkpt lat="41.66578" lon="44.64225">
        <ele>1359.858235</ele>
        <time>2021-10-03T10:02:06.376Z</time>
      </trkpt>
      <trkpt lat="41.66507" lon="44.64527">
        <ele>1340.07935</ele>
        <time>2021-10-03T10:02:33.321Z</time>
      </trkpt>
      <trkpt lat="41.66694" lon="44.64813">
        <ele>1314.166494</ele>
        <time>2021-10-03T10:03:10.330Z</time>
      </trkpt>
      <trkpt lat="41.66965" lon="44.64732">
        <ele>1301.279263</ele>
        <time>2021-10-03T10:03:44.354Z</time>
      </trkpt>
      <trkpt lat="41.6704" lon="44.64965">
        <ele>1293.39509</ele>
        <time>2021-10-03T10:04:23.332Z</time>
      </trkpt>
      <trkpt lat="41.67031" lon="44.6525">
        <ele>1296.361697</ele>
        <time>2021-10-03T10:05:15.331Z</time>
      </trkpt>
      <trkpt lat="41.67054" lon="44.6552">
        <ele>1313.029403</ele>
        <time>2021-10-03T10:06:44.322Z</time>
      </trkpt>
      <trkpt lat="41.67065" lon="44.65782">
        <ele>1329.834623</ele>
        <time>2021-10-03T10:08:44.388Z</time>
      </trkpt>
      <trkpt lat="41.67079" lon="44.6604">
        <ele>1342.810288</ele>
        <time>2021-10-03T10:11:05.348Z</time>
      </trkpt>
      <trkpt lat="41.67097" lon="44.66294">
        <ele>1352.789113</ele>
        <time>2021-10-03T10:13:05.332Z</time>
      </trkpt>
      <trkpt lat="41.67155" lon="44.66556">
        <ele>1353.911069</ele>
        <time>2021-10-03T10:14:37.330Z</time>
      </trkpt>
      <trkpt lat="41.67225" lon="44.66838">
        <ele>1343.986285</ele>
        <time>2021-10-03T10:15:30.322Z</time>
      </trkpt>
      <trkpt lat="41.67333" lon="44.67093">
        <ele>1340.712421</ele>
        <time>2021-10-03T10:16:20.346Z</time>
      </trkpt>
      <trkpt lat="41.6743" lon="44.67343">
        <ele>1330.92675</ele>
        <time>2021-10-03T10:17:02.336Z</time>
      </trkpt>
      <trkpt lat="41.67522" lon="44.67632">
        <ele>1317.75254</ele>
        <time>2021-10-03T10:28:39.370Z</time>
      </trkpt>
      <trkpt lat="41.6763" lon="44.6794">
        <ele>1297.690844</ele>
        <time>2021-10-03T10:30:40.343Z</time>
      </trkpt>
      <trkpt lat="41.67799" lon="44.68172">
        <ele>1279.25945</ele>
        <time>2021-10-03T10:31:20.343Z</time>
      </trkpt>
      <trkpt lat="41.67929" lon="44.68318">
        <ele>1257.49112</ele>
        <time>2021-10-03T10:32:00.344Z</time>
      </trkpt>
      <trkpt lat="41.67922" lon="44.68681">
        <ele>1235.825309</ele>
        <time>2021-10-03T10:33:57.397Z</time>
      </trkpt>
      <trkpt lat="41.68055" lon="44.6834">
        <ele>1218.380127</ele>
        <time>2021-10-03T10:34:37.355Z</time>
      </trkpt>
      <trkpt lat="41.68029" lon="44.68643">
        <ele>1195.391881</ele>
        <time>2021-10-03T10:35:16.390Z</time>
      </trkpt>
      <trkpt lat="41.68016" lon="44.68991">
        <ele>1170.738314</ele>
        <time>2021-10-03T10:36:01.346Z</time>
      </trkpt>
      <trkpt lat="41.68067" lon="44.69273">
        <ele>1155.104132</ele>
        <time>2021-10-03T10:36:44.340Z</time>
      </trkpt>
      <trkpt lat="41.68243" lon="44.69125">
        <ele>1133.473562</ele>
        <time>2021-10-03T10:37:26.346Z</time>
      </trkpt>
      <trkpt lat="41.68393" lon="44.69195">
        <ele>1104.194968</ele>
        <time>2021-10-03T10:38:06.329Z</time>
      </trkpt>
      <trkpt lat="41.68508" lon="44.69164">
        <ele>1089.13303</ele>
        <time>2021-10-03T10:38:47.338Z</time>
      </trkpt>
      <trkpt lat="41.68529" lon="44.69511">
        <ele>1077.630467</ele>
        <time>2021-10-03T10:39:28.357Z</time>
      </trkpt>
      <trkpt lat="41.6876" lon="44.69666">
        <ele>1051.982446</ele>
        <time>2021-10-03T10:40:08.355Z</time>
      </trkpt>
      <trkpt lat="41.68996" lon="44.6968">
        <ele>1031.595391</ele>
        <time>2021-10-03T10:40:48.358Z</time>
      </trkpt>
      <trkpt lat="41.69253" lon="44.69533">
        <ele>1002.659777</ele>
        <time>2021-10-03T10:41:28.343Z</time>
      </trkpt>
      <trkpt lat="41.69479" lon="44.69489">
        <ele>977.691199</ele>
        <time>2021-10-03T10:42:08.336Z</time>
      </trkpt>
      <trkpt lat="41.69567" lon="44.69856">
        <ele>962.541557</ele>
        <time>2021-10-03T10:42:44.337Z</time>
      </trkpt>
      <trkpt lat="41.69743" lon="44.70094">
        <ele>961.438178</ele>
        <time>2021-10-03T10:43:27.347Z</time>
      </trkpt>
      <trkpt lat="41.699" lon="44.70257">
        <ele>961.224488</ele>
        <time>2021-10-03T10:44:27.355Z</time>
      </trkpt>
      <trkpt lat="41.70026" lon="44.70495">
        <ele>941.4415</ele>
        <time>2021-10-03T10:45:09.343Z</time>
      </trkpt>
      <trkpt lat="41.70251" lon="44.70215">
        <ele>913.900434</ele>
        <time>2021-10-03T10:45:49.332Z</time>
      </trkpt>
      <trkpt lat="41.70364" lon="44.7025">
        <ele>893.827125</ele>
        <time>2021-10-03T10:46:29.351Z</time>
      </trkpt>
      <trkpt lat="41.70606" lon="44.70383">
        <ele>864.575917</ele>
        <time>2021-10-03T10:47:07.348Z</time>
      </trkpt>
      <trkpt lat="41.70745" lon="44.70619">
        <ele>840.264406</ele>
        <time>2021-10-03T10:47:43.348Z</time>
      </trkpt>
      <trkpt lat="41.70794" lon="44.70785">
        <ele>825.534602</ele>
        <time>2021-10-03T10:48:14.346Z</time>
      </trkpt>
      <trkpt lat="41.70932" lon="44.70934">
        <ele>800.42312</ele>
        <time>2021-10-03T10:48:51.355Z</time>
      </trkpt>
      <trkpt lat="41.7091" lon="44.71268">
        <ele>778.378426</ele>
        <time>2021-10-03T10:49:27.349Z</time>
      </trkpt>
      <trkpt lat="41.71041" lon="44.7091">
        <ele>755.580429</ele>
        <time>2021-10-03T10:50:07.391Z</time>
      </trkpt>
      <trkpt lat="41.71139" lon="44.70611">
        <ele>741.770521</ele>
        <time>2021-10-03T10:57:41.353Z</time>
      </trkpt>
      <trkpt lat="41.71227" lon="44.70244">
        <ele>728.973203</ele>
        <time>2021-10-03T10:58:22.354Z</time>
      </trkpt>
      <trkpt lat="41.71281" lon="44.69834">
        <ele>713.401261</ele>
        <time>2021-10-03T10:59:01.343Z</time>
      </trkpt>
      <trkpt lat="41.714" lon="44.69869">
        <ele>701.404715</ele>
        <time>2021-10-03T10:59:32.355Z</time>
      </trkpt>
      <trkpt lat="41.71384" lon="44.70227">
        <ele>682.639677</ele>
        <time>2021-10-03T11:00:11.364Z</time>
      </trkpt>
      <trkpt lat="41.7138" lon="44.70629">
        <ele>658.19831</ele>
        <time>2021-10-03T11:00:51.344Z</time>
      </trkpt>
      <trkpt lat="41.71306" lon="44.71029">
        <ele>629.315861</ele>
        <time>2021-10-03T11:01:31.337Z</time>
      </trkpt>
      <trkpt lat="41.71306" lon="44.71436">
        <ele>604.892595</ele>
        <time>2021-10-03T11:02:11.354Z</time>
      </trkpt>
      <trkpt lat="41.71296" lon="44.71811">
        <ele>587.813756</ele>
        <time>2021-10-03T11:02:50.383Z</time>
      </trkpt>
      <trkpt lat="41.71248" lon="44.72164">
        <ele>569.489988</ele>
        <time>2021-10-03T11:03:30.351Z</time>
      </trkpt>
      <trkpt lat="41.71164" lon="44.72503">
        <ele>550.887431</ele>
        <time>2021-10-03T11:04:04.362Z</time>
      </trkpt>
      <trkpt lat="41.71048" lon="44.72786">
        <ele>553.275</ele>
        <time>2021-10-03T11:04:54.352Z</time>
      </trkpt>
      <trkpt lat="41.71017" lon="44.73064">
        <ele>552.087833</ele>
        <time>2021-10-03T11:05:44.387Z</time>
      </trkpt>
      <trkpt lat="41.70961" lon="44.73343">
        <ele>561.204639</ele>
        <time>2021-10-03T11:06:47.384Z</time>
      </trkpt>
      <trkpt lat="41.70756" lon="44.73437">
        <ele>557.711187</ele>
        <time>2021-10-03T11:07:37.348Z</time>
      </trkpt>
      <trkpt lat="41.7059" lon="44.7358">
        <ele>553.529945</ele>
        <time>2021-10-03T11:08:23.344Z</time>
      </trkpt>
      <trkpt lat="41.70716" lon="44.73752">
        <ele>564.174503</ele>
        <time>2021-10-03T11:09:51.339Z</time>
      </trkpt>
      <trkpt lat="41.7086" lon="44.73994">
        <ele>565.380305</ele>
        <time>2021-10-03T11:11:02.345Z</time>
      </trkpt>
      <trkpt lat="41.71033" lon="44.74281">
        <ele>543.172921</ele>
        <time>2021-10-03T11:11:37.358Z</time>
      </trkpt>
      <trkpt lat="41.71125" lon="44.74604">
        <ele>524.93579</ele>
        <time>2021-10-03T11:12:17.354Z</time>
      </trkpt>
      <trkpt lat="41.71157" lon="44.74928">
        <ele>510.069925</ele>
        <time>2021-10-03T11:12:57.351Z</time>
      </trkpt>
      <trkpt lat="41.71176" lon="44.75239">
        <ele>505.691131</ele>
        <time>2021-10-03T11:13:40.353Z</time>
      </trkpt>
      <trkpt lat="41.71136" lon="44.75538">
        <ele>504.794357</ele>
        <time>2021-10-03T11:14:32.342Z</time>
      </trkpt>
      <trkpt lat="41.711" lon="44.75826">
        <ele>511.633802</ele>
        <time>2021-10-03T11:15:18.356Z</time>
      </trkpt>
      <trkpt lat="41.71046" lon="44.76108">
        <ele>515.107403</ele>
        <time>2021-10-03T11:16:04.349Z</time>
      </trkpt>
      <trkpt lat="41.7102" lon="44.76381">
        <ele>513.746192</ele>
        <time>2021-10-03T11:16:49.338Z</time>
      </trkpt>
      <trkpt lat="41.70996" lon="44.76674">
        <ele>514.429169</ele>
        <time>2021-10-03T11:17:32.351Z</time>
      </trkpt>
      <trkpt lat="41.70928" lon="44.76963">
        <ele>494.92749</ele>
        <time>2021-10-03T11:18:22.365Z</time>
      </trkpt>
      <trkpt lat="41.70884" lon="44.77273">
        <ele>500.285291</ele>
        <time>2021-10-03T11:26:15.355Z</time>
      </trkpt>
      <trkpt lat="41.70919" lon="44.7754">
        <ele>496.320745</ele>
        <time>2021-10-03T11:27:06.342Z</time>
      </trkpt>
      <trkpt lat="41.70922" lon="44.77838">
        <ele>481.755918</ele>
        <time>2021-10-03T11:27:50.356Z</time>
      </trkpt>
      <trkpt lat="41.70852" lon="44.78158">
        <ele>471.983792</ele>
        <time>2021-10-03T11:29:26.339Z</time>
      </trkpt>
      <trkpt lat="41.70746" lon="44.78436">
        <ele>474.50118</ele>
        <time>2021-10-03T11:30:21.350Z</time>
      </trkpt>
      <trkpt lat="41.70646" lon="44.7871">
        <ele>469.771048</ele>
        <time>2021-10-03T11:31:02.340Z</time>
      </trkpt>
      <trkpt lat="41.70477" lon="44.78965">
        <ele>458.624187</ele>
        <time>2021-10-03T11:31:42.338Z</time>
      </trkpt>
      <trkpt lat="41.70306" lon="44.7915">
        <ele>450.932602</ele>
        <time>2021-10-03T11:32:25.348Z</time>
      </trkpt>
      <trkpt lat="41.70205" lon="44.79386">
        <ele>457.999494</ele>
        <time>2021-10-03T11:33:08.344Z</time>
      </trkpt>
      <trkpt lat="41.70022" lon="44.79644">
        <ele>452.271206</ele>
        <time>2021-10-03T11:33:48.354Z</time>
      </trkpt>
      <trkpt lat="41.6983" lon="44.79834">
        <ele>450.578</ele>
        <time>2021-10-03T11:34:28.346Z</time>
      </trkpt>
      <trkpt lat="41.69622" lon="44.79969">
        <ele>447.097263</ele>
        <time>2021-10-03T11:35:12.351Z</time>
      </trkpt>
      <trkpt lat="41.69385" lon="44.80098">
        <ele>442.038552</ele>
        <time>2021-10-03T11:35:53.356Z</time>
      </trkpt>
      <trkpt lat="41.69173" lon="44.80117">
        <ele>447.073942</ele>
        <time>2021-10-03T11:37:13.349Z</time>
      </trkpt>
      <trkpt lat="41.69074" lon="44.80122">
        <ele>447.073942</ele>
        <time>2021-10-03T11:41:50.152Z</time>
      </trkpt>
    </trkseg>
  </trk>
  <trk>
    <name><![CDATA[Tour d'Europe: étape 476]]></name>
    <extensions>
      <line xmlns="http://www.topografix.com/GPX/gpx_style/0/2">
        <color>FFFF00</color>
        <width>4</width>
      </line>
    </extensions>
    <trkseg>
      <trkpt lat="41.69053" lon="44.80136">
        <ele>454.177229</ele>
        <time>2021-10-17T05:00:00.028Z</time>
      </trkpt>
      <trkpt lat="41.69117" lon="44.80172">
        <ele>452.931093</ele>
        <time>2021-10-17T05:07:41.718Z</time>
      </trkpt>
      <trkpt lat="41.69042" lon="44.80391">
        <ele>442.903926</ele>
        <time>2021-10-17T05:08:56.761Z</time>
      </trkpt>
      <trkpt lat="41.69032" lon="44.80608">
        <ele>433.66934</ele>
        <time>2021-10-17T05:10:03.717Z</time>
      </trkpt>
      <trkpt lat="41.68986" lon="44.80864">
        <ele>430.997933</ele>
        <time>2021-10-17T05:19:56.722Z</time>
      </trkpt>
      <trkpt lat="41.68909" lon="44.81105">
        <ele>422.869484</ele>
        <time>2021-10-17T05:20:57.728Z</time>
      </trkpt>
      <trkpt lat="41.68875" lon="44.81388">
        <ele>425.900152</ele>
        <time>2021-10-17T05:21:53.721Z</time>
      </trkpt>
      <trkpt lat="41.68823" lon="44.81693">
        <ele>419.997764</ele>
        <time>2021-10-17T05:22:43.726Z</time>
      </trkpt>
      <trkpt lat="41.68705" lon="44.81937">
        <ele>412.693193</ele>
        <time>2021-10-17T05:23:33.732Z</time>
      </trkpt>
      <trkpt lat="41.68528" lon="44.82105">
        <ele>414.803651</ele>
        <time>2021-10-17T05:24:46.732Z</time>
      </trkpt>
      <trkpt lat="41.68354" lon="44.82289">
        <ele>420.565729</ele>
        <time>2021-10-17T05:25:44.745Z</time>
      </trkpt>
      <trkpt lat="41.68145" lon="44.82388">
        <ele>425.973794</ele>
        <time>2021-10-17T05:26:32.737Z</time>
      </trkpt>
      <trkpt lat="41.67946" lon="44.8246">
        <ele>425.693249</ele>
        <time>2021-10-17T05:27:42.728Z</time>
      </trkpt>
      <trkpt lat="41.67754" lon="44.8258">
        <ele>416.500696</ele>
        <time>2021-10-17T05:28:35.717Z</time>
      </trkpt>
      <trkpt lat="41.67594" lon="44.82761">
        <ele>409.6545</ele>
        <time>2021-10-17T05:29:26.729Z</time>
      </trkpt>
      <trkpt lat="41.67482" lon="44.82995">
        <ele>410.00858</ele>
        <time>2021-10-17T05:30:14.712Z</time>
      </trkpt>
      <trkpt lat="41.67332" lon="44.832">
        <ele>413.123663</ele>
        <time>2021-10-17T05:31:09.774Z</time>
      </trkpt>
      <trkpt lat="41.67226" lon="44.83424">
        <ele>423.201382</ele>
        <time>2021-10-17T05:32:32.719Z</time>
      </trkpt>
      <trkpt lat="41.67151" lon="44.83679">
        <ele>427.365423</ele>
        <time>2021-10-17T05:33:50.734Z</time>
      </trkpt>
      <trkpt lat="41.67106" lon="44.83968">
        <ele>421.096625</ele>
        <time>2021-10-17T05:34:42.762Z</time>
      </trkpt>
      <trkpt lat="41.67084" lon="44.84275">
        <ele>423.186362</ele>
        <time>2021-10-17T05:35:37.709Z</time>
      </trkpt>
      <trkpt lat="41.67062" lon="44.84558">
        <ele>425.143084</ele>
        <time>2021-10-17T05:36:21.745Z</time>
      </trkpt>
      <trkpt lat="41.67029" lon="44.84843">
        <ele>420.023342</ele>
        <time>2021-10-17T05:37:17.736Z</time>
      </trkpt>
      <trkpt lat="41.66991" lon="44.8519">
        <ele>410.96965</ele>
        <time>2021-10-17T05:37:57.728Z</time>
      </trkpt>
      <trkpt lat="41.66919" lon="44.85445">
        <ele>412.353499</ele>
        <time>2021-10-17T05:38:46.770Z</time>
      </trkpt>
      <trkpt lat="41.66869" lon="44.8571">
        <ele>409.120555</ele>
        <time>2021-10-17T05:39:57.756Z</time>
      </trkpt>
      <trkpt lat="41.66838" lon="44.85991">
        <ele>395.020655</ele>
        <time>2021-10-17T06:05:43.752Z</time>
      </trkpt>
      <trkpt lat="41.66787" lon="44.86289">
        <ele>389.977853</ele>
        <time>2021-10-17T06:06:23.733Z</time>
      </trkpt>
      <trkpt lat="41.66689" lon="44.86565">
        <ele>400.791723</ele>
        <time>2021-10-17T06:07:51.724Z</time>
      </trkpt>
      <trkpt lat="41.66588" lon="44.86803">
        <ele>414.415995</ele>
        <time>2021-10-17T06:09:06.753Z</time>
      </trkpt>
      <trkpt lat="41.66484" lon="44.87032">
        <ele>421.502222</ele>
        <time>2021-10-17T06:10:22.729Z</time>
      </trkpt>
      <trkpt lat="41.66372" lon="44.87324">
        <ele>424.429712</ele>
        <time>2021-10-17T06:13:31.757Z</time>
      </trkpt>
      <trkpt lat="41.66288" lon="44.87601">
        <ele>414.416407</ele>
        <time>2021-10-17T06:15:32.774Z</time>
      </trkpt>
      <trkpt lat="41.66215" lon="44.87897">
        <ele>407.827274</ele>
        <time>2021-10-17T06:16:12.773Z</time>
      </trkpt>
      <trkpt lat="41.66141" lon="44.8822">
        <ele>397.31909</ele>
        <time>2021-10-17T06:18:58.723Z</time>
      </trkpt>
      <trkpt lat="41.66056" lon="44.88508">
        <ele>405.72259</ele>
        <time>2021-10-17T06:19:41.722Z</time>
      </trkpt>
      <trkpt lat="41.65949" lon="44.88872">
        <ele>409.754951</ele>
        <time>2021-10-17T06:20:21.723Z</time>
      </trkpt>
      <trkpt lat="41.65818" lon="44.89075">
        <ele>418.995702</ele>
        <time>2021-10-17T06:21:27.736Z</time>
      </trkpt>
      <trkpt lat="41.65724" lon="44.89345">
        <ele>416.718607</ele>
        <time>2021-10-17T06:22:30.706Z</time>
      </trkpt>
      <trkpt lat="41.65578" lon="44.89578">
        <ele>418.057118</ele>
        <time>2021-10-17T06:23:27.724Z</time>
      </trkpt>
      <trkpt lat="41.65446" lon="44.89809">
        <ele>419.179791</ele>
        <time>2021-10-17T06:24:29.734Z</time>
      </trkpt>
      <trkpt lat="41.65319" lon="44.90075">
        <ele>419.043888</ele>
        <time>2021-10-17T06:25:28.733Z</time>
      </trkpt>
      <trkpt lat="41.65208" lon="44.90336">
        <ele>415.358397</ele>
        <time>2021-10-17T06:26:20.742Z</time>
      </trkpt>
      <trkpt lat="41.65042" lon="44.9047">
        <ele>425.3423</ele>
        <time>2021-10-17T06:27:36.707Z</time>
      </trkpt>
      <trkpt lat="41.64937" lon="44.90252">
        <ele>438.01298</ele>
        <time>2021-10-17T06:29:11.724Z</time>
      </trkpt>
      <trkpt lat="41.64805" lon="44.90034">
        <ele>448.804968</ele>
        <time>2021-10-17T06:30:40.725Z</time>
      </trkpt>
      <trkpt lat="41.64677" lon="44.89822">
        <ele>458.764812</ele>
        <time>2021-10-17T06:32:13.720Z</time>
      </trkpt>
      <trkpt lat="41.6456" lon="44.89595">
        <ele>466.897361</ele>
        <time>2021-10-17T06:33:41.758Z</time>
      </trkpt>
      <trkpt lat="41.64455" lon="44.89367">
        <ele>464.531291</ele>
        <time>2021-10-17T06:35:08.721Z</time>
      </trkpt>
      <trkpt lat="41.64361" lon="44.89146">
        <ele>466.796179</ele>
        <time>2021-10-17T06:36:25.731Z</time>
      </trkpt>
      <trkpt lat="41.64273" lon="44.88914">
        <ele>470.941871</ele>
        <time>2021-10-17T06:37:51.752Z</time>
      </trkpt>
      <trkpt lat="41.64188" lon="44.88677">
        <ele>476.14746</ele>
        <time>2021-10-17T06:39:14.738Z</time>
      </trkpt>
      <trkpt lat="41.64107" lon="44.88437">
        <ele>483.4018</ele>
        <time>2021-10-17T06:40:39.737Z</time>
      </trkpt>
      <trkpt lat="41.64021" lon="44.88196">
        <ele>481.96839</ele>
        <time>2021-10-17T06:42:05.742Z</time>
      </trkpt>
      <trkpt lat="41.63943" lon="44.87944">
        <ele>491.626439</ele>
        <time>2021-10-17T06:43:37.742Z</time>
      </trkpt>
      <trkpt lat="41.63871" lon="44.87705">
        <ele>501.56029</ele>
        <time>2021-10-17T06:45:06.761Z</time>
      </trkpt>
      <trkpt lat="41.63853" lon="44.87444">
        <ele>505.414582</ele>
        <time>2021-10-17T06:46:46.784Z</time>
      </trkpt>
      <trkpt lat="41.63878" lon="44.87182">
        <ele>517.608663</ele>
        <time>2021-10-17T06:48:31.749Z</time>
      </trkpt>
      <trkpt lat="41.63925" lon="44.86925">
        <ele>527.917877</ele>
        <time>2021-10-17T06:50:21.734Z</time>
      </trkpt>
      <trkpt lat="41.64" lon="44.86673">
        <ele>538.359069</ele>
        <time>2021-10-17T06:56:35.747Z</time>
      </trkpt>
      <trkpt lat="41.64073" lon="44.86428">
        <ele>552.342844</ele>
        <time>2021-10-17T06:58:31.727Z</time>
      </trkpt>
      <trkpt lat="41.64137" lon="44.86179">
        <ele>564.608241</ele>
        <time>2021-10-17T07:00:27.735Z</time>
      </trkpt>
      <trkpt lat="41.64193" lon="44.85925">
        <ele>575.862136</ele>
        <time>2021-10-17T07:02:28.747Z</time>
      </trkpt>
      <trkpt lat="41.64249" lon="44.85673">
        <ele>581.740321</ele>
        <time>2021-10-17T07:04:32.739Z</time>
      </trkpt>
      <trkpt lat="41.64307" lon="44.85422">
        <ele>590.335014</ele>
        <time>2021-10-17T07:06:33.750Z</time>
      </trkpt>
      <trkpt lat="41.6436" lon="44.85169">
        <ele>596.589593</ele>
        <time>2021-10-17T07:08:27.729Z</time>
      </trkpt>
      <trkpt lat="41.64379" lon="44.8491">
        <ele>612.491912</ele>
        <time>2021-10-17T07:10:16.730Z</time>
      </trkpt>
      <trkpt lat="41.64369" lon="44.8465">
        <ele>623.799458</ele>
        <time>2021-10-17T07:12:08.723Z</time>
      </trkpt>
      <trkpt lat="41.64352" lon="44.84403">
        <ele>632.893421</ele>
        <time>2021-10-17T07:14:01.734Z</time>
      </trkpt>
      <trkpt lat="41.64336" lon="44.84148">
        <ele>642.412498</ele>
        <time>2021-10-17T07:15:56.726Z</time>
      </trkpt>
      <trkpt lat="41.64298" lon="44.8389">
        <ele>651.35283</ele>
        <time>2021-10-17T07:17:45.733Z</time>
      </trkpt>
      <trkpt lat="41.64195" lon="44.83659">
        <ele>650.408129</ele>
        <time>2021-10-17T07:19:05.741Z</time>
      </trkpt>
      <trkpt lat="41.64073" lon="44.83414">
        <ele>650.018735</ele>
        <time>2021-10-17T07:20:07.759Z</time>
      </trkpt>
      <trkpt lat="41.63949" lon="44.83167">
        <ele>654.343072</ele>
        <time>2021-10-17T07:21:15.745Z</time>
      </trkpt>
      <trkpt lat="41.63835" lon="44.82943">
        <ele>658.57909</ele>
        <time>2021-10-17T07:22:48.737Z</time>
      </trkpt>
      <trkpt lat="41.63735" lon="44.82709">
        <ele>660.720943</ele>
        <time>2021-10-17T07:24:10.741Z</time>
      </trkpt>
      <trkpt lat="41.63635" lon="44.82456">
        <ele>660.251592</ele>
        <time>2021-10-17T07:25:26.738Z</time>
      </trkpt>
      <trkpt lat="41.63537" lon="44.8222">
        <ele>666.932837</ele>
        <time>2021-10-17T07:26:45.726Z</time>
      </trkpt>
      <trkpt lat="41.63443" lon="44.81978">
        <ele>675.81195</ele>
        <time>2021-10-17T07:28:11.756Z</time>
      </trkpt>
      <trkpt lat="41.63343" lon="44.81729">
        <ele>677.869011</ele>
        <time>2021-10-17T07:29:25.738Z</time>
      </trkpt>
      <trkpt lat="41.63242" lon="44.81485">
        <ele>678.663252</ele>
        <time>2021-10-17T07:30:26.746Z</time>
      </trkpt>
      <trkpt lat="41.63134" lon="44.81222">
        <ele>675.507604</ele>
        <time>2021-10-17T07:31:26.729Z</time>
      </trkpt>
      <trkpt lat="41.63008" lon="44.80985">
        <ele>685.265664</ele>
        <time>2021-10-17T07:32:24.717Z</time>
      </trkpt>
      <trkpt lat="41.62858" lon="44.80793">
        <ele>689.18583</ele>
        <time>2021-10-17T07:33:25.742Z</time>
      </trkpt>
      <trkpt lat="41.62657" lon="44.8062">
        <ele>686.667184</ele>
        <time>2021-10-17T07:34:11.730Z</time>
      </trkpt>
      <trkpt lat="41.62475" lon="44.80376">
        <ele>670.735326</ele>
        <time>2021-10-17T07:34:51.735Z</time>
      </trkpt>
      <trkpt lat="41.62296" lon="44.80096">
        <ele>637.615976</ele>
        <time>2021-10-17T07:35:31.730Z</time>
      </trkpt>
      <trkpt lat="41.62162" lon="44.79842">
        <ele>610.34903</ele>
        <time>2021-10-17T07:36:05.722Z</time>
      </trkpt>
      <trkpt lat="41.6205" lon="44.79572">
        <ele>593.270268</ele>
        <time>2021-10-17T07:36:30.741Z</time>
      </trkpt>
      <trkpt lat="41.61797" lon="44.79339">
        <ele>579.438714</ele>
        <time>2021-10-17T07:37:10.755Z</time>
      </trkpt>
      <trkpt lat="41.61534" lon="44.79099">
        <ele>569.879943</ele>
        <time>2021-10-17T07:37:50.744Z</time>
      </trkpt>
      <trkpt lat="41.61307" lon="44.78885">
        <ele>564.739419</ele>
        <time>2021-10-17T07:38:30.758Z</time>
      </trkpt>
      <trkpt lat="41.61106" lon="44.78698">
        <ele>564.684567</ele>
        <time>2021-10-17T07:39:10.744Z</time>
      </trkpt>
      <trkpt lat="41.60921" lon="44.78531">
        <ele>564.750835</ele>
        <time>2021-10-17T07:40:00.742Z</time>
      </trkpt>
      <trkpt lat="41.60745" lon="44.78364">
        <ele>562.996166</ele>
        <time>2021-10-17T07:40:43.753Z</time>
      </trkpt>
      <trkpt lat="41.60565" lon="44.78195">
        <ele>564.574312</ele>
        <time>2021-10-17T07:41:45.752Z</time>
      </trkpt>
      <trkpt lat="41.60396" lon="44.7804">
        <ele>568.620319</ele>
        <time>2021-10-17T07:42:57.742Z</time>
      </trkpt>
      <trkpt lat="41.60224" lon="44.77899">
        <ele>576.445598</ele>
        <time>2021-10-17T07:44:22.769Z</time>
      </trkpt>
      <trkpt lat="41.60032" lon="44.77845">
        <ele>584.406219</ele>
        <time>2021-10-17T07:46:11.733Z</time>
      </trkpt>
      <trkpt lat="41.59838" lon="44.7788">
        <ele>599.00541</ele>
        <time>2021-10-17T07:48:13.741Z</time>
      </trkpt>
      <trkpt lat="41.5965" lon="44.7796">
        <ele>611.151028</ele>
        <time>2021-10-17T07:50:10.743Z</time>
      </trkpt>
      <trkpt lat="41.59456" lon="44.78012">
        <ele>621.936721</ele>
        <time>2021-10-17T07:52:11.732Z</time>
      </trkpt>
      <trkpt lat="41.59264" lon="44.78036">
        <ele>635.329234</ele>
        <time>2021-10-17T07:54:13.742Z</time>
      </trkpt>
      <trkpt lat="41.59064" lon="44.7801">
        <ele>638.657894</ele>
        <time>2021-10-17T07:55:38.748Z</time>
      </trkpt>
      <trkpt lat="41.58798" lon="44.77939">
        <ele>631.550234</ele>
        <time>2021-10-17T07:56:22.744Z</time>
      </trkpt>
      <trkpt lat="41.58505" lon="44.77855">
        <ele>624.785791</ele>
        <time>2021-10-17T07:56:58.744Z</time>
      </trkpt>
      <trkpt lat="41.58268" lon="44.77709">
        <ele>622.284049</ele>
        <time>2021-10-17T07:57:28.729Z</time>
      </trkpt>
      <trkpt lat="41.58026" lon="44.77476">
        <ele>615.574105</ele>
        <time>2021-10-17T07:58:05.749Z</time>
      </trkpt>
      <trkpt lat="41.57719" lon="44.77463">
        <ele>607.551583</ele>
        <time>2021-10-17T07:58:45.746Z</time>
      </trkpt>
      <trkpt lat="41.57422" lon="44.7748">
        <ele>597.957757</ele>
        <time>2021-10-17T07:59:21.743Z</time>
      </trkpt>
      <trkpt lat="41.571" lon="44.775">
        <ele>589.045072</ele>
        <time>2021-10-17T08:00:00.726Z</time>
      </trkpt>
      <trkpt lat="41.56782" lon="44.77533">
        <ele>580.242323</ele>
        <time>2021-10-17T08:00:40.743Z</time>
      </trkpt>
      <trkpt lat="41.56479" lon="44.77555">
        <ele>574.327364</ele>
        <time>2021-10-17T08:01:20.734Z</time>
      </trkpt>
      <trkpt lat="41.56148" lon="44.77572">
        <ele>569.521825</ele>
        <time>2021-10-17T08:02:00.773Z</time>
      </trkpt>
      <trkpt lat="41.55823" lon="44.77594">
        <ele>566.296059</ele>
        <time>2021-10-17T08:02:40.777Z</time>
      </trkpt>
      <trkpt lat="41.55543" lon="44.7761">
        <ele>559.629836</ele>
        <time>2021-10-17T08:03:13.731Z</time>
      </trkpt>
      <trkpt lat="41.55222" lon="44.77627">
        <ele>551.16471</ele>
        <time>2021-10-17T08:03:51.732Z</time>
      </trkpt>
      <trkpt lat="41.54909" lon="44.77636">
        <ele>544.488282</ele>
        <time>2021-10-17T08:04:31.736Z</time>
      </trkpt>
      <trkpt lat="41.54626" lon="44.77651">
        <ele>539.103038</ele>
        <time>2021-10-17T08:05:11.738Z</time>
      </trkpt>
      <trkpt lat="41.54345" lon="44.77668">
        <ele>536.080107</ele>
        <time>2021-10-17T08:05:51.728Z</time>
      </trkpt>
      <trkpt lat="41.54075" lon="44.77681">
        <ele>533.528791</ele>
        <time>2021-10-17T08:06:31.757Z</time>
      </trkpt>
      <trkpt lat="41.53802" lon="44.77694">
        <ele>528.693164</ele>
        <time>2021-10-17T08:07:11.747Z</time>
      </trkpt>
      <trkpt lat="41.53503" lon="44.77706">
        <ele>522.035089</ele>
        <time>2021-10-17T08:07:51.753Z</time>
      </trkpt>
      <trkpt lat="41.53211" lon="44.77703">
        <ele>514.669592</ele>
        <time>2021-10-17T08:08:31.733Z</time>
      </trkpt>
      <trkpt lat="41.52927" lon="44.77703">
        <ele>510.346732</ele>
        <time>2021-10-17T08:09:11.730Z</time>
      </trkpt>
      <trkpt lat="41.52665" lon="44.77704">
        <ele>511.37215</ele>
        <time>2021-10-17T08:09:51.753Z</time>
      </trkpt>
      <trkpt lat="41.52467" lon="44.77754">
        <ele>513.478062</ele>
        <time>2021-10-17T08:10:57.739Z</time>
      </trkpt>
      <trkpt lat="41.52272" lon="44.77845">
        <ele>515.937925</ele>
        <time>2021-10-17T08:12:17.737Z</time>
      </trkpt>
      <trkpt lat="41.52085" lon="44.77996">
        <ele>512.072477</ele>
        <time>2021-10-17T08:13:01.736Z</time>
      </trkpt>
      <trkpt lat="41.51912" lon="44.78156">
        <ele>509.293699</ele>
        <time>2021-10-17T08:13:41.749Z</time>
      </trkpt>
      <trkpt lat="41.51741" lon="44.78315">
        <ele>512.603666</ele>
        <time>2021-10-17T08:14:37.758Z</time>
      </trkpt>
      <trkpt lat="41.51593" lon="44.78508">
        <ele>519.17034</ele>
        <time>2021-10-17T08:15:48.786Z</time>
      </trkpt>
      <trkpt lat="41.51457" lon="44.78723">
        <ele>519.100642</ele>
        <time>2021-10-17T08:17:00.742Z</time>
      </trkpt>
      <trkpt lat="41.51311" lon="44.7891">
        <ele>524.571099</ele>
        <time>2021-10-17T08:18:04.745Z</time>
      </trkpt>
      <trkpt lat="41.51134" lon="44.79105">
        <ele>522.427635</ele>
        <time>2021-10-17T08:19:04.741Z</time>
      </trkpt>
      <trkpt lat="41.50958" lon="44.79294">
        <ele>521.417919</ele>
        <time>2021-10-17T08:19:46.761Z</time>
      </trkpt>
      <trkpt lat="41.50771" lon="44.79493">
        <ele>521.384867</ele>
        <time>2021-10-17T08:20:26.743Z</time>
      </trkpt>
      <trkpt lat="41.50593" lon="44.79678">
        <ele>523.554036</ele>
        <time>2021-10-17T08:31:31.713Z</time>
      </trkpt>
      <trkpt lat="41.50443" lon="44.79921">
        <ele>516.622893</ele>
        <time>2021-10-17T08:32:11.725Z</time>
      </trkpt>
      <trkpt lat="41.50236" lon="44.80224">
        <ele>506.233504</ele>
        <time>2021-10-17T08:32:51.750Z</time>
      </trkpt>
      <trkpt lat="41.49962" lon="44.80334">
        <ele>489.542263</ele>
        <time>2021-10-17T08:33:28.750Z</time>
      </trkpt>
      <trkpt lat="41.49693" lon="44.80244">
        <ele>472.244375</ele>
        <time>2021-10-17T08:34:08.733Z</time>
      </trkpt>
      <trkpt lat="41.49423" lon="44.80195">
        <ele>463.221538</ele>
        <time>2021-10-17T08:34:48.789Z</time>
      </trkpt>
      <trkpt lat="41.49189" lon="44.80246">
        <ele>452.952231</ele>
        <time>2021-10-17T08:35:30.727Z</time>
      </trkpt>
      <trkpt lat="41.48986" lon="44.80026">
        <ele>442.513445</ele>
        <time>2021-10-17T08:36:10.726Z</time>
      </trkpt>
      <trkpt lat="41.48814" lon="44.79872">
        <ele>444.788326</ele>
        <time>2021-10-17T08:36:49.729Z</time>
      </trkpt>
      <trkpt lat="41.48624" lon="44.79951">
        <ele>450.111962</ele>
        <time>2021-10-17T08:37:36.748Z</time>
      </trkpt>
      <trkpt lat="41.48436" lon="44.80093">
        <ele>453.383121</ele>
        <time>2021-10-17T08:38:29.726Z</time>
      </trkpt>
      <trkpt lat="41.48241" lon="44.80098">
        <ele>445.058591</ele>
        <time>2021-10-17T08:41:26.817Z</time>
      </trkpt>
      <trkpt lat="41.48045" lon="44.7999">
        <ele>440.667843</ele>
        <time>2021-10-17T08:42:08.783Z</time>
      </trkpt>
      <trkpt lat="41.47851" lon="44.79884">
        <ele>437.880057</ele>
        <time>2021-10-17T08:43:00.746Z</time>
      </trkpt>
      <trkpt lat="41.47708" lon="44.79971">
        <ele>431.177438</ele>
        <time>2021-10-17T08:43:52.786Z</time>
      </trkpt>
      <trkpt lat="41.47666" lon="44.80265">
        <ele>429.025167</ele>
        <time>2021-10-17T08:44:44.759Z</time>
      </trkpt>
      <trkpt lat="41.47458" lon="44.80372">
        <ele>425.226344</ele>
        <time>2021-10-17T08:45:26.769Z</time>
      </trkpt>
      <trkpt lat="41.47242" lon="44.80458">
        <ele>424.60339</ele>
        <time>2021-10-17T08:46:06.737Z</time>
      </trkpt>
      <trkpt lat="41.47019" lon="44.80477">
        <ele>421.636645</ele>
        <time>2021-10-17T08:46:46.731Z</time>
      </trkpt>
      <trkpt lat="41.46777" lon="44.80446">
        <ele>416.8916</ele>
        <time>2021-10-17T08:47:26.748Z</time>
      </trkpt>
      <trkpt lat="41.46559" lon="44.80468">
        <ele>416.381446</ele>
        <time>2021-10-17T08:48:06.744Z</time>
      </trkpt>
      <trkpt lat="41.46446" lon="44.80713">
        <ele>417.229829</ele>
        <time>2021-10-17T08:48:46.730Z</time>
      </trkpt>
      <trkpt lat="41.46295" lon="44.80879">
        <ele>415.751851</ele>
        <time>2021-10-17T08:49:26.745Z</time>
      </trkpt>
      <trkpt lat="41.46079" lon="44.80959">
        <ele>416.035444</ele>
        <time>2021-10-17T08:50:06.741Z</time>
      </trkpt>
      <trkpt lat="41.4586" lon="44.81063">
        <ele>410.858466</ele>
        <time>2021-10-17T08:50:46.783Z</time>
      </trkpt>
      <trkpt lat="41.45632" lon="44.8115">
        <ele>405.095593</ele>
        <time>2021-10-17T08:51:26.737Z</time>
      </trkpt>
      <trkpt lat="41.45415" lon="44.81234">
        <ele>404.921864</ele>
        <time>2021-10-17T08:52:06.732Z</time>
      </trkpt>
      <trkpt lat="41.45216" lon="44.81306">
        <ele>405.006633</ele>
        <time>2021-10-17T08:52:44.759Z</time>
      </trkpt>
      <trkpt lat="41.44999" lon="44.81389">
        <ele>403.96269</ele>
        <time>2021-10-17T08:53:24.742Z</time>
      </trkpt>
      <trkpt lat="41.44777" lon="44.81472">
        <ele>399.740609</ele>
        <time>2021-10-17T08:54:04.745Z</time>
      </trkpt>
      <trkpt lat="41.44548" lon="44.81557">
        <ele>394.84122</ele>
        <time>2021-10-17T08:54:44.744Z</time>
      </trkpt>
      <trkpt lat="41.44317" lon="44.81644">
        <ele>394.178939</ele>
        <time>2021-10-17T08:55:24.750Z</time>
      </trkpt>
      <trkpt lat="41.44084" lon="44.81727">
        <ele>396.190259</ele>
        <time>2021-10-17T08:56:04.744Z</time>
      </trkpt>
      <trkpt lat="41.43872" lon="44.81805">
        <ele>394.952532</ele>
        <time>2021-10-17T08:56:44.769Z</time>
      </trkpt>
      <trkpt lat="41.43648" lon="44.81898">
        <ele>387.993313</ele>
        <time>2021-10-17T08:57:25.738Z</time>
      </trkpt>
      <trkpt lat="41.43411" lon="44.81987">
        <ele>386.681154</ele>
        <time>2021-10-17T08:58:05.752Z</time>
      </trkpt>
      <trkpt lat="41.43178" lon="44.82073">
        <ele>388.240367</ele>
        <time>2021-10-17T08:58:45.727Z</time>
      </trkpt>
      <trkpt lat="41.4294" lon="44.82162">
        <ele>385.470062</ele>
        <time>2021-10-17T08:59:25.754Z</time>
      </trkpt>
      <trkpt lat="41.42705" lon="44.8225">
        <ele>381.959514</ele>
        <time>2021-10-17T09:00:05.749Z</time>
      </trkpt>
      <trkpt lat="41.42483" lon="44.82334">
        <ele>380.372025</ele>
        <time>2021-10-17T09:00:45.743Z</time>
      </trkpt>
      <trkpt lat="41.42265" lon="44.82415">
        <ele>378.949894</ele>
        <time>2021-10-17T09:01:25.738Z</time>
      </trkpt>
      <trkpt lat="41.42053" lon="44.82494">
        <ele>375.693711</ele>
        <time>2021-10-17T09:02:05.729Z</time>
      </trkpt>
      <trkpt lat="41.41833" lon="44.82574">
        <ele>374.243805</ele>
        <time>2021-10-17T09:02:45.726Z</time>
      </trkpt>
      <trkpt lat="41.41628" lon="44.82657">
        <ele>374.377138</ele>
        <time>2021-10-17T09:03:26.755Z</time>
      </trkpt>
      <trkpt lat="41.41437" lon="44.82787">
        <ele>372.994574</ele>
        <time>2021-10-17T09:04:06.774Z</time>
      </trkpt>
      <trkpt lat="41.41237" lon="44.82939">
        <ele>369.233617</ele>
        <time>2021-10-17T09:04:46.734Z</time>
      </trkpt>
      <trkpt lat="41.41019" lon="44.83117">
        <ele>362.771551</ele>
        <time>2021-10-17T09:05:24.740Z</time>
      </trkpt>
      <trkpt lat="41.40758" lon="44.83115">
        <ele>361.965561</ele>
        <time>2021-10-17T09:06:04.722Z</time>
      </trkpt>
      <trkpt lat="41.40513" lon="44.83069">
        <ele>361.845603</ele>
        <time>2021-10-17T09:06:44.732Z</time>
      </trkpt>
      <trkpt lat="41.40308" lon="44.82985">
        <ele>362.898976</ele>
        <time>2021-10-17T09:07:24.750Z</time>
      </trkpt>
      <trkpt lat="41.40176" lon="44.82774">
        <ele>371.659801</ele>
        <time>2021-10-17T09:08:37.784Z</time>
      </trkpt>
      <trkpt lat="41.4007" lon="44.82537">
        <ele>375.968157</ele>
        <time>2021-10-17T09:09:49.744Z</time>
      </trkpt>
      <trkpt lat="41.39904" lon="44.82465">
        <ele>369.479741</ele>
        <time>2021-10-17T09:10:54.739Z</time>
      </trkpt>
      <trkpt lat="41.39692" lon="44.82591">
        <ele>362.821248</ele>
        <time>2021-10-17T09:11:50.745Z</time>
      </trkpt>
      <trkpt lat="41.39498" lon="44.82708">
        <ele>363.087339</ele>
        <time>2021-10-17T09:12:36.723Z</time>
      </trkpt>
      <trkpt lat="41.39283" lon="44.82779">
        <ele>372.153031</ele>
        <time>2021-10-17T09:13:37.745Z</time>
      </trkpt>
      <trkpt lat="41.39062" lon="44.82821">
        <ele>374.832582</ele>
        <time>2021-10-17T09:14:36.780Z</time>
      </trkpt>
      <trkpt lat="41.38843" lon="44.82871">
        <ele>375.585463</ele>
        <time>2021-10-17T09:15:36.737Z</time>
      </trkpt>
      <trkpt lat="41.38622" lon="44.82924">
        <ele>376.003098</ele>
        <time>2021-10-17T09:16:36.749Z</time>
      </trkpt>
      <trkpt lat="41.38407" lon="44.83008">
        <ele>375.521802</ele>
        <time>2021-10-17T09:17:36.745Z</time>
      </trkpt>
      <trkpt lat="41.38181" lon="44.83105">
        <ele>375.394294</ele>
        <time>2021-10-17T09:18:34.745Z</time>
      </trkpt>
      <trkpt lat="41.37989" lon="44.83201">
        <ele>374.918147</ele>
        <time>2021-10-17T09:19:14.737Z</time>
      </trkpt>
      <trkpt lat="41.37778" lon="44.83318">
        <ele>377.414979</ele>
        <time>2021-10-17T09:20:06.745Z</time>
      </trkpt>
      <trkpt lat="41.3757" lon="44.83414">
        <ele>380.544497</ele>
        <time>2021-10-17T09:20:57.748Z</time>
      </trkpt>
      <trkpt lat="41.37357" lon="44.83499">
        <ele>383.92798</ele>
        <time>2021-10-17T09:21:56.752Z</time>
      </trkpt>
      <trkpt lat="41.37168" lon="44.83596">
        <ele>387.910329</ele>
        <time>2021-10-17T09:23:17.743Z</time>
      </trkpt>
      <trkpt lat="41.36979" lon="44.83712">
        <ele>386.865119</ele>
        <time>2021-10-17T09:24:01.725Z</time>
      </trkpt>
      <trkpt lat="41.36791" lon="44.83835">
        <ele>385.925643</ele>
        <time>2021-10-17T09:24:47.729Z</time>
      </trkpt>
      <trkpt lat="41.36636" lon="44.84029">
        <ele>386.037965</ele>
        <time>2021-10-17T09:25:29.719Z</time>
      </trkpt>
      <trkpt lat="41.36475" lon="44.83866">
        <ele>398.177693</ele>
        <time>2021-10-17T09:26:53.755Z</time>
      </trkpt>
      <trkpt lat="41.36311" lon="44.83697">
        <ele>399.634442</ele>
        <time>2021-10-17T09:28:07.742Z</time>
      </trkpt>
      <trkpt lat="41.36139" lon="44.83522">
        <ele>396.246334</ele>
        <time>2021-10-17T09:28:50.744Z</time>
      </trkpt>
      <trkpt lat="41.35951" lon="44.83342">
        <ele>393.062248</ele>
        <time>2021-10-17T09:29:42.746Z</time>
      </trkpt>
      <trkpt lat="41.35797" lon="44.83179">
        <ele>395.459887</ele>
        <time>2021-10-17T09:30:24.782Z</time>
      </trkpt>
      <trkpt lat="41.35649" lon="44.82991">
        <ele>403.944566</ele>
        <time>2021-10-17T09:31:14.772Z</time>
      </trkpt>
      <trkpt lat="41.3553" lon="44.82763">
        <ele>409.302959</ele>
        <time>2021-10-17T09:32:26.746Z</time>
      </trkpt>
      <trkpt lat="41.35436" lon="44.82513">
        <ele>411.872943</ele>
        <time>2021-10-17T09:34:01.762Z</time>
      </trkpt>
      <trkpt lat="41.35374" lon="44.8226">
        <ele>416.028455</ele>
        <time>2021-10-17T09:35:44.752Z</time>
      </trkpt>
      <trkpt lat="41.35226" lon="44.82066">
        <ele>414.342358</ele>
        <time>2021-10-17T09:37:01.726Z</time>
      </trkpt>
      <trkpt lat="41.34993" lon="44.81886">
        <ele>406.857385</ele>
        <time>2021-10-17T09:37:41.746Z</time>
      </trkpt>
      <trkpt lat="41.34809" lon="44.81747">
        <ele>405.600869</ele>
        <time>2021-10-17T09:38:25.729Z</time>
      </trkpt>
      <trkpt lat="41.34629" lon="44.81617">
        <ele>405.364897</ele>
        <time>2021-10-17T09:39:07.742Z</time>
      </trkpt>
      <trkpt lat="41.34421" lon="44.81458">
        <ele>405.874997</ele>
        <time>2021-10-17T09:40:02.742Z</time>
      </trkpt>
      <trkpt lat="41.34222" lon="44.81306">
        <ele>404.70911</ele>
        <time>2021-10-17T09:40:43.744Z</time>
      </trkpt>
      <trkpt lat="41.34033" lon="44.81164">
        <ele>402.181119</ele>
        <time>2021-10-17T09:41:23.748Z</time>
      </trkpt>
      <trkpt lat="41.33863" lon="44.81035">
        <ele>402.556378</ele>
        <time>2021-10-17T09:42:05.753Z</time>
      </trkpt>
      <trkpt lat="41.33674" lon="44.80892">
        <ele>403.583838</ele>
        <time>2021-10-17T09:42:53.743Z</time>
      </trkpt>
      <trkpt lat="41.33495" lon="44.80754">
        <ele>405.231724</ele>
        <time>2021-10-17T09:43:38.738Z</time>
      </trkpt>
      <trkpt lat="41.33317" lon="44.80617">
        <ele>404.960964</ele>
        <time>2021-10-17T09:44:24.741Z</time>
      </trkpt>
      <trkpt lat="41.33125" lon="44.8047">
        <ele>406.284991</ele>
        <time>2021-10-17T09:45:14.730Z</time>
      </trkpt>
      <trkpt lat="41.32945" lon="44.80306">
        <ele>405.122038</ele>
        <time>2021-10-17T09:45:57.742Z</time>
      </trkpt>
      <trkpt lat="41.3277" lon="44.8019">
        <ele>406.264162</ele>
        <time>2021-10-17T09:46:37.759Z</time>
      </trkpt>
      <trkpt lat="41.32566" lon="44.80052">
        <ele>411.00841</ele>
        <time>2021-10-17T09:47:17.758Z</time>
      </trkpt>
      <trkpt lat="41.32376" lon="44.79954">
        <ele>409.711753</ele>
        <time>2021-10-17T09:47:57.741Z</time>
      </trkpt>
      <trkpt lat="41.3222" lon="44.79773">
        <ele>409.690392</ele>
        <time>2021-10-17T09:48:39.767Z</time>
      </trkpt>
      <trkpt lat="41.32028" lon="44.79621">
        <ele>408.961568</ele>
        <time>2021-10-17T09:49:31.748Z</time>
      </trkpt>
      <trkpt lat="41.31835" lon="44.79486">
        <ele>411.013634</ele>
        <time>2021-10-17T09:50:21.742Z</time>
      </trkpt>
      <trkpt lat="41.31652" lon="44.79351">
        <ele>411.290481</ele>
        <time>2021-10-17T09:51:07.759Z</time>
      </trkpt>
      <trkpt lat="41.31449" lon="44.7933">
        <ele>408.712102</ele>
        <time>2021-10-17T09:51:48.752Z</time>
      </trkpt>
      <trkpt lat="41.31248" lon="44.79267">
        <ele>409.970899</ele>
        <time>2021-10-17T09:52:28.740Z</time>
      </trkpt>
      <trkpt lat="41.3105" lon="44.79211">
        <ele>409.74311</ele>
        <time>2021-10-17T09:53:08.733Z</time>
      </trkpt>
      <trkpt lat="41.3083" lon="44.79166">
        <ele>412.882186</ele>
        <time>2021-10-17T09:53:59.744Z</time>
      </trkpt>
      <trkpt lat="41.30609" lon="44.7912">
        <ele>414.423444</ele>
        <time>2021-10-17T09:54:50.742Z</time>
      </trkpt>
      <trkpt lat="41.30419" lon="44.78992">
        <ele>416.309182</ele>
        <time>2021-10-17T09:55:31.747Z</time>
      </trkpt>
      <trkpt lat="41.30223" lon="44.78966">
        <ele>413.288204</ele>
        <time>2021-10-17T09:56:09.744Z</time>
      </trkpt>
      <trkpt lat="41.30029" lon="44.78926">
        <ele>413.68936</ele>
        <time>2021-10-17T09:56:51.766Z</time>
      </trkpt>
      <trkpt lat="41.29819" lon="44.78888">
        <ele>417.654389</ele>
        <time>2021-10-17T09:57:33.736Z</time>
      </trkpt>
      <trkpt lat="41.29615" lon="44.78893">
        <ele>422.544866</ele>
        <time>2021-10-17T09:58:51.732Z</time>
      </trkpt>
      <trkpt lat="41.29407" lon="44.78805">
        <ele>425.077818</ele>
        <time>2021-10-17T09:59:52.749Z</time>
      </trkpt>
      <trkpt lat="41.29182" lon="44.78802">
        <ele>425.251583</ele>
        <time>2021-10-17T10:00:45.773Z</time>
      </trkpt>
      <trkpt lat="41.28965" lon="44.78846">
        <ele>421.873923</ele>
        <time>2021-10-17T10:01:29.756Z</time>
      </trkpt>
      <trkpt lat="41.28767" lon="44.78919">
        <ele>421.836437</ele>
        <time>2021-10-17T10:02:10.751Z</time>
      </trkpt>
      <trkpt lat="41.28564" lon="44.79005">
        <ele>425.412101</ele>
        <time>2021-10-17T10:03:07.787Z</time>
      </trkpt>
      <trkpt lat="41.28342" lon="44.79062">
        <ele>425.42714</ele>
        <time>2021-10-17T10:03:52.782Z</time>
      </trkpt>
      <trkpt lat="41.28119" lon="44.79087">
        <ele>429.051789</ele>
        <time>2021-10-17T10:04:56.754Z</time>
      </trkpt>
      <trkpt lat="41.27874" lon="44.7908">
        <ele>427.837888</ele>
        <time>2021-10-17T10:05:39.742Z</time>
      </trkpt>
      <trkpt lat="41.27656" lon="44.79088">
        <ele>428.089224</ele>
        <time>2021-10-17T10:06:26.727Z</time>
      </trkpt>
      <trkpt lat="41.27431" lon="44.79048">
        <ele>428.345147</ele>
        <time>2021-10-17T10:07:20.773Z</time>
      </trkpt>
      <trkpt lat="41.27202" lon="44.7906">
        <ele>433.734722</ele>
        <time>2021-10-17T10:08:16.730Z</time>
      </trkpt>
      <trkpt lat="41.26996" lon="44.79081">
        <ele>433.936968</ele>
        <time>2021-10-17T10:09:00.801Z</time>
      </trkpt>
      <trkpt lat="41.26785" lon="44.79134">
        <ele>436.411447</ele>
        <time>2021-10-17T10:10:05.754Z</time>
      </trkpt>
      <trkpt lat="41.26572" lon="44.79229">
        <ele>437.595522</ele>
        <time>2021-10-17T10:11:02.747Z</time>
      </trkpt>
      <trkpt lat="41.26406" lon="44.79424">
        <ele>437.699864</ele>
        <time>2021-10-17T10:11:54.746Z</time>
      </trkpt>
      <trkpt lat="41.26227" lon="44.79525">
        <ele>440.924234</ele>
        <time>2021-10-17T10:12:36.752Z</time>
      </trkpt>
      <trkpt lat="41.26018" lon="44.79617">
        <ele>440.590834</ele>
        <time>2021-10-17T10:13:26.734Z</time>
      </trkpt>
      <trkpt lat="41.25814" lon="44.79689">
        <ele>439.132709</ele>
        <time>2021-10-17T10:14:12.748Z</time>
      </trkpt>
      <trkpt lat="41.25626" lon="44.79794">
        <ele>440.005934</ele>
        <time>2021-10-17T10:14:55.747Z</time>
      </trkpt>
      <trkpt lat="41.2546" lon="44.79971">
        <ele>441.428699</ele>
        <time>2021-10-17T10:15:38.742Z</time>
      </trkpt>
      <trkpt lat="41.25251" lon="44.79962">
        <ele>442.027288</ele>
        <time>2021-10-17T10:16:23.779Z</time>
      </trkpt>
      <trkpt lat="41.25044" lon="44.79982">
        <ele>440.777585</ele>
        <time>2021-10-17T10:17:06.758Z</time>
      </trkpt>
      <trkpt lat="41.2482" lon="44.79963">
        <ele>447.483192</ele>
        <time>2021-10-17T10:17:59.744Z</time>
      </trkpt>
      <trkpt lat="41.24624" lon="44.7991">
        <ele>453.640985</ele>
        <time>2021-10-17T10:18:59.731Z</time>
      </trkpt>
      <trkpt lat="41.24459" lon="44.7978">
        <ele>458.98917</ele>
        <time>2021-10-17T10:20:09.741Z</time>
      </trkpt>
      <trkpt lat="41.24265" lon="44.79861">
        <ele>464.954904</ele>
        <time>2021-10-17T10:21:38.748Z</time>
      </trkpt>
      <trkpt lat="41.24087" lon="44.80027">
        <ele>464.374854</ele>
        <time>2021-10-17T10:22:44.740Z</time>
      </trkpt>
      <trkpt lat="41.23908" lon="44.80213">
        <ele>464.588246</ele>
        <time>2021-10-17T10:23:36.784Z</time>
      </trkpt>
      <trkpt lat="41.23748" lon="44.8039">
        <ele>470.438783</ele>
        <time>2021-10-17T10:24:46.744Z</time>
      </trkpt>
      <trkpt lat="41.23643" lon="44.80619">
        <ele>473.851996</ele>
        <time>2021-10-17T10:26:05.756Z</time>
      </trkpt>
      <trkpt lat="41.23519" lon="44.80909">
        <ele>467.076541</ele>
        <time>2021-10-17T10:26:50.721Z</time>
      </trkpt>
      <trkpt lat="41.2341" lon="44.81141">
        <ele>458.680168</ele>
        <time>2021-10-17T10:27:11.753Z</time>
      </trkpt>
      <trkpt lat="41.23343" lon="44.81432">
        <ele>457.027015</ele>
        <time>2021-10-17T10:28:01.772Z</time>
      </trkpt>
      <trkpt lat="41.23232" lon="44.81685">
        <ele>460.657865</ele>
        <time>2021-10-17T10:28:48.748Z</time>
      </trkpt>
      <trkpt lat="41.23103" lon="44.81902">
        <ele>459.641816</ele>
        <time>2021-10-17T10:29:30.758Z</time>
      </trkpt>
      <trkpt lat="41.22995" lon="44.82153">
        <ele>456.026357</ele>
        <time>2021-10-17T10:30:18.755Z</time>
      </trkpt>
      <trkpt lat="41.22883" lon="44.8245">
        <ele>449.917575</ele>
        <time>2021-10-17T10:30:58.749Z</time>
      </trkpt>
      <trkpt lat="41.2283" lon="44.82759">
        <ele>449.265237</ele>
        <time>2021-10-17T10:31:52.749Z</time>
      </trkpt>
      <trkpt lat="41.22777" lon="44.83028">
        <ele>458.7595</ele>
        <time>2021-10-17T10:33:18.727Z</time>
      </trkpt>
      <trkpt lat="41.22842" lon="44.83283">
        <ele>461.871193</ele>
        <time>2021-10-17T10:38:59.742Z</time>
      </trkpt>
      <trkpt lat="41.2301" lon="44.8345">
        <ele>462.836534</ele>
        <time>2021-10-17T10:39:49.727Z</time>
      </trkpt>
      <trkpt lat="41.23121" lon="44.83649">
        <ele>467.33648</ele>
        <time>2021-10-17T10:46:01.737Z</time>
      </trkpt>
      <trkpt lat="41.2312" lon="44.83804">
        <ele>468.250594</ele>
        <time>2021-10-17T10:49:30.743Z</time>
      </trkpt>
      <trkpt lat="41.23025" lon="44.8365">
        <ele>464.880639</ele>
        <time>2021-10-17T10:53:03.736Z</time>
      </trkpt>
      <trkpt lat="41.22987" lon="44.83575">
        <ele>464.880639</ele>
        <time>2021-10-17T11:12:11.942Z</time>
      </trkpt>
    </trkseg>
  </trk>
  <trk>
    <name><![CDATA[Tour d'Europe: étape 477]]></name>
    <extensions>
      <line xmlns="http://www.topografix.com/GPX/gpx_style/0/2">
        <color>FF00FF</color>
        <width>4</width>
      </line>
    </extensions>
    <trkseg>
      <trkpt lat="41.2299" lon="44.83576">
        <ele>466.979773</ele>
        <time>2021-10-18T04:49:49.796Z</time>
      </trkpt>
      <trkpt lat="41.23028" lon="44.83675">
        <ele>467.782438</ele>
        <time>2021-10-18T04:53:27.892Z</time>
      </trkpt>
      <trkpt lat="41.23006" lon="44.83958">
        <ele>472.148239</ele>
        <time>2021-10-18T04:54:43.877Z</time>
      </trkpt>
      <trkpt lat="41.23051" lon="44.84235">
        <ele>470.697929</ele>
        <time>2021-10-18T04:55:42.860Z</time>
      </trkpt>
      <trkpt lat="41.23075" lon="44.84525">
        <ele>470.387832</ele>
        <time>2021-10-18T04:56:35.870Z</time>
      </trkpt>
      <trkpt lat="41.23068" lon="44.84844">
        <ele>465.937058</ele>
        <time>2021-10-18T04:57:22.864Z</time>
      </trkpt>
      <trkpt lat="41.22964" lon="44.85137">
        <ele>468.352974</ele>
        <time>2021-10-18T04:58:20.861Z</time>
      </trkpt>
      <trkpt lat="41.22885" lon="44.85389">
        <ele>479.584487</ele>
        <time>2021-10-18T05:00:01.927Z</time>
      </trkpt>
      <trkpt lat="41.22776" lon="44.8564">
        <ele>478.471223</ele>
        <time>2021-10-18T05:01:04.880Z</time>
      </trkpt>
      <trkpt lat="41.22608" lon="44.85806">
        <ele>478.976514</ele>
        <time>2021-10-18T05:01:59.888Z</time>
      </trkpt>
      <trkpt lat="41.22475" lon="44.86019">
        <ele>483.741063</ele>
        <time>2021-10-18T05:03:09.865Z</time>
      </trkpt>
      <trkpt lat="41.22449" lon="44.86338">
        <ele>474.883306</ele>
        <time>2021-10-18T05:03:49.885Z</time>
      </trkpt>
      <trkpt lat="41.22255" lon="44.86485">
        <ele>469.322429</ele>
        <time>2021-10-18T05:04:13.857Z</time>
      </trkpt>
      <trkpt lat="41.22044" lon="44.86598">
        <ele>471.838831</ele>
        <time>2021-10-18T05:04:54.917Z</time>
      </trkpt>
      <trkpt lat="41.2186" lon="44.8672">
        <ele>474.402921</ele>
        <time>2021-10-18T05:05:37.862Z</time>
      </trkpt>
      <trkpt lat="41.21821" lon="44.8701">
        <ele>477.902023</ele>
        <time>2021-10-18T05:06:37.878Z</time>
      </trkpt>
      <trkpt lat="41.21951" lon="44.87254">
        <ele>473.593647</ele>
        <time>2021-10-18T05:07:31.895Z</time>
      </trkpt>
      <trkpt lat="41.2197" lon="44.87535">
        <ele>479.672182</ele>
        <time>2021-10-18T05:08:32.864Z</time>
      </trkpt>
      <trkpt lat="41.21961" lon="44.87818">
        <ele>482.821221</ele>
        <time>2021-10-18T05:09:32.868Z</time>
      </trkpt>
      <trkpt lat="41.22106" lon="44.88063">
        <ele>478.464061</ele>
        <time>2021-10-18T05:10:31.855Z</time>
      </trkpt>
      <trkpt lat="41.22174" lon="44.88367">
        <ele>477.723521</ele>
        <time>2021-10-18T05:11:31.912Z</time>
      </trkpt>
      <trkpt lat="41.22194" lon="44.88681">
        <ele>484.427996</ele>
        <time>2021-10-18T05:12:31.850Z</time>
      </trkpt>
      <trkpt lat="41.22194" lon="44.89014">
        <ele>483.500081</ele>
        <time>2021-10-18T05:13:34.844Z</time>
      </trkpt>
      <trkpt lat="41.2211" lon="44.89267">
        <ele>480.293734</ele>
        <time>2021-10-18T05:14:36.871Z</time>
      </trkpt>
      <trkpt lat="41.21896" lon="44.8941">
        <ele>483.464107</ele>
        <time>2021-10-18T05:15:34.897Z</time>
      </trkpt>
      <trkpt lat="41.2169" lon="44.89546">
        <ele>486.00737</ele>
        <time>2021-10-18T05:16:34.873Z</time>
      </trkpt>
      <trkpt lat="41.21508" lon="44.89671">
        <ele>489.247552</ele>
        <time>2021-10-18T05:17:44.866Z</time>
      </trkpt>
      <trkpt lat="41.2138" lon="44.89895">
        <ele>490.25545</ele>
        <time>2021-10-18T05:18:53.857Z</time>
      </trkpt>
      <trkpt lat="41.21243" lon="44.90135">
        <ele>495.0093</ele>
        <time>2021-10-18T05:19:55.872Z</time>
      </trkpt>
      <trkpt lat="41.21034" lon="44.90263">
        <ele>491.87474</ele>
        <time>2021-10-18T05:20:50.865Z</time>
      </trkpt>
      <trkpt lat="41.20838" lon="44.90405">
        <ele>493.931055</ele>
        <time>2021-10-18T05:21:50.891Z</time>
      </trkpt>
      <trkpt lat="41.20707" lon="44.90607">
        <ele>501.378135</ele>
        <time>2021-10-18T05:22:52.874Z</time>
      </trkpt>
      <trkpt lat="41.20513" lon="44.9055">
        <ele>501.824788</ele>
        <time>2021-10-18T05:23:57.854Z</time>
      </trkpt>
      <trkpt lat="41.20315" lon="44.9055">
        <ele>501.518458</ele>
        <time>2021-10-18T05:25:09.857Z</time>
      </trkpt>
      <trkpt lat="41.20134" lon="44.9069">
        <ele>504.64104</ele>
        <time>2021-10-18T05:26:30.880Z</time>
      </trkpt>
      <trkpt lat="41.19954" lon="44.90773">
        <ele>508.566194</ele>
        <time>2021-10-18T05:27:30.873Z</time>
      </trkpt>
      <trkpt lat="41.19752" lon="44.90702">
        <ele>511.400642</ele>
        <time>2021-10-18T05:28:42.930Z</time>
      </trkpt>
      <trkpt lat="41.19583" lon="44.90554">
        <ele>512.622792</ele>
        <time>2021-10-18T05:29:32.871Z</time>
      </trkpt>
      <trkpt lat="41.19456" lon="44.90344">
        <ele>516.237822</ele>
        <time>2021-10-18T05:30:34.864Z</time>
      </trkpt>
      <trkpt lat="41.19223" lon="44.90377">
        <ele>512.402133</ele>
        <time>2021-10-18T05:31:25.878Z</time>
      </trkpt>
      <trkpt lat="41.19089" lon="44.90114">
        <ele>509.221995</ele>
        <time>2021-10-18T05:32:07.875Z</time>
      </trkpt>
      <trkpt lat="41.18959" lon="44.89883">
        <ele>510.770689</ele>
        <time>2021-10-18T05:33:06.859Z</time>
      </trkpt>
      <trkpt lat="41.18904" lon="44.89584">
        <ele>505.291657</ele>
        <time>2021-10-18T05:33:54.881Z</time>
      </trkpt>
      <trkpt lat="41.18815" lon="44.89333">
        <ele>507.208115</ele>
        <time>2021-10-18T05:34:54.870Z</time>
      </trkpt>
      <trkpt lat="41.18682" lon="44.89092">
        <ele>509.915699</ele>
        <time>2021-10-18T05:35:50.873Z</time>
      </trkpt>
      <trkpt lat="41.18533" lon="44.88871">
        <ele>513.773339</ele>
        <time>2021-10-18T05:36:50.860Z</time>
      </trkpt>
      <trkpt lat="41.18388" lon="44.88689">
        <ele>527.050403</ele>
        <time>2021-10-18T05:38:32.864Z</time>
      </trkpt>
      <trkpt lat="41.18192" lon="44.8865">
        <ele>539.106219</ele>
        <time>2021-10-18T05:40:15.864Z</time>
      </trkpt>
      <trkpt lat="41.1798" lon="44.88613">
        <ele>542.027836</ele>
        <time>2021-10-18T05:41:25.875Z</time>
      </trkpt>
      <trkpt lat="41.17827" lon="44.88408">
        <ele>538.699462</ele>
        <time>2021-10-18T05:42:16.868Z</time>
      </trkpt>
      <trkpt lat="41.17681" lon="44.88166">
        <ele>536.781641</ele>
        <time>2021-10-18T05:43:11.908Z</time>
      </trkpt>
      <trkpt lat="41.17644" lon="44.87889">
        <ele>537.798483</ele>
        <time>2021-10-18T05:44:12.860Z</time>
      </trkpt>
      <trkpt lat="41.17739" lon="44.87624">
        <ele>543.254578</ele>
        <time>2021-10-18T05:45:14.873Z</time>
      </trkpt>
      <trkpt lat="41.17879" lon="44.8738">
        <ele>542.822046</ele>
        <time>2021-10-18T05:46:14.870Z</time>
      </trkpt>
      <trkpt lat="41.18006" lon="44.87132">
        <ele>540.586943</ele>
        <time>2021-10-18T05:47:08.881Z</time>
      </trkpt>
      <trkpt lat="41.18102" lon="44.86865">
        <ele>537.517238</ele>
        <time>2021-10-18T05:47:56.879Z</time>
      </trkpt>
      <trkpt lat="41.18153" lon="44.86589">
        <ele>532.146899</ele>
        <time>2021-10-18T05:48:36.870Z</time>
      </trkpt>
      <trkpt lat="41.18091" lon="44.86342">
        <ele>532.501259</ele>
        <time>2021-10-18T05:49:47.878Z</time>
      </trkpt>
      <trkpt lat="41.17922" lon="44.86184">
        <ele>536.477873</ele>
        <time>2021-10-18T05:50:50.915Z</time>
      </trkpt>
      <trkpt lat="41.17774" lon="44.85993">
        <ele>542.458132</ele>
        <time>2021-10-18T05:51:53.877Z</time>
      </trkpt>
      <trkpt lat="41.17669" lon="44.85751">
        <ele>543.100811</ele>
        <time>2021-10-18T05:53:00.870Z</time>
      </trkpt>
      <trkpt lat="41.17579" lon="44.8551">
        <ele>547.207338</ele>
        <time>2021-10-18T05:54:07.871Z</time>
      </trkpt>
      <trkpt lat="41.17442" lon="44.85285">
        <ele>551.46423</ele>
        <time>2021-10-18T05:55:21.871Z</time>
      </trkpt>
      <trkpt lat="41.17281" lon="44.85126">
        <ele>547.280886</ele>
        <time>2021-10-18T05:56:50.874Z</time>
      </trkpt>
      <trkpt lat="41.1712" lon="44.84956">
        <ele>552.77576</ele>
        <time>2021-10-18T05:58:23.864Z</time>
      </trkpt>
      <trkpt lat="41.1696" lon="44.84767">
        <ele>558.919087</ele>
        <time>2021-10-18T05:59:48.875Z</time>
      </trkpt>
      <trkpt lat="41.16811" lon="44.8457">
        <ele>559.377704</ele>
        <time>2021-10-18T06:01:08.869Z</time>
      </trkpt>
      <trkpt lat="41.16663" lon="44.84376">
        <ele>571.18193</ele>
        <time>2021-10-18T06:02:39.858Z</time>
      </trkpt>
      <trkpt lat="41.16499" lon="44.84198">
        <ele>578.946961</ele>
        <time>2021-10-18T06:03:52.860Z</time>
      </trkpt>
      <trkpt lat="41.16316" lon="44.84041">
        <ele>571.371516</ele>
        <time>2021-10-18T06:04:46.866Z</time>
      </trkpt>
      <trkpt lat="41.16112" lon="44.83913">
        <ele>572.209976</ele>
        <time>2021-10-18T06:05:46.886Z</time>
      </trkpt>
      <trkpt lat="41.15889" lon="44.83783">
        <ele>567.395995</ele>
        <time>2021-10-18T06:06:44.868Z</time>
      </trkpt>
      <trkpt lat="41.15657" lon="44.83702">
        <ele>562.894048</ele>
        <time>2021-10-18T06:07:43.874Z</time>
      </trkpt>
      <trkpt lat="41.15442" lon="44.83725">
        <ele>571.884697</ele>
        <time>2021-10-18T06:08:51.871Z</time>
      </trkpt>
      <trkpt lat="41.1524" lon="44.83648">
        <ele>580.612438</ele>
        <time>2021-10-18T06:10:11.877Z</time>
      </trkpt>
      <trkpt lat="41.15103" lon="44.83448">
        <ele>589.827043</ele>
        <time>2021-10-18T06:11:32.867Z</time>
      </trkpt>
      <trkpt lat="41.15064" lon="44.83183">
        <ele>576.560462</ele>
        <time>2021-10-18T06:12:35.923Z</time>
      </trkpt>
      <trkpt lat="41.15092" lon="44.82877">
        <ele>569.556407</ele>
        <time>2021-10-18T06:13:47.872Z</time>
      </trkpt>
      <trkpt lat="41.14971" lon="44.8266">
        <ele>582.934017</ele>
        <time>2021-10-18T06:14:53.917Z</time>
      </trkpt>
      <trkpt lat="41.14848" lon="44.82443">
        <ele>591.890461</ele>
        <time>2021-10-18T06:16:08.880Z</time>
      </trkpt>
      <trkpt lat="41.14818" lon="44.82173">
        <ele>566.915463</ele>
        <time>2021-10-18T06:17:30.901Z</time>
      </trkpt>
      <trkpt lat="41.14812" lon="44.81907">
        <ele>570.316303</ele>
        <time>2021-10-18T06:18:52.879Z</time>
      </trkpt>
      <trkpt lat="41.14724" lon="44.81664">
        <ele>591.525859</ele>
        <time>2021-10-18T06:20:17.868Z</time>
      </trkpt>
      <trkpt lat="41.14571" lon="44.81451">
        <ele>588.918536</ele>
        <time>2021-10-18T06:21:40.902Z</time>
      </trkpt>
      <trkpt lat="41.14451" lon="44.81224">
        <ele>599.840674</ele>
        <time>2021-10-18T06:24:41.876Z</time>
      </trkpt>
      <trkpt lat="41.14349" lon="44.81">
        <ele>619.683714</ele>
        <time>2021-10-18T06:26:55.877Z</time>
      </trkpt>
      <trkpt lat="41.14266" lon="44.80756">
        <ele>625.634133</ele>
        <time>2021-10-18T06:28:21.879Z</time>
      </trkpt>
      <trkpt lat="41.14211" lon="44.80491">
        <ele>613.589069</ele>
        <time>2021-10-18T06:29:39.872Z</time>
      </trkpt>
      <trkpt lat="41.14225" lon="44.80219">
        <ele>592.880088</ele>
        <time>2021-10-18T06:30:51.882Z</time>
      </trkpt>
      <trkpt lat="41.14228" lon="44.79934">
        <ele>597.239968</ele>
        <time>2021-10-18T06:32:13.879Z</time>
      </trkpt>
      <trkpt lat="41.14295" lon="44.7972">
        <ele>592.914908</ele>
        <time>2021-10-18T06:33:21.856Z</time>
      </trkpt>
      <trkpt lat="41.14492" lon="44.79653">
        <ele>593.233581</ele>
        <time>2021-10-18T06:34:50.868Z</time>
      </trkpt>
      <trkpt lat="41.14618" lon="44.79439">
        <ele>594.338818</ele>
        <time>2021-10-18T06:36:00.895Z</time>
      </trkpt>
      <trkpt lat="41.1476" lon="44.79234">
        <ele>587.848747</ele>
        <time>2021-10-18T06:37:00.885Z</time>
      </trkpt>
      <trkpt lat="41.1485" lon="44.78987">
        <ele>586.229214</ele>
        <time>2021-10-18T06:38:02.893Z</time>
      </trkpt>
      <trkpt lat="41.14815" lon="44.78703">
        <ele>595.015126</ele>
        <time>2021-10-18T06:39:09.879Z</time>
      </trkpt>
      <trkpt lat="41.14785" lon="44.7843">
        <ele>602.472911</ele>
        <time>2021-10-18T06:40:41.871Z</time>
      </trkpt>
      <trkpt lat="41.14765" lon="44.78159">
        <ele>603.674533</ele>
        <time>2021-10-18T06:41:48.880Z</time>
      </trkpt>
      <trkpt lat="41.14609" lon="44.7801">
        <ele>616.197636</ele>
        <time>2021-10-18T06:42:53.919Z</time>
      </trkpt>
      <trkpt lat="41.14416" lon="44.77917">
        <ele>622.309731</ele>
        <time>2021-10-18T06:44:12.876Z</time>
      </trkpt>
      <trkpt lat="41.14259" lon="44.77748">
        <ele>615.115636</ele>
        <time>2021-10-18T06:45:12.871Z</time>
      </trkpt>
      <trkpt lat="41.14128" lon="44.77505">
        <ele>614.830574</ele>
        <time>2021-10-18T06:46:23.889Z</time>
      </trkpt>
      <trkpt lat="41.14012" lon="44.77262">
        <ele>617.23428</ele>
        <time>2021-10-18T06:47:20.876Z</time>
      </trkpt>
      <trkpt lat="41.13912" lon="44.7702">
        <ele>619.520186</ele>
        <time>2021-10-18T06:48:40.880Z</time>
      </trkpt>
      <trkpt lat="41.13714" lon="44.76897">
        <ele>616.134604</ele>
        <time>2021-10-18T06:49:36.878Z</time>
      </trkpt>
      <trkpt lat="41.13547" lon="44.76736">
        <ele>623.7913</ele>
        <time>2021-10-18T06:50:38.862Z</time>
      </trkpt>
      <trkpt lat="41.13417" lon="44.76529">
        <ele>624.292673</ele>
        <time>2021-10-18T06:52:02.889Z</time>
      </trkpt>
      <trkpt lat="41.13229" lon="44.7635">
        <ele>616.946275</ele>
        <time>2021-10-18T06:52:51.871Z</time>
      </trkpt>
      <trkpt lat="41.13086" lon="44.76122">
        <ele>619.742535</ele>
        <time>2021-10-18T06:53:52.888Z</time>
      </trkpt>
      <trkpt lat="41.12943" lon="44.75912">
        <ele>621.959326</ele>
        <time>2021-10-18T06:55:10.879Z</time>
      </trkpt>
      <trkpt lat="41.12795" lon="44.75731">
        <ele>623.932792</ele>
        <time>2021-10-18T06:56:23.864Z</time>
      </trkpt>
      <trkpt lat="41.12569" lon="44.75739">
        <ele>620.972047</ele>
        <time>2021-10-18T06:57:23.881Z</time>
      </trkpt>
      <trkpt lat="41.12426" lon="44.75563">
        <ele>628.250367</ele>
        <time>2021-10-18T06:58:35.872Z</time>
      </trkpt>
      <trkpt lat="41.12289" lon="44.75332">
        <ele>637.348395</ele>
        <time>2021-10-18T07:09:10.907Z</time>
      </trkpt>
      <trkpt lat="41.12077" lon="44.75329">
        <ele>628.176223</ele>
        <time>2021-10-18T07:09:53.919Z</time>
      </trkpt>
      <trkpt lat="41.11899" lon="44.75197">
        <ele>628.144619</ele>
        <time>2021-10-18T07:10:46.877Z</time>
      </trkpt>
      <trkpt lat="41.11807" lon="44.74954">
        <ele>639.415721</ele>
        <time>2021-10-18T07:11:46.872Z</time>
      </trkpt>
      <trkpt lat="41.11733" lon="44.7471">
        <ele>646.701991</ele>
        <time>2021-10-18T07:13:22.902Z</time>
      </trkpt>
      <trkpt lat="41.1166" lon="44.74456">
        <ele>650.654094</ele>
        <time>2021-10-18T07:14:52.913Z</time>
      </trkpt>
      <trkpt lat="41.11592" lon="44.74177">
        <ele>656.402665</ele>
        <time>2021-10-18T07:16:10.890Z</time>
      </trkpt>
      <trkpt lat="41.11517" lon="44.73906">
        <ele>651.947468</ele>
        <time>2021-10-18T07:17:25.895Z</time>
      </trkpt>
      <trkpt lat="41.1133" lon="44.7373">
        <ele>648.351068</ele>
        <time>2021-10-18T07:17:59.898Z</time>
      </trkpt>
      <trkpt lat="41.11275" lon="44.73455">
        <ele>654.025223</ele>
        <time>2021-10-18T07:19:06.875Z</time>
      </trkpt>
      <trkpt lat="41.11241" lon="44.73204">
        <ele>655.673634</ele>
        <time>2021-10-18T07:20:10.868Z</time>
      </trkpt>
      <trkpt lat="41.11228" lon="44.72963">
        <ele>665.818155</ele>
        <time>2021-10-18T07:21:12.890Z</time>
      </trkpt>
      <trkpt lat="41.11382" lon="44.72747">
        <ele>686.167396</ele>
        <time>2021-10-18T07:22:20.887Z</time>
      </trkpt>
      <trkpt lat="41.1152" lon="44.72524">
        <ele>676.147471</ele>
        <time>2021-10-18T07:23:20.886Z</time>
      </trkpt>
      <trkpt lat="41.11577" lon="44.72251">
        <ele>666.721731</ele>
        <time>2021-10-18T07:24:20.887Z</time>
      </trkpt>
      <trkpt lat="41.11517" lon="44.71986">
        <ele>661.135897</ele>
        <time>2021-10-18T07:25:20.877Z</time>
      </trkpt>
      <trkpt lat="41.11503" lon="44.7171">
        <ele>667.372152</ele>
        <time>2021-10-18T07:26:20.894Z</time>
      </trkpt>
      <trkpt lat="41.11335" lon="44.71525">
        <ele>652.876275</ele>
        <time>2021-10-18T07:27:15.914Z</time>
      </trkpt>
      <trkpt lat="41.112" lon="44.71318">
        <ele>648.75989</ele>
        <time>2021-10-18T07:28:18.894Z</time>
      </trkpt>
      <trkpt lat="41.10995" lon="44.71189">
        <ele>649.617891</ele>
        <time>2021-10-18T07:29:16.913Z</time>
      </trkpt>
      <trkpt lat="41.10779" lon="44.71113">
        <ele>647.060625</ele>
        <time>2021-10-18T07:30:11.930Z</time>
      </trkpt>
      <trkpt lat="41.10612" lon="44.70975">
        <ele>654.584862</ele>
        <time>2021-10-18T07:31:35.874Z</time>
      </trkpt>
      <trkpt lat="41.10514" lon="44.7075">
        <ele>668.99147</ele>
        <time>2021-10-18T07:33:26.877Z</time>
      </trkpt>
      <trkpt lat="41.10419" lon="44.70509">
        <ele>671.599807</ele>
        <time>2021-10-18T07:34:46.910Z</time>
      </trkpt>
      <trkpt lat="41.10233" lon="44.7027">
        <ele>669.234992</ele>
        <time>2021-10-18T07:35:38.913Z</time>
      </trkpt>
      <trkpt lat="41.10209" lon="44.7001">
        <ele>674.291105</ele>
        <time>2021-10-18T07:36:39.890Z</time>
      </trkpt>
      <trkpt lat="41.10143" lon="44.69759">
        <ele>675.948097</ele>
        <time>2021-10-18T07:37:43.882Z</time>
      </trkpt>
      <trkpt lat="41.09951" lon="44.69622">
        <ele>677.438342</ele>
        <time>2021-10-18T07:59:10.876Z</time>
      </trkpt>
      <trkpt lat="41.09739" lon="44.69587">
        <ele>676.726675</ele>
        <time>2021-10-18T08:00:16.853Z</time>
      </trkpt>
      <trkpt lat="41.09504" lon="44.69553">
        <ele>673.706663</ele>
        <time>2021-10-18T08:01:13.851Z</time>
      </trkpt>
      <trkpt lat="41.09277" lon="44.69511">
        <ele>673.41619</ele>
        <time>2021-10-18T08:02:21.854Z</time>
      </trkpt>
      <trkpt lat="41.09107" lon="44.69347">
        <ele>676.735681</ele>
        <time>2021-10-18T08:03:25.860Z</time>
      </trkpt>
      <trkpt lat="41.0907" lon="44.69108">
        <ele>700.039935</ele>
        <time>2021-10-18T08:05:21.853Z</time>
      </trkpt>
      <trkpt lat="41.09181" lon="44.68895">
        <ele>718.926913</ele>
        <time>2021-10-18T08:06:57.862Z</time>
      </trkpt>
      <trkpt lat="41.09228" lon="44.68619">
        <ele>718.073813</ele>
        <time>2021-10-18T08:08:00.851Z</time>
      </trkpt>
      <trkpt lat="41.09323" lon="44.68373">
        <ele>720.690317</ele>
        <time>2021-10-18T08:09:21.853Z</time>
      </trkpt>
      <trkpt lat="41.09416" lon="44.681">
        <ele>721.141544</ele>
        <time>2021-10-18T08:10:11.877Z</time>
      </trkpt>
      <trkpt lat="41.09527" lon="44.67867">
        <ele>714.007592</ele>
        <time>2021-10-18T08:11:21.879Z</time>
      </trkpt>
      <trkpt lat="41.09539" lon="44.67585">
        <ele>713.305849</ele>
        <time>2021-10-18T08:12:30.907Z</time>
      </trkpt>
      <trkpt lat="41.09677" lon="44.67263">
        <ele>715.348408</ele>
        <time>2021-10-18T08:13:10.894Z</time>
      </trkpt>
      <trkpt lat="41.09721" lon="44.66975">
        <ele>704.497841</ele>
        <time>2021-10-18T08:13:56.885Z</time>
      </trkpt>
      <trkpt lat="41.09733" lon="44.66656">
        <ele>705.435013</ele>
        <time>2021-10-18T08:14:47.878Z</time>
      </trkpt>
      <trkpt lat="41.09764" lon="44.66326">
        <ele>720.119079</ele>
        <time>2021-10-18T08:18:09.886Z</time>
      </trkpt>
      <trkpt lat="41.0983" lon="44.66071">
        <ele>730.570374</ele>
        <time>2021-10-18T08:19:59.893Z</time>
      </trkpt>
      <trkpt lat="41.09847" lon="44.65798">
        <ele>731.287346</ele>
        <time>2021-10-18T08:21:32.919Z</time>
      </trkpt>
      <trkpt lat="41.0986" lon="44.65531">
        <ele>735.365043</ele>
        <time>2021-10-18T08:23:07.869Z</time>
      </trkpt>
      <trkpt lat="41.09708" lon="44.65235">
        <ele>723.079765</ele>
        <time>2021-10-18T08:24:01.867Z</time>
      </trkpt>
      <trkpt lat="41.09612" lon="44.64945">
        <ele>712.105356</ele>
        <time>2021-10-18T08:24:58.876Z</time>
      </trkpt>
      <trkpt lat="41.09426" lon="44.64708">
        <ele>726.932218</ele>
        <time>2021-10-18T08:26:04.884Z</time>
      </trkpt>
      <trkpt lat="41.09214" lon="44.64604">
        <ele>723.901119</ele>
        <time>2021-10-18T08:26:29.886Z</time>
      </trkpt>
      <trkpt lat="41.09092" lon="44.64433">
        <ele>724.288876</ele>
        <time>2021-10-18T08:27:26.921Z</time>
      </trkpt>
      <trkpt lat="41.08943" lon="44.64263">
        <ele>733.325098</ele>
        <time>2021-10-18T08:28:50.885Z</time>
      </trkpt>
      <trkpt lat="41.08801" lon="44.64059">
        <ele>739.580503</ele>
        <time>2021-10-18T08:30:13.892Z</time>
      </trkpt>
      <trkpt lat="41.08713" lon="44.63788">
        <ele>747.079269</ele>
        <time>2021-10-18T08:31:07.873Z</time>
      </trkpt>
      <trkpt lat="41.087" lon="44.63486">
        <ele>745.184588</ele>
        <time>2021-10-18T08:31:55.878Z</time>
      </trkpt>
      <trkpt lat="41.08601" lon="44.63228">
        <ele>746.403459</ele>
        <time>2021-10-18T08:33:12.887Z</time>
      </trkpt>
      <trkpt lat="41.08558" lon="44.62964">
        <ele>763.682521</ele>
        <time>2021-10-18T08:34:37.888Z</time>
      </trkpt>
      <trkpt lat="41.08595" lon="44.62689">
        <ele>768.987089</ele>
        <time>2021-10-18T08:35:56.873Z</time>
      </trkpt>
      <trkpt lat="41.08584" lon="44.62368">
        <ele>767.68972</ele>
        <time>2021-10-18T08:36:53.882Z</time>
      </trkpt>
      <trkpt lat="41.08528" lon="44.62108">
        <ele>773.394737</ele>
        <time>2021-10-18T08:38:03.886Z</time>
      </trkpt>
      <trkpt lat="41.08419" lon="44.61859">
        <ele>787.945327</ele>
        <time>2021-10-18T08:39:08.872Z</time>
      </trkpt>
      <trkpt lat="41.08228" lon="44.61749">
        <ele>795.580244</ele>
        <time>2021-10-18T08:40:21.888Z</time>
      </trkpt>
      <trkpt lat="41.08142" lon="44.61512">
        <ele>791.239107</ele>
        <time>2021-10-18T08:43:04.888Z</time>
      </trkpt>
      <trkpt lat="41.07978" lon="44.61642">
        <ele>810.531341</ele>
        <time>2021-10-18T08:45:39.892Z</time>
      </trkpt>
      <trkpt lat="41.07791" lon="44.61681">
        <ele>830.235377</ele>
        <time>2021-10-18T08:48:18.879Z</time>
      </trkpt>
      <trkpt lat="41.07598" lon="44.61682">
        <ele>844.953012</ele>
        <time>2021-10-18T08:50:42.885Z</time>
      </trkpt>
      <trkpt lat="41.07394" lon="44.61674">
        <ele>840.703705</ele>
        <time>2021-10-18T08:52:16.890Z</time>
      </trkpt>
      <trkpt lat="41.07164" lon="44.61663">
        <ele>822.471479</ele>
        <time>2021-10-18T08:53:20.879Z</time>
      </trkpt>
      <trkpt lat="41.06962" lon="44.61752">
        <ele>812.383529</ele>
        <time>2021-10-18T08:54:18.904Z</time>
      </trkpt>
      <trkpt lat="41.06752" lon="44.61934">
        <ele>801.023171</ele>
        <time>2021-10-18T08:55:04.896Z</time>
      </trkpt>
      <trkpt lat="41.06579" lon="44.62103">
        <ele>803.560195</ele>
        <time>2021-10-18T08:55:54.882Z</time>
      </trkpt>
      <trkpt lat="41.06365" lon="44.62205">
        <ele>797.897323</ele>
        <time>2021-10-18T08:56:25.887Z</time>
      </trkpt>
      <trkpt lat="41.06138" lon="44.62328">
        <ele>796.610986</ele>
        <time>2021-10-18T08:57:11.875Z</time>
      </trkpt>
      <trkpt lat="41.05955" lon="44.62497">
        <ele>803.813364</ele>
        <time>2021-10-18T08:58:35.878Z</time>
      </trkpt>
      <trkpt lat="41.05776" lon="44.62628">
        <ele>805.229289</ele>
        <time>2021-10-18T08:59:59.886Z</time>
      </trkpt>
      <trkpt lat="41.0555" lon="44.62636">
        <ele>790.819782</ele>
        <time>2021-10-18T09:00:39.874Z</time>
      </trkpt>
      <trkpt lat="41.05321" lon="44.62678">
        <ele>793.261973</ele>
        <time>2021-10-18T09:01:28.862Z</time>
      </trkpt>
      <trkpt lat="41.05118" lon="44.6273">
        <ele>805.894643</ele>
        <time>2021-10-18T09:02:50.870Z</time>
      </trkpt>
      <trkpt lat="41.04904" lon="44.62748">
        <ele>805.742677</ele>
        <time>2021-10-18T09:04:12.880Z</time>
      </trkpt>
      <trkpt lat="41.0467" lon="44.62726">
        <ele>808.684117</ele>
        <time>2021-10-18T09:05:25.882Z</time>
      </trkpt>
      <trkpt lat="41.0445" lon="44.62768">
        <ele>813.083642</ele>
        <time>2021-10-18T09:06:31.880Z</time>
      </trkpt>
      <trkpt lat="41.04291" lon="44.62931">
        <ele>818.032919</ele>
        <time>2021-10-18T09:08:06.919Z</time>
      </trkpt>
      <trkpt lat="41.04103" lon="44.63021">
        <ele>816.417782</ele>
        <time>2021-10-18T09:09:34.885Z</time>
      </trkpt>
      <trkpt lat="41.03913" lon="44.63065">
        <ele>828.126476</ele>
        <time>2021-10-18T09:11:42.880Z</time>
      </trkpt>
      <trkpt lat="41.03736" lon="44.63187">
        <ele>840.614825</ele>
        <time>2021-10-18T09:13:47.916Z</time>
      </trkpt>
      <trkpt lat="41.03532" lon="44.63224">
        <ele>823.761587</ele>
        <time>2021-10-18T09:16:08.924Z</time>
      </trkpt>
      <trkpt lat="41.03348" lon="44.63321">
        <ele>823.517016</ele>
        <time>2021-10-18T09:17:48.874Z</time>
      </trkpt>
      <trkpt lat="41.03141" lon="44.63362">
        <ele>825.556923</ele>
        <time>2021-10-18T09:19:20.882Z</time>
      </trkpt>
      <trkpt lat="41.0293" lon="44.63422">
        <ele>830.539775</ele>
        <time>2021-10-18T09:20:35.942Z</time>
      </trkpt>
      <trkpt lat="41.02728" lon="44.63466">
        <ele>835.706333</ele>
        <time>2021-10-18T09:21:57.900Z</time>
      </trkpt>
      <trkpt lat="41.02532" lon="44.63495">
        <ele>838.127638</ele>
        <time>2021-10-18T09:23:29.882Z</time>
      </trkpt>
      <trkpt lat="41.02328" lon="44.63418">
        <ele>826.398931</ele>
        <time>2021-10-18T09:24:46.888Z</time>
      </trkpt>
      <trkpt lat="41.02135" lon="44.63436">
        <ele>827.684344</ele>
        <time>2021-10-18T09:26:17.881Z</time>
      </trkpt>
      <trkpt lat="41.01965" lon="44.63583">
        <ele>836.38366</ele>
        <time>2021-10-18T09:27:50.901Z</time>
      </trkpt>
      <trkpt lat="41.01757" lon="44.6356">
        <ele>826.892309</ele>
        <time>2021-10-18T09:29:11.910Z</time>
      </trkpt>
      <trkpt lat="41.01554" lon="44.63584">
        <ele>812.317931</ele>
        <time>2021-10-18T09:30:42.907Z</time>
      </trkpt>
      <trkpt lat="41.01412" lon="44.63774">
        <ele>832.954306</ele>
        <time>2021-10-18T09:31:58.898Z</time>
      </trkpt>
      <trkpt lat="41.01223" lon="44.63693">
        <ele>809.866737</ele>
        <time>2021-10-18T09:33:29.874Z</time>
      </trkpt>
      <trkpt lat="41.01024" lon="44.63651">
        <ele>799.489043</ele>
        <time>2021-10-18T09:34:58.878Z</time>
      </trkpt>
      <trkpt lat="41.00826" lon="44.63686">
        <ele>797.942278</ele>
        <time>2021-10-18T09:36:32.911Z</time>
      </trkpt>
      <trkpt lat="41.00627" lon="44.63732">
        <ele>817.412183</ele>
        <time>2021-10-18T09:38:07.896Z</time>
      </trkpt>
      <trkpt lat="41.00461" lon="44.63899">
        <ele>828.333382</ele>
        <time>2021-10-18T10:01:10.931Z</time>
      </trkpt>
      <trkpt lat="41.00334" lon="44.64124">
        <ele>834.452988</ele>
        <time>2021-10-18T10:02:32.875Z</time>
      </trkpt>
      <trkpt lat="41.0032" lon="44.64406">
        <ele>851.416181</ele>
        <time>2021-10-18T10:04:06.887Z</time>
      </trkpt>
      <trkpt lat="41.00239" lon="44.64635">
        <ele>851.895066</ele>
        <time>2021-10-18T10:05:39.878Z</time>
      </trkpt>
      <trkpt lat="41.0009" lon="44.6481">
        <ele>853.661179</ele>
        <time>2021-10-18T10:07:25.882Z</time>
      </trkpt>
      <trkpt lat="41.00083" lon="44.64943">
        <ele>853.661179</ele>
        <time>2021-10-18T10:09:30.329Z</time>
      </trkpt>
    </trkseg>
  </trk>
  <trk>
    <name><![CDATA[Tour d'Europe: étape 478]]></name>
    <extensions>
      <line xmlns="http://www.topografix.com/GPX/gpx_style/0/2">
        <color>008800</color>
        <width>4</width>
      </line>
    </extensions>
    <trkseg>
      <trkpt lat="41.00093" lon="44.64958">
        <ele>853.825641</ele>
        <time>2021-10-19T04:56:01.133Z</time>
      </trkpt>
      <trkpt lat="41.00091" lon="44.64827">
        <ele>853.620353</ele>
        <time>2021-10-19T05:05:12.274Z</time>
      </trkpt>
      <trkpt lat="41.00255" lon="44.64635">
        <ele>848.111454</ele>
        <time>2021-10-19T05:06:27.291Z</time>
      </trkpt>
      <trkpt lat="41.0017" lon="44.64599">
        <ele>838.447836</ele>
        <time>2021-10-19T05:07:32.276Z</time>
      </trkpt>
      <trkpt lat="41.00014" lon="44.64774">
        <ele>841.450952</ele>
        <time>2021-10-19T05:08:19.281Z</time>
      </trkpt>
      <trkpt lat="40.99957" lon="44.65064">
        <ele>847.311666</ele>
        <time>2021-10-19T05:09:31.273Z</time>
      </trkpt>
      <trkpt lat="40.99797" lon="44.65233">
        <ele>851.429895</ele>
        <time>2021-10-19T05:10:28.309Z</time>
      </trkpt>
      <trkpt lat="40.99607" lon="44.65382">
        <ele>854.459338</ele>
        <time>2021-10-19T05:11:47.292Z</time>
      </trkpt>
      <trkpt lat="40.99397" lon="44.65475">
        <ele>855.068735</ele>
        <time>2021-10-19T05:12:43.288Z</time>
      </trkpt>
      <trkpt lat="40.99181" lon="44.65513">
        <ele>853.37706</ele>
        <time>2021-10-19T05:13:42.271Z</time>
      </trkpt>
      <trkpt lat="40.98994" lon="44.65423">
        <ele>858.284833</ele>
        <time>2021-10-19T05:15:19.278Z</time>
      </trkpt>
      <trkpt lat="40.98813" lon="44.65251">
        <ele>859.709309</ele>
        <time>2021-10-19T05:16:14.280Z</time>
      </trkpt>
      <trkpt lat="40.98606" lon="44.65191">
        <ele>863.566888</ele>
        <time>2021-10-19T05:17:19.300Z</time>
      </trkpt>
      <trkpt lat="40.98464" lon="44.64971">
        <ele>864.252023</ele>
        <time>2021-10-19T05:18:22.264Z</time>
      </trkpt>
      <trkpt lat="40.98348" lon="44.64765">
        <ele>873.38112</ele>
        <time>2021-10-19T05:19:22.291Z</time>
      </trkpt>
      <trkpt lat="40.98242" lon="44.64525">
        <ele>876.001807</ele>
        <time>2021-10-19T05:20:28.264Z</time>
      </trkpt>
      <trkpt lat="40.98111" lon="44.64312">
        <ele>879.744714</ele>
        <time>2021-10-19T05:22:07.283Z</time>
      </trkpt>
      <trkpt lat="40.97935" lon="44.64134">
        <ele>883.719325</ele>
        <time>2021-10-19T05:23:27.268Z</time>
      </trkpt>
      <trkpt lat="40.9779" lon="44.63919">
        <ele>886.260613</ele>
        <time>2021-10-19T05:24:39.274Z</time>
      </trkpt>
      <trkpt lat="40.97577" lon="44.63691">
        <ele>875.882659</ele>
        <time>2021-10-19T05:25:15.284Z</time>
      </trkpt>
      <trkpt lat="40.97389" lon="44.63558">
        <ele>875.970771</ele>
        <time>2021-10-19T05:26:06.283Z</time>
      </trkpt>
      <trkpt lat="40.97175" lon="44.63668">
        <ele>880.862221</ele>
        <time>2021-10-19T05:27:09.293Z</time>
      </trkpt>
      <trkpt lat="40.96976" lon="44.63672">
        <ele>879.016496</ele>
        <time>2021-10-19T05:28:09.319Z</time>
      </trkpt>
      <trkpt lat="40.96765" lon="44.63692">
        <ele>889.080579</ele>
        <time>2021-10-19T05:29:21.285Z</time>
      </trkpt>
      <trkpt lat="40.96566" lon="44.63772">
        <ele>895.94435</ele>
        <time>2021-10-19T05:30:25.294Z</time>
      </trkpt>
      <trkpt lat="40.96355" lon="44.63751">
        <ele>894.750045</ele>
        <time>2021-10-19T05:31:34.284Z</time>
      </trkpt>
      <trkpt lat="40.96159" lon="44.63622">
        <ele>898.719705</ele>
        <time>2021-10-19T05:32:37.285Z</time>
      </trkpt>
      <trkpt lat="40.95945" lon="44.63499">
        <ele>906.649567</ele>
        <time>2021-10-19T05:33:52.285Z</time>
      </trkpt>
      <trkpt lat="40.95778" lon="44.63348">
        <ele>907.314896</ele>
        <time>2021-10-19T05:35:02.286Z</time>
      </trkpt>
      <trkpt lat="40.95686" lon="44.6312">
        <ele>919.268978</ele>
        <time>2021-10-19T05:36:36.275Z</time>
      </trkpt>
      <trkpt lat="40.95305" lon="44.6308">
        <ele>920.346422</ele>
        <time>2021-10-19T05:38:36.276Z</time>
      </trkpt>
      <trkpt lat="40.9487" lon="44.62939">
        <ele>935.952272</ele>
        <time>2021-10-19T05:41:59.267Z</time>
      </trkpt>
      <trkpt lat="40.94647" lon="44.62948">
        <ele>937.710103</ele>
        <time>2021-10-19T05:43:30.296Z</time>
      </trkpt>
      <trkpt lat="40.94376" lon="44.62975">
        <ele>926.437918</ele>
        <time>2021-10-19T05:44:10.294Z</time>
      </trkpt>
      <trkpt lat="40.94137" lon="44.62989">
        <ele>926.919406</ele>
        <time>2021-10-19T05:45:06.283Z</time>
      </trkpt>
      <trkpt lat="40.9393" lon="44.62913">
        <ele>933.610075</ele>
        <time>2021-10-19T05:46:09.274Z</time>
      </trkpt>
      <trkpt lat="40.93738" lon="44.62837">
        <ele>936.313535</ele>
        <time>2021-10-19T05:47:10.293Z</time>
      </trkpt>
      <trkpt lat="40.93546" lon="44.62714">
        <ele>945.871268</ele>
        <time>2021-10-19T05:48:43.285Z</time>
      </trkpt>
      <trkpt lat="40.93345" lon="44.62718">
        <ele>960.979579</ele>
        <time>2021-10-19T05:50:30.277Z</time>
      </trkpt>
      <trkpt lat="40.93142" lon="44.62646">
        <ele>969.249182</ele>
        <time>2021-10-19T05:52:18.272Z</time>
      </trkpt>
      <trkpt lat="40.92925" lon="44.62644">
        <ele>975.884117</ele>
        <time>2021-10-19T05:53:45.267Z</time>
      </trkpt>
      <trkpt lat="40.92731" lon="44.62501">
        <ele>968.96251</ele>
        <time>2021-10-19T05:54:25.285Z</time>
      </trkpt>
      <trkpt lat="40.9252" lon="44.62364">
        <ele>973.073399</ele>
        <time>2021-10-19T05:55:32.292Z</time>
      </trkpt>
      <trkpt lat="40.92305" lon="44.6233">
        <ele>971.952815</ele>
        <time>2021-10-19T05:57:09.305Z</time>
      </trkpt>
      <trkpt lat="40.92086" lon="44.6222">
        <ele>968.725579</ele>
        <time>2021-10-19T05:57:37.293Z</time>
      </trkpt>
      <trkpt lat="40.91835" lon="44.6216">
        <ele>967.758683</ele>
        <time>2021-10-19T05:58:28.262Z</time>
      </trkpt>
      <trkpt lat="40.91617" lon="44.62155">
        <ele>970.428853</ele>
        <time>2021-10-19T05:59:28.286Z</time>
      </trkpt>
      <trkpt lat="40.91453" lon="44.61979">
        <ele>978.896289</ele>
        <time>2021-10-19T06:00:43.292Z</time>
      </trkpt>
      <trkpt lat="40.91245" lon="44.61897">
        <ele>983.328201</ele>
        <time>2021-10-19T06:02:06.284Z</time>
      </trkpt>
      <trkpt lat="40.91049" lon="44.61986">
        <ele>987.873307</ele>
        <time>2021-10-19T06:03:22.287Z</time>
      </trkpt>
      <trkpt lat="40.90853" lon="44.62005">
        <ele>998.962504</ele>
        <time>2021-10-19T06:05:15.300Z</time>
      </trkpt>
      <trkpt lat="40.90637" lon="44.61987">
        <ele>1000.653933</ele>
        <time>2021-10-19T06:06:43.282Z</time>
      </trkpt>
      <trkpt lat="40.90448" lon="44.61833">
        <ele>994.262287</ele>
        <time>2021-10-19T06:07:06.285Z</time>
      </trkpt>
      <trkpt lat="40.90257" lon="44.62032">
        <ele>990.647597</ele>
        <time>2021-10-19T06:07:56.310Z</time>
      </trkpt>
      <trkpt lat="40.90033" lon="44.61986">
        <ele>998.280799</ele>
        <time>2021-10-19T06:09:25.291Z</time>
      </trkpt>
      <trkpt lat="40.89904" lon="44.61807">
        <ele>1008.675096</ele>
        <time>2021-10-19T06:10:40.286Z</time>
      </trkpt>
      <trkpt lat="40.8978" lon="44.61605">
        <ele>1010.393074</ele>
        <time>2021-10-19T06:11:47.268Z</time>
      </trkpt>
      <trkpt lat="40.89602" lon="44.61485">
        <ele>1012.835457</ele>
        <time>2021-10-19T06:13:08.290Z</time>
      </trkpt>
      <trkpt lat="40.89445" lon="44.61273">
        <ele>1021.492775</ele>
        <time>2021-10-19T06:14:31.288Z</time>
      </trkpt>
      <trkpt lat="40.89344" lon="44.61019">
        <ele>1037.453209</ele>
        <time>2021-10-19T06:15:55.291Z</time>
      </trkpt>
      <trkpt lat="40.89257" lon="44.60771">
        <ele>1038.837048</ele>
        <time>2021-10-19T06:17:09.286Z</time>
      </trkpt>
      <trkpt lat="40.89103" lon="44.60592">
        <ele>1040.458535</ele>
        <time>2021-10-19T06:19:08.292Z</time>
      </trkpt>
      <trkpt lat="40.89031" lon="44.60306">
        <ele>1040.795242</ele>
        <time>2021-10-19T06:25:57.286Z</time>
      </trkpt>
      <trkpt lat="40.88828" lon="44.60035">
        <ele>1033.705055</ele>
        <time>2021-10-19T06:26:39.286Z</time>
      </trkpt>
      <trkpt lat="40.88653" lon="44.59818">
        <ele>1034.409464</ele>
        <time>2021-10-19T06:27:27.292Z</time>
      </trkpt>
      <trkpt lat="40.88557" lon="44.59551">
        <ele>1034.29857</ele>
        <time>2021-10-19T06:28:27.288Z</time>
      </trkpt>
      <trkpt lat="40.88466" lon="44.59296">
        <ele>1044.325688</ele>
        <time>2021-10-19T06:30:01.307Z</time>
      </trkpt>
      <trkpt lat="40.88543" lon="44.59035">
        <ele>1050.58167</ele>
        <time>2021-10-19T06:31:34.285Z</time>
      </trkpt>
      <trkpt lat="40.88505" lon="44.58704">
        <ele>1052.911985</ele>
        <time>2021-10-19T06:32:16.272Z</time>
      </trkpt>
      <trkpt lat="40.88319" lon="44.58611">
        <ele>1050.41776</ele>
        <time>2021-10-19T06:33:19.283Z</time>
      </trkpt>
      <trkpt lat="40.8812" lon="44.58679">
        <ele>1050.808403</ele>
        <time>2021-10-19T06:34:30.295Z</time>
      </trkpt>
      <trkpt lat="40.8793" lon="44.58757">
        <ele>1059.91159</ele>
        <time>2021-10-19T06:36:03.295Z</time>
      </trkpt>
      <trkpt lat="40.87736" lon="44.58743">
        <ele>1072.305832</ele>
        <time>2021-10-19T06:38:02.290Z</time>
      </trkpt>
      <trkpt lat="40.87534" lon="44.58727">
        <ele>1083.839953</ele>
        <time>2021-10-19T06:39:34.295Z</time>
      </trkpt>
      <trkpt lat="40.87315" lon="44.58746">
        <ele>1083.878749</ele>
        <time>2021-10-19T06:40:38.286Z</time>
      </trkpt>
      <trkpt lat="40.87068" lon="44.58615">
        <ele>1074.881017</ele>
        <time>2021-10-19T06:41:16.290Z</time>
      </trkpt>
      <trkpt lat="40.86887" lon="44.58497">
        <ele>1090.818344</ele>
        <time>2021-10-19T06:43:09.303Z</time>
      </trkpt>
      <trkpt lat="40.86682" lon="44.58504">
        <ele>1106.432096</ele>
        <time>2021-10-19T06:45:47.275Z</time>
      </trkpt>
      <trkpt lat="40.86482" lon="44.58423">
        <ele>1110.056184</ele>
        <time>2021-10-19T06:48:20.285Z</time>
      </trkpt>
      <trkpt lat="40.86327" lon="44.5827">
        <ele>1127.899523</ele>
        <time>2021-10-19T06:50:47.310Z</time>
      </trkpt>
      <trkpt lat="40.86288" lon="44.58223">
        <ele>1138.01596</ele>
        <time>2021-10-19T06:53:05.332Z</time>
      </trkpt>
      <trkpt lat="40.86453" lon="44.5828">
        <ele>1153.31959</ele>
        <time>2021-10-19T06:55:12.294Z</time>
      </trkpt>
      <trkpt lat="40.86276" lon="44.58147">
        <ele>1171.535825</ele>
        <time>2021-10-19T06:57:53.303Z</time>
      </trkpt>
      <trkpt lat="40.86071" lon="44.58135">
        <ele>1185.230711</ele>
        <time>2021-10-19T07:00:09.312Z</time>
      </trkpt>
      <trkpt lat="40.85895" lon="44.58077">
        <ele>1197.673453</ele>
        <time>2021-10-19T07:02:34.291Z</time>
      </trkpt>
      <trkpt lat="40.85765" lon="44.57928">
        <ele>1202.682684</ele>
        <time>2021-10-19T07:04:53.301Z</time>
      </trkpt>
      <trkpt lat="40.85652" lon="44.57721">
        <ele>1213.72392</ele>
        <time>2021-10-19T07:07:06.297Z</time>
      </trkpt>
      <trkpt lat="40.85457" lon="44.57691">
        <ele>1230.446475</ele>
        <time>2021-10-19T07:09:41.286Z</time>
      </trkpt>
      <trkpt lat="40.85299" lon="44.57498">
        <ele>1234.922317</ele>
        <time>2021-10-19T07:11:02.307Z</time>
      </trkpt>
      <trkpt lat="40.85143" lon="44.57383">
        <ele>1244.757239</ele>
        <time>2021-10-19T07:13:27.289Z</time>
      </trkpt>
      <trkpt lat="40.84931" lon="44.57363">
        <ele>1253.395308</ele>
        <time>2021-10-19T07:15:18.308Z</time>
      </trkpt>
      <trkpt lat="40.84725" lon="44.57328">
        <ele>1255.067797</ele>
        <time>2021-10-19T07:16:58.285Z</time>
      </trkpt>
      <trkpt lat="40.84552" lon="44.5721">
        <ele>1263.791394</ele>
        <time>2021-10-19T07:19:30.311Z</time>
      </trkpt>
      <trkpt lat="40.84456" lon="44.56983">
        <ele>1284.716721</ele>
        <time>2021-10-19T07:22:12.307Z</time>
      </trkpt>
      <trkpt lat="40.84256" lon="44.56983">
        <ele>1290.094069</ele>
        <time>2021-10-19T07:24:02.295Z</time>
      </trkpt>
      <trkpt lat="40.84148" lon="44.56773">
        <ele>1291.895944</ele>
        <time>2021-10-19T07:25:33.307Z</time>
      </trkpt>
      <trkpt lat="40.83993" lon="44.56655">
        <ele>1298.766783</ele>
        <time>2021-10-19T07:27:54.290Z</time>
      </trkpt>
      <trkpt lat="40.84083" lon="44.56419">
        <ele>1304.977871</ele>
        <time>2021-10-19T07:29:06.295Z</time>
      </trkpt>
      <trkpt lat="40.8387" lon="44.56425">
        <ele>1304.658446</ele>
        <time>2021-10-19T07:30:04.303Z</time>
      </trkpt>
      <trkpt lat="40.8354" lon="44.56332">
        <ele>1282.708674</ele>
        <time>2021-10-19T07:30:45.301Z</time>
      </trkpt>
      <trkpt lat="40.83304" lon="44.56077">
        <ele>1263.568856</ele>
        <time>2021-10-19T07:31:23.295Z</time>
      </trkpt>
      <trkpt lat="40.8305" lon="44.55894">
        <ele>1254.836519</ele>
        <time>2021-10-19T07:32:05.304Z</time>
      </trkpt>
      <trkpt lat="40.82865" lon="44.5568">
        <ele>1260.972512</ele>
        <time>2021-10-19T07:33:16.307Z</time>
      </trkpt>
      <trkpt lat="40.82773" lon="44.55458">
        <ele>1273.809409</ele>
        <time>2021-10-19T07:35:08.302Z</time>
      </trkpt>
      <trkpt lat="40.82685" lon="44.55224">
        <ele>1289.824292</ele>
        <time>2021-10-19T07:37:24.306Z</time>
      </trkpt>
      <trkpt lat="40.82697" lon="44.54969">
        <ele>1309.260664</ele>
        <time>2021-10-19T07:39:36.283Z</time>
      </trkpt>
      <trkpt lat="40.8262" lon="44.54741">
        <ele>1312.171329</ele>
        <time>2021-10-19T07:42:16.288Z</time>
      </trkpt>
      <trkpt lat="40.82427" lon="44.54677">
        <ele>1333.881634</ele>
        <time>2021-10-19T07:45:12.292Z</time>
      </trkpt>
      <trkpt lat="40.8223" lon="44.54634">
        <ele>1353.000741</ele>
        <time>2021-10-19T07:59:45.283Z</time>
      </trkpt>
      <trkpt lat="40.82026" lon="44.54557">
        <ele>1356.379002</ele>
        <time>2021-10-19T08:01:37.306Z</time>
      </trkpt>
      <trkpt lat="40.81795" lon="44.54364">
        <ele>1337.053257</ele>
        <time>2021-10-19T08:02:19.326Z</time>
      </trkpt>
      <trkpt lat="40.81634" lon="44.5406">
        <ele>1316.582799</ele>
        <time>2021-10-19T08:02:59.319Z</time>
      </trkpt>
      <trkpt lat="40.81468" lon="44.5379">
        <ele>1300.433838</ele>
        <time>2021-10-19T08:03:32.305Z</time>
      </trkpt>
      <trkpt lat="40.81371" lon="44.53481">
        <ele>1292.74545</ele>
        <time>2021-10-19T08:04:12.311Z</time>
      </trkpt>
      <trkpt lat="40.81393" lon="44.53145">
        <ele>1294.679134</ele>
        <time>2021-10-19T08:05:02.309Z</time>
      </trkpt>
      <trkpt lat="40.81485" lon="44.52903">
        <ele>1297.610058</ele>
        <time>2021-10-19T08:06:10.347Z</time>
      </trkpt>
      <trkpt lat="40.81523" lon="44.52644">
        <ele>1303.973086</ele>
        <time>2021-10-19T08:07:14.297Z</time>
      </trkpt>
      <trkpt lat="40.81586" lon="44.52368">
        <ele>1306.605661</ele>
        <time>2021-10-19T08:08:21.304Z</time>
      </trkpt>
      <trkpt lat="40.81624" lon="44.52068">
        <ele>1304.119337</ele>
        <time>2021-10-19T08:09:29.308Z</time>
      </trkpt>
      <trkpt lat="40.8162" lon="44.51808">
        <ele>1312.173946</ele>
        <time>2021-10-19T08:10:37.292Z</time>
      </trkpt>
      <trkpt lat="40.81579" lon="44.51526">
        <ele>1314.693304</ele>
        <time>2021-10-19T08:11:40.311Z</time>
      </trkpt>
      <trkpt lat="40.81529" lon="44.51253">
        <ele>1313.648401</ele>
        <time>2021-10-19T08:12:41.346Z</time>
      </trkpt>
      <trkpt lat="40.81443" lon="44.50988">
        <ele>1315.734297</ele>
        <time>2021-10-19T08:13:50.306Z</time>
      </trkpt>
      <trkpt lat="40.81432" lon="44.50703">
        <ele>1318.071035</ele>
        <time>2021-10-19T08:15:16.291Z</time>
      </trkpt>
      <trkpt lat="40.81493" lon="44.50402">
        <ele>1317.915718</ele>
        <time>2021-10-19T08:16:16.295Z</time>
      </trkpt>
      <trkpt lat="40.81586" lon="44.50142">
        <ele>1321.327391</ele>
        <time>2021-10-19T08:17:14.309Z</time>
      </trkpt>
      <trkpt lat="40.8166" lon="44.49884">
        <ele>1324.006231</ele>
        <time>2021-10-19T08:18:21.302Z</time>
      </trkpt>
      <trkpt lat="40.81706" lon="44.49621">
        <ele>1329.190157</ele>
        <time>2021-10-19T08:19:26.305Z</time>
      </trkpt>
      <trkpt lat="40.81576" lon="44.49497">
        <ele>1335.209252</ele>
        <time>2021-10-19T08:20:48.310Z</time>
      </trkpt>
      <trkpt lat="40.81377" lon="44.49441">
        <ele>1334.804857</ele>
        <time>2021-10-19T08:21:42.309Z</time>
      </trkpt>
      <trkpt lat="40.81179" lon="44.4956">
        <ele>1334.395987</ele>
        <time>2021-10-19T08:22:41.303Z</time>
      </trkpt>
      <trkpt lat="40.80973" lon="44.49623">
        <ele>1337.629523</ele>
        <time>2021-10-19T08:23:49.324Z</time>
      </trkpt>
      <trkpt lat="40.80771" lon="44.49673">
        <ele>1346.236901</ele>
        <time>2021-10-19T08:25:16.310Z</time>
      </trkpt>
      <trkpt lat="40.8056" lon="44.49703">
        <ele>1355.792639</ele>
        <time>2021-10-19T08:26:29.289Z</time>
      </trkpt>
      <trkpt lat="40.80376" lon="44.49726">
        <ele>1356.238639</ele>
        <time>2021-10-19T08:27:56.294Z</time>
      </trkpt>
      <trkpt lat="40.8019" lon="44.49834">
        <ele>1357.009324</ele>
        <time>2021-10-19T08:29:10.295Z</time>
      </trkpt>
      <trkpt lat="40.79997" lon="44.49981">
        <ele>1361.404455</ele>
        <time>2021-10-19T08:30:26.314Z</time>
      </trkpt>
      <trkpt lat="40.79863" lon="44.50187">
        <ele>1369.497699</ele>
        <time>2021-10-19T08:31:28.303Z</time>
      </trkpt>
      <trkpt lat="40.7973" lon="44.50407">
        <ele>1376.232587</ele>
        <time>2021-10-19T08:32:55.309Z</time>
      </trkpt>
      <trkpt lat="40.79609" lon="44.50625">
        <ele>1383.115904</ele>
        <time>2021-10-19T08:34:31.311Z</time>
      </trkpt>
      <trkpt lat="40.79505" lon="44.50851">
        <ele>1384.890792</ele>
        <time>2021-10-19T08:36:01.308Z</time>
      </trkpt>
      <trkpt lat="40.79382" lon="44.5109">
        <ele>1379.283431</ele>
        <time>2021-10-19T08:37:27.314Z</time>
      </trkpt>
      <trkpt lat="40.7927" lon="44.51328">
        <ele>1385.351856</ele>
        <time>2021-10-19T08:38:43.302Z</time>
      </trkpt>
      <trkpt lat="40.79168" lon="44.51554">
        <ele>1394.58344</ele>
        <time>2021-10-19T08:40:25.298Z</time>
      </trkpt>
      <trkpt lat="40.79052" lon="44.51788">
        <ele>1400.548409</ele>
        <time>2021-10-19T08:42:02.309Z</time>
      </trkpt>
      <trkpt lat="40.78956" lon="44.52038">
        <ele>1407.871631</ele>
        <time>2021-10-19T08:43:17.279Z</time>
      </trkpt>
      <trkpt lat="40.7887" lon="44.52289">
        <ele>1425.539071</ele>
        <time>2021-10-19T08:45:10.307Z</time>
      </trkpt>
      <trkpt lat="40.78782" lon="44.52535">
        <ele>1434.183969</ele>
        <time>2021-10-19T08:47:03.322Z</time>
      </trkpt>
      <trkpt lat="40.78691" lon="44.52765">
        <ele>1431.225126</ele>
        <time>2021-10-19T08:48:29.292Z</time>
      </trkpt>
      <trkpt lat="40.78558" lon="44.52992">
        <ele>1431.65396</ele>
        <time>2021-10-19T08:49:38.306Z</time>
      </trkpt>
      <trkpt lat="40.78436" lon="44.53238">
        <ele>1435.525081</ele>
        <time>2021-10-19T08:50:50.313Z</time>
      </trkpt>
      <trkpt lat="40.78369" lon="44.53483">
        <ele>1444.017906</ele>
        <time>2021-10-19T08:52:17.311Z</time>
      </trkpt>
      <trkpt lat="40.78304" lon="44.53751">
        <ele>1451.904687</ele>
        <time>2021-10-19T08:53:55.311Z</time>
      </trkpt>
      <trkpt lat="40.78242" lon="44.54005">
        <ele>1457.422093</ele>
        <time>2021-10-19T08:55:29.285Z</time>
      </trkpt>
      <trkpt lat="40.78206" lon="44.54277">
        <ele>1466.770487</ele>
        <time>2021-10-19T08:57:20.305Z</time>
      </trkpt>
      <trkpt lat="40.78217" lon="44.54551">
        <ele>1479.859282</ele>
        <time>2021-10-19T09:06:00.292Z</time>
      </trkpt>
      <trkpt lat="40.78182" lon="44.54795">
        <ele>1486.658922</ele>
        <time>2021-10-19T09:08:07.297Z</time>
      </trkpt>
      <trkpt lat="40.78065" lon="44.55011">
        <ele>1505.459473</ele>
        <time>2021-10-19T09:10:36.304Z</time>
      </trkpt>
      <trkpt lat="40.7793" lon="44.55209">
        <ele>1524.597793</ele>
        <time>2021-10-19T09:13:07.316Z</time>
      </trkpt>
      <trkpt lat="40.77832" lon="44.55432">
        <ele>1542.215235</ele>
        <time>2021-10-19T09:15:36.307Z</time>
      </trkpt>
      <trkpt lat="40.77739" lon="44.55674">
        <ele>1557.601861</ele>
        <time>2021-10-19T09:18:13.306Z</time>
      </trkpt>
      <trkpt lat="40.77655" lon="44.559">
        <ele>1570.402983</ele>
        <time>2021-10-19T09:20:44.320Z</time>
      </trkpt>
      <trkpt lat="40.77606" lon="44.5616">
        <ele>1586.83691</ele>
        <time>2021-10-19T09:23:21.289Z</time>
      </trkpt>
      <trkpt lat="40.77539" lon="44.56414">
        <ele>1599.048295</ele>
        <time>2021-10-19T09:25:33.299Z</time>
      </trkpt>
      <trkpt lat="40.77474" lon="44.5666">
        <ele>1605.183681</ele>
        <time>2021-10-19T09:27:30.301Z</time>
      </trkpt>
      <trkpt lat="40.77387" lon="44.56904">
        <ele>1618.229232</ele>
        <time>2021-10-19T09:29:31.312Z</time>
      </trkpt>
      <trkpt lat="40.77311" lon="44.57161">
        <ele>1627.916508</ele>
        <time>2021-10-19T09:31:35.293Z</time>
      </trkpt>
      <trkpt lat="40.77341" lon="44.57416">
        <ele>1621.626703</ele>
        <time>2021-10-19T09:33:08.299Z</time>
      </trkpt>
      <trkpt lat="40.77378" lon="44.57689">
        <ele>1631.058959</ele>
        <time>2021-10-19T09:34:47.295Z</time>
      </trkpt>
      <trkpt lat="40.77428" lon="44.57953">
        <ele>1643.925425</ele>
        <time>2021-10-19T09:41:43.318Z</time>
      </trkpt>
      <trkpt lat="40.77448" lon="44.58218">
        <ele>1655.890614</ele>
        <time>2021-10-19T09:43:59.335Z</time>
      </trkpt>
      <trkpt lat="40.77545" lon="44.58448">
        <ele>1668.917012</ele>
        <time>2021-10-19T09:46:16.353Z</time>
      </trkpt>
      <trkpt lat="40.77494" lon="44.58692">
        <ele>1681.383632</ele>
        <time>2021-10-19T09:48:29.300Z</time>
      </trkpt>
      <trkpt lat="40.7741" lon="44.58943">
        <ele>1692.226683</ele>
        <time>2021-10-19T09:50:45.337Z</time>
      </trkpt>
      <trkpt lat="40.77326" lon="44.59189">
        <ele>1710.026549</ele>
        <time>2021-10-19T09:53:14.294Z</time>
      </trkpt>
      <trkpt lat="40.77286" lon="44.59434">
        <ele>1727.669518</ele>
        <time>2021-10-19T09:55:53.322Z</time>
      </trkpt>
      <trkpt lat="40.77214" lon="44.59676">
        <ele>1745.459089</ele>
        <time>2021-10-19T09:58:44.305Z</time>
      </trkpt>
      <trkpt lat="40.77163" lon="44.59922">
        <ele>1756.504062</ele>
        <time>2021-10-19T10:01:17.311Z</time>
      </trkpt>
      <trkpt lat="40.77226" lon="44.60168">
        <ele>1766.563012</ele>
        <time>2021-10-19T10:03:22.319Z</time>
      </trkpt>
      <trkpt lat="40.77264" lon="44.6043">
        <ele>1778.8568</ele>
        <time>2021-10-19T10:05:48.318Z</time>
      </trkpt>
      <trkpt lat="40.77267" lon="44.60685">
        <ele>1788.219612</ele>
        <time>2021-10-19T10:08:12.321Z</time>
      </trkpt>
      <trkpt lat="40.77284" lon="44.60959">
        <ele>1793.909019</ele>
        <time>2021-10-19T10:14:00.314Z</time>
      </trkpt>
      <trkpt lat="40.77266" lon="44.61228">
        <ele>1800.850523</ele>
        <time>2021-10-19T10:16:07.312Z</time>
      </trkpt>
      <trkpt lat="40.772" lon="44.61478">
        <ele>1809.889993</ele>
        <time>2021-10-19T10:17:33.315Z</time>
      </trkpt>
      <trkpt lat="40.77066" lon="44.61704">
        <ele>1810.815452</ele>
        <time>2021-10-19T10:18:55.346Z</time>
      </trkpt>
      <trkpt lat="40.76966" lon="44.61926">
        <ele>1814.262055</ele>
        <time>2021-10-19T10:20:31.348Z</time>
      </trkpt>
      <trkpt lat="40.76853" lon="44.62156">
        <ele>1823.319544</ele>
        <time>2021-10-19T10:22:17.313Z</time>
      </trkpt>
      <trkpt lat="40.76731" lon="44.62363">
        <ele>1839.562956</ele>
        <time>2021-10-19T10:24:50.319Z</time>
      </trkpt>
      <trkpt lat="40.76617" lon="44.62568">
        <ele>1854.94193</ele>
        <time>2021-10-19T10:27:35.325Z</time>
      </trkpt>
      <trkpt lat="40.76546" lon="44.62814">
        <ele>1866.371465</ele>
        <time>2021-10-19T10:30:13.313Z</time>
      </trkpt>
      <trkpt lat="40.76468" lon="44.63057">
        <ele>1876.2886</ele>
        <time>2021-10-19T10:32:49.324Z</time>
      </trkpt>
      <trkpt lat="40.76348" lon="44.63266">
        <ele>1887.430472</ele>
        <time>2021-10-19T10:34:34.320Z</time>
      </trkpt>
      <trkpt lat="40.76189" lon="44.63467">
        <ele>1890.858077</ele>
        <time>2021-10-19T10:36:08.308Z</time>
      </trkpt>
      <trkpt lat="40.7601" lon="44.63671">
        <ele>1877.037307</ele>
        <time>2021-10-19T10:42:04.324Z</time>
      </trkpt>
      <trkpt lat="40.75766" lon="44.63911">
        <ele>1867.126641</ele>
        <time>2021-10-19T10:42:46.318Z</time>
      </trkpt>
      <trkpt lat="40.75652" lon="44.64303">
        <ele>1859.583431</ele>
        <time>2021-10-19T10:43:28.330Z</time>
      </trkpt>
      <trkpt lat="40.75507" lon="44.64595">
        <ele>1848.035086</ele>
        <time>2021-10-19T10:44:08.320Z</time>
      </trkpt>
      <trkpt lat="40.75289" lon="44.64777">
        <ele>1845.898099</ele>
        <time>2021-10-19T10:44:50.355Z</time>
      </trkpt>
      <trkpt lat="40.75085" lon="44.64963">
        <ele>1849.349292</ele>
        <time>2021-10-19T10:45:45.323Z</time>
      </trkpt>
      <trkpt lat="40.74943" lon="44.65198">
        <ele>1851.752707</ele>
        <time>2021-10-19T10:46:37.321Z</time>
      </trkpt>
      <trkpt lat="40.74854" lon="44.6557">
        <ele>1845.902645</ele>
        <time>2021-10-19T10:47:19.350Z</time>
      </trkpt>
      <trkpt lat="40.74785" lon="44.65877">
        <ele>1843.615185</ele>
        <time>2021-10-19T10:47:59.369Z</time>
      </trkpt>
      <trkpt lat="40.74721" lon="44.66143">
        <ele>1844.296146</ele>
        <time>2021-10-19T10:48:43.321Z</time>
      </trkpt>
      <trkpt lat="40.74658" lon="44.66417">
        <ele>1846.329154</ele>
        <time>2021-10-19T10:49:38.317Z</time>
      </trkpt>
      <trkpt lat="40.74582" lon="44.66668">
        <ele>1850.754829</ele>
        <time>2021-10-19T10:51:13.322Z</time>
      </trkpt>
      <trkpt lat="40.74483" lon="44.66928">
        <ele>1853.257866</ele>
        <time>2021-10-19T10:52:24.302Z</time>
      </trkpt>
      <trkpt lat="40.74376" lon="44.67213">
        <ele>1854.42386</ele>
        <time>2021-10-19T10:53:27.322Z</time>
      </trkpt>
      <trkpt lat="40.74284" lon="44.67489">
        <ele>1853.554019</ele>
        <time>2021-10-19T10:54:08.368Z</time>
      </trkpt>
      <trkpt lat="40.74142" lon="44.6786">
        <ele>1844.622581</ele>
        <time>2021-10-19T10:54:49.304Z</time>
      </trkpt>
      <trkpt lat="40.74099" lon="44.68139">
        <ele>1833.916947</ele>
        <time>2021-10-19T10:55:12.325Z</time>
      </trkpt>
      <trkpt lat="40.74102" lon="44.6847">
        <ele>1833.625649</ele>
        <time>2021-10-19T10:55:52.320Z</time>
      </trkpt>
      <trkpt lat="40.7404" lon="44.68773">
        <ele>1833.733205</ele>
        <time>2021-10-19T10:56:45.334Z</time>
      </trkpt>
      <trkpt lat="40.73913" lon="44.69081">
        <ele>1824.260905</ele>
        <time>2021-10-19T10:57:26.312Z</time>
      </trkpt>
      <trkpt lat="40.73747" lon="44.69291">
        <ele>1816.230247</ele>
        <time>2021-10-19T10:57:52.367Z</time>
      </trkpt>
      <trkpt lat="40.73545" lon="44.69451">
        <ele>1805.404508</ele>
        <time>2021-10-19T10:58:18.339Z</time>
      </trkpt>
      <trkpt lat="40.73428" lon="44.69661">
        <ele>1795.604082</ele>
        <time>2021-10-19T10:58:38.313Z</time>
      </trkpt>
      <trkpt lat="40.73324" lon="44.69931">
        <ele>1786.032205</ele>
        <time>2021-10-19T11:03:43.322Z</time>
      </trkpt>
      <trkpt lat="40.73266" lon="44.70249">
        <ele>1778.190231</ele>
        <time>2021-10-19T11:04:14.322Z</time>
      </trkpt>
      <trkpt lat="40.73215" lon="44.70552">
        <ele>1775.428407</ele>
        <time>2021-10-19T11:04:54.324Z</time>
      </trkpt>
      <trkpt lat="40.73082" lon="44.70815">
        <ele>1771.298154</ele>
        <time>2021-10-19T11:05:30.336Z</time>
      </trkpt>
      <trkpt lat="40.72954" lon="44.71037">
        <ele>1763.069481</ele>
        <time>2021-10-19T11:05:50.349Z</time>
      </trkpt>
      <trkpt lat="40.72853" lon="44.71315">
        <ele>1757.324566</ele>
        <time>2021-10-19T11:06:16.331Z</time>
      </trkpt>
      <trkpt lat="40.72753" lon="44.71662">
        <ele>1753.352718</ele>
        <time>2021-10-19T11:06:58.332Z</time>
      </trkpt>
      <trkpt lat="40.72594" lon="44.7193">
        <ele>1748.063094</ele>
        <time>2021-10-19T11:07:38.337Z</time>
      </trkpt>
      <trkpt lat="40.7245" lon="44.72141">
        <ele>1746.518208</ele>
        <time>2021-10-19T11:08:20.324Z</time>
      </trkpt>
      <trkpt lat="40.72293" lon="44.72389">
        <ele>1745.985185</ele>
        <time>2021-10-19T11:09:02.331Z</time>
      </trkpt>
      <trkpt lat="40.7213" lon="44.72651">
        <ele>1741.428002</ele>
        <time>2021-10-19T11:09:42.318Z</time>
      </trkpt>
      <trkpt lat="40.71895" lon="44.72945">
        <ele>1722.053442</ele>
        <time>2021-10-19T11:10:24.310Z</time>
      </trkpt>
      <trkpt lat="40.71849" lon="44.73315">
        <ele>1704.146969</ele>
        <time>2021-10-19T11:11:02.334Z</time>
      </trkpt>
      <trkpt lat="40.71837" lon="44.73627">
        <ele>1681.281964</ele>
        <time>2021-10-19T11:11:28.312Z</time>
      </trkpt>
      <trkpt lat="40.71703" lon="44.7385">
        <ele>1662.72142</ele>
        <time>2021-10-19T11:11:50.353Z</time>
      </trkpt>
      <trkpt lat="40.71653" lon="44.74142">
        <ele>1652.73983</ele>
        <time>2021-10-19T11:12:10.319Z</time>
      </trkpt>
      <trkpt lat="40.71624" lon="44.74443">
        <ele>1646.923758</ele>
        <time>2021-10-19T11:12:31.350Z</time>
      </trkpt>
      <trkpt lat="40.71609" lon="44.74785">
        <ele>1645.549865</ele>
        <time>2021-10-19T11:13:06.323Z</time>
      </trkpt>
      <trkpt lat="40.71595" lon="44.75099">
        <ele>1642.718193</ele>
        <time>2021-10-19T11:13:46.321Z</time>
      </trkpt>
      <trkpt lat="40.71641" lon="44.75511">
        <ele>1622.08813</ele>
        <time>2021-10-19T11:14:27.321Z</time>
      </trkpt>
      <trkpt lat="40.71648" lon="44.75951">
        <ele>1590.766723</ele>
        <time>2021-10-19T11:15:07.330Z</time>
      </trkpt>
      <trkpt lat="40.71594" lon="44.76374">
        <ele>1557.807159</ele>
        <time>2021-10-19T11:15:49.315Z</time>
      </trkpt>
      <trkpt lat="40.7156" lon="44.76785">
        <ele>1530.264153</ele>
        <time>2021-10-19T11:16:31.332Z</time>
      </trkpt>
      <trkpt lat="40.71534" lon="44.77161">
        <ele>1505.211198</ele>
        <time>2021-10-19T11:17:10.332Z</time>
      </trkpt>
      <trkpt lat="40.71616" lon="44.77562">
        <ele>1482.295453</ele>
        <time>2021-10-19T11:17:47.328Z</time>
      </trkpt>
      <trkpt lat="40.71641" lon="44.77952">
        <ele>1464.249756</ele>
        <time>2021-10-19T11:18:26.327Z</time>
      </trkpt>
      <trkpt lat="40.71824" lon="44.78101">
        <ele>1454.091086</ele>
        <time>2021-10-19T11:18:48.324Z</time>
      </trkpt>
      <trkpt lat="40.72048" lon="44.78392">
        <ele>1449.35893</ele>
        <time>2021-10-19T11:19:27.369Z</time>
      </trkpt>
      <trkpt lat="40.72008" lon="44.78672">
        <ele>1439.153245</ele>
        <time>2021-10-19T11:19:50.322Z</time>
      </trkpt>
      <trkpt lat="40.71925" lon="44.79081">
        <ele>1420.395303</ele>
        <time>2021-10-19T11:20:32.309Z</time>
      </trkpt>
      <trkpt lat="40.719" lon="44.79447">
        <ele>1408.015542</ele>
        <time>2021-10-19T11:21:05.334Z</time>
      </trkpt>
      <trkpt lat="40.71949" lon="44.79812">
        <ele>1409.123145</ele>
        <time>2021-10-19T11:21:44.323Z</time>
      </trkpt>
      <trkpt lat="40.72083" lon="44.80119">
        <ele>1415.363478</ele>
        <time>2021-10-19T11:22:26.333Z</time>
      </trkpt>
      <trkpt lat="40.72312" lon="44.80296">
        <ele>1399.600512</ele>
        <time>2021-10-19T11:23:00.336Z</time>
      </trkpt>
      <trkpt lat="40.72427" lon="44.8051">
        <ele>1392.755526</ele>
        <time>2021-10-19T11:23:22.324Z</time>
      </trkpt>
      <trkpt lat="40.72537" lon="44.80835">
        <ele>1385.153132</ele>
        <time>2021-10-19T11:24:01.328Z</time>
      </trkpt>
      <trkpt lat="40.72732" lon="44.81134">
        <ele>1379.070101</ele>
        <time>2021-10-19T11:24:40.325Z</time>
      </trkpt>
      <trkpt lat="40.72946" lon="44.81331">
        <ele>1369.547056</ele>
        <time>2021-10-19T11:25:11.325Z</time>
      </trkpt>
      <trkpt lat="40.73127" lon="44.8153">
        <ele>1360.009406</ele>
        <time>2021-10-19T11:25:37.328Z</time>
      </trkpt>
      <trkpt lat="40.73402" lon="44.81774">
        <ele>1348.072525</ele>
        <time>2021-10-19T11:26:17.335Z</time>
      </trkpt>
      <trkpt lat="40.73629" lon="44.82053">
        <ele>1335.992308</ele>
        <time>2021-10-19T11:26:59.310Z</time>
      </trkpt>
      <trkpt lat="40.73882" lon="44.82168">
        <ele>1327.027458</ele>
        <time>2021-10-19T11:27:35.329Z</time>
      </trkpt>
      <trkpt lat="40.73988" lon="44.82414">
        <ele>1327.256594</ele>
        <time>2021-10-19T11:28:15.328Z</time>
      </trkpt>
      <trkpt lat="40.74027" lon="44.82715">
        <ele>1326.33877</ele>
        <time>2021-10-19T11:28:57.356Z</time>
      </trkpt>
      <trkpt lat="40.74061" lon="44.82989">
        <ele>1327.569414</ele>
        <time>2021-10-19T11:30:02.334Z</time>
      </trkpt>
      <trkpt lat="40.74079" lon="44.83298">
        <ele>1329.105191</ele>
        <time>2021-10-19T11:31:07.372Z</time>
      </trkpt>
      <trkpt lat="40.74113" lon="44.83611">
        <ele>1325.291401</ele>
        <time>2021-10-19T11:32:02.327Z</time>
      </trkpt>
      <trkpt lat="40.74099" lon="44.8396">
        <ele>1309.801675</ele>
        <time>2021-10-19T11:32:46.314Z</time>
      </trkpt>
      <trkpt lat="40.74087" lon="44.84349">
        <ele>1292.945152</ele>
        <time>2021-10-19T11:33:27.326Z</time>
      </trkpt>
      <trkpt lat="40.74065" lon="44.84726">
        <ele>1287.890344</ele>
        <time>2021-10-19T11:34:09.358Z</time>
      </trkpt>
      <trkpt lat="40.74016" lon="44.85064">
        <ele>1284.017302</ele>
        <time>2021-10-19T11:34:49.342Z</time>
      </trkpt>
      <trkpt lat="40.73972" lon="44.85394">
        <ele>1270.024067</ele>
        <time>2021-10-19T11:35:31.318Z</time>
      </trkpt>
      <trkpt lat="40.73966" lon="44.85743">
        <ele>1250.228636</ele>
        <time>2021-10-19T11:36:11.315Z</time>
      </trkpt>
      <trkpt lat="40.73999" lon="44.86132">
        <ele>1241.901772</ele>
        <time>2021-10-19T11:36:53.316Z</time>
      </trkpt>
      <trkpt lat="40.74054" lon="44.86421">
        <ele>1243.456845</ele>
        <time>2021-10-19T11:37:42.331Z</time>
      </trkpt>
      <trkpt lat="40.74074" lon="44.86653">
        <ele>1244.263997</ele>
        <time>2021-10-19T11:38:23.315Z</time>
      </trkpt>
      <trkpt lat="40.73943" lon="44.8658">
        <ele>1255.932666</ele>
        <time>2021-10-19T11:42:11.333Z</time>
      </trkpt>
      <trkpt lat="40.73906" lon="44.86723">
        <ele>1271.884461</ele>
        <time>2021-10-19T11:44:29.324Z</time>
      </trkpt>
      <trkpt lat="40.73868" lon="44.86692">
        <ele>1281.048011</ele>
        <time>2021-10-19T11:46:20.336Z</time>
      </trkpt>
      <trkpt lat="40.7395" lon="44.86969">
        <ele>1283.906598</ele>
        <time>2021-10-19T11:47:38.334Z</time>
      </trkpt>
      <trkpt lat="40.7409" lon="44.87143">
        <ele>1287.589436</ele>
        <time>2021-10-19T11:49:02.337Z</time>
      </trkpt>
      <trkpt lat="40.74295" lon="44.87236">
        <ele>1289.021014</ele>
        <time>2021-10-19T11:50:25.322Z</time>
      </trkpt>
      <trkpt lat="40.74463" lon="44.87381">
        <ele>1292.672141</ele>
        <time>2021-10-19T11:52:31.331Z</time>
      </trkpt>
      <trkpt lat="40.74548" lon="44.874">
        <ele>1292.672141</ele>
        <time>2021-10-19T12:31:58.996Z</time>
      </trkpt>
    </trkseg>
  </trk>
  <trk>
    <name><![CDATA[Tour d'Europe: étape 480]]></name>
    <extensions>
      <line xmlns="http://www.topografix.com/GPX/gpx_style/0/2">
        <color>880000</color>
        <width>4</width>
      </line>
    </extensions>
    <trkseg>
      <trkpt lat="40.74528" lon="44.87412">
        <ele>1306.823848</ele>
        <time>2021-10-21T05:41:20.885Z</time>
      </trkpt>
      <trkpt lat="40.74565" lon="44.87547">
        <ele>1308.628358</ele>
        <time>2021-10-21T05:44:23.854Z</time>
      </trkpt>
      <trkpt lat="40.74701" lon="44.87739">
        <ele>1318.220232</ele>
        <time>2021-10-21T05:46:11.867Z</time>
      </trkpt>
      <trkpt lat="40.7483" lon="44.87964">
        <ele>1316.81442</ele>
        <time>2021-10-21T05:47:34.857Z</time>
      </trkpt>
      <trkpt lat="40.7501" lon="44.88064">
        <ele>1301.411513</ele>
        <time>2021-10-21T05:48:20.887Z</time>
      </trkpt>
      <trkpt lat="40.75093" lon="44.88346">
        <ele>1288.026121</ele>
        <time>2021-10-21T05:49:15.865Z</time>
      </trkpt>
      <trkpt lat="40.75047" lon="44.88557">
        <ele>1277.271794</ele>
        <time>2021-10-21T05:49:57.885Z</time>
      </trkpt>
      <trkpt lat="40.75037" lon="44.88756">
        <ele>1280.249025</ele>
        <time>2021-10-21T05:51:01.924Z</time>
      </trkpt>
      <trkpt lat="40.75215" lon="44.88937">
        <ele>1277.674447</ele>
        <time>2021-10-21T05:51:59.868Z</time>
      </trkpt>
      <trkpt lat="40.75298" lon="44.89229">
        <ele>1267.90943</ele>
        <time>2021-10-21T05:52:45.872Z</time>
      </trkpt>
      <trkpt lat="40.75374" lon="44.89539">
        <ele>1260.199514</ele>
        <time>2021-10-21T06:08:12.886Z</time>
      </trkpt>
      <trkpt lat="40.75466" lon="44.89719">
        <ele>1248.103172</ele>
        <time>2021-10-21T06:13:42.912Z</time>
      </trkpt>
      <trkpt lat="40.75618" lon="44.89823">
        <ele>1230.327545</ele>
        <time>2021-10-21T06:15:22.881Z</time>
      </trkpt>
      <trkpt lat="40.75563" lon="44.90065">
        <ele>1218.552906</ele>
        <time>2021-10-21T06:17:00.881Z</time>
      </trkpt>
      <trkpt lat="40.75479" lon="44.90284">
        <ele>1206.654847</ele>
        <time>2021-10-21T06:18:30.856Z</time>
      </trkpt>
      <trkpt lat="40.75639" lon="44.90448">
        <ele>1196.010838</ele>
        <time>2021-10-21T06:19:54.881Z</time>
      </trkpt>
      <trkpt lat="40.75804" lon="44.90642">
        <ele>1186.138191</ele>
        <time>2021-10-21T06:20:52.886Z</time>
      </trkpt>
      <trkpt lat="40.75858" lon="44.90802">
        <ele>1182.943646</ele>
        <time>2021-10-21T06:22:00.892Z</time>
      </trkpt>
      <trkpt lat="40.75894" lon="44.91072">
        <ele>1176.368393</ele>
        <time>2021-10-21T06:23:15.876Z</time>
      </trkpt>
      <trkpt lat="40.75969" lon="44.91307">
        <ele>1162.772147</ele>
        <time>2021-10-21T06:24:32.890Z</time>
      </trkpt>
      <trkpt lat="40.76093" lon="44.91533">
        <ele>1159.221603</ele>
        <time>2021-10-21T06:26:25.875Z</time>
      </trkpt>
      <trkpt lat="40.76222" lon="44.91787">
        <ele>1147.736273</ele>
        <time>2021-10-21T06:27:27.886Z</time>
      </trkpt>
      <trkpt lat="40.76328" lon="44.91583">
        <ele>1129.272308</ele>
        <time>2021-10-21T06:28:21.866Z</time>
      </trkpt>
      <trkpt lat="40.76506" lon="44.91807">
        <ele>1127.534812</ele>
        <time>2021-10-21T06:29:19.862Z</time>
      </trkpt>
      <trkpt lat="40.76721" lon="44.91995">
        <ele>1122.837518</ele>
        <time>2021-10-21T06:29:59.876Z</time>
      </trkpt>
      <trkpt lat="40.76935" lon="44.92158">
        <ele>1116.773629</ele>
        <time>2021-10-21T06:30:50.884Z</time>
      </trkpt>
      <trkpt lat="40.77183" lon="44.92264">
        <ele>1114.920295</ele>
        <time>2021-10-21T06:31:34.900Z</time>
      </trkpt>
      <trkpt lat="40.77431" lon="44.92292">
        <ele>1107.523576</ele>
        <time>2021-10-21T06:32:14.925Z</time>
      </trkpt>
      <trkpt lat="40.7764" lon="44.92498">
        <ele>1097.661665</ele>
        <time>2021-10-21T06:33:00.877Z</time>
      </trkpt>
      <trkpt lat="40.77663" lon="44.92763">
        <ele>1094.331606</ele>
        <time>2021-10-21T06:33:44.879Z</time>
      </trkpt>
      <trkpt lat="40.77722" lon="44.93053">
        <ele>1089.435097</ele>
        <time>2021-10-21T06:40:11.903Z</time>
      </trkpt>
      <trkpt lat="40.77739" lon="44.9343">
        <ele>1077.952603</ele>
        <time>2021-10-21T06:40:51.887Z</time>
      </trkpt>
      <trkpt lat="40.77601" lon="44.93764">
        <ele>1069.782469</ele>
        <time>2021-10-21T06:41:31.880Z</time>
      </trkpt>
      <trkpt lat="40.77578" lon="44.94145">
        <ele>1063.663089</ele>
        <time>2021-10-21T06:42:13.896Z</time>
      </trkpt>
      <trkpt lat="40.77469" lon="44.94429">
        <ele>1059.451844</ele>
        <time>2021-10-21T06:42:55.885Z</time>
      </trkpt>
      <trkpt lat="40.77371" lon="44.94771">
        <ele>1051.692375</ele>
        <time>2021-10-21T06:43:35.920Z</time>
      </trkpt>
      <trkpt lat="40.77245" lon="44.95145">
        <ele>1044.149299</ele>
        <time>2021-10-21T06:44:16.908Z</time>
      </trkpt>
      <trkpt lat="40.77288" lon="44.95465">
        <ele>1042.648984</ele>
        <time>2021-10-21T06:44:56.890Z</time>
      </trkpt>
      <trkpt lat="40.77312" lon="44.95726">
        <ele>1037.858892</ele>
        <time>2021-10-21T06:45:39.877Z</time>
      </trkpt>
      <trkpt lat="40.77312" lon="44.96061">
        <ele>1024.719907</ele>
        <time>2021-10-21T06:46:21.872Z</time>
      </trkpt>
      <trkpt lat="40.77376" lon="44.96385">
        <ele>1013.861761</ele>
        <time>2021-10-21T06:47:01.883Z</time>
      </trkpt>
      <trkpt lat="40.77401" lon="44.96748">
        <ele>1008.988014</ele>
        <time>2021-10-21T06:47:44.876Z</time>
      </trkpt>
      <trkpt lat="40.77444" lon="44.97066">
        <ele>1007.612532</ele>
        <time>2021-10-21T06:48:24.889Z</time>
      </trkpt>
      <trkpt lat="40.77494" lon="44.97443">
        <ele>1004.592941</ele>
        <time>2021-10-21T06:49:06.883Z</time>
      </trkpt>
      <trkpt lat="40.77479" lon="44.97852">
        <ele>998.725802</ele>
        <time>2021-10-21T06:49:48.933Z</time>
      </trkpt>
      <trkpt lat="40.7744" lon="44.98211">
        <ele>987.802701</ele>
        <time>2021-10-21T06:50:28.885Z</time>
      </trkpt>
      <trkpt lat="40.77366" lon="44.9855">
        <ele>984.338151</ele>
        <time>2021-10-21T06:51:10.891Z</time>
      </trkpt>
      <trkpt lat="40.77228" lon="44.98897">
        <ele>975.319312</ele>
        <time>2021-10-21T06:51:52.900Z</time>
      </trkpt>
      <trkpt lat="40.77026" lon="44.99182">
        <ele>966.22432</ele>
        <time>2021-10-21T06:52:32.891Z</time>
      </trkpt>
      <trkpt lat="40.76886" lon="44.99474">
        <ele>970.02354</ele>
        <time>2021-10-21T06:53:14.890Z</time>
      </trkpt>
      <trkpt lat="40.76889" lon="44.99783">
        <ele>972.094461</ele>
        <time>2021-10-21T06:54:02.878Z</time>
      </trkpt>
      <trkpt lat="40.76941" lon="45.00201">
        <ele>957.238795</ele>
        <time>2021-10-21T06:54:44.884Z</time>
      </trkpt>
      <trkpt lat="40.76852" lon="45.00519">
        <ele>953.032165</ele>
        <time>2021-10-21T06:55:32.881Z</time>
      </trkpt>
      <trkpt lat="40.76902" lon="45.00879">
        <ele>946.203816</ele>
        <time>2021-10-21T06:56:12.892Z</time>
      </trkpt>
      <trkpt lat="40.76947" lon="45.01232">
        <ele>941.825859</ele>
        <time>2021-10-21T06:56:54.900Z</time>
      </trkpt>
      <trkpt lat="40.76869" lon="45.01484">
        <ele>940.238831</ele>
        <time>2021-10-21T06:57:37.877Z</time>
      </trkpt>
      <trkpt lat="40.76738" lon="45.01791">
        <ele>930.895798</ele>
        <time>2021-10-21T06:58:19.867Z</time>
      </trkpt>
      <trkpt lat="40.76538" lon="45.01869">
        <ele>922.021337</ele>
        <time>2021-10-21T06:59:12.890Z</time>
      </trkpt>
      <trkpt lat="40.76344" lon="45.01909">
        <ele>929.928897</ele>
        <time>2021-10-21T07:00:21.871Z</time>
      </trkpt>
      <trkpt lat="40.76175" lon="45.02088">
        <ele>935.232115</ele>
        <time>2021-10-21T07:01:30.900Z</time>
      </trkpt>
      <trkpt lat="40.75964" lon="45.02093">
        <ele>939.363628</ele>
        <time>2021-10-21T07:02:45.905Z</time>
      </trkpt>
      <trkpt lat="40.75753" lon="45.02165">
        <ele>938.584114</ele>
        <time>2021-10-21T07:03:50.893Z</time>
      </trkpt>
      <trkpt lat="40.75535" lon="45.02196">
        <ele>945.099454</ele>
        <time>2021-10-21T07:05:02.876Z</time>
      </trkpt>
      <trkpt lat="40.75334" lon="45.02226">
        <ele>948.272506</ele>
        <time>2021-10-21T07:06:15.895Z</time>
      </trkpt>
      <trkpt lat="40.75121" lon="45.02242">
        <ele>958.278218</ele>
        <time>2021-10-21T07:07:51.900Z</time>
      </trkpt>
      <trkpt lat="40.74924" lon="45.02351">
        <ele>962.098918</ele>
        <time>2021-10-21T07:09:29.898Z</time>
      </trkpt>
      <trkpt lat="40.74731" lon="45.02471">
        <ele>961.641359</ele>
        <time>2021-10-21T07:13:43.894Z</time>
      </trkpt>
      <trkpt lat="40.74523" lon="45.02567">
        <ele>967.730717</ele>
        <time>2021-10-21T07:15:06.898Z</time>
      </trkpt>
      <trkpt lat="40.74333" lon="45.02668">
        <ele>979.066385</ele>
        <time>2021-10-21T07:16:31.895Z</time>
      </trkpt>
      <trkpt lat="40.74102" lon="45.02687">
        <ele>985.228449</ele>
        <time>2021-10-21T07:17:24.913Z</time>
      </trkpt>
      <trkpt lat="40.73889" lon="45.02762">
        <ele>974.169468</ele>
        <time>2021-10-21T07:18:40.900Z</time>
      </trkpt>
      <trkpt lat="40.73804" lon="45.0297">
        <ele>979.022177</ele>
        <time>2021-10-21T07:19:45.873Z</time>
      </trkpt>
      <trkpt lat="40.73824" lon="45.0325">
        <ele>982.926019</ele>
        <time>2021-10-21T07:20:57.921Z</time>
      </trkpt>
      <trkpt lat="40.73772" lon="45.03494">
        <ele>985.60785</ele>
        <time>2021-10-21T07:22:40.904Z</time>
      </trkpt>
      <trkpt lat="40.73613" lon="45.03683">
        <ele>991.793505</ele>
        <time>2021-10-21T07:23:35.930Z</time>
      </trkpt>
      <trkpt lat="40.73446" lon="45.03872">
        <ele>1003.694352</ele>
        <time>2021-10-21T07:24:52.893Z</time>
      </trkpt>
      <trkpt lat="40.73286" lon="45.04034">
        <ele>1011.007932</ele>
        <time>2021-10-21T07:26:13.899Z</time>
      </trkpt>
      <trkpt lat="40.73201" lon="45.04303">
        <ele>1015.65522</ele>
        <time>2021-10-21T07:27:28.889Z</time>
      </trkpt>
      <trkpt lat="40.73038" lon="45.04468">
        <ele>1021.657279</ele>
        <time>2021-10-21T07:29:03.926Z</time>
      </trkpt>
      <trkpt lat="40.72916" lon="45.04691">
        <ele>1030.158328</ele>
        <time>2021-10-21T07:30:12.904Z</time>
      </trkpt>
      <trkpt lat="40.72756" lon="45.04885">
        <ele>1027.714975</ele>
        <time>2021-10-21T07:31:26.932Z</time>
      </trkpt>
      <trkpt lat="40.72636" lon="45.05103">
        <ele>1029.802152</ele>
        <time>2021-10-21T07:32:50.893Z</time>
      </trkpt>
      <trkpt lat="40.72447" lon="45.05221">
        <ele>1032.317495</ele>
        <time>2021-10-21T07:34:06.893Z</time>
      </trkpt>
      <trkpt lat="40.72299" lon="45.05444">
        <ele>1037.859493</ele>
        <time>2021-10-21T07:35:23.894Z</time>
      </trkpt>
      <trkpt lat="40.72197" lon="45.05675">
        <ele>1039.696711</ele>
        <time>2021-10-21T07:36:39.879Z</time>
      </trkpt>
      <trkpt lat="40.72143" lon="45.05957">
        <ele>1041.447687</ele>
        <time>2021-10-21T07:37:54.903Z</time>
      </trkpt>
      <trkpt lat="40.72174" lon="45.06216">
        <ele>1052.186316</ele>
        <time>2021-10-21T07:39:10.887Z</time>
      </trkpt>
      <trkpt lat="40.72316" lon="45.06434">
        <ele>1058.240151</ele>
        <time>2021-10-21T07:40:37.909Z</time>
      </trkpt>
      <trkpt lat="40.72438" lon="45.06652">
        <ele>1062.705127</ele>
        <time>2021-10-21T07:42:30.904Z</time>
      </trkpt>
      <trkpt lat="40.72511" lon="45.06896">
        <ele>1070.431445</ele>
        <time>2021-10-21T07:43:56.881Z</time>
      </trkpt>
      <trkpt lat="40.72478" lon="45.07169">
        <ele>1075.974998</ele>
        <time>2021-10-21T07:45:36.900Z</time>
      </trkpt>
      <trkpt lat="40.7253" lon="45.07443">
        <ele>1076.356996</ele>
        <time>2021-10-21T07:46:36.892Z</time>
      </trkpt>
      <trkpt lat="40.72433" lon="45.07665">
        <ele>1085.330079</ele>
        <time>2021-10-21T07:47:55.898Z</time>
      </trkpt>
      <trkpt lat="40.72342" lon="45.07913">
        <ele>1096.705269</ele>
        <time>2021-10-21T07:49:32.879Z</time>
      </trkpt>
      <trkpt lat="40.72274" lon="45.08156">
        <ele>1100.782918</ele>
        <time>2021-10-21T07:51:15.920Z</time>
      </trkpt>
      <trkpt lat="40.72243" lon="45.08448">
        <ele>1102.908238</ele>
        <time>2021-10-21T07:52:30.890Z</time>
      </trkpt>
      <trkpt lat="40.72196" lon="45.0873">
        <ele>1103.632233</ele>
        <time>2021-10-21T07:53:39.907Z</time>
      </trkpt>
      <trkpt lat="40.7213" lon="45.08977">
        <ele>1113.55805</ele>
        <time>2021-10-21T07:55:15.911Z</time>
      </trkpt>
      <trkpt lat="40.72035" lon="45.09226">
        <ele>1117.955466</ele>
        <time>2021-10-21T07:56:38.935Z</time>
      </trkpt>
      <trkpt lat="40.71939" lon="45.09427">
        <ele>1128.107924</ele>
        <time>2021-10-21T07:58:04.885Z</time>
      </trkpt>
      <trkpt lat="40.71725" lon="45.09416">
        <ele>1136.910076</ele>
        <time>2021-10-21T07:59:39.904Z</time>
      </trkpt>
      <trkpt lat="40.71539" lon="45.09541">
        <ele>1143.002385</ele>
        <time>2021-10-21T08:01:28.913Z</time>
      </trkpt>
      <trkpt lat="40.71418" lon="45.09732">
        <ele>1155.647695</ele>
        <time>2021-10-21T08:03:41.897Z</time>
      </trkpt>
      <trkpt lat="40.71246" lon="45.09908">
        <ele>1158.042057</ele>
        <time>2021-10-21T08:04:53.936Z</time>
      </trkpt>
      <trkpt lat="40.7111" lon="45.1013">
        <ele>1164.924606</ele>
        <time>2021-10-21T08:06:11.906Z</time>
      </trkpt>
      <trkpt lat="40.70925" lon="45.1022">
        <ele>1162.787605</ele>
        <time>2021-10-21T08:07:30.939Z</time>
      </trkpt>
      <trkpt lat="40.70729" lon="45.102">
        <ele>1163.86495</ele>
        <time>2021-10-21T08:08:43.933Z</time>
      </trkpt>
      <trkpt lat="40.70547" lon="45.10305">
        <ele>1170.113058</ele>
        <time>2021-10-21T08:10:15.900Z</time>
      </trkpt>
      <trkpt lat="40.7033" lon="45.10365">
        <ele>1172.440266</ele>
        <time>2021-10-21T08:11:32.935Z</time>
      </trkpt>
      <trkpt lat="40.70149" lon="45.10501">
        <ele>1176.577643</ele>
        <time>2021-10-21T08:12:53.901Z</time>
      </trkpt>
      <trkpt lat="40.70026" lon="45.10713">
        <ele>1186.505846</ele>
        <time>2021-10-21T08:14:31.894Z</time>
      </trkpt>
      <trkpt lat="40.69861" lon="45.1089">
        <ele>1187.833484</ele>
        <time>2021-10-21T08:15:40.890Z</time>
      </trkpt>
      <trkpt lat="40.69704" lon="45.11057">
        <ele>1193.481536</ele>
        <time>2021-10-21T08:17:02.899Z</time>
      </trkpt>
      <trkpt lat="40.69578" lon="45.11275">
        <ele>1197.653778</ele>
        <time>2021-10-21T08:18:42.897Z</time>
      </trkpt>
      <trkpt lat="40.694" lon="45.1144">
        <ele>1199.881114</ele>
        <time>2021-10-21T08:19:56.912Z</time>
      </trkpt>
      <trkpt lat="40.69235" lon="45.11608">
        <ele>1205.245005</ele>
        <time>2021-10-21T08:21:14.909Z</time>
      </trkpt>
      <trkpt lat="40.69169" lon="45.11868">
        <ele>1211.292508</ele>
        <time>2021-10-21T08:22:44.908Z</time>
      </trkpt>
      <trkpt lat="40.69049" lon="45.12091">
        <ele>1223.457898</ele>
        <time>2021-10-21T08:24:29.911Z</time>
      </trkpt>
      <trkpt lat="40.68912" lon="45.12294">
        <ele>1230.9531</ele>
        <time>2021-10-21T08:36:38.908Z</time>
      </trkpt>
      <trkpt lat="40.68905" lon="45.12562">
        <ele>1230.419071</ele>
        <time>2021-10-21T08:38:32.947Z</time>
      </trkpt>
      <trkpt lat="40.68825" lon="45.12801">
        <ele>1239.795144</ele>
        <time>2021-10-21T08:40:11.922Z</time>
      </trkpt>
      <trkpt lat="40.68713" lon="45.13021">
        <ele>1246.740283</ele>
        <time>2021-10-21T08:41:48.909Z</time>
      </trkpt>
      <trkpt lat="40.68726" lon="45.13297">
        <ele>1254.395064</ele>
        <time>2021-10-21T08:42:54.902Z</time>
      </trkpt>
      <trkpt lat="40.6878" lon="45.13551">
        <ele>1257.279858</ele>
        <time>2021-10-21T08:44:07.937Z</time>
      </trkpt>
      <trkpt lat="40.68835" lon="45.13833">
        <ele>1263.39587</ele>
        <time>2021-10-21T08:45:37.905Z</time>
      </trkpt>
      <trkpt lat="40.6883" lon="45.14086">
        <ele>1272.966482</ele>
        <time>2021-10-21T08:47:42.924Z</time>
      </trkpt>
      <trkpt lat="40.68817" lon="45.14384">
        <ele>1278.851294</ele>
        <time>2021-10-21T08:49:11.909Z</time>
      </trkpt>
      <trkpt lat="40.68803" lon="45.14662">
        <ele>1285.092696</ele>
        <time>2021-10-21T08:50:50.903Z</time>
      </trkpt>
      <trkpt lat="40.68748" lon="45.14924">
        <ele>1282.744419</ele>
        <time>2021-10-21T08:52:05.906Z</time>
      </trkpt>
      <trkpt lat="40.68671" lon="45.15197">
        <ele>1286.54594</ele>
        <time>2021-10-21T08:53:11.904Z</time>
      </trkpt>
      <trkpt lat="40.68587" lon="45.15458">
        <ele>1302.159055</ele>
        <time>2021-10-21T08:55:00.924Z</time>
      </trkpt>
      <trkpt lat="40.68475" lon="45.15655">
        <ele>1310.92159</ele>
        <time>2021-10-21T08:56:48.911Z</time>
      </trkpt>
      <trkpt lat="40.68478" lon="45.15939">
        <ele>1315.927787</ele>
        <time>2021-10-21T08:57:57.959Z</time>
      </trkpt>
      <trkpt lat="40.68487" lon="45.16194">
        <ele>1329.61906</ele>
        <time>2021-10-21T08:59:49.939Z</time>
      </trkpt>
      <trkpt lat="40.68376" lon="45.16425">
        <ele>1337.438216</ele>
        <time>2021-10-21T09:01:50.900Z</time>
      </trkpt>
      <trkpt lat="40.68253" lon="45.16635">
        <ele>1348.139001</ele>
        <time>2021-10-21T09:04:17.902Z</time>
      </trkpt>
      <trkpt lat="40.68132" lon="45.1683">
        <ele>1357.422491</ele>
        <time>2021-10-21T09:06:10.906Z</time>
      </trkpt>
      <trkpt lat="40.6804" lon="45.17076">
        <ele>1372.92045</ele>
        <time>2021-10-21T09:08:18.929Z</time>
      </trkpt>
      <trkpt lat="40.67976" lon="45.17323">
        <ele>1384.09253</ele>
        <time>2021-10-21T09:10:28.928Z</time>
      </trkpt>
      <trkpt lat="40.68012" lon="45.17601">
        <ele>1387.663623</ele>
        <time>2021-10-21T09:11:46.915Z</time>
      </trkpt>
      <trkpt lat="40.67985" lon="45.17875">
        <ele>1390.577063</ele>
        <time>2021-10-21T09:12:58.905Z</time>
      </trkpt>
      <trkpt lat="40.67888" lon="45.18115">
        <ele>1388.363882</ele>
        <time>2021-10-21T09:14:08.897Z</time>
      </trkpt>
      <trkpt lat="40.67813" lon="45.18377">
        <ele>1390.087067</ele>
        <time>2021-10-21T09:15:36.927Z</time>
      </trkpt>
      <trkpt lat="40.67782" lon="45.18651">
        <ele>1393.433225</ele>
        <time>2021-10-21T09:16:47.901Z</time>
      </trkpt>
      <trkpt lat="40.67751" lon="45.18935">
        <ele>1397.287971</ele>
        <time>2021-10-21T09:18:04.910Z</time>
      </trkpt>
      <trkpt lat="40.67714" lon="45.19205">
        <ele>1407.744923</ele>
        <time>2021-10-21T09:19:55.906Z</time>
      </trkpt>
      <trkpt lat="40.67721" lon="45.19479">
        <ele>1413.417719</ele>
        <time>2021-10-21T09:21:13.930Z</time>
      </trkpt>
      <trkpt lat="40.67676" lon="45.19746">
        <ele>1413.861057</ele>
        <time>2021-10-21T09:22:49.922Z</time>
      </trkpt>
      <trkpt lat="40.67663" lon="45.20028">
        <ele>1425.463036</ele>
        <time>2021-10-21T09:24:27.918Z</time>
      </trkpt>
      <trkpt lat="40.67588" lon="45.20252">
        <ele>1441.101474</ele>
        <time>2021-10-21T09:26:56.935Z</time>
      </trkpt>
      <trkpt lat="40.67474" lon="45.20487">
        <ele>1448.786931</ele>
        <time>2021-10-21T09:28:21.955Z</time>
      </trkpt>
      <trkpt lat="40.67466" lon="45.20759">
        <ele>1454.384485</ele>
        <time>2021-10-21T09:29:41.915Z</time>
      </trkpt>
      <trkpt lat="40.67387" lon="45.21004">
        <ele>1464.509604</ele>
        <time>2021-10-21T09:31:50.927Z</time>
      </trkpt>
      <trkpt lat="40.67347" lon="45.2126">
        <ele>1473.797415</ele>
        <time>2021-10-21T09:33:38.927Z</time>
      </trkpt>
      <trkpt lat="40.67296" lon="45.21513">
        <ele>1481.594594</ele>
        <time>2021-10-21T09:35:12.912Z</time>
      </trkpt>
      <trkpt lat="40.67278" lon="45.21791">
        <ele>1491.725447</ele>
        <time>2021-10-21T09:36:50.929Z</time>
      </trkpt>
      <trkpt lat="40.673" lon="45.22047">
        <ele>1500.985742</ele>
        <time>2021-10-21T09:38:45.920Z</time>
      </trkpt>
      <trkpt lat="40.6728" lon="45.22322">
        <ele>1502.888584</ele>
        <time>2021-10-21T09:40:04.920Z</time>
      </trkpt>
      <trkpt lat="40.67165" lon="45.22547">
        <ele>1509.623557</ele>
        <time>2021-10-21T09:41:52.908Z</time>
      </trkpt>
      <trkpt lat="40.67097" lon="45.22789">
        <ele>1517.24981</ele>
        <time>2021-10-21T09:43:32.958Z</time>
      </trkpt>
      <trkpt lat="40.66992" lon="45.23026">
        <ele>1532.733785</ele>
        <time>2021-10-21T09:45:10.939Z</time>
      </trkpt>
      <trkpt lat="40.6703" lon="45.23292">
        <ele>1548.64524</ele>
        <time>2021-10-21T09:47:22.937Z</time>
      </trkpt>
      <trkpt lat="40.67052" lon="45.23532">
        <ele>1560.937656</ele>
        <time>2021-10-21T09:49:27.912Z</time>
      </trkpt>
      <trkpt lat="40.67126" lon="45.23771">
        <ele>1577.142684</ele>
        <time>2021-10-21T09:51:23.955Z</time>
      </trkpt>
      <trkpt lat="40.6728" lon="45.23937">
        <ele>1577.68983</ele>
        <time>2021-10-21T09:53:22.925Z</time>
      </trkpt>
      <trkpt lat="40.67357" lon="45.24205">
        <ele>1594.454961</ele>
        <time>2021-10-21T10:04:43.917Z</time>
      </trkpt>
      <trkpt lat="40.67397" lon="45.24468">
        <ele>1603.458548</ele>
        <time>2021-10-21T10:06:40.922Z</time>
      </trkpt>
      <trkpt lat="40.67401" lon="45.24726">
        <ele>1618.089929</ele>
        <time>2021-10-21T10:09:06.914Z</time>
      </trkpt>
      <trkpt lat="40.67349" lon="45.24982">
        <ele>1628.325214</ele>
        <time>2021-10-21T10:11:22.928Z</time>
      </trkpt>
      <trkpt lat="40.67243" lon="45.25197">
        <ele>1639.047546</ele>
        <time>2021-10-21T10:13:19.914Z</time>
      </trkpt>
      <trkpt lat="40.67055" lon="45.25224">
        <ele>1651.531317</ele>
        <time>2021-10-21T10:15:51.920Z</time>
      </trkpt>
      <trkpt lat="40.66883" lon="45.25367">
        <ele>1658.908951</ele>
        <time>2021-10-21T10:17:21.928Z</time>
      </trkpt>
      <trkpt lat="40.6679" lon="45.25597">
        <ele>1666.831852</ele>
        <time>2021-10-21T10:19:18.913Z</time>
      </trkpt>
      <trkpt lat="40.66587" lon="45.25619">
        <ele>1678.06968</ele>
        <time>2021-10-21T10:21:15.932Z</time>
      </trkpt>
      <trkpt lat="40.66407" lon="45.25754">
        <ele>1686.975196</ele>
        <time>2021-10-21T10:23:01.923Z</time>
      </trkpt>
      <trkpt lat="40.66218" lon="45.25853">
        <ele>1688.064107</ele>
        <time>2021-10-21T10:24:18.933Z</time>
      </trkpt>
      <trkpt lat="40.66076" lon="45.26094">
        <ele>1687.559673</ele>
        <time>2021-10-21T10:25:40.000Z</time>
      </trkpt>
      <trkpt lat="40.65961" lon="45.26322">
        <ele>1697.432315</ele>
        <time>2021-10-21T10:27:11.894Z</time>
      </trkpt>
      <trkpt lat="40.65957" lon="45.26567">
        <ele>1707.420121</ele>
        <time>2021-10-21T10:28:53.926Z</time>
      </trkpt>
      <trkpt lat="40.6591" lon="45.26851">
        <ele>1705.264119</ele>
        <time>2021-10-21T10:30:23.916Z</time>
      </trkpt>
      <trkpt lat="40.6585" lon="45.27101">
        <ele>1711.237562</ele>
        <time>2021-10-21T10:31:41.954Z</time>
      </trkpt>
      <trkpt lat="40.65753" lon="45.27353">
        <ele>1717.56778</ele>
        <time>2021-10-21T10:33:21.954Z</time>
      </trkpt>
      <trkpt lat="40.65664" lon="45.27582">
        <ele>1726.099984</ele>
        <time>2021-10-21T10:35:15.908Z</time>
      </trkpt>
      <trkpt lat="40.65561" lon="45.27842">
        <ele>1722.652034</ele>
        <time>2021-10-21T10:36:23.951Z</time>
      </trkpt>
      <trkpt lat="40.65492" lon="45.28116">
        <ele>1723.852573</ele>
        <time>2021-10-21T10:37:27.935Z</time>
      </trkpt>
      <trkpt lat="40.65508" lon="45.2841">
        <ele>1725.747726</ele>
        <time>2021-10-21T10:38:27.920Z</time>
      </trkpt>
      <trkpt lat="40.65478" lon="45.2869">
        <ele>1724.420469</ele>
        <time>2021-10-21T10:39:33.911Z</time>
      </trkpt>
      <trkpt lat="40.65369" lon="45.28924">
        <ele>1734.36249</ele>
        <time>2021-10-21T10:41:27.914Z</time>
      </trkpt>
      <trkpt lat="40.65277" lon="45.29163">
        <ele>1741.064476</ele>
        <time>2021-10-21T10:42:58.967Z</time>
      </trkpt>
      <trkpt lat="40.6517" lon="45.29397">
        <ele>1740.842179</ele>
        <time>2021-10-21T10:44:32.921Z</time>
      </trkpt>
      <trkpt lat="40.65053" lon="45.29617">
        <ele>1746.894912</ele>
        <time>2021-10-21T10:46:22.924Z</time>
      </trkpt>
      <trkpt lat="40.64945" lon="45.29859">
        <ele>1747.289181</ele>
        <time>2021-10-21T10:47:36.960Z</time>
      </trkpt>
      <trkpt lat="40.64865" lon="45.30208">
        <ele>1741.680004</ele>
        <time>2021-10-21T10:48:17.934Z</time>
      </trkpt>
      <trkpt lat="40.6481" lon="45.30455">
        <ele>1744.379556</ele>
        <time>2021-10-21T10:49:18.922Z</time>
      </trkpt>
      <trkpt lat="40.64744" lon="45.30746">
        <ele>1748.480288</ele>
        <time>2021-10-21T10:50:38.922Z</time>
      </trkpt>
      <trkpt lat="40.64687" lon="45.31013">
        <ele>1753.486879</ele>
        <time>2021-10-21T10:51:54.907Z</time>
      </trkpt>
      <trkpt lat="40.64617" lon="45.31296">
        <ele>1756.442583</ele>
        <time>2021-10-21T10:53:18.927Z</time>
      </trkpt>
      <trkpt lat="40.64514" lon="45.31566">
        <ele>1754.494832</ele>
        <time>2021-10-21T10:54:41.909Z</time>
      </trkpt>
      <trkpt lat="40.64394" lon="45.31793">
        <ele>1758.067915</ele>
        <time>2021-10-21T10:56:01.920Z</time>
      </trkpt>
      <trkpt lat="40.64266" lon="45.32036">
        <ele>1761.377506</ele>
        <time>2021-10-21T10:57:24.905Z</time>
      </trkpt>
      <trkpt lat="40.64132" lon="45.32266">
        <ele>1764.652098</ele>
        <time>2021-10-21T10:58:48.915Z</time>
      </trkpt>
      <trkpt lat="40.63973" lon="45.32419">
        <ele>1770.698143</ele>
        <time>2021-10-21T11:00:22.927Z</time>
      </trkpt>
      <trkpt lat="40.63795" lon="45.32597">
        <ele>1769.338768</ele>
        <time>2021-10-21T11:01:35.944Z</time>
      </trkpt>
      <trkpt lat="40.63643" lon="45.32783">
        <ele>1770.234243</ele>
        <time>2021-10-21T11:02:38.936Z</time>
      </trkpt>
      <trkpt lat="40.63485" lon="45.32975">
        <ele>1778.566393</ele>
        <time>2021-10-21T11:03:58.925Z</time>
      </trkpt>
      <trkpt lat="40.63319" lon="45.33133">
        <ele>1786.016446</ele>
        <time>2021-10-21T11:05:56.933Z</time>
      </trkpt>
      <trkpt lat="40.63138" lon="45.33275">
        <ele>1789.201034</ele>
        <time>2021-10-21T11:07:00.914Z</time>
      </trkpt>
      <trkpt lat="40.62944" lon="45.3342">
        <ele>1788.570264</ele>
        <time>2021-10-21T11:09:58.915Z</time>
      </trkpt>
      <trkpt lat="40.62758" lon="45.33524">
        <ele>1797.428974</ele>
        <time>2021-10-21T11:11:19.933Z</time>
      </trkpt>
      <trkpt lat="40.62574" lon="45.33659">
        <ele>1808.065193</ele>
        <time>2021-10-21T11:12:57.914Z</time>
      </trkpt>
      <trkpt lat="40.62401" lon="45.3382">
        <ele>1811.568043</ele>
        <time>2021-10-21T11:14:39.935Z</time>
      </trkpt>
      <trkpt lat="40.62218" lon="45.34009">
        <ele>1807.793003</ele>
        <time>2021-10-21T11:15:23.927Z</time>
      </trkpt>
      <trkpt lat="40.62002" lon="45.34103">
        <ele>1807.144827</ele>
        <time>2021-10-21T11:16:30.917Z</time>
      </trkpt>
      <trkpt lat="40.61781" lon="45.3419">
        <ele>1804.108578</ele>
        <time>2021-10-21T11:17:13.936Z</time>
      </trkpt>
      <trkpt lat="40.61578" lon="45.34372">
        <ele>1807.668298</ele>
        <time>2021-10-21T11:18:15.929Z</time>
      </trkpt>
      <trkpt lat="40.61423" lon="45.3459">
        <ele>1811.730548</ele>
        <time>2021-10-21T11:19:32.907Z</time>
      </trkpt>
      <trkpt lat="40.61277" lon="45.34794">
        <ele>1813.571677</ele>
        <time>2021-10-21T11:20:49.916Z</time>
      </trkpt>
      <trkpt lat="40.61136" lon="45.34989">
        <ele>1815.804685</ele>
        <time>2021-10-21T11:21:55.931Z</time>
      </trkpt>
      <trkpt lat="40.60971" lon="45.35151">
        <ele>1809.776729</ele>
        <time>2021-10-21T11:23:01.924Z</time>
      </trkpt>
      <trkpt lat="40.60772" lon="45.35247">
        <ele>1810.155302</ele>
        <time>2021-10-21T11:24:11.925Z</time>
      </trkpt>
      <trkpt lat="40.60576" lon="45.35317">
        <ele>1818.930589</ele>
        <time>2021-10-21T11:25:17.912Z</time>
      </trkpt>
      <trkpt lat="40.60379" lon="45.35361">
        <ele>1824.850639</ele>
        <time>2021-10-21T11:26:39.986Z</time>
      </trkpt>
      <trkpt lat="40.60233" lon="45.35391">
        <ele>1835.624926</ele>
        <time>2021-10-21T11:28:07.932Z</time>
      </trkpt>
      <trkpt lat="40.60163" lon="45.35175">
        <ele>1861.784211</ele>
        <time>2021-10-21T11:47:05.914Z</time>
      </trkpt>
      <trkpt lat="40.60002" lon="45.35211">
        <ele>1870.845293</ele>
        <time>2021-10-21T11:48:54.923Z</time>
      </trkpt>
      <trkpt lat="40.5978" lon="45.35287">
        <ele>1868.691665</ele>
        <time>2021-10-21T11:50:43.936Z</time>
      </trkpt>
      <trkpt lat="40.59578" lon="45.35251">
        <ele>1873.323564</ele>
        <time>2021-10-21T11:52:08.964Z</time>
      </trkpt>
      <trkpt lat="40.59378" lon="45.35177">
        <ele>1883.659146</ele>
        <time>2021-10-21T11:55:43.935Z</time>
      </trkpt>
      <trkpt lat="40.59589" lon="45.35261">
        <ele>1889.862691</ele>
        <time>2021-10-21T12:01:38.977Z</time>
      </trkpt>
      <trkpt lat="40.59675" lon="45.35336">
        <ele>1889.862691</ele>
        <time>2021-10-21T12:07:59.273Z</time>
      </trkpt>
    </trkseg>
  </trk>
  <trk>
    <name><![CDATA[Tour d'Europe: étape 481]]></name>
    <extensions>
      <line xmlns="http://www.topografix.com/GPX/gpx_style/0/2">
        <color>008888</color>
        <width>4</width>
      </line>
    </extensions>
    <trkseg>
      <trkpt lat="40.59696" lon="45.35595">
        <ele>1863.356713</ele>
        <time>2021-10-22T06:21:52.231Z</time>
      </trkpt>
      <trkpt lat="40.59706" lon="45.35719">
        <ele>1862.972814</ele>
        <time>2021-10-22T06:22:22.235Z</time>
      </trkpt>
      <trkpt lat="40.59591" lon="45.35682">
        <ele>1855.137376</ele>
        <time>2021-10-22T06:25:10.239Z</time>
      </trkpt>
      <trkpt lat="40.59408" lon="45.35576">
        <ele>1855.623938</ele>
        <time>2021-10-22T06:26:16.226Z</time>
      </trkpt>
      <trkpt lat="40.59214" lon="45.35469">
        <ele>1860.501918</ele>
        <time>2021-10-22T06:27:35.232Z</time>
      </trkpt>
      <trkpt lat="40.59026" lon="45.35353">
        <ele>1863.734586</ele>
        <time>2021-10-22T06:28:53.230Z</time>
      </trkpt>
      <trkpt lat="40.58827" lon="45.35254">
        <ele>1867.056105</ele>
        <time>2021-10-22T06:30:12.246Z</time>
      </trkpt>
      <trkpt lat="40.58649" lon="45.35122">
        <ele>1874.29916</ele>
        <time>2021-10-22T06:31:44.255Z</time>
      </trkpt>
      <trkpt lat="40.58478" lon="45.34985">
        <ele>1881.841132</ele>
        <time>2021-10-22T06:33:27.247Z</time>
      </trkpt>
      <trkpt lat="40.58308" lon="45.34862">
        <ele>1894.63326</ele>
        <time>2021-10-22T06:35:34.237Z</time>
      </trkpt>
      <trkpt lat="40.58161" lon="45.34694">
        <ele>1901.595699</ele>
        <time>2021-10-22T06:37:29.253Z</time>
      </trkpt>
      <trkpt lat="40.58039" lon="45.34474">
        <ele>1905.635129</ele>
        <time>2021-10-22T06:41:20.288Z</time>
      </trkpt>
      <trkpt lat="40.57934" lon="45.34247">
        <ele>1911.981035</ele>
        <time>2021-10-22T06:42:58.238Z</time>
      </trkpt>
      <trkpt lat="40.57834" lon="45.34013">
        <ele>1916.166049</ele>
        <time>2021-10-22T06:44:25.292Z</time>
      </trkpt>
      <trkpt lat="40.57722" lon="45.33779">
        <ele>1913.856992</ele>
        <time>2021-10-22T06:45:25.257Z</time>
      </trkpt>
      <trkpt lat="40.57575" lon="45.33604">
        <ele>1921.740953</ele>
        <time>2021-10-22T06:47:05.262Z</time>
      </trkpt>
      <trkpt lat="40.57429" lon="45.33429">
        <ele>1932.536116</ele>
        <time>2021-10-22T06:48:55.252Z</time>
      </trkpt>
      <trkpt lat="40.57328" lon="45.33204">
        <ele>1941.728858</ele>
        <time>2021-10-22T06:50:40.239Z</time>
      </trkpt>
      <trkpt lat="40.57231" lon="45.32974">
        <ele>1952.412426</ele>
        <time>2021-10-22T06:52:49.286Z</time>
      </trkpt>
      <trkpt lat="40.57171" lon="45.32718">
        <ele>1968.846685</ele>
        <time>2021-10-22T06:55:34.254Z</time>
      </trkpt>
      <trkpt lat="40.57135" lon="45.32469">
        <ele>1981.24639</ele>
        <time>2021-10-22T06:58:02.232Z</time>
      </trkpt>
      <trkpt lat="40.57102" lon="45.32223">
        <ele>1996.307827</ele>
        <time>2021-10-22T07:00:53.241Z</time>
      </trkpt>
      <trkpt lat="40.57055" lon="45.31982">
        <ele>2015.046156</ele>
        <time>2021-10-22T07:03:59.237Z</time>
      </trkpt>
      <trkpt lat="40.56989" lon="45.31752">
        <ele>2038.139522</ele>
        <time>2021-10-22T07:07:08.249Z</time>
      </trkpt>
      <trkpt lat="40.56962" lon="45.31509">
        <ele>2062.718865</ele>
        <time>2021-10-22T07:10:07.249Z</time>
      </trkpt>
      <trkpt lat="40.56976" lon="45.31265">
        <ele>2079.331654</ele>
        <time>2021-10-22T07:13:06.247Z</time>
      </trkpt>
      <trkpt lat="40.56971" lon="45.31019">
        <ele>2091.638313</ele>
        <time>2021-10-22T07:15:56.262Z</time>
      </trkpt>
      <trkpt lat="40.56901" lon="45.30766">
        <ele>2092.674682</ele>
        <time>2021-10-22T07:24:14.243Z</time>
      </trkpt>
      <trkpt lat="40.5681" lon="45.30545">
        <ele>2109.528106</ele>
        <time>2021-10-22T07:26:55.266Z</time>
      </trkpt>
      <trkpt lat="40.56752" lon="45.3031">
        <ele>2125.577549</ele>
        <time>2021-10-22T07:29:45.273Z</time>
      </trkpt>
      <trkpt lat="40.56628" lon="45.30128">
        <ele>2138.68172</ele>
        <time>2021-10-22T07:32:41.247Z</time>
      </trkpt>
      <trkpt lat="40.56462" lon="45.30013">
        <ele>2159.029466</ele>
        <time>2021-10-22T07:35:38.242Z</time>
      </trkpt>
      <trkpt lat="40.5635" lon="45.29797">
        <ele>2177.977447</ele>
        <time>2021-10-22T07:38:52.237Z</time>
      </trkpt>
      <trkpt lat="40.56316" lon="45.29551">
        <ele>2189.319837</ele>
        <time>2021-10-22T07:41:31.293Z</time>
      </trkpt>
      <trkpt lat="40.563" lon="45.29269">
        <ele>2183.476312</ele>
        <time>2021-10-22T07:42:43.259Z</time>
      </trkpt>
      <trkpt lat="40.56351" lon="45.28935">
        <ele>2170.836179</ele>
        <time>2021-10-22T07:43:23.260Z</time>
      </trkpt>
      <trkpt lat="40.56403" lon="45.28598">
        <ele>2150.466289</ele>
        <time>2021-10-22T07:44:03.262Z</time>
      </trkpt>
      <trkpt lat="40.56315" lon="45.28286">
        <ele>2127.741771</ele>
        <time>2021-10-22T07:47:44.256Z</time>
      </trkpt>
      <trkpt lat="40.56124" lon="45.28103">
        <ele>2118.441646</ele>
        <time>2021-10-22T07:48:32.311Z</time>
      </trkpt>
      <trkpt lat="40.55937" lon="45.27946">
        <ele>2112.336719</ele>
        <time>2021-10-22T07:49:12.260Z</time>
      </trkpt>
      <trkpt lat="40.55746" lon="45.27793">
        <ele>2101.722943</ele>
        <time>2021-10-22T07:49:52.270Z</time>
      </trkpt>
      <trkpt lat="40.55538" lon="45.2763">
        <ele>2090.190244</ele>
        <time>2021-10-22T07:50:35.262Z</time>
      </trkpt>
      <trkpt lat="40.55361" lon="45.27496">
        <ele>2096.45767</ele>
        <time>2021-10-22T07:52:01.260Z</time>
      </trkpt>
      <trkpt lat="40.55189" lon="45.27368">
        <ele>2105.269612</ele>
        <time>2021-10-22T07:53:49.259Z</time>
      </trkpt>
      <trkpt lat="40.55003" lon="45.27246">
        <ele>2111.793377</ele>
        <time>2021-10-22T07:55:17.259Z</time>
      </trkpt>
      <trkpt lat="40.54751" lon="45.27201">
        <ele>2114.195767</ele>
        <time>2021-10-22T07:56:03.265Z</time>
      </trkpt>
      <trkpt lat="40.54567" lon="45.27074">
        <ele>2107.05573</ele>
        <time>2021-10-22T07:57:06.265Z</time>
      </trkpt>
      <trkpt lat="40.54311" lon="45.26912">
        <ele>2089.042062</ele>
        <time>2021-10-22T07:57:46.279Z</time>
      </trkpt>
      <trkpt lat="40.54119" lon="45.26723">
        <ele>2072.466923</ele>
        <time>2021-10-22T07:58:27.296Z</time>
      </trkpt>
      <trkpt lat="40.54093" lon="45.26446">
        <ele>2062.543427</ele>
        <time>2021-10-22T07:59:07.281Z</time>
      </trkpt>
      <trkpt lat="40.54072" lon="45.26154">
        <ele>2054.210092</ele>
        <time>2021-10-22T07:59:48.250Z</time>
      </trkpt>
      <trkpt lat="40.54013" lon="45.25869">
        <ele>2046.787673</ele>
        <time>2021-10-22T08:00:34.273Z</time>
      </trkpt>
      <trkpt lat="40.53913" lon="45.25562">
        <ele>2037.845738</ele>
        <time>2021-10-22T08:01:14.257Z</time>
      </trkpt>
      <trkpt lat="40.53751" lon="45.2525">
        <ele>2024.171959</ele>
        <time>2021-10-22T08:01:54.247Z</time>
      </trkpt>
      <trkpt lat="40.53678" lon="45.24968">
        <ele>2011.606018</ele>
        <time>2021-10-22T08:02:35.257Z</time>
      </trkpt>
      <trkpt lat="40.53704" lon="45.24679">
        <ele>2008.674723</ele>
        <time>2021-10-22T08:03:15.251Z</time>
      </trkpt>
      <trkpt lat="40.53683" lon="45.24342">
        <ele>2007.836331</ele>
        <time>2021-10-22T08:04:03.260Z</time>
      </trkpt>
      <trkpt lat="40.53626" lon="45.24026">
        <ele>1996.820299</ele>
        <time>2021-10-22T08:04:43.239Z</time>
      </trkpt>
      <trkpt lat="40.53599" lon="45.23737">
        <ele>1986.339961</ele>
        <time>2021-10-22T08:05:24.268Z</time>
      </trkpt>
      <trkpt lat="40.53576" lon="45.23382">
        <ele>1971.198696</ele>
        <time>2021-10-22T08:06:04.246Z</time>
      </trkpt>
      <trkpt lat="40.53571" lon="45.23111">
        <ele>1965.037322</ele>
        <time>2021-10-22T08:06:44.244Z</time>
      </trkpt>
      <trkpt lat="40.53567" lon="45.22814">
        <ele>1956.681655</ele>
        <time>2021-10-22T08:07:26.261Z</time>
      </trkpt>
      <trkpt lat="40.53568" lon="45.22496">
        <ele>1947.851037</ele>
        <time>2021-10-22T08:08:06.247Z</time>
      </trkpt>
      <trkpt lat="40.53522" lon="45.22217">
        <ele>1937.332477</ele>
        <time>2021-10-22T08:08:49.266Z</time>
      </trkpt>
      <trkpt lat="40.53525" lon="45.21998">
        <ele>1932.505462</ele>
        <time>2021-10-22T08:09:44.239Z</time>
      </trkpt>
      <trkpt lat="40.53719" lon="45.21887">
        <ele>1937.042485</ele>
        <time>2021-10-22T08:10:44.253Z</time>
      </trkpt>
      <trkpt lat="40.53938" lon="45.21752">
        <ele>1935.121515</ele>
        <time>2021-10-22T08:11:44.260Z</time>
      </trkpt>
      <trkpt lat="40.54167" lon="45.21615">
        <ele>1933.259553</ele>
        <time>2021-10-22T08:12:44.272Z</time>
      </trkpt>
      <trkpt lat="40.5439" lon="45.2144">
        <ele>1933.400582</ele>
        <time>2021-10-22T08:13:47.263Z</time>
      </trkpt>
      <trkpt lat="40.54516" lon="45.21204">
        <ele>1935.983017</ele>
        <time>2021-10-22T08:14:47.265Z</time>
      </trkpt>
      <trkpt lat="40.54651" lon="45.21003">
        <ele>1937.447895</ele>
        <time>2021-10-22T08:16:00.261Z</time>
      </trkpt>
      <trkpt lat="40.54813" lon="45.20823">
        <ele>1934.540447</ele>
        <time>2021-10-22T08:16:52.260Z</time>
      </trkpt>
      <trkpt lat="40.54961" lon="45.2066">
        <ele>1931.098831</ele>
        <time>2021-10-22T08:17:32.259Z</time>
      </trkpt>
      <trkpt lat="40.55102" lon="45.20476">
        <ele>1929.330572</ele>
        <time>2021-10-22T08:18:12.251Z</time>
      </trkpt>
      <trkpt lat="40.5522" lon="45.20266">
        <ele>1931.945969</ele>
        <time>2021-10-22T08:18:53.259Z</time>
      </trkpt>
      <trkpt lat="40.55347" lon="45.20021">
        <ele>1934.004636</ele>
        <time>2021-10-22T08:19:44.254Z</time>
      </trkpt>
      <trkpt lat="40.55437" lon="45.19784">
        <ele>1935.240825</ele>
        <time>2021-10-22T08:20:26.251Z</time>
      </trkpt>
      <trkpt lat="40.55536" lon="45.1954">
        <ele>1936.950589</ele>
        <time>2021-10-22T08:21:17.254Z</time>
      </trkpt>
      <trkpt lat="40.55643" lon="45.19302">
        <ele>1936.871072</ele>
        <time>2021-10-22T08:22:04.254Z</time>
      </trkpt>
      <trkpt lat="40.55739" lon="45.19092">
        <ele>1935.123744</ele>
        <time>2021-10-22T08:22:44.279Z</time>
      </trkpt>
      <trkpt lat="40.55847" lon="45.18872">
        <ele>1933.046117</ele>
        <time>2021-10-22T08:23:28.250Z</time>
      </trkpt>
      <trkpt lat="40.55964" lon="45.18638">
        <ele>1931.231938</ele>
        <time>2021-10-22T08:24:12.244Z</time>
      </trkpt>
      <trkpt lat="40.56084" lon="45.18401">
        <ele>1930.037066</ele>
        <time>2021-10-22T08:24:52.250Z</time>
      </trkpt>
      <trkpt lat="40.56229" lon="45.18166">
        <ele>1931.065389</ele>
        <time>2021-10-22T08:25:44.283Z</time>
      </trkpt>
      <trkpt lat="40.56359" lon="45.17967">
        <ele>1929.486222</ele>
        <time>2021-10-22T08:26:24.261Z</time>
      </trkpt>
      <trkpt lat="40.56478" lon="45.17761">
        <ele>1930.727604</ele>
        <time>2021-10-22T08:27:05.256Z</time>
      </trkpt>
      <trkpt lat="40.56577" lon="45.17494">
        <ele>1931.986911</ele>
        <time>2021-10-22T08:28:00.265Z</time>
      </trkpt>
      <trkpt lat="40.56659" lon="45.17233">
        <ele>1930.582372</ele>
        <time>2021-10-22T08:28:53.242Z</time>
      </trkpt>
      <trkpt lat="40.56674" lon="45.16959">
        <ele>1925.80837</ele>
        <time>2021-10-22T08:29:33.253Z</time>
      </trkpt>
      <trkpt lat="40.56693" lon="45.16656">
        <ele>1924.481355</ele>
        <time>2021-10-22T08:30:27.253Z</time>
      </trkpt>
      <trkpt lat="40.56714" lon="45.16368">
        <ele>1926.628404</ele>
        <time>2021-10-22T08:31:08.296Z</time>
      </trkpt>
      <trkpt lat="40.56733" lon="45.16096">
        <ele>1928.0659</ele>
        <time>2021-10-22T08:31:48.264Z</time>
      </trkpt>
      <trkpt lat="40.56751" lon="45.15814">
        <ele>1928.188259</ele>
        <time>2021-10-22T08:32:33.264Z</time>
      </trkpt>
      <trkpt lat="40.56772" lon="45.15533">
        <ele>1932.675071</ele>
        <time>2021-10-22T08:33:50.311Z</time>
      </trkpt>
      <trkpt lat="40.56799" lon="45.15264">
        <ele>1936.442261</ele>
        <time>2021-10-22T08:35:04.253Z</time>
      </trkpt>
      <trkpt lat="40.56866" lon="45.14944">
        <ele>1938.463185</ele>
        <time>2021-10-22T08:36:04.299Z</time>
      </trkpt>
      <trkpt lat="40.56937" lon="45.14647">
        <ele>1936.158254</ele>
        <time>2021-10-22T08:36:56.260Z</time>
      </trkpt>
      <trkpt lat="40.57008" lon="45.14388">
        <ele>1934.387699</ele>
        <time>2021-10-22T08:37:37.252Z</time>
      </trkpt>
      <trkpt lat="40.57101" lon="45.14134">
        <ele>1930.135809</ele>
        <time>2021-10-22T08:38:17.257Z</time>
      </trkpt>
      <trkpt lat="40.57216" lon="45.1388">
        <ele>1928.359211</ele>
        <time>2021-10-22T08:38:57.310Z</time>
      </trkpt>
      <trkpt lat="40.57318" lon="45.13654">
        <ele>1930.116338</ele>
        <time>2021-10-22T08:39:51.274Z</time>
      </trkpt>
      <trkpt lat="40.57445" lon="45.13429">
        <ele>1929.76202</ele>
        <time>2021-10-22T08:40:49.253Z</time>
      </trkpt>
      <trkpt lat="40.57578" lon="45.13218">
        <ele>1926.89857</ele>
        <time>2021-10-22T08:41:29.274Z</time>
      </trkpt>
      <trkpt lat="40.57712" lon="45.13017">
        <ele>1928.026702</ele>
        <time>2021-10-22T08:42:12.264Z</time>
      </trkpt>
      <trkpt lat="40.57869" lon="45.12809">
        <ele>1926.475351</ele>
        <time>2021-10-22T08:43:02.262Z</time>
      </trkpt>
      <trkpt lat="40.58034" lon="45.12594">
        <ele>1925.864159</ele>
        <time>2021-10-22T08:43:54.253Z</time>
      </trkpt>
      <trkpt lat="40.58182" lon="45.12401">
        <ele>1925.604353</ele>
        <time>2021-10-22T08:44:38.264Z</time>
      </trkpt>
      <trkpt lat="40.58329" lon="45.12208">
        <ele>1923.430321</ele>
        <time>2021-10-22T08:45:18.259Z</time>
      </trkpt>
      <trkpt lat="40.58477" lon="45.12006">
        <ele>1925.045611</ele>
        <time>2021-10-22T08:45:58.258Z</time>
      </trkpt>
      <trkpt lat="40.58574" lon="45.11761">
        <ele>1929.123075</ele>
        <time>2021-10-22T08:46:38.252Z</time>
      </trkpt>
      <trkpt lat="40.58661" lon="45.11527">
        <ele>1929.408749</ele>
        <time>2021-10-22T08:47:19.276Z</time>
      </trkpt>
      <trkpt lat="40.58762" lon="45.11267">
        <ele>1934.905868</ele>
        <time>2021-10-22T08:48:14.257Z</time>
      </trkpt>
      <trkpt lat="40.5888" lon="45.11014">
        <ele>1940.349358</ele>
        <time>2021-10-22T08:48:54.286Z</time>
      </trkpt>
      <trkpt lat="40.58994" lon="45.10774">
        <ele>1944.761955</ele>
        <time>2021-10-22T08:49:56.295Z</time>
      </trkpt>
      <trkpt lat="40.59151" lon="45.10561">
        <ele>1940.785137</ele>
        <time>2021-10-22T08:50:55.263Z</time>
      </trkpt>
      <trkpt lat="40.59312" lon="45.10351">
        <ele>1937.028424</ele>
        <time>2021-10-22T08:51:38.264Z</time>
      </trkpt>
      <trkpt lat="40.59444" lon="45.10125">
        <ele>1936.983133</ele>
        <time>2021-10-22T08:52:26.263Z</time>
      </trkpt>
      <trkpt lat="40.59557" lon="45.09873">
        <ele>1931.987216</ele>
        <time>2021-10-22T08:53:08.258Z</time>
      </trkpt>
      <trkpt lat="40.5967" lon="45.09626">
        <ele>1926.960068</ele>
        <time>2021-10-22T08:53:55.239Z</time>
      </trkpt>
      <trkpt lat="40.59753" lon="45.0938">
        <ele>1926.605997</ele>
        <time>2021-10-22T08:54:40.252Z</time>
      </trkpt>
      <trkpt lat="40.59797" lon="45.09076">
        <ele>1928.713016</ele>
        <time>2021-10-22T08:55:40.266Z</time>
      </trkpt>
      <trkpt lat="40.59862" lon="45.08817">
        <ele>1937.946651</ele>
        <time>2021-10-22T08:56:41.245Z</time>
      </trkpt>
      <trkpt lat="40.59999" lon="45.08581">
        <ele>1936.396138</ele>
        <time>2021-10-22T08:57:21.260Z</time>
      </trkpt>
      <trkpt lat="40.60166" lon="45.08356">
        <ele>1927.857894</ele>
        <time>2021-10-22T08:58:01.265Z</time>
      </trkpt>
      <trkpt lat="40.60279" lon="45.08138">
        <ele>1928.177656</ele>
        <time>2021-10-22T08:58:45.277Z</time>
      </trkpt>
      <trkpt lat="40.60311" lon="45.07872">
        <ele>1933.755184</ele>
        <time>2021-10-22T08:59:27.267Z</time>
      </trkpt>
      <trkpt lat="40.60327" lon="45.07619">
        <ele>1930.989856</ele>
        <time>2021-10-22T09:00:07.269Z</time>
      </trkpt>
      <trkpt lat="40.60396" lon="45.07353">
        <ele>1927.265398</ele>
        <time>2021-10-22T09:00:56.257Z</time>
      </trkpt>
      <trkpt lat="40.60524" lon="45.07156">
        <ele>1930.003864</ele>
        <time>2021-10-22T09:01:38.261Z</time>
      </trkpt>
      <trkpt lat="40.60558" lon="45.0687">
        <ele>1930.915258</ele>
        <time>2021-10-22T09:02:25.265Z</time>
      </trkpt>
      <trkpt lat="40.60584" lon="45.06593">
        <ele>1930.054849</ele>
        <time>2021-10-22T09:03:12.266Z</time>
      </trkpt>
      <trkpt lat="40.6073" lon="45.06382">
        <ele>1929.868149</ele>
        <time>2021-10-22T09:03:59.259Z</time>
      </trkpt>
      <trkpt lat="40.60903" lon="45.06203">
        <ele>1931.07133</ele>
        <time>2021-10-22T09:04:50.267Z</time>
      </trkpt>
      <trkpt lat="40.61078" lon="45.05986">
        <ele>1936.15165</ele>
        <time>2021-10-22T09:05:50.311Z</time>
      </trkpt>
      <trkpt lat="40.611" lon="45.05689">
        <ele>1930.867497</ele>
        <time>2021-10-22T09:06:35.261Z</time>
      </trkpt>
      <trkpt lat="40.61113" lon="45.0541">
        <ele>1920.253614</ele>
        <time>2021-10-22T09:07:21.279Z</time>
      </trkpt>
      <trkpt lat="40.61168" lon="45.05117">
        <ele>1914.63646</ele>
        <time>2021-10-22T09:08:18.263Z</time>
      </trkpt>
      <trkpt lat="40.61189" lon="45.04854">
        <ele>1933.024427</ele>
        <time>2021-10-22T09:09:38.263Z</time>
      </trkpt>
      <trkpt lat="40.61241" lon="45.04585">
        <ele>1940.610277</ele>
        <time>2021-10-22T09:10:58.264Z</time>
      </trkpt>
      <trkpt lat="40.6132" lon="45.04336">
        <ele>1941.512967</ele>
        <time>2021-10-22T09:12:14.323Z</time>
      </trkpt>
      <trkpt lat="40.61401" lon="45.04082">
        <ele>1938.19833</ele>
        <time>2021-10-22T09:13:10.265Z</time>
      </trkpt>
      <trkpt lat="40.61488" lon="45.03832">
        <ele>1932.761781</ele>
        <time>2021-10-22T09:13:51.255Z</time>
      </trkpt>
      <trkpt lat="40.61653" lon="45.03572">
        <ele>1933.195387</ele>
        <time>2021-10-22T09:14:33.254Z</time>
      </trkpt>
      <trkpt lat="40.61793" lon="45.03366">
        <ele>1927.225861</ele>
        <time>2021-10-22T09:15:18.301Z</time>
      </trkpt>
      <trkpt lat="40.61937" lon="45.03119">
        <ele>1924.281422</ele>
        <time>2021-10-22T09:16:13.268Z</time>
      </trkpt>
      <trkpt lat="40.62032" lon="45.0287">
        <ele>1920.769438</ele>
        <time>2021-10-22T09:16:53.269Z</time>
      </trkpt>
      <trkpt lat="40.62105" lon="45.02611">
        <ele>1922.767441</ele>
        <time>2021-10-22T09:17:39.266Z</time>
      </trkpt>
      <trkpt lat="40.62173" lon="45.02307">
        <ele>1928.151873</ele>
        <time>2021-10-22T09:18:38.274Z</time>
      </trkpt>
      <trkpt lat="40.62204" lon="45.01992">
        <ele>1933.015864</ele>
        <time>2021-10-22T09:19:38.302Z</time>
      </trkpt>
      <trkpt lat="40.62228" lon="45.01718">
        <ele>1937.34707</ele>
        <time>2021-10-22T09:20:44.266Z</time>
      </trkpt>
      <trkpt lat="40.62305" lon="45.01465">
        <ele>1939.121867</ele>
        <time>2021-10-22T09:21:35.301Z</time>
      </trkpt>
      <trkpt lat="40.62422" lon="45.0125">
        <ele>1932.66332</ele>
        <time>2021-10-22T09:22:15.277Z</time>
      </trkpt>
      <trkpt lat="40.62564" lon="45.01034">
        <ele>1931.11709</ele>
        <time>2021-10-22T09:22:55.266Z</time>
      </trkpt>
      <trkpt lat="40.62674" lon="45.00798">
        <ele>1938.405224</ele>
        <time>2021-10-22T09:44:16.274Z</time>
      </trkpt>
      <trkpt lat="40.62749" lon="45.00524">
        <ele>1940.899239</ele>
        <time>2021-10-22T09:45:04.281Z</time>
      </trkpt>
      <trkpt lat="40.6283" lon="45.0023">
        <ele>1939.998094</ele>
        <time>2021-10-22T09:46:00.283Z</time>
      </trkpt>
      <trkpt lat="40.62966" lon="44.99981">
        <ele>1944.930153</ele>
        <time>2021-10-22T09:47:00.258Z</time>
      </trkpt>
      <trkpt lat="40.63057" lon="44.99742">
        <ele>1950.976257</ele>
        <time>2021-10-22T09:47:46.264Z</time>
      </trkpt>
      <trkpt lat="40.63084" lon="44.99464">
        <ele>1952.636118</ele>
        <time>2021-10-22T09:48:26.267Z</time>
      </trkpt>
      <trkpt lat="40.63136" lon="44.99197">
        <ele>1945.224618</ele>
        <time>2021-10-22T09:49:06.270Z</time>
      </trkpt>
      <trkpt lat="40.63202" lon="44.98944">
        <ele>1940.83963</ele>
        <time>2021-10-22T09:49:46.280Z</time>
      </trkpt>
      <trkpt lat="40.6326" lon="44.98675">
        <ele>1941.611028</ele>
        <time>2021-10-22T09:50:26.259Z</time>
      </trkpt>
      <trkpt lat="40.63226" lon="44.98406">
        <ele>1949.673864</ele>
        <time>2021-10-22T09:51:06.271Z</time>
      </trkpt>
      <trkpt lat="40.63145" lon="44.98121">
        <ele>1960.728493</ele>
        <time>2021-10-22T09:52:04.255Z</time>
      </trkpt>
      <trkpt lat="40.63005" lon="44.9786">
        <ele>1956.069366</ele>
        <time>2021-10-22T09:53:02.255Z</time>
      </trkpt>
      <trkpt lat="40.62859" lon="44.97593">
        <ele>1953.277651</ele>
        <time>2021-10-22T09:54:02.273Z</time>
      </trkpt>
      <trkpt lat="40.62699" lon="44.97331">
        <ele>1960.05551</ele>
        <time>2021-10-22T09:55:02.293Z</time>
      </trkpt>
      <trkpt lat="40.62551" lon="44.97111">
        <ele>1957.412663</ele>
        <time>2021-10-22T09:55:53.261Z</time>
      </trkpt>
      <trkpt lat="40.62408" lon="44.96921">
        <ele>1956.588981</ele>
        <time>2021-10-22T09:56:36.257Z</time>
      </trkpt>
      <trkpt lat="40.62258" lon="44.96727">
        <ele>1958.685811</ele>
        <time>2021-10-22T09:57:22.275Z</time>
      </trkpt>
      <trkpt lat="40.62103" lon="44.9652">
        <ele>1956.082423</ele>
        <time>2021-10-22T09:58:11.261Z</time>
      </trkpt>
      <trkpt lat="40.61945" lon="44.96361">
        <ele>1948.82459</ele>
        <time>2021-10-22T09:58:55.263Z</time>
      </trkpt>
      <trkpt lat="40.61775" lon="44.96214">
        <ele>1944.333124</ele>
        <time>2021-10-22T09:59:40.269Z</time>
      </trkpt>
      <trkpt lat="40.61609" lon="44.96069">
        <ele>1941.756796</ele>
        <time>2021-10-22T10:00:23.275Z</time>
      </trkpt>
      <trkpt lat="40.6143" lon="44.95911">
        <ele>1941.38521</ele>
        <time>2021-10-22T10:01:23.276Z</time>
      </trkpt>
      <trkpt lat="40.61237" lon="44.95741">
        <ele>1942.73108</ele>
        <time>2021-10-22T10:02:23.258Z</time>
      </trkpt>
      <trkpt lat="40.6105" lon="44.95578">
        <ele>1943.972876</ele>
        <time>2021-10-22T10:03:22.256Z</time>
      </trkpt>
      <trkpt lat="40.60914" lon="44.95459">
        <ele>1949.192654</ele>
        <time>2021-10-22T10:22:19.281Z</time>
      </trkpt>
      <trkpt lat="40.60683" lon="44.9552">
        <ele>1955.229143</ele>
        <time>2021-10-22T10:23:22.279Z</time>
      </trkpt>
      <trkpt lat="40.6045" lon="44.95589">
        <ele>1961.597017</ele>
        <time>2021-10-22T10:24:22.278Z</time>
      </trkpt>
      <trkpt lat="40.60233" lon="44.9569">
        <ele>1967.028739</ele>
        <time>2021-10-22T10:25:22.291Z</time>
      </trkpt>
      <trkpt lat="40.60063" lon="44.95901">
        <ele>1955.911994</ele>
        <time>2021-10-22T10:26:11.276Z</time>
      </trkpt>
      <trkpt lat="40.59912" lon="44.96177">
        <ele>1940.936738</ele>
        <time>2021-10-22T10:26:51.270Z</time>
      </trkpt>
      <trkpt lat="40.59747" lon="44.96424">
        <ele>1941.262521</ele>
        <time>2021-10-22T10:27:21.279Z</time>
      </trkpt>
      <trkpt lat="40.59559" lon="44.96603">
        <ele>1954.151076</ele>
        <time>2021-10-22T10:28:06.297Z</time>
      </trkpt>
      <trkpt lat="40.5933" lon="44.96679">
        <ele>1953.092671</ele>
        <time>2021-10-22T10:28:59.255Z</time>
      </trkpt>
      <trkpt lat="40.59118" lon="44.9676">
        <ele>1950.820971</ele>
        <time>2021-10-22T10:29:44.258Z</time>
      </trkpt>
      <trkpt lat="40.58918" lon="44.96939">
        <ele>1951.821186</ele>
        <time>2021-10-22T10:30:39.290Z</time>
      </trkpt>
      <trkpt lat="40.58745" lon="44.97119">
        <ele>1949.32166</ele>
        <time>2021-10-22T10:31:19.285Z</time>
      </trkpt>
      <trkpt lat="40.58621" lon="44.97346">
        <ele>1941.049386</ele>
        <time>2021-10-22T10:31:59.287Z</time>
      </trkpt>
      <trkpt lat="40.585" lon="44.97561">
        <ele>1935.240303</ele>
        <time>2021-10-22T10:32:42.305Z</time>
      </trkpt>
      <trkpt lat="40.58402" lon="44.97831">
        <ele>1931.888245</ele>
        <time>2021-10-22T10:33:33.275Z</time>
      </trkpt>
      <trkpt lat="40.58327" lon="44.98088">
        <ele>1930.496174</ele>
        <time>2021-10-22T10:34:17.258Z</time>
      </trkpt>
      <trkpt lat="40.58244" lon="44.98379">
        <ele>1934.848763</ele>
        <time>2021-10-22T10:35:17.317Z</time>
      </trkpt>
      <trkpt lat="40.58143" lon="44.98634">
        <ele>1933.986033</ele>
        <time>2021-10-22T10:36:04.258Z</time>
      </trkpt>
      <trkpt lat="40.58045" lon="44.98872">
        <ele>1934.380461</ele>
        <time>2021-10-22T10:36:44.266Z</time>
      </trkpt>
      <trkpt lat="40.57942" lon="44.99117">
        <ele>1935.414117</ele>
        <time>2021-10-22T10:37:29.259Z</time>
      </trkpt>
      <trkpt lat="40.57838" lon="44.9937">
        <ele>1932.996563</ele>
        <time>2021-10-22T10:38:14.263Z</time>
      </trkpt>
      <trkpt lat="40.57667" lon="44.9958">
        <ele>1932.217233</ele>
        <time>2021-10-22T10:38:54.257Z</time>
      </trkpt>
      <trkpt lat="40.57467" lon="44.99701">
        <ele>1938.817438</ele>
        <time>2021-10-22T10:39:34.256Z</time>
      </trkpt>
      <trkpt lat="40.57275" lon="44.99798">
        <ele>1948.581326</ele>
        <time>2021-10-22T10:40:17.319Z</time>
      </trkpt>
      <trkpt lat="40.57055" lon="44.99855">
        <ele>1955.991143</ele>
        <time>2021-10-22T10:41:02.250Z</time>
      </trkpt>
      <trkpt lat="40.56838" lon="44.99894">
        <ele>1951.1755</ele>
        <time>2021-10-22T10:42:11.297Z</time>
      </trkpt>
      <trkpt lat="40.5663" lon="44.99769">
        <ele>1943.479403</ele>
        <time>2021-10-22T10:43:06.279Z</time>
      </trkpt>
      <trkpt lat="40.56477" lon="44.99613">
        <ele>1935.730032</ele>
        <time>2021-10-22T10:43:46.277Z</time>
      </trkpt>
      <trkpt lat="40.56291" lon="44.99423">
        <ele>1936.899922</ele>
        <time>2021-10-22T10:44:41.310Z</time>
      </trkpt>
      <trkpt lat="40.56108" lon="44.99268">
        <ele>1938.971834</ele>
        <time>2021-10-22T10:45:40.290Z</time>
      </trkpt>
      <trkpt lat="40.55969" lon="44.99185">
        <ele>1939.543379</ele>
        <time>2021-10-22T10:47:16.283Z</time>
      </trkpt>
      <trkpt lat="40.56166" lon="44.99338">
        <ele>1943.830118</ele>
        <time>2021-10-22T10:48:16.268Z</time>
      </trkpt>
      <trkpt lat="40.56159" lon="44.99382">
        <ele>1943.830118</ele>
        <time>2021-10-22T10:55:09.077Z</time>
      </trkpt>
    </trkseg>
  </trk>
  <trk>
    <name><![CDATA[Tour d'Europe: étape 482]]></name>
    <extensions>
      <line xmlns="http://www.topografix.com/GPX/gpx_style/0/2">
        <color>888800</color>
        <width>4</width>
      </line>
    </extensions>
    <trkseg>
      <trkpt lat="40.5616" lon="44.9939">
        <ele>1928.980858</ele>
        <time>2021-10-23T05:35:24.041Z</time>
      </trkpt>
      <trkpt lat="40.56179" lon="44.99354">
        <ele>1928.980858</ele>
        <time>2021-10-23T05:36:10.042Z</time>
      </trkpt>
      <trkpt lat="40.55984" lon="44.99197">
        <ele>1926.423011</ele>
        <time>2021-10-23T05:37:04.074Z</time>
      </trkpt>
      <trkpt lat="40.55817" lon="44.99032">
        <ele>1925.661991</ele>
        <time>2021-10-23T05:38:26.064Z</time>
      </trkpt>
      <trkpt lat="40.55654" lon="44.98835">
        <ele>1930.377641</ele>
        <time>2021-10-23T05:39:42.072Z</time>
      </trkpt>
      <trkpt lat="40.55494" lon="44.98624">
        <ele>1932.791081</ele>
        <time>2021-10-23T05:40:53.039Z</time>
      </trkpt>
      <trkpt lat="40.55344" lon="44.98426">
        <ele>1929.632801</ele>
        <time>2021-10-23T05:41:33.055Z</time>
      </trkpt>
      <trkpt lat="40.55167" lon="44.98191">
        <ele>1925.245561</ele>
        <time>2021-10-23T05:42:13.053Z</time>
      </trkpt>
      <trkpt lat="40.55045" lon="44.97965">
        <ele>1928.015633</ele>
        <time>2021-10-23T05:42:59.040Z</time>
      </trkpt>
      <trkpt lat="40.54994" lon="44.97699">
        <ele>1932.998285</ele>
        <time>2021-10-23T05:43:59.078Z</time>
      </trkpt>
      <trkpt lat="40.54971" lon="44.97424">
        <ele>1933.873967</ele>
        <time>2021-10-23T05:45:04.061Z</time>
      </trkpt>
      <trkpt lat="40.55058" lon="44.97165">
        <ele>1933.187828</ele>
        <time>2021-10-23T05:46:18.041Z</time>
      </trkpt>
      <trkpt lat="40.54901" lon="44.97093">
        <ele>1934.315904</ele>
        <time>2021-10-23T05:47:44.045Z</time>
      </trkpt>
      <trkpt lat="40.5487" lon="44.96824">
        <ele>1934.206717</ele>
        <time>2021-10-23T05:48:51.046Z</time>
      </trkpt>
      <trkpt lat="40.54841" lon="44.96557">
        <ele>1935.325155</ele>
        <time>2021-10-23T05:49:56.046Z</time>
      </trkpt>
      <trkpt lat="40.54808" lon="44.96279">
        <ele>1940.976843</ele>
        <time>2021-10-23T05:51:15.124Z</time>
      </trkpt>
      <trkpt lat="40.54844" lon="44.96047">
        <ele>1939.806158</ele>
        <time>2021-10-23T05:52:24.050Z</time>
      </trkpt>
      <trkpt lat="40.54811" lon="44.95762">
        <ele>1936.021591</ele>
        <time>2021-10-23T05:53:26.046Z</time>
      </trkpt>
      <trkpt lat="40.54782" lon="44.9546">
        <ele>1939.613415</ele>
        <time>2021-10-23T05:54:26.056Z</time>
      </trkpt>
      <trkpt lat="40.54828" lon="44.95161">
        <ele>1945.0874</ele>
        <time>2021-10-23T05:55:24.030Z</time>
      </trkpt>
      <trkpt lat="40.54904" lon="44.94853">
        <ele>1944.810557</ele>
        <time>2021-10-23T05:56:23.037Z</time>
      </trkpt>
      <trkpt lat="40.54854" lon="44.94566">
        <ele>1937.259197</ele>
        <time>2021-10-23T05:57:23.073Z</time>
      </trkpt>
      <trkpt lat="40.5478" lon="44.94275">
        <ele>1931.195884</ele>
        <time>2021-10-23T05:58:22.039Z</time>
      </trkpt>
      <trkpt lat="40.54724" lon="44.94006">
        <ele>1937.555386</ele>
        <time>2021-10-23T05:59:09.043Z</time>
      </trkpt>
      <trkpt lat="40.54755" lon="44.93791">
        <ele>1944.99785</ele>
        <time>2021-10-23T06:00:16.059Z</time>
      </trkpt>
      <trkpt lat="40.54644" lon="44.93552">
        <ele>1941.272641</ele>
        <time>2021-10-23T06:01:24.040Z</time>
      </trkpt>
      <trkpt lat="40.54542" lon="44.9329">
        <ele>1941.073527</ele>
        <time>2021-10-23T06:02:16.041Z</time>
      </trkpt>
      <trkpt lat="40.54399" lon="44.93104">
        <ele>1942.617129</ele>
        <time>2021-10-23T06:03:22.033Z</time>
      </trkpt>
      <trkpt lat="40.54331" lon="44.92854">
        <ele>1945.807257</ele>
        <time>2021-10-23T06:04:29.045Z</time>
      </trkpt>
      <trkpt lat="40.54267" lon="44.92585">
        <ele>1947.137612</ele>
        <time>2021-10-23T06:05:21.042Z</time>
      </trkpt>
      <trkpt lat="40.54202" lon="44.92286">
        <ele>1947.24978</ele>
        <time>2021-10-23T06:06:21.026Z</time>
      </trkpt>
      <trkpt lat="40.54138" lon="44.91993">
        <ele>1946.260916</ele>
        <time>2021-10-23T06:07:07.050Z</time>
      </trkpt>
      <trkpt lat="40.54078" lon="44.91741">
        <ele>1945.20096</ele>
        <time>2021-10-23T06:07:49.043Z</time>
      </trkpt>
      <trkpt lat="40.54021" lon="44.9148">
        <ele>1945.028223</ele>
        <time>2021-10-23T06:08:44.079Z</time>
      </trkpt>
      <trkpt lat="40.54032" lon="44.91183">
        <ele>1950.563739</ele>
        <time>2021-10-23T06:09:44.054Z</time>
      </trkpt>
      <trkpt lat="40.54058" lon="44.90886">
        <ele>1950.100611</ele>
        <time>2021-10-23T06:10:33.040Z</time>
      </trkpt>
      <trkpt lat="40.54038" lon="44.90615">
        <ele>1948.843431</ele>
        <time>2021-10-23T06:11:26.046Z</time>
      </trkpt>
      <trkpt lat="40.53879" lon="44.905">
        <ele>1948.254583</ele>
        <time>2021-10-23T06:13:14.028Z</time>
      </trkpt>
      <trkpt lat="40.53828" lon="44.90234">
        <ele>1945.117731</ele>
        <time>2021-10-23T06:14:37.048Z</time>
      </trkpt>
      <trkpt lat="40.53778" lon="44.89957">
        <ele>1950.077819</ele>
        <time>2021-10-23T06:15:40.050Z</time>
      </trkpt>
      <trkpt lat="40.53817" lon="44.89705">
        <ele>1957.200266</ele>
        <time>2021-10-23T06:17:05.065Z</time>
      </trkpt>
      <trkpt lat="40.53837" lon="44.89444">
        <ele>1958.14841</ele>
        <time>2021-10-23T06:18:24.056Z</time>
      </trkpt>
      <trkpt lat="40.53777" lon="44.89176">
        <ele>1956.205068</ele>
        <time>2021-10-23T06:19:19.052Z</time>
      </trkpt>
      <trkpt lat="40.53718" lon="44.88895">
        <ele>1953.632096</ele>
        <time>2021-10-23T06:19:59.037Z</time>
      </trkpt>
      <trkpt lat="40.53635" lon="44.88592">
        <ele>1941.184623</ele>
        <time>2021-10-23T06:20:41.051Z</time>
      </trkpt>
      <trkpt lat="40.535" lon="44.88348">
        <ele>1926.34894</ele>
        <time>2021-10-23T06:21:21.066Z</time>
      </trkpt>
      <trkpt lat="40.53388" lon="44.88185">
        <ele>1917.988446</ele>
        <time>2021-10-23T06:22:05.047Z</time>
      </trkpt>
      <trkpt lat="40.53313" lon="44.87952">
        <ele>1913.134737</ele>
        <time>2021-10-23T06:23:09.063Z</time>
      </trkpt>
      <trkpt lat="40.53279" lon="44.87645">
        <ele>1904.572589</ele>
        <time>2021-10-23T06:23:52.050Z</time>
      </trkpt>
      <trkpt lat="40.53251" lon="44.87374">
        <ele>1903.668195</ele>
        <time>2021-10-23T06:24:59.053Z</time>
      </trkpt>
      <trkpt lat="40.53228" lon="44.87113">
        <ele>1910.576342</ele>
        <time>2021-10-23T06:26:40.059Z</time>
      </trkpt>
      <trkpt lat="40.53159" lon="44.86822">
        <ele>1915.613781</ele>
        <time>2021-10-23T06:27:48.093Z</time>
      </trkpt>
      <trkpt lat="40.53085" lon="44.8653">
        <ele>1915.515967</ele>
        <time>2021-10-23T06:28:48.057Z</time>
      </trkpt>
      <trkpt lat="40.53021" lon="44.86274">
        <ele>1918.991751</ele>
        <time>2021-10-23T06:29:58.029Z</time>
      </trkpt>
      <trkpt lat="40.52955" lon="44.86013">
        <ele>1921.096542</ele>
        <time>2021-10-23T06:31:02.052Z</time>
      </trkpt>
      <trkpt lat="40.52888" lon="44.85738">
        <ele>1919.124258</ele>
        <time>2021-10-23T06:31:55.088Z</time>
      </trkpt>
      <trkpt lat="40.52827" lon="44.85461">
        <ele>1922.861922</ele>
        <time>2021-10-23T06:32:54.033Z</time>
      </trkpt>
      <trkpt lat="40.52746" lon="44.85183">
        <ele>1912.00694</ele>
        <time>2021-10-23T06:33:37.052Z</time>
      </trkpt>
      <trkpt lat="40.52666" lon="44.84925">
        <ele>1894.618894</ele>
        <time>2021-10-23T06:34:43.039Z</time>
      </trkpt>
      <trkpt lat="40.52572" lon="44.84669">
        <ele>1885.230219</ele>
        <time>2021-10-23T06:35:30.123Z</time>
      </trkpt>
      <trkpt lat="40.52484" lon="44.84396">
        <ele>1886.282448</ele>
        <time>2021-10-23T06:36:25.059Z</time>
      </trkpt>
      <trkpt lat="40.52401" lon="44.84119">
        <ele>1895.688778</ele>
        <time>2021-10-23T06:37:28.065Z</time>
      </trkpt>
      <trkpt lat="40.52328" lon="44.83871">
        <ele>1904.357731</ele>
        <time>2021-10-23T06:52:21.073Z</time>
      </trkpt>
      <trkpt lat="40.52252" lon="44.83603">
        <ele>1898.486779</ele>
        <time>2021-10-23T06:53:20.030Z</time>
      </trkpt>
      <trkpt lat="40.52164" lon="44.83312">
        <ele>1899.458223</ele>
        <time>2021-10-23T06:54:13.065Z</time>
      </trkpt>
      <trkpt lat="40.52084" lon="44.83054">
        <ele>1895.779754</ele>
        <time>2021-10-23T06:55:06.088Z</time>
      </trkpt>
      <trkpt lat="40.51995" lon="44.82788">
        <ele>1887.729617</ele>
        <time>2021-10-23T06:56:00.061Z</time>
      </trkpt>
      <trkpt lat="40.51902" lon="44.82516">
        <ele>1875.580648</ele>
        <time>2021-10-23T06:56:58.062Z</time>
      </trkpt>
      <trkpt lat="40.51763" lon="44.82486">
        <ele>1865.866695</ele>
        <time>2021-10-23T06:58:19.052Z</time>
      </trkpt>
      <trkpt lat="40.51658" lon="44.8235">
        <ele>1855.392814</ele>
        <time>2021-10-23T06:59:24.044Z</time>
      </trkpt>
      <trkpt lat="40.5175" lon="44.82334">
        <ele>1859.667539</ele>
        <time>2021-10-23T07:00:43.055Z</time>
      </trkpt>
      <trkpt lat="40.51632" lon="44.82098">
        <ele>1847.665103</ele>
        <time>2021-10-23T07:01:56.039Z</time>
      </trkpt>
      <trkpt lat="40.51574" lon="44.81845">
        <ele>1841.870535</ele>
        <time>2021-10-23T07:02:48.066Z</time>
      </trkpt>
      <trkpt lat="40.51459" lon="44.81685">
        <ele>1848.587532</ele>
        <time>2021-10-23T07:04:24.059Z</time>
      </trkpt>
      <trkpt lat="40.51583" lon="44.81459">
        <ele>1848.575887</ele>
        <time>2021-10-23T07:05:35.050Z</time>
      </trkpt>
      <trkpt lat="40.51512" lon="44.81172">
        <ele>1841.196712</ele>
        <time>2021-10-23T07:06:20.068Z</time>
      </trkpt>
      <trkpt lat="40.51482" lon="44.80894">
        <ele>1839.694963</ele>
        <time>2021-10-23T07:07:16.052Z</time>
      </trkpt>
      <trkpt lat="40.51521" lon="44.80594">
        <ele>1835.984552</ele>
        <time>2021-10-23T07:08:12.103Z</time>
      </trkpt>
      <trkpt lat="40.51487" lon="44.80302">
        <ele>1842.098476</ele>
        <time>2021-10-23T07:09:14.054Z</time>
      </trkpt>
      <trkpt lat="40.51386" lon="44.80074">
        <ele>1847.845828</ele>
        <time>2021-10-23T07:10:19.094Z</time>
      </trkpt>
      <trkpt lat="40.51237" lon="44.79888">
        <ele>1854.983676</ele>
        <time>2021-10-23T07:11:53.045Z</time>
      </trkpt>
      <trkpt lat="40.51095" lon="44.79702">
        <ele>1862.144183</ele>
        <time>2021-10-23T07:13:28.060Z</time>
      </trkpt>
      <trkpt lat="40.51017" lon="44.79442">
        <ele>1863.372294</ele>
        <time>2021-10-23T07:14:35.078Z</time>
      </trkpt>
      <trkpt lat="40.50949" lon="44.79155">
        <ele>1858.307382</ele>
        <time>2021-10-23T07:15:26.052Z</time>
      </trkpt>
      <trkpt lat="40.50837" lon="44.78818">
        <ele>1843.676873</ele>
        <time>2021-10-23T07:16:08.062Z</time>
      </trkpt>
      <trkpt lat="40.50731" lon="44.78484">
        <ele>1830.650888</ele>
        <time>2021-10-23T07:16:41.077Z</time>
      </trkpt>
      <trkpt lat="40.50637" lon="44.78181">
        <ele>1825.454663</ele>
        <time>2021-10-23T07:17:26.070Z</time>
      </trkpt>
      <trkpt lat="40.50539" lon="44.77925">
        <ele>1818.502245</ele>
        <time>2021-10-23T07:18:11.060Z</time>
      </trkpt>
      <trkpt lat="40.5038" lon="44.77657">
        <ele>1811.674167</ele>
        <time>2021-10-23T07:18:52.077Z</time>
      </trkpt>
      <trkpt lat="40.50181" lon="44.77641">
        <ele>1816.393671</ele>
        <time>2021-10-23T07:20:16.056Z</time>
      </trkpt>
      <trkpt lat="40.49955" lon="44.77669">
        <ele>1816.467549</ele>
        <time>2021-10-23T07:21:33.041Z</time>
      </trkpt>
      <trkpt lat="40.4976" lon="44.77601">
        <ele>1823.888611</ele>
        <time>2021-10-23T07:22:53.041Z</time>
      </trkpt>
      <trkpt lat="40.49576" lon="44.77494">
        <ele>1829.31496</ele>
        <time>2021-10-23T07:24:40.055Z</time>
      </trkpt>
      <trkpt lat="40.49366" lon="44.77428">
        <ele>1822.305823</ele>
        <time>2021-10-23T07:25:37.077Z</time>
      </trkpt>
      <trkpt lat="40.49155" lon="44.77357">
        <ele>1817.524505</ele>
        <time>2021-10-23T07:26:42.077Z</time>
      </trkpt>
      <trkpt lat="40.49026" lon="44.77176">
        <ele>1825.718889</ele>
        <time>2021-10-23T07:28:08.096Z</time>
      </trkpt>
      <trkpt lat="40.4896" lon="44.76923">
        <ele>1835.519104</ele>
        <time>2021-10-23T07:29:47.044Z</time>
      </trkpt>
      <trkpt lat="40.48897" lon="44.76654">
        <ele>1839.220168</ele>
        <time>2021-10-23T07:31:24.054Z</time>
      </trkpt>
      <trkpt lat="40.48827" lon="44.76375">
        <ele>1834.129704</ele>
        <time>2021-10-23T07:32:11.051Z</time>
      </trkpt>
      <trkpt lat="40.48732" lon="44.76133">
        <ele>1821.741573</ele>
        <time>2021-10-23T07:33:10.075Z</time>
      </trkpt>
      <trkpt lat="40.4863" lon="44.75901">
        <ele>1811.109647</ele>
        <time>2021-10-23T07:34:22.059Z</time>
      </trkpt>
      <trkpt lat="40.4852" lon="44.75664">
        <ele>1822.229026</ele>
        <time>2021-10-23T07:35:43.054Z</time>
      </trkpt>
      <trkpt lat="40.48406" lon="44.75429">
        <ele>1824.488675</ele>
        <time>2021-10-23T07:37:01.090Z</time>
      </trkpt>
      <trkpt lat="40.48254" lon="44.75199">
        <ele>1805.637993</ele>
        <time>2021-10-23T07:37:41.072Z</time>
      </trkpt>
      <trkpt lat="40.48087" lon="44.7496">
        <ele>1789.990614</ele>
        <time>2021-10-23T07:38:28.044Z</time>
      </trkpt>
      <trkpt lat="40.47973" lon="44.74715">
        <ele>1787.582776</ele>
        <time>2021-10-23T07:42:23.042Z</time>
      </trkpt>
      <trkpt lat="40.47806" lon="44.74486">
        <ele>1773.555559</ele>
        <time>2021-10-23T07:43:04.043Z</time>
      </trkpt>
      <trkpt lat="40.47614" lon="44.7427">
        <ele>1757.478021</ele>
        <time>2021-10-23T07:43:44.052Z</time>
      </trkpt>
      <trkpt lat="40.47425" lon="44.74053">
        <ele>1749.932216</ele>
        <time>2021-10-23T07:44:35.060Z</time>
      </trkpt>
      <trkpt lat="40.47259" lon="44.73863">
        <ele>1757.642506</ele>
        <time>2021-10-23T07:45:36.063Z</time>
      </trkpt>
      <trkpt lat="40.47094" lon="44.73676">
        <ele>1769.963281</ele>
        <time>2021-10-23T07:47:18.068Z</time>
      </trkpt>
      <trkpt lat="40.46943" lon="44.73498">
        <ele>1780.768853</ele>
        <time>2021-10-23T07:49:02.041Z</time>
      </trkpt>
      <trkpt lat="40.46771" lon="44.73344">
        <ele>1782.44287</ele>
        <time>2021-10-23T07:50:24.049Z</time>
      </trkpt>
      <trkpt lat="40.46596" lon="44.73207">
        <ele>1784.743148</ele>
        <time>2021-10-23T07:51:45.060Z</time>
      </trkpt>
      <trkpt lat="40.46418" lon="44.73243">
        <ele>1790.855929</ele>
        <time>2021-10-23T07:52:53.059Z</time>
      </trkpt>
      <trkpt lat="40.46297" lon="44.73145">
        <ele>1795.828067</ele>
        <time>2021-10-23T07:54:35.043Z</time>
      </trkpt>
      <trkpt lat="40.46203" lon="44.72905">
        <ele>1792.136989</ele>
        <time>2021-10-23T07:55:53.053Z</time>
      </trkpt>
      <trkpt lat="40.46004" lon="44.72752">
        <ele>1783.495034</ele>
        <time>2021-10-23T07:56:47.044Z</time>
      </trkpt>
      <trkpt lat="40.45799" lon="44.7259">
        <ele>1782.07184</ele>
        <time>2021-10-23T07:57:37.054Z</time>
      </trkpt>
      <trkpt lat="40.45631" lon="44.72456">
        <ele>1794.832726</ele>
        <time>2021-10-23T07:59:23.062Z</time>
      </trkpt>
      <trkpt lat="40.45461" lon="44.72323">
        <ele>1802.599242</ele>
        <time>2021-10-23T08:01:13.045Z</time>
      </trkpt>
      <trkpt lat="40.4528" lon="44.72182">
        <ele>1803.654406</ele>
        <time>2021-10-23T08:02:26.046Z</time>
      </trkpt>
      <trkpt lat="40.45092" lon="44.72036">
        <ele>1803.493708</ele>
        <time>2021-10-23T08:03:30.057Z</time>
      </trkpt>
      <trkpt lat="40.44897" lon="44.71885">
        <ele>1799.684513</ele>
        <time>2021-10-23T08:04:28.052Z</time>
      </trkpt>
      <trkpt lat="40.44696" lon="44.71733">
        <ele>1792.829361</ele>
        <time>2021-10-23T08:05:12.039Z</time>
      </trkpt>
      <trkpt lat="40.44533" lon="44.716">
        <ele>1804.295692</ele>
        <time>2021-10-23T08:07:23.048Z</time>
      </trkpt>
      <trkpt lat="40.44354" lon="44.71496">
        <ele>1817.007166</ele>
        <time>2021-10-23T08:09:36.048Z</time>
      </trkpt>
      <trkpt lat="40.44164" lon="44.7141">
        <ele>1823.042121</ele>
        <time>2021-10-23T08:10:54.061Z</time>
      </trkpt>
      <trkpt lat="40.43976" lon="44.7134">
        <ele>1829.268504</ele>
        <time>2021-10-23T08:12:43.048Z</time>
      </trkpt>
      <trkpt lat="40.4377" lon="44.71293">
        <ele>1831.351233</ele>
        <time>2021-10-23T08:13:47.041Z</time>
      </trkpt>
      <trkpt lat="40.43495" lon="44.71225">
        <ele>1823.271304</ele>
        <time>2021-10-23T08:14:32.046Z</time>
      </trkpt>
      <trkpt lat="40.43295" lon="44.71175">
        <ele>1823.30199</ele>
        <time>2021-10-23T08:15:40.056Z</time>
      </trkpt>
      <trkpt lat="40.43101" lon="44.71126">
        <ele>1828.163046</ele>
        <time>2021-10-23T08:16:56.059Z</time>
      </trkpt>
      <trkpt lat="40.42904" lon="44.71078">
        <ele>1830.833668</ele>
        <time>2021-10-23T08:18:26.041Z</time>
      </trkpt>
      <trkpt lat="40.42683" lon="44.71025">
        <ele>1828.934862</ele>
        <time>2021-10-23T08:19:18.071Z</time>
      </trkpt>
      <trkpt lat="40.42456" lon="44.70971">
        <ele>1827.137666</ele>
        <time>2021-10-23T08:20:13.049Z</time>
      </trkpt>
      <trkpt lat="40.42219" lon="44.7091">
        <ele>1816.655721</ele>
        <time>2021-10-23T08:20:53.055Z</time>
      </trkpt>
      <trkpt lat="40.41987" lon="44.70841">
        <ele>1811.462415</ele>
        <time>2021-10-23T08:21:37.060Z</time>
      </trkpt>
      <trkpt lat="40.41778" lon="44.70768">
        <ele>1812.968367</ele>
        <time>2021-10-23T08:22:42.059Z</time>
      </trkpt>
      <trkpt lat="40.41582" lon="44.70704">
        <ele>1819.100581</ele>
        <time>2021-10-23T08:24:15.061Z</time>
      </trkpt>
      <trkpt lat="40.41382" lon="44.70637">
        <ele>1820.584225</ele>
        <time>2021-10-23T08:25:38.070Z</time>
      </trkpt>
      <trkpt lat="40.41176" lon="44.70568">
        <ele>1823.470031</ele>
        <time>2021-10-23T08:26:50.061Z</time>
      </trkpt>
      <trkpt lat="40.40978" lon="44.70506">
        <ele>1830.222981</ele>
        <time>2021-10-23T08:28:20.062Z</time>
      </trkpt>
      <trkpt lat="40.40756" lon="44.70437">
        <ele>1832.572881</ele>
        <time>2021-10-23T08:29:37.076Z</time>
      </trkpt>
      <trkpt lat="40.40524" lon="44.70364">
        <ele>1825.684217</ele>
        <time>2021-10-23T08:30:17.061Z</time>
      </trkpt>
      <trkpt lat="40.4031" lon="44.70288">
        <ele>1824.147486</ele>
        <time>2021-10-23T08:31:09.063Z</time>
      </trkpt>
      <trkpt lat="40.40111" lon="44.70189">
        <ele>1828.789737</ele>
        <time>2021-10-23T08:32:28.079Z</time>
      </trkpt>
      <trkpt lat="40.40002" lon="44.69943">
        <ele>1835.115185</ele>
        <time>2021-10-23T08:33:15.050Z</time>
      </trkpt>
      <trkpt lat="40.39888" lon="44.6969">
        <ele>1830.232016</ele>
        <time>2021-10-23T08:34:07.085Z</time>
      </trkpt>
      <trkpt lat="40.39773" lon="44.69425">
        <ele>1819.055066</ele>
        <time>2021-10-23T08:34:47.059Z</time>
      </trkpt>
      <trkpt lat="40.3965" lon="44.69164">
        <ele>1813.695269</ele>
        <time>2021-10-23T08:35:42.053Z</time>
      </trkpt>
      <trkpt lat="40.39551" lon="44.68932">
        <ele>1817.471348</ele>
        <time>2021-10-23T08:36:56.049Z</time>
      </trkpt>
      <trkpt lat="40.39446" lon="44.68709">
        <ele>1819.028872</ele>
        <time>2021-10-23T08:37:56.052Z</time>
      </trkpt>
      <trkpt lat="40.39332" lon="44.685">
        <ele>1820.691225</ele>
        <time>2021-10-23T08:38:59.092Z</time>
      </trkpt>
      <trkpt lat="40.39215" lon="44.68293">
        <ele>1828.245356</ele>
        <time>2021-10-23T08:40:26.077Z</time>
      </trkpt>
      <trkpt lat="40.39175" lon="44.6806">
        <ele>1842.899099</ele>
        <time>2021-10-23T08:42:17.073Z</time>
      </trkpt>
      <trkpt lat="40.39149" lon="44.67817">
        <ele>1850.172555</ele>
        <time>2021-10-23T08:44:02.060Z</time>
      </trkpt>
      <trkpt lat="40.39243" lon="44.67638">
        <ele>1857.515825</ele>
        <time>2021-10-23T08:46:02.082Z</time>
      </trkpt>
      <trkpt lat="40.39064" lon="44.67664">
        <ele>1872.170866</ele>
        <time>2021-10-23T08:48:00.062Z</time>
      </trkpt>
      <trkpt lat="40.38919" lon="44.67505">
        <ele>1891.935977</ele>
        <time>2021-10-23T08:50:17.068Z</time>
      </trkpt>
      <trkpt lat="40.38792" lon="44.67294">
        <ele>1895.499721</ele>
        <time>2021-10-23T08:51:39.060Z</time>
      </trkpt>
      <trkpt lat="40.38661" lon="44.67074">
        <ele>1899.34879</ele>
        <time>2021-10-23T08:53:19.059Z</time>
      </trkpt>
      <trkpt lat="40.38523" lon="44.66874">
        <ele>1904.62238</ele>
        <time>2021-10-23T08:54:56.065Z</time>
      </trkpt>
      <trkpt lat="40.38376" lon="44.66664">
        <ele>1902.036412</ele>
        <time>2021-10-23T08:55:51.096Z</time>
      </trkpt>
      <trkpt lat="40.382" lon="44.66516">
        <ele>1894.92244</ele>
        <time>2021-10-23T08:56:33.057Z</time>
      </trkpt>
      <trkpt lat="40.37993" lon="44.66341">
        <ele>1887.165575</ele>
        <time>2021-10-23T08:57:13.063Z</time>
      </trkpt>
      <trkpt lat="40.3777" lon="44.66155">
        <ele>1882.915913</ele>
        <time>2021-10-23T08:57:53.055Z</time>
      </trkpt>
      <trkpt lat="40.37556" lon="44.65979">
        <ele>1874.124084</ele>
        <time>2021-10-23T08:58:34.063Z</time>
      </trkpt>
      <trkpt lat="40.37349" lon="44.6581">
        <ele>1868.692179</ele>
        <time>2021-10-23T08:59:14.068Z</time>
      </trkpt>
      <trkpt lat="40.37159" lon="44.65665">
        <ele>1863.171177</ele>
        <time>2021-10-23T09:00:05.051Z</time>
      </trkpt>
      <trkpt lat="40.36943" lon="44.65723">
        <ele>1852.818146</ele>
        <time>2021-10-23T09:14:25.052Z</time>
      </trkpt>
      <trkpt lat="40.36779" lon="44.6557">
        <ele>1861.108143</ele>
        <time>2021-10-23T09:15:54.063Z</time>
      </trkpt>
      <trkpt lat="40.36611" lon="44.6543">
        <ele>1862.501353</ele>
        <time>2021-10-23T09:17:06.051Z</time>
      </trkpt>
      <trkpt lat="40.36411" lon="44.65269">
        <ele>1859.779976</ele>
        <time>2021-10-23T09:17:55.060Z</time>
      </trkpt>
      <trkpt lat="40.36217" lon="44.65138">
        <ele>1857.46127</ele>
        <time>2021-10-23T09:18:55.063Z</time>
      </trkpt>
      <trkpt lat="40.35977" lon="44.65099">
        <ele>1844.492765</ele>
        <time>2021-10-23T09:19:39.043Z</time>
      </trkpt>
      <trkpt lat="40.35814" lon="44.64948">
        <ele>1830.128819</ele>
        <time>2021-10-23T09:20:22.067Z</time>
      </trkpt>
      <trkpt lat="40.3562" lon="44.648">
        <ele>1813.444589</ele>
        <time>2021-10-23T09:21:04.071Z</time>
      </trkpt>
      <trkpt lat="40.3549" lon="44.64596">
        <ele>1801.259199</ele>
        <time>2021-10-23T09:21:44.066Z</time>
      </trkpt>
      <trkpt lat="40.35326" lon="44.6447">
        <ele>1785.8561</ele>
        <time>2021-10-23T09:22:30.065Z</time>
      </trkpt>
      <trkpt lat="40.35112" lon="44.64548">
        <ele>1779.470373</ele>
        <time>2021-10-23T09:23:36.067Z</time>
      </trkpt>
      <trkpt lat="40.34917" lon="44.64684">
        <ele>1772.854879</ele>
        <time>2021-10-23T09:24:27.056Z</time>
      </trkpt>
      <trkpt lat="40.34735" lon="44.64841">
        <ele>1761.099629</ele>
        <time>2021-10-23T09:25:10.099Z</time>
      </trkpt>
      <trkpt lat="40.34548" lon="44.65006">
        <ele>1755.15335</ele>
        <time>2021-10-23T09:26:02.065Z</time>
      </trkpt>
      <trkpt lat="40.34353" lon="44.65171">
        <ele>1746.036598</ele>
        <time>2021-10-23T09:26:42.063Z</time>
      </trkpt>
      <trkpt lat="40.34176" lon="44.65419">
        <ele>1729.794555</ele>
        <time>2021-10-23T09:27:23.066Z</time>
      </trkpt>
      <trkpt lat="40.34025" lon="44.6561">
        <ele>1729.376792</ele>
        <time>2021-10-23T09:28:19.075Z</time>
      </trkpt>
      <trkpt lat="40.3387" lon="44.65617">
        <ele>1735.725906</ele>
        <time>2021-10-23T09:29:19.082Z</time>
      </trkpt>
      <trkpt lat="40.33652" lon="44.65557">
        <ele>1731.210639</ele>
        <time>2021-10-23T09:30:14.062Z</time>
      </trkpt>
      <trkpt lat="40.33442" lon="44.6555">
        <ele>1726.616849</ele>
        <time>2021-10-23T09:31:02.061Z</time>
      </trkpt>
      <trkpt lat="40.33207" lon="44.65638">
        <ele>1719.729753</ele>
        <time>2021-10-23T09:31:53.060Z</time>
      </trkpt>
      <trkpt lat="40.32957" lon="44.65674">
        <ele>1712.627309</ele>
        <time>2021-10-23T09:32:33.059Z</time>
      </trkpt>
      <trkpt lat="40.32769" lon="44.65818">
        <ele>1705.2634</ele>
        <time>2021-10-23T09:33:13.070Z</time>
      </trkpt>
      <trkpt lat="40.32539" lon="44.65864">
        <ele>1698.527506</ele>
        <time>2021-10-23T09:33:53.056Z</time>
      </trkpt>
      <trkpt lat="40.32506" lon="44.65594">
        <ele>1688.505222</ele>
        <time>2021-10-23T09:34:44.112Z</time>
      </trkpt>
      <trkpt lat="40.32316" lon="44.65624">
        <ele>1676.545944</ele>
        <time>2021-10-23T09:35:39.092Z</time>
      </trkpt>
      <trkpt lat="40.32127" lon="44.65688">
        <ele>1664.151016</ele>
        <time>2021-10-23T09:36:29.064Z</time>
      </trkpt>
      <trkpt lat="40.31991" lon="44.65831">
        <ele>1651.12127</ele>
        <time>2021-10-23T09:37:09.065Z</time>
      </trkpt>
      <trkpt lat="40.31848" lon="44.65759">
        <ele>1641.745983</ele>
        <time>2021-10-23T09:37:50.064Z</time>
      </trkpt>
      <trkpt lat="40.31741" lon="44.65512">
        <ele>1625.667879</ele>
        <time>2021-10-23T09:38:30.071Z</time>
      </trkpt>
      <trkpt lat="40.31646" lon="44.65261">
        <ele>1601.968082</ele>
        <time>2021-10-23T09:39:15.066Z</time>
      </trkpt>
      <trkpt lat="40.31665" lon="44.64955">
        <ele>1580.942277</ele>
        <time>2021-10-23T09:40:14.068Z</time>
      </trkpt>
      <trkpt lat="40.31757" lon="44.6473">
        <ele>1568.39945</ele>
        <time>2021-10-23T09:41:09.075Z</time>
      </trkpt>
      <trkpt lat="40.31622" lon="44.64596">
        <ele>1557.829464</ele>
        <time>2021-10-23T09:42:02.075Z</time>
      </trkpt>
      <trkpt lat="40.31396" lon="44.64537">
        <ele>1549.343844</ele>
        <time>2021-10-23T09:42:42.058Z</time>
      </trkpt>
      <trkpt lat="40.3114" lon="44.64419">
        <ele>1539.004133</ele>
        <time>2021-10-23T09:43:22.083Z</time>
      </trkpt>
      <trkpt lat="40.30933" lon="44.64281">
        <ele>1527.375261</ele>
        <time>2021-10-23T09:44:02.066Z</time>
      </trkpt>
      <trkpt lat="40.30695" lon="44.6412">
        <ele>1515.336499</ele>
        <time>2021-10-23T09:44:42.068Z</time>
      </trkpt>
      <trkpt lat="40.305" lon="44.63988">
        <ele>1507.393034</ele>
        <time>2021-10-23T09:45:25.062Z</time>
      </trkpt>
      <trkpt lat="40.30294" lon="44.63852">
        <ele>1499.462996</ele>
        <time>2021-10-23T09:46:23.052Z</time>
      </trkpt>
      <trkpt lat="40.30069" lon="44.63706">
        <ele>1494.686906</ele>
        <time>2021-10-23T09:47:06.080Z</time>
      </trkpt>
      <trkpt lat="40.29877" lon="44.63586">
        <ele>1485.801487</ele>
        <time>2021-10-23T09:47:49.062Z</time>
      </trkpt>
      <trkpt lat="40.29679" lon="44.63465">
        <ele>1474.653955</ele>
        <time>2021-10-23T09:48:31.066Z</time>
      </trkpt>
      <trkpt lat="40.29481" lon="44.63344">
        <ele>1471.166274</ele>
        <time>2021-10-23T09:49:18.088Z</time>
      </trkpt>
      <trkpt lat="40.29282" lon="44.63219">
        <ele>1466.710567</ele>
        <time>2021-10-23T09:50:01.063Z</time>
      </trkpt>
      <trkpt lat="40.29084" lon="44.63097">
        <ele>1461.832883</ele>
        <time>2021-10-23T09:50:41.073Z</time>
      </trkpt>
      <trkpt lat="40.2887" lon="44.62965">
        <ele>1455.086543</ele>
        <time>2021-10-23T09:51:29.051Z</time>
      </trkpt>
      <trkpt lat="40.28687" lon="44.62851">
        <ele>1447.849277</ele>
        <time>2021-10-23T09:52:11.075Z</time>
      </trkpt>
      <trkpt lat="40.2849" lon="44.62724">
        <ele>1435.844364</ele>
        <time>2021-10-23T09:53:02.076Z</time>
      </trkpt>
      <trkpt lat="40.28293" lon="44.62605">
        <ele>1428.706981</ele>
        <time>2021-10-23T09:53:46.071Z</time>
      </trkpt>
      <trkpt lat="40.28101" lon="44.62485">
        <ele>1423.292799</ele>
        <time>2021-10-23T09:54:37.113Z</time>
      </trkpt>
      <trkpt lat="40.27902" lon="44.62357">
        <ele>1421.272903</ele>
        <time>2021-10-23T09:55:17.074Z</time>
      </trkpt>
      <trkpt lat="40.27698" lon="44.62233">
        <ele>1420.986465</ele>
        <time>2021-10-23T09:56:10.071Z</time>
      </trkpt>
      <trkpt lat="40.27501" lon="44.62112">
        <ele>1415.521954</ele>
        <time>2021-10-23T09:56:55.091Z</time>
      </trkpt>
      <trkpt lat="40.27308" lon="44.61993">
        <ele>1414.191109</ele>
        <time>2021-10-23T09:57:54.067Z</time>
      </trkpt>
      <trkpt lat="40.27113" lon="44.61871">
        <ele>1416.613267</ele>
        <time>2021-10-23T09:59:01.065Z</time>
      </trkpt>
      <trkpt lat="40.26913" lon="44.61749">
        <ele>1419.431754</ele>
        <time>2021-10-23T10:00:00.066Z</time>
      </trkpt>
      <trkpt lat="40.26695" lon="44.61612">
        <ele>1417.064128</ele>
        <time>2021-10-23T10:00:47.102Z</time>
      </trkpt>
      <trkpt lat="40.26529" lon="44.61458">
        <ele>1419.093032</ele>
        <time>2021-10-23T10:02:02.073Z</time>
      </trkpt>
      <trkpt lat="40.26317" lon="44.61301">
        <ele>1413.009526</ele>
        <time>2021-10-23T10:02:54.100Z</time>
      </trkpt>
      <trkpt lat="40.26168" lon="44.61084">
        <ele>1408.434979</ele>
        <time>2021-10-23T10:03:36.085Z</time>
      </trkpt>
      <trkpt lat="40.26031" lon="44.60842">
        <ele>1417.370654</ele>
        <time>2021-10-23T10:04:30.073Z</time>
      </trkpt>
      <trkpt lat="40.25906" lon="44.60617">
        <ele>1423.545615</ele>
        <time>2021-10-23T10:05:32.119Z</time>
      </trkpt>
      <trkpt lat="40.25783" lon="44.60399">
        <ele>1425.799958</ele>
        <time>2021-10-23T10:06:47.074Z</time>
      </trkpt>
      <trkpt lat="40.25636" lon="44.6026">
        <ele>1427.583005</ele>
        <time>2021-10-23T10:07:51.086Z</time>
      </trkpt>
      <trkpt lat="40.25406" lon="44.60351">
        <ele>1416.663845</ele>
        <time>2021-10-23T10:08:34.067Z</time>
      </trkpt>
      <trkpt lat="40.25174" lon="44.6034">
        <ele>1397.233351</ele>
        <time>2021-10-23T10:09:41.068Z</time>
      </trkpt>
      <trkpt lat="40.24962" lon="44.60373">
        <ele>1385.410148</ele>
        <time>2021-10-23T10:10:41.073Z</time>
      </trkpt>
      <trkpt lat="40.24774" lon="44.60231">
        <ele>1382.302221</ele>
        <time>2021-10-23T10:11:38.069Z</time>
      </trkpt>
      <trkpt lat="40.24592" lon="44.60082">
        <ele>1380.734666</ele>
        <time>2021-10-23T10:12:39.069Z</time>
      </trkpt>
      <trkpt lat="40.24516" lon="44.59806">
        <ele>1379.901607</ele>
        <time>2021-10-23T10:16:42.062Z</time>
      </trkpt>
      <trkpt lat="40.24479" lon="44.59531">
        <ele>1378.580973</ele>
        <time>2021-10-23T10:17:41.073Z</time>
      </trkpt>
      <trkpt lat="40.24414" lon="44.59233">
        <ele>1362.831336</ele>
        <time>2021-10-23T10:18:28.056Z</time>
      </trkpt>
      <trkpt lat="40.24293" lon="44.58972">
        <ele>1357.690876</ele>
        <time>2021-10-23T10:19:17.068Z</time>
      </trkpt>
      <trkpt lat="40.24333" lon="44.58715">
        <ele>1367.344793</ele>
        <time>2021-10-23T10:20:45.062Z</time>
      </trkpt>
      <trkpt lat="40.24202" lon="44.58601">
        <ele>1371.78897</ele>
        <time>2021-10-23T10:22:06.065Z</time>
      </trkpt>
      <trkpt lat="40.23996" lon="44.58713">
        <ele>1368.212725</ele>
        <time>2021-10-23T10:22:56.063Z</time>
      </trkpt>
      <trkpt lat="40.23799" lon="44.58853">
        <ele>1357.43221</ele>
        <time>2021-10-23T10:26:19.080Z</time>
      </trkpt>
      <trkpt lat="40.23669" lon="44.58739">
        <ele>1345.159418</ele>
        <time>2021-10-23T10:26:59.088Z</time>
      </trkpt>
      <trkpt lat="40.23599" lon="44.58468">
        <ele>1344.269059</ele>
        <time>2021-10-23T10:28:16.069Z</time>
      </trkpt>
      <trkpt lat="40.23523" lon="44.58216">
        <ele>1349.84634</ele>
        <time>2021-10-23T10:29:29.073Z</time>
      </trkpt>
      <trkpt lat="40.23437" lon="44.5795">
        <ele>1349.748141</ele>
        <time>2021-10-23T10:30:17.106Z</time>
      </trkpt>
      <trkpt lat="40.23239" lon="44.5789">
        <ele>1344.755559</ele>
        <time>2021-10-23T10:30:59.056Z</time>
      </trkpt>
      <trkpt lat="40.2302" lon="44.57769">
        <ele>1329.441834</ele>
        <time>2021-10-23T10:31:47.087Z</time>
      </trkpt>
      <trkpt lat="40.22806" lon="44.5768">
        <ele>1323.469936</ele>
        <time>2021-10-23T10:32:41.073Z</time>
      </trkpt>
      <trkpt lat="40.22684" lon="44.57455">
        <ele>1319.676733</ele>
        <time>2021-10-23T10:34:27.076Z</time>
      </trkpt>
      <trkpt lat="40.22473" lon="44.57518">
        <ele>1327.59599</ele>
        <time>2021-10-23T10:35:16.071Z</time>
      </trkpt>
      <trkpt lat="40.22246" lon="44.57579">
        <ele>1331.188204</ele>
        <time>2021-10-23T10:36:14.079Z</time>
      </trkpt>
      <trkpt lat="40.22048" lon="44.57605">
        <ele>1322.852138</ele>
        <time>2021-10-23T10:37:09.069Z</time>
      </trkpt>
      <trkpt lat="40.22004" lon="44.57316">
        <ele>1309.296141</ele>
        <time>2021-10-23T10:37:51.086Z</time>
      </trkpt>
      <trkpt lat="40.21961" lon="44.57003">
        <ele>1303.377962</ele>
        <time>2021-10-23T10:38:31.077Z</time>
      </trkpt>
      <trkpt lat="40.21976" lon="44.56598">
        <ele>1286.730431</ele>
        <time>2021-10-23T10:39:11.132Z</time>
      </trkpt>
      <trkpt lat="40.21935" lon="44.56233">
        <ele>1273.041444</ele>
        <time>2021-10-23T10:39:52.077Z</time>
      </trkpt>
      <trkpt lat="40.21917" lon="44.55916">
        <ele>1268.523504</ele>
        <time>2021-10-23T10:41:57.075Z</time>
      </trkpt>
      <trkpt lat="40.21943" lon="44.55636">
        <ele>1272.290818</ele>
        <time>2021-10-23T10:42:45.080Z</time>
      </trkpt>
      <trkpt lat="40.21971" lon="44.55373">
        <ele>1282.393057</ele>
        <time>2021-10-23T10:44:00.078Z</time>
      </trkpt>
      <trkpt lat="40.2196" lon="44.55138">
        <ele>1297.107879</ele>
        <time>2021-10-23T10:47:10.076Z</time>
      </trkpt>
      <trkpt lat="40.21823" lon="44.54957">
        <ele>1305.721638</ele>
        <time>2021-10-23T10:48:32.063Z</time>
      </trkpt>
      <trkpt lat="40.21652" lon="44.54855">
        <ele>1313.284679</ele>
        <time>2021-10-23T10:50:23.058Z</time>
      </trkpt>
      <trkpt lat="40.21767" lon="44.54651">
        <ele>1322.399374</ele>
        <time>2021-10-23T10:52:20.082Z</time>
      </trkpt>
      <trkpt lat="40.21875" lon="44.54455">
        <ele>1325.326196</ele>
        <time>2021-10-23T10:53:25.068Z</time>
      </trkpt>
      <trkpt lat="40.21733" lon="44.54311">
        <ele>1313.289009</ele>
        <time>2021-10-23T10:54:19.094Z</time>
      </trkpt>
      <trkpt lat="40.21574" lon="44.54509">
        <ele>1308.010397</ele>
        <time>2021-10-23T10:55:12.091Z</time>
      </trkpt>
      <trkpt lat="40.21408" lon="44.54504">
        <ele>1311.399073</ele>
        <time>2021-10-23T10:56:39.086Z</time>
      </trkpt>
      <trkpt lat="40.21212" lon="44.5445">
        <ele>1312.880611</ele>
        <time>2021-10-23T10:57:23.086Z</time>
      </trkpt>
      <trkpt lat="40.21055" lon="44.54242">
        <ele>1307.520059</ele>
        <time>2021-10-23T10:58:15.084Z</time>
      </trkpt>
      <trkpt lat="40.20848" lon="44.54093">
        <ele>1299.491545</ele>
        <time>2021-10-23T10:59:05.096Z</time>
      </trkpt>
      <trkpt lat="40.20643" lon="44.53855">
        <ele>1280.912639</ele>
        <time>2021-10-23T10:59:47.090Z</time>
      </trkpt>
      <trkpt lat="40.20475" lon="44.536">
        <ele>1266.253998</ele>
        <time>2021-10-23T11:00:52.078Z</time>
      </trkpt>
      <trkpt lat="40.20296" lon="44.5338">
        <ele>1249.243896</ele>
        <time>2021-10-23T11:01:35.082Z</time>
      </trkpt>
      <trkpt lat="40.20096" lon="44.53141">
        <ele>1232.259788</ele>
        <time>2021-10-23T11:02:33.068Z</time>
      </trkpt>
      <trkpt lat="40.19922" lon="44.52939">
        <ele>1216.231803</ele>
        <time>2021-10-23T11:04:10.077Z</time>
      </trkpt>
      <trkpt lat="40.19733" lon="44.5272">
        <ele>1188.447796</ele>
        <time>2021-10-23T11:04:52.065Z</time>
      </trkpt>
      <trkpt lat="40.19725" lon="44.52486">
        <ele>1168.673151</ele>
        <time>2021-10-23T11:05:34.063Z</time>
      </trkpt>
      <trkpt lat="40.19832" lon="44.52204">
        <ele>1176.404916</ele>
        <time>2021-10-23T11:06:14.088Z</time>
      </trkpt>
      <trkpt lat="40.19887" lon="44.51957">
        <ele>1180.857243</ele>
        <time>2021-10-23T11:07:20.077Z</time>
      </trkpt>
      <trkpt lat="40.19719" lon="44.51771">
        <ele>1167.330917</ele>
        <time>2021-10-23T11:07:46.072Z</time>
      </trkpt>
      <trkpt lat="40.19529" lon="44.5162">
        <ele>1147.708676</ele>
        <time>2021-10-23T11:11:15.083Z</time>
      </trkpt>
      <trkpt lat="40.19393" lon="44.51814">
        <ele>1136.293628</ele>
        <time>2021-10-23T11:11:56.088Z</time>
      </trkpt>
      <trkpt lat="40.19308" lon="44.52188">
        <ele>1122.97195</ele>
        <time>2021-10-23T11:12:37.095Z</time>
      </trkpt>
      <trkpt lat="40.19361" lon="44.52574">
        <ele>1109.758078</ele>
        <time>2021-10-23T11:13:17.068Z</time>
      </trkpt>
      <trkpt lat="40.19281" lon="44.52598">
        <ele>1093.776863</ele>
        <time>2021-10-23T11:14:40.082Z</time>
      </trkpt>
      <trkpt lat="40.19204" lon="44.52547">
        <ele>1090.851321</ele>
        <time>2021-10-23T11:15:20.075Z</time>
      </trkpt>
      <trkpt lat="40.19016" lon="44.52328">
        <ele>1094.681943</ele>
        <time>2021-10-23T11:16:00.068Z</time>
      </trkpt>
      <trkpt lat="40.18831" lon="44.52131">
        <ele>1099.855729</ele>
        <time>2021-10-23T11:20:27.077Z</time>
      </trkpt>
      <trkpt lat="40.18657" lon="44.5191">
        <ele>1098.645107</ele>
        <time>2021-10-23T11:21:31.095Z</time>
      </trkpt>
      <trkpt lat="40.18431" lon="44.51678">
        <ele>1109.096687</ele>
        <time>2021-10-23T11:23:22.077Z</time>
      </trkpt>
      <trkpt lat="40.18437" lon="44.51461">
        <ele>1068.275362</ele>
        <time>2021-10-23T11:24:37.078Z</time>
      </trkpt>
      <trkpt lat="40.18352" lon="44.51244">
        <ele>1063.36789</ele>
        <time>2021-10-23T11:40:27.065Z</time>
      </trkpt>
      <trkpt lat="40.18398" lon="44.51236">
        <ele>1063.36789</ele>
        <time>2021-10-23T11:50:35.117Z</time>
      </trkpt>
    </trkseg>
  </trk>
  <trk>
    <name><![CDATA[Tour d'Europe: étape 489]]></name>
    <extensions>
      <line xmlns="http://www.topografix.com/GPX/gpx_style/0/2">
        <color>880088</color>
        <width>4</width>
      </line>
    </extensions>
    <trkseg>
      <trkpt lat="40.18422" lon="44.51247">
        <ele>1067.030646</ele>
        <time>2021-10-30T05:28:05.806Z</time>
      </trkpt>
      <trkpt lat="40.18494" lon="44.51256">
        <ele>1067.030646</ele>
        <time>2021-10-30T05:28:42.779Z</time>
      </trkpt>
      <trkpt lat="40.18658" lon="44.51442">
        <ele>1057.217869</ele>
        <time>2021-10-30T05:29:59.790Z</time>
      </trkpt>
      <trkpt lat="40.18847" lon="44.51427">
        <ele>1053.877237</ele>
        <time>2021-10-30T05:31:31.813Z</time>
      </trkpt>
      <trkpt lat="40.19029" lon="44.51268">
        <ele>1068.077215</ele>
        <time>2021-10-30T05:32:34.841Z</time>
      </trkpt>
      <trkpt lat="40.19149" lon="44.51049">
        <ele>1069.023712</ele>
        <time>2021-10-30T05:33:54.784Z</time>
      </trkpt>
      <trkpt lat="40.1919" lon="44.50797">
        <ele>1075.686163</ele>
        <time>2021-10-30T05:35:24.767Z</time>
      </trkpt>
      <trkpt lat="40.19215" lon="44.50538">
        <ele>1087.620748</ele>
        <time>2021-10-30T05:37:00.774Z</time>
      </trkpt>
      <trkpt lat="40.19239" lon="44.50266">
        <ele>1093.766232</ele>
        <time>2021-10-30T05:38:43.792Z</time>
      </trkpt>
      <trkpt lat="40.19256" lon="44.50011">
        <ele>1105.623724</ele>
        <time>2021-10-30T05:40:23.813Z</time>
      </trkpt>
      <trkpt lat="40.19382" lon="44.49788">
        <ele>1120.620398</ele>
        <time>2021-10-30T05:41:24.789Z</time>
      </trkpt>
      <trkpt lat="40.19527" lon="44.49547">
        <ele>1142.030172</ele>
        <time>2021-10-30T05:43:53.781Z</time>
      </trkpt>
      <trkpt lat="40.19663" lon="44.4936">
        <ele>1139.097538</ele>
        <time>2021-10-30T05:45:31.773Z</time>
      </trkpt>
      <trkpt lat="40.19844" lon="44.49329">
        <ele>1139.453534</ele>
        <time>2021-10-30T05:46:42.779Z</time>
      </trkpt>
      <trkpt lat="40.2005" lon="44.49411">
        <ele>1172.617942</ele>
        <time>2021-10-30T05:48:14.778Z</time>
      </trkpt>
      <trkpt lat="40.20165" lon="44.49598">
        <ele>1165.516397</ele>
        <time>2021-10-30T05:49:44.783Z</time>
      </trkpt>
      <trkpt lat="40.20255" lon="44.49823">
        <ele>1167.347791</ele>
        <time>2021-10-30T05:51:44.771Z</time>
      </trkpt>
      <trkpt lat="40.20431" lon="44.49767">
        <ele>1161.641648</ele>
        <time>2021-10-30T05:53:29.793Z</time>
      </trkpt>
      <trkpt lat="40.20635" lon="44.49632">
        <ele>1151.779405</ele>
        <time>2021-10-30T05:54:19.793Z</time>
      </trkpt>
      <trkpt lat="40.20867" lon="44.49439">
        <ele>1131.715135</ele>
        <time>2021-10-30T05:54:59.785Z</time>
      </trkpt>
      <trkpt lat="40.2108" lon="44.49248">
        <ele>1124.609092</ele>
        <time>2021-10-30T05:55:41.811Z</time>
      </trkpt>
      <trkpt lat="40.21277" lon="44.49213">
        <ele>1125.235245</ele>
        <time>2021-10-30T05:56:22.796Z</time>
      </trkpt>
      <trkpt lat="40.21441" lon="44.49399">
        <ele>1131.92212</ele>
        <time>2021-10-30T05:57:09.806Z</time>
      </trkpt>
      <trkpt lat="40.21588" lon="44.49601">
        <ele>1145.431506</ele>
        <time>2021-10-30T05:58:59.845Z</time>
      </trkpt>
      <trkpt lat="40.21721" lon="44.49788">
        <ele>1160.386647</ele>
        <time>2021-10-30T06:01:00.802Z</time>
      </trkpt>
      <trkpt lat="40.21874" lon="44.49989">
        <ele>1170.04932</ele>
        <time>2021-10-30T06:02:25.808Z</time>
      </trkpt>
      <trkpt lat="40.22024" lon="44.50188">
        <ele>1182.98124</ele>
        <time>2021-10-30T06:03:26.813Z</time>
      </trkpt>
      <trkpt lat="40.22167" lon="44.50375">
        <ele>1176.152117</ele>
        <time>2021-10-30T06:05:16.792Z</time>
      </trkpt>
      <trkpt lat="40.22336" lon="44.50543">
        <ele>1190.370199</ele>
        <time>2021-10-30T06:07:14.797Z</time>
      </trkpt>
      <trkpt lat="40.22487" lon="44.5073">
        <ele>1197.549033</ele>
        <time>2021-10-30T06:08:33.800Z</time>
      </trkpt>
      <trkpt lat="40.22633" lon="44.50932">
        <ele>1189.846325</ele>
        <time>2021-10-30T06:09:37.833Z</time>
      </trkpt>
      <trkpt lat="40.22857" lon="44.50989">
        <ele>1182.569314</ele>
        <time>2021-10-30T06:10:37.781Z</time>
      </trkpt>
      <trkpt lat="40.23055" lon="44.5102">
        <ele>1199.286065</ele>
        <time>2021-10-30T06:12:22.796Z</time>
      </trkpt>
      <trkpt lat="40.23252" lon="44.51091">
        <ele>1202.083621</ele>
        <time>2021-10-30T06:13:44.806Z</time>
      </trkpt>
      <trkpt lat="40.23479" lon="44.51072">
        <ele>1192.28658</ele>
        <time>2021-10-30T06:14:34.820Z</time>
      </trkpt>
      <trkpt lat="40.23679" lon="44.51005">
        <ele>1196.721621</ele>
        <time>2021-10-30T06:15:51.784Z</time>
      </trkpt>
      <trkpt lat="40.23853" lon="44.50865">
        <ele>1205.276683</ele>
        <time>2021-10-30T06:17:23.806Z</time>
      </trkpt>
      <trkpt lat="40.24013" lon="44.50675">
        <ele>1210.781553</ele>
        <time>2021-10-30T06:18:47.792Z</time>
      </trkpt>
      <trkpt lat="40.24149" lon="44.50432">
        <ele>1214.720182</ele>
        <time>2021-10-30T06:19:47.790Z</time>
      </trkpt>
      <trkpt lat="40.24228" lon="44.50192">
        <ele>1221.465861</ele>
        <time>2021-10-30T06:21:08.805Z</time>
      </trkpt>
      <trkpt lat="40.2438" lon="44.50012">
        <ele>1230.714421</ele>
        <time>2021-10-30T06:23:12.802Z</time>
      </trkpt>
      <trkpt lat="40.24565" lon="44.49935">
        <ele>1237.520765</ele>
        <time>2021-10-30T06:25:02.805Z</time>
      </trkpt>
      <trkpt lat="40.24764" lon="44.49851">
        <ele>1239.260895</ele>
        <time>2021-10-30T06:26:31.807Z</time>
      </trkpt>
      <trkpt lat="40.24977" lon="44.49766">
        <ele>1242.030508</ele>
        <time>2021-10-30T06:27:34.804Z</time>
      </trkpt>
      <trkpt lat="40.25168" lon="44.49698">
        <ele>1245.172937</ele>
        <time>2021-10-30T06:28:38.814Z</time>
      </trkpt>
      <trkpt lat="40.25376" lon="44.49604">
        <ele>1252.849786</ele>
        <time>2021-10-30T06:35:56.815Z</time>
      </trkpt>
      <trkpt lat="40.25593" lon="44.49517">
        <ele>1258.054386</ele>
        <time>2021-10-30T06:39:58.832Z</time>
      </trkpt>
      <trkpt lat="40.25794" lon="44.49435">
        <ele>1264.036669</ele>
        <time>2021-10-30T06:41:24.803Z</time>
      </trkpt>
      <trkpt lat="40.25991" lon="44.49348">
        <ele>1266.223278</ele>
        <time>2021-10-30T06:43:15.793Z</time>
      </trkpt>
      <trkpt lat="40.26193" lon="44.49257">
        <ele>1274.485701</ele>
        <time>2021-10-30T06:44:42.792Z</time>
      </trkpt>
      <trkpt lat="40.26376" lon="44.49174">
        <ele>1291.059519</ele>
        <time>2021-10-30T06:47:03.812Z</time>
      </trkpt>
      <trkpt lat="40.2658" lon="44.49099">
        <ele>1300.033975</ele>
        <time>2021-10-30T06:49:12.805Z</time>
      </trkpt>
      <trkpt lat="40.26786" lon="44.49043">
        <ele>1304.571891</ele>
        <time>2021-10-30T06:50:30.835Z</time>
      </trkpt>
      <trkpt lat="40.26983" lon="44.48944">
        <ele>1308.739278</ele>
        <time>2021-10-30T06:51:25.807Z</time>
      </trkpt>
      <trkpt lat="40.2719" lon="44.48841">
        <ele>1316.881066</ele>
        <time>2021-10-30T06:52:55.806Z</time>
      </trkpt>
      <trkpt lat="40.27379" lon="44.48727">
        <ele>1322.705513</ele>
        <time>2021-10-30T06:54:02.820Z</time>
      </trkpt>
      <trkpt lat="40.27576" lon="44.48616">
        <ele>1323.371319</ele>
        <time>2021-10-30T06:54:54.805Z</time>
      </trkpt>
      <trkpt lat="40.27782" lon="44.48494">
        <ele>1325.843404</ele>
        <time>2021-10-30T06:56:04.790Z</time>
      </trkpt>
      <trkpt lat="40.27991" lon="44.48375">
        <ele>1323.437942</ele>
        <time>2021-10-30T06:57:04.798Z</time>
      </trkpt>
      <trkpt lat="40.28186" lon="44.48261">
        <ele>1316.858641</ele>
        <time>2021-10-30T06:57:48.786Z</time>
      </trkpt>
      <trkpt lat="40.28408" lon="44.48141">
        <ele>1313.371587</ele>
        <time>2021-10-30T06:58:43.817Z</time>
      </trkpt>
      <trkpt lat="40.28624" lon="44.48016">
        <ele>1312.932557</ele>
        <time>2021-10-30T06:59:38.802Z</time>
      </trkpt>
      <trkpt lat="40.28812" lon="44.47906">
        <ele>1329.003307</ele>
        <time>2021-10-30T07:00:59.803Z</time>
      </trkpt>
      <trkpt lat="40.29007" lon="44.4779">
        <ele>1332.53732</ele>
        <time>2021-10-30T07:02:37.825Z</time>
      </trkpt>
      <trkpt lat="40.29209" lon="44.47712">
        <ele>1326.711788</ele>
        <time>2021-10-30T07:03:44.792Z</time>
      </trkpt>
      <trkpt lat="40.29418" lon="44.47642">
        <ele>1328.615202</ele>
        <time>2021-10-30T07:04:44.805Z</time>
      </trkpt>
      <trkpt lat="40.29632" lon="44.4757">
        <ele>1333.069862</ele>
        <time>2021-10-30T07:05:48.828Z</time>
      </trkpt>
      <trkpt lat="40.29858" lon="44.47495">
        <ele>1335.225885</ele>
        <time>2021-10-30T07:06:48.821Z</time>
      </trkpt>
      <trkpt lat="40.301" lon="44.47417">
        <ele>1334.774807</ele>
        <time>2021-10-30T07:07:51.821Z</time>
      </trkpt>
      <trkpt lat="40.3033" lon="44.4734">
        <ele>1337.586445</ele>
        <time>2021-10-30T07:08:51.826Z</time>
      </trkpt>
      <trkpt lat="40.30556" lon="44.47261">
        <ele>1341.793308</ele>
        <time>2021-10-30T07:09:51.806Z</time>
      </trkpt>
      <trkpt lat="40.30763" lon="44.47203">
        <ele>1344.79891</ele>
        <time>2021-10-30T07:10:54.806Z</time>
      </trkpt>
      <trkpt lat="40.30971" lon="44.47248">
        <ele>1339.177438</ele>
        <time>2021-10-30T07:11:40.830Z</time>
      </trkpt>
      <trkpt lat="40.31181" lon="44.4732">
        <ele>1336.2018</ele>
        <time>2021-10-30T07:12:29.813Z</time>
      </trkpt>
      <trkpt lat="40.3141" lon="44.47405">
        <ele>1337.564368</ele>
        <time>2021-10-30T07:13:32.836Z</time>
      </trkpt>
      <trkpt lat="40.31622" lon="44.47453">
        <ele>1346.35619</ele>
        <time>2021-10-30T07:14:32.810Z</time>
      </trkpt>
      <trkpt lat="40.31844" lon="44.47491">
        <ele>1352.098991</ele>
        <time>2021-10-30T07:15:32.802Z</time>
      </trkpt>
      <trkpt lat="40.32005" lon="44.47656">
        <ele>1352.869391</ele>
        <time>2021-10-30T07:16:40.835Z</time>
      </trkpt>
      <trkpt lat="40.32039" lon="44.47917">
        <ele>1353.929668</ele>
        <time>2021-10-30T07:17:47.843Z</time>
      </trkpt>
      <trkpt lat="40.32113" lon="44.48177">
        <ele>1355.981332</ele>
        <time>2021-10-30T07:18:53.795Z</time>
      </trkpt>
      <trkpt lat="40.32256" lon="44.48393">
        <ele>1361.633088</ele>
        <time>2021-10-30T07:20:07.818Z</time>
      </trkpt>
      <trkpt lat="40.32311" lon="44.48643">
        <ele>1371.45663</ele>
        <time>2021-10-30T07:21:34.812Z</time>
      </trkpt>
      <trkpt lat="40.3242" lon="44.48847">
        <ele>1374.227377</ele>
        <time>2021-10-30T07:23:02.814Z</time>
      </trkpt>
      <trkpt lat="40.32598" lon="44.4901">
        <ele>1372.690667</ele>
        <time>2021-10-30T07:24:23.807Z</time>
      </trkpt>
      <trkpt lat="40.32772" lon="44.49167">
        <ele>1376.114153</ele>
        <time>2021-10-30T07:25:37.817Z</time>
      </trkpt>
      <trkpt lat="40.32946" lon="44.49318">
        <ele>1381.874871</ele>
        <time>2021-10-30T07:26:51.806Z</time>
      </trkpt>
      <trkpt lat="40.33129" lon="44.49484">
        <ele>1387.088462</ele>
        <time>2021-10-30T07:28:18.812Z</time>
      </trkpt>
      <trkpt lat="40.33297" lon="44.49639">
        <ele>1393.677899</ele>
        <time>2021-10-30T07:29:43.813Z</time>
      </trkpt>
      <trkpt lat="40.33468" lon="44.49799">
        <ele>1395.047906</ele>
        <time>2021-10-30T07:31:09.803Z</time>
      </trkpt>
      <trkpt lat="40.33623" lon="44.49977">
        <ele>1398.642925</ele>
        <time>2021-10-30T07:32:22.815Z</time>
      </trkpt>
      <trkpt lat="40.33782" lon="44.50155">
        <ele>1409.56017</ele>
        <time>2021-10-30T07:33:55.854Z</time>
      </trkpt>
      <trkpt lat="40.3394" lon="44.50332">
        <ele>1418.943441</ele>
        <time>2021-10-30T07:35:42.827Z</time>
      </trkpt>
      <trkpt lat="40.34092" lon="44.50504">
        <ele>1429.188578</ele>
        <time>2021-10-30T07:37:42.827Z</time>
      </trkpt>
      <trkpt lat="40.34246" lon="44.50661">
        <ele>1443.534144</ele>
        <time>2021-10-30T07:39:49.813Z</time>
      </trkpt>
      <trkpt lat="40.34429" lon="44.508">
        <ele>1457.845103</ele>
        <time>2021-10-30T07:41:39.827Z</time>
      </trkpt>
      <trkpt lat="40.3461" lon="44.50937">
        <ele>1461.908792</ele>
        <time>2021-10-30T07:43:00.825Z</time>
      </trkpt>
      <trkpt lat="40.34781" lon="44.51071">
        <ele>1461.857491</ele>
        <time>2021-10-30T07:44:25.861Z</time>
      </trkpt>
      <trkpt lat="40.34955" lon="44.51255">
        <ele>1463.781027</ele>
        <time>2021-10-30T07:45:48.810Z</time>
      </trkpt>
      <trkpt lat="40.35111" lon="44.51421">
        <ele>1466.657027</ele>
        <time>2021-10-30T07:46:55.825Z</time>
      </trkpt>
      <trkpt lat="40.35278" lon="44.51602">
        <ele>1470.976249</ele>
        <time>2021-10-30T07:48:11.846Z</time>
      </trkpt>
      <trkpt lat="40.35421" lon="44.51797">
        <ele>1478.193764</ele>
        <time>2021-10-30T07:49:39.821Z</time>
      </trkpt>
      <trkpt lat="40.35551" lon="44.51995">
        <ele>1483.280878</ele>
        <time>2021-10-30T07:51:14.797Z</time>
      </trkpt>
      <trkpt lat="40.35686" lon="44.52199">
        <ele>1490.747649</ele>
        <time>2021-10-30T07:56:55.839Z</time>
      </trkpt>
      <trkpt lat="40.35793" lon="44.52437">
        <ele>1501.385454</ele>
        <time>2021-10-30T07:58:45.798Z</time>
      </trkpt>
      <trkpt lat="40.35888" lon="44.52673">
        <ele>1497.40435</ele>
        <time>2021-10-30T08:00:38.817Z</time>
      </trkpt>
      <trkpt lat="40.36022" lon="44.52872">
        <ele>1494.901443</ele>
        <time>2021-10-30T08:02:16.820Z</time>
      </trkpt>
      <trkpt lat="40.36175" lon="44.53063">
        <ele>1501.279639</ele>
        <time>2021-10-30T08:03:43.820Z</time>
      </trkpt>
      <trkpt lat="40.3634" lon="44.53223">
        <ele>1506.396563</ele>
        <time>2021-10-30T08:05:03.822Z</time>
      </trkpt>
      <trkpt lat="40.36498" lon="44.53372">
        <ele>1515.871522</ele>
        <time>2021-10-30T08:06:23.822Z</time>
      </trkpt>
      <trkpt lat="40.36671" lon="44.53537">
        <ele>1527.79241</ele>
        <time>2021-10-30T08:08:03.827Z</time>
      </trkpt>
      <trkpt lat="40.36835" lon="44.53694">
        <ele>1538.029565</ele>
        <time>2021-10-30T08:11:03.822Z</time>
      </trkpt>
      <trkpt lat="40.36997" lon="44.53855">
        <ele>1549.503479</ele>
        <time>2021-10-30T08:13:14.839Z</time>
      </trkpt>
      <trkpt lat="40.37184" lon="44.53931">
        <ele>1568.818057</ele>
        <time>2021-10-30T08:15:25.814Z</time>
      </trkpt>
      <trkpt lat="40.37378" lon="44.53999">
        <ele>1580.812444</ele>
        <time>2021-10-30T08:17:23.830Z</time>
      </trkpt>
      <trkpt lat="40.37541" lon="44.54159">
        <ele>1587.091123</ele>
        <time>2021-10-30T08:19:11.826Z</time>
      </trkpt>
      <trkpt lat="40.37683" lon="44.54346">
        <ele>1597.154542</ele>
        <time>2021-10-30T08:20:55.820Z</time>
      </trkpt>
      <trkpt lat="40.3786" lon="44.54425">
        <ele>1606.696898</ele>
        <time>2021-10-30T08:22:37.839Z</time>
      </trkpt>
      <trkpt lat="40.38075" lon="44.54386">
        <ele>1612.877018</ele>
        <time>2021-10-30T08:24:10.825Z</time>
      </trkpt>
      <trkpt lat="40.38276" lon="44.54384">
        <ele>1618.470032</ele>
        <time>2021-10-30T08:25:35.833Z</time>
      </trkpt>
      <trkpt lat="40.38477" lon="44.54427">
        <ele>1621.867862</ele>
        <time>2021-10-30T08:27:04.837Z</time>
      </trkpt>
      <trkpt lat="40.38691" lon="44.54413">
        <ele>1625.369049</ele>
        <time>2021-10-30T08:28:24.856Z</time>
      </trkpt>
      <trkpt lat="40.38893" lon="44.54376">
        <ele>1627.774262</ele>
        <time>2021-10-30T08:29:32.842Z</time>
      </trkpt>
      <trkpt lat="40.39092" lon="44.54384">
        <ele>1631.190551</ele>
        <time>2021-10-30T08:30:37.900Z</time>
      </trkpt>
      <trkpt lat="40.39322" lon="44.54407">
        <ele>1636.309372</ele>
        <time>2021-10-30T08:32:01.840Z</time>
      </trkpt>
      <trkpt lat="40.39515" lon="44.54452">
        <ele>1638.383</ele>
        <time>2021-10-30T08:33:04.825Z</time>
      </trkpt>
      <trkpt lat="40.39719" lon="44.54526">
        <ele>1642.058446</ele>
        <time>2021-10-30T08:34:18.836Z</time>
      </trkpt>
      <trkpt lat="40.399" lon="44.54457">
        <ele>1649.828635</ele>
        <time>2021-10-30T08:35:36.821Z</time>
      </trkpt>
      <trkpt lat="40.4002" lon="44.54227">
        <ele>1658.259881</ele>
        <time>2021-10-30T08:36:53.843Z</time>
      </trkpt>
      <trkpt lat="40.40144" lon="44.54024">
        <ele>1667.993776</ele>
        <time>2021-10-30T08:38:25.836Z</time>
      </trkpt>
      <trkpt lat="40.40279" lon="44.53921">
        <ele>1679.86666</ele>
        <time>2021-10-30T08:44:21.845Z</time>
      </trkpt>
      <trkpt lat="40.40427" lon="44.54032">
        <ele>1696.489754</ele>
        <time>2021-10-30T08:47:05.841Z</time>
      </trkpt>
      <trkpt lat="40.40516" lon="44.538">
        <ele>1714.092688</ele>
        <time>2021-10-30T08:49:19.834Z</time>
      </trkpt>
      <trkpt lat="40.40644" lon="44.53594">
        <ele>1713.389287</ele>
        <time>2021-10-30T08:51:22.833Z</time>
      </trkpt>
      <trkpt lat="40.40818" lon="44.53432">
        <ele>1712.534234</ele>
        <time>2021-10-30T08:52:44.831Z</time>
      </trkpt>
      <trkpt lat="40.41022" lon="44.53269">
        <ele>1711.763608</ele>
        <time>2021-10-30T08:53:37.831Z</time>
      </trkpt>
      <trkpt lat="40.41204" lon="44.53156">
        <ele>1720.100576</ele>
        <time>2021-10-30T08:55:21.842Z</time>
      </trkpt>
      <trkpt lat="40.41381" lon="44.53043">
        <ele>1731.375865</ele>
        <time>2021-10-30T08:57:20.846Z</time>
      </trkpt>
      <trkpt lat="40.41565" lon="44.52919">
        <ele>1743.987451</ele>
        <time>2021-10-30T08:59:28.841Z</time>
      </trkpt>
      <trkpt lat="40.41712" lon="44.52739">
        <ele>1760.367104</ele>
        <time>2021-10-30T09:18:57.865Z</time>
      </trkpt>
      <trkpt lat="40.41847" lon="44.5256">
        <ele>1778.697494</ele>
        <time>2021-10-30T09:21:07.882Z</time>
      </trkpt>
      <trkpt lat="40.41991" lon="44.52367">
        <ele>1798.325389</ele>
        <time>2021-10-30T09:23:30.834Z</time>
      </trkpt>
      <trkpt lat="40.42129" lon="44.52188">
        <ele>1810.409548</ele>
        <time>2021-10-30T09:25:46.850Z</time>
      </trkpt>
      <trkpt lat="40.42267" lon="44.52008">
        <ele>1826.260479</ele>
        <time>2021-10-30T09:28:06.853Z</time>
      </trkpt>
      <trkpt lat="40.42411" lon="44.51815">
        <ele>1845.019026</ele>
        <time>2021-10-30T09:32:23.842Z</time>
      </trkpt>
      <trkpt lat="40.42534" lon="44.51613">
        <ele>1860.233721</ele>
        <time>2021-10-30T09:34:39.857Z</time>
      </trkpt>
      <trkpt lat="40.42646" lon="44.51408">
        <ele>1872.318719</ele>
        <time>2021-10-30T09:36:46.833Z</time>
      </trkpt>
      <trkpt lat="40.42765" lon="44.51189">
        <ele>1882.641166</ele>
        <time>2021-10-30T09:38:41.841Z</time>
      </trkpt>
      <trkpt lat="40.42879" lon="44.50979">
        <ele>1885.756445</ele>
        <time>2021-10-30T09:40:23.852Z</time>
      </trkpt>
      <trkpt lat="40.43" lon="44.50755">
        <ele>1878.944771</ele>
        <time>2021-10-30T09:41:44.831Z</time>
      </trkpt>
      <trkpt lat="40.43129" lon="44.5052">
        <ele>1877.661372</ele>
        <time>2021-10-30T09:42:53.839Z</time>
      </trkpt>
      <trkpt lat="40.43249" lon="44.50302">
        <ele>1877.590865</ele>
        <time>2021-10-30T09:43:54.854Z</time>
      </trkpt>
      <trkpt lat="40.43368" lon="44.50082">
        <ele>1877.263522</ele>
        <time>2021-10-30T09:44:54.840Z</time>
      </trkpt>
      <trkpt lat="40.43504" lon="44.49835">
        <ele>1882.998343</ele>
        <time>2021-10-30T09:45:48.847Z</time>
      </trkpt>
      <trkpt lat="40.43618" lon="44.4963">
        <ele>1897.422304</ele>
        <time>2021-10-30T09:48:02.837Z</time>
      </trkpt>
      <trkpt lat="40.43735" lon="44.49411">
        <ele>1900.726841</ele>
        <time>2021-10-30T09:50:10.850Z</time>
      </trkpt>
      <trkpt lat="40.43861" lon="44.49189">
        <ele>1900.593586</ele>
        <time>2021-10-30T09:51:25.837Z</time>
      </trkpt>
      <trkpt lat="40.43978" lon="44.48965">
        <ele>1901.151009</ele>
        <time>2021-10-30T09:52:29.852Z</time>
      </trkpt>
      <trkpt lat="40.44106" lon="44.48737">
        <ele>1903.684865</ele>
        <time>2021-10-30T09:54:06.854Z</time>
      </trkpt>
      <trkpt lat="40.44222" lon="44.48521">
        <ele>1912.425839</ele>
        <time>2021-10-30T09:55:39.834Z</time>
      </trkpt>
      <trkpt lat="40.44344" lon="44.48321">
        <ele>1925.85355</ele>
        <time>2021-10-30T09:57:57.879Z</time>
      </trkpt>
      <trkpt lat="40.44506" lon="44.4811">
        <ele>1930.617795</ele>
        <time>2021-10-30T09:59:25.853Z</time>
      </trkpt>
      <trkpt lat="40.44659" lon="44.47943">
        <ele>1920.038297</ele>
        <time>2021-10-30T10:00:08.854Z</time>
      </trkpt>
      <trkpt lat="40.44822" lon="44.47767">
        <ele>1915.465238</ele>
        <time>2021-10-30T10:00:51.851Z</time>
      </trkpt>
      <trkpt lat="40.45036" lon="44.47527">
        <ele>1916.060817</ele>
        <time>2021-10-30T10:01:33.847Z</time>
      </trkpt>
      <trkpt lat="40.45127" lon="44.47143">
        <ele>1923.806767</ele>
        <time>2021-10-30T10:02:13.833Z</time>
      </trkpt>
      <trkpt lat="40.45155" lon="44.46779">
        <ele>1920.224944</ele>
        <time>2021-10-30T10:02:53.868Z</time>
      </trkpt>
      <trkpt lat="40.45203" lon="44.46473">
        <ele>1907.40959</ele>
        <time>2021-10-30T10:03:51.844Z</time>
      </trkpt>
      <trkpt lat="40.45348" lon="44.46226">
        <ele>1892.953156</ele>
        <time>2021-10-30T10:04:48.857Z</time>
      </trkpt>
      <trkpt lat="40.45459" lon="44.45988">
        <ele>1896.923776</ele>
        <time>2021-10-30T10:05:46.856Z</time>
      </trkpt>
      <trkpt lat="40.45498" lon="44.45708">
        <ele>1903.815436</ele>
        <time>2021-10-30T10:06:29.848Z</time>
      </trkpt>
      <trkpt lat="40.4553" lon="44.45415">
        <ele>1907.879712</ele>
        <time>2021-10-30T10:07:21.853Z</time>
      </trkpt>
      <trkpt lat="40.45563" lon="44.45161">
        <ele>1908.096529</ele>
        <time>2021-10-30T10:08:01.887Z</time>
      </trkpt>
      <trkpt lat="40.45628" lon="44.44854">
        <ele>1895.921507</ele>
        <time>2021-10-30T10:08:43.853Z</time>
      </trkpt>
      <trkpt lat="40.45686" lon="44.44592">
        <ele>1877.688572</ele>
        <time>2021-10-30T10:09:23.855Z</time>
      </trkpt>
      <trkpt lat="40.456" lon="44.44355">
        <ele>1847.636228</ele>
        <time>2021-10-30T10:10:03.832Z</time>
      </trkpt>
      <trkpt lat="40.45384" lon="44.44345">
        <ele>1819.165975</ele>
        <time>2021-10-30T10:10:47.842Z</time>
      </trkpt>
      <trkpt lat="40.45183" lon="44.44266">
        <ele>1801.004395</ele>
        <time>2021-10-30T10:11:29.859Z</time>
      </trkpt>
      <trkpt lat="40.451" lon="44.44011">
        <ele>1797.312561</ele>
        <time>2021-10-30T10:12:14.880Z</time>
      </trkpt>
      <trkpt lat="40.45273" lon="44.43953">
        <ele>1801.421848</ele>
        <time>2021-10-30T10:13:47.841Z</time>
      </trkpt>
      <trkpt lat="40.45466" lon="44.4395">
        <ele>1812.61207</ele>
        <time>2021-10-30T10:15:54.845Z</time>
      </trkpt>
      <trkpt lat="40.4567" lon="44.43939">
        <ele>1829.744594</ele>
        <time>2021-10-30T10:18:20.841Z</time>
      </trkpt>
      <trkpt lat="40.45868" lon="44.43936">
        <ele>1842.125006</ele>
        <time>2021-10-30T10:20:31.855Z</time>
      </trkpt>
      <trkpt lat="40.46067" lon="44.43894">
        <ele>1842.279801</ele>
        <time>2021-10-30T10:21:43.852Z</time>
      </trkpt>
      <trkpt lat="40.46252" lon="44.43771">
        <ele>1850.752509</ele>
        <time>2021-10-30T10:22:51.858Z</time>
      </trkpt>
      <trkpt lat="40.46341" lon="44.43538">
        <ele>1865.863714</ele>
        <time>2021-10-30T10:24:41.860Z</time>
      </trkpt>
      <trkpt lat="40.46419" lon="44.43293">
        <ele>1866.795888</ele>
        <time>2021-10-30T10:26:17.870Z</time>
      </trkpt>
      <trkpt lat="40.4656" lon="44.42983">
        <ele>1859.305147</ele>
        <time>2021-10-30T10:27:03.853Z</time>
      </trkpt>
      <trkpt lat="40.46726" lon="44.42725">
        <ele>1852.537571</ele>
        <time>2021-10-30T10:27:42.846Z</time>
      </trkpt>
      <trkpt lat="40.46859" lon="44.42506">
        <ele>1858.708319</ele>
        <time>2021-10-30T10:28:43.852Z</time>
      </trkpt>
      <trkpt lat="40.46975" lon="44.42265">
        <ele>1858.779487</ele>
        <time>2021-10-30T10:30:07.846Z</time>
      </trkpt>
      <trkpt lat="40.47009" lon="44.41993">
        <ele>1853.830598</ele>
        <time>2021-10-30T10:31:27.868Z</time>
      </trkpt>
      <trkpt lat="40.47056" lon="44.41729">
        <ele>1859.589201</ele>
        <time>2021-10-30T10:32:42.858Z</time>
      </trkpt>
      <trkpt lat="40.47161" lon="44.41482">
        <ele>1863.620556</ele>
        <time>2021-10-30T10:33:46.858Z</time>
      </trkpt>
      <trkpt lat="40.47243" lon="44.41223">
        <ele>1854.250872</ele>
        <time>2021-10-30T10:34:58.894Z</time>
      </trkpt>
      <trkpt lat="40.47273" lon="44.40947">
        <ele>1851.721889</ele>
        <time>2021-10-30T10:36:18.855Z</time>
      </trkpt>
      <trkpt lat="40.47342" lon="44.40674">
        <ele>1858.636893</ele>
        <time>2021-10-30T10:37:42.854Z</time>
      </trkpt>
      <trkpt lat="40.47465" lon="44.40468">
        <ele>1875.785916</ele>
        <time>2021-10-30T10:39:32.860Z</time>
      </trkpt>
      <trkpt lat="40.4754" lon="44.40207">
        <ele>1887.343024</ele>
        <time>2021-10-30T10:41:20.871Z</time>
      </trkpt>
      <trkpt lat="40.47614" lon="44.39945">
        <ele>1884.458493</ele>
        <time>2021-10-30T10:42:21.854Z</time>
      </trkpt>
      <trkpt lat="40.47713" lon="44.3962">
        <ele>1875.614083</ele>
        <time>2021-10-30T10:43:01.855Z</time>
      </trkpt>
      <trkpt lat="40.47845" lon="44.39383">
        <ele>1878.849684</ele>
        <time>2021-10-30T10:44:11.886Z</time>
      </trkpt>
      <trkpt lat="40.47968" lon="44.39171">
        <ele>1889.292114</ele>
        <time>2021-10-30T10:45:35.900Z</time>
      </trkpt>
      <trkpt lat="40.48091" lon="44.38959">
        <ele>1895.004358</ele>
        <time>2021-10-30T10:47:07.858Z</time>
      </trkpt>
      <trkpt lat="40.48216" lon="44.38727">
        <ele>1888.247345</ele>
        <time>2021-10-30T10:48:33.865Z</time>
      </trkpt>
      <trkpt lat="40.4832" lon="44.38515">
        <ele>1884.123056</ele>
        <time>2021-10-30T10:50:02.874Z</time>
      </trkpt>
      <trkpt lat="40.4842" lon="44.38293">
        <ele>1887.100988</ele>
        <time>2021-10-30T10:51:24.862Z</time>
      </trkpt>
      <trkpt lat="40.48509" lon="44.38053">
        <ele>1881.426148</ele>
        <time>2021-10-30T10:52:54.846Z</time>
      </trkpt>
      <trkpt lat="40.48609" lon="44.37828">
        <ele>1889.292965</ele>
        <time>2021-10-30T10:54:37.854Z</time>
      </trkpt>
      <trkpt lat="40.48665" lon="44.37575">
        <ele>1880.865228</ele>
        <time>2021-10-30T10:56:11.855Z</time>
      </trkpt>
      <trkpt lat="40.48689" lon="44.37306">
        <ele>1883.036151</ele>
        <time>2021-10-30T10:58:05.863Z</time>
      </trkpt>
      <trkpt lat="40.48772" lon="44.37066">
        <ele>1882.251357</ele>
        <time>2021-10-30T10:59:52.843Z</time>
      </trkpt>
      <trkpt lat="40.48831" lon="44.36806">
        <ele>1891.864605</ele>
        <time>2021-10-30T11:05:04.900Z</time>
      </trkpt>
      <trkpt lat="40.48835" lon="44.36534">
        <ele>1902.367677</ele>
        <time>2021-10-30T11:06:36.857Z</time>
      </trkpt>
      <trkpt lat="40.4883" lon="44.36269">
        <ele>1916.340696</ele>
        <time>2021-10-30T11:08:23.846Z</time>
      </trkpt>
      <trkpt lat="40.48848" lon="44.36009">
        <ele>1930.917151</ele>
        <time>2021-10-30T11:10:00.886Z</time>
      </trkpt>
      <trkpt lat="40.48838" lon="44.35742">
        <ele>1935.870339</ele>
        <time>2021-10-30T11:11:52.855Z</time>
      </trkpt>
      <trkpt lat="40.48661" lon="44.35763">
        <ele>1945.460192</ele>
        <time>2021-10-30T11:12:59.882Z</time>
      </trkpt>
      <trkpt lat="40.48454" lon="44.35801">
        <ele>1953.599972</ele>
        <time>2021-10-30T11:13:45.862Z</time>
      </trkpt>
      <trkpt lat="40.48241" lon="44.35856">
        <ele>1957.509777</ele>
        <time>2021-10-30T11:14:39.870Z</time>
      </trkpt>
      <trkpt lat="40.48227" lon="44.3576">
        <ele>1957.509777</ele>
        <time>2021-10-30T11:16:24.605Z</time>
      </trkpt>
    </trkseg>
  </trk>
  <trk>
    <name><![CDATA[Tour d'Europe: étape 490]]></name>
    <extensions>
      <line xmlns="http://www.topografix.com/GPX/gpx_style/0/2">
        <color>0000FF</color>
        <width>4</width>
      </line>
    </extensions>
    <trkseg>
      <trkpt lat="40.48216" lon="44.35759">
        <ele>1977.410921</ele>
        <time>2021-10-31T05:16:07.961Z</time>
      </trkpt>
      <trkpt lat="40.48234" lon="44.35858">
        <ele>1977.229482</ele>
        <time>2021-10-31T05:41:33.889Z</time>
      </trkpt>
      <trkpt lat="40.48435" lon="44.35805">
        <ele>1975.008408</ele>
        <time>2021-10-31T05:42:45.864Z</time>
      </trkpt>
      <trkpt lat="40.48642" lon="44.35763">
        <ele>1978.86378</ele>
        <time>2021-10-31T05:43:44.903Z</time>
      </trkpt>
      <trkpt lat="40.48846" lon="44.35699">
        <ele>1982.345367</ele>
        <time>2021-10-31T05:44:56.876Z</time>
      </trkpt>
      <trkpt lat="40.49079" lon="44.35632">
        <ele>1981.112366</ele>
        <time>2021-10-31T05:45:55.862Z</time>
      </trkpt>
      <trkpt lat="40.49312" lon="44.35639">
        <ele>1976.697962</ele>
        <time>2021-10-31T05:46:47.864Z</time>
      </trkpt>
      <trkpt lat="40.4952" lon="44.35643">
        <ele>1971.3149</ele>
        <time>2021-10-31T05:47:27.864Z</time>
      </trkpt>
      <trkpt lat="40.49731" lon="44.35681">
        <ele>1965.031649</ele>
        <time>2021-10-31T05:48:11.875Z</time>
      </trkpt>
      <trkpt lat="40.49936" lon="44.35848">
        <ele>1957.68719</ele>
        <time>2021-10-31T05:48:51.881Z</time>
      </trkpt>
      <trkpt lat="40.50138" lon="44.36011">
        <ele>1950.368158</ele>
        <time>2021-10-31T05:49:31.842Z</time>
      </trkpt>
      <trkpt lat="40.50189" lon="44.36299">
        <ele>1941.225454</ele>
        <time>2021-10-31T05:50:11.863Z</time>
      </trkpt>
      <trkpt lat="40.50308" lon="44.36572">
        <ele>1934.100934</ele>
        <time>2021-10-31T05:50:51.886Z</time>
      </trkpt>
      <trkpt lat="40.50485" lon="44.3678">
        <ele>1928.216959</ele>
        <time>2021-10-31T05:51:31.864Z</time>
      </trkpt>
      <trkpt lat="40.50689" lon="44.36981">
        <ele>1918.522809</ele>
        <time>2021-10-31T05:52:11.836Z</time>
      </trkpt>
      <trkpt lat="40.50891" lon="44.37175">
        <ele>1907.790761</ele>
        <time>2021-10-31T05:52:51.859Z</time>
      </trkpt>
      <trkpt lat="40.51069" lon="44.37357">
        <ele>1902.030548</ele>
        <time>2021-10-31T05:53:29.845Z</time>
      </trkpt>
      <trkpt lat="40.51226" lon="44.37648">
        <ele>1900.067817</ele>
        <time>2021-10-31T05:54:11.875Z</time>
      </trkpt>
      <trkpt lat="40.51367" lon="44.37916">
        <ele>1896.531889</ele>
        <time>2021-10-31T05:54:51.908Z</time>
      </trkpt>
      <trkpt lat="40.51506" lon="44.38132">
        <ele>1897.138066</ele>
        <time>2021-10-31T05:55:50.854Z</time>
      </trkpt>
      <trkpt lat="40.51674" lon="44.38336">
        <ele>1896.098747</ele>
        <time>2021-10-31T05:56:40.862Z</time>
      </trkpt>
      <trkpt lat="40.51773" lon="44.3859">
        <ele>1893.800551</ele>
        <time>2021-10-31T05:57:45.873Z</time>
      </trkpt>
      <trkpt lat="40.51731" lon="44.38862">
        <ele>1890.90392</ele>
        <time>2021-10-31T05:58:31.867Z</time>
      </trkpt>
      <trkpt lat="40.51817" lon="44.39014">
        <ele>1895.00344</ele>
        <time>2021-10-31T05:59:28.888Z</time>
      </trkpt>
      <trkpt lat="40.5205" lon="44.3903">
        <ele>1894.251939</ele>
        <time>2021-10-31T06:00:08.890Z</time>
      </trkpt>
      <trkpt lat="40.52254" lon="44.39049">
        <ele>1902.251736</ele>
        <time>2021-10-31T06:01:30.879Z</time>
      </trkpt>
      <trkpt lat="40.52452" lon="44.39063">
        <ele>1913.917244</ele>
        <time>2021-10-31T06:03:32.873Z</time>
      </trkpt>
      <trkpt lat="40.52649" lon="44.39007">
        <ele>1924.006158</ele>
        <time>2021-10-31T06:05:07.908Z</time>
      </trkpt>
      <trkpt lat="40.52829" lon="44.3891">
        <ele>1932.78102</ele>
        <time>2021-10-31T06:06:47.900Z</time>
      </trkpt>
      <trkpt lat="40.53013" lon="44.38812">
        <ele>1940.709538</ele>
        <time>2021-10-31T06:08:30.881Z</time>
      </trkpt>
      <trkpt lat="40.53219" lon="44.38794">
        <ele>1944.761264</ele>
        <time>2021-10-31T06:09:44.887Z</time>
      </trkpt>
      <trkpt lat="40.5341" lon="44.38783">
        <ele>1947.197069</ele>
        <time>2021-10-31T06:10:44.885Z</time>
      </trkpt>
      <trkpt lat="40.53606" lon="44.38735">
        <ele>1950.28905</ele>
        <time>2021-10-31T06:11:50.903Z</time>
      </trkpt>
      <trkpt lat="40.53802" lon="44.38619">
        <ele>1951.978095</ele>
        <time>2021-10-31T06:12:57.881Z</time>
      </trkpt>
      <trkpt lat="40.54047" lon="44.3845">
        <ele>1944.4897</ele>
        <time>2021-10-31T06:13:37.885Z</time>
      </trkpt>
      <trkpt lat="40.54214" lon="44.3821">
        <ele>1940.069133</ele>
        <time>2021-10-31T06:14:09.887Z</time>
      </trkpt>
      <trkpt lat="40.54355" lon="44.38009">
        <ele>1944.043994</ele>
        <time>2021-10-31T06:15:09.922Z</time>
      </trkpt>
      <trkpt lat="40.545" lon="44.37842">
        <ele>1948.837446</ele>
        <time>2021-10-31T06:16:09.903Z</time>
      </trkpt>
      <trkpt lat="40.54645" lon="44.37679">
        <ele>1951.578539</ele>
        <time>2021-10-31T06:17:09.931Z</time>
      </trkpt>
      <trkpt lat="40.54796" lon="44.37509">
        <ele>1955.098281</ele>
        <time>2021-10-31T06:18:09.917Z</time>
      </trkpt>
      <trkpt lat="40.54991" lon="44.37362">
        <ele>1957.846656</ele>
        <time>2021-10-31T06:19:09.890Z</time>
      </trkpt>
      <trkpt lat="40.55158" lon="44.37222">
        <ele>1964.359485</ele>
        <time>2021-10-31T06:20:09.893Z</time>
      </trkpt>
      <trkpt lat="40.5533" lon="44.37062">
        <ele>1970.991779</ele>
        <time>2021-10-31T06:21:13.877Z</time>
      </trkpt>
      <trkpt lat="40.55522" lon="44.36921">
        <ele>1976.22082</ele>
        <time>2021-10-31T06:22:31.862Z</time>
      </trkpt>
      <trkpt lat="40.55705" lon="44.36788">
        <ele>1979.041422</ele>
        <time>2021-10-31T06:23:42.878Z</time>
      </trkpt>
      <trkpt lat="40.55905" lon="44.36695">
        <ele>1974.067638</ele>
        <time>2021-10-31T06:24:27.878Z</time>
      </trkpt>
      <trkpt lat="40.56116" lon="44.36611">
        <ele>1972.895215</ele>
        <time>2021-10-31T06:25:08.873Z</time>
      </trkpt>
      <trkpt lat="40.56334" lon="44.36524">
        <ele>1974.29134</ele>
        <time>2021-10-31T06:25:55.908Z</time>
      </trkpt>
      <trkpt lat="40.56542" lon="44.3644">
        <ele>1976.342474</ele>
        <time>2021-10-31T06:26:38.885Z</time>
      </trkpt>
      <trkpt lat="40.5675" lon="44.36344">
        <ele>1978.219584</ele>
        <time>2021-10-31T06:27:37.883Z</time>
      </trkpt>
      <trkpt lat="40.56973" lon="44.36225">
        <ele>1979.350308</ele>
        <time>2021-10-31T06:28:36.874Z</time>
      </trkpt>
      <trkpt lat="40.57171" lon="44.3612">
        <ele>1979.417225</ele>
        <time>2021-10-31T06:29:26.891Z</time>
      </trkpt>
      <trkpt lat="40.57414" lon="44.36007">
        <ele>1973.444489</ele>
        <time>2021-10-31T06:30:06.896Z</time>
      </trkpt>
      <trkpt lat="40.5761" lon="44.35982">
        <ele>1968.913215</ele>
        <time>2021-10-31T06:40:48.876Z</time>
      </trkpt>
      <trkpt lat="40.57897" lon="44.35956">
        <ele>1957.210276</ele>
        <time>2021-10-31T06:41:28.887Z</time>
      </trkpt>
      <trkpt lat="40.58217" lon="44.35921">
        <ele>1940.506103</ele>
        <time>2021-10-31T06:42:08.869Z</time>
      </trkpt>
      <trkpt lat="40.58494" lon="44.35889">
        <ele>1929.0724</ele>
        <time>2021-10-31T06:42:45.890Z</time>
      </trkpt>
      <trkpt lat="40.58772" lon="44.35818">
        <ele>1920.835239</ele>
        <time>2021-10-31T06:43:25.882Z</time>
      </trkpt>
      <trkpt lat="40.59005" lon="44.35781">
        <ele>1922.06878</ele>
        <time>2021-10-31T06:44:08.895Z</time>
      </trkpt>
      <trkpt lat="40.59191" lon="44.35646">
        <ele>1914.275401</ele>
        <time>2021-10-31T06:44:59.879Z</time>
      </trkpt>
      <trkpt lat="40.59379" lon="44.35538">
        <ele>1924.471766</ele>
        <time>2021-10-31T06:46:09.912Z</time>
      </trkpt>
      <trkpt lat="40.59588" lon="44.35518">
        <ele>1933.303989</ele>
        <time>2021-10-31T06:47:27.886Z</time>
      </trkpt>
      <trkpt lat="40.59782" lon="44.35488">
        <ele>1932.895898</ele>
        <time>2021-10-31T06:48:51.892Z</time>
      </trkpt>
      <trkpt lat="40.59988" lon="44.35506">
        <ele>1933.385221</ele>
        <time>2021-10-31T06:50:13.881Z</time>
      </trkpt>
      <trkpt lat="40.60181" lon="44.35439">
        <ele>1942.525155</ele>
        <time>2021-10-31T06:51:53.895Z</time>
      </trkpt>
      <trkpt lat="40.60361" lon="44.35333">
        <ele>1956.649547</ele>
        <time>2021-10-31T06:53:58.904Z</time>
      </trkpt>
      <trkpt lat="40.60515" lon="44.35187">
        <ele>1976.415962</ele>
        <time>2021-10-31T06:56:03.902Z</time>
      </trkpt>
      <trkpt lat="40.60649" lon="44.35006">
        <ele>1986.594455</ele>
        <time>2021-10-31T06:58:08.887Z</time>
      </trkpt>
      <trkpt lat="40.60696" lon="44.34758">
        <ele>1987.553241</ele>
        <time>2021-10-31T06:59:56.918Z</time>
      </trkpt>
      <trkpt lat="40.60747" lon="44.34508">
        <ele>1993.710581</ele>
        <time>2021-10-31T07:01:30.894Z</time>
      </trkpt>
      <trkpt lat="40.60865" lon="44.34275">
        <ele>1999.139303</ele>
        <time>2021-10-31T07:02:47.883Z</time>
      </trkpt>
      <trkpt lat="40.61016" lon="44.34076">
        <ele>2000.631768</ele>
        <time>2021-10-31T07:03:32.865Z</time>
      </trkpt>
      <trkpt lat="40.61156" lon="44.33877">
        <ele>1999.268232</ele>
        <time>2021-10-31T07:04:12.878Z</time>
      </trkpt>
      <trkpt lat="40.61326" lon="44.33665">
        <ele>1994.595904</ele>
        <time>2021-10-31T07:04:52.895Z</time>
      </trkpt>
      <trkpt lat="40.61487" lon="44.33481">
        <ele>1991.302092</ele>
        <time>2021-10-31T07:05:30.893Z</time>
      </trkpt>
      <trkpt lat="40.61657" lon="44.33251">
        <ele>1985.123245</ele>
        <time>2021-10-31T07:05:59.885Z</time>
      </trkpt>
      <trkpt lat="40.61839" lon="44.33069">
        <ele>1979.762889</ele>
        <time>2021-10-31T07:06:19.927Z</time>
      </trkpt>
      <trkpt lat="40.62025" lon="44.32925">
        <ele>1989.985086</ele>
        <time>2021-10-31T07:07:28.899Z</time>
      </trkpt>
      <trkpt lat="40.62227" lon="44.3289">
        <ele>1998.656922</ele>
        <time>2021-10-31T07:09:07.908Z</time>
      </trkpt>
      <trkpt lat="40.62424" lon="44.32853">
        <ele>2008.231332</ele>
        <time>2021-10-31T07:10:50.940Z</time>
      </trkpt>
      <trkpt lat="40.62593" lon="44.3272">
        <ele>2019.161926</ele>
        <time>2021-10-31T07:12:38.930Z</time>
      </trkpt>
      <trkpt lat="40.6272" lon="44.32506">
        <ele>2020.856819</ele>
        <time>2021-10-31T07:14:06.910Z</time>
      </trkpt>
      <trkpt lat="40.6285" lon="44.32277">
        <ele>2022.353011</ele>
        <time>2021-10-31T07:15:09.900Z</time>
      </trkpt>
      <trkpt lat="40.62969" lon="44.32066">
        <ele>2027.753709</ele>
        <time>2021-10-31T07:16:22.925Z</time>
      </trkpt>
      <trkpt lat="40.63102" lon="44.3187">
        <ele>2036.875443</ele>
        <time>2021-10-31T07:17:56.910Z</time>
      </trkpt>
      <trkpt lat="40.63269" lon="44.31698">
        <ele>2041.146457</ele>
        <time>2021-10-31T07:19:09.917Z</time>
      </trkpt>
      <trkpt lat="40.63449" lon="44.3155">
        <ele>2046.042777</ele>
        <time>2021-10-31T07:20:29.929Z</time>
      </trkpt>
      <trkpt lat="40.63646" lon="44.31507">
        <ele>2054.511805</ele>
        <time>2021-10-31T07:22:13.898Z</time>
      </trkpt>
      <trkpt lat="40.63837" lon="44.31462">
        <ele>2065.761099</ele>
        <time>2021-10-31T07:24:03.900Z</time>
      </trkpt>
      <trkpt lat="40.63948" lon="44.31243">
        <ele>2076.687455</ele>
        <time>2021-10-31T07:25:55.903Z</time>
      </trkpt>
      <trkpt lat="40.64038" lon="44.30996">
        <ele>2080.031795</ele>
        <time>2021-10-31T07:27:04.898Z</time>
      </trkpt>
      <trkpt lat="40.64138" lon="44.3075">
        <ele>2083.22634</ele>
        <time>2021-10-31T07:28:21.899Z</time>
      </trkpt>
      <trkpt lat="40.64273" lon="44.30538">
        <ele>2081.847903</ele>
        <time>2021-10-31T07:29:03.902Z</time>
      </trkpt>
      <trkpt lat="40.64475" lon="44.30483">
        <ele>2082.533261</ele>
        <time>2021-10-31T07:29:46.914Z</time>
      </trkpt>
      <trkpt lat="40.64662" lon="44.30451">
        <ele>2083.693387</ele>
        <time>2021-10-31T07:30:26.904Z</time>
      </trkpt>
      <trkpt lat="40.64875" lon="44.30386">
        <ele>2082.617381</ele>
        <time>2021-10-31T07:31:25.944Z</time>
      </trkpt>
      <trkpt lat="40.65082" lon="44.30275">
        <ele>2076.011823</ele>
        <time>2021-10-31T07:32:05.916Z</time>
      </trkpt>
      <trkpt lat="40.65347" lon="44.30172">
        <ele>2061.148679</ele>
        <time>2021-10-31T07:32:45.908Z</time>
      </trkpt>
      <trkpt lat="40.65602" lon="44.30106">
        <ele>2058.276608</ele>
        <time>2021-10-31T07:33:25.899Z</time>
      </trkpt>
      <trkpt lat="40.65817" lon="44.3004">
        <ele>2059.657533</ele>
        <time>2021-10-31T07:34:26.923Z</time>
      </trkpt>
      <trkpt lat="40.66026" lon="44.29953">
        <ele>2060.840037</ele>
        <time>2021-10-31T07:35:24.880Z</time>
      </trkpt>
      <trkpt lat="40.66248" lon="44.29834">
        <ele>2062.12957</ele>
        <time>2021-10-31T07:36:23.894Z</time>
      </trkpt>
      <trkpt lat="40.66453" lon="44.29709">
        <ele>2063.397461</ele>
        <time>2021-10-31T07:37:15.895Z</time>
      </trkpt>
      <trkpt lat="40.66629" lon="44.29608">
        <ele>2064.933919</ele>
        <time>2021-10-31T07:37:57.915Z</time>
      </trkpt>
      <trkpt lat="40.66816" lon="44.29502">
        <ele>2064.087444</ele>
        <time>2021-10-31T07:38:37.894Z</time>
      </trkpt>
      <trkpt lat="40.67016" lon="44.29393">
        <ele>2065.042506</ele>
        <time>2021-10-31T07:39:17.893Z</time>
      </trkpt>
      <trkpt lat="40.67236" lon="44.29271">
        <ele>2068.194713</ele>
        <time>2021-10-31T07:40:14.904Z</time>
      </trkpt>
      <trkpt lat="40.67437" lon="44.29164">
        <ele>2066.833255</ele>
        <time>2021-10-31T07:41:01.901Z</time>
      </trkpt>
      <trkpt lat="40.67627" lon="44.29063">
        <ele>2065.451802</ele>
        <time>2021-10-31T07:41:41.944Z</time>
      </trkpt>
      <trkpt lat="40.67813" lon="44.28967">
        <ele>2064.884607</ele>
        <time>2021-10-31T07:42:21.933Z</time>
      </trkpt>
      <trkpt lat="40.68016" lon="44.2886">
        <ele>2068.010961</ele>
        <time>2021-10-31T07:43:09.903Z</time>
      </trkpt>
      <trkpt lat="40.67968" lon="44.28658">
        <ele>2068.410506</ele>
        <time>2021-10-31T07:44:12.892Z</time>
      </trkpt>
      <trkpt lat="40.67827" lon="44.28447">
        <ele>2071.950131</ele>
        <time>2021-10-31T07:45:27.931Z</time>
      </trkpt>
      <trkpt lat="40.67684" lon="44.28241">
        <ele>2073.33529</ele>
        <time>2021-10-31T07:46:42.896Z</time>
      </trkpt>
      <trkpt lat="40.67537" lon="44.28015">
        <ele>2073.518459</ele>
        <time>2021-10-31T07:47:38.897Z</time>
      </trkpt>
      <trkpt lat="40.67389" lon="44.2778">
        <ele>2069.988369</ele>
        <time>2021-10-31T07:48:28.910Z</time>
      </trkpt>
      <trkpt lat="40.67245" lon="44.27549">
        <ele>2071.508836</ele>
        <time>2021-10-31T07:49:26.914Z</time>
      </trkpt>
      <trkpt lat="40.67106" lon="44.27333">
        <ele>2073.304378</ele>
        <time>2021-10-31T07:50:26.903Z</time>
      </trkpt>
      <trkpt lat="40.66961" lon="44.2709">
        <ele>2073.620573</ele>
        <time>2021-10-31T07:51:21.880Z</time>
      </trkpt>
      <trkpt lat="40.66824" lon="44.26861">
        <ele>2074.760457</ele>
        <time>2021-10-31T07:52:12.916Z</time>
      </trkpt>
      <trkpt lat="40.66689" lon="44.26642">
        <ele>2072.34086</ele>
        <time>2021-10-31T07:52:57.900Z</time>
      </trkpt>
      <trkpt lat="40.66552" lon="44.26409">
        <ele>2071.387478</ele>
        <time>2021-10-31T07:53:42.889Z</time>
      </trkpt>
      <trkpt lat="40.66413" lon="44.26174">
        <ele>2075.108398</ele>
        <time>2021-10-31T07:54:41.899Z</time>
      </trkpt>
      <trkpt lat="40.66266" lon="44.25925">
        <ele>2077.156154</ele>
        <time>2021-10-31T07:55:40.915Z</time>
      </trkpt>
      <trkpt lat="40.66135" lon="44.25699">
        <ele>2078.414085</ele>
        <time>2021-10-31T07:56:37.906Z</time>
      </trkpt>
      <trkpt lat="40.66003" lon="44.25472">
        <ele>2081.612258</ele>
        <time>2021-10-31T07:57:35.947Z</time>
      </trkpt>
      <trkpt lat="40.65874" lon="44.25243">
        <ele>2083.835102</ele>
        <time>2021-10-31T07:58:33.928Z</time>
      </trkpt>
      <trkpt lat="40.65739" lon="44.25008">
        <ele>2085.184056</ele>
        <time>2021-10-31T07:59:38.899Z</time>
      </trkpt>
      <trkpt lat="40.65621" lon="44.24792">
        <ele>2086.970414</ele>
        <time>2021-10-31T08:00:47.947Z</time>
      </trkpt>
      <trkpt lat="40.65553" lon="44.24528">
        <ele>2087.027807</ele>
        <time>2021-10-31T08:01:49.913Z</time>
      </trkpt>
      <trkpt lat="40.65494" lon="44.24271">
        <ele>2089.638824</ele>
        <time>2021-10-31T08:02:49.909Z</time>
      </trkpt>
      <trkpt lat="40.65419" lon="44.24004">
        <ele>2091.841413</ele>
        <time>2021-10-31T08:03:48.909Z</time>
      </trkpt>
      <trkpt lat="40.65278" lon="44.23796">
        <ele>2092.923864</ele>
        <time>2021-10-31T08:04:44.925Z</time>
      </trkpt>
      <trkpt lat="40.65155" lon="44.23572">
        <ele>2095.018127</ele>
        <time>2021-10-31T08:05:48.912Z</time>
      </trkpt>
      <trkpt lat="40.65108" lon="44.23318">
        <ele>2095.766995</ele>
        <time>2021-10-31T08:06:48.915Z</time>
      </trkpt>
      <trkpt lat="40.65062" lon="44.23069">
        <ele>2099.93474</ele>
        <time>2021-10-31T08:07:48.949Z</time>
      </trkpt>
      <trkpt lat="40.65014" lon="44.22791">
        <ele>2104.395292</ele>
        <time>2021-10-31T08:25:27.951Z</time>
      </trkpt>
      <trkpt lat="40.64966" lon="44.22528">
        <ele>2106.321886</ele>
        <time>2021-10-31T08:26:35.915Z</time>
      </trkpt>
      <trkpt lat="40.64919" lon="44.22258">
        <ele>2109.576936</ele>
        <time>2021-10-31T08:27:46.912Z</time>
      </trkpt>
      <trkpt lat="40.64867" lon="44.21967">
        <ele>2111.465901</ele>
        <time>2021-10-31T08:29:05.914Z</time>
      </trkpt>
      <trkpt lat="40.64818" lon="44.21686">
        <ele>2114.191677</ele>
        <time>2021-10-31T08:30:21.936Z</time>
      </trkpt>
      <trkpt lat="40.64771" lon="44.21418">
        <ele>2118.757259</ele>
        <time>2021-10-31T08:31:35.898Z</time>
      </trkpt>
      <trkpt lat="40.64721" lon="44.21144">
        <ele>2119.969213</ele>
        <time>2021-10-31T08:32:50.901Z</time>
      </trkpt>
      <trkpt lat="40.64673" lon="44.20879">
        <ele>2121.20857</ele>
        <time>2021-10-31T08:34:03.920Z</time>
      </trkpt>
      <trkpt lat="40.64626" lon="44.20617">
        <ele>2123.931853</ele>
        <time>2021-10-31T08:35:23.918Z</time>
      </trkpt>
      <trkpt lat="40.64579" lon="44.20367">
        <ele>2127.725402</ele>
        <time>2021-10-31T08:36:44.923Z</time>
      </trkpt>
      <trkpt lat="40.64532" lon="44.20113">
        <ele>2131.908766</ele>
        <time>2021-10-31T08:38:04.917Z</time>
      </trkpt>
      <trkpt lat="40.64487" lon="44.19856">
        <ele>2134.649138</ele>
        <time>2021-10-31T08:39:23.971Z</time>
      </trkpt>
      <trkpt lat="40.64439" lon="44.19596">
        <ele>2138.639414</ele>
        <time>2021-10-31T08:40:43.913Z</time>
      </trkpt>
      <trkpt lat="40.64392" lon="44.19328">
        <ele>2141.142814</ele>
        <time>2021-10-31T08:42:03.911Z</time>
      </trkpt>
      <trkpt lat="40.64393" lon="44.19059">
        <ele>2142.985113</ele>
        <time>2021-10-31T08:43:13.941Z</time>
      </trkpt>
      <trkpt lat="40.6441" lon="44.18803">
        <ele>2143.88414</ele>
        <time>2021-10-31T08:44:16.914Z</time>
      </trkpt>
      <trkpt lat="40.6442" lon="44.18537">
        <ele>2144.990472</ele>
        <time>2021-10-31T08:45:21.936Z</time>
      </trkpt>
      <trkpt lat="40.64429" lon="44.18269">
        <ele>2146.075239</ele>
        <time>2021-10-31T08:46:21.971Z</time>
      </trkpt>
      <trkpt lat="40.64441" lon="44.18">
        <ele>2146.709711</ele>
        <time>2021-10-31T08:47:21.919Z</time>
      </trkpt>
      <trkpt lat="40.64457" lon="44.17694">
        <ele>2146.300542</ele>
        <time>2021-10-31T08:48:22.966Z</time>
      </trkpt>
      <trkpt lat="40.64471" lon="44.17428">
        <ele>2144.992951</ele>
        <time>2021-10-31T08:49:06.939Z</time>
      </trkpt>
      <trkpt lat="40.64485" lon="44.17171">
        <ele>2143.414693</ele>
        <time>2021-10-31T08:49:46.921Z</time>
      </trkpt>
      <trkpt lat="40.64499" lon="44.16884">
        <ele>2139.270551</ele>
        <time>2021-10-31T08:50:26.964Z</time>
      </trkpt>
      <trkpt lat="40.6459" lon="44.16588">
        <ele>2132.118717</ele>
        <time>2021-10-31T08:51:06.919Z</time>
      </trkpt>
      <trkpt lat="40.64694" lon="44.163">
        <ele>2124.66904</ele>
        <time>2021-10-31T08:51:46.923Z</time>
      </trkpt>
      <trkpt lat="40.64793" lon="44.16031">
        <ele>2121.109462</ele>
        <time>2021-10-31T08:52:24.934Z</time>
      </trkpt>
      <trkpt lat="40.64882" lon="44.15789">
        <ele>2115.874036</ele>
        <time>2021-10-31T08:53:04.944Z</time>
      </trkpt>
      <trkpt lat="40.64966" lon="44.15557">
        <ele>2109.992381</ele>
        <time>2021-10-31T08:53:45.931Z</time>
      </trkpt>
      <trkpt lat="40.65054" lon="44.15313">
        <ele>2106.688904</ele>
        <time>2021-10-31T08:54:28.950Z</time>
      </trkpt>
      <trkpt lat="40.65148" lon="44.15054">
        <ele>2102.439325</ele>
        <time>2021-10-31T08:55:08.931Z</time>
      </trkpt>
      <trkpt lat="40.65228" lon="44.14798">
        <ele>2098.756573</ele>
        <time>2021-10-31T08:55:48.917Z</time>
      </trkpt>
      <trkpt lat="40.65275" lon="44.14535">
        <ele>2096.451078</ele>
        <time>2021-10-31T08:56:28.919Z</time>
      </trkpt>
      <trkpt lat="40.65287" lon="44.14263">
        <ele>2093.821432</ele>
        <time>2021-10-31T08:57:08.943Z</time>
      </trkpt>
      <trkpt lat="40.65295" lon="44.13996">
        <ele>2091.011749</ele>
        <time>2021-10-31T08:57:48.907Z</time>
      </trkpt>
      <trkpt lat="40.65311" lon="44.13701">
        <ele>2088.813</ele>
        <time>2021-10-31T08:58:28.919Z</time>
      </trkpt>
      <trkpt lat="40.6531" lon="44.13414">
        <ele>2089.006311</ele>
        <time>2021-10-31T08:59:22.969Z</time>
      </trkpt>
      <trkpt lat="40.65309" lon="44.13127">
        <ele>2089.461747</ele>
        <time>2021-10-31T09:00:22.927Z</time>
      </trkpt>
      <trkpt lat="40.65329" lon="44.12863">
        <ele>2087.506536</ele>
        <time>2021-10-31T09:01:05.934Z</time>
      </trkpt>
      <trkpt lat="40.65341" lon="44.12567">
        <ele>2086.694397</ele>
        <time>2021-10-31T09:01:58.940Z</time>
      </trkpt>
      <trkpt lat="40.65341" lon="44.12299">
        <ele>2083.793839</ele>
        <time>2021-10-31T09:02:41.930Z</time>
      </trkpt>
      <trkpt lat="40.6535" lon="44.11995">
        <ele>2078.374343</ele>
        <time>2021-10-31T09:03:21.933Z</time>
      </trkpt>
      <trkpt lat="40.65352" lon="44.11694">
        <ele>2078.480293</ele>
        <time>2021-10-31T09:04:13.935Z</time>
      </trkpt>
      <trkpt lat="40.65339" lon="44.11424">
        <ele>2078.294977</ele>
        <time>2021-10-31T09:04:57.932Z</time>
      </trkpt>
      <trkpt lat="40.65326" lon="44.11175">
        <ele>2075.550471</ele>
        <time>2021-10-31T09:05:37.935Z</time>
      </trkpt>
      <trkpt lat="40.65322" lon="44.10907">
        <ele>2073.37248</ele>
        <time>2021-10-31T09:06:17.932Z</time>
      </trkpt>
      <trkpt lat="40.65298" lon="44.10584">
        <ele>2070.736608</ele>
        <time>2021-10-31T09:06:58.930Z</time>
      </trkpt>
      <trkpt lat="40.65314" lon="44.10309">
        <ele>2065.346741</ele>
        <time>2021-10-31T09:07:38.925Z</time>
      </trkpt>
      <trkpt lat="40.65358" lon="44.10012">
        <ele>2061.834185</ele>
        <time>2021-10-31T09:08:23.934Z</time>
      </trkpt>
      <trkpt lat="40.65407" lon="44.09635">
        <ele>2050.818113</ele>
        <time>2021-10-31T09:09:03.955Z</time>
      </trkpt>
      <trkpt lat="40.65443" lon="44.09343">
        <ele>2050.900029</ele>
        <time>2021-10-31T09:09:58.956Z</time>
      </trkpt>
      <trkpt lat="40.65489" lon="44.08976">
        <ele>2047.296468</ele>
        <time>2021-10-31T09:10:42.942Z</time>
      </trkpt>
      <trkpt lat="40.65525" lon="44.08684">
        <ele>2040.230783</ele>
        <time>2021-10-31T09:11:22.929Z</time>
      </trkpt>
      <trkpt lat="40.65561" lon="44.08393">
        <ele>2037.760384</ele>
        <time>2021-10-31T09:12:02.929Z</time>
      </trkpt>
      <trkpt lat="40.65655" lon="44.08066">
        <ele>2030.570919</ele>
        <time>2021-10-31T09:12:42.931Z</time>
      </trkpt>
      <trkpt lat="40.65679" lon="44.07724">
        <ele>2023.239534</ele>
        <time>2021-10-31T09:13:20.972Z</time>
      </trkpt>
      <trkpt lat="40.65486" lon="44.07415">
        <ele>2020.507318</ele>
        <time>2021-10-31T09:14:00.003Z</time>
      </trkpt>
      <trkpt lat="40.65345" lon="44.07199">
        <ele>2017.112748</ele>
        <time>2021-10-31T09:14:59.947Z</time>
      </trkpt>
      <trkpt lat="40.65208" lon="44.06985">
        <ele>2020.609526</ele>
        <time>2021-10-31T09:16:03.928Z</time>
      </trkpt>
      <trkpt lat="40.65081" lon="44.06769">
        <ele>2022.311301</ele>
        <time>2021-10-31T09:17:24.934Z</time>
      </trkpt>
      <trkpt lat="40.64958" lon="44.06495">
        <ele>2018.753004</ele>
        <time>2021-10-31T09:18:14.935Z</time>
      </trkpt>
      <trkpt lat="40.6486" lon="44.06167">
        <ele>2004.349757</ele>
        <time>2021-10-31T09:18:53.923Z</time>
      </trkpt>
      <trkpt lat="40.6476" lon="44.05911">
        <ele>1998.638711</ele>
        <time>2021-10-31T09:19:39.941Z</time>
      </trkpt>
      <trkpt lat="40.64647" lon="44.05658">
        <ele>1988.327452</ele>
        <time>2021-10-31T09:20:19.934Z</time>
      </trkpt>
      <trkpt lat="40.64496" lon="44.05408">
        <ele>1977.239166</ele>
        <time>2021-10-31T09:21:06.938Z</time>
      </trkpt>
      <trkpt lat="40.64391" lon="44.0515">
        <ele>1979.501352</ele>
        <time>2021-10-31T09:22:07.938Z</time>
      </trkpt>
      <trkpt lat="40.64368" lon="44.04854">
        <ele>1978.762428</ele>
        <time>2021-10-31T09:22:52.943Z</time>
      </trkpt>
      <trkpt lat="40.64274" lon="44.04613">
        <ele>1980.37875</ele>
        <time>2021-10-31T09:23:56.939Z</time>
      </trkpt>
      <trkpt lat="40.6415" lon="44.04388">
        <ele>1979.224204</ele>
        <time>2021-10-31T09:24:59.935Z</time>
      </trkpt>
      <trkpt lat="40.64155" lon="44.04117">
        <ele>1995.236713</ele>
        <time>2021-10-31T09:26:36.972Z</time>
      </trkpt>
      <trkpt lat="40.6414" lon="44.03826">
        <ele>1991.463053</ele>
        <time>2021-10-31T09:27:48.936Z</time>
      </trkpt>
      <trkpt lat="40.63966" lon="44.03619">
        <ele>1980.225617</ele>
        <time>2021-10-31T09:28:35.921Z</time>
      </trkpt>
      <trkpt lat="40.63729" lon="44.03434">
        <ele>1976.721755</ele>
        <time>2021-10-31T09:29:19.975Z</time>
      </trkpt>
      <trkpt lat="40.63562" lon="44.03301">
        <ele>1988.572945</ele>
        <time>2021-10-31T09:31:21.950Z</time>
      </trkpt>
      <trkpt lat="40.63396" lon="44.03168">
        <ele>1998.609639</ele>
        <time>2021-10-31T09:33:39.943Z</time>
      </trkpt>
      <trkpt lat="40.63226" lon="44.03033">
        <ele>2004.466831</ele>
        <time>2021-10-31T09:35:38.939Z</time>
      </trkpt>
      <trkpt lat="40.63042" lon="44.02916">
        <ele>2007.373003</ele>
        <time>2021-10-31T09:37:06.973Z</time>
      </trkpt>
      <trkpt lat="40.62844" lon="44.0279">
        <ele>2009.433587</ele>
        <time>2021-10-31T09:38:06.942Z</time>
      </trkpt>
      <trkpt lat="40.6266" lon="44.02669">
        <ele>2010.882741</ele>
        <time>2021-10-31T09:39:17.944Z</time>
      </trkpt>
      <trkpt lat="40.62485" lon="44.02463">
        <ele>2000.881473</ele>
        <time>2021-10-31T09:39:55.952Z</time>
      </trkpt>
      <trkpt lat="40.62371" lon="44.02151">
        <ele>1994.141913</ele>
        <time>2021-10-31T09:40:30.937Z</time>
      </trkpt>
      <trkpt lat="40.62253" lon="44.01898">
        <ele>1993.756993</ele>
        <time>2021-10-31T09:41:22.951Z</time>
      </trkpt>
      <trkpt lat="40.6202" lon="44.01706">
        <ele>1980.260778</ele>
        <time>2021-10-31T09:42:02.936Z</time>
      </trkpt>
      <trkpt lat="40.61836" lon="44.01535">
        <ele>1977.382688</ele>
        <time>2021-10-31T09:42:50.948Z</time>
      </trkpt>
      <trkpt lat="40.61842" lon="44.01256">
        <ele>1984.060433</ele>
        <time>2021-10-31T09:43:52.959Z</time>
      </trkpt>
      <trkpt lat="40.61862" lon="44.00986">
        <ele>1986.498064</ele>
        <time>2021-10-31T09:44:54.956Z</time>
      </trkpt>
      <trkpt lat="40.61881" lon="44.00707">
        <ele>1985.79306</ele>
        <time>2021-10-31T09:45:54.952Z</time>
      </trkpt>
      <trkpt lat="40.61924" lon="44.00392">
        <ele>1972.442093</ele>
        <time>2021-10-31T09:46:34.948Z</time>
      </trkpt>
      <trkpt lat="40.61985" lon="44.00096">
        <ele>1954.798864</ele>
        <time>2021-10-31T09:47:02.955Z</time>
      </trkpt>
      <trkpt lat="40.62048" lon="43.99771">
        <ele>1946.847356</ele>
        <time>2021-10-31T09:47:38.955Z</time>
      </trkpt>
      <trkpt lat="40.62063" lon="43.99483">
        <ele>1944.970314</ele>
        <time>2021-10-31T09:48:18.957Z</time>
      </trkpt>
      <trkpt lat="40.6209" lon="43.99209">
        <ele>1949.76026</ele>
        <time>2021-10-31T10:03:25.952Z</time>
      </trkpt>
      <trkpt lat="40.6212" lon="43.98835">
        <ele>1932.769943</ele>
        <time>2021-10-31T10:04:07.961Z</time>
      </trkpt>
      <trkpt lat="40.62187" lon="43.98445">
        <ele>1900.846073</ele>
        <time>2021-10-31T10:04:45.944Z</time>
      </trkpt>
      <trkpt lat="40.6235" lon="43.9815">
        <ele>1875.927267</ele>
        <time>2021-10-31T10:05:18.988Z</time>
      </trkpt>
      <trkpt lat="40.62506" lon="43.97866">
        <ele>1855.182134</ele>
        <time>2021-10-31T10:05:54.983Z</time>
      </trkpt>
      <trkpt lat="40.62656" lon="43.97601">
        <ele>1838.585712</ele>
        <time>2021-10-31T10:06:36.952Z</time>
      </trkpt>
      <trkpt lat="40.62783" lon="43.97321">
        <ele>1812.879006</ele>
        <time>2021-10-31T10:07:20.966Z</time>
      </trkpt>
      <trkpt lat="40.62941" lon="43.97135">
        <ele>1805.701938</ele>
        <time>2021-10-31T10:08:15.950Z</time>
      </trkpt>
      <trkpt lat="40.62843" lon="43.96964">
        <ele>1791.676417</ele>
        <time>2021-10-31T10:09:01.957Z</time>
      </trkpt>
      <trkpt lat="40.62629" lon="43.97025">
        <ele>1784.157471</ele>
        <time>2021-10-31T10:09:57.957Z</time>
      </trkpt>
      <trkpt lat="40.62395" lon="43.96974">
        <ele>1784.510904</ele>
        <time>2021-10-31T10:10:43.960Z</time>
      </trkpt>
      <trkpt lat="40.62179" lon="43.9692">
        <ele>1795.437638</ele>
        <time>2021-10-31T10:11:44.941Z</time>
      </trkpt>
      <trkpt lat="40.62012" lon="43.96843">
        <ele>1800.749276</ele>
        <time>2021-10-31T10:13:14.957Z</time>
      </trkpt>
      <trkpt lat="40.61995" lon="43.96575">
        <ele>1789.553516</ele>
        <time>2021-10-31T10:14:07.939Z</time>
      </trkpt>
      <trkpt lat="40.62004" lon="43.96268">
        <ele>1774.114336</ele>
        <time>2021-10-31T10:14:47.964Z</time>
      </trkpt>
      <trkpt lat="40.62205" lon="43.96224">
        <ele>1764.615773</ele>
        <time>2021-10-31T10:15:38.951Z</time>
      </trkpt>
      <trkpt lat="40.62401" lon="43.96106">
        <ele>1762.644833</ele>
        <time>2021-10-31T10:16:30.962Z</time>
      </trkpt>
      <trkpt lat="40.62593" lon="43.95798">
        <ele>1750.375219</ele>
        <time>2021-10-31T10:17:10.945Z</time>
      </trkpt>
      <trkpt lat="40.62789" lon="43.95509">
        <ele>1740.305067</ele>
        <time>2021-10-31T10:17:50.944Z</time>
      </trkpt>
      <trkpt lat="40.62972" lon="43.95269">
        <ele>1736.44579</ele>
        <time>2021-10-31T10:18:30.945Z</time>
      </trkpt>
      <trkpt lat="40.63178" lon="43.94999">
        <ele>1728.986798</ele>
        <time>2021-10-31T10:19:10.951Z</time>
      </trkpt>
      <trkpt lat="40.6338" lon="43.94736">
        <ele>1720.836056</ele>
        <time>2021-10-31T10:19:50.961Z</time>
      </trkpt>
      <trkpt lat="40.63565" lon="43.94498">
        <ele>1717.478938</ele>
        <time>2021-10-31T10:20:28.965Z</time>
      </trkpt>
      <trkpt lat="40.63724" lon="43.94289">
        <ele>1714.397966</ele>
        <time>2021-10-31T10:21:08.951Z</time>
      </trkpt>
      <trkpt lat="40.63882" lon="43.94081">
        <ele>1711.517365</ele>
        <time>2021-10-31T10:21:48.984Z</time>
      </trkpt>
      <trkpt lat="40.64042" lon="43.93874">
        <ele>1706.200189</ele>
        <time>2021-10-31T10:22:28.943Z</time>
      </trkpt>
      <trkpt lat="40.642" lon="43.93669">
        <ele>1703.831996</ele>
        <time>2021-10-31T10:23:16.961Z</time>
      </trkpt>
      <trkpt lat="40.64394" lon="43.93496">
        <ele>1696.752992</ele>
        <time>2021-10-31T10:23:56.957Z</time>
      </trkpt>
      <trkpt lat="40.64575" lon="43.93341">
        <ele>1695.475593</ele>
        <time>2021-10-31T10:24:41.953Z</time>
      </trkpt>
      <trkpt lat="40.64772" lon="43.93233">
        <ele>1696.32007</ele>
        <time>2021-10-31T10:25:32.959Z</time>
      </trkpt>
      <trkpt lat="40.65002" lon="43.93015">
        <ele>1686.282213</ele>
        <time>2021-10-31T10:26:12.956Z</time>
      </trkpt>
      <trkpt lat="40.65233" lon="43.9277">
        <ele>1671.895698</ele>
        <time>2021-10-31T10:26:52.946Z</time>
      </trkpt>
      <trkpt lat="40.65371" lon="43.92477">
        <ele>1656.131459</ele>
        <time>2021-10-31T10:27:30.953Z</time>
      </trkpt>
      <trkpt lat="40.65419" lon="43.92144">
        <ele>1648.738545</ele>
        <time>2021-10-31T10:28:05.951Z</time>
      </trkpt>
      <trkpt lat="40.65458" lon="43.91894">
        <ele>1648.982684</ele>
        <time>2021-10-31T10:28:47.001Z</time>
      </trkpt>
      <trkpt lat="40.65522" lon="43.91596">
        <ele>1644.94797</ele>
        <time>2021-10-31T10:29:24.986Z</time>
      </trkpt>
      <trkpt lat="40.65586" lon="43.91353">
        <ele>1638.394158</ele>
        <time>2021-10-31T10:29:44.938Z</time>
      </trkpt>
      <trkpt lat="40.65648" lon="43.91092">
        <ele>1633.813643</ele>
        <time>2021-10-31T10:30:06.943Z</time>
      </trkpt>
      <trkpt lat="40.65716" lon="43.90781">
        <ele>1630.480307</ele>
        <time>2021-10-31T10:30:45.949Z</time>
      </trkpt>
      <trkpt lat="40.65763" lon="43.90518">
        <ele>1628.37569</ele>
        <time>2021-10-31T10:31:27.000Z</time>
      </trkpt>
      <trkpt lat="40.65865" lon="43.9027">
        <ele>1626.862034</ele>
        <time>2021-10-31T10:32:13.946Z</time>
      </trkpt>
      <trkpt lat="40.66033" lon="43.90026">
        <ele>1627.552144</ele>
        <time>2021-10-31T10:32:54.977Z</time>
      </trkpt>
      <trkpt lat="40.6615" lon="43.89784">
        <ele>1617.250499</ele>
        <time>2021-10-31T10:33:16.980Z</time>
      </trkpt>
      <trkpt lat="40.66246" lon="43.89463">
        <ele>1602.514517</ele>
        <time>2021-10-31T10:33:48.939Z</time>
      </trkpt>
      <trkpt lat="40.66264" lon="43.89113">
        <ele>1596.618155</ele>
        <time>2021-10-31T10:34:28.956Z</time>
      </trkpt>
      <trkpt lat="40.66242" lon="43.88838">
        <ele>1593.925135</ele>
        <time>2021-10-31T10:35:09.975Z</time>
      </trkpt>
      <trkpt lat="40.66226" lon="43.88532">
        <ele>1590.382288</ele>
        <time>2021-10-31T10:35:49.952Z</time>
      </trkpt>
      <trkpt lat="40.66209" lon="43.88266">
        <ele>1588.777771</ele>
        <time>2021-10-31T10:36:29.969Z</time>
      </trkpt>
      <trkpt lat="40.66164" lon="43.87982">
        <ele>1586.290237</ele>
        <time>2021-10-31T10:37:09.993Z</time>
      </trkpt>
      <trkpt lat="40.6613" lon="43.877">
        <ele>1583.476415</ele>
        <time>2021-10-31T10:37:49.957Z</time>
      </trkpt>
      <trkpt lat="40.66097" lon="43.87417">
        <ele>1580.453981</ele>
        <time>2021-10-31T10:38:29.963Z</time>
      </trkpt>
      <trkpt lat="40.66076" lon="43.8715">
        <ele>1579.375131</ele>
        <time>2021-10-31T10:39:07.992Z</time>
      </trkpt>
      <trkpt lat="40.66056" lon="43.86876">
        <ele>1577.165335</ele>
        <time>2021-10-31T10:39:47.963Z</time>
      </trkpt>
      <trkpt lat="40.66038" lon="43.86612">
        <ele>1575.094011</ele>
        <time>2021-10-31T10:40:27.992Z</time>
      </trkpt>
      <trkpt lat="40.66024" lon="43.86345">
        <ele>1576.109422</ele>
        <time>2021-10-31T10:41:09.955Z</time>
      </trkpt>
      <trkpt lat="40.66008" lon="43.86062">
        <ele>1573.627157</ele>
        <time>2021-10-31T10:41:49.972Z</time>
      </trkpt>
      <trkpt lat="40.65992" lon="43.85789">
        <ele>1569.635924</ele>
        <time>2021-10-31T10:42:31.950Z</time>
      </trkpt>
      <trkpt lat="40.65976" lon="43.85525">
        <ele>1566.717514</ele>
        <time>2021-10-31T10:43:13.957Z</time>
      </trkpt>
      <trkpt lat="40.65959" lon="43.85217">
        <ele>1568.803972</ele>
        <time>2021-10-31T10:44:10.974Z</time>
      </trkpt>
      <trkpt lat="40.66176" lon="43.85194">
        <ele>1573.999207</ele>
        <time>2021-10-31T10:45:12.966Z</time>
      </trkpt>
      <trkpt lat="40.66424" lon="43.85208">
        <ele>1572.614165</ele>
        <time>2021-10-31T10:46:12.961Z</time>
      </trkpt>
      <trkpt lat="40.6667" lon="43.85222">
        <ele>1574.196047</ele>
        <time>2021-10-31T10:47:12.955Z</time>
      </trkpt>
      <trkpt lat="40.6691" lon="43.85216">
        <ele>1574.878848</ele>
        <time>2021-10-31T10:48:12.966Z</time>
      </trkpt>
      <trkpt lat="40.67129" lon="43.85141">
        <ele>1571.952653</ele>
        <time>2021-10-31T10:49:04.981Z</time>
      </trkpt>
      <trkpt lat="40.6733" lon="43.85027">
        <ele>1570.196828</ele>
        <time>2021-10-31T10:49:44.969Z</time>
      </trkpt>
      <trkpt lat="40.6752" lon="43.84913">
        <ele>1567.46531</ele>
        <time>2021-10-31T10:50:28.949Z</time>
      </trkpt>
      <trkpt lat="40.67728" lon="43.84792">
        <ele>1570.109476</ele>
        <time>2021-10-31T10:51:25.975Z</time>
      </trkpt>
      <trkpt lat="40.67938" lon="43.84667">
        <ele>1572.903595</ele>
        <time>2021-10-31T10:52:25.964Z</time>
      </trkpt>
      <trkpt lat="40.68149" lon="43.84529">
        <ele>1571.189156</ele>
        <time>2021-10-31T10:53:25.980Z</time>
      </trkpt>
      <trkpt lat="40.68371" lon="43.84396">
        <ele>1565.196494</ele>
        <time>2021-10-31T10:54:07.978Z</time>
      </trkpt>
      <trkpt lat="40.68633" lon="43.84242">
        <ele>1550.048001</ele>
        <time>2021-10-31T10:54:44.959Z</time>
      </trkpt>
      <trkpt lat="40.68834" lon="43.84122">
        <ele>1539.493751</ele>
        <time>2021-10-31T10:55:08.971Z</time>
      </trkpt>
      <trkpt lat="40.69052" lon="43.83992">
        <ele>1540.510757</ele>
        <time>2021-10-31T10:55:48.964Z</time>
      </trkpt>
      <trkpt lat="40.69256" lon="43.83868">
        <ele>1540.160074</ele>
        <time>2021-10-31T10:56:28.967Z</time>
      </trkpt>
      <trkpt lat="40.69458" lon="43.8375">
        <ele>1540.487945</ele>
        <time>2021-10-31T10:57:09.977Z</time>
      </trkpt>
      <trkpt lat="40.69677" lon="43.83664">
        <ele>1539.640717</ele>
        <time>2021-10-31T10:57:49.961Z</time>
      </trkpt>
      <trkpt lat="40.69892" lon="43.83722">
        <ele>1539.914101</ele>
        <time>2021-10-31T10:58:34.970Z</time>
      </trkpt>
      <trkpt lat="40.70101" lon="43.83797">
        <ele>1537.701596</ele>
        <time>2021-10-31T10:59:26.969Z</time>
      </trkpt>
      <trkpt lat="40.70334" lon="43.83878">
        <ele>1537.798307</ele>
        <time>2021-10-31T11:00:26.972Z</time>
      </trkpt>
      <trkpt lat="40.70561" lon="43.83959">
        <ele>1538.743565</ele>
        <time>2021-10-31T11:01:24.967Z</time>
      </trkpt>
      <trkpt lat="40.70781" lon="43.84036">
        <ele>1537.507152</ele>
        <time>2021-10-31T11:02:21.956Z</time>
      </trkpt>
      <trkpt lat="40.70994" lon="43.84068">
        <ele>1533.837314</ele>
        <time>2021-10-31T11:03:11.955Z</time>
      </trkpt>
      <trkpt lat="40.71212" lon="43.84006">
        <ele>1526.460706</ele>
        <time>2021-10-31T11:09:43.028Z</time>
      </trkpt>
      <trkpt lat="40.71418" lon="43.83943">
        <ele>1520.906668</ele>
        <time>2021-10-31T11:10:26.979Z</time>
      </trkpt>
      <trkpt lat="40.71632" lon="43.8388">
        <ele>1522.805747</ele>
        <time>2021-10-31T11:11:14.968Z</time>
      </trkpt>
      <trkpt lat="40.71864" lon="43.83811">
        <ele>1521.234248</ele>
        <time>2021-10-31T11:12:11.979Z</time>
      </trkpt>
      <trkpt lat="40.72085" lon="43.83729">
        <ele>1522.294094</ele>
        <time>2021-10-31T11:13:12.007Z</time>
      </trkpt>
      <trkpt lat="40.72284" lon="43.83598">
        <ele>1519.668475</ele>
        <time>2021-10-31T11:13:59.981Z</time>
      </trkpt>
      <trkpt lat="40.72467" lon="43.83478">
        <ele>1515.486305</ele>
        <time>2021-10-31T11:14:43.957Z</time>
      </trkpt>
      <trkpt lat="40.7266" lon="43.83343">
        <ele>1514.769329</ele>
        <time>2021-10-31T11:15:32.965Z</time>
      </trkpt>
      <trkpt lat="40.72844" lon="43.83218">
        <ele>1521.202608</ele>
        <time>2021-10-31T11:17:04.973Z</time>
      </trkpt>
      <trkpt lat="40.7304" lon="43.8309">
        <ele>1523.964823</ele>
        <time>2021-10-31T11:53:30.011Z</time>
      </trkpt>
      <trkpt lat="40.7324" lon="43.83013">
        <ele>1524.808558</ele>
        <time>2021-10-31T11:54:41.981Z</time>
      </trkpt>
      <trkpt lat="40.7346" lon="43.83">
        <ele>1526.437797</ele>
        <time>2021-10-31T11:55:41.980Z</time>
      </trkpt>
      <trkpt lat="40.73678" lon="43.83012">
        <ele>1527.355525</ele>
        <time>2021-10-31T11:56:41.987Z</time>
      </trkpt>
      <trkpt lat="40.73897" lon="43.83027">
        <ele>1527.958299</ele>
        <time>2021-10-31T11:57:41.996Z</time>
      </trkpt>
      <trkpt lat="40.74103" lon="43.8304">
        <ele>1532.591405</ele>
        <time>2021-10-31T11:58:45.984Z</time>
      </trkpt>
      <trkpt lat="40.7432" lon="43.83052">
        <ele>1536.555335</ele>
        <time>2021-10-31T11:59:45.992Z</time>
      </trkpt>
      <trkpt lat="40.74541" lon="43.83062">
        <ele>1538.65491</ele>
        <time>2021-10-31T12:00:45.991Z</time>
      </trkpt>
      <trkpt lat="40.74754" lon="43.83076">
        <ele>1540.700796</ele>
        <time>2021-10-31T12:01:46.008Z</time>
      </trkpt>
      <trkpt lat="40.74968" lon="43.83122">
        <ele>1537.409032</ele>
        <time>2021-10-31T12:02:49.000Z</time>
      </trkpt>
      <trkpt lat="40.75187" lon="43.83167">
        <ele>1539.504344</ele>
        <time>2021-10-31T12:03:49.979Z</time>
      </trkpt>
      <trkpt lat="40.75417" lon="43.83174">
        <ele>1539.853982</ele>
        <time>2021-10-31T12:04:50.023Z</time>
      </trkpt>
      <trkpt lat="40.75623" lon="43.83219">
        <ele>1542.807302</ele>
        <time>2021-10-31T12:05:49.982Z</time>
      </trkpt>
      <trkpt lat="40.75792" lon="43.83419">
        <ele>1544.825007</ele>
        <time>2021-10-31T12:06:50.008Z</time>
      </trkpt>
      <trkpt lat="40.75969" lon="43.83631">
        <ele>1549.210568</ele>
        <time>2021-10-31T12:07:47.986Z</time>
      </trkpt>
      <trkpt lat="40.76129" lon="43.83828">
        <ele>1549.53725</ele>
        <time>2021-10-31T12:08:35.987Z</time>
      </trkpt>
      <trkpt lat="40.7629" lon="43.84017">
        <ele>1547.555219</ele>
        <time>2021-10-31T12:09:22.969Z</time>
      </trkpt>
      <trkpt lat="40.76453" lon="43.84179">
        <ele>1548.603683</ele>
        <time>2021-10-31T12:10:06.993Z</time>
      </trkpt>
      <trkpt lat="40.7662" lon="43.84325">
        <ele>1552.691977</ele>
        <time>2021-10-31T12:10:49.981Z</time>
      </trkpt>
      <trkpt lat="40.76793" lon="43.84482">
        <ele>1555.705648</ele>
        <time>2021-10-31T12:11:33.987Z</time>
      </trkpt>
      <trkpt lat="40.7696" lon="43.84652">
        <ele>1550.144389</ele>
        <time>2021-10-31T12:12:19.992Z</time>
      </trkpt>
      <trkpt lat="40.77142" lon="43.84821">
        <ele>1548.668383</ele>
        <time>2021-10-31T12:13:17.997Z</time>
      </trkpt>
      <trkpt lat="40.77327" lon="43.8498">
        <ele>1556.326905</ele>
        <time>2021-10-31T12:14:15.987Z</time>
      </trkpt>
      <trkpt lat="40.77514" lon="43.85153">
        <ele>1558.524452</ele>
        <time>2021-10-31T12:15:16.989Z</time>
      </trkpt>
      <trkpt lat="40.77704" lon="43.85333">
        <ele>1555.760225</ele>
        <time>2021-10-31T12:16:15.989Z</time>
      </trkpt>
      <trkpt lat="40.77886" lon="43.85531">
        <ele>1552.9338</ele>
        <time>2021-10-31T12:17:10.011Z</time>
      </trkpt>
      <trkpt lat="40.77995" lon="43.85413">
        <ele>1555.620607</ele>
        <time>2021-10-31T12:18:08.972Z</time>
      </trkpt>
      <trkpt lat="40.78045" lon="43.85165">
        <ele>1559.945154</ele>
        <time>2021-10-31T12:19:08.971Z</time>
      </trkpt>
      <trkpt lat="40.78059" lon="43.84829">
        <ele>1552.797784</ele>
        <time>2021-10-31T12:19:55.995Z</time>
      </trkpt>
      <trkpt lat="40.78072" lon="43.84542">
        <ele>1543.941112</ele>
        <time>2021-10-31T12:20:38.979Z</time>
      </trkpt>
      <trkpt lat="40.78092" lon="43.84255">
        <ele>1545.49987</ele>
        <time>2021-10-31T12:21:45.995Z</time>
      </trkpt>
      <trkpt lat="40.78167" lon="43.84072">
        <ele>1548.088784</ele>
        <time>2021-10-31T12:23:01.976Z</time>
      </trkpt>
      <trkpt lat="40.7822" lon="43.84041">
        <ele>1548.088784</ele>
        <time>2021-10-31T12:55:01.944Z</time>
      </trkpt>
    </trkseg>
  </trk>
  <trk>
    <name><![CDATA[Tour d'Europe: étape 493]]></name>
    <extensions>
      <line xmlns="http://www.topografix.com/GPX/gpx_style/0/2">
        <color>00FF00</color>
        <width>4</width>
      </line>
    </extensions>
    <trkseg>
      <trkpt lat="40.78231" lon="43.84038">
        <ele>1541.561869</ele>
        <time>2021-11-03T04:42:21.511Z</time>
      </trkpt>
      <trkpt lat="40.78315" lon="43.8409">
        <ele>1541.992842</ele>
        <time>2021-11-03T04:56:04.388Z</time>
      </trkpt>
      <trkpt lat="40.78525" lon="43.84117">
        <ele>1547.93372</ele>
        <time>2021-11-03T04:57:21.365Z</time>
      </trkpt>
      <trkpt lat="40.78724" lon="43.8412">
        <ele>1555.485206</ele>
        <time>2021-11-03T04:58:33.348Z</time>
      </trkpt>
      <trkpt lat="40.78737" lon="43.8436">
        <ele>1567.77772</ele>
        <time>2021-11-03T04:59:52.355Z</time>
      </trkpt>
      <trkpt lat="40.78743" lon="43.84659">
        <ele>1572.565504</ele>
        <time>2021-11-03T05:00:54.377Z</time>
      </trkpt>
      <trkpt lat="40.78943" lon="43.84608">
        <ele>1571.644207</ele>
        <time>2021-11-03T05:01:54.369Z</time>
      </trkpt>
      <trkpt lat="40.79156" lon="43.84629">
        <ele>1575.621689</ele>
        <time>2021-11-03T05:03:05.347Z</time>
      </trkpt>
      <trkpt lat="40.79291" lon="43.84754">
        <ele>1578.633128</ele>
        <time>2021-11-03T05:04:14.361Z</time>
      </trkpt>
      <trkpt lat="40.79434" lon="43.84656">
        <ele>1581.796363</ele>
        <time>2021-11-03T05:05:15.363Z</time>
      </trkpt>
      <trkpt lat="40.79651" lon="43.84688">
        <ele>1590.010283</ele>
        <time>2021-11-03T05:06:21.364Z</time>
      </trkpt>
      <trkpt lat="40.79869" lon="43.84721">
        <ele>1592.763187</ele>
        <time>2021-11-03T05:07:22.357Z</time>
      </trkpt>
      <trkpt lat="40.80088" lon="43.84744">
        <ele>1596.87456</ele>
        <time>2021-11-03T05:08:26.412Z</time>
      </trkpt>
      <trkpt lat="40.80246" lon="43.84653">
        <ele>1593.080316</ele>
        <time>2021-11-03T05:19:32.371Z</time>
      </trkpt>
      <trkpt lat="40.80268" lon="43.84366">
        <ele>1591.066694</ele>
        <time>2021-11-03T05:20:35.361Z</time>
      </trkpt>
      <trkpt lat="40.8029" lon="43.84059">
        <ele>1592.435888</ele>
        <time>2021-11-03T05:21:38.365Z</time>
      </trkpt>
      <trkpt lat="40.80354" lon="43.83767">
        <ele>1590.66652</ele>
        <time>2021-11-03T05:22:37.377Z</time>
      </trkpt>
      <trkpt lat="40.80433" lon="43.83557">
        <ele>1589.893167</ele>
        <time>2021-11-03T05:23:40.357Z</time>
      </trkpt>
      <trkpt lat="40.80435" lon="43.83317">
        <ele>1592.470366</ele>
        <time>2021-11-03T05:24:46.371Z</time>
      </trkpt>
      <trkpt lat="40.80642" lon="43.83249">
        <ele>1594.730203</ele>
        <time>2021-11-03T05:25:46.374Z</time>
      </trkpt>
      <trkpt lat="40.80858" lon="43.83175">
        <ele>1601.150721</ele>
        <time>2021-11-03T05:26:50.379Z</time>
      </trkpt>
      <trkpt lat="40.81062" lon="43.83109">
        <ele>1598.921723</ele>
        <time>2021-11-03T05:28:00.369Z</time>
      </trkpt>
      <trkpt lat="40.81279" lon="43.83118">
        <ele>1599.186699</ele>
        <time>2021-11-03T05:29:06.402Z</time>
      </trkpt>
      <trkpt lat="40.81454" lon="43.83056">
        <ele>1599.937776</ele>
        <time>2021-11-03T05:30:07.374Z</time>
      </trkpt>
      <trkpt lat="40.81576" lon="43.82833">
        <ele>1600.9278</ele>
        <time>2021-11-03T05:31:07.371Z</time>
      </trkpt>
      <trkpt lat="40.81712" lon="43.82589">
        <ele>1601.714527</ele>
        <time>2021-11-03T05:32:10.363Z</time>
      </trkpt>
      <trkpt lat="40.81837" lon="43.82368">
        <ele>1604.542439</ele>
        <time>2021-11-03T05:33:10.365Z</time>
      </trkpt>
      <trkpt lat="40.81963" lon="43.82141">
        <ele>1606.772323</ele>
        <time>2021-11-03T05:34:13.381Z</time>
      </trkpt>
      <trkpt lat="40.82083" lon="43.81927">
        <ele>1607.808688</ele>
        <time>2021-11-03T05:35:17.367Z</time>
      </trkpt>
      <trkpt lat="40.82207" lon="43.81707">
        <ele>1611.858818</ele>
        <time>2021-11-03T05:36:26.379Z</time>
      </trkpt>
      <trkpt lat="40.82335" lon="43.81477">
        <ele>1612.90998</ele>
        <time>2021-11-03T05:37:37.369Z</time>
      </trkpt>
      <trkpt lat="40.82457" lon="43.81257">
        <ele>1614.947013</ele>
        <time>2021-11-03T05:38:46.374Z</time>
      </trkpt>
      <trkpt lat="40.82591" lon="43.81017">
        <ele>1618.536942</ele>
        <time>2021-11-03T05:40:03.416Z</time>
      </trkpt>
      <trkpt lat="40.82718" lon="43.80787">
        <ele>1621.078839</ele>
        <time>2021-11-03T05:41:15.375Z</time>
      </trkpt>
      <trkpt lat="40.8284" lon="43.80571">
        <ele>1625.340098</ele>
        <time>2021-11-03T05:42:23.377Z</time>
      </trkpt>
      <trkpt lat="40.8297" lon="43.80342">
        <ele>1627.614009</ele>
        <time>2021-11-03T05:43:34.415Z</time>
      </trkpt>
      <trkpt lat="40.83091" lon="43.80128">
        <ele>1627.769931</ele>
        <time>2021-11-03T05:44:42.366Z</time>
      </trkpt>
      <trkpt lat="40.8323" lon="43.79881">
        <ele>1633.804498</ele>
        <time>2021-11-03T05:46:03.372Z</time>
      </trkpt>
      <trkpt lat="40.83354" lon="43.7966">
        <ele>1636.124438</ele>
        <time>2021-11-03T05:47:13.393Z</time>
      </trkpt>
      <trkpt lat="40.83489" lon="43.79427">
        <ele>1639.724464</ele>
        <time>2021-11-03T05:48:30.384Z</time>
      </trkpt>
      <trkpt lat="40.83629" lon="43.79182">
        <ele>1643.299783</ele>
        <time>2021-11-03T05:49:50.378Z</time>
      </trkpt>
      <trkpt lat="40.83751" lon="43.78968">
        <ele>1646.27708</ele>
        <time>2021-11-03T05:50:58.374Z</time>
      </trkpt>
      <trkpt lat="40.83881" lon="43.78737">
        <ele>1646.441081</ele>
        <time>2021-11-03T05:52:10.377Z</time>
      </trkpt>
      <trkpt lat="40.84008" lon="43.78515">
        <ele>1649.418323</ele>
        <time>2021-11-03T05:53:20.381Z</time>
      </trkpt>
      <trkpt lat="40.84138" lon="43.78287">
        <ele>1652.468145</ele>
        <time>2021-11-03T05:54:31.389Z</time>
      </trkpt>
      <trkpt lat="40.84266" lon="43.78059">
        <ele>1655.533146</ele>
        <time>2021-11-03T05:55:44.375Z</time>
      </trkpt>
      <trkpt lat="40.84392" lon="43.77842">
        <ele>1657.474136</ele>
        <time>2021-11-03T05:56:52.374Z</time>
      </trkpt>
      <trkpt lat="40.84518" lon="43.77617">
        <ele>1658.523098</ele>
        <time>2021-11-03T05:57:59.387Z</time>
      </trkpt>
      <trkpt lat="40.84644" lon="43.77397">
        <ele>1662.146896</ele>
        <time>2021-11-03T05:59:11.380Z</time>
      </trkpt>
      <trkpt lat="40.84778" lon="43.77164">
        <ele>1663.319069</ele>
        <time>2021-11-03T06:00:16.391Z</time>
      </trkpt>
      <trkpt lat="40.84902" lon="43.76943">
        <ele>1664.299668</ele>
        <time>2021-11-03T06:01:17.381Z</time>
      </trkpt>
      <trkpt lat="40.85025" lon="43.76728">
        <ele>1667.008679</ele>
        <time>2021-11-03T06:02:19.392Z</time>
      </trkpt>
      <trkpt lat="40.85157" lon="43.76499">
        <ele>1670.667926</ele>
        <time>2021-11-03T06:03:27.356Z</time>
      </trkpt>
      <trkpt lat="40.85275" lon="43.76282">
        <ele>1670.078204</ele>
        <time>2021-11-03T06:04:33.384Z</time>
      </trkpt>
      <trkpt lat="40.85392" lon="43.76049">
        <ele>1671.168393</ele>
        <time>2021-11-03T06:05:38.364Z</time>
      </trkpt>
      <trkpt lat="40.85549" lon="43.75888">
        <ele>1672.400075</ele>
        <time>2021-11-03T06:06:38.376Z</time>
      </trkpt>
      <trkpt lat="40.85751" lon="43.75852">
        <ele>1677.850032</ele>
        <time>2021-11-03T06:07:53.390Z</time>
      </trkpt>
      <trkpt lat="40.85969" lon="43.75827">
        <ele>1683.688099</ele>
        <time>2021-11-03T06:09:19.360Z</time>
      </trkpt>
      <trkpt lat="40.86162" lon="43.75739">
        <ele>1689.735305</ele>
        <time>2021-11-03T06:10:41.380Z</time>
      </trkpt>
      <trkpt lat="40.86353" lon="43.75629">
        <ele>1695.303272</ele>
        <time>2021-11-03T06:12:19.382Z</time>
      </trkpt>
      <trkpt lat="40.86541" lon="43.75521">
        <ele>1700.120074</ele>
        <time>2021-11-03T06:13:38.380Z</time>
      </trkpt>
      <trkpt lat="40.86731" lon="43.75399">
        <ele>1705.532871</ele>
        <time>2021-11-03T06:14:58.369Z</time>
      </trkpt>
      <trkpt lat="40.86922" lon="43.75269">
        <ele>1711.714996</ele>
        <time>2021-11-03T06:16:17.372Z</time>
      </trkpt>
      <trkpt lat="40.87128" lon="43.75176">
        <ele>1709.116127</ele>
        <time>2021-11-03T06:17:34.376Z</time>
      </trkpt>
      <trkpt lat="40.87342" lon="43.7511">
        <ele>1714.319518</ele>
        <time>2021-11-03T06:18:51.376Z</time>
      </trkpt>
      <trkpt lat="40.87533" lon="43.75053">
        <ele>1726.800063</ele>
        <time>2021-11-03T06:20:52.383Z</time>
      </trkpt>
      <trkpt lat="40.87735" lon="43.74994">
        <ele>1736.314291</ele>
        <time>2021-11-03T06:22:32.392Z</time>
      </trkpt>
      <trkpt lat="40.87938" lon="43.74934">
        <ele>1744.491727</ele>
        <time>2021-11-03T06:24:28.377Z</time>
      </trkpt>
      <trkpt lat="40.88135" lon="43.74872">
        <ele>1752.834669</ele>
        <time>2021-11-03T06:26:01.386Z</time>
      </trkpt>
      <trkpt lat="40.88338" lon="43.74814">
        <ele>1758.975109</ele>
        <time>2021-11-03T06:27:45.367Z</time>
      </trkpt>
      <trkpt lat="40.8854" lon="43.74766">
        <ele>1763.917212</ele>
        <time>2021-11-03T06:29:08.375Z</time>
      </trkpt>
      <trkpt lat="40.88761" lon="43.74746">
        <ele>1763.029315</ele>
        <time>2021-11-03T06:30:15.396Z</time>
      </trkpt>
      <trkpt lat="40.89008" lon="43.74746">
        <ele>1764.024113</ele>
        <time>2021-11-03T06:31:09.381Z</time>
      </trkpt>
      <trkpt lat="40.89095" lon="43.74945">
        <ele>1779.325915</ele>
        <time>2021-11-03T06:33:15.383Z</time>
      </trkpt>
      <trkpt lat="40.89074" lon="43.75207">
        <ele>1797.18014</ele>
        <time>2021-11-03T06:35:48.405Z</time>
      </trkpt>
      <trkpt lat="40.89104" lon="43.75451">
        <ele>1812.249705</ele>
        <time>2021-11-03T06:37:45.401Z</time>
      </trkpt>
      <trkpt lat="40.8921" lon="43.7567">
        <ele>1815.460682</ele>
        <time>2021-11-03T06:39:39.386Z</time>
      </trkpt>
      <trkpt lat="40.89354" lon="43.7591">
        <ele>1813.419304</ele>
        <time>2021-11-03T06:41:17.448Z</time>
      </trkpt>
      <trkpt lat="40.89537" lon="43.76105">
        <ele>1800.886284</ele>
        <time>2021-11-03T06:41:43.392Z</time>
      </trkpt>
      <trkpt lat="40.89772" lon="43.76158">
        <ele>1789.698877</ele>
        <time>2021-11-03T06:42:05.400Z</time>
      </trkpt>
      <trkpt lat="40.89982" lon="43.76195">
        <ele>1780.406427</ele>
        <time>2021-11-03T06:42:25.407Z</time>
      </trkpt>
      <trkpt lat="40.90202" lon="43.76259">
        <ele>1773.115673</ele>
        <time>2021-11-03T06:43:13.384Z</time>
      </trkpt>
      <trkpt lat="40.90364" lon="43.76479">
        <ele>1776.71987</ele>
        <time>2021-11-03T06:44:17.431Z</time>
      </trkpt>
      <trkpt lat="40.90595" lon="43.76599">
        <ele>1769.834501</ele>
        <time>2021-11-03T06:45:04.377Z</time>
      </trkpt>
      <trkpt lat="40.90808" lon="43.76358">
        <ele>1751.767647</ele>
        <time>2021-11-03T06:45:38.429Z</time>
      </trkpt>
      <trkpt lat="40.90938" lon="43.76591">
        <ele>1736.277571</ele>
        <time>2021-11-03T06:46:04.394Z</time>
      </trkpt>
      <trkpt lat="40.91" lon="43.76484">
        <ele>1727.831921</ele>
        <time>2021-11-03T06:46:49.409Z</time>
      </trkpt>
      <trkpt lat="40.91129" lon="43.76302">
        <ele>1729.266166</ele>
        <time>2021-11-03T06:48:02.400Z</time>
      </trkpt>
      <trkpt lat="40.91281" lon="43.76188">
        <ele>1724.897419</ele>
        <time>2021-11-03T06:48:47.384Z</time>
      </trkpt>
      <trkpt lat="40.91076" lon="43.76165">
        <ele>1735.343053</ele>
        <time>2021-11-03T06:50:43.430Z</time>
      </trkpt>
      <trkpt lat="40.90912" lon="43.76034">
        <ele>1752.579568</ele>
        <time>2021-11-03T06:53:02.400Z</time>
      </trkpt>
      <trkpt lat="40.90907" lon="43.75788">
        <ele>1764.253019</ele>
        <time>2021-11-03T06:55:03.399Z</time>
      </trkpt>
      <trkpt lat="40.90929" lon="43.75511">
        <ele>1769.624757</ele>
        <time>2021-11-03T06:56:57.396Z</time>
      </trkpt>
      <trkpt lat="40.91093" lon="43.75458">
        <ele>1775.195792</ele>
        <time>2021-11-03T06:58:21.401Z</time>
      </trkpt>
      <trkpt lat="40.91303" lon="43.75472">
        <ele>1783.845837</ele>
        <time>2021-11-03T07:16:40.423Z</time>
      </trkpt>
      <trkpt lat="40.91514" lon="43.75486">
        <ele>1787.537155</ele>
        <time>2021-11-03T07:17:49.410Z</time>
      </trkpt>
      <trkpt lat="40.91713" lon="43.755">
        <ele>1796.378264</ele>
        <time>2021-11-03T07:19:25.410Z</time>
      </trkpt>
      <trkpt lat="40.91937" lon="43.75513">
        <ele>1802.515893</ele>
        <time>2021-11-03T07:20:55.415Z</time>
      </trkpt>
      <trkpt lat="40.92145" lon="43.75532">
        <ele>1810.629748</ele>
        <time>2021-11-03T07:22:28.424Z</time>
      </trkpt>
      <trkpt lat="40.9233" lon="43.75685">
        <ele>1818.044048</ele>
        <time>2021-11-03T07:24:05.420Z</time>
      </trkpt>
      <trkpt lat="40.92508" lon="43.75828">
        <ele>1822.621652</ele>
        <time>2021-11-03T07:25:25.400Z</time>
      </trkpt>
      <trkpt lat="40.92679" lon="43.75955">
        <ele>1832.387367</ele>
        <time>2021-11-03T07:27:03.407Z</time>
      </trkpt>
      <trkpt lat="40.92859" lon="43.7609">
        <ele>1841.90736</ele>
        <time>2021-11-03T07:28:55.409Z</time>
      </trkpt>
      <trkpt lat="40.93017" lon="43.76264">
        <ele>1846.580226</ele>
        <time>2021-11-03T07:30:23.408Z</time>
      </trkpt>
      <trkpt lat="40.9318" lon="43.76472">
        <ele>1852.58523</ele>
        <time>2021-11-03T07:31:52.399Z</time>
      </trkpt>
      <trkpt lat="40.93328" lon="43.76662">
        <ele>1860.381491</ele>
        <time>2021-11-03T07:33:12.414Z</time>
      </trkpt>
      <trkpt lat="40.93477" lon="43.76853">
        <ele>1864.918305</ele>
        <time>2021-11-03T07:34:33.404Z</time>
      </trkpt>
      <trkpt lat="40.93636" lon="43.77055">
        <ele>1866.314728</ele>
        <time>2021-11-03T07:35:49.430Z</time>
      </trkpt>
      <trkpt lat="40.93797" lon="43.7726">
        <ele>1866.050321</ele>
        <time>2021-11-03T07:36:51.410Z</time>
      </trkpt>
      <trkpt lat="40.93979" lon="43.77457">
        <ele>1868.842422</ele>
        <time>2021-11-03T07:39:31.401Z</time>
      </trkpt>
      <trkpt lat="40.94132" lon="43.77622">
        <ele>1879.134449</ele>
        <time>2021-11-03T07:41:16.392Z</time>
      </trkpt>
      <trkpt lat="40.94286" lon="43.77786">
        <ele>1891.416732</ele>
        <time>2021-11-03T07:43:31.403Z</time>
      </trkpt>
      <trkpt lat="40.94473" lon="43.77912">
        <ele>1900.99507</ele>
        <time>2021-11-03T07:45:15.411Z</time>
      </trkpt>
      <trkpt lat="40.94672" lon="43.7796">
        <ele>1908.838863</ele>
        <time>2021-11-03T07:46:43.444Z</time>
      </trkpt>
      <trkpt lat="40.94902" lon="43.78078">
        <ele>1905.604106</ele>
        <time>2021-11-03T07:47:44.411Z</time>
      </trkpt>
      <trkpt lat="40.95127" lon="43.78253">
        <ele>1894.984682</ele>
        <time>2021-11-03T07:48:24.396Z</time>
      </trkpt>
      <trkpt lat="40.95305" lon="43.78513">
        <ele>1892.298562</ele>
        <time>2021-11-03T07:49:04.409Z</time>
      </trkpt>
      <trkpt lat="40.95133" lon="43.7864">
        <ele>1890.992476</ele>
        <time>2021-11-03T07:50:15.427Z</time>
      </trkpt>
      <trkpt lat="40.94895" lon="43.78758">
        <ele>1879.296374</ele>
        <time>2021-11-03T07:50:55.434Z</time>
      </trkpt>
      <trkpt lat="40.94878" lon="43.78848">
        <ele>1862.989371</ele>
        <time>2021-11-03T07:51:42.413Z</time>
      </trkpt>
      <trkpt lat="40.95091" lon="43.78917">
        <ele>1850.526011</ele>
        <time>2021-11-03T07:52:29.400Z</time>
      </trkpt>
      <trkpt lat="40.95143" lon="43.78949">
        <ele>1841.146507</ele>
        <time>2021-11-03T07:53:13.405Z</time>
      </trkpt>
      <trkpt lat="40.94988" lon="43.79081">
        <ele>1827.832349</ele>
        <time>2021-11-03T07:54:21.423Z</time>
      </trkpt>
      <trkpt lat="40.94811" lon="43.79112">
        <ele>1843.716736</ele>
        <time>2021-11-03T07:56:49.403Z</time>
      </trkpt>
      <trkpt lat="40.94992" lon="43.79193">
        <ele>1858.891197</ele>
        <time>2021-11-03T07:59:02.423Z</time>
      </trkpt>
      <trkpt lat="40.94796" lon="43.79167">
        <ele>1868.724239</ele>
        <time>2021-11-03T08:00:49.429Z</time>
      </trkpt>
      <trkpt lat="40.94674" lon="43.79313">
        <ele>1878.940755</ele>
        <time>2021-11-03T08:02:51.403Z</time>
      </trkpt>
      <trkpt lat="40.9478" lon="43.79536">
        <ele>1890.340852</ele>
        <time>2021-11-03T08:04:56.392Z</time>
      </trkpt>
      <trkpt lat="40.94914" lon="43.7972">
        <ele>1901.43309</ele>
        <time>2021-11-03T08:06:56.409Z</time>
      </trkpt>
      <trkpt lat="40.94989" lon="43.79967">
        <ele>1908.188312</ele>
        <time>2021-11-03T08:08:45.412Z</time>
      </trkpt>
      <trkpt lat="40.94979" lon="43.8023">
        <ele>1914.486365</ele>
        <time>2021-11-03T08:10:12.440Z</time>
      </trkpt>
      <trkpt lat="40.94973" lon="43.80514">
        <ele>1919.162003</ele>
        <time>2021-11-03T08:11:21.405Z</time>
      </trkpt>
      <trkpt lat="40.94967" lon="43.80777">
        <ele>1923.596509</ele>
        <time>2021-11-03T08:12:49.419Z</time>
      </trkpt>
      <trkpt lat="40.9496" lon="43.81056">
        <ele>1926.647408</ele>
        <time>2021-11-03T08:13:53.413Z</time>
      </trkpt>
      <trkpt lat="40.94951" lon="43.8134">
        <ele>1929.958938</ele>
        <time>2021-11-03T08:14:57.408Z</time>
      </trkpt>
      <trkpt lat="40.9494" lon="43.8161">
        <ele>1933.806748</ele>
        <time>2021-11-03T08:16:04.414Z</time>
      </trkpt>
      <trkpt lat="40.94935" lon="43.81902">
        <ele>1937.178736</ele>
        <time>2021-11-03T08:17:14.392Z</time>
      </trkpt>
      <trkpt lat="40.94926" lon="43.82213">
        <ele>1938.914389</ele>
        <time>2021-11-03T08:18:14.428Z</time>
      </trkpt>
      <trkpt lat="40.94889" lon="43.82473">
        <ele>1943.909461</ele>
        <time>2021-11-03T08:19:17.412Z</time>
      </trkpt>
      <trkpt lat="40.94848" lon="43.8275">
        <ele>1947.795917</ele>
        <time>2021-11-03T08:20:24.410Z</time>
      </trkpt>
      <trkpt lat="40.94808" lon="43.83018">
        <ele>1951.882128</ele>
        <time>2021-11-03T08:21:34.404Z</time>
      </trkpt>
      <trkpt lat="40.94758" lon="43.83295">
        <ele>1955.040269</ele>
        <time>2021-11-03T08:22:48.418Z</time>
      </trkpt>
      <trkpt lat="40.94696" lon="43.83562">
        <ele>1954.524214</ele>
        <time>2021-11-03T08:23:38.417Z</time>
      </trkpt>
      <trkpt lat="40.94631" lon="43.83843">
        <ele>1954.116501</ele>
        <time>2021-11-03T08:24:33.443Z</time>
      </trkpt>
      <trkpt lat="40.94564" lon="43.84129">
        <ele>1955.000206</ele>
        <time>2021-11-03T08:25:36.427Z</time>
      </trkpt>
      <trkpt lat="40.94499" lon="43.84416">
        <ele>1955.950697</ele>
        <time>2021-11-03T08:26:36.418Z</time>
      </trkpt>
      <trkpt lat="40.94434" lon="43.84689">
        <ele>1967.494631</ele>
        <time>2021-11-03T08:28:03.409Z</time>
      </trkpt>
      <trkpt lat="40.94374" lon="43.84949">
        <ele>1970.948297</ele>
        <time>2021-11-03T08:29:15.419Z</time>
      </trkpt>
      <trkpt lat="40.9431" lon="43.85224">
        <ele>1970.702103</ele>
        <time>2021-11-03T08:30:15.408Z</time>
      </trkpt>
      <trkpt lat="40.94248" lon="43.85496">
        <ele>1973.037131</ele>
        <time>2021-11-03T08:31:18.420Z</time>
      </trkpt>
      <trkpt lat="40.94184" lon="43.85774">
        <ele>1976.914116</ele>
        <time>2021-11-03T08:32:18.421Z</time>
      </trkpt>
      <trkpt lat="40.94119" lon="43.86049">
        <ele>1980.771185</ele>
        <time>2021-11-03T08:33:22.404Z</time>
      </trkpt>
      <trkpt lat="40.94131" lon="43.86254">
        <ele>1986.981948</ele>
        <time>2021-11-03T08:34:58.404Z</time>
      </trkpt>
      <trkpt lat="40.94354" lon="43.86321">
        <ele>1987.341735</ele>
        <time>2021-11-03T08:36:00.423Z</time>
      </trkpt>
      <trkpt lat="40.94554" lon="43.86517">
        <ele>1986.897702</ele>
        <time>2021-11-03T08:37:03.433Z</time>
      </trkpt>
      <trkpt lat="40.94707" lon="43.86728">
        <ele>1987.484148</ele>
        <time>2021-11-03T08:38:00.416Z</time>
      </trkpt>
      <trkpt lat="40.94745" lon="43.87072">
        <ele>1986.69943</ele>
        <time>2021-11-03T08:39:03.408Z</time>
      </trkpt>
      <trkpt lat="40.9483" lon="43.87334">
        <ele>1986.797295</ele>
        <time>2021-11-03T08:39:50.416Z</time>
      </trkpt>
      <trkpt lat="40.95015" lon="43.87297">
        <ele>2001.919451</ele>
        <time>2021-11-03T08:41:26.420Z</time>
      </trkpt>
      <trkpt lat="40.95201" lon="43.87187">
        <ele>2015.328384</ele>
        <time>2021-11-03T08:43:25.430Z</time>
      </trkpt>
      <trkpt lat="40.95369" lon="43.87165">
        <ele>2025.415427</ele>
        <time>2021-11-03T08:45:20.420Z</time>
      </trkpt>
      <trkpt lat="40.95535" lon="43.87343">
        <ele>2032.118957</ele>
        <time>2021-11-03T08:46:59.424Z</time>
      </trkpt>
      <trkpt lat="40.95717" lon="43.87451">
        <ele>2045.360671</ele>
        <time>2021-11-03T08:48:53.437Z</time>
      </trkpt>
      <trkpt lat="40.95831" lon="43.87649">
        <ele>2062.790809</ele>
        <time>2021-11-03T08:51:25.419Z</time>
      </trkpt>
      <trkpt lat="40.95882" lon="43.87907">
        <ele>2080.948247</ele>
        <time>2021-11-03T08:54:19.426Z</time>
      </trkpt>
      <trkpt lat="40.96014" lon="43.88074">
        <ele>2099.657123</ele>
        <time>2021-11-03T08:56:54.416Z</time>
      </trkpt>
      <trkpt lat="40.96218" lon="43.88149">
        <ele>2107.869106</ele>
        <time>2021-11-03T08:58:45.415Z</time>
      </trkpt>
      <trkpt lat="40.96407" lon="43.88245">
        <ele>2110.154093</ele>
        <time>2021-11-03T09:00:23.390Z</time>
      </trkpt>
      <trkpt lat="40.96553" lon="43.88464">
        <ele>2107.477334</ele>
        <time>2021-11-03T09:01:28.436Z</time>
      </trkpt>
      <trkpt lat="40.96761" lon="43.88609">
        <ele>2110.321468</ele>
        <time>2021-11-03T09:02:31.435Z</time>
      </trkpt>
      <trkpt lat="40.9696" lon="43.88746">
        <ele>2108.319785</ele>
        <time>2021-11-03T09:03:27.441Z</time>
      </trkpt>
      <trkpt lat="40.97186" lon="43.88959">
        <ele>2100.477222</ele>
        <time>2021-11-03T09:04:07.443Z</time>
      </trkpt>
      <trkpt lat="40.97317" lon="43.89278">
        <ele>2087.305157</ele>
        <time>2021-11-03T09:04:40.487Z</time>
      </trkpt>
      <trkpt lat="40.97378" lon="43.89534">
        <ele>2074.292042</ele>
        <time>2021-11-03T09:05:04.426Z</time>
      </trkpt>
      <trkpt lat="40.97432" lon="43.89874">
        <ele>2054.866225</ele>
        <time>2021-11-03T09:05:40.438Z</time>
      </trkpt>
      <trkpt lat="40.97627" lon="43.89755">
        <ele>2053.525219</ele>
        <time>2021-11-03T09:18:50.431Z</time>
      </trkpt>
      <trkpt lat="40.9785" lon="43.89553">
        <ele>2045.589386</ele>
        <time>2021-11-03T09:19:38.431Z</time>
      </trkpt>
      <trkpt lat="40.98046" lon="43.89472">
        <ele>2039.172403</ele>
        <time>2021-11-03T09:20:00.423Z</time>
      </trkpt>
      <trkpt lat="40.98256" lon="43.89384">
        <ele>2035.434522</ele>
        <time>2021-11-03T09:20:24.439Z</time>
      </trkpt>
      <trkpt lat="40.9855" lon="43.89265">
        <ele>2033.693517</ele>
        <time>2021-11-03T09:21:06.425Z</time>
      </trkpt>
      <trkpt lat="40.98764" lon="43.89176">
        <ele>2032.325064</ele>
        <time>2021-11-03T09:21:46.418Z</time>
      </trkpt>
      <trkpt lat="40.98968" lon="43.89093">
        <ele>2030.734934</ele>
        <time>2021-11-03T09:22:30.427Z</time>
      </trkpt>
      <trkpt lat="40.9918" lon="43.89006">
        <ele>2029.83906</ele>
        <time>2021-11-03T09:23:10.418Z</time>
      </trkpt>
      <trkpt lat="40.99392" lon="43.88918">
        <ele>2030.519962</ele>
        <time>2021-11-03T09:23:50.419Z</time>
      </trkpt>
      <trkpt lat="40.99606" lon="43.88831">
        <ele>2029.145292</ele>
        <time>2021-11-03T09:24:32.426Z</time>
      </trkpt>
      <trkpt lat="40.99807" lon="43.88748">
        <ele>2029.155916</ele>
        <time>2021-11-03T09:25:12.426Z</time>
      </trkpt>
      <trkpt lat="41.0003" lon="43.88657">
        <ele>2028.179564</ele>
        <time>2021-11-03T09:25:54.436Z</time>
      </trkpt>
      <trkpt lat="41.00223" lon="43.88578">
        <ele>2026.895026</ele>
        <time>2021-11-03T09:26:35.431Z</time>
      </trkpt>
      <trkpt lat="41.00433" lon="43.88492">
        <ele>2024.971835</ele>
        <time>2021-11-03T09:27:15.440Z</time>
      </trkpt>
      <trkpt lat="41.00675" lon="43.88394">
        <ele>2021.098051</ele>
        <time>2021-11-03T09:27:57.430Z</time>
      </trkpt>
      <trkpt lat="41.00889" lon="43.88304">
        <ele>2018.211742</ele>
        <time>2021-11-03T09:28:37.434Z</time>
      </trkpt>
      <trkpt lat="41.01104" lon="43.88217">
        <ele>2017.918465</ele>
        <time>2021-11-03T09:29:21.440Z</time>
      </trkpt>
      <trkpt lat="41.013" lon="43.88219">
        <ele>2022.097263</ele>
        <time>2021-11-03T09:30:10.429Z</time>
      </trkpt>
      <trkpt lat="41.01458" lon="43.88368">
        <ele>2034.14166</ele>
        <time>2021-11-03T09:31:58.433Z</time>
      </trkpt>
      <trkpt lat="41.01659" lon="43.88381">
        <ele>2044.842191</ele>
        <time>2021-11-03T09:33:58.439Z</time>
      </trkpt>
      <trkpt lat="41.01828" lon="43.88236">
        <ele>2049.102042</ele>
        <time>2021-11-03T09:35:16.431Z</time>
      </trkpt>
      <trkpt lat="41.02027" lon="43.8807">
        <ele>2046.050864</ele>
        <time>2021-11-03T09:36:07.412Z</time>
      </trkpt>
      <trkpt lat="41.02248" lon="43.87889">
        <ele>2037.219829</ele>
        <time>2021-11-03T09:36:39.463Z</time>
      </trkpt>
      <trkpt lat="41.02473" lon="43.87761">
        <ele>2025.465604</ele>
        <time>2021-11-03T09:37:05.433Z</time>
      </trkpt>
      <trkpt lat="41.02695" lon="43.87733">
        <ele>2017.211939</ele>
        <time>2021-11-03T09:37:26.424Z</time>
      </trkpt>
      <trkpt lat="41.02877" lon="43.87479">
        <ele>2009.998156</ele>
        <time>2021-11-03T09:37:56.426Z</time>
      </trkpt>
      <trkpt lat="41.03034" lon="43.87211">
        <ele>2010.752097</ele>
        <time>2021-11-03T09:38:44.425Z</time>
      </trkpt>
      <trkpt lat="41.0317" lon="43.87045">
        <ele>2016.400714</ele>
        <time>2021-11-03T09:43:05.428Z</time>
      </trkpt>
      <trkpt lat="41.03331" lon="43.86819">
        <ele>2016.733169</ele>
        <time>2021-11-03T09:43:59.430Z</time>
      </trkpt>
      <trkpt lat="41.03558" lon="43.8655">
        <ele>2008.623671</ele>
        <time>2021-11-03T09:44:41.440Z</time>
      </trkpt>
      <trkpt lat="41.03655" lon="43.86299">
        <ele>2010.84342</ele>
        <time>2021-11-03T09:45:37.487Z</time>
      </trkpt>
      <trkpt lat="41.03817" lon="43.86126">
        <ele>2022.253298</ele>
        <time>2021-11-03T09:47:04.432Z</time>
      </trkpt>
      <trkpt lat="41.04013" lon="43.86019">
        <ele>2020.962679</ele>
        <time>2021-11-03T09:47:58.438Z</time>
      </trkpt>
      <trkpt lat="41.04157" lon="43.85833">
        <ele>2025.67918</ele>
        <time>2021-11-03T09:49:12.413Z</time>
      </trkpt>
      <trkpt lat="41.04322" lon="43.85664">
        <ele>2036.544501</ele>
        <time>2021-11-03T09:51:06.476Z</time>
      </trkpt>
      <trkpt lat="41.04511" lon="43.85529">
        <ele>2033.101095</ele>
        <time>2021-11-03T09:52:00.436Z</time>
      </trkpt>
      <trkpt lat="41.04693" lon="43.85309">
        <ele>2031.624975</ele>
        <time>2021-11-03T09:53:01.426Z</time>
      </trkpt>
      <trkpt lat="41.04849" lon="43.85164">
        <ele>2041.134406</ele>
        <time>2021-11-03T09:54:36.443Z</time>
      </trkpt>
      <trkpt lat="41.05043" lon="43.852">
        <ele>2056.105222</ele>
        <time>2021-11-03T09:56:26.430Z</time>
      </trkpt>
      <trkpt lat="41.05251" lon="43.85185">
        <ele>2059.414566</ele>
        <time>2021-11-03T09:57:59.423Z</time>
      </trkpt>
      <trkpt lat="41.05441" lon="43.85036">
        <ele>2056.114301</ele>
        <time>2021-11-03T09:58:48.448Z</time>
      </trkpt>
      <trkpt lat="41.05613" lon="43.84884">
        <ele>2050.558484</ele>
        <time>2021-11-03T09:59:30.472Z</time>
      </trkpt>
      <trkpt lat="41.05782" lon="43.84728">
        <ele>2045.14133</ele>
        <time>2021-11-03T10:00:14.432Z</time>
      </trkpt>
      <trkpt lat="41.05991" lon="43.84536">
        <ele>2039.987166</ele>
        <time>2021-11-03T10:00:56.473Z</time>
      </trkpt>
      <trkpt lat="41.06214" lon="43.8433">
        <ele>2033.951693</ele>
        <time>2021-11-03T10:01:36.442Z</time>
      </trkpt>
      <trkpt lat="41.06483" lon="43.84078">
        <ele>2026.504287</ele>
        <time>2021-11-03T10:02:16.436Z</time>
      </trkpt>
      <trkpt lat="41.06696" lon="43.83881">
        <ele>2025.347576</ele>
        <time>2021-11-03T10:03:05.448Z</time>
      </trkpt>
      <trkpt lat="41.06869" lon="43.83722">
        <ele>2027.254501</ele>
        <time>2021-11-03T10:04:05.459Z</time>
      </trkpt>
      <trkpt lat="41.07047" lon="43.83554">
        <ele>2027.601878</ele>
        <time>2021-11-03T10:13:53.453Z</time>
      </trkpt>
      <trkpt lat="41.07231" lon="43.83383">
        <ele>2033.668966</ele>
        <time>2021-11-03T10:15:12.428Z</time>
      </trkpt>
      <trkpt lat="41.07408" lon="43.8321">
        <ele>2037.81233</ele>
        <time>2021-11-03T10:16:33.441Z</time>
      </trkpt>
      <trkpt lat="41.07554" lon="43.83016">
        <ele>2040.003611</ele>
        <time>2021-11-03T10:17:37.443Z</time>
      </trkpt>
      <trkpt lat="41.07699" lon="43.82825">
        <ele>2044.257531</ele>
        <time>2021-11-03T10:18:50.438Z</time>
      </trkpt>
      <trkpt lat="41.07853" lon="43.8262">
        <ele>2049.007739</ele>
        <time>2021-11-03T10:20:14.436Z</time>
      </trkpt>
      <trkpt lat="41.08004" lon="43.82428">
        <ele>2053.469647</ele>
        <time>2021-11-03T10:21:34.446Z</time>
      </trkpt>
      <trkpt lat="41.08158" lon="43.82244">
        <ele>2058.812994</ele>
        <time>2021-11-03T10:22:54.424Z</time>
      </trkpt>
      <trkpt lat="41.08317" lon="43.82062">
        <ele>2062.772977</ele>
        <time>2021-11-03T10:24:25.451Z</time>
      </trkpt>
      <trkpt lat="41.08475" lon="43.81903">
        <ele>2063.352884</ele>
        <time>2021-11-03T10:25:29.468Z</time>
      </trkpt>
      <trkpt lat="41.08673" lon="43.8176">
        <ele>2059.98279</ele>
        <time>2021-11-03T10:26:27.477Z</time>
      </trkpt>
      <trkpt lat="41.08882" lon="43.81654">
        <ele>2057.851359</ele>
        <time>2021-11-03T10:27:18.457Z</time>
      </trkpt>
      <trkpt lat="41.09085" lon="43.81567">
        <ele>2058.810868</ele>
        <time>2021-11-03T10:52:24.450Z</time>
      </trkpt>
      <trkpt lat="41.09295" lon="43.81532">
        <ele>2064.550469</ele>
        <time>2021-11-03T10:53:48.458Z</time>
      </trkpt>
      <trkpt lat="41.09504" lon="43.81491">
        <ele>2069.204709</ele>
        <time>2021-11-03T10:55:08.455Z</time>
      </trkpt>
      <trkpt lat="41.09724" lon="43.81431">
        <ele>2073.050444</ele>
        <time>2021-11-03T10:56:31.464Z</time>
      </trkpt>
      <trkpt lat="41.09921" lon="43.8134">
        <ele>2075.780687</ele>
        <time>2021-11-03T10:57:41.455Z</time>
      </trkpt>
      <trkpt lat="41.10121" lon="43.81243">
        <ele>2079.681806</ele>
        <time>2021-11-03T10:58:53.446Z</time>
      </trkpt>
      <trkpt lat="41.10348" lon="43.81158">
        <ele>2086.328576</ele>
        <time>2021-11-03T11:00:15.453Z</time>
      </trkpt>
      <trkpt lat="41.10544" lon="43.81088">
        <ele>2091.68844</ele>
        <time>2021-11-03T11:01:35.453Z</time>
      </trkpt>
      <trkpt lat="41.1075" lon="43.8103">
        <ele>2095.468786</ele>
        <time>2021-11-03T11:02:59.449Z</time>
      </trkpt>
      <trkpt lat="41.10952" lon="43.80991">
        <ele>2099.380503</ele>
        <time>2021-11-03T11:04:19.456Z</time>
      </trkpt>
      <trkpt lat="41.11154" lon="43.80955">
        <ele>2103.799067</ele>
        <time>2021-11-03T11:05:39.457Z</time>
      </trkpt>
      <trkpt lat="41.11374" lon="43.80904">
        <ele>2109.463742</ele>
        <time>2021-11-03T11:07:03.445Z</time>
      </trkpt>
      <trkpt lat="41.11569" lon="43.80855">
        <ele>2116.954608</ele>
        <time>2021-11-03T11:08:25.460Z</time>
      </trkpt>
      <trkpt lat="41.11785" lon="43.80826">
        <ele>2124.355024</ele>
        <time>2021-11-03T11:09:51.455Z</time>
      </trkpt>
      <trkpt lat="41.11996" lon="43.8084">
        <ele>2129.652362</ele>
        <time>2021-11-03T11:11:13.497Z</time>
      </trkpt>
      <trkpt lat="41.1221" lon="43.80875">
        <ele>2132.661121</ele>
        <time>2021-11-03T11:12:26.451Z</time>
      </trkpt>
      <trkpt lat="41.12416" lon="43.80907">
        <ele>2132.714904</ele>
        <time>2021-11-03T11:13:30.450Z</time>
      </trkpt>
      <trkpt lat="41.12621" lon="43.80854">
        <ele>2134.0941</ele>
        <time>2021-11-03T11:14:35.463Z</time>
      </trkpt>
      <trkpt lat="41.12832" lon="43.8073">
        <ele>2136.07681</ele>
        <time>2021-11-03T11:15:52.478Z</time>
      </trkpt>
      <trkpt lat="41.13014" lon="43.8057">
        <ele>2136.886936</ele>
        <time>2021-11-03T11:16:52.436Z</time>
      </trkpt>
      <trkpt lat="41.13182" lon="43.80407">
        <ele>2140.556195</ele>
        <time>2021-11-03T11:17:52.440Z</time>
      </trkpt>
      <trkpt lat="41.13379" lon="43.80207">
        <ele>2135.764022</ele>
        <time>2021-11-03T11:18:41.459Z</time>
      </trkpt>
      <trkpt lat="41.13542" lon="43.80013">
        <ele>2140.50777</ele>
        <time>2021-11-03T11:19:40.463Z</time>
      </trkpt>
      <trkpt lat="41.13681" lon="43.79809">
        <ele>2153.34755</ele>
        <time>2021-11-03T11:21:25.497Z</time>
      </trkpt>
      <trkpt lat="41.13839" lon="43.79607">
        <ele>2160.85074</ele>
        <time>2021-11-03T11:37:03.490Z</time>
      </trkpt>
      <trkpt lat="41.13884" lon="43.79338">
        <ele>2169.406731</ele>
        <time>2021-11-03T11:40:39.462Z</time>
      </trkpt>
      <trkpt lat="41.14051" lon="43.79206">
        <ele>2184.952394</ele>
        <time>2021-11-03T11:42:04.463Z</time>
      </trkpt>
      <trkpt lat="41.14209" lon="43.79021">
        <ele>2167.767427</ele>
        <time>2021-11-03T11:43:15.474Z</time>
      </trkpt>
      <trkpt lat="41.14393" lon="43.78806">
        <ele>2167.873198</ele>
        <time>2021-11-03T11:50:43.470Z</time>
      </trkpt>
      <trkpt lat="41.14567" lon="43.78632">
        <ele>2167.82908</ele>
        <time>2021-11-03T11:51:45.487Z</time>
      </trkpt>
      <trkpt lat="41.14784" lon="43.78476">
        <ele>2162.521566</ele>
        <time>2021-11-03T11:52:42.471Z</time>
      </trkpt>
      <trkpt lat="41.14969" lon="43.78345">
        <ele>2158.980974</ele>
        <time>2021-11-03T11:53:24.461Z</time>
      </trkpt>
      <trkpt lat="41.15159" lon="43.78168">
        <ele>2155.748817</ele>
        <time>2021-11-03T11:54:24.463Z</time>
      </trkpt>
      <trkpt lat="41.15363" lon="43.77975">
        <ele>2155.087837</ele>
        <time>2021-11-03T11:55:27.473Z</time>
      </trkpt>
      <trkpt lat="41.1553" lon="43.77801">
        <ele>2154.46272</ele>
        <time>2021-11-03T11:56:27.464Z</time>
      </trkpt>
      <trkpt lat="41.15704" lon="43.7762">
        <ele>2153.522969</ele>
        <time>2021-11-03T11:57:27.476Z</time>
      </trkpt>
      <trkpt lat="41.15891" lon="43.77416">
        <ele>2149.495703</ele>
        <time>2021-11-03T11:58:30.472Z</time>
      </trkpt>
      <trkpt lat="41.16055" lon="43.7724">
        <ele>2148.679756</ele>
        <time>2021-11-03T11:59:32.473Z</time>
      </trkpt>
      <trkpt lat="41.16249" lon="43.77029">
        <ele>2144.576314</ele>
        <time>2021-11-03T12:00:16.460Z</time>
      </trkpt>
      <trkpt lat="41.16489" lon="43.76795">
        <ele>2136.355325</ele>
        <time>2021-11-03T12:00:56.466Z</time>
      </trkpt>
      <trkpt lat="41.16685" lon="43.766">
        <ele>2132.784099</ele>
        <time>2021-11-03T12:01:36.466Z</time>
      </trkpt>
      <trkpt lat="41.16895" lon="43.76438">
        <ele>2131.55929</ele>
        <time>2021-11-03T12:02:32.475Z</time>
      </trkpt>
      <trkpt lat="41.17089" lon="43.76313">
        <ele>2136.5723</ele>
        <time>2021-11-03T12:03:36.497Z</time>
      </trkpt>
      <trkpt lat="41.17282" lon="43.76179">
        <ele>2145.056311</ele>
        <time>2021-11-03T12:05:16.501Z</time>
      </trkpt>
      <trkpt lat="41.1746" lon="43.76048">
        <ele>2150.790394</ele>
        <time>2021-11-03T12:06:49.495Z</time>
      </trkpt>
      <trkpt lat="41.17631" lon="43.75925">
        <ele>2153.150026</ele>
        <time>2021-11-03T12:07:51.464Z</time>
      </trkpt>
      <trkpt lat="41.17827" lon="43.75781">
        <ele>2151.512251</ele>
        <time>2021-11-03T12:09:01.521Z</time>
      </trkpt>
      <trkpt lat="41.18076" lon="43.75586">
        <ele>2144.289392</ele>
        <time>2021-11-03T12:09:41.470Z</time>
      </trkpt>
      <trkpt lat="41.18272" lon="43.75434">
        <ele>2144.421775</ele>
        <time>2021-11-03T12:10:31.481Z</time>
      </trkpt>
      <trkpt lat="41.18463" lon="43.7521">
        <ele>2138.060917</ele>
        <time>2021-11-03T12:11:20.462Z</time>
      </trkpt>
      <trkpt lat="41.18605" lon="43.7504">
        <ele>2130.838028</ele>
        <time>2021-11-03T12:11:40.467Z</time>
      </trkpt>
      <trkpt lat="41.18783" lon="43.74825">
        <ele>2122.274298</ele>
        <time>2021-11-03T12:12:06.499Z</time>
      </trkpt>
      <trkpt lat="41.18927" lon="43.74544">
        <ele>2121.18571</ele>
        <time>2021-11-03T12:12:49.509Z</time>
      </trkpt>
      <trkpt lat="41.18938" lon="43.74219">
        <ele>2123.910535</ele>
        <time>2021-11-03T12:15:17.482Z</time>
      </trkpt>
      <trkpt lat="41.18951" lon="43.73942">
        <ele>2124.7151</ele>
        <time>2021-11-03T12:16:22.477Z</time>
      </trkpt>
      <trkpt lat="41.19023" lon="43.73655">
        <ele>2124.460197</ele>
        <time>2021-11-03T12:17:27.478Z</time>
      </trkpt>
      <trkpt lat="41.19106" lon="43.73388">
        <ele>2128.630587</ele>
        <time>2021-11-03T12:18:48.471Z</time>
      </trkpt>
      <trkpt lat="41.1921" lon="43.73134">
        <ele>2124.276439</ele>
        <time>2021-11-03T12:19:35.480Z</time>
      </trkpt>
      <trkpt lat="41.19355" lon="43.72852">
        <ele>2114.321019</ele>
        <time>2021-11-03T12:20:09.475Z</time>
      </trkpt>
      <trkpt lat="41.19474" lon="43.72633">
        <ele>2104.771198</ele>
        <time>2021-11-03T12:20:29.496Z</time>
      </trkpt>
      <trkpt lat="41.19627" lon="43.72359">
        <ele>2097.498494</ele>
        <time>2021-11-03T12:21:02.459Z</time>
      </trkpt>
      <trkpt lat="41.1977" lon="43.72114">
        <ele>2097.813908</ele>
        <time>2021-11-03T12:21:55.479Z</time>
      </trkpt>
      <trkpt lat="41.19905" lon="43.71849">
        <ele>2096.597995</ele>
        <time>2021-11-03T12:22:55.476Z</time>
      </trkpt>
      <trkpt lat="41.20047" lon="43.71586">
        <ele>2092.600443</ele>
        <time>2021-11-03T12:23:52.476Z</time>
      </trkpt>
      <trkpt lat="41.20184" lon="43.71309">
        <ele>2086.254023</ele>
        <time>2021-11-03T12:24:32.495Z</time>
      </trkpt>
      <trkpt lat="41.20302" lon="43.71082">
        <ele>2082.087054</ele>
        <time>2021-11-03T12:25:13.488Z</time>
      </trkpt>
      <trkpt lat="41.20456" lon="43.70866">
        <ele>2079.643505</ele>
        <time>2021-11-03T12:26:10.469Z</time>
      </trkpt>
      <trkpt lat="41.20612" lon="43.7063">
        <ele>2076.202989</ele>
        <time>2021-11-03T12:27:09.481Z</time>
      </trkpt>
      <trkpt lat="41.20776" lon="43.7039">
        <ele>2072.104352</ele>
        <time>2021-11-03T12:28:04.470Z</time>
      </trkpt>
      <trkpt lat="41.20935" lon="43.70155">
        <ele>2068.491682</ele>
        <time>2021-11-03T12:28:51.499Z</time>
      </trkpt>
      <trkpt lat="41.21101" lon="43.69906">
        <ele>2067.006957</ele>
        <time>2021-11-03T12:29:49.476Z</time>
      </trkpt>
      <trkpt lat="41.21248" lon="43.69683">
        <ele>2068.753216</ele>
        <time>2021-11-03T12:30:49.459Z</time>
      </trkpt>
      <trkpt lat="41.21385" lon="43.69458">
        <ele>2070.35554</ele>
        <time>2021-11-03T12:31:44.476Z</time>
      </trkpt>
      <trkpt lat="41.21529" lon="43.69175">
        <ele>2068.558645</ele>
        <time>2021-11-03T12:32:47.489Z</time>
      </trkpt>
      <trkpt lat="41.21633" lon="43.68918">
        <ele>2067.19306</ele>
        <time>2021-11-03T12:33:48.495Z</time>
      </trkpt>
      <trkpt lat="41.21708" lon="43.68641">
        <ele>2066.712804</ele>
        <time>2021-11-03T12:34:46.483Z</time>
      </trkpt>
      <trkpt lat="41.21779" lon="43.68394">
        <ele>2072.039928</ele>
        <time>2021-11-03T12:36:00.505Z</time>
      </trkpt>
      <trkpt lat="41.21854" lon="43.68115">
        <ele>2071.628677</ele>
        <time>2021-11-03T12:37:08.473Z</time>
      </trkpt>
      <trkpt lat="41.2192" lon="43.67838">
        <ele>2067.551982</ele>
        <time>2021-11-03T12:38:11.465Z</time>
      </trkpt>
      <trkpt lat="41.21988" lon="43.67545">
        <ele>2066.522699</ele>
        <time>2021-11-03T12:39:11.499Z</time>
      </trkpt>
      <trkpt lat="41.22056" lon="43.67244">
        <ele>2064.53776</ele>
        <time>2021-11-03T12:39:58.495Z</time>
      </trkpt>
      <trkpt lat="41.22123" lon="43.66954">
        <ele>2063.82534</ele>
        <time>2021-11-03T12:40:58.526Z</time>
      </trkpt>
      <trkpt lat="41.22193" lon="43.66662">
        <ele>2064.414596</ele>
        <time>2021-11-03T12:41:58.485Z</time>
      </trkpt>
      <trkpt lat="41.22263" lon="43.66341">
        <ele>2062.462569</ele>
        <time>2021-11-03T12:43:01.481Z</time>
      </trkpt>
      <trkpt lat="41.22322" lon="43.66049">
        <ele>2057.940641</ele>
        <time>2021-11-03T12:43:54.488Z</time>
      </trkpt>
      <trkpt lat="41.22388" lon="43.6573">
        <ele>2056.749191</ele>
        <time>2021-11-03T12:44:48.484Z</time>
      </trkpt>
      <trkpt lat="41.22499" lon="43.65458">
        <ele>2056.764303</ele>
        <time>2021-11-03T12:45:52.613Z</time>
      </trkpt>
      <trkpt lat="41.22628" lon="43.65257">
        <ele>2056.592394</ele>
        <time>2021-11-03T12:46:55.492Z</time>
      </trkpt>
      <trkpt lat="41.22771" lon="43.65011">
        <ele>2058.187958</ele>
        <time>2021-11-03T12:47:58.529Z</time>
      </trkpt>
      <trkpt lat="41.22768" lon="43.64722">
        <ele>2065.049479</ele>
        <time>2021-11-03T12:49:12.482Z</time>
      </trkpt>
      <trkpt lat="41.22791" lon="43.64444">
        <ele>2068.7773</ele>
        <time>2021-11-03T12:50:40.489Z</time>
      </trkpt>
      <trkpt lat="41.22882" lon="43.64181">
        <ele>2063.97453</ele>
        <time>2021-11-03T12:51:28.526Z</time>
      </trkpt>
      <trkpt lat="41.23035" lon="43.63859">
        <ele>2052.797416</ele>
        <time>2021-11-03T12:52:07.500Z</time>
      </trkpt>
      <trkpt lat="41.2322" lon="43.63531">
        <ele>2044.002922</ele>
        <time>2021-11-03T12:52:49.469Z</time>
      </trkpt>
      <trkpt lat="41.23348" lon="43.63307">
        <ele>2042.67812</ele>
        <time>2021-11-03T12:53:29.524Z</time>
      </trkpt>
      <trkpt lat="41.235" lon="43.63107">
        <ele>2039.379179</ele>
        <time>2021-11-03T12:54:11.494Z</time>
      </trkpt>
      <trkpt lat="41.2366" lon="43.6291">
        <ele>2035.671485</ele>
        <time>2021-11-03T12:54:55.513Z</time>
      </trkpt>
      <trkpt lat="41.2383" lon="43.62702">
        <ele>2032.308543</ele>
        <time>2021-11-03T12:55:51.527Z</time>
      </trkpt>
      <trkpt lat="41.24032" lon="43.62413">
        <ele>2023.96159</ele>
        <time>2021-11-03T12:56:30.485Z</time>
      </trkpt>
      <trkpt lat="41.24142" lon="43.62188">
        <ele>2017.077513</ele>
        <time>2021-11-03T12:56:50.473Z</time>
      </trkpt>
      <trkpt lat="41.24292" lon="43.61864">
        <ele>2008.545183</ele>
        <time>2021-11-03T12:57:29.468Z</time>
      </trkpt>
      <trkpt lat="41.24437" lon="43.61597">
        <ele>2002.753047</ele>
        <time>2021-11-03T12:58:09.488Z</time>
      </trkpt>
      <trkpt lat="41.24603" lon="43.6132">
        <ele>1994.954478</ele>
        <time>2021-11-03T12:58:40.522Z</time>
      </trkpt>
      <trkpt lat="41.24779" lon="43.61069">
        <ele>1994.026868</ele>
        <time>2021-11-03T12:59:36.499Z</time>
      </trkpt>
      <trkpt lat="41.24926" lon="43.60833">
        <ele>1994.475027</ele>
        <time>2021-11-03T13:00:27.475Z</time>
      </trkpt>
      <trkpt lat="41.25079" lon="43.60591">
        <ele>1995.480069</ele>
        <time>2021-11-03T13:01:31.495Z</time>
      </trkpt>
      <trkpt lat="41.25216" lon="43.60377">
        <ele>1999.609444</ele>
        <time>2021-11-03T13:02:51.490Z</time>
      </trkpt>
      <trkpt lat="41.2542" lon="43.60248">
        <ele>1996.825836</ele>
        <time>2021-11-03T13:03:37.481Z</time>
      </trkpt>
      <trkpt lat="41.25633" lon="43.60123">
        <ele>1992.733926</ele>
        <time>2021-11-03T13:04:26.506Z</time>
      </trkpt>
      <trkpt lat="41.25828" lon="43.6001">
        <ele>1996.103428</ele>
        <time>2021-11-03T13:05:26.493Z</time>
      </trkpt>
      <trkpt lat="41.26069" lon="43.59872">
        <ele>1992.827718</ele>
        <time>2021-11-03T13:06:17.532Z</time>
      </trkpt>
      <trkpt lat="41.26341" lon="43.59709">
        <ele>1976.753209</ele>
        <time>2021-11-03T13:06:52.491Z</time>
      </trkpt>
      <trkpt lat="41.26516" lon="43.59406">
        <ele>1962.941903</ele>
        <time>2021-11-03T13:07:32.473Z</time>
      </trkpt>
      <trkpt lat="41.26544" lon="43.59144">
        <ele>1960.339689</ele>
        <time>2021-11-03T13:08:22.481Z</time>
      </trkpt>
      <trkpt lat="41.26482" lon="43.5913">
        <ele>1960.339689</ele>
        <time>2021-11-03T13:20:15.532Z</time>
      </trkpt>
    </trkseg>
  </trk>
  <trk>
    <name><![CDATA[Tour d'Europe: étape 495]]></name>
    <extensions>
      <line xmlns="http://www.topografix.com/GPX/gpx_style/0/2">
        <color>FF0000</color>
        <width>4</width>
      </line>
    </extensions>
    <trkseg>
      <trkpt lat="41.26485" lon="43.5912">
        <ele>1959.158819</ele>
        <time>2021-11-05T04:50:43.212Z</time>
      </trkpt>
      <trkpt lat="41.26585" lon="43.59179">
        <ele>1959.259785</ele>
        <time>2021-11-05T04:58:48.183Z</time>
      </trkpt>
      <trkpt lat="41.26698" lon="43.58965">
        <ele>1959.770855</ele>
        <time>2021-11-05T04:59:37.164Z</time>
      </trkpt>
      <trkpt lat="41.26813" lon="43.58745">
        <ele>1957.866238</ele>
        <time>2021-11-05T05:00:20.195Z</time>
      </trkpt>
      <trkpt lat="41.27001" lon="43.58622">
        <ele>1958.005814</ele>
        <time>2021-11-05T05:01:06.175Z</time>
      </trkpt>
      <trkpt lat="41.27214" lon="43.58494">
        <ele>1958.110758</ele>
        <time>2021-11-05T05:01:58.233Z</time>
      </trkpt>
      <trkpt lat="41.27422" lon="43.58369">
        <ele>1954.887143</ele>
        <time>2021-11-05T05:02:38.190Z</time>
      </trkpt>
      <trkpt lat="41.27614" lon="43.58205">
        <ele>1955.931858</ele>
        <time>2021-11-05T05:03:26.186Z</time>
      </trkpt>
      <trkpt lat="41.27781" lon="43.58008">
        <ele>1952.514063</ele>
        <time>2021-11-05T05:04:17.178Z</time>
      </trkpt>
      <trkpt lat="41.27985" lon="43.57767">
        <ele>1943.390831</ele>
        <time>2021-11-05T05:04:57.184Z</time>
      </trkpt>
      <trkpt lat="41.28173" lon="43.57551">
        <ele>1932.691925</ele>
        <time>2021-11-05T05:05:26.176Z</time>
      </trkpt>
      <trkpt lat="41.28351" lon="43.57334">
        <ele>1922.09546</ele>
        <time>2021-11-05T05:05:47.172Z</time>
      </trkpt>
      <trkpt lat="41.28518" lon="43.57141">
        <ele>1916.792742</ele>
        <time>2021-11-05T05:06:08.196Z</time>
      </trkpt>
      <trkpt lat="41.28663" lon="43.56973">
        <ele>1914.173821</ele>
        <time>2021-11-05T05:06:29.188Z</time>
      </trkpt>
      <trkpt lat="41.28896" lon="43.56702">
        <ele>1907.403616</ele>
        <time>2021-11-05T05:07:08.185Z</time>
      </trkpt>
      <trkpt lat="41.29073" lon="43.56501">
        <ele>1909.337321</ele>
        <time>2021-11-05T05:07:56.204Z</time>
      </trkpt>
      <trkpt lat="41.2922" lon="43.56269">
        <ele>1908.509485</ele>
        <time>2021-11-05T05:08:37.187Z</time>
      </trkpt>
      <trkpt lat="41.29334" lon="43.56024">
        <ele>1907.166968</ele>
        <time>2021-11-05T05:09:37.183Z</time>
      </trkpt>
      <trkpt lat="41.29455" lon="43.5575">
        <ele>1901.764933</ele>
        <time>2021-11-05T05:10:21.166Z</time>
      </trkpt>
      <trkpt lat="41.29652" lon="43.55553">
        <ele>1891.262811</ele>
        <time>2021-11-05T05:10:44.208Z</time>
      </trkpt>
      <trkpt lat="41.29848" lon="43.55419">
        <ele>1885.325594</ele>
        <time>2021-11-05T05:11:04.234Z</time>
      </trkpt>
      <trkpt lat="41.30017" lon="43.55136">
        <ele>1881.285899</ele>
        <time>2021-11-05T05:11:36.178Z</time>
      </trkpt>
      <trkpt lat="41.3019" lon="43.54843">
        <ele>1881.264458</ele>
        <time>2021-11-05T05:12:16.200Z</time>
      </trkpt>
      <trkpt lat="41.30332" lon="43.54603">
        <ele>1881.683661</ele>
        <time>2021-11-05T05:12:56.187Z</time>
      </trkpt>
      <trkpt lat="41.30513" lon="43.54274">
        <ele>1875.360071</ele>
        <time>2021-11-05T05:13:34.213Z</time>
      </trkpt>
      <trkpt lat="41.30651" lon="43.54017">
        <ele>1871.09816</ele>
        <time>2021-11-05T05:14:04.169Z</time>
      </trkpt>
      <trkpt lat="41.308" lon="43.53731">
        <ele>1865.819343</ele>
        <time>2021-11-05T05:14:46.185Z</time>
      </trkpt>
      <trkpt lat="41.30956" lon="43.53474">
        <ele>1864.076427</ele>
        <time>2021-11-05T05:15:26.171Z</time>
      </trkpt>
      <trkpt lat="41.3111" lon="43.53247">
        <ele>1870.11928</ele>
        <time>2021-11-05T05:16:21.190Z</time>
      </trkpt>
      <trkpt lat="41.31282" lon="43.52996">
        <ele>1866.120307</ele>
        <time>2021-11-05T05:16:57.202Z</time>
      </trkpt>
      <trkpt lat="41.31426" lon="43.52785">
        <ele>1861.994526</ele>
        <time>2021-11-05T05:17:20.186Z</time>
      </trkpt>
      <trkpt lat="41.3164" lon="43.52471">
        <ele>1853.272989</ele>
        <time>2021-11-05T05:17:57.182Z</time>
      </trkpt>
      <trkpt lat="41.31838" lon="43.52185">
        <ele>1846.195372</ele>
        <time>2021-11-05T05:18:34.212Z</time>
      </trkpt>
      <trkpt lat="41.31986" lon="43.51967">
        <ele>1846.965328</ele>
        <time>2021-11-05T05:19:14.191Z</time>
      </trkpt>
      <trkpt lat="41.32148" lon="43.51734">
        <ele>1847.484293</ele>
        <time>2021-11-05T05:19:56.158Z</time>
      </trkpt>
      <trkpt lat="41.32323" lon="43.51479">
        <ele>1842.922377</ele>
        <time>2021-11-05T05:20:36.168Z</time>
      </trkpt>
      <trkpt lat="41.32516" lon="43.51198">
        <ele>1836.774581</ele>
        <time>2021-11-05T05:21:16.181Z</time>
      </trkpt>
      <trkpt lat="41.3273" lon="43.50971">
        <ele>1828.418965</ele>
        <time>2021-11-05T05:21:56.197Z</time>
      </trkpt>
      <trkpt lat="41.32901" lon="43.50773">
        <ele>1823.824394</ele>
        <time>2021-11-05T05:22:36.199Z</time>
      </trkpt>
      <trkpt lat="41.33031" lon="43.50537">
        <ele>1824.337105</ele>
        <time>2021-11-05T05:23:24.217Z</time>
      </trkpt>
      <trkpt lat="41.33159" lon="43.50306">
        <ele>1827.67741</ele>
        <time>2021-11-05T05:24:12.190Z</time>
      </trkpt>
      <trkpt lat="41.33304" lon="43.50044">
        <ele>1827.639433</ele>
        <time>2021-11-05T05:25:15.187Z</time>
      </trkpt>
      <trkpt lat="41.3344" lon="43.49796">
        <ele>1823.164275</ele>
        <time>2021-11-05T05:25:59.201Z</time>
      </trkpt>
      <trkpt lat="41.33627" lon="43.49529">
        <ele>1815.720404</ele>
        <time>2021-11-05T05:26:39.192Z</time>
      </trkpt>
      <trkpt lat="41.33814" lon="43.49405">
        <ele>1811.774876</ele>
        <time>2021-11-05T05:27:19.206Z</time>
      </trkpt>
      <trkpt lat="41.34052" lon="43.49315">
        <ele>1805.271229</ele>
        <time>2021-11-05T05:27:53.196Z</time>
      </trkpt>
      <trkpt lat="41.3435" lon="43.4935">
        <ele>1795.675124</ele>
        <time>2021-11-05T05:28:27.187Z</time>
      </trkpt>
      <trkpt lat="41.34582" lon="43.49378">
        <ele>1789.018353</ele>
        <time>2021-11-05T05:28:53.194Z</time>
      </trkpt>
      <trkpt lat="41.34848" lon="43.49411">
        <ele>1784.821267</ele>
        <time>2021-11-05T05:29:30.196Z</time>
      </trkpt>
      <trkpt lat="41.35086" lon="43.4944">
        <ele>1779.988708</ele>
        <time>2021-11-05T05:30:10.196Z</time>
      </trkpt>
      <trkpt lat="41.35339" lon="43.49472">
        <ele>1772.033908</ele>
        <time>2021-11-05T05:30:50.197Z</time>
      </trkpt>
      <trkpt lat="41.35584" lon="43.49503">
        <ele>1768.523121</ele>
        <time>2021-11-05T05:31:30.219Z</time>
      </trkpt>
      <trkpt lat="41.35793" lon="43.49527">
        <ele>1766.120198</ele>
        <time>2021-11-05T05:32:10.186Z</time>
      </trkpt>
      <trkpt lat="41.36048" lon="43.49563">
        <ele>1761.429682</ele>
        <time>2021-11-05T05:32:50.196Z</time>
      </trkpt>
      <trkpt lat="41.36257" lon="43.49645">
        <ele>1757.876765</ele>
        <time>2021-11-05T05:33:30.201Z</time>
      </trkpt>
      <trkpt lat="41.36484" lon="43.49697">
        <ele>1754.260061</ele>
        <time>2021-11-05T05:34:12.177Z</time>
      </trkpt>
      <trkpt lat="41.36726" lon="43.49646">
        <ele>1745.797908</ele>
        <time>2021-11-05T05:34:42.200Z</time>
      </trkpt>
      <trkpt lat="41.3694" lon="43.49619">
        <ele>1738.829375</ele>
        <time>2021-11-05T05:35:02.215Z</time>
      </trkpt>
      <trkpt lat="41.37144" lon="43.4958">
        <ele>1734.740559</ele>
        <time>2021-11-05T05:35:25.218Z</time>
      </trkpt>
      <trkpt lat="41.37358" lon="43.49447">
        <ele>1739.356455</ele>
        <time>2021-11-05T05:36:20.183Z</time>
      </trkpt>
      <trkpt lat="41.37546" lon="43.49328">
        <ele>1742.997533</ele>
        <time>2021-11-05T05:37:28.195Z</time>
      </trkpt>
      <trkpt lat="41.37749" lon="43.49276">
        <ele>1747.192208</ele>
        <time>2021-11-05T05:38:36.180Z</time>
      </trkpt>
      <trkpt lat="41.37986" lon="43.49229">
        <ele>1748.351902</ele>
        <time>2021-11-05T05:39:32.206Z</time>
      </trkpt>
      <trkpt lat="41.38185" lon="43.49194">
        <ele>1745.493748</ele>
        <time>2021-11-05T05:40:12.215Z</time>
      </trkpt>
      <trkpt lat="41.38379" lon="43.49158">
        <ele>1743.437066</ele>
        <time>2021-11-05T05:40:52.199Z</time>
      </trkpt>
      <trkpt lat="41.38579" lon="43.49117">
        <ele>1743.106521</ele>
        <time>2021-11-05T05:41:34.196Z</time>
      </trkpt>
      <trkpt lat="41.38786" lon="43.4908">
        <ele>1743.654662</ele>
        <time>2021-11-05T05:42:20.204Z</time>
      </trkpt>
      <trkpt lat="41.38993" lon="43.49037">
        <ele>1745.203168</ele>
        <time>2021-11-05T06:00:37.199Z</time>
      </trkpt>
      <trkpt lat="41.39223" lon="43.48993">
        <ele>1743.60204</ele>
        <time>2021-11-05T06:01:28.202Z</time>
      </trkpt>
      <trkpt lat="41.39434" lon="43.48952">
        <ele>1743.496742</ele>
        <time>2021-11-05T06:02:12.197Z</time>
      </trkpt>
      <trkpt lat="41.39658" lon="43.48907">
        <ele>1743.298476</ele>
        <time>2021-11-05T06:02:57.180Z</time>
      </trkpt>
      <trkpt lat="41.39892" lon="43.48869">
        <ele>1739.602034</ele>
        <time>2021-11-05T06:03:38.230Z</time>
      </trkpt>
      <trkpt lat="41.40109" lon="43.48853">
        <ele>1741.710238</ele>
        <time>2021-11-05T06:04:28.213Z</time>
      </trkpt>
      <trkpt lat="41.40313" lon="43.48882">
        <ele>1739.434644</ele>
        <time>2021-11-05T06:05:10.195Z</time>
      </trkpt>
      <trkpt lat="41.40508" lon="43.48768">
        <ele>1743.326511</ele>
        <time>2021-11-05T06:05:57.178Z</time>
      </trkpt>
      <trkpt lat="41.40701" lon="43.48633">
        <ele>1747.142313</ele>
        <time>2021-11-05T06:06:44.182Z</time>
      </trkpt>
      <trkpt lat="41.40912" lon="43.48518">
        <ele>1748.464853</ele>
        <time>2021-11-05T06:08:03.208Z</time>
      </trkpt>
      <trkpt lat="41.41099" lon="43.48363">
        <ele>1742.541847</ele>
        <time>2021-11-05T06:09:02.230Z</time>
      </trkpt>
      <trkpt lat="41.41265" lon="43.48332">
        <ele>1729.620533</ele>
        <time>2021-11-05T06:10:00.224Z</time>
      </trkpt>
      <trkpt lat="41.41351" lon="43.48576">
        <ele>1723.503637</ele>
        <time>2021-11-05T06:10:55.220Z</time>
      </trkpt>
      <trkpt lat="41.41405" lon="43.48623">
        <ele>1703.345147</ele>
        <time>2021-11-05T06:13:40.225Z</time>
      </trkpt>
      <trkpt lat="41.41464" lon="43.48311">
        <ele>1683.585129</ele>
        <time>2021-11-05T06:14:21.222Z</time>
      </trkpt>
      <trkpt lat="41.41488" lon="43.48643">
        <ele>1671.871369</ele>
        <time>2021-11-05T06:15:01.214Z</time>
      </trkpt>
      <trkpt lat="41.41431" lon="43.48922">
        <ele>1667.030126</ele>
        <time>2021-11-05T06:15:24.195Z</time>
      </trkpt>
      <trkpt lat="41.41535" lon="43.48885">
        <ele>1663.127933</ele>
        <time>2021-11-05T06:16:07.199Z</time>
      </trkpt>
      <trkpt lat="41.41596" lon="43.48556">
        <ele>1655.941519</ele>
        <time>2021-11-05T06:16:47.211Z</time>
      </trkpt>
      <trkpt lat="41.41721" lon="43.48211">
        <ele>1651.125307</ele>
        <time>2021-11-05T06:17:27.203Z</time>
      </trkpt>
      <trkpt lat="41.41895" lon="43.48019">
        <ele>1651.506031</ele>
        <time>2021-11-05T06:18:15.233Z</time>
      </trkpt>
      <trkpt lat="41.42099" lon="43.47904">
        <ele>1655.372074</ele>
        <time>2021-11-05T06:19:03.198Z</time>
      </trkpt>
      <trkpt lat="41.42271" lon="43.47733">
        <ele>1652.542588</ele>
        <time>2021-11-05T06:19:48.240Z</time>
      </trkpt>
      <trkpt lat="41.42363" lon="43.47473">
        <ele>1651.65705</ele>
        <time>2021-11-05T06:20:35.206Z</time>
      </trkpt>
      <trkpt lat="41.42563" lon="43.47331">
        <ele>1646.686721</ele>
        <time>2021-11-05T06:21:37.199Z</time>
      </trkpt>
      <trkpt lat="41.42794" lon="43.47242">
        <ele>1648.069611</ele>
        <time>2021-11-05T06:22:34.184Z</time>
      </trkpt>
      <trkpt lat="41.42942" lon="43.47065">
        <ele>1651.579824</ele>
        <time>2021-11-05T06:23:14.201Z</time>
      </trkpt>
      <trkpt lat="41.432" lon="43.46926">
        <ele>1643.127782</ele>
        <time>2021-11-05T06:23:55.237Z</time>
      </trkpt>
      <trkpt lat="41.43443" lon="43.46874">
        <ele>1640.971158</ele>
        <time>2021-11-05T06:24:35.215Z</time>
      </trkpt>
      <trkpt lat="41.43673" lon="43.468">
        <ele>1639.00846</ele>
        <time>2021-11-05T06:25:16.214Z</time>
      </trkpt>
      <trkpt lat="41.43872" lon="43.4676">
        <ele>1634.278971</ele>
        <time>2021-11-05T06:25:59.216Z</time>
      </trkpt>
      <trkpt lat="41.44086" lon="43.46869">
        <ele>1631.104612</ele>
        <time>2021-11-05T06:26:39.234Z</time>
      </trkpt>
      <trkpt lat="41.44321" lon="43.46817">
        <ele>1625.944759</ele>
        <time>2021-11-05T06:27:21.218Z</time>
      </trkpt>
      <trkpt lat="41.44573" lon="43.46827">
        <ele>1617.523669</ele>
        <time>2021-11-05T06:28:01.204Z</time>
      </trkpt>
      <trkpt lat="41.4485" lon="43.46833">
        <ele>1612.546186</ele>
        <time>2021-11-05T06:28:41.199Z</time>
      </trkpt>
      <trkpt lat="41.45106" lon="43.46918">
        <ele>1607.098729</ele>
        <time>2021-11-05T06:29:21.198Z</time>
      </trkpt>
      <trkpt lat="41.45332" lon="43.47025">
        <ele>1601.74109</ele>
        <time>2021-11-05T06:30:01.204Z</time>
      </trkpt>
      <trkpt lat="41.4561" lon="43.46893">
        <ele>1596.615741</ele>
        <time>2021-11-05T06:30:41.216Z</time>
      </trkpt>
      <trkpt lat="41.45777" lon="43.46637">
        <ele>1597.077368</ele>
        <time>2021-11-05T06:31:21.181Z</time>
      </trkpt>
      <trkpt lat="41.45799" lon="43.46343">
        <ele>1591.100922</ele>
        <time>2021-11-05T06:32:03.203Z</time>
      </trkpt>
      <trkpt lat="41.45783" lon="43.46026">
        <ele>1569.475009</ele>
        <time>2021-11-05T06:32:43.201Z</time>
      </trkpt>
      <trkpt lat="41.45863" lon="43.45764">
        <ele>1563.824629</ele>
        <time>2021-11-05T06:33:05.312Z</time>
      </trkpt>
      <trkpt lat="41.45842" lon="43.45419">
        <ele>1553.921292</ele>
        <time>2021-11-05T06:33:36.195Z</time>
      </trkpt>
      <trkpt lat="41.45773" lon="43.45147">
        <ele>1552.142277</ele>
        <time>2021-11-05T06:34:26.191Z</time>
      </trkpt>
      <trkpt lat="41.45867" lon="43.44812">
        <ele>1542.847676</ele>
        <time>2021-11-05T06:35:06.213Z</time>
      </trkpt>
      <trkpt lat="41.46092" lon="43.44558">
        <ele>1522.269069</ele>
        <time>2021-11-05T06:35:46.203Z</time>
      </trkpt>
      <trkpt lat="41.46326" lon="43.44318">
        <ele>1510.96374</ele>
        <time>2021-11-05T06:36:28.230Z</time>
      </trkpt>
      <trkpt lat="41.46489" lon="43.44067">
        <ele>1507.942263</ele>
        <time>2021-11-05T06:37:08.201Z</time>
      </trkpt>
      <trkpt lat="41.46589" lon="43.43885">
        <ele>1500.595964</ele>
        <time>2021-11-05T06:37:48.209Z</time>
      </trkpt>
      <trkpt lat="41.46647" lon="43.43551">
        <ele>1489.640952</ele>
        <time>2021-11-05T06:38:28.209Z</time>
      </trkpt>
      <trkpt lat="41.46737" lon="43.43231">
        <ele>1482.103238</ele>
        <time>2021-11-05T06:39:08.226Z</time>
      </trkpt>
      <trkpt lat="41.46672" lon="43.42898">
        <ele>1475.656431</ele>
        <time>2021-11-05T06:39:42.192Z</time>
      </trkpt>
      <trkpt lat="41.46592" lon="43.42538">
        <ele>1461.901145</ele>
        <time>2021-11-05T06:40:22.254Z</time>
      </trkpt>
      <trkpt lat="41.46469" lon="43.42221">
        <ele>1453.035826</ele>
        <time>2021-11-05T06:40:56.189Z</time>
      </trkpt>
      <trkpt lat="41.46429" lon="43.41884">
        <ele>1443.8589</ele>
        <time>2021-11-05T06:41:33.206Z</time>
      </trkpt>
      <trkpt lat="41.4651" lon="43.41615">
        <ele>1448.664393</ele>
        <time>2021-11-05T06:42:42.210Z</time>
      </trkpt>
      <trkpt lat="41.46657" lon="43.41309">
        <ele>1441.092639</ele>
        <time>2021-11-05T06:43:22.202Z</time>
      </trkpt>
      <trkpt lat="41.46774" lon="43.40969">
        <ele>1427.105507</ele>
        <time>2021-11-05T06:43:56.227Z</time>
      </trkpt>
      <trkpt lat="41.46874" lon="43.40632">
        <ele>1416.713566</ele>
        <time>2021-11-05T06:44:36.223Z</time>
      </trkpt>
      <trkpt lat="41.4695" lon="43.4039">
        <ele>1410.339877</ele>
        <time>2021-11-05T06:44:56.197Z</time>
      </trkpt>
      <trkpt lat="41.47054" lon="43.40078">
        <ele>1397.525187</ele>
        <time>2021-11-05T06:45:25.223Z</time>
      </trkpt>
      <trkpt lat="41.47289" lon="43.3977">
        <ele>1380.193792</ele>
        <time>2021-11-05T06:46:06.211Z</time>
      </trkpt>
      <trkpt lat="41.47493" lon="43.39546">
        <ele>1375.32852</ele>
        <time>2021-11-05T06:46:39.213Z</time>
      </trkpt>
      <trkpt lat="41.47757" lon="43.39383">
        <ele>1371.199877</ele>
        <time>2021-11-05T06:47:19.212Z</time>
      </trkpt>
      <trkpt lat="41.4789" lon="43.3905">
        <ele>1364.460625</ele>
        <time>2021-11-05T06:47:55.237Z</time>
      </trkpt>
      <trkpt lat="41.48038" lon="43.38756">
        <ele>1356.166397</ele>
        <time>2021-11-05T06:48:27.203Z</time>
      </trkpt>
      <trkpt lat="41.48076" lon="43.38475">
        <ele>1354.411039</ele>
        <time>2021-11-05T06:49:10.215Z</time>
      </trkpt>
      <trkpt lat="41.48174" lon="43.38215">
        <ele>1357.761223</ele>
        <time>2021-11-05T06:50:11.246Z</time>
      </trkpt>
      <trkpt lat="41.48347" lon="43.37912">
        <ele>1339.97221</ele>
        <time>2021-11-05T06:50:52.205Z</time>
      </trkpt>
      <trkpt lat="41.48368" lon="43.37637">
        <ele>1329.731671</ele>
        <time>2021-11-05T06:51:12.200Z</time>
      </trkpt>
      <trkpt lat="41.48478" lon="43.37286">
        <ele>1317.816472</ele>
        <time>2021-11-05T06:51:45.210Z</time>
      </trkpt>
      <trkpt lat="41.48473" lon="43.36892">
        <ele>1314.763534</ele>
        <time>2021-11-05T06:52:25.223Z</time>
      </trkpt>
      <trkpt lat="41.48435" lon="43.36505">
        <ele>1315.074768</ele>
        <time>2021-11-05T06:53:05.234Z</time>
      </trkpt>
      <trkpt lat="41.48454" lon="43.36192">
        <ele>1311.421875</ele>
        <time>2021-11-05T06:53:45.195Z</time>
      </trkpt>
      <trkpt lat="41.48508" lon="43.35887">
        <ele>1299.511621</ele>
        <time>2021-11-05T06:54:15.211Z</time>
      </trkpt>
      <trkpt lat="41.48672" lon="43.3561">
        <ele>1288.403884</ele>
        <time>2021-11-05T06:54:47.214Z</time>
      </trkpt>
      <trkpt lat="41.48764" lon="43.35283">
        <ele>1275.748881</ele>
        <time>2021-11-05T06:55:24.204Z</time>
      </trkpt>
      <trkpt lat="41.48836" lon="43.34903">
        <ele>1260.542559</ele>
        <time>2021-11-05T06:56:03.202Z</time>
      </trkpt>
      <trkpt lat="41.48858" lon="43.3462">
        <ele>1265.96284</ele>
        <time>2021-11-05T06:56:43.197Z</time>
      </trkpt>
      <trkpt lat="41.48996" lon="43.34255">
        <ele>1252.166343</ele>
        <time>2021-11-05T06:57:23.211Z</time>
      </trkpt>
      <trkpt lat="41.49068" lon="43.3397">
        <ele>1246.760397</ele>
        <time>2021-11-05T06:58:18.247Z</time>
      </trkpt>
      <trkpt lat="41.49124" lon="43.33641">
        <ele>1247.960184</ele>
        <time>2021-11-05T06:58:58.204Z</time>
      </trkpt>
      <trkpt lat="41.49046" lon="43.33307">
        <ele>1245.927214</ele>
        <time>2021-11-05T06:59:42.227Z</time>
      </trkpt>
      <trkpt lat="41.48971" lon="43.32987">
        <ele>1231.922946</ele>
        <time>2021-11-05T07:00:22.219Z</time>
      </trkpt>
      <trkpt lat="41.48893" lon="43.32736">
        <ele>1228.860254</ele>
        <time>2021-11-05T07:01:02.219Z</time>
      </trkpt>
      <trkpt lat="41.48853" lon="43.3243">
        <ele>1224.339924</ele>
        <time>2021-11-05T07:01:48.206Z</time>
      </trkpt>
      <trkpt lat="41.48793" lon="43.32184">
        <ele>1232.051633</ele>
        <time>2021-11-05T07:03:15.234Z</time>
      </trkpt>
      <trkpt lat="41.48804" lon="43.31933">
        <ele>1235.285358</ele>
        <time>2021-11-05T07:04:28.222Z</time>
      </trkpt>
      <trkpt lat="41.48766" lon="43.31679">
        <ele>1235.469239</ele>
        <time>2021-11-05T07:05:28.211Z</time>
      </trkpt>
      <trkpt lat="41.48635" lon="43.3144">
        <ele>1236.421156</ele>
        <time>2021-11-05T07:06:32.206Z</time>
      </trkpt>
      <trkpt lat="41.48607" lon="43.311">
        <ele>1232.605924</ele>
        <time>2021-11-05T07:07:12.214Z</time>
      </trkpt>
      <trkpt lat="41.48478" lon="43.308">
        <ele>1219.481725</ele>
        <time>2021-11-05T07:07:45.235Z</time>
      </trkpt>
      <trkpt lat="41.4838" lon="43.3045">
        <ele>1206.67344</ele>
        <time>2021-11-05T07:08:18.208Z</time>
      </trkpt>
      <trkpt lat="41.4832" lon="43.30067">
        <ele>1194.585236</ele>
        <time>2021-11-05T07:08:57.189Z</time>
      </trkpt>
      <trkpt lat="41.48302" lon="43.29762">
        <ele>1184.952699</ele>
        <time>2021-11-05T07:09:22.214Z</time>
      </trkpt>
      <trkpt lat="41.4824" lon="43.29412">
        <ele>1178.463089</ele>
        <time>2021-11-05T07:09:56.219Z</time>
      </trkpt>
      <trkpt lat="41.48224" lon="43.2911">
        <ele>1176.40502</ele>
        <time>2021-11-05T07:10:41.262Z</time>
      </trkpt>
      <trkpt lat="41.48184" lon="43.28779">
        <ele>1173.758851</ele>
        <time>2021-11-05T07:11:34.213Z</time>
      </trkpt>
      <trkpt lat="41.48111" lon="43.28506">
        <ele>1174.775727</ele>
        <time>2021-11-05T07:12:28.207Z</time>
      </trkpt>
      <trkpt lat="41.48086" lon="43.28227">
        <ele>1175.957966</ele>
        <time>2021-11-05T07:13:35.253Z</time>
      </trkpt>
      <trkpt lat="41.48215" lon="43.27904">
        <ele>1165.406008</ele>
        <time>2021-11-05T07:14:07.226Z</time>
      </trkpt>
      <trkpt lat="41.48335" lon="43.27659">
        <ele>1151.253756</ele>
        <time>2021-11-05T07:14:27.209Z</time>
      </trkpt>
      <trkpt lat="41.48415" lon="43.27325">
        <ele>1145.635563</ele>
        <time>2021-11-05T07:15:05.237Z</time>
      </trkpt>
      <trkpt lat="41.48425" lon="43.27032">
        <ele>1148.17507</ele>
        <time>2021-11-05T07:15:57.230Z</time>
      </trkpt>
      <trkpt lat="41.48631" lon="43.26799">
        <ele>1145.666878</ele>
        <time>2021-11-05T07:21:14.231Z</time>
      </trkpt>
      <trkpt lat="41.48836" lon="43.26826">
        <ele>1139.374966</ele>
        <time>2021-11-05T07:21:59.211Z</time>
      </trkpt>
      <trkpt lat="41.49023" lon="43.26707">
        <ele>1143.487941</ele>
        <time>2021-11-05T07:22:46.254Z</time>
      </trkpt>
      <trkpt lat="41.49234" lon="43.26685">
        <ele>1146.195705</ele>
        <time>2021-11-05T07:24:05.208Z</time>
      </trkpt>
      <trkpt lat="41.4947" lon="43.26612">
        <ele>1142.435924</ele>
        <time>2021-11-05T07:24:48.219Z</time>
      </trkpt>
      <trkpt lat="41.49654" lon="43.26485">
        <ele>1140.560934</ele>
        <time>2021-11-05T07:25:28.224Z</time>
      </trkpt>
      <trkpt lat="41.49861" lon="43.26327">
        <ele>1131.68642</ele>
        <time>2021-11-05T07:26:07.224Z</time>
      </trkpt>
      <trkpt lat="41.50117" lon="43.26332">
        <ele>1131.031873</ele>
        <time>2021-11-05T07:26:49.210Z</time>
      </trkpt>
      <trkpt lat="41.50323" lon="43.26287">
        <ele>1135.721177</ele>
        <time>2021-11-05T07:27:38.223Z</time>
      </trkpt>
      <trkpt lat="41.5053" lon="43.26154">
        <ele>1133.186785</ele>
        <time>2021-11-05T07:28:22.202Z</time>
      </trkpt>
      <trkpt lat="41.50747" lon="43.26126">
        <ele>1128.220481</ele>
        <time>2021-11-05T07:29:02.223Z</time>
      </trkpt>
      <trkpt lat="41.50953" lon="43.26136">
        <ele>1128.699635</ele>
        <time>2021-11-05T07:29:54.268Z</time>
      </trkpt>
      <trkpt lat="41.51169" lon="43.26128">
        <ele>1129.752916</ele>
        <time>2021-11-05T07:30:34.219Z</time>
      </trkpt>
      <trkpt lat="41.5137" lon="43.26173">
        <ele>1125.751649</ele>
        <time>2021-11-05T07:31:17.224Z</time>
      </trkpt>
      <trkpt lat="41.51565" lon="43.26119">
        <ele>1134.973683</ele>
        <time>2021-11-05T07:32:44.202Z</time>
      </trkpt>
      <trkpt lat="41.51686" lon="43.2593">
        <ele>1142.843367</ele>
        <time>2021-11-05T07:34:09.241Z</time>
      </trkpt>
      <trkpt lat="41.51927" lon="43.25961">
        <ele>1130.988903</ele>
        <time>2021-11-05T07:34:42.229Z</time>
      </trkpt>
      <trkpt lat="41.52157" lon="43.25978">
        <ele>1121.186505</ele>
        <time>2021-11-05T07:35:08.213Z</time>
      </trkpt>
      <trkpt lat="41.52286" lon="43.25956">
        <ele>1120.946676</ele>
        <time>2021-11-05T09:05:12.268Z</time>
      </trkpt>
    </trkseg>
  </trk>
</gpx>